<?xml version="1.0" encoding="UTF-8" standalone="no" ?>
<gpx xmlns="http://www.topografix.com/GPX/1/1" xmlns:xsi="http://www.w3.org/2001/XMLSchema-instance" xsi:schemaLocation="http://www.topografix.com/GPX/1/1 http://www.topografix.com/GPX/1/1/gpx.xsd" version="1.1" creator="VisuGPX - https://www.visugpx.com">
  <metadata>
    <name>Les 2.5 Sommets</name>
    <desc><![CDATA[Initialement ce parcours reprend les Trois sommets de Toulon.
Mont Caume, Faron et Coudon. Mais pour une raison de timing je n'ai pas réussi à terminer l'ascension !]]></desc>
  </metadata>
  <trk>
    <name><![CDATA[Les 2.5 Sommets_1]]></name>
    <trkseg>
      <trkpt lat="43.1572" lon="5.963">
        <ele>208</ele>
        <time>2016-07-30T05:55:05.000Z</time>
      </trkpt>
      <trkpt lat="43.15719" lon="5.96303">
        <ele>210</ele>
        <time>2016-07-30T05:55:06.000Z</time>
      </trkpt>
      <trkpt lat="43.15718" lon="5.96304">
        <ele>210</ele>
        <time>2016-07-30T05:55:07.000Z</time>
      </trkpt>
      <trkpt lat="43.15718" lon="5.96304">
        <ele>211</ele>
        <time>2016-07-30T05:55:08.000Z</time>
      </trkpt>
      <trkpt lat="43.15718" lon="5.96304">
        <ele>211</ele>
        <time>2016-07-30T05:55:09.000Z</time>
      </trkpt>
      <trkpt lat="43.15718" lon="5.96303">
        <ele>212</ele>
        <time>2016-07-30T05:55:10.000Z</time>
      </trkpt>
      <trkpt lat="43.15718" lon="5.96302">
        <ele>213</ele>
        <time>2016-07-30T05:55:11.000Z</time>
      </trkpt>
      <trkpt lat="43.15718" lon="5.96301">
        <ele>215</ele>
        <time>2016-07-30T05:55:12.000Z</time>
      </trkpt>
      <trkpt lat="43.15719" lon="5.96299">
        <ele>216</ele>
        <time>2016-07-30T05:55:13.000Z</time>
      </trkpt>
      <trkpt lat="43.15719" lon="5.96297">
        <ele>216</ele>
        <time>2016-07-30T05:55:14.000Z</time>
      </trkpt>
      <trkpt lat="43.1572" lon="5.96295">
        <ele>217</ele>
        <time>2016-07-30T05:55:15.000Z</time>
      </trkpt>
      <trkpt lat="43.15721" lon="5.96293">
        <ele>217</ele>
        <time>2016-07-30T05:55:16.000Z</time>
      </trkpt>
      <trkpt lat="43.15722" lon="5.96291">
        <ele>217</ele>
        <time>2016-07-30T05:55:17.000Z</time>
      </trkpt>
      <trkpt lat="43.15723" lon="5.96288">
        <ele>218</ele>
        <time>2016-07-30T05:55:18.000Z</time>
      </trkpt>
      <trkpt lat="43.15723" lon="5.96285">
        <ele>218</ele>
        <time>2016-07-30T05:55:19.000Z</time>
      </trkpt>
      <trkpt lat="43.15723" lon="5.96282">
        <ele>219</ele>
        <time>2016-07-30T05:55:20.000Z</time>
      </trkpt>
      <trkpt lat="43.15724" lon="5.96278">
        <ele>219</ele>
        <time>2016-07-30T05:55:21.000Z</time>
      </trkpt>
      <trkpt lat="43.15724" lon="5.96275">
        <ele>220</ele>
        <time>2016-07-30T05:55:22.000Z</time>
      </trkpt>
      <trkpt lat="43.15724" lon="5.96272">
        <ele>221</ele>
        <time>2016-07-30T05:55:23.000Z</time>
      </trkpt>
      <trkpt lat="43.15725" lon="5.96269">
        <ele>222</ele>
        <time>2016-07-30T05:55:24.000Z</time>
      </trkpt>
      <trkpt lat="43.15725" lon="5.96266">
        <ele>222</ele>
        <time>2016-07-30T05:55:25.000Z</time>
      </trkpt>
      <trkpt lat="43.15726" lon="5.96263">
        <ele>221</ele>
        <time>2016-07-30T05:55:26.000Z</time>
      </trkpt>
      <trkpt lat="43.15727" lon="5.96259">
        <ele>221</ele>
        <time>2016-07-30T05:55:27.000Z</time>
      </trkpt>
      <trkpt lat="43.15728" lon="5.96255">
        <ele>221</ele>
        <time>2016-07-30T05:55:28.000Z</time>
      </trkpt>
      <trkpt lat="43.15729" lon="5.96252">
        <ele>221</ele>
        <time>2016-07-30T05:55:29.000Z</time>
      </trkpt>
      <trkpt lat="43.1573" lon="5.96248">
        <ele>221</ele>
        <time>2016-07-30T05:55:30.000Z</time>
      </trkpt>
      <trkpt lat="43.15731" lon="5.96244">
        <ele>219</ele>
        <time>2016-07-30T05:55:31.000Z</time>
      </trkpt>
      <trkpt lat="43.15731" lon="5.96239">
        <ele>218</ele>
        <time>2016-07-30T05:55:32.000Z</time>
      </trkpt>
      <trkpt lat="43.15732" lon="5.96234">
        <ele>217</ele>
        <time>2016-07-30T05:55:33.000Z</time>
      </trkpt>
      <trkpt lat="43.15733" lon="5.9623">
        <ele>217</ele>
        <time>2016-07-30T05:55:34.000Z</time>
      </trkpt>
      <trkpt lat="43.15735" lon="5.96225">
        <ele>217</ele>
        <time>2016-07-30T05:55:35.000Z</time>
      </trkpt>
      <trkpt lat="43.15736" lon="5.96221">
        <ele>217</ele>
        <time>2016-07-30T05:55:36.000Z</time>
      </trkpt>
      <trkpt lat="43.15737" lon="5.96216">
        <ele>216</ele>
        <time>2016-07-30T05:55:37.000Z</time>
      </trkpt>
      <trkpt lat="43.15739" lon="5.96211">
        <ele>215</ele>
        <time>2016-07-30T05:55:38.000Z</time>
      </trkpt>
      <trkpt lat="43.1574" lon="5.96206">
        <ele>214</ele>
        <time>2016-07-30T05:55:39.000Z</time>
      </trkpt>
      <trkpt lat="43.15742" lon="5.962">
        <ele>214</ele>
        <time>2016-07-30T05:55:40.000Z</time>
      </trkpt>
      <trkpt lat="43.15744" lon="5.96194">
        <ele>214</ele>
        <time>2016-07-30T05:55:41.000Z</time>
      </trkpt>
      <trkpt lat="43.15746" lon="5.96188">
        <ele>213</ele>
        <time>2016-07-30T05:55:42.000Z</time>
      </trkpt>
      <trkpt lat="43.15747" lon="5.96181">
        <ele>213</ele>
        <time>2016-07-30T05:55:43.000Z</time>
      </trkpt>
      <trkpt lat="43.15748" lon="5.96174">
        <ele>213</ele>
        <time>2016-07-30T05:55:44.000Z</time>
      </trkpt>
      <trkpt lat="43.15747" lon="5.96165">
        <ele>213</ele>
        <time>2016-07-30T05:55:45.000Z</time>
      </trkpt>
      <trkpt lat="43.15746" lon="5.96156">
        <ele>214</ele>
        <time>2016-07-30T05:55:46.000Z</time>
      </trkpt>
      <trkpt lat="43.15743" lon="5.96147">
        <ele>214</ele>
        <time>2016-07-30T05:55:47.000Z</time>
      </trkpt>
      <trkpt lat="43.1574" lon="5.9614">
        <ele>211</ele>
        <time>2016-07-30T05:55:48.000Z</time>
      </trkpt>
      <trkpt lat="43.15737" lon="5.96134">
        <ele>210</ele>
        <time>2016-07-30T05:55:49.000Z</time>
      </trkpt>
      <trkpt lat="43.15731" lon="5.96131">
        <ele>207</ele>
        <time>2016-07-30T05:55:50.000Z</time>
      </trkpt>
      <trkpt lat="43.15724" lon="5.96128">
        <ele>205</ele>
        <time>2016-07-30T05:55:51.000Z</time>
      </trkpt>
      <trkpt lat="43.15716" lon="5.96129">
        <ele>202</ele>
        <time>2016-07-30T05:55:52.000Z</time>
      </trkpt>
      <trkpt lat="43.15708" lon="5.96132">
        <ele>204</ele>
        <time>2016-07-30T05:55:53.000Z</time>
      </trkpt>
      <trkpt lat="43.157" lon="5.96138">
        <ele>206</ele>
        <time>2016-07-30T05:55:54.000Z</time>
      </trkpt>
      <trkpt lat="43.15692" lon="5.96145">
        <ele>207</ele>
        <time>2016-07-30T05:55:55.000Z</time>
      </trkpt>
      <trkpt lat="43.15684" lon="5.96152">
        <ele>206</ele>
        <time>2016-07-30T05:55:56.000Z</time>
      </trkpt>
      <trkpt lat="43.15676" lon="5.96157">
        <ele>206</ele>
        <time>2016-07-30T05:55:57.000Z</time>
      </trkpt>
      <trkpt lat="43.15668" lon="5.96162">
        <ele>205</ele>
        <time>2016-07-30T05:55:58.000Z</time>
      </trkpt>
      <trkpt lat="43.15659" lon="5.96168">
        <ele>204</ele>
        <time>2016-07-30T05:55:59.000Z</time>
      </trkpt>
      <trkpt lat="43.15651" lon="5.96173">
        <ele>202</ele>
        <time>2016-07-30T05:56:00.000Z</time>
      </trkpt>
      <trkpt lat="43.15642" lon="5.96177">
        <ele>201</ele>
        <time>2016-07-30T05:56:01.000Z</time>
      </trkpt>
      <trkpt lat="43.15633" lon="5.96183">
        <ele>200</ele>
        <time>2016-07-30T05:56:02.000Z</time>
      </trkpt>
      <trkpt lat="43.15625" lon="5.96188">
        <ele>198</ele>
        <time>2016-07-30T05:56:03.000Z</time>
      </trkpt>
      <trkpt lat="43.15616" lon="5.96194">
        <ele>196</ele>
        <time>2016-07-30T05:56:04.000Z</time>
      </trkpt>
      <trkpt lat="43.15606" lon="5.962">
        <ele>195</ele>
        <time>2016-07-30T05:56:05.000Z</time>
      </trkpt>
      <trkpt lat="43.15597" lon="5.96206">
        <ele>194</ele>
        <time>2016-07-30T05:56:06.000Z</time>
      </trkpt>
      <trkpt lat="43.15588" lon="5.96212">
        <ele>192</ele>
        <time>2016-07-30T05:56:07.000Z</time>
      </trkpt>
      <trkpt lat="43.15579" lon="5.96216">
        <ele>191</ele>
        <time>2016-07-30T05:56:08.000Z</time>
      </trkpt>
      <trkpt lat="43.1557" lon="5.96216">
        <ele>190</ele>
        <time>2016-07-30T05:56:09.000Z</time>
      </trkpt>
      <trkpt lat="43.15564" lon="5.96209">
        <ele>182</ele>
        <time>2016-07-30T05:56:10.000Z</time>
      </trkpt>
      <trkpt lat="43.1556" lon="5.96196">
        <ele>178</ele>
        <time>2016-07-30T05:56:11.000Z</time>
      </trkpt>
      <trkpt lat="43.15559" lon="5.96181">
        <ele>176</ele>
        <time>2016-07-30T05:56:12.000Z</time>
      </trkpt>
      <trkpt lat="43.1556" lon="5.96168">
        <ele>174</ele>
        <time>2016-07-30T05:56:13.000Z</time>
      </trkpt>
      <trkpt lat="43.15562" lon="5.96156">
        <ele>175</ele>
        <time>2016-07-30T05:56:14.000Z</time>
      </trkpt>
      <trkpt lat="43.15564" lon="5.96143">
        <ele>176</ele>
        <time>2016-07-30T05:56:15.000Z</time>
      </trkpt>
      <trkpt lat="43.15566" lon="5.96129">
        <ele>175</ele>
        <time>2016-07-30T05:56:16.000Z</time>
      </trkpt>
      <trkpt lat="43.15567" lon="5.96116">
        <ele>173</ele>
        <time>2016-07-30T05:56:17.000Z</time>
      </trkpt>
      <trkpt lat="43.15569" lon="5.96104">
        <ele>172</ele>
        <time>2016-07-30T05:56:18.000Z</time>
      </trkpt>
      <trkpt lat="43.1557" lon="5.96091">
        <ele>171</ele>
        <time>2016-07-30T05:56:19.000Z</time>
      </trkpt>
      <trkpt lat="43.15573" lon="5.96077">
        <ele>171</ele>
        <time>2016-07-30T05:56:20.000Z</time>
      </trkpt>
      <trkpt lat="43.15577" lon="5.96064">
        <ele>174</ele>
        <time>2016-07-30T05:56:21.000Z</time>
      </trkpt>
      <trkpt lat="43.15582" lon="5.96051">
        <ele>175</ele>
        <time>2016-07-30T05:56:22.000Z</time>
      </trkpt>
      <trkpt lat="43.15589" lon="5.96039">
        <ele>173</ele>
        <time>2016-07-30T05:56:23.000Z</time>
      </trkpt>
      <trkpt lat="43.15597" lon="5.96028">
        <ele>172</ele>
        <time>2016-07-30T05:56:24.000Z</time>
      </trkpt>
      <trkpt lat="43.15604" lon="5.96019">
        <ele>171</ele>
        <time>2016-07-30T05:56:25.000Z</time>
      </trkpt>
      <trkpt lat="43.15612" lon="5.9601">
        <ele>170</ele>
        <time>2016-07-30T05:56:26.000Z</time>
      </trkpt>
      <trkpt lat="43.15619" lon="5.96001">
        <ele>169</ele>
        <time>2016-07-30T05:56:27.000Z</time>
      </trkpt>
      <trkpt lat="43.15626" lon="5.95992">
        <ele>169</ele>
        <time>2016-07-30T05:56:28.000Z</time>
      </trkpt>
      <trkpt lat="43.15633" lon="5.95983">
        <ele>170</ele>
        <time>2016-07-30T05:56:29.000Z</time>
      </trkpt>
      <trkpt lat="43.1564" lon="5.95975">
        <ele>170</ele>
        <time>2016-07-30T05:56:30.000Z</time>
      </trkpt>
      <trkpt lat="43.15648" lon="5.95967">
        <ele>170</ele>
        <time>2016-07-30T05:56:31.000Z</time>
      </trkpt>
      <trkpt lat="43.15656" lon="5.95958">
        <ele>169</ele>
        <time>2016-07-30T05:56:32.000Z</time>
      </trkpt>
      <trkpt lat="43.15663" lon="5.9595">
        <ele>169</ele>
        <time>2016-07-30T05:56:33.000Z</time>
      </trkpt>
      <trkpt lat="43.15671" lon="5.95941">
        <ele>169</ele>
        <time>2016-07-30T05:56:34.000Z</time>
      </trkpt>
      <trkpt lat="43.1568" lon="5.95932">
        <ele>169</ele>
        <time>2016-07-30T05:56:35.000Z</time>
      </trkpt>
      <trkpt lat="43.15688" lon="5.95922">
        <ele>168</ele>
        <time>2016-07-30T05:56:36.000Z</time>
      </trkpt>
      <trkpt lat="43.15697" lon="5.95912">
        <ele>167</ele>
        <time>2016-07-30T05:56:37.000Z</time>
      </trkpt>
      <trkpt lat="43.15705" lon="5.95901">
        <ele>167</ele>
        <time>2016-07-30T05:56:38.000Z</time>
      </trkpt>
      <trkpt lat="43.15713" lon="5.9589">
        <ele>167</ele>
        <time>2016-07-30T05:56:39.000Z</time>
      </trkpt>
      <trkpt lat="43.15721" lon="5.95878">
        <ele>167</ele>
        <time>2016-07-30T05:56:40.000Z</time>
      </trkpt>
      <trkpt lat="43.15728" lon="5.95865">
        <ele>167</ele>
        <time>2016-07-30T05:56:41.000Z</time>
      </trkpt>
      <trkpt lat="43.15734" lon="5.95849">
        <ele>167</ele>
        <time>2016-07-30T05:56:42.000Z</time>
      </trkpt>
      <trkpt lat="43.1574" lon="5.95834">
        <ele>167</ele>
        <time>2016-07-30T05:56:43.000Z</time>
      </trkpt>
      <trkpt lat="43.15745" lon="5.95818">
        <ele>167</ele>
        <time>2016-07-30T05:56:44.000Z</time>
      </trkpt>
      <trkpt lat="43.15752" lon="5.95804">
        <ele>166</ele>
        <time>2016-07-30T05:56:45.000Z</time>
      </trkpt>
      <trkpt lat="43.15758" lon="5.9579">
        <ele>166</ele>
        <time>2016-07-30T05:56:46.000Z</time>
      </trkpt>
      <trkpt lat="43.15764" lon="5.95776">
        <ele>164</ele>
        <time>2016-07-30T05:56:47.000Z</time>
      </trkpt>
      <trkpt lat="43.15769" lon="5.95762">
        <ele>165</ele>
        <time>2016-07-30T05:56:48.000Z</time>
      </trkpt>
      <trkpt lat="43.15774" lon="5.95747">
        <ele>165</ele>
        <time>2016-07-30T05:56:49.000Z</time>
      </trkpt>
      <trkpt lat="43.15779" lon="5.95732">
        <ele>164</ele>
        <time>2016-07-30T05:56:50.000Z</time>
      </trkpt>
      <trkpt lat="43.15784" lon="5.95716">
        <ele>164</ele>
        <time>2016-07-30T05:56:51.000Z</time>
      </trkpt>
      <trkpt lat="43.1579" lon="5.95701">
        <ele>165</ele>
        <time>2016-07-30T05:56:52.000Z</time>
      </trkpt>
      <trkpt lat="43.15798" lon="5.95686">
        <ele>165</ele>
        <time>2016-07-30T05:56:53.000Z</time>
      </trkpt>
      <trkpt lat="43.15806" lon="5.95673">
        <ele>165</ele>
        <time>2016-07-30T05:56:54.000Z</time>
      </trkpt>
      <trkpt lat="43.15815" lon="5.95662">
        <ele>164</ele>
        <time>2016-07-30T05:56:55.000Z</time>
      </trkpt>
      <trkpt lat="43.15825" lon="5.95651">
        <ele>162</ele>
        <time>2016-07-30T05:56:56.000Z</time>
      </trkpt>
      <trkpt lat="43.15835" lon="5.9564">
        <ele>162</ele>
        <time>2016-07-30T05:56:57.000Z</time>
      </trkpt>
      <trkpt lat="43.15844" lon="5.95629">
        <ele>161</ele>
        <time>2016-07-30T05:56:58.000Z</time>
      </trkpt>
      <trkpt lat="43.15854" lon="5.95617">
        <ele>162</ele>
        <time>2016-07-30T05:56:59.000Z</time>
      </trkpt>
      <trkpt lat="43.15864" lon="5.95605">
        <ele>161</ele>
        <time>2016-07-30T05:57:00.000Z</time>
      </trkpt>
      <trkpt lat="43.15873" lon="5.95594">
        <ele>161</ele>
        <time>2016-07-30T05:57:01.000Z</time>
      </trkpt>
      <trkpt lat="43.15883" lon="5.95581">
        <ele>161</ele>
        <time>2016-07-30T05:57:02.000Z</time>
      </trkpt>
      <trkpt lat="43.15892" lon="5.95569">
        <ele>162</ele>
        <time>2016-07-30T05:57:03.000Z</time>
      </trkpt>
      <trkpt lat="43.159" lon="5.95555">
        <ele>161</ele>
        <time>2016-07-30T05:57:04.000Z</time>
      </trkpt>
      <trkpt lat="43.15908" lon="5.95541">
        <ele>160</ele>
        <time>2016-07-30T05:57:05.000Z</time>
      </trkpt>
      <trkpt lat="43.15915" lon="5.95526">
        <ele>159</ele>
        <time>2016-07-30T05:57:06.000Z</time>
      </trkpt>
      <trkpt lat="43.15923" lon="5.95511">
        <ele>159</ele>
        <time>2016-07-30T05:57:07.000Z</time>
      </trkpt>
      <trkpt lat="43.1593" lon="5.95497">
        <ele>157</ele>
        <time>2016-07-30T05:57:08.000Z</time>
      </trkpt>
      <trkpt lat="43.15937" lon="5.95481">
        <ele>156</ele>
        <time>2016-07-30T05:57:09.000Z</time>
      </trkpt>
      <trkpt lat="43.15944" lon="5.95465">
        <ele>155</ele>
        <time>2016-07-30T05:57:10.000Z</time>
      </trkpt>
      <trkpt lat="43.15951" lon="5.9545">
        <ele>154</ele>
        <time>2016-07-30T05:57:11.000Z</time>
      </trkpt>
      <trkpt lat="43.15958" lon="5.95435">
        <ele>153</ele>
        <time>2016-07-30T05:57:12.000Z</time>
      </trkpt>
      <trkpt lat="43.15966" lon="5.9542">
        <ele>154</ele>
        <time>2016-07-30T05:57:13.000Z</time>
      </trkpt>
      <trkpt lat="43.15975" lon="5.95405">
        <ele>154</ele>
        <time>2016-07-30T05:57:14.000Z</time>
      </trkpt>
      <trkpt lat="43.15983" lon="5.95391">
        <ele>153</ele>
        <time>2016-07-30T05:57:15.000Z</time>
      </trkpt>
      <trkpt lat="43.15992" lon="5.95377">
        <ele>153</ele>
        <time>2016-07-30T05:57:16.000Z</time>
      </trkpt>
      <trkpt lat="43.16" lon="5.95363">
        <ele>151</ele>
        <time>2016-07-30T05:57:17.000Z</time>
      </trkpt>
      <trkpt lat="43.16009" lon="5.95349">
        <ele>150</ele>
        <time>2016-07-30T05:57:18.000Z</time>
      </trkpt>
      <trkpt lat="43.16017" lon="5.95335">
        <ele>150</ele>
        <time>2016-07-30T05:57:19.000Z</time>
      </trkpt>
      <trkpt lat="43.16025" lon="5.95321">
        <ele>149</ele>
        <time>2016-07-30T05:57:20.000Z</time>
      </trkpt>
      <trkpt lat="43.16034" lon="5.95307">
        <ele>148</ele>
        <time>2016-07-30T05:57:21.000Z</time>
      </trkpt>
      <trkpt lat="43.16042" lon="5.95293">
        <ele>148</ele>
        <time>2016-07-30T05:57:22.000Z</time>
      </trkpt>
      <trkpt lat="43.16051" lon="5.95279">
        <ele>147</ele>
        <time>2016-07-30T05:57:23.000Z</time>
      </trkpt>
      <trkpt lat="43.1606" lon="5.95266">
        <ele>146</ele>
        <time>2016-07-30T05:57:24.000Z</time>
      </trkpt>
      <trkpt lat="43.16069" lon="5.95252">
        <ele>144</ele>
        <time>2016-07-30T05:57:25.000Z</time>
      </trkpt>
      <trkpt lat="43.16079" lon="5.95239">
        <ele>144</ele>
        <time>2016-07-30T05:57:26.000Z</time>
      </trkpt>
      <trkpt lat="43.1609" lon="5.95227">
        <ele>144</ele>
        <time>2016-07-30T05:57:27.000Z</time>
      </trkpt>
      <trkpt lat="43.16101" lon="5.95215">
        <ele>143</ele>
        <time>2016-07-30T05:57:28.000Z</time>
      </trkpt>
      <trkpt lat="43.16112" lon="5.95205">
        <ele>141</ele>
        <time>2016-07-30T05:57:29.000Z</time>
      </trkpt>
      <trkpt lat="43.16123" lon="5.95195">
        <ele>140</ele>
        <time>2016-07-30T05:57:30.000Z</time>
      </trkpt>
      <trkpt lat="43.16134" lon="5.95185">
        <ele>139</ele>
        <time>2016-07-30T05:57:31.000Z</time>
      </trkpt>
      <trkpt lat="43.16146" lon="5.95176">
        <ele>139</ele>
        <time>2016-07-30T05:57:32.000Z</time>
      </trkpt>
      <trkpt lat="43.16157" lon="5.95166">
        <ele>138</ele>
        <time>2016-07-30T05:57:33.000Z</time>
      </trkpt>
      <trkpt lat="43.16168" lon="5.95156">
        <ele>137</ele>
        <time>2016-07-30T05:57:34.000Z</time>
      </trkpt>
      <trkpt lat="43.16179" lon="5.95145">
        <ele>137</ele>
        <time>2016-07-30T05:57:35.000Z</time>
      </trkpt>
      <trkpt lat="43.1619" lon="5.95134">
        <ele>136</ele>
        <time>2016-07-30T05:57:36.000Z</time>
      </trkpt>
      <trkpt lat="43.16199" lon="5.95122">
        <ele>135</ele>
        <time>2016-07-30T05:57:37.000Z</time>
      </trkpt>
      <trkpt lat="43.16208" lon="5.95109">
        <ele>133</ele>
        <time>2016-07-30T05:57:38.000Z</time>
      </trkpt>
      <trkpt lat="43.16217" lon="5.95095">
        <ele>132</ele>
        <time>2016-07-30T05:57:39.000Z</time>
      </trkpt>
      <trkpt lat="43.16224" lon="5.95079">
        <ele>130</ele>
        <time>2016-07-30T05:57:40.000Z</time>
      </trkpt>
      <trkpt lat="43.1623" lon="5.95063">
        <ele>128</ele>
        <time>2016-07-30T05:57:41.000Z</time>
      </trkpt>
      <trkpt lat="43.16235" lon="5.95046">
        <ele>128</ele>
        <time>2016-07-30T05:57:42.000Z</time>
      </trkpt>
      <trkpt lat="43.1624" lon="5.95028">
        <ele>128</ele>
        <time>2016-07-30T05:57:43.000Z</time>
      </trkpt>
      <trkpt lat="43.16245" lon="5.9501">
        <ele>128</ele>
        <time>2016-07-30T05:57:44.000Z</time>
      </trkpt>
      <trkpt lat="43.16249" lon="5.94992">
        <ele>127</ele>
        <time>2016-07-30T05:57:45.000Z</time>
      </trkpt>
      <trkpt lat="43.16254" lon="5.94975">
        <ele>126</ele>
        <time>2016-07-30T05:57:46.000Z</time>
      </trkpt>
      <trkpt lat="43.16257" lon="5.94957">
        <ele>126</ele>
        <time>2016-07-30T05:57:47.000Z</time>
      </trkpt>
      <trkpt lat="43.16259" lon="5.94938">
        <ele>126</ele>
        <time>2016-07-30T05:57:48.000Z</time>
      </trkpt>
      <trkpt lat="43.16261" lon="5.9492">
        <ele>127</ele>
        <time>2016-07-30T05:57:49.000Z</time>
      </trkpt>
      <trkpt lat="43.16262" lon="5.94901">
        <ele>126</ele>
        <time>2016-07-30T05:57:50.000Z</time>
      </trkpt>
      <trkpt lat="43.16263" lon="5.94881">
        <ele>124</ele>
        <time>2016-07-30T05:57:51.000Z</time>
      </trkpt>
      <trkpt lat="43.16266" lon="5.94862">
        <ele>122</ele>
        <time>2016-07-30T05:57:52.000Z</time>
      </trkpt>
      <trkpt lat="43.16269" lon="5.94843">
        <ele>121</ele>
        <time>2016-07-30T05:57:53.000Z</time>
      </trkpt>
      <trkpt lat="43.16272" lon="5.94824">
        <ele>120</ele>
        <time>2016-07-30T05:57:54.000Z</time>
      </trkpt>
      <trkpt lat="43.16275" lon="5.94805">
        <ele>118</ele>
        <time>2016-07-30T05:57:55.000Z</time>
      </trkpt>
      <trkpt lat="43.16279" lon="5.94786">
        <ele>117</ele>
        <time>2016-07-30T05:57:56.000Z</time>
      </trkpt>
      <trkpt lat="43.16282" lon="5.94768">
        <ele>116</ele>
        <time>2016-07-30T05:57:57.000Z</time>
      </trkpt>
      <trkpt lat="43.16284" lon="5.94749">
        <ele>114</ele>
        <time>2016-07-30T05:57:58.000Z</time>
      </trkpt>
      <trkpt lat="43.16287" lon="5.9473">
        <ele>113</ele>
        <time>2016-07-30T05:57:59.000Z</time>
      </trkpt>
      <trkpt lat="43.16288" lon="5.94711">
        <ele>113</ele>
        <time>2016-07-30T05:58:00.000Z</time>
      </trkpt>
      <trkpt lat="43.16289" lon="5.94691">
        <ele>112</ele>
        <time>2016-07-30T05:58:01.000Z</time>
      </trkpt>
      <trkpt lat="43.1629" lon="5.94672">
        <ele>112</ele>
        <time>2016-07-30T05:58:02.000Z</time>
      </trkpt>
      <trkpt lat="43.1629" lon="5.94653">
        <ele>111</ele>
        <time>2016-07-30T05:58:03.000Z</time>
      </trkpt>
      <trkpt lat="43.16292" lon="5.94634">
        <ele>110</ele>
        <time>2016-07-30T05:58:04.000Z</time>
      </trkpt>
      <trkpt lat="43.16295" lon="5.94615">
        <ele>109</ele>
        <time>2016-07-30T05:58:05.000Z</time>
      </trkpt>
      <trkpt lat="43.16301" lon="5.94596">
        <ele>110</ele>
        <time>2016-07-30T05:58:06.000Z</time>
      </trkpt>
      <trkpt lat="43.16308" lon="5.94577">
        <ele>109</ele>
        <time>2016-07-30T05:58:07.000Z</time>
      </trkpt>
      <trkpt lat="43.16315" lon="5.94558">
        <ele>108</ele>
        <time>2016-07-30T05:58:08.000Z</time>
      </trkpt>
      <trkpt lat="43.1632" lon="5.94541">
        <ele>106</ele>
        <time>2016-07-30T05:58:09.000Z</time>
      </trkpt>
      <trkpt lat="43.16324" lon="5.94523">
        <ele>105</ele>
        <time>2016-07-30T05:58:10.000Z</time>
      </trkpt>
      <trkpt lat="43.16329" lon="5.94506">
        <ele>104</ele>
        <time>2016-07-30T05:58:11.000Z</time>
      </trkpt>
      <trkpt lat="43.16333" lon="5.94488">
        <ele>103</ele>
        <time>2016-07-30T05:58:12.000Z</time>
      </trkpt>
      <trkpt lat="43.16338" lon="5.94471">
        <ele>102</ele>
        <time>2016-07-30T05:58:13.000Z</time>
      </trkpt>
      <trkpt lat="43.16342" lon="5.94453">
        <ele>101</ele>
        <time>2016-07-30T05:58:14.000Z</time>
      </trkpt>
      <trkpt lat="43.16346" lon="5.94435">
        <ele>100</ele>
        <time>2016-07-30T05:58:15.000Z</time>
      </trkpt>
      <trkpt lat="43.1635" lon="5.94417">
        <ele>99</ele>
        <time>2016-07-30T05:58:16.000Z</time>
      </trkpt>
      <trkpt lat="43.16353" lon="5.94399">
        <ele>98</ele>
        <time>2016-07-30T05:58:17.000Z</time>
      </trkpt>
      <trkpt lat="43.16357" lon="5.94381">
        <ele>96</ele>
        <time>2016-07-30T05:58:18.000Z</time>
      </trkpt>
      <trkpt lat="43.16361" lon="5.94363">
        <ele>95</ele>
        <time>2016-07-30T05:58:19.000Z</time>
      </trkpt>
      <trkpt lat="43.16366" lon="5.94345">
        <ele>94</ele>
        <time>2016-07-30T05:58:20.000Z</time>
      </trkpt>
      <trkpt lat="43.16372" lon="5.94328">
        <ele>93</ele>
        <time>2016-07-30T05:58:21.000Z</time>
      </trkpt>
      <trkpt lat="43.16379" lon="5.94312">
        <ele>92</ele>
        <time>2016-07-30T05:58:22.000Z</time>
      </trkpt>
      <trkpt lat="43.16386" lon="5.94295">
        <ele>91</ele>
        <time>2016-07-30T05:58:23.000Z</time>
      </trkpt>
      <trkpt lat="43.16391" lon="5.94278">
        <ele>91</ele>
        <time>2016-07-30T05:58:24.000Z</time>
      </trkpt>
      <trkpt lat="43.16397" lon="5.9426">
        <ele>91</ele>
        <time>2016-07-30T05:58:25.000Z</time>
      </trkpt>
      <trkpt lat="43.16402" lon="5.94242">
        <ele>91</ele>
        <time>2016-07-30T05:58:26.000Z</time>
      </trkpt>
      <trkpt lat="43.16407" lon="5.94225">
        <ele>91</ele>
        <time>2016-07-30T05:58:27.000Z</time>
      </trkpt>
      <trkpt lat="43.16413" lon="5.94209">
        <ele>90</ele>
        <time>2016-07-30T05:58:28.000Z</time>
      </trkpt>
      <trkpt lat="43.16419" lon="5.94192">
        <ele>89</ele>
        <time>2016-07-30T05:58:29.000Z</time>
      </trkpt>
      <trkpt lat="43.16425" lon="5.94177">
        <ele>88</ele>
        <time>2016-07-30T05:58:30.000Z</time>
      </trkpt>
      <trkpt lat="43.16431" lon="5.94161">
        <ele>88</ele>
        <time>2016-07-30T05:58:31.000Z</time>
      </trkpt>
      <trkpt lat="43.16438" lon="5.94146">
        <ele>86</ele>
        <time>2016-07-30T05:58:32.000Z</time>
      </trkpt>
      <trkpt lat="43.16443" lon="5.9413">
        <ele>86</ele>
        <time>2016-07-30T05:58:33.000Z</time>
      </trkpt>
      <trkpt lat="43.16448" lon="5.94115">
        <ele>86</ele>
        <time>2016-07-30T05:58:34.000Z</time>
      </trkpt>
      <trkpt lat="43.16453" lon="5.94099">
        <ele>85</ele>
        <time>2016-07-30T05:58:35.000Z</time>
      </trkpt>
      <trkpt lat="43.16458" lon="5.94082">
        <ele>83</ele>
        <time>2016-07-30T05:58:36.000Z</time>
      </trkpt>
      <trkpt lat="43.16463" lon="5.94066">
        <ele>82</ele>
        <time>2016-07-30T05:58:37.000Z</time>
      </trkpt>
      <trkpt lat="43.16467" lon="5.94049">
        <ele>82</ele>
        <time>2016-07-30T05:58:38.000Z</time>
      </trkpt>
      <trkpt lat="43.16472" lon="5.94033">
        <ele>81</ele>
        <time>2016-07-30T05:58:39.000Z</time>
      </trkpt>
      <trkpt lat="43.16477" lon="5.94016">
        <ele>80</ele>
        <time>2016-07-30T05:58:40.000Z</time>
      </trkpt>
      <trkpt lat="43.16484" lon="5.94001">
        <ele>81</ele>
        <time>2016-07-30T05:58:41.000Z</time>
      </trkpt>
      <trkpt lat="43.16492" lon="5.93987">
        <ele>80</ele>
        <time>2016-07-30T05:58:42.000Z</time>
      </trkpt>
      <trkpt lat="43.165" lon="5.93973">
        <ele>80</ele>
        <time>2016-07-30T05:58:43.000Z</time>
      </trkpt>
      <trkpt lat="43.16507" lon="5.93959">
        <ele>79</ele>
        <time>2016-07-30T05:58:44.000Z</time>
      </trkpt>
      <trkpt lat="43.16513" lon="5.93945">
        <ele>80</ele>
        <time>2016-07-30T05:58:45.000Z</time>
      </trkpt>
      <trkpt lat="43.16518" lon="5.93929">
        <ele>80</ele>
        <time>2016-07-30T05:58:46.000Z</time>
      </trkpt>
      <trkpt lat="43.16521" lon="5.93912">
        <ele>80</ele>
        <time>2016-07-30T05:58:47.000Z</time>
      </trkpt>
      <trkpt lat="43.16524" lon="5.93896">
        <ele>79</ele>
        <time>2016-07-30T05:58:48.000Z</time>
      </trkpt>
      <trkpt lat="43.16528" lon="5.93881">
        <ele>80</ele>
        <time>2016-07-30T05:58:49.000Z</time>
      </trkpt>
      <trkpt lat="43.16532" lon="5.93866">
        <ele>79</ele>
        <time>2016-07-30T05:58:50.000Z</time>
      </trkpt>
      <trkpt lat="43.16535" lon="5.93851">
        <ele>80</ele>
        <time>2016-07-30T05:58:51.000Z</time>
      </trkpt>
      <trkpt lat="43.16538" lon="5.93837">
        <ele>79</ele>
        <time>2016-07-30T05:58:52.000Z</time>
      </trkpt>
      <trkpt lat="43.1654" lon="5.93822">
        <ele>79</ele>
        <time>2016-07-30T05:58:53.000Z</time>
      </trkpt>
      <trkpt lat="43.16542" lon="5.93808">
        <ele>78</ele>
        <time>2016-07-30T05:58:54.000Z</time>
      </trkpt>
      <trkpt lat="43.16544" lon="5.93792">
        <ele>79</ele>
        <time>2016-07-30T05:58:55.000Z</time>
      </trkpt>
      <trkpt lat="43.16544" lon="5.93777">
        <ele>78</ele>
        <time>2016-07-30T05:58:56.000Z</time>
      </trkpt>
      <trkpt lat="43.16544" lon="5.93762">
        <ele>77</ele>
        <time>2016-07-30T05:58:57.000Z</time>
      </trkpt>
      <trkpt lat="43.16543" lon="5.93747">
        <ele>76</ele>
        <time>2016-07-30T05:58:58.000Z</time>
      </trkpt>
      <trkpt lat="43.16542" lon="5.93732">
        <ele>74</ele>
        <time>2016-07-30T05:58:59.000Z</time>
      </trkpt>
      <trkpt lat="43.16541" lon="5.93717">
        <ele>72</ele>
        <time>2016-07-30T05:59:00.000Z</time>
      </trkpt>
      <trkpt lat="43.1654" lon="5.93702">
        <ele>72</ele>
        <time>2016-07-30T05:59:01.000Z</time>
      </trkpt>
      <trkpt lat="43.16539" lon="5.93687">
        <ele>71</ele>
        <time>2016-07-30T05:59:02.000Z</time>
      </trkpt>
      <trkpt lat="43.16537" lon="5.93671">
        <ele>70</ele>
        <time>2016-07-30T05:59:03.000Z</time>
      </trkpt>
      <trkpt lat="43.16535" lon="5.93656">
        <ele>70</ele>
        <time>2016-07-30T05:59:04.000Z</time>
      </trkpt>
      <trkpt lat="43.16533" lon="5.93641">
        <ele>69</ele>
        <time>2016-07-30T05:59:05.000Z</time>
      </trkpt>
      <trkpt lat="43.16531" lon="5.93625">
        <ele>69</ele>
        <time>2016-07-30T05:59:06.000Z</time>
      </trkpt>
      <trkpt lat="43.16528" lon="5.9361">
        <ele>69</ele>
        <time>2016-07-30T05:59:07.000Z</time>
      </trkpt>
      <trkpt lat="43.16526" lon="5.93595">
        <ele>69</ele>
        <time>2016-07-30T05:59:08.000Z</time>
      </trkpt>
      <trkpt lat="43.16524" lon="5.9358">
        <ele>69</ele>
        <time>2016-07-30T05:59:09.000Z</time>
      </trkpt>
      <trkpt lat="43.16522" lon="5.93565">
        <ele>69</ele>
        <time>2016-07-30T05:59:10.000Z</time>
      </trkpt>
      <trkpt lat="43.1652" lon="5.93551">
        <ele>69</ele>
        <time>2016-07-30T05:59:11.000Z</time>
      </trkpt>
      <trkpt lat="43.16517" lon="5.93537">
        <ele>69</ele>
        <time>2016-07-30T05:59:12.000Z</time>
      </trkpt>
      <trkpt lat="43.16515" lon="5.93523">
        <ele>69</ele>
        <time>2016-07-30T05:59:13.000Z</time>
      </trkpt>
      <trkpt lat="43.16511" lon="5.93509">
        <ele>69</ele>
        <time>2016-07-30T05:59:14.000Z</time>
      </trkpt>
      <trkpt lat="43.16507" lon="5.93496">
        <ele>68</ele>
        <time>2016-07-30T05:59:15.000Z</time>
      </trkpt>
      <trkpt lat="43.16503" lon="5.93483">
        <ele>68</ele>
        <time>2016-07-30T05:59:16.000Z</time>
      </trkpt>
      <trkpt lat="43.16499" lon="5.93471">
        <ele>68</ele>
        <time>2016-07-30T05:59:17.000Z</time>
      </trkpt>
      <trkpt lat="43.16495" lon="5.93459">
        <ele>68</ele>
        <time>2016-07-30T05:59:18.000Z</time>
      </trkpt>
      <trkpt lat="43.1649" lon="5.93448">
        <ele>68</ele>
        <time>2016-07-30T05:59:19.000Z</time>
      </trkpt>
      <trkpt lat="43.16485" lon="5.93437">
        <ele>69</ele>
        <time>2016-07-30T05:59:20.000Z</time>
      </trkpt>
      <trkpt lat="43.1648" lon="5.93427">
        <ele>68</ele>
        <time>2016-07-30T05:59:21.000Z</time>
      </trkpt>
      <trkpt lat="43.16475" lon="5.93417">
        <ele>68</ele>
        <time>2016-07-30T05:59:22.000Z</time>
      </trkpt>
      <trkpt lat="43.16469" lon="5.93407">
        <ele>69</ele>
        <time>2016-07-30T05:59:23.000Z</time>
      </trkpt>
      <trkpt lat="43.16464" lon="5.93397">
        <ele>68</ele>
        <time>2016-07-30T05:59:24.000Z</time>
      </trkpt>
      <trkpt lat="43.16459" lon="5.93387">
        <ele>68</ele>
        <time>2016-07-30T05:59:25.000Z</time>
      </trkpt>
      <trkpt lat="43.16454" lon="5.93376">
        <ele>67</ele>
        <time>2016-07-30T05:59:26.000Z</time>
      </trkpt>
      <trkpt lat="43.16449" lon="5.93365">
        <ele>65</ele>
        <time>2016-07-30T05:59:27.000Z</time>
      </trkpt>
      <trkpt lat="43.16444" lon="5.93352">
        <ele>65</ele>
        <time>2016-07-30T05:59:28.000Z</time>
      </trkpt>
      <trkpt lat="43.16439" lon="5.9334">
        <ele>64</ele>
        <time>2016-07-30T05:59:29.000Z</time>
      </trkpt>
      <trkpt lat="43.16435" lon="5.93327">
        <ele>65</ele>
        <time>2016-07-30T05:59:30.000Z</time>
      </trkpt>
      <trkpt lat="43.1643" lon="5.93315">
        <ele>64</ele>
        <time>2016-07-30T05:59:31.000Z</time>
      </trkpt>
      <trkpt lat="43.16425" lon="5.93302">
        <ele>64</ele>
        <time>2016-07-30T05:59:32.000Z</time>
      </trkpt>
      <trkpt lat="43.16421" lon="5.93289">
        <ele>64</ele>
        <time>2016-07-30T05:59:33.000Z</time>
      </trkpt>
      <trkpt lat="43.16417" lon="5.93276">
        <ele>63</ele>
        <time>2016-07-30T05:59:34.000Z</time>
      </trkpt>
      <trkpt lat="43.16414" lon="5.93263">
        <ele>63</ele>
        <time>2016-07-30T05:59:35.000Z</time>
      </trkpt>
      <trkpt lat="43.1641" lon="5.9325">
        <ele>62</ele>
        <time>2016-07-30T05:59:36.000Z</time>
      </trkpt>
      <trkpt lat="43.16406" lon="5.93236">
        <ele>62</ele>
        <time>2016-07-30T05:59:37.000Z</time>
      </trkpt>
      <trkpt lat="43.16403" lon="5.93223">
        <ele>61</ele>
        <time>2016-07-30T05:59:38.000Z</time>
      </trkpt>
      <trkpt lat="43.16399" lon="5.93209">
        <ele>61</ele>
        <time>2016-07-30T05:59:39.000Z</time>
      </trkpt>
      <trkpt lat="43.16395" lon="5.93195">
        <ele>61</ele>
        <time>2016-07-30T05:59:40.000Z</time>
      </trkpt>
      <trkpt lat="43.16392" lon="5.93181">
        <ele>61</ele>
        <time>2016-07-30T05:59:41.000Z</time>
      </trkpt>
      <trkpt lat="43.16389" lon="5.93167">
        <ele>61</ele>
        <time>2016-07-30T05:59:42.000Z</time>
      </trkpt>
      <trkpt lat="43.16386" lon="5.93153">
        <ele>61</ele>
        <time>2016-07-30T05:59:43.000Z</time>
      </trkpt>
      <trkpt lat="43.16384" lon="5.93139">
        <ele>61</ele>
        <time>2016-07-30T05:59:44.000Z</time>
      </trkpt>
      <trkpt lat="43.16381" lon="5.93126">
        <ele>61</ele>
        <time>2016-07-30T05:59:45.000Z</time>
      </trkpt>
      <trkpt lat="43.16378" lon="5.93113">
        <ele>61</ele>
        <time>2016-07-30T05:59:46.000Z</time>
      </trkpt>
      <trkpt lat="43.16374" lon="5.931">
        <ele>61</ele>
        <time>2016-07-30T05:59:47.000Z</time>
      </trkpt>
      <trkpt lat="43.1637" lon="5.93087">
        <ele>60</ele>
        <time>2016-07-30T05:59:48.000Z</time>
      </trkpt>
      <trkpt lat="43.16365" lon="5.93074">
        <ele>60</ele>
        <time>2016-07-30T05:59:49.000Z</time>
      </trkpt>
      <trkpt lat="43.1636" lon="5.93062">
        <ele>59</ele>
        <time>2016-07-30T05:59:50.000Z</time>
      </trkpt>
      <trkpt lat="43.16355" lon="5.93049">
        <ele>59</ele>
        <time>2016-07-30T05:59:51.000Z</time>
      </trkpt>
      <trkpt lat="43.16351" lon="5.93036">
        <ele>60</ele>
        <time>2016-07-30T05:59:52.000Z</time>
      </trkpt>
      <trkpt lat="43.16347" lon="5.93023">
        <ele>61</ele>
        <time>2016-07-30T05:59:53.000Z</time>
      </trkpt>
      <trkpt lat="43.16344" lon="5.9301">
        <ele>61</ele>
        <time>2016-07-30T05:59:54.000Z</time>
      </trkpt>
      <trkpt lat="43.16341" lon="5.92997">
        <ele>60</ele>
        <time>2016-07-30T05:59:55.000Z</time>
      </trkpt>
      <trkpt lat="43.16339" lon="5.92984">
        <ele>60</ele>
        <time>2016-07-30T05:59:56.000Z</time>
      </trkpt>
      <trkpt lat="43.16337" lon="5.92971">
        <ele>60</ele>
        <time>2016-07-30T05:59:57.000Z</time>
      </trkpt>
      <trkpt lat="43.16334" lon="5.92958">
        <ele>59</ele>
        <time>2016-07-30T05:59:58.000Z</time>
      </trkpt>
      <trkpt lat="43.16331" lon="5.92944">
        <ele>58</ele>
        <time>2016-07-30T05:59:59.000Z</time>
      </trkpt>
      <trkpt lat="43.16327" lon="5.92931">
        <ele>58</ele>
        <time>2016-07-30T06:00:00.000Z</time>
      </trkpt>
      <trkpt lat="43.16324" lon="5.92917">
        <ele>57</ele>
        <time>2016-07-30T06:00:01.000Z</time>
      </trkpt>
      <trkpt lat="43.1632" lon="5.92904">
        <ele>56</ele>
        <time>2016-07-30T06:00:02.000Z</time>
      </trkpt>
      <trkpt lat="43.16316" lon="5.9289">
        <ele>56</ele>
        <time>2016-07-30T06:00:03.000Z</time>
      </trkpt>
      <trkpt lat="43.16311" lon="5.92876">
        <ele>55</ele>
        <time>2016-07-30T06:00:04.000Z</time>
      </trkpt>
      <trkpt lat="43.16308" lon="5.92861">
        <ele>54</ele>
        <time>2016-07-30T06:00:05.000Z</time>
      </trkpt>
      <trkpt lat="43.16305" lon="5.92846">
        <ele>53</ele>
        <time>2016-07-30T06:00:06.000Z</time>
      </trkpt>
      <trkpt lat="43.16303" lon="5.9283">
        <ele>51</ele>
        <time>2016-07-30T06:00:07.000Z</time>
      </trkpt>
      <trkpt lat="43.16304" lon="5.92814">
        <ele>50</ele>
        <time>2016-07-30T06:00:08.000Z</time>
      </trkpt>
      <trkpt lat="43.16307" lon="5.92797">
        <ele>50</ele>
        <time>2016-07-30T06:00:09.000Z</time>
      </trkpt>
      <trkpt lat="43.16312" lon="5.92781">
        <ele>50</ele>
        <time>2016-07-30T06:00:10.000Z</time>
      </trkpt>
      <trkpt lat="43.16318" lon="5.92765">
        <ele>49</ele>
        <time>2016-07-30T06:00:11.000Z</time>
      </trkpt>
      <trkpt lat="43.16323" lon="5.9275">
        <ele>49</ele>
        <time>2016-07-30T06:00:12.000Z</time>
      </trkpt>
      <trkpt lat="43.16329" lon="5.92737">
        <ele>49</ele>
        <time>2016-07-30T06:00:13.000Z</time>
      </trkpt>
      <trkpt lat="43.16335" lon="5.92726">
        <ele>49</ele>
        <time>2016-07-30T06:00:14.000Z</time>
      </trkpt>
      <trkpt lat="43.16341" lon="5.92715">
        <ele>49</ele>
        <time>2016-07-30T06:00:15.000Z</time>
      </trkpt>
      <trkpt lat="43.16345" lon="5.92705">
        <ele>49</ele>
        <time>2016-07-30T06:00:16.000Z</time>
      </trkpt>
      <trkpt lat="43.16348" lon="5.92694">
        <ele>49</ele>
        <time>2016-07-30T06:00:17.000Z</time>
      </trkpt>
      <trkpt lat="43.16348" lon="5.92683">
        <ele>52</ele>
        <time>2016-07-30T06:00:18.000Z</time>
      </trkpt>
      <trkpt lat="43.16345" lon="5.92674">
        <ele>51</ele>
        <time>2016-07-30T06:00:19.000Z</time>
      </trkpt>
      <trkpt lat="43.16342" lon="5.92665">
        <ele>53</ele>
        <time>2016-07-30T06:00:20.000Z</time>
      </trkpt>
      <trkpt lat="43.16338" lon="5.92658">
        <ele>54</ele>
        <time>2016-07-30T06:00:21.000Z</time>
      </trkpt>
      <trkpt lat="43.16333" lon="5.9265">
        <ele>52</ele>
        <time>2016-07-30T06:00:22.000Z</time>
      </trkpt>
      <trkpt lat="43.16327" lon="5.92643">
        <ele>52</ele>
        <time>2016-07-30T06:00:23.000Z</time>
      </trkpt>
      <trkpt lat="43.1632" lon="5.92636">
        <ele>51</ele>
        <time>2016-07-30T06:00:24.000Z</time>
      </trkpt>
      <trkpt lat="43.16312" lon="5.9263">
        <ele>51</ele>
        <time>2016-07-30T06:00:25.000Z</time>
      </trkpt>
      <trkpt lat="43.16305" lon="5.92623">
        <ele>52</ele>
        <time>2016-07-30T06:00:26.000Z</time>
      </trkpt>
      <trkpt lat="43.16299" lon="5.92616">
        <ele>52</ele>
        <time>2016-07-30T06:00:27.000Z</time>
      </trkpt>
      <trkpt lat="43.16292" lon="5.92609">
        <ele>52</ele>
        <time>2016-07-30T06:00:28.000Z</time>
      </trkpt>
      <trkpt lat="43.16285" lon="5.92602">
        <ele>52</ele>
        <time>2016-07-30T06:00:29.000Z</time>
      </trkpt>
      <trkpt lat="43.16279" lon="5.92595">
        <ele>53</ele>
        <time>2016-07-30T06:00:30.000Z</time>
      </trkpt>
      <trkpt lat="43.16272" lon="5.92588">
        <ele>53</ele>
        <time>2016-07-30T06:00:31.000Z</time>
      </trkpt>
      <trkpt lat="43.16264" lon="5.92582">
        <ele>52</ele>
        <time>2016-07-30T06:00:32.000Z</time>
      </trkpt>
      <trkpt lat="43.16256" lon="5.92575">
        <ele>52</ele>
        <time>2016-07-30T06:00:33.000Z</time>
      </trkpt>
      <trkpt lat="43.16249" lon="5.92569">
        <ele>52</ele>
        <time>2016-07-30T06:00:34.000Z</time>
      </trkpt>
      <trkpt lat="43.16242" lon="5.92562">
        <ele>52</ele>
        <time>2016-07-30T06:00:35.000Z</time>
      </trkpt>
      <trkpt lat="43.16236" lon="5.92555">
        <ele>53</ele>
        <time>2016-07-30T06:00:36.000Z</time>
      </trkpt>
      <trkpt lat="43.16229" lon="5.92547">
        <ele>53</ele>
        <time>2016-07-30T06:00:37.000Z</time>
      </trkpt>
      <trkpt lat="43.16223" lon="5.9254">
        <ele>53</ele>
        <time>2016-07-30T06:00:38.000Z</time>
      </trkpt>
      <trkpt lat="43.16218" lon="5.92532">
        <ele>53</ele>
        <time>2016-07-30T06:00:39.000Z</time>
      </trkpt>
      <trkpt lat="43.16212" lon="5.92524">
        <ele>53</ele>
        <time>2016-07-30T06:00:40.000Z</time>
      </trkpt>
      <trkpt lat="43.16206" lon="5.92516">
        <ele>53</ele>
        <time>2016-07-30T06:00:41.000Z</time>
      </trkpt>
      <trkpt lat="43.162" lon="5.92508">
        <ele>54</ele>
        <time>2016-07-30T06:00:42.000Z</time>
      </trkpt>
      <trkpt lat="43.16195" lon="5.92499">
        <ele>54</ele>
        <time>2016-07-30T06:00:43.000Z</time>
      </trkpt>
      <trkpt lat="43.1619" lon="5.92491">
        <ele>54</ele>
        <time>2016-07-30T06:00:44.000Z</time>
      </trkpt>
      <trkpt lat="43.16185" lon="5.92482">
        <ele>54</ele>
        <time>2016-07-30T06:00:45.000Z</time>
      </trkpt>
      <trkpt lat="43.1618" lon="5.92473">
        <ele>54</ele>
        <time>2016-07-30T06:00:46.000Z</time>
      </trkpt>
      <trkpt lat="43.16175" lon="5.92464">
        <ele>54</ele>
        <time>2016-07-30T06:00:47.000Z</time>
      </trkpt>
      <trkpt lat="43.16169" lon="5.92456">
        <ele>54</ele>
        <time>2016-07-30T06:00:48.000Z</time>
      </trkpt>
      <trkpt lat="43.16163" lon="5.92447">
        <ele>54</ele>
        <time>2016-07-30T06:00:49.000Z</time>
      </trkpt>
      <trkpt lat="43.16157" lon="5.92439">
        <ele>54</ele>
        <time>2016-07-30T06:00:50.000Z</time>
      </trkpt>
      <trkpt lat="43.16151" lon="5.92431">
        <ele>54</ele>
        <time>2016-07-30T06:00:51.000Z</time>
      </trkpt>
      <trkpt lat="43.16146" lon="5.92423">
        <ele>54</ele>
        <time>2016-07-30T06:00:52.000Z</time>
      </trkpt>
      <trkpt lat="43.1614" lon="5.92414">
        <ele>54</ele>
        <time>2016-07-30T06:00:53.000Z</time>
      </trkpt>
      <trkpt lat="43.16134" lon="5.92406">
        <ele>54</ele>
        <time>2016-07-30T06:00:54.000Z</time>
      </trkpt>
      <trkpt lat="43.16128" lon="5.92398">
        <ele>54</ele>
        <time>2016-07-30T06:00:55.000Z</time>
      </trkpt>
      <trkpt lat="43.16122" lon="5.92389">
        <ele>53</ele>
        <time>2016-07-30T06:00:56.000Z</time>
      </trkpt>
      <trkpt lat="43.16116" lon="5.92381">
        <ele>53</ele>
        <time>2016-07-30T06:00:57.000Z</time>
      </trkpt>
      <trkpt lat="43.1611" lon="5.92372">
        <ele>53</ele>
        <time>2016-07-30T06:00:58.000Z</time>
      </trkpt>
      <trkpt lat="43.16105" lon="5.92364">
        <ele>53</ele>
        <time>2016-07-30T06:00:59.000Z</time>
      </trkpt>
      <trkpt lat="43.16099" lon="5.92355">
        <ele>52</ele>
        <time>2016-07-30T06:01:00.000Z</time>
      </trkpt>
      <trkpt lat="43.16093" lon="5.92346">
        <ele>52</ele>
        <time>2016-07-30T06:01:01.000Z</time>
      </trkpt>
      <trkpt lat="43.16087" lon="5.92337">
        <ele>51</ele>
        <time>2016-07-30T06:01:02.000Z</time>
      </trkpt>
      <trkpt lat="43.16081" lon="5.92329">
        <ele>51</ele>
        <time>2016-07-30T06:01:03.000Z</time>
      </trkpt>
      <trkpt lat="43.16075" lon="5.9232">
        <ele>51</ele>
        <time>2016-07-30T06:01:04.000Z</time>
      </trkpt>
      <trkpt lat="43.16069" lon="5.92312">
        <ele>51</ele>
        <time>2016-07-30T06:01:05.000Z</time>
      </trkpt>
      <trkpt lat="43.16063" lon="5.92303">
        <ele>51</ele>
        <time>2016-07-30T06:01:06.000Z</time>
      </trkpt>
      <trkpt lat="43.16057" lon="5.92295">
        <ele>51</ele>
        <time>2016-07-30T06:01:07.000Z</time>
      </trkpt>
      <trkpt lat="43.16051" lon="5.92286">
        <ele>51</ele>
        <time>2016-07-30T06:01:08.000Z</time>
      </trkpt>
      <trkpt lat="43.16046" lon="5.92277">
        <ele>51</ele>
        <time>2016-07-30T06:01:09.000Z</time>
      </trkpt>
      <trkpt lat="43.1604" lon="5.92268">
        <ele>51</ele>
        <time>2016-07-30T06:01:10.000Z</time>
      </trkpt>
      <trkpt lat="43.16034" lon="5.92259">
        <ele>50</ele>
        <time>2016-07-30T06:01:11.000Z</time>
      </trkpt>
      <trkpt lat="43.16028" lon="5.92251">
        <ele>50</ele>
        <time>2016-07-30T06:01:12.000Z</time>
      </trkpt>
      <trkpt lat="43.16022" lon="5.92243">
        <ele>51</ele>
        <time>2016-07-30T06:01:13.000Z</time>
      </trkpt>
      <trkpt lat="43.16015" lon="5.92235">
        <ele>51</ele>
        <time>2016-07-30T06:01:14.000Z</time>
      </trkpt>
      <trkpt lat="43.16009" lon="5.92228">
        <ele>51</ele>
        <time>2016-07-30T06:01:15.000Z</time>
      </trkpt>
      <trkpt lat="43.16002" lon="5.92221">
        <ele>50</ele>
        <time>2016-07-30T06:01:16.000Z</time>
      </trkpt>
      <trkpt lat="43.15995" lon="5.92213">
        <ele>50</ele>
        <time>2016-07-30T06:01:17.000Z</time>
      </trkpt>
      <trkpt lat="43.15989" lon="5.92206">
        <ele>49</ele>
        <time>2016-07-30T06:01:18.000Z</time>
      </trkpt>
      <trkpt lat="43.15982" lon="5.92199">
        <ele>48</ele>
        <time>2016-07-30T06:01:19.000Z</time>
      </trkpt>
      <trkpt lat="43.15975" lon="5.92192">
        <ele>48</ele>
        <time>2016-07-30T06:01:20.000Z</time>
      </trkpt>
      <trkpt lat="43.15968" lon="5.92185">
        <ele>48</ele>
        <time>2016-07-30T06:01:21.000Z</time>
      </trkpt>
      <trkpt lat="43.15961" lon="5.92177">
        <ele>48</ele>
        <time>2016-07-30T06:01:22.000Z</time>
      </trkpt>
      <trkpt lat="43.15954" lon="5.9217">
        <ele>48</ele>
        <time>2016-07-30T06:01:23.000Z</time>
      </trkpt>
      <trkpt lat="43.15946" lon="5.92161">
        <ele>47</ele>
        <time>2016-07-30T06:01:24.000Z</time>
      </trkpt>
      <trkpt lat="43.15939" lon="5.92152">
        <ele>47</ele>
        <time>2016-07-30T06:01:25.000Z</time>
      </trkpt>
      <trkpt lat="43.15933" lon="5.92142">
        <ele>46</ele>
        <time>2016-07-30T06:01:26.000Z</time>
      </trkpt>
      <trkpt lat="43.15928" lon="5.9213">
        <ele>45</ele>
        <time>2016-07-30T06:01:27.000Z</time>
      </trkpt>
      <trkpt lat="43.15925" lon="5.92117">
        <ele>45</ele>
        <time>2016-07-30T06:01:28.000Z</time>
      </trkpt>
      <trkpt lat="43.15925" lon="5.92102">
        <ele>43</ele>
        <time>2016-07-30T06:01:29.000Z</time>
      </trkpt>
      <trkpt lat="43.15927" lon="5.92087">
        <ele>45</ele>
        <time>2016-07-30T06:01:30.000Z</time>
      </trkpt>
      <trkpt lat="43.15933" lon="5.92075">
        <ele>42</ele>
        <time>2016-07-30T06:01:31.000Z</time>
      </trkpt>
      <trkpt lat="43.1594" lon="5.92065">
        <ele>41</ele>
        <time>2016-07-30T06:01:32.000Z</time>
      </trkpt>
      <trkpt lat="43.15946" lon="5.92056">
        <ele>41</ele>
        <time>2016-07-30T06:01:33.000Z</time>
      </trkpt>
      <trkpt lat="43.15952" lon="5.92046">
        <ele>41</ele>
        <time>2016-07-30T06:01:34.000Z</time>
      </trkpt>
      <trkpt lat="43.15957" lon="5.92036">
        <ele>42</ele>
        <time>2016-07-30T06:01:35.000Z</time>
      </trkpt>
      <trkpt lat="43.15961" lon="5.92024">
        <ele>42</ele>
        <time>2016-07-30T06:01:36.000Z</time>
      </trkpt>
      <trkpt lat="43.15964" lon="5.92012">
        <ele>40</ele>
        <time>2016-07-30T06:01:37.000Z</time>
      </trkpt>
      <trkpt lat="43.15966" lon="5.92">
        <ele>39</ele>
        <time>2016-07-30T06:01:38.000Z</time>
      </trkpt>
      <trkpt lat="43.15966" lon="5.91988">
        <ele>39</ele>
        <time>2016-07-30T06:01:39.000Z</time>
      </trkpt>
      <trkpt lat="43.15965" lon="5.91976">
        <ele>39</ele>
        <time>2016-07-30T06:01:40.000Z</time>
      </trkpt>
      <trkpt lat="43.15964" lon="5.91964">
        <ele>39</ele>
        <time>2016-07-30T06:01:41.000Z</time>
      </trkpt>
      <trkpt lat="43.15963" lon="5.91951">
        <ele>38</ele>
        <time>2016-07-30T06:01:42.000Z</time>
      </trkpt>
      <trkpt lat="43.15961" lon="5.91939">
        <ele>38</ele>
        <time>2016-07-30T06:01:43.000Z</time>
      </trkpt>
      <trkpt lat="43.1596" lon="5.91928">
        <ele>38</ele>
        <time>2016-07-30T06:01:44.000Z</time>
      </trkpt>
      <trkpt lat="43.15958" lon="5.91916">
        <ele>38</ele>
        <time>2016-07-30T06:01:45.000Z</time>
      </trkpt>
      <trkpt lat="43.15957" lon="5.91904">
        <ele>38</ele>
        <time>2016-07-30T06:01:46.000Z</time>
      </trkpt>
      <trkpt lat="43.15955" lon="5.91893">
        <ele>38</ele>
        <time>2016-07-30T06:01:47.000Z</time>
      </trkpt>
      <trkpt lat="43.15953" lon="5.91882">
        <ele>39</ele>
        <time>2016-07-30T06:01:48.000Z</time>
      </trkpt>
      <trkpt lat="43.15951" lon="5.91871">
        <ele>39</ele>
        <time>2016-07-30T06:01:49.000Z</time>
      </trkpt>
      <trkpt lat="43.15949" lon="5.9186">
        <ele>39</ele>
        <time>2016-07-30T06:01:50.000Z</time>
      </trkpt>
      <trkpt lat="43.15946" lon="5.91849">
        <ele>40</ele>
        <time>2016-07-30T06:01:51.000Z</time>
      </trkpt>
      <trkpt lat="43.15944" lon="5.91839">
        <ele>40</ele>
        <time>2016-07-30T06:01:52.000Z</time>
      </trkpt>
      <trkpt lat="43.15942" lon="5.91829">
        <ele>40</ele>
        <time>2016-07-30T06:01:53.000Z</time>
      </trkpt>
      <trkpt lat="43.15939" lon="5.91819">
        <ele>40</ele>
        <time>2016-07-30T06:01:54.000Z</time>
      </trkpt>
      <trkpt lat="43.15936" lon="5.9181">
        <ele>41</ele>
        <time>2016-07-30T06:01:55.000Z</time>
      </trkpt>
      <trkpt lat="43.15934" lon="5.91801">
        <ele>41</ele>
        <time>2016-07-30T06:01:56.000Z</time>
      </trkpt>
      <trkpt lat="43.15931" lon="5.91792">
        <ele>42</ele>
        <time>2016-07-30T06:01:57.000Z</time>
      </trkpt>
      <trkpt lat="43.15929" lon="5.91784">
        <ele>43</ele>
        <time>2016-07-30T06:01:58.000Z</time>
      </trkpt>
      <trkpt lat="43.15926" lon="5.91776">
        <ele>43</ele>
        <time>2016-07-30T06:01:59.000Z</time>
      </trkpt>
      <trkpt lat="43.15923" lon="5.91769">
        <ele>43</ele>
        <time>2016-07-30T06:02:00.000Z</time>
      </trkpt>
      <trkpt lat="43.15919" lon="5.91763">
        <ele>42</ele>
        <time>2016-07-30T06:02:01.000Z</time>
      </trkpt>
      <trkpt lat="43.15913" lon="5.91759">
        <ele>41</ele>
        <time>2016-07-30T06:02:02.000Z</time>
      </trkpt>
      <trkpt lat="43.15908" lon="5.91757">
        <ele>38</ele>
        <time>2016-07-30T06:02:03.000Z</time>
      </trkpt>
      <trkpt lat="43.15902" lon="5.91756">
        <ele>36</ele>
        <time>2016-07-30T06:02:04.000Z</time>
      </trkpt>
      <trkpt lat="43.15895" lon="5.91757">
        <ele>35</ele>
        <time>2016-07-30T06:02:05.000Z</time>
      </trkpt>
      <trkpt lat="43.15888" lon="5.91759">
        <ele>34</ele>
        <time>2016-07-30T06:02:06.000Z</time>
      </trkpt>
      <trkpt lat="43.1588" lon="5.91761">
        <ele>33</ele>
        <time>2016-07-30T06:02:07.000Z</time>
      </trkpt>
      <trkpt lat="43.15872" lon="5.91762">
        <ele>32</ele>
        <time>2016-07-30T06:02:08.000Z</time>
      </trkpt>
      <trkpt lat="43.15864" lon="5.91764">
        <ele>31</ele>
        <time>2016-07-30T06:02:09.000Z</time>
      </trkpt>
      <trkpt lat="43.15856" lon="5.91765">
        <ele>30</ele>
        <time>2016-07-30T06:02:10.000Z</time>
      </trkpt>
      <trkpt lat="43.15847" lon="5.91767">
        <ele>30</ele>
        <time>2016-07-30T06:02:11.000Z</time>
      </trkpt>
      <trkpt lat="43.15838" lon="5.91767">
        <ele>28</ele>
        <time>2016-07-30T06:02:12.000Z</time>
      </trkpt>
      <trkpt lat="43.15829" lon="5.91766">
        <ele>27</ele>
        <time>2016-07-30T06:02:13.000Z</time>
      </trkpt>
      <trkpt lat="43.1582" lon="5.91764">
        <ele>27</ele>
        <time>2016-07-30T06:02:14.000Z</time>
      </trkpt>
      <trkpt lat="43.15812" lon="5.91761">
        <ele>28</ele>
        <time>2016-07-30T06:02:15.000Z</time>
      </trkpt>
      <trkpt lat="43.15803" lon="5.91756">
        <ele>27</ele>
        <time>2016-07-30T06:02:16.000Z</time>
      </trkpt>
      <trkpt lat="43.15795" lon="5.9175">
        <ele>27</ele>
        <time>2016-07-30T06:02:17.000Z</time>
      </trkpt>
      <trkpt lat="43.15787" lon="5.91743">
        <ele>27</ele>
        <time>2016-07-30T06:02:18.000Z</time>
      </trkpt>
      <trkpt lat="43.1578" lon="5.91737">
        <ele>27</ele>
        <time>2016-07-30T06:02:19.000Z</time>
      </trkpt>
      <trkpt lat="43.15773" lon="5.91729">
        <ele>28</ele>
        <time>2016-07-30T06:02:20.000Z</time>
      </trkpt>
      <trkpt lat="43.15766" lon="5.91722">
        <ele>28</ele>
        <time>2016-07-30T06:02:21.000Z</time>
      </trkpt>
      <trkpt lat="43.15759" lon="5.91715">
        <ele>29</ele>
        <time>2016-07-30T06:02:22.000Z</time>
      </trkpt>
      <trkpt lat="43.15752" lon="5.91707">
        <ele>30</ele>
        <time>2016-07-30T06:02:23.000Z</time>
      </trkpt>
      <trkpt lat="43.15746" lon="5.917">
        <ele>30</ele>
        <time>2016-07-30T06:02:24.000Z</time>
      </trkpt>
      <trkpt lat="43.15739" lon="5.91693">
        <ele>31</ele>
        <time>2016-07-30T06:02:25.000Z</time>
      </trkpt>
      <trkpt lat="43.15732" lon="5.91686">
        <ele>31</ele>
        <time>2016-07-30T06:02:26.000Z</time>
      </trkpt>
      <trkpt lat="43.15726" lon="5.91679">
        <ele>31</ele>
        <time>2016-07-30T06:02:27.000Z</time>
      </trkpt>
      <trkpt lat="43.15719" lon="5.91672">
        <ele>31</ele>
        <time>2016-07-30T06:02:28.000Z</time>
      </trkpt>
      <trkpt lat="43.15712" lon="5.91666">
        <ele>31</ele>
        <time>2016-07-30T06:02:29.000Z</time>
      </trkpt>
      <trkpt lat="43.15704" lon="5.91659">
        <ele>31</ele>
        <time>2016-07-30T06:02:30.000Z</time>
      </trkpt>
      <trkpt lat="43.15696" lon="5.91653">
        <ele>30</ele>
        <time>2016-07-30T06:02:31.000Z</time>
      </trkpt>
      <trkpt lat="43.15688" lon="5.91647">
        <ele>30</ele>
        <time>2016-07-30T06:02:32.000Z</time>
      </trkpt>
      <trkpt lat="43.15679" lon="5.91642">
        <ele>29</ele>
        <time>2016-07-30T06:02:33.000Z</time>
      </trkpt>
      <trkpt lat="43.1567" lon="5.91638">
        <ele>29</ele>
        <time>2016-07-30T06:02:34.000Z</time>
      </trkpt>
      <trkpt lat="43.15661" lon="5.91635">
        <ele>29</ele>
        <time>2016-07-30T06:02:35.000Z</time>
      </trkpt>
      <trkpt lat="43.15651" lon="5.91631">
        <ele>28</ele>
        <time>2016-07-30T06:02:36.000Z</time>
      </trkpt>
      <trkpt lat="43.15641" lon="5.91628">
        <ele>27</ele>
        <time>2016-07-30T06:02:37.000Z</time>
      </trkpt>
      <trkpt lat="43.1563" lon="5.91624">
        <ele>27</ele>
        <time>2016-07-30T06:02:38.000Z</time>
      </trkpt>
      <trkpt lat="43.1562" lon="5.9162">
        <ele>26</ele>
        <time>2016-07-30T06:02:39.000Z</time>
      </trkpt>
      <trkpt lat="43.15609" lon="5.91615">
        <ele>26</ele>
        <time>2016-07-30T06:02:40.000Z</time>
      </trkpt>
      <trkpt lat="43.15599" lon="5.91609">
        <ele>26</ele>
        <time>2016-07-30T06:02:41.000Z</time>
      </trkpt>
      <trkpt lat="43.15589" lon="5.91602">
        <ele>26</ele>
        <time>2016-07-30T06:02:42.000Z</time>
      </trkpt>
      <trkpt lat="43.1558" lon="5.91594">
        <ele>26</ele>
        <time>2016-07-30T06:02:43.000Z</time>
      </trkpt>
      <trkpt lat="43.15571" lon="5.91585">
        <ele>26</ele>
        <time>2016-07-30T06:02:44.000Z</time>
      </trkpt>
      <trkpt lat="43.15562" lon="5.91577">
        <ele>25</ele>
        <time>2016-07-30T06:02:45.000Z</time>
      </trkpt>
      <trkpt lat="43.15552" lon="5.9157">
        <ele>25</ele>
        <time>2016-07-30T06:02:46.000Z</time>
      </trkpt>
      <trkpt lat="43.15543" lon="5.91563">
        <ele>25</ele>
        <time>2016-07-30T06:02:47.000Z</time>
      </trkpt>
      <trkpt lat="43.15534" lon="5.91556">
        <ele>25</ele>
        <time>2016-07-30T06:02:48.000Z</time>
      </trkpt>
      <trkpt lat="43.15525" lon="5.9155">
        <ele>25</ele>
        <time>2016-07-30T06:02:49.000Z</time>
      </trkpt>
      <trkpt lat="43.15516" lon="5.91544">
        <ele>25</ele>
        <time>2016-07-30T06:02:50.000Z</time>
      </trkpt>
      <trkpt lat="43.15507" lon="5.91539">
        <ele>25</ele>
        <time>2016-07-30T06:02:51.000Z</time>
      </trkpt>
      <trkpt lat="43.15497" lon="5.91536">
        <ele>24</ele>
        <time>2016-07-30T06:02:52.000Z</time>
      </trkpt>
      <trkpt lat="43.15487" lon="5.91536">
        <ele>26</ele>
        <time>2016-07-30T06:02:53.000Z</time>
      </trkpt>
      <trkpt lat="43.15477" lon="5.91536">
        <ele>26</ele>
        <time>2016-07-30T06:02:54.000Z</time>
      </trkpt>
      <trkpt lat="43.15468" lon="5.91535">
        <ele>25</ele>
        <time>2016-07-30T06:02:55.000Z</time>
      </trkpt>
      <trkpt lat="43.15458" lon="5.91532">
        <ele>25</ele>
        <time>2016-07-30T06:02:56.000Z</time>
      </trkpt>
      <trkpt lat="43.15449" lon="5.91529">
        <ele>25</ele>
        <time>2016-07-30T06:02:57.000Z</time>
      </trkpt>
      <trkpt lat="43.1544" lon="5.91525">
        <ele>25</ele>
        <time>2016-07-30T06:02:58.000Z</time>
      </trkpt>
      <trkpt lat="43.15431" lon="5.91522">
        <ele>25</ele>
        <time>2016-07-30T06:02:59.000Z</time>
      </trkpt>
      <trkpt lat="43.15421" lon="5.91519">
        <ele>26</ele>
        <time>2016-07-30T06:03:00.000Z</time>
      </trkpt>
      <trkpt lat="43.15412" lon="5.91516">
        <ele>26</ele>
        <time>2016-07-30T06:03:01.000Z</time>
      </trkpt>
      <trkpt lat="43.15403" lon="5.91513">
        <ele>27</ele>
        <time>2016-07-30T06:03:02.000Z</time>
      </trkpt>
      <trkpt lat="43.15394" lon="5.91511">
        <ele>27</ele>
        <time>2016-07-30T06:03:03.000Z</time>
      </trkpt>
      <trkpt lat="43.15384" lon="5.91508">
        <ele>27</ele>
        <time>2016-07-30T06:03:04.000Z</time>
      </trkpt>
      <trkpt lat="43.15375" lon="5.91505">
        <ele>27</ele>
        <time>2016-07-30T06:03:05.000Z</time>
      </trkpt>
      <trkpt lat="43.15366" lon="5.91502">
        <ele>26</ele>
        <time>2016-07-30T06:03:06.000Z</time>
      </trkpt>
      <trkpt lat="43.15357" lon="5.915">
        <ele>27</ele>
        <time>2016-07-30T06:03:07.000Z</time>
      </trkpt>
      <trkpt lat="43.15347" lon="5.91497">
        <ele>27</ele>
        <time>2016-07-30T06:03:08.000Z</time>
      </trkpt>
      <trkpt lat="43.15338" lon="5.91495">
        <ele>27</ele>
        <time>2016-07-30T06:03:09.000Z</time>
      </trkpt>
      <trkpt lat="43.15328" lon="5.91494">
        <ele>27</ele>
        <time>2016-07-30T06:03:10.000Z</time>
      </trkpt>
      <trkpt lat="43.15319" lon="5.91494">
        <ele>29</ele>
        <time>2016-07-30T06:03:11.000Z</time>
      </trkpt>
      <trkpt lat="43.1531" lon="5.91496">
        <ele>29</ele>
        <time>2016-07-30T06:03:12.000Z</time>
      </trkpt>
      <trkpt lat="43.15301" lon="5.915">
        <ele>30</ele>
        <time>2016-07-30T06:03:13.000Z</time>
      </trkpt>
      <trkpt lat="43.15292" lon="5.91504">
        <ele>31</ele>
        <time>2016-07-30T06:03:14.000Z</time>
      </trkpt>
      <trkpt lat="43.15283" lon="5.91508">
        <ele>30</ele>
        <time>2016-07-30T06:03:15.000Z</time>
      </trkpt>
      <trkpt lat="43.15275" lon="5.91509">
        <ele>30</ele>
        <time>2016-07-30T06:03:16.000Z</time>
      </trkpt>
      <trkpt lat="43.15267" lon="5.9151">
        <ele>29</ele>
        <time>2016-07-30T06:03:17.000Z</time>
      </trkpt>
      <trkpt lat="43.15258" lon="5.9151">
        <ele>29</ele>
        <time>2016-07-30T06:03:18.000Z</time>
      </trkpt>
      <trkpt lat="43.1525" lon="5.9151">
        <ele>29</ele>
        <time>2016-07-30T06:03:19.000Z</time>
      </trkpt>
      <trkpt lat="43.15241" lon="5.9151">
        <ele>29</ele>
        <time>2016-07-30T06:03:20.000Z</time>
      </trkpt>
      <trkpt lat="43.15232" lon="5.9151">
        <ele>28</ele>
        <time>2016-07-30T06:03:21.000Z</time>
      </trkpt>
      <trkpt lat="43.15223" lon="5.91511">
        <ele>28</ele>
        <time>2016-07-30T06:03:22.000Z</time>
      </trkpt>
      <trkpt lat="43.15214" lon="5.9151">
        <ele>29</ele>
        <time>2016-07-30T06:03:23.000Z</time>
      </trkpt>
      <trkpt lat="43.15205" lon="5.9151">
        <ele>29</ele>
        <time>2016-07-30T06:03:24.000Z</time>
      </trkpt>
      <trkpt lat="43.15196" lon="5.91508">
        <ele>29</ele>
        <time>2016-07-30T06:03:25.000Z</time>
      </trkpt>
      <trkpt lat="43.15188" lon="5.91506">
        <ele>29</ele>
        <time>2016-07-30T06:03:26.000Z</time>
      </trkpt>
      <trkpt lat="43.15179" lon="5.91503">
        <ele>29</ele>
        <time>2016-07-30T06:03:27.000Z</time>
      </trkpt>
      <trkpt lat="43.1517" lon="5.91499">
        <ele>29</ele>
        <time>2016-07-30T06:03:28.000Z</time>
      </trkpt>
      <trkpt lat="43.15162" lon="5.91494">
        <ele>29</ele>
        <time>2016-07-30T06:03:29.000Z</time>
      </trkpt>
      <trkpt lat="43.15153" lon="5.9149">
        <ele>29</ele>
        <time>2016-07-30T06:03:30.000Z</time>
      </trkpt>
      <trkpt lat="43.15145" lon="5.91486">
        <ele>28</ele>
        <time>2016-07-30T06:03:31.000Z</time>
      </trkpt>
      <trkpt lat="43.15137" lon="5.91482">
        <ele>28</ele>
        <time>2016-07-30T06:03:32.000Z</time>
      </trkpt>
      <trkpt lat="43.1513" lon="5.91478">
        <ele>28</ele>
        <time>2016-07-30T06:03:33.000Z</time>
      </trkpt>
      <trkpt lat="43.15122" lon="5.91475">
        <ele>29</ele>
        <time>2016-07-30T06:03:34.000Z</time>
      </trkpt>
      <trkpt lat="43.15115" lon="5.91472">
        <ele>29</ele>
        <time>2016-07-30T06:03:35.000Z</time>
      </trkpt>
      <trkpt lat="43.1511" lon="5.91469">
        <ele>28</ele>
        <time>2016-07-30T06:03:36.000Z</time>
      </trkpt>
      <trkpt lat="43.15106" lon="5.91468">
        <ele>29</ele>
        <time>2016-07-30T06:03:37.000Z</time>
      </trkpt>
      <trkpt lat="43.15103" lon="5.91467">
        <ele>28</ele>
        <time>2016-07-30T06:03:38.000Z</time>
      </trkpt>
      <trkpt lat="43.15101" lon="5.91466">
        <ele>28</ele>
        <time>2016-07-30T06:03:39.000Z</time>
      </trkpt>
      <trkpt lat="43.15099" lon="5.91466">
        <ele>28</ele>
        <time>2016-07-30T06:03:40.000Z</time>
      </trkpt>
      <trkpt lat="43.15098" lon="5.91465">
        <ele>28</ele>
        <time>2016-07-30T06:03:41.000Z</time>
      </trkpt>
      <trkpt lat="43.15097" lon="5.91464">
        <ele>28</ele>
        <time>2016-07-30T06:03:42.000Z</time>
      </trkpt>
      <trkpt lat="43.15096" lon="5.91464">
        <ele>28</ele>
        <time>2016-07-30T06:03:43.000Z</time>
      </trkpt>
      <trkpt lat="43.15096" lon="5.91464">
        <ele>28</ele>
        <time>2016-07-30T06:03:44.000Z</time>
      </trkpt>
      <trkpt lat="43.15096" lon="5.91464">
        <ele>28</ele>
        <time>2016-07-30T06:03:45.000Z</time>
      </trkpt>
      <trkpt lat="43.15096" lon="5.91463">
        <ele>28</ele>
        <time>2016-07-30T06:03:46.000Z</time>
      </trkpt>
      <trkpt lat="43.15096" lon="5.91463">
        <ele>27</ele>
        <time>2016-07-30T06:03:47.000Z</time>
      </trkpt>
      <trkpt lat="43.15096" lon="5.91463">
        <ele>27</ele>
        <time>2016-07-30T06:03:48.000Z</time>
      </trkpt>
      <trkpt lat="43.15096" lon="5.91463">
        <ele>28</ele>
        <time>2016-07-30T06:03:49.000Z</time>
      </trkpt>
      <trkpt lat="43.15096" lon="5.91463">
        <ele>27</ele>
        <time>2016-07-30T06:03:50.000Z</time>
      </trkpt>
      <trkpt lat="43.15088" lon="5.91459">
        <ele>27</ele>
        <time>2016-07-30T06:03:51.117Z</time>
      </trkpt>
      <trkpt lat="43.15085" lon="5.91458">
        <ele>27</ele>
        <time>2016-07-30T06:03:52.117Z</time>
      </trkpt>
      <trkpt lat="43.15081" lon="5.91456">
        <ele>27</ele>
        <time>2016-07-30T06:03:53.117Z</time>
      </trkpt>
      <trkpt lat="43.15078" lon="5.91456">
        <ele>27</ele>
        <time>2016-07-30T06:03:54.117Z</time>
      </trkpt>
      <trkpt lat="43.15073" lon="5.91455">
        <ele>27</ele>
        <time>2016-07-30T06:03:55.117Z</time>
      </trkpt>
      <trkpt lat="43.15069" lon="5.91453">
        <ele>27</ele>
        <time>2016-07-30T06:03:56.117Z</time>
      </trkpt>
      <trkpt lat="43.15064" lon="5.91452">
        <ele>27</ele>
        <time>2016-07-30T06:03:57.117Z</time>
      </trkpt>
      <trkpt lat="43.15058" lon="5.91451">
        <ele>27</ele>
        <time>2016-07-30T06:03:58.117Z</time>
      </trkpt>
      <trkpt lat="43.15052" lon="5.9145">
        <ele>27</ele>
        <time>2016-07-30T06:03:59.117Z</time>
      </trkpt>
      <trkpt lat="43.15047" lon="5.91448">
        <ele>26</ele>
        <time>2016-07-30T06:04:00.117Z</time>
      </trkpt>
      <trkpt lat="43.15041" lon="5.91445">
        <ele>26</ele>
        <time>2016-07-30T06:04:01.117Z</time>
      </trkpt>
      <trkpt lat="43.15035" lon="5.91442">
        <ele>25</ele>
        <time>2016-07-30T06:04:02.117Z</time>
      </trkpt>
      <trkpt lat="43.15029" lon="5.91439">
        <ele>26</ele>
        <time>2016-07-30T06:04:03.117Z</time>
      </trkpt>
      <trkpt lat="43.15023" lon="5.91435">
        <ele>26</ele>
        <time>2016-07-30T06:04:04.117Z</time>
      </trkpt>
      <trkpt lat="43.15017" lon="5.91431">
        <ele>25</ele>
        <time>2016-07-30T06:04:05.117Z</time>
      </trkpt>
      <trkpt lat="43.15011" lon="5.91426">
        <ele>25</ele>
        <time>2016-07-30T06:04:06.117Z</time>
      </trkpt>
      <trkpt lat="43.15005" lon="5.91422">
        <ele>25</ele>
        <time>2016-07-30T06:04:07.117Z</time>
      </trkpt>
      <trkpt lat="43.14999" lon="5.91418">
        <ele>25</ele>
        <time>2016-07-30T06:04:08.117Z</time>
      </trkpt>
      <trkpt lat="43.14994" lon="5.91414">
        <ele>25</ele>
        <time>2016-07-30T06:04:09.117Z</time>
      </trkpt>
      <trkpt lat="43.14988" lon="5.9141">
        <ele>25</ele>
        <time>2016-07-30T06:04:10.117Z</time>
      </trkpt>
      <trkpt lat="43.14982" lon="5.91406">
        <ele>25</ele>
        <time>2016-07-30T06:04:11.117Z</time>
      </trkpt>
      <trkpt lat="43.14976" lon="5.91402">
        <ele>25</ele>
        <time>2016-07-30T06:04:12.117Z</time>
      </trkpt>
      <trkpt lat="43.1497" lon="5.91398">
        <ele>25</ele>
        <time>2016-07-30T06:04:13.117Z</time>
      </trkpt>
      <trkpt lat="43.14964" lon="5.91394">
        <ele>25</ele>
        <time>2016-07-30T06:04:14.117Z</time>
      </trkpt>
      <trkpt lat="43.14958" lon="5.9139">
        <ele>24</ele>
        <time>2016-07-30T06:04:15.117Z</time>
      </trkpt>
      <trkpt lat="43.14952" lon="5.91387">
        <ele>24</ele>
        <time>2016-07-30T06:04:16.117Z</time>
      </trkpt>
      <trkpt lat="43.14946" lon="5.91384">
        <ele>24</ele>
        <time>2016-07-30T06:04:17.117Z</time>
      </trkpt>
      <trkpt lat="43.1494" lon="5.91381">
        <ele>24</ele>
        <time>2016-07-30T06:04:18.117Z</time>
      </trkpt>
      <trkpt lat="43.14934" lon="5.91378">
        <ele>24</ele>
        <time>2016-07-30T06:04:19.117Z</time>
      </trkpt>
      <trkpt lat="43.14927" lon="5.91376">
        <ele>23</ele>
        <time>2016-07-30T06:04:20.117Z</time>
      </trkpt>
      <trkpt lat="43.14921" lon="5.91375">
        <ele>23</ele>
        <time>2016-07-30T06:04:21.117Z</time>
      </trkpt>
      <trkpt lat="43.14914" lon="5.91374">
        <ele>23</ele>
        <time>2016-07-30T06:04:22.117Z</time>
      </trkpt>
      <trkpt lat="43.14907" lon="5.91372">
        <ele>23</ele>
        <time>2016-07-30T06:04:23.117Z</time>
      </trkpt>
      <trkpt lat="43.14901" lon="5.91371">
        <ele>23</ele>
        <time>2016-07-30T06:04:24.117Z</time>
      </trkpt>
      <trkpt lat="43.14894" lon="5.91369">
        <ele>23</ele>
        <time>2016-07-30T06:04:25.117Z</time>
      </trkpt>
      <trkpt lat="43.14887" lon="5.91368">
        <ele>23</ele>
        <time>2016-07-30T06:04:26.117Z</time>
      </trkpt>
      <trkpt lat="43.1488" lon="5.91366">
        <ele>23</ele>
        <time>2016-07-30T06:04:27.117Z</time>
      </trkpt>
      <trkpt lat="43.14873" lon="5.91364">
        <ele>23</ele>
        <time>2016-07-30T06:04:28.117Z</time>
      </trkpt>
      <trkpt lat="43.14865" lon="5.91363">
        <ele>23</ele>
        <time>2016-07-30T06:04:29.117Z</time>
      </trkpt>
      <trkpt lat="43.14858" lon="5.91361">
        <ele>24</ele>
        <time>2016-07-30T06:04:30.117Z</time>
      </trkpt>
      <trkpt lat="43.1485" lon="5.9136">
        <ele>24</ele>
        <time>2016-07-30T06:04:31.117Z</time>
      </trkpt>
      <trkpt lat="43.14843" lon="5.9136">
        <ele>24</ele>
        <time>2016-07-30T06:04:32.117Z</time>
      </trkpt>
      <trkpt lat="43.14835" lon="5.9136">
        <ele>24</ele>
        <time>2016-07-30T06:04:33.117Z</time>
      </trkpt>
      <trkpt lat="43.14827" lon="5.91361">
        <ele>24</ele>
        <time>2016-07-30T06:04:34.117Z</time>
      </trkpt>
      <trkpt lat="43.14819" lon="5.91362">
        <ele>24</ele>
        <time>2016-07-30T06:04:35.117Z</time>
      </trkpt>
      <trkpt lat="43.14811" lon="5.91363">
        <ele>23</ele>
        <time>2016-07-30T06:04:36.117Z</time>
      </trkpt>
      <trkpt lat="43.14803" lon="5.91363">
        <ele>22</ele>
        <time>2016-07-30T06:04:37.117Z</time>
      </trkpt>
      <trkpt lat="43.14795" lon="5.91362">
        <ele>21</ele>
        <time>2016-07-30T06:04:38.117Z</time>
      </trkpt>
      <trkpt lat="43.14786" lon="5.91361">
        <ele>22</ele>
        <time>2016-07-30T06:04:39.117Z</time>
      </trkpt>
      <trkpt lat="43.14778" lon="5.91359">
        <ele>22</ele>
        <time>2016-07-30T06:04:40.117Z</time>
      </trkpt>
      <trkpt lat="43.14769" lon="5.91357">
        <ele>21</ele>
        <time>2016-07-30T06:04:41.117Z</time>
      </trkpt>
      <trkpt lat="43.1476" lon="5.91354">
        <ele>19</ele>
        <time>2016-07-30T06:04:42.117Z</time>
      </trkpt>
      <trkpt lat="43.14752" lon="5.91351">
        <ele>18</ele>
        <time>2016-07-30T06:04:43.117Z</time>
      </trkpt>
      <trkpt lat="43.14743" lon="5.91347">
        <ele>18</ele>
        <time>2016-07-30T06:04:44.117Z</time>
      </trkpt>
      <trkpt lat="43.14734" lon="5.91342">
        <ele>18</ele>
        <time>2016-07-30T06:04:45.117Z</time>
      </trkpt>
      <trkpt lat="43.14726" lon="5.91336">
        <ele>17</ele>
        <time>2016-07-30T06:04:46.117Z</time>
      </trkpt>
      <trkpt lat="43.14717" lon="5.91329">
        <ele>16</ele>
        <time>2016-07-30T06:04:47.117Z</time>
      </trkpt>
      <trkpt lat="43.14709" lon="5.91323">
        <ele>15</ele>
        <time>2016-07-30T06:04:48.117Z</time>
      </trkpt>
      <trkpt lat="43.147" lon="5.91316">
        <ele>15</ele>
        <time>2016-07-30T06:04:49.117Z</time>
      </trkpt>
      <trkpt lat="43.14692" lon="5.9131">
        <ele>14</ele>
        <time>2016-07-30T06:04:50.117Z</time>
      </trkpt>
      <trkpt lat="43.14684" lon="5.91303">
        <ele>14</ele>
        <time>2016-07-30T06:04:51.117Z</time>
      </trkpt>
      <trkpt lat="43.14675" lon="5.91296">
        <ele>14</ele>
        <time>2016-07-30T06:04:52.117Z</time>
      </trkpt>
      <trkpt lat="43.14666" lon="5.9129">
        <ele>14</ele>
        <time>2016-07-30T06:04:53.117Z</time>
      </trkpt>
      <trkpt lat="43.14657" lon="5.91284">
        <ele>14</ele>
        <time>2016-07-30T06:04:54.117Z</time>
      </trkpt>
      <trkpt lat="43.14649" lon="5.91278">
        <ele>15</ele>
        <time>2016-07-30T06:04:55.117Z</time>
      </trkpt>
      <trkpt lat="43.1464" lon="5.91272">
        <ele>15</ele>
        <time>2016-07-30T06:04:56.117Z</time>
      </trkpt>
      <trkpt lat="43.14632" lon="5.91266">
        <ele>15</ele>
        <time>2016-07-30T06:04:57.117Z</time>
      </trkpt>
      <trkpt lat="43.14623" lon="5.91259">
        <ele>15</ele>
        <time>2016-07-30T06:04:58.117Z</time>
      </trkpt>
      <trkpt lat="43.14615" lon="5.91253">
        <ele>16</ele>
        <time>2016-07-30T06:04:59.117Z</time>
      </trkpt>
      <trkpt lat="43.14607" lon="5.91247">
        <ele>17</ele>
        <time>2016-07-30T06:05:00.117Z</time>
      </trkpt>
      <trkpt lat="43.14599" lon="5.91241">
        <ele>17</ele>
        <time>2016-07-30T06:05:01.117Z</time>
      </trkpt>
      <trkpt lat="43.14591" lon="5.91235">
        <ele>17</ele>
        <time>2016-07-30T06:05:02.117Z</time>
      </trkpt>
      <trkpt lat="43.14583" lon="5.9123">
        <ele>17</ele>
        <time>2016-07-30T06:05:03.117Z</time>
      </trkpt>
      <trkpt lat="43.14575" lon="5.91225">
        <ele>17</ele>
        <time>2016-07-30T06:05:04.117Z</time>
      </trkpt>
      <trkpt lat="43.14567" lon="5.9122">
        <ele>17</ele>
        <time>2016-07-30T06:05:05.117Z</time>
      </trkpt>
      <trkpt lat="43.14559" lon="5.91214">
        <ele>17</ele>
        <time>2016-07-30T06:05:06.117Z</time>
      </trkpt>
      <trkpt lat="43.14551" lon="5.91209">
        <ele>16</ele>
        <time>2016-07-30T06:05:07.117Z</time>
      </trkpt>
      <trkpt lat="43.14543" lon="5.91204">
        <ele>17</ele>
        <time>2016-07-30T06:05:08.117Z</time>
      </trkpt>
      <trkpt lat="43.14535" lon="5.91201">
        <ele>16</ele>
        <time>2016-07-30T06:05:09.117Z</time>
      </trkpt>
      <trkpt lat="43.14528" lon="5.91198">
        <ele>17</ele>
        <time>2016-07-30T06:05:10.117Z</time>
      </trkpt>
      <trkpt lat="43.14521" lon="5.91195">
        <ele>17</ele>
        <time>2016-07-30T06:05:11.117Z</time>
      </trkpt>
      <trkpt lat="43.14516" lon="5.91193">
        <ele>17</ele>
        <time>2016-07-30T06:05:12.117Z</time>
      </trkpt>
      <trkpt lat="43.14513" lon="5.9119">
        <ele>17</ele>
        <time>2016-07-30T06:05:13.117Z</time>
      </trkpt>
      <trkpt lat="43.1451" lon="5.91184">
        <ele>17</ele>
        <time>2016-07-30T06:05:14.117Z</time>
      </trkpt>
      <trkpt lat="43.14508" lon="5.91177">
        <ele>11</ele>
        <time>2016-07-30T06:05:15.117Z</time>
      </trkpt>
      <trkpt lat="43.14507" lon="5.91169">
        <ele>11</ele>
        <time>2016-07-30T06:05:16.117Z</time>
      </trkpt>
      <trkpt lat="43.14506" lon="5.91161">
        <ele>10</ele>
        <time>2016-07-30T06:05:17.117Z</time>
      </trkpt>
      <trkpt lat="43.14504" lon="5.91155">
        <ele>8</ele>
        <time>2016-07-30T06:05:18.117Z</time>
      </trkpt>
      <trkpt lat="43.145" lon="5.91149">
        <ele>6</ele>
        <time>2016-07-30T06:05:19.117Z</time>
      </trkpt>
      <trkpt lat="43.14494" lon="5.91144">
        <ele>5</ele>
        <time>2016-07-30T06:05:20.117Z</time>
      </trkpt>
      <trkpt lat="43.14488" lon="5.91141">
        <ele>4</ele>
        <time>2016-07-30T06:05:21.117Z</time>
      </trkpt>
      <trkpt lat="43.14482" lon="5.91138">
        <ele>2</ele>
        <time>2016-07-30T06:05:22.117Z</time>
      </trkpt>
      <trkpt lat="43.14475" lon="5.91135">
        <ele>2</ele>
        <time>2016-07-30T06:05:23.117Z</time>
      </trkpt>
      <trkpt lat="43.14469" lon="5.91131">
        <ele>3</ele>
        <time>2016-07-30T06:05:24.117Z</time>
      </trkpt>
      <trkpt lat="43.14462" lon="5.91126">
        <ele>4</ele>
        <time>2016-07-30T06:05:25.117Z</time>
      </trkpt>
      <trkpt lat="43.14456" lon="5.91121">
        <ele>5</ele>
        <time>2016-07-30T06:05:26.117Z</time>
      </trkpt>
      <trkpt lat="43.14449" lon="5.91115">
        <ele>5</ele>
        <time>2016-07-30T06:05:27.117Z</time>
      </trkpt>
      <trkpt lat="43.14443" lon="5.9111">
        <ele>5</ele>
        <time>2016-07-30T06:05:28.117Z</time>
      </trkpt>
      <trkpt lat="43.14437" lon="5.91104">
        <ele>5</ele>
        <time>2016-07-30T06:05:29.117Z</time>
      </trkpt>
      <trkpt lat="43.1443" lon="5.91099">
        <ele>5</ele>
        <time>2016-07-30T06:05:30.117Z</time>
      </trkpt>
      <trkpt lat="43.14423" lon="5.91095">
        <ele>5</ele>
        <time>2016-07-30T06:05:31.117Z</time>
      </trkpt>
      <trkpt lat="43.14416" lon="5.91092">
        <ele>4</ele>
        <time>2016-07-30T06:05:32.117Z</time>
      </trkpt>
      <trkpt lat="43.14409" lon="5.9109">
        <ele>4</ele>
        <time>2016-07-30T06:05:33.117Z</time>
      </trkpt>
      <trkpt lat="43.14402" lon="5.91088">
        <ele>3</ele>
        <time>2016-07-30T06:05:34.117Z</time>
      </trkpt>
      <trkpt lat="43.14394" lon="5.91087">
        <ele>3</ele>
        <time>2016-07-30T06:05:35.117Z</time>
      </trkpt>
      <trkpt lat="43.14387" lon="5.91086">
        <ele>2</ele>
        <time>2016-07-30T06:05:36.117Z</time>
      </trkpt>
      <trkpt lat="43.1438" lon="5.91085">
        <ele>2</ele>
        <time>2016-07-30T06:05:37.117Z</time>
      </trkpt>
      <trkpt lat="43.14372" lon="5.91085">
        <ele>2</ele>
        <time>2016-07-30T06:05:38.117Z</time>
      </trkpt>
      <trkpt lat="43.14365" lon="5.91084">
        <ele>2</ele>
        <time>2016-07-30T06:05:39.117Z</time>
      </trkpt>
      <trkpt lat="43.14358" lon="5.91084">
        <ele>2</ele>
        <time>2016-07-30T06:05:40.117Z</time>
      </trkpt>
      <trkpt lat="43.1435" lon="5.91083">
        <ele>2</ele>
        <time>2016-07-30T06:05:41.117Z</time>
      </trkpt>
      <trkpt lat="43.14343" lon="5.91083">
        <ele>1</ele>
        <time>2016-07-30T06:05:42.117Z</time>
      </trkpt>
      <trkpt lat="43.14335" lon="5.91082">
        <ele>1</ele>
        <time>2016-07-30T06:05:43.117Z</time>
      </trkpt>
      <trkpt lat="43.14328" lon="5.91082">
        <ele>17.8</ele>
        <time>2016-07-30T06:05:44.117Z</time>
      </trkpt>
      <trkpt lat="43.14321" lon="5.91081">
        <ele>17.5</ele>
        <time>2016-07-30T06:05:45.117Z</time>
      </trkpt>
      <trkpt lat="43.14313" lon="5.91081">
        <ele>17.2</ele>
        <time>2016-07-30T06:05:46.117Z</time>
      </trkpt>
      <trkpt lat="43.14305" lon="5.91081">
        <ele>1</ele>
        <time>2016-07-30T06:05:47.117Z</time>
      </trkpt>
      <trkpt lat="43.14297" lon="5.91081">
        <ele>17</ele>
        <time>2016-07-30T06:05:48.117Z</time>
      </trkpt>
      <trkpt lat="43.14289" lon="5.91081">
        <ele>17</ele>
        <time>2016-07-30T06:05:49.117Z</time>
      </trkpt>
      <trkpt lat="43.14282" lon="5.91081">
        <ele>-1</ele>
        <time>2016-07-30T06:05:50.117Z</time>
      </trkpt>
      <trkpt lat="43.14274" lon="5.9108">
        <ele>-1</ele>
        <time>2016-07-30T06:05:51.117Z</time>
      </trkpt>
      <trkpt lat="43.14266" lon="5.9108">
        <ele>-1</ele>
        <time>2016-07-30T06:05:52.117Z</time>
      </trkpt>
      <trkpt lat="43.14258" lon="5.91078">
        <ele>-1</ele>
        <time>2016-07-30T06:05:53.117Z</time>
      </trkpt>
      <trkpt lat="43.1425" lon="5.91077">
        <ele>-1</ele>
        <time>2016-07-30T06:05:54.117Z</time>
      </trkpt>
      <trkpt lat="43.14242" lon="5.91075">
        <ele>16</ele>
        <time>2016-07-30T06:05:55.117Z</time>
      </trkpt>
      <trkpt lat="43.14234" lon="5.91073">
        <ele>16</ele>
        <time>2016-07-30T06:05:56.117Z</time>
      </trkpt>
      <trkpt lat="43.14226" lon="5.9107">
        <ele>1</ele>
        <time>2016-07-30T06:05:57.117Z</time>
      </trkpt>
      <trkpt lat="43.14219" lon="5.91066">
        <ele>1</ele>
        <time>2016-07-30T06:05:58.117Z</time>
      </trkpt>
      <trkpt lat="43.14213" lon="5.9106">
        <ele>16.3</ele>
        <time>2016-07-30T06:05:59.117Z</time>
      </trkpt>
      <trkpt lat="43.14209" lon="5.91052">
        <ele>16.5</ele>
        <time>2016-07-30T06:06:00.117Z</time>
      </trkpt>
      <trkpt lat="43.14206" lon="5.91043">
        <ele>5</ele>
        <time>2016-07-30T06:06:01.117Z</time>
      </trkpt>
      <trkpt lat="43.14205" lon="5.91033">
        <ele>8</ele>
        <time>2016-07-30T06:06:02.117Z</time>
      </trkpt>
      <trkpt lat="43.14204" lon="5.91025">
        <ele>8</ele>
        <time>2016-07-30T06:06:03.117Z</time>
      </trkpt>
      <trkpt lat="43.14203" lon="5.91018">
        <ele>8</ele>
        <time>2016-07-30T06:06:04.117Z</time>
      </trkpt>
      <trkpt lat="43.14203" lon="5.9101">
        <ele>6</ele>
        <time>2016-07-30T06:06:05.117Z</time>
      </trkpt>
      <trkpt lat="43.14203" lon="5.91001">
        <ele>7</ele>
        <time>2016-07-30T06:06:06.117Z</time>
      </trkpt>
      <trkpt lat="43.14204" lon="5.90993">
        <ele>6</ele>
        <time>2016-07-30T06:06:07.117Z</time>
      </trkpt>
      <trkpt lat="43.14204" lon="5.90984">
        <ele>7</ele>
        <time>2016-07-30T06:06:08.117Z</time>
      </trkpt>
      <trkpt lat="43.14204" lon="5.90975">
        <ele>7</ele>
        <time>2016-07-30T06:06:09.117Z</time>
      </trkpt>
      <trkpt lat="43.14205" lon="5.90967">
        <ele>7</ele>
        <time>2016-07-30T06:06:10.117Z</time>
      </trkpt>
      <trkpt lat="43.14207" lon="5.90957">
        <ele>8</ele>
        <time>2016-07-30T06:06:11.117Z</time>
      </trkpt>
      <trkpt lat="43.14208" lon="5.90948">
        <ele>8</ele>
        <time>2016-07-30T06:06:12.117Z</time>
      </trkpt>
      <trkpt lat="43.14209" lon="5.90939">
        <ele>8</ele>
        <time>2016-07-30T06:06:13.117Z</time>
      </trkpt>
      <trkpt lat="43.1421" lon="5.9093">
        <ele>8</ele>
        <time>2016-07-30T06:06:14.117Z</time>
      </trkpt>
      <trkpt lat="43.14211" lon="5.90922">
        <ele>8</ele>
        <time>2016-07-30T06:06:15.117Z</time>
      </trkpt>
      <trkpt lat="43.14213" lon="5.90913">
        <ele>8</ele>
        <time>2016-07-30T06:06:16.117Z</time>
      </trkpt>
      <trkpt lat="43.14214" lon="5.90904">
        <ele>8</ele>
        <time>2016-07-30T06:06:17.117Z</time>
      </trkpt>
      <trkpt lat="43.14216" lon="5.90896">
        <ele>9</ele>
        <time>2016-07-30T06:06:18.117Z</time>
      </trkpt>
      <trkpt lat="43.14218" lon="5.90888">
        <ele>9</ele>
        <time>2016-07-30T06:06:19.117Z</time>
      </trkpt>
      <trkpt lat="43.14221" lon="5.90881">
        <ele>9</ele>
        <time>2016-07-30T06:06:20.117Z</time>
      </trkpt>
      <trkpt lat="43.14225" lon="5.90874">
        <ele>12</ele>
        <time>2016-07-30T06:06:21.117Z</time>
      </trkpt>
      <trkpt lat="43.1423" lon="5.90868">
        <ele>13</ele>
        <time>2016-07-30T06:06:22.117Z</time>
      </trkpt>
      <trkpt lat="43.14235" lon="5.90863">
        <ele>13</ele>
        <time>2016-07-30T06:06:23.117Z</time>
      </trkpt>
      <trkpt lat="43.1424" lon="5.9086">
        <ele>14</ele>
        <time>2016-07-30T06:06:24.117Z</time>
      </trkpt>
      <trkpt lat="43.14246" lon="5.90858">
        <ele>14</ele>
        <time>2016-07-30T06:06:25.117Z</time>
      </trkpt>
      <trkpt lat="43.14252" lon="5.90855">
        <ele>14</ele>
        <time>2016-07-30T06:06:26.117Z</time>
      </trkpt>
      <trkpt lat="43.14258" lon="5.90853">
        <ele>14</ele>
        <time>2016-07-30T06:06:27.117Z</time>
      </trkpt>
      <trkpt lat="43.14264" lon="5.9085">
        <ele>14</ele>
        <time>2016-07-30T06:06:28.117Z</time>
      </trkpt>
      <trkpt lat="43.14269" lon="5.90847">
        <ele>14</ele>
        <time>2016-07-30T06:06:29.117Z</time>
      </trkpt>
      <trkpt lat="43.14274" lon="5.90842">
        <ele>15</ele>
        <time>2016-07-30T06:06:30.117Z</time>
      </trkpt>
      <trkpt lat="43.14279" lon="5.90838">
        <ele>15</ele>
        <time>2016-07-30T06:06:31.117Z</time>
      </trkpt>
      <trkpt lat="43.14283" lon="5.90833">
        <ele>15</ele>
        <time>2016-07-30T06:06:32.117Z</time>
      </trkpt>
      <trkpt lat="43.14288" lon="5.90828">
        <ele>16</ele>
        <time>2016-07-30T06:06:33.117Z</time>
      </trkpt>
      <trkpt lat="43.14292" lon="5.90823">
        <ele>16</ele>
        <time>2016-07-30T06:06:34.117Z</time>
      </trkpt>
      <trkpt lat="43.14296" lon="5.90818">
        <ele>16</ele>
        <time>2016-07-30T06:06:35.117Z</time>
      </trkpt>
      <trkpt lat="43.143" lon="5.90812">
        <ele>17</ele>
        <time>2016-07-30T06:06:36.117Z</time>
      </trkpt>
      <trkpt lat="43.14304" lon="5.90806">
        <ele>17</ele>
        <time>2016-07-30T06:06:37.117Z</time>
      </trkpt>
      <trkpt lat="43.14308" lon="5.908">
        <ele>17</ele>
        <time>2016-07-30T06:06:38.117Z</time>
      </trkpt>
      <trkpt lat="43.14311" lon="5.90795">
        <ele>17</ele>
        <time>2016-07-30T06:06:39.117Z</time>
      </trkpt>
      <trkpt lat="43.14315" lon="5.90789">
        <ele>18</ele>
        <time>2016-07-30T06:06:40.117Z</time>
      </trkpt>
      <trkpt lat="43.14319" lon="5.90783">
        <ele>18</ele>
        <time>2016-07-30T06:06:41.117Z</time>
      </trkpt>
      <trkpt lat="43.14322" lon="5.90777">
        <ele>18</ele>
        <time>2016-07-30T06:06:42.117Z</time>
      </trkpt>
      <trkpt lat="43.14326" lon="5.90771">
        <ele>18</ele>
        <time>2016-07-30T06:06:43.117Z</time>
      </trkpt>
      <trkpt lat="43.1433" lon="5.90765">
        <ele>19</ele>
        <time>2016-07-30T06:06:44.117Z</time>
      </trkpt>
      <trkpt lat="43.14334" lon="5.9076">
        <ele>19</ele>
        <time>2016-07-30T06:06:45.117Z</time>
      </trkpt>
      <trkpt lat="43.14338" lon="5.90754">
        <ele>19</ele>
        <time>2016-07-30T06:06:46.117Z</time>
      </trkpt>
      <trkpt lat="43.14342" lon="5.90748">
        <ele>19</ele>
        <time>2016-07-30T06:06:47.117Z</time>
      </trkpt>
      <trkpt lat="43.14346" lon="5.90742">
        <ele>19</ele>
        <time>2016-07-30T06:06:48.117Z</time>
      </trkpt>
      <trkpt lat="43.1435" lon="5.90736">
        <ele>19</ele>
        <time>2016-07-30T06:06:49.117Z</time>
      </trkpt>
      <trkpt lat="43.14354" lon="5.9073">
        <ele>19</ele>
        <time>2016-07-30T06:06:50.117Z</time>
      </trkpt>
      <trkpt lat="43.14358" lon="5.90724">
        <ele>20</ele>
        <time>2016-07-30T06:06:51.117Z</time>
      </trkpt>
      <trkpt lat="43.14362" lon="5.90718">
        <ele>20</ele>
        <time>2016-07-30T06:06:52.117Z</time>
      </trkpt>
      <trkpt lat="43.14366" lon="5.90712">
        <ele>20</ele>
        <time>2016-07-30T06:06:53.117Z</time>
      </trkpt>
      <trkpt lat="43.1437" lon="5.90706">
        <ele>21</ele>
        <time>2016-07-30T06:06:54.117Z</time>
      </trkpt>
      <trkpt lat="43.14374" lon="5.907">
        <ele>21</ele>
        <time>2016-07-30T06:06:55.117Z</time>
      </trkpt>
      <trkpt lat="43.14377" lon="5.90695">
        <ele>22</ele>
        <time>2016-07-30T06:06:56.117Z</time>
      </trkpt>
      <trkpt lat="43.14381" lon="5.90689">
        <ele>22</ele>
        <time>2016-07-30T06:06:57.117Z</time>
      </trkpt>
      <trkpt lat="43.14385" lon="5.90684">
        <ele>22</ele>
        <time>2016-07-30T06:06:58.117Z</time>
      </trkpt>
      <trkpt lat="43.14389" lon="5.90678">
        <ele>23</ele>
        <time>2016-07-30T06:06:59.117Z</time>
      </trkpt>
      <trkpt lat="43.14392" lon="5.90673">
        <ele>23</ele>
        <time>2016-07-30T06:07:00.117Z</time>
      </trkpt>
      <trkpt lat="43.14396" lon="5.90668">
        <ele>23</ele>
        <time>2016-07-30T06:07:01.117Z</time>
      </trkpt>
      <trkpt lat="43.144" lon="5.90663">
        <ele>23</ele>
        <time>2016-07-30T06:07:02.117Z</time>
      </trkpt>
      <trkpt lat="43.14403" lon="5.90658">
        <ele>23</ele>
        <time>2016-07-30T06:07:03.117Z</time>
      </trkpt>
      <trkpt lat="43.14407" lon="5.90652">
        <ele>23</ele>
        <time>2016-07-30T06:07:04.117Z</time>
      </trkpt>
      <trkpt lat="43.1441" lon="5.90647">
        <ele>24</ele>
        <time>2016-07-30T06:07:05.117Z</time>
      </trkpt>
      <trkpt lat="43.14413" lon="5.90641">
        <ele>23</ele>
        <time>2016-07-30T06:07:06.117Z</time>
      </trkpt>
      <trkpt lat="43.14417" lon="5.90636">
        <ele>24</ele>
        <time>2016-07-30T06:07:07.117Z</time>
      </trkpt>
      <trkpt lat="43.1442" lon="5.9063">
        <ele>24</ele>
        <time>2016-07-30T06:07:08.117Z</time>
      </trkpt>
      <trkpt lat="43.14423" lon="5.90625">
        <ele>24</ele>
        <time>2016-07-30T06:07:09.117Z</time>
      </trkpt>
      <trkpt lat="43.14427" lon="5.9062">
        <ele>24</ele>
        <time>2016-07-30T06:07:10.117Z</time>
      </trkpt>
      <trkpt lat="43.1443" lon="5.90614">
        <ele>24</ele>
        <time>2016-07-30T06:07:11.117Z</time>
      </trkpt>
      <trkpt lat="43.14433" lon="5.90608">
        <ele>24</ele>
        <time>2016-07-30T06:07:12.117Z</time>
      </trkpt>
      <trkpt lat="43.14436" lon="5.90603">
        <ele>24</ele>
        <time>2016-07-30T06:07:13.117Z</time>
      </trkpt>
      <trkpt lat="43.14439" lon="5.90597">
        <ele>25</ele>
        <time>2016-07-30T06:07:14.117Z</time>
      </trkpt>
      <trkpt lat="43.14443" lon="5.9059">
        <ele>25</ele>
        <time>2016-07-30T06:07:15.117Z</time>
      </trkpt>
      <trkpt lat="43.14446" lon="5.90584">
        <ele>25</ele>
        <time>2016-07-30T06:07:16.117Z</time>
      </trkpt>
      <trkpt lat="43.14449" lon="5.90577">
        <ele>25</ele>
        <time>2016-07-30T06:07:17.117Z</time>
      </trkpt>
      <trkpt lat="43.14452" lon="5.90571">
        <ele>25</ele>
        <time>2016-07-30T06:07:18.117Z</time>
      </trkpt>
      <trkpt lat="43.14455" lon="5.90564">
        <ele>25</ele>
        <time>2016-07-30T06:07:19.117Z</time>
      </trkpt>
      <trkpt lat="43.14458" lon="5.90558">
        <ele>25</ele>
        <time>2016-07-30T06:07:20.117Z</time>
      </trkpt>
      <trkpt lat="43.1446" lon="5.90551">
        <ele>25</ele>
        <time>2016-07-30T06:07:21.117Z</time>
      </trkpt>
      <trkpt lat="43.14463" lon="5.90545">
        <ele>25</ele>
        <time>2016-07-30T06:07:22.117Z</time>
      </trkpt>
      <trkpt lat="43.14466" lon="5.90539">
        <ele>24</ele>
        <time>2016-07-30T06:07:23.117Z</time>
      </trkpt>
      <trkpt lat="43.14468" lon="5.90533">
        <ele>24</ele>
        <time>2016-07-30T06:07:24.117Z</time>
      </trkpt>
      <trkpt lat="43.14471" lon="5.90526">
        <ele>25</ele>
        <time>2016-07-30T06:07:25.117Z</time>
      </trkpt>
      <trkpt lat="43.14474" lon="5.9052">
        <ele>25</ele>
        <time>2016-07-30T06:07:26.117Z</time>
      </trkpt>
      <trkpt lat="43.14476" lon="5.90513">
        <ele>26</ele>
        <time>2016-07-30T06:07:27.117Z</time>
      </trkpt>
      <trkpt lat="43.14479" lon="5.90507">
        <ele>26</ele>
        <time>2016-07-30T06:07:28.117Z</time>
      </trkpt>
      <trkpt lat="43.14482" lon="5.90501">
        <ele>26</ele>
        <time>2016-07-30T06:07:29.117Z</time>
      </trkpt>
      <trkpt lat="43.14485" lon="5.90495">
        <ele>26</ele>
        <time>2016-07-30T06:07:30.117Z</time>
      </trkpt>
      <trkpt lat="43.14487" lon="5.90489">
        <ele>27</ele>
        <time>2016-07-30T06:07:31.117Z</time>
      </trkpt>
      <trkpt lat="43.1449" lon="5.90484">
        <ele>27</ele>
        <time>2016-07-30T06:07:32.117Z</time>
      </trkpt>
      <trkpt lat="43.14493" lon="5.90479">
        <ele>26</ele>
        <time>2016-07-30T06:07:33.117Z</time>
      </trkpt>
      <trkpt lat="43.14496" lon="5.90473">
        <ele>26</ele>
        <time>2016-07-30T06:07:34.117Z</time>
      </trkpt>
      <trkpt lat="43.14499" lon="5.90468">
        <ele>27</ele>
        <time>2016-07-30T06:07:35.117Z</time>
      </trkpt>
      <trkpt lat="43.14502" lon="5.90463">
        <ele>27</ele>
        <time>2016-07-30T06:07:36.117Z</time>
      </trkpt>
      <trkpt lat="43.14505" lon="5.90457">
        <ele>27</ele>
        <time>2016-07-30T06:07:37.117Z</time>
      </trkpt>
      <trkpt lat="43.14508" lon="5.90451">
        <ele>27</ele>
        <time>2016-07-30T06:07:38.117Z</time>
      </trkpt>
      <trkpt lat="43.14511" lon="5.90445">
        <ele>28</ele>
        <time>2016-07-30T06:07:39.117Z</time>
      </trkpt>
      <trkpt lat="43.14514" lon="5.90439">
        <ele>28</ele>
        <time>2016-07-30T06:07:40.117Z</time>
      </trkpt>
      <trkpt lat="43.14517" lon="5.90433">
        <ele>29</ele>
        <time>2016-07-30T06:07:41.117Z</time>
      </trkpt>
      <trkpt lat="43.1452" lon="5.90428">
        <ele>29</ele>
        <time>2016-07-30T06:07:42.117Z</time>
      </trkpt>
      <trkpt lat="43.14523" lon="5.90422">
        <ele>29</ele>
        <time>2016-07-30T06:07:43.117Z</time>
      </trkpt>
      <trkpt lat="43.14527" lon="5.90417">
        <ele>29</ele>
        <time>2016-07-30T06:07:44.117Z</time>
      </trkpt>
      <trkpt lat="43.1453" lon="5.90412">
        <ele>29</ele>
        <time>2016-07-30T06:07:45.117Z</time>
      </trkpt>
      <trkpt lat="43.14534" lon="5.90408">
        <ele>29</ele>
        <time>2016-07-30T06:07:46.117Z</time>
      </trkpt>
      <trkpt lat="43.14538" lon="5.90403">
        <ele>29</ele>
        <time>2016-07-30T06:07:47.117Z</time>
      </trkpt>
      <trkpt lat="43.14543" lon="5.904">
        <ele>29</ele>
        <time>2016-07-30T06:07:48.117Z</time>
      </trkpt>
      <trkpt lat="43.14547" lon="5.90396">
        <ele>29</ele>
        <time>2016-07-30T06:07:49.117Z</time>
      </trkpt>
      <trkpt lat="43.1455" lon="5.90392">
        <ele>29</ele>
        <time>2016-07-30T06:07:50.117Z</time>
      </trkpt>
      <trkpt lat="43.14554" lon="5.90388">
        <ele>29</ele>
        <time>2016-07-30T06:07:51.117Z</time>
      </trkpt>
      <trkpt lat="43.14557" lon="5.90384">
        <ele>29</ele>
        <time>2016-07-30T06:07:52.117Z</time>
      </trkpt>
      <trkpt lat="43.1456" lon="5.9038">
        <ele>29</ele>
        <time>2016-07-30T06:07:53.117Z</time>
      </trkpt>
      <trkpt lat="43.14563" lon="5.90376">
        <ele>29</ele>
        <time>2016-07-30T06:07:54.117Z</time>
      </trkpt>
      <trkpt lat="43.14567" lon="5.90372">
        <ele>29</ele>
        <time>2016-07-30T06:07:55.117Z</time>
      </trkpt>
      <trkpt lat="43.1457" lon="5.90367">
        <ele>29</ele>
        <time>2016-07-30T06:07:56.117Z</time>
      </trkpt>
      <trkpt lat="43.14572" lon="5.90362">
        <ele>30</ele>
        <time>2016-07-30T06:07:57.117Z</time>
      </trkpt>
      <trkpt lat="43.14575" lon="5.90357">
        <ele>30</ele>
        <time>2016-07-30T06:07:58.117Z</time>
      </trkpt>
      <trkpt lat="43.14578" lon="5.90352">
        <ele>30</ele>
        <time>2016-07-30T06:07:59.117Z</time>
      </trkpt>
      <trkpt lat="43.14581" lon="5.90348">
        <ele>31</ele>
        <time>2016-07-30T06:08:00.117Z</time>
      </trkpt>
      <trkpt lat="43.14584" lon="5.90343">
        <ele>31</ele>
        <time>2016-07-30T06:08:01.117Z</time>
      </trkpt>
      <trkpt lat="43.14587" lon="5.90339">
        <ele>31</ele>
        <time>2016-07-30T06:08:02.117Z</time>
      </trkpt>
      <trkpt lat="43.1459" lon="5.90335">
        <ele>32</ele>
        <time>2016-07-30T06:08:03.117Z</time>
      </trkpt>
      <trkpt lat="43.14594" lon="5.90331">
        <ele>32</ele>
        <time>2016-07-30T06:08:04.117Z</time>
      </trkpt>
      <trkpt lat="43.14598" lon="5.90328">
        <ele>33</ele>
        <time>2016-07-30T06:08:05.117Z</time>
      </trkpt>
      <trkpt lat="43.14602" lon="5.90324">
        <ele>33</ele>
        <time>2016-07-30T06:08:06.117Z</time>
      </trkpt>
      <trkpt lat="43.14605" lon="5.90321">
        <ele>34</ele>
        <time>2016-07-30T06:08:07.117Z</time>
      </trkpt>
      <trkpt lat="43.14609" lon="5.90318">
        <ele>35</ele>
        <time>2016-07-30T06:08:08.117Z</time>
      </trkpt>
      <trkpt lat="43.14613" lon="5.90314">
        <ele>35</ele>
        <time>2016-07-30T06:08:09.117Z</time>
      </trkpt>
      <trkpt lat="43.14616" lon="5.90311">
        <ele>35</ele>
        <time>2016-07-30T06:08:10.117Z</time>
      </trkpt>
      <trkpt lat="43.14619" lon="5.90307">
        <ele>36</ele>
        <time>2016-07-30T06:08:11.117Z</time>
      </trkpt>
      <trkpt lat="43.14622" lon="5.90304">
        <ele>37</ele>
        <time>2016-07-30T06:08:12.117Z</time>
      </trkpt>
      <trkpt lat="43.14625" lon="5.90299">
        <ele>37</ele>
        <time>2016-07-30T06:08:13.117Z</time>
      </trkpt>
      <trkpt lat="43.14628" lon="5.90295">
        <ele>38</ele>
        <time>2016-07-30T06:08:14.117Z</time>
      </trkpt>
      <trkpt lat="43.14631" lon="5.90292">
        <ele>39</ele>
        <time>2016-07-30T06:08:15.117Z</time>
      </trkpt>
      <trkpt lat="43.14634" lon="5.90288">
        <ele>39</ele>
        <time>2016-07-30T06:08:16.117Z</time>
      </trkpt>
      <trkpt lat="43.14638" lon="5.90285">
        <ele>40</ele>
        <time>2016-07-30T06:08:17.117Z</time>
      </trkpt>
      <trkpt lat="43.14641" lon="5.90282">
        <ele>43</ele>
        <time>2016-07-30T06:08:18.117Z</time>
      </trkpt>
      <trkpt lat="43.14644" lon="5.90281">
        <ele>44</ele>
        <time>2016-07-30T06:08:19.117Z</time>
      </trkpt>
      <trkpt lat="43.14647" lon="5.90279">
        <ele>45</ele>
        <time>2016-07-30T06:08:20.117Z</time>
      </trkpt>
      <trkpt lat="43.14651" lon="5.90276">
        <ele>47</ele>
        <time>2016-07-30T06:08:21.117Z</time>
      </trkpt>
      <trkpt lat="43.14654" lon="5.90274">
        <ele>48</ele>
        <time>2016-07-30T06:08:22.117Z</time>
      </trkpt>
      <trkpt lat="43.14658" lon="5.90272">
        <ele>48</ele>
        <time>2016-07-30T06:08:23.117Z</time>
      </trkpt>
      <trkpt lat="43.14661" lon="5.90269">
        <ele>48</ele>
        <time>2016-07-30T06:08:24.117Z</time>
      </trkpt>
      <trkpt lat="43.14665" lon="5.90267">
        <ele>48</ele>
        <time>2016-07-30T06:08:25.117Z</time>
      </trkpt>
      <trkpt lat="43.14669" lon="5.90265">
        <ele>48</ele>
        <time>2016-07-30T06:08:26.117Z</time>
      </trkpt>
      <trkpt lat="43.14672" lon="5.90262">
        <ele>48</ele>
        <time>2016-07-30T06:08:27.117Z</time>
      </trkpt>
      <trkpt lat="43.14676" lon="5.9026">
        <ele>47</ele>
        <time>2016-07-30T06:08:28.117Z</time>
      </trkpt>
      <trkpt lat="43.1468" lon="5.90257">
        <ele>47</ele>
        <time>2016-07-30T06:08:29.117Z</time>
      </trkpt>
      <trkpt lat="43.14683" lon="5.90255">
        <ele>47</ele>
        <time>2016-07-30T06:08:30.117Z</time>
      </trkpt>
      <trkpt lat="43.14687" lon="5.90253">
        <ele>46</ele>
        <time>2016-07-30T06:08:31.117Z</time>
      </trkpt>
      <trkpt lat="43.14691" lon="5.90251">
        <ele>46</ele>
        <time>2016-07-30T06:08:32.117Z</time>
      </trkpt>
      <trkpt lat="43.14694" lon="5.90249">
        <ele>46</ele>
        <time>2016-07-30T06:08:33.117Z</time>
      </trkpt>
      <trkpt lat="43.14698" lon="5.90247">
        <ele>46</ele>
        <time>2016-07-30T06:08:34.117Z</time>
      </trkpt>
      <trkpt lat="43.14701" lon="5.90244">
        <ele>46</ele>
        <time>2016-07-30T06:08:35.117Z</time>
      </trkpt>
      <trkpt lat="43.14704" lon="5.90242">
        <ele>46</ele>
        <time>2016-07-30T06:08:36.117Z</time>
      </trkpt>
      <trkpt lat="43.14708" lon="5.90239">
        <ele>47</ele>
        <time>2016-07-30T06:08:37.117Z</time>
      </trkpt>
      <trkpt lat="43.14711" lon="5.90237">
        <ele>47</ele>
        <time>2016-07-30T06:08:38.117Z</time>
      </trkpt>
      <trkpt lat="43.14714" lon="5.90234">
        <ele>47</ele>
        <time>2016-07-30T06:08:39.117Z</time>
      </trkpt>
      <trkpt lat="43.14717" lon="5.90232">
        <ele>47</ele>
        <time>2016-07-30T06:08:40.117Z</time>
      </trkpt>
      <trkpt lat="43.14721" lon="5.90231">
        <ele>48</ele>
        <time>2016-07-30T06:08:41.117Z</time>
      </trkpt>
      <trkpt lat="43.14725" lon="5.90231">
        <ele>48</ele>
        <time>2016-07-30T06:08:42.117Z</time>
      </trkpt>
      <trkpt lat="43.14729" lon="5.90231">
        <ele>48</ele>
        <time>2016-07-30T06:08:43.117Z</time>
      </trkpt>
      <trkpt lat="43.14732" lon="5.90231">
        <ele>48</ele>
        <time>2016-07-30T06:08:44.117Z</time>
      </trkpt>
      <trkpt lat="43.14736" lon="5.9023">
        <ele>49</ele>
        <time>2016-07-30T06:08:45.117Z</time>
      </trkpt>
      <trkpt lat="43.14741" lon="5.9023">
        <ele>49</ele>
        <time>2016-07-30T06:08:46.117Z</time>
      </trkpt>
      <trkpt lat="43.14745" lon="5.9023">
        <ele>49</ele>
        <time>2016-07-30T06:08:47.117Z</time>
      </trkpt>
      <trkpt lat="43.14749" lon="5.90231">
        <ele>50</ele>
        <time>2016-07-30T06:08:48.117Z</time>
      </trkpt>
      <trkpt lat="43.14753" lon="5.90231">
        <ele>49</ele>
        <time>2016-07-30T06:08:49.117Z</time>
      </trkpt>
      <trkpt lat="43.14757" lon="5.90232">
        <ele>49</ele>
        <time>2016-07-30T06:08:50.117Z</time>
      </trkpt>
      <trkpt lat="43.14761" lon="5.90233">
        <ele>50</ele>
        <time>2016-07-30T06:08:51.117Z</time>
      </trkpt>
      <trkpt lat="43.14765" lon="5.90234">
        <ele>50</ele>
        <time>2016-07-30T06:08:52.117Z</time>
      </trkpt>
      <trkpt lat="43.14769" lon="5.90234">
        <ele>50</ele>
        <time>2016-07-30T06:08:53.117Z</time>
      </trkpt>
      <trkpt lat="43.14773" lon="5.90235">
        <ele>50</ele>
        <time>2016-07-30T06:08:54.117Z</time>
      </trkpt>
      <trkpt lat="43.14778" lon="5.90236">
        <ele>50</ele>
        <time>2016-07-30T06:08:55.117Z</time>
      </trkpt>
      <trkpt lat="43.14782" lon="5.90237">
        <ele>50</ele>
        <time>2016-07-30T06:08:56.117Z</time>
      </trkpt>
      <trkpt lat="43.14786" lon="5.90238">
        <ele>51</ele>
        <time>2016-07-30T06:08:57.117Z</time>
      </trkpt>
      <trkpt lat="43.1479" lon="5.90239">
        <ele>51</ele>
        <time>2016-07-30T06:08:58.117Z</time>
      </trkpt>
      <trkpt lat="43.14794" lon="5.9024">
        <ele>51</ele>
        <time>2016-07-30T06:08:59.117Z</time>
      </trkpt>
      <trkpt lat="43.14798" lon="5.90241">
        <ele>51</ele>
        <time>2016-07-30T06:09:00.117Z</time>
      </trkpt>
      <trkpt lat="43.14802" lon="5.90242">
        <ele>51</ele>
        <time>2016-07-30T06:09:01.117Z</time>
      </trkpt>
      <trkpt lat="43.14806" lon="5.90243">
        <ele>51</ele>
        <time>2016-07-30T06:09:02.117Z</time>
      </trkpt>
      <trkpt lat="43.1481" lon="5.90244">
        <ele>52</ele>
        <time>2016-07-30T06:09:03.117Z</time>
      </trkpt>
      <trkpt lat="43.14814" lon="5.90245">
        <ele>52</ele>
        <time>2016-07-30T06:09:04.117Z</time>
      </trkpt>
      <trkpt lat="43.14819" lon="5.90246">
        <ele>53</ele>
        <time>2016-07-30T06:09:05.117Z</time>
      </trkpt>
      <trkpt lat="43.14823" lon="5.90248">
        <ele>53</ele>
        <time>2016-07-30T06:09:06.117Z</time>
      </trkpt>
      <trkpt lat="43.14827" lon="5.90249">
        <ele>53</ele>
        <time>2016-07-30T06:09:07.117Z</time>
      </trkpt>
      <trkpt lat="43.14831" lon="5.90249">
        <ele>53</ele>
        <time>2016-07-30T06:09:08.117Z</time>
      </trkpt>
      <trkpt lat="43.14835" lon="5.9025">
        <ele>54</ele>
        <time>2016-07-30T06:09:09.117Z</time>
      </trkpt>
      <trkpt lat="43.1484" lon="5.90251">
        <ele>54</ele>
        <time>2016-07-30T06:09:10.117Z</time>
      </trkpt>
      <trkpt lat="43.14844" lon="5.90252">
        <ele>54</ele>
        <time>2016-07-30T06:09:11.117Z</time>
      </trkpt>
      <trkpt lat="43.14849" lon="5.90253">
        <ele>54</ele>
        <time>2016-07-30T06:09:12.117Z</time>
      </trkpt>
      <trkpt lat="43.14853" lon="5.90253">
        <ele>54</ele>
        <time>2016-07-30T06:09:13.117Z</time>
      </trkpt>
      <trkpt lat="43.14858" lon="5.90254">
        <ele>54</ele>
        <time>2016-07-30T06:09:14.117Z</time>
      </trkpt>
      <trkpt lat="43.14862" lon="5.90254">
        <ele>54</ele>
        <time>2016-07-30T06:09:15.117Z</time>
      </trkpt>
      <trkpt lat="43.14866" lon="5.90255">
        <ele>54</ele>
        <time>2016-07-30T06:09:16.117Z</time>
      </trkpt>
      <trkpt lat="43.14871" lon="5.90256">
        <ele>54</ele>
        <time>2016-07-30T06:09:17.117Z</time>
      </trkpt>
      <trkpt lat="43.14875" lon="5.90257">
        <ele>55</ele>
        <time>2016-07-30T06:09:18.117Z</time>
      </trkpt>
      <trkpt lat="43.14879" lon="5.90258">
        <ele>55</ele>
        <time>2016-07-30T06:09:19.117Z</time>
      </trkpt>
      <trkpt lat="43.14883" lon="5.90259">
        <ele>55</ele>
        <time>2016-07-30T06:09:20.117Z</time>
      </trkpt>
      <trkpt lat="43.14887" lon="5.90259">
        <ele>55</ele>
        <time>2016-07-30T06:09:21.117Z</time>
      </trkpt>
      <trkpt lat="43.14891" lon="5.9026">
        <ele>56</ele>
        <time>2016-07-30T06:09:22.117Z</time>
      </trkpt>
      <trkpt lat="43.14895" lon="5.90261">
        <ele>56</ele>
        <time>2016-07-30T06:09:23.117Z</time>
      </trkpt>
      <trkpt lat="43.149" lon="5.90262">
        <ele>56</ele>
        <time>2016-07-30T06:09:24.117Z</time>
      </trkpt>
      <trkpt lat="43.14904" lon="5.90263">
        <ele>56</ele>
        <time>2016-07-30T06:09:25.117Z</time>
      </trkpt>
      <trkpt lat="43.14908" lon="5.90263">
        <ele>57</ele>
        <time>2016-07-30T06:09:26.117Z</time>
      </trkpt>
      <trkpt lat="43.14912" lon="5.90264">
        <ele>57</ele>
        <time>2016-07-30T06:09:27.117Z</time>
      </trkpt>
      <trkpt lat="43.14916" lon="5.90265">
        <ele>58</ele>
        <time>2016-07-30T06:09:28.117Z</time>
      </trkpt>
      <trkpt lat="43.1492" lon="5.90265">
        <ele>58</ele>
        <time>2016-07-30T06:09:29.117Z</time>
      </trkpt>
      <trkpt lat="43.14924" lon="5.90266">
        <ele>58</ele>
        <time>2016-07-30T06:09:30.117Z</time>
      </trkpt>
      <trkpt lat="43.14927" lon="5.90267">
        <ele>58</ele>
        <time>2016-07-30T06:09:31.117Z</time>
      </trkpt>
      <trkpt lat="43.14931" lon="5.90267">
        <ele>58</ele>
        <time>2016-07-30T06:09:32.117Z</time>
      </trkpt>
      <trkpt lat="43.14935" lon="5.90268">
        <ele>58</ele>
        <time>2016-07-30T06:09:33.117Z</time>
      </trkpt>
      <trkpt lat="43.14938" lon="5.90269">
        <ele>58</ele>
        <time>2016-07-30T06:09:34.117Z</time>
      </trkpt>
      <trkpt lat="43.14942" lon="5.9027">
        <ele>58</ele>
        <time>2016-07-30T06:09:35.117Z</time>
      </trkpt>
      <trkpt lat="43.14946" lon="5.90271">
        <ele>59</ele>
        <time>2016-07-30T06:09:36.117Z</time>
      </trkpt>
      <trkpt lat="43.1495" lon="5.90272">
        <ele>59</ele>
        <time>2016-07-30T06:09:37.117Z</time>
      </trkpt>
      <trkpt lat="43.14953" lon="5.90272">
        <ele>60</ele>
        <time>2016-07-30T06:09:38.117Z</time>
      </trkpt>
      <trkpt lat="43.14957" lon="5.90273">
        <ele>60</ele>
        <time>2016-07-30T06:09:39.117Z</time>
      </trkpt>
      <trkpt lat="43.14961" lon="5.90274">
        <ele>61</ele>
        <time>2016-07-30T06:09:40.117Z</time>
      </trkpt>
      <trkpt lat="43.14965" lon="5.90275">
        <ele>61</ele>
        <time>2016-07-30T06:09:41.117Z</time>
      </trkpt>
      <trkpt lat="43.14969" lon="5.90275">
        <ele>61</ele>
        <time>2016-07-30T06:09:42.117Z</time>
      </trkpt>
      <trkpt lat="43.14972" lon="5.90276">
        <ele>61</ele>
        <time>2016-07-30T06:09:43.117Z</time>
      </trkpt>
      <trkpt lat="43.14976" lon="5.90276">
        <ele>62</ele>
        <time>2016-07-30T06:09:44.117Z</time>
      </trkpt>
      <trkpt lat="43.1498" lon="5.90277">
        <ele>63</ele>
        <time>2016-07-30T06:09:45.117Z</time>
      </trkpt>
      <trkpt lat="43.14984" lon="5.90277">
        <ele>63</ele>
        <time>2016-07-30T06:09:46.117Z</time>
      </trkpt>
      <trkpt lat="43.14987" lon="5.90278">
        <ele>63</ele>
        <time>2016-07-30T06:09:47.117Z</time>
      </trkpt>
      <trkpt lat="43.14991" lon="5.90279">
        <ele>63</ele>
        <time>2016-07-30T06:09:48.117Z</time>
      </trkpt>
      <trkpt lat="43.14994" lon="5.9028">
        <ele>64</ele>
        <time>2016-07-30T06:09:49.117Z</time>
      </trkpt>
      <trkpt lat="43.14998" lon="5.9028">
        <ele>64</ele>
        <time>2016-07-30T06:09:50.117Z</time>
      </trkpt>
      <trkpt lat="43.15003" lon="5.9028">
        <ele>64</ele>
        <time>2016-07-30T06:09:51.117Z</time>
      </trkpt>
      <trkpt lat="43.15007" lon="5.9028">
        <ele>64</ele>
        <time>2016-07-30T06:09:52.117Z</time>
      </trkpt>
      <trkpt lat="43.15011" lon="5.9028">
        <ele>65</ele>
        <time>2016-07-30T06:09:53.117Z</time>
      </trkpt>
      <trkpt lat="43.15014" lon="5.9028">
        <ele>65</ele>
        <time>2016-07-30T06:09:54.117Z</time>
      </trkpt>
      <trkpt lat="43.15018" lon="5.90281">
        <ele>65</ele>
        <time>2016-07-30T06:09:55.117Z</time>
      </trkpt>
      <trkpt lat="43.15022" lon="5.90282">
        <ele>65</ele>
        <time>2016-07-30T06:09:56.117Z</time>
      </trkpt>
      <trkpt lat="43.15026" lon="5.90283">
        <ele>64</ele>
        <time>2016-07-30T06:09:57.117Z</time>
      </trkpt>
      <trkpt lat="43.1503" lon="5.90284">
        <ele>65</ele>
        <time>2016-07-30T06:09:58.117Z</time>
      </trkpt>
      <trkpt lat="43.15033" lon="5.90285">
        <ele>65</ele>
        <time>2016-07-30T06:09:59.117Z</time>
      </trkpt>
      <trkpt lat="43.15037" lon="5.90286">
        <ele>66</ele>
        <time>2016-07-30T06:10:00.117Z</time>
      </trkpt>
      <trkpt lat="43.1504" lon="5.90287">
        <ele>66</ele>
        <time>2016-07-30T06:10:01.117Z</time>
      </trkpt>
      <trkpt lat="43.15044" lon="5.90288">
        <ele>67</ele>
        <time>2016-07-30T06:10:02.117Z</time>
      </trkpt>
      <trkpt lat="43.15047" lon="5.90289">
        <ele>67</ele>
        <time>2016-07-30T06:10:03.117Z</time>
      </trkpt>
      <trkpt lat="43.1505" lon="5.9029">
        <ele>68</ele>
        <time>2016-07-30T06:10:04.117Z</time>
      </trkpt>
      <trkpt lat="43.15054" lon="5.90291">
        <ele>69</ele>
        <time>2016-07-30T06:10:05.117Z</time>
      </trkpt>
      <trkpt lat="43.15057" lon="5.90293">
        <ele>70</ele>
        <time>2016-07-30T06:10:06.117Z</time>
      </trkpt>
      <trkpt lat="43.1506" lon="5.90294">
        <ele>70</ele>
        <time>2016-07-30T06:10:07.117Z</time>
      </trkpt>
      <trkpt lat="43.15064" lon="5.90295">
        <ele>70</ele>
        <time>2016-07-30T06:10:08.117Z</time>
      </trkpt>
      <trkpt lat="43.15067" lon="5.90296">
        <ele>71</ele>
        <time>2016-07-30T06:10:09.117Z</time>
      </trkpt>
      <trkpt lat="43.15071" lon="5.90298">
        <ele>71</ele>
        <time>2016-07-30T06:10:10.117Z</time>
      </trkpt>
      <trkpt lat="43.15074" lon="5.90299">
        <ele>71</ele>
        <time>2016-07-30T06:10:11.117Z</time>
      </trkpt>
      <trkpt lat="43.15077" lon="5.903">
        <ele>72</ele>
        <time>2016-07-30T06:10:12.117Z</time>
      </trkpt>
      <trkpt lat="43.1508" lon="5.90301">
        <ele>72</ele>
        <time>2016-07-30T06:10:13.117Z</time>
      </trkpt>
      <trkpt lat="43.15084" lon="5.90301">
        <ele>73</ele>
        <time>2016-07-30T06:10:14.117Z</time>
      </trkpt>
      <trkpt lat="43.15087" lon="5.90302">
        <ele>73</ele>
        <time>2016-07-30T06:10:15.117Z</time>
      </trkpt>
      <trkpt lat="43.1509" lon="5.90303">
        <ele>74</ele>
        <time>2016-07-30T06:10:16.117Z</time>
      </trkpt>
      <trkpt lat="43.15093" lon="5.90304">
        <ele>75</ele>
        <time>2016-07-30T06:10:17.117Z</time>
      </trkpt>
      <trkpt lat="43.15097" lon="5.90305">
        <ele>75</ele>
        <time>2016-07-30T06:10:18.117Z</time>
      </trkpt>
      <trkpt lat="43.151" lon="5.90306">
        <ele>76</ele>
        <time>2016-07-30T06:10:19.117Z</time>
      </trkpt>
      <trkpt lat="43.15103" lon="5.90307">
        <ele>76</ele>
        <time>2016-07-30T06:10:20.117Z</time>
      </trkpt>
      <trkpt lat="43.15106" lon="5.90307">
        <ele>76</ele>
        <time>2016-07-30T06:10:21.117Z</time>
      </trkpt>
      <trkpt lat="43.1511" lon="5.90308">
        <ele>76</ele>
        <time>2016-07-30T06:10:22.117Z</time>
      </trkpt>
      <trkpt lat="43.15113" lon="5.90309">
        <ele>77</ele>
        <time>2016-07-30T06:10:23.117Z</time>
      </trkpt>
      <trkpt lat="43.15116" lon="5.9031">
        <ele>77</ele>
        <time>2016-07-30T06:10:24.117Z</time>
      </trkpt>
      <trkpt lat="43.15119" lon="5.90311">
        <ele>77</ele>
        <time>2016-07-30T06:10:25.117Z</time>
      </trkpt>
      <trkpt lat="43.15122" lon="5.90312">
        <ele>77</ele>
        <time>2016-07-30T06:10:26.117Z</time>
      </trkpt>
      <trkpt lat="43.15125" lon="5.90312">
        <ele>77</ele>
        <time>2016-07-30T06:10:27.117Z</time>
      </trkpt>
      <trkpt lat="43.15128" lon="5.90313">
        <ele>78</ele>
        <time>2016-07-30T06:10:28.117Z</time>
      </trkpt>
      <trkpt lat="43.15132" lon="5.90314">
        <ele>79</ele>
        <time>2016-07-30T06:10:29.117Z</time>
      </trkpt>
      <trkpt lat="43.15135" lon="5.90315">
        <ele>79</ele>
        <time>2016-07-30T06:10:30.117Z</time>
      </trkpt>
      <trkpt lat="43.15138" lon="5.90316">
        <ele>79</ele>
        <time>2016-07-30T06:10:31.117Z</time>
      </trkpt>
      <trkpt lat="43.15142" lon="5.90317">
        <ele>80</ele>
        <time>2016-07-30T06:10:32.117Z</time>
      </trkpt>
      <trkpt lat="43.15145" lon="5.90318">
        <ele>80</ele>
        <time>2016-07-30T06:10:33.117Z</time>
      </trkpt>
      <trkpt lat="43.15148" lon="5.90319">
        <ele>81</ele>
        <time>2016-07-30T06:10:34.117Z</time>
      </trkpt>
      <trkpt lat="43.15152" lon="5.9032">
        <ele>81</ele>
        <time>2016-07-30T06:10:35.117Z</time>
      </trkpt>
      <trkpt lat="43.15155" lon="5.90321">
        <ele>81</ele>
        <time>2016-07-30T06:10:36.117Z</time>
      </trkpt>
      <trkpt lat="43.15159" lon="5.90322">
        <ele>82</ele>
        <time>2016-07-30T06:10:37.117Z</time>
      </trkpt>
      <trkpt lat="43.15163" lon="5.90323">
        <ele>82</ele>
        <time>2016-07-30T06:10:38.117Z</time>
      </trkpt>
      <trkpt lat="43.15166" lon="5.90324">
        <ele>82</ele>
        <time>2016-07-30T06:10:39.117Z</time>
      </trkpt>
      <trkpt lat="43.1517" lon="5.90326">
        <ele>82</ele>
        <time>2016-07-30T06:10:40.117Z</time>
      </trkpt>
      <trkpt lat="43.15173" lon="5.90327">
        <ele>82</ele>
        <time>2016-07-30T06:10:41.117Z</time>
      </trkpt>
      <trkpt lat="43.15176" lon="5.90329">
        <ele>82</ele>
        <time>2016-07-30T06:10:42.117Z</time>
      </trkpt>
      <trkpt lat="43.15179" lon="5.90331">
        <ele>82</ele>
        <time>2016-07-30T06:10:43.117Z</time>
      </trkpt>
      <trkpt lat="43.15183" lon="5.90333">
        <ele>83</ele>
        <time>2016-07-30T06:10:44.117Z</time>
      </trkpt>
      <trkpt lat="43.15186" lon="5.90336">
        <ele>83</ele>
        <time>2016-07-30T06:10:45.117Z</time>
      </trkpt>
      <trkpt lat="43.1519" lon="5.90338">
        <ele>84</ele>
        <time>2016-07-30T06:10:46.117Z</time>
      </trkpt>
      <trkpt lat="43.15195" lon="5.9034">
        <ele>84</ele>
        <time>2016-07-30T06:10:47.117Z</time>
      </trkpt>
      <trkpt lat="43.15199" lon="5.90342">
        <ele>85</ele>
        <time>2016-07-30T06:10:48.117Z</time>
      </trkpt>
      <trkpt lat="43.15203" lon="5.90343">
        <ele>85</ele>
        <time>2016-07-30T06:10:49.117Z</time>
      </trkpt>
      <trkpt lat="43.15207" lon="5.90345">
        <ele>85</ele>
        <time>2016-07-30T06:10:50.117Z</time>
      </trkpt>
      <trkpt lat="43.15211" lon="5.90347">
        <ele>85</ele>
        <time>2016-07-30T06:10:51.117Z</time>
      </trkpt>
      <trkpt lat="43.15215" lon="5.90349">
        <ele>85</ele>
        <time>2016-07-30T06:10:52.117Z</time>
      </trkpt>
      <trkpt lat="43.15219" lon="5.90351">
        <ele>85</ele>
        <time>2016-07-30T06:10:53.117Z</time>
      </trkpt>
      <trkpt lat="43.15223" lon="5.90353">
        <ele>86</ele>
        <time>2016-07-30T06:10:54.117Z</time>
      </trkpt>
      <trkpt lat="43.15227" lon="5.90355">
        <ele>86</ele>
        <time>2016-07-30T06:10:55.117Z</time>
      </trkpt>
      <trkpt lat="43.15231" lon="5.90357">
        <ele>86</ele>
        <time>2016-07-30T06:10:56.117Z</time>
      </trkpt>
      <trkpt lat="43.15236" lon="5.90359">
        <ele>87</ele>
        <time>2016-07-30T06:10:57.117Z</time>
      </trkpt>
      <trkpt lat="43.1524" lon="5.90361">
        <ele>87</ele>
        <time>2016-07-30T06:10:58.117Z</time>
      </trkpt>
      <trkpt lat="43.15244" lon="5.90363">
        <ele>87</ele>
        <time>2016-07-30T06:10:59.117Z</time>
      </trkpt>
      <trkpt lat="43.15248" lon="5.90365">
        <ele>87</ele>
        <time>2016-07-30T06:11:00.117Z</time>
      </trkpt>
      <trkpt lat="43.15252" lon="5.90368">
        <ele>88</ele>
        <time>2016-07-30T06:11:01.117Z</time>
      </trkpt>
      <trkpt lat="43.15256" lon="5.90371">
        <ele>88</ele>
        <time>2016-07-30T06:11:02.117Z</time>
      </trkpt>
      <trkpt lat="43.1526" lon="5.90374">
        <ele>88</ele>
        <time>2016-07-30T06:11:03.117Z</time>
      </trkpt>
      <trkpt lat="43.15264" lon="5.90377">
        <ele>88</ele>
        <time>2016-07-30T06:11:04.117Z</time>
      </trkpt>
      <trkpt lat="43.15267" lon="5.90381">
        <ele>88</ele>
        <time>2016-07-30T06:11:05.117Z</time>
      </trkpt>
      <trkpt lat="43.15271" lon="5.90384">
        <ele>89</ele>
        <time>2016-07-30T06:11:06.117Z</time>
      </trkpt>
      <trkpt lat="43.15275" lon="5.90387">
        <ele>89</ele>
        <time>2016-07-30T06:11:07.117Z</time>
      </trkpt>
      <trkpt lat="43.15279" lon="5.9039">
        <ele>89</ele>
        <time>2016-07-30T06:11:08.117Z</time>
      </trkpt>
      <trkpt lat="43.15283" lon="5.90392">
        <ele>90</ele>
        <time>2016-07-30T06:11:09.117Z</time>
      </trkpt>
      <trkpt lat="43.15287" lon="5.90395">
        <ele>90</ele>
        <time>2016-07-30T06:11:10.117Z</time>
      </trkpt>
      <trkpt lat="43.15291" lon="5.90397">
        <ele>90</ele>
        <time>2016-07-30T06:11:11.117Z</time>
      </trkpt>
      <trkpt lat="43.15295" lon="5.90398">
        <ele>90</ele>
        <time>2016-07-30T06:11:12.117Z</time>
      </trkpt>
      <trkpt lat="43.15299" lon="5.90399">
        <ele>90</ele>
        <time>2016-07-30T06:11:13.117Z</time>
      </trkpt>
      <trkpt lat="43.15303" lon="5.904">
        <ele>91</ele>
        <time>2016-07-30T06:11:14.117Z</time>
      </trkpt>
      <trkpt lat="43.15307" lon="5.90401">
        <ele>91</ele>
        <time>2016-07-30T06:11:15.117Z</time>
      </trkpt>
      <trkpt lat="43.15311" lon="5.90402">
        <ele>91</ele>
        <time>2016-07-30T06:11:16.117Z</time>
      </trkpt>
      <trkpt lat="43.15315" lon="5.90402">
        <ele>91</ele>
        <time>2016-07-30T06:11:17.117Z</time>
      </trkpt>
      <trkpt lat="43.15319" lon="5.90403">
        <ele>92</ele>
        <time>2016-07-30T06:11:18.117Z</time>
      </trkpt>
      <trkpt lat="43.15323" lon="5.90404">
        <ele>92</ele>
        <time>2016-07-30T06:11:19.117Z</time>
      </trkpt>
      <trkpt lat="43.15327" lon="5.90404">
        <ele>92</ele>
        <time>2016-07-30T06:11:20.117Z</time>
      </trkpt>
      <trkpt lat="43.15331" lon="5.90405">
        <ele>92</ele>
        <time>2016-07-30T06:11:21.117Z</time>
      </trkpt>
      <trkpt lat="43.15334" lon="5.90405">
        <ele>92</ele>
        <time>2016-07-30T06:11:22.117Z</time>
      </trkpt>
      <trkpt lat="43.15338" lon="5.90406">
        <ele>93</ele>
        <time>2016-07-30T06:11:23.117Z</time>
      </trkpt>
      <trkpt lat="43.15341" lon="5.90407">
        <ele>94</ele>
        <time>2016-07-30T06:11:24.117Z</time>
      </trkpt>
      <trkpt lat="43.15344" lon="5.90408">
        <ele>94</ele>
        <time>2016-07-30T06:11:25.117Z</time>
      </trkpt>
      <trkpt lat="43.15347" lon="5.90409">
        <ele>95</ele>
        <time>2016-07-30T06:11:26.117Z</time>
      </trkpt>
      <trkpt lat="43.1535" lon="5.9041">
        <ele>95</ele>
        <time>2016-07-30T06:11:27.117Z</time>
      </trkpt>
      <trkpt lat="43.15353" lon="5.90412">
        <ele>95</ele>
        <time>2016-07-30T06:11:28.117Z</time>
      </trkpt>
      <trkpt lat="43.15356" lon="5.90414">
        <ele>95</ele>
        <time>2016-07-30T06:11:29.117Z</time>
      </trkpt>
      <trkpt lat="43.15358" lon="5.90417">
        <ele>96</ele>
        <time>2016-07-30T06:11:30.117Z</time>
      </trkpt>
      <trkpt lat="43.15361" lon="5.9042">
        <ele>96</ele>
        <time>2016-07-30T06:11:31.117Z</time>
      </trkpt>
      <trkpt lat="43.15363" lon="5.90423">
        <ele>96</ele>
        <time>2016-07-30T06:11:32.117Z</time>
      </trkpt>
      <trkpt lat="43.15365" lon="5.90427">
        <ele>96</ele>
        <time>2016-07-30T06:11:33.117Z</time>
      </trkpt>
      <trkpt lat="43.15367" lon="5.90431">
        <ele>96</ele>
        <time>2016-07-30T06:11:34.117Z</time>
      </trkpt>
      <trkpt lat="43.15368" lon="5.90436">
        <ele>96</ele>
        <time>2016-07-30T06:11:35.117Z</time>
      </trkpt>
      <trkpt lat="43.15369" lon="5.9044">
        <ele>96</ele>
        <time>2016-07-30T06:11:36.117Z</time>
      </trkpt>
      <trkpt lat="43.1537" lon="5.90445">
        <ele>97</ele>
        <time>2016-07-30T06:11:37.117Z</time>
      </trkpt>
      <trkpt lat="43.15371" lon="5.90449">
        <ele>97</ele>
        <time>2016-07-30T06:11:38.117Z</time>
      </trkpt>
      <trkpt lat="43.15373" lon="5.90454">
        <ele>97</ele>
        <time>2016-07-30T06:11:39.117Z</time>
      </trkpt>
      <trkpt lat="43.15374" lon="5.90459">
        <ele>97</ele>
        <time>2016-07-30T06:11:40.117Z</time>
      </trkpt>
      <trkpt lat="43.15375" lon="5.90463">
        <ele>97</ele>
        <time>2016-07-30T06:11:41.117Z</time>
      </trkpt>
      <trkpt lat="43.15376" lon="5.90468">
        <ele>97</ele>
        <time>2016-07-30T06:11:42.117Z</time>
      </trkpt>
      <trkpt lat="43.15377" lon="5.90473">
        <ele>97</ele>
        <time>2016-07-30T06:11:43.117Z</time>
      </trkpt>
      <trkpt lat="43.15377" lon="5.90478">
        <ele>98</ele>
        <time>2016-07-30T06:11:44.117Z</time>
      </trkpt>
      <trkpt lat="43.15378" lon="5.90483">
        <ele>98</ele>
        <time>2016-07-30T06:11:45.117Z</time>
      </trkpt>
      <trkpt lat="43.15378" lon="5.90488">
        <ele>98</ele>
        <time>2016-07-30T06:11:46.117Z</time>
      </trkpt>
      <trkpt lat="43.15378" lon="5.90492">
        <ele>98</ele>
        <time>2016-07-30T06:11:47.117Z</time>
      </trkpt>
      <trkpt lat="43.15379" lon="5.90497">
        <ele>98</ele>
        <time>2016-07-30T06:11:48.117Z</time>
      </trkpt>
      <trkpt lat="43.15379" lon="5.90502">
        <ele>98</ele>
        <time>2016-07-30T06:11:49.117Z</time>
      </trkpt>
      <trkpt lat="43.1538" lon="5.90506">
        <ele>98</ele>
        <time>2016-07-30T06:11:50.117Z</time>
      </trkpt>
      <trkpt lat="43.1538" lon="5.90511">
        <ele>98</ele>
        <time>2016-07-30T06:11:51.117Z</time>
      </trkpt>
      <trkpt lat="43.15381" lon="5.90515">
        <ele>99</ele>
        <time>2016-07-30T06:11:52.117Z</time>
      </trkpt>
      <trkpt lat="43.15381" lon="5.9052">
        <ele>99</ele>
        <time>2016-07-30T06:11:53.117Z</time>
      </trkpt>
      <trkpt lat="43.15381" lon="5.90525">
        <ele>99</ele>
        <time>2016-07-30T06:11:54.117Z</time>
      </trkpt>
      <trkpt lat="43.1538" lon="5.9053">
        <ele>99</ele>
        <time>2016-07-30T06:11:55.117Z</time>
      </trkpt>
      <trkpt lat="43.15379" lon="5.90535">
        <ele>100</ele>
        <time>2016-07-30T06:11:56.117Z</time>
      </trkpt>
      <trkpt lat="43.15378" lon="5.90541">
        <ele>100</ele>
        <time>2016-07-30T06:11:57.117Z</time>
      </trkpt>
      <trkpt lat="43.15377" lon="5.90546">
        <ele>99</ele>
        <time>2016-07-30T06:11:58.117Z</time>
      </trkpt>
      <trkpt lat="43.15377" lon="5.90551">
        <ele>99</ele>
        <time>2016-07-30T06:11:59.117Z</time>
      </trkpt>
      <trkpt lat="43.15376" lon="5.90556">
        <ele>99</ele>
        <time>2016-07-30T06:12:00.117Z</time>
      </trkpt>
      <trkpt lat="43.15376" lon="5.90561">
        <ele>99</ele>
        <time>2016-07-30T06:12:01.117Z</time>
      </trkpt>
      <trkpt lat="43.15376" lon="5.90565">
        <ele>99</ele>
        <time>2016-07-30T06:12:02.117Z</time>
      </trkpt>
      <trkpt lat="43.15375" lon="5.9057">
        <ele>98</ele>
        <time>2016-07-30T06:12:03.117Z</time>
      </trkpt>
      <trkpt lat="43.15375" lon="5.90575">
        <ele>97</ele>
        <time>2016-07-30T06:12:04.117Z</time>
      </trkpt>
      <trkpt lat="43.15375" lon="5.90579">
        <ele>97</ele>
        <time>2016-07-30T06:12:05.117Z</time>
      </trkpt>
      <trkpt lat="43.15374" lon="5.90584">
        <ele>96</ele>
        <time>2016-07-30T06:12:06.117Z</time>
      </trkpt>
      <trkpt lat="43.15374" lon="5.90588">
        <ele>95</ele>
        <time>2016-07-30T06:12:07.117Z</time>
      </trkpt>
      <trkpt lat="43.15373" lon="5.90592">
        <ele>93</ele>
        <time>2016-07-30T06:12:08.117Z</time>
      </trkpt>
      <trkpt lat="43.15373" lon="5.90595">
        <ele>92</ele>
        <time>2016-07-30T06:12:09.117Z</time>
      </trkpt>
      <trkpt lat="43.15373" lon="5.90599">
        <ele>91</ele>
        <time>2016-07-30T06:12:10.117Z</time>
      </trkpt>
      <trkpt lat="43.15374" lon="5.90602">
        <ele>90</ele>
        <time>2016-07-30T06:12:11.117Z</time>
      </trkpt>
      <trkpt lat="43.15373" lon="5.90606">
        <ele>89</ele>
        <time>2016-07-30T06:12:12.117Z</time>
      </trkpt>
      <trkpt lat="43.15373" lon="5.9061">
        <ele>89</ele>
        <time>2016-07-30T06:12:13.117Z</time>
      </trkpt>
      <trkpt lat="43.15373" lon="5.90614">
        <ele>88</ele>
        <time>2016-07-30T06:12:14.117Z</time>
      </trkpt>
      <trkpt lat="43.15373" lon="5.90618">
        <ele>88</ele>
        <time>2016-07-30T06:12:15.117Z</time>
      </trkpt>
      <trkpt lat="43.15372" lon="5.90622">
        <ele>87</ele>
        <time>2016-07-30T06:12:16.117Z</time>
      </trkpt>
      <trkpt lat="43.15371" lon="5.90626">
        <ele>87</ele>
        <time>2016-07-30T06:12:17.117Z</time>
      </trkpt>
      <trkpt lat="43.15371" lon="5.9063">
        <ele>87</ele>
        <time>2016-07-30T06:12:18.117Z</time>
      </trkpt>
      <trkpt lat="43.1537" lon="5.90635">
        <ele>87</ele>
        <time>2016-07-30T06:12:19.117Z</time>
      </trkpt>
      <trkpt lat="43.15369" lon="5.9064">
        <ele>87</ele>
        <time>2016-07-30T06:12:20.117Z</time>
      </trkpt>
      <trkpt lat="43.15369" lon="5.90645">
        <ele>87</ele>
        <time>2016-07-30T06:12:21.117Z</time>
      </trkpt>
      <trkpt lat="43.15369" lon="5.90649">
        <ele>86</ele>
        <time>2016-07-30T06:12:22.117Z</time>
      </trkpt>
      <trkpt lat="43.15368" lon="5.90653">
        <ele>86</ele>
        <time>2016-07-30T06:12:23.117Z</time>
      </trkpt>
      <trkpt lat="43.15368" lon="5.90658">
        <ele>86</ele>
        <time>2016-07-30T06:12:24.117Z</time>
      </trkpt>
      <trkpt lat="43.15368" lon="5.90663">
        <ele>86</ele>
        <time>2016-07-30T06:12:25.117Z</time>
      </trkpt>
      <trkpt lat="43.15368" lon="5.90668">
        <ele>86</ele>
        <time>2016-07-30T06:12:26.117Z</time>
      </trkpt>
      <trkpt lat="43.15368" lon="5.90673">
        <ele>85</ele>
        <time>2016-07-30T06:12:27.117Z</time>
      </trkpt>
      <trkpt lat="43.15368" lon="5.90678">
        <ele>86</ele>
        <time>2016-07-30T06:12:28.117Z</time>
      </trkpt>
      <trkpt lat="43.15368" lon="5.90683">
        <ele>88</ele>
        <time>2016-07-30T06:12:29.117Z</time>
      </trkpt>
      <trkpt lat="43.15368" lon="5.90689">
        <ele>91</ele>
        <time>2016-07-30T06:12:30.117Z</time>
      </trkpt>
      <trkpt lat="43.15368" lon="5.90696">
        <ele>91</ele>
        <time>2016-07-30T06:12:31.117Z</time>
      </trkpt>
      <trkpt lat="43.15369" lon="5.90702">
        <ele>91</ele>
        <time>2016-07-30T06:12:32.117Z</time>
      </trkpt>
      <trkpt lat="43.1537" lon="5.90706">
        <ele>92</ele>
        <time>2016-07-30T06:12:33.117Z</time>
      </trkpt>
      <trkpt lat="43.15372" lon="5.90711">
        <ele>92</ele>
        <time>2016-07-30T06:12:34.117Z</time>
      </trkpt>
      <trkpt lat="43.15373" lon="5.90715">
        <ele>94</ele>
        <time>2016-07-30T06:12:35.117Z</time>
      </trkpt>
      <trkpt lat="43.15375" lon="5.90718">
        <ele>94</ele>
        <time>2016-07-30T06:12:36.117Z</time>
      </trkpt>
      <trkpt lat="43.15378" lon="5.90721">
        <ele>96</ele>
        <time>2016-07-30T06:12:37.117Z</time>
      </trkpt>
      <trkpt lat="43.15382" lon="5.90722">
        <ele>98</ele>
        <time>2016-07-30T06:12:38.117Z</time>
      </trkpt>
      <trkpt lat="43.15387" lon="5.90721">
        <ele>99</ele>
        <time>2016-07-30T06:12:39.117Z</time>
      </trkpt>
      <trkpt lat="43.15392" lon="5.90721">
        <ele>99</ele>
        <time>2016-07-30T06:12:40.117Z</time>
      </trkpt>
      <trkpt lat="43.15396" lon="5.9072">
        <ele>99</ele>
        <time>2016-07-30T06:12:41.117Z</time>
      </trkpt>
      <trkpt lat="43.15399" lon="5.90718">
        <ele>99</ele>
        <time>2016-07-30T06:12:42.117Z</time>
      </trkpt>
      <trkpt lat="43.15402" lon="5.90715">
        <ele>99</ele>
        <time>2016-07-30T06:12:43.117Z</time>
      </trkpt>
      <trkpt lat="43.15404" lon="5.90712">
        <ele>98</ele>
        <time>2016-07-30T06:12:44.117Z</time>
      </trkpt>
      <trkpt lat="43.15406" lon="5.90708">
        <ele>98</ele>
        <time>2016-07-30T06:12:45.117Z</time>
      </trkpt>
      <trkpt lat="43.15409" lon="5.90705">
        <ele>98</ele>
        <time>2016-07-30T06:12:46.117Z</time>
      </trkpt>
      <trkpt lat="43.15412" lon="5.90702">
        <ele>98</ele>
        <time>2016-07-30T06:12:47.117Z</time>
      </trkpt>
      <trkpt lat="43.15414" lon="5.90698">
        <ele>98</ele>
        <time>2016-07-30T06:12:48.117Z</time>
      </trkpt>
      <trkpt lat="43.15417" lon="5.90695">
        <ele>100</ele>
        <time>2016-07-30T06:12:49.117Z</time>
      </trkpt>
      <trkpt lat="43.1542" lon="5.90691">
        <ele>101</ele>
        <time>2016-07-30T06:12:50.117Z</time>
      </trkpt>
      <trkpt lat="43.15422" lon="5.90687">
        <ele>102</ele>
        <time>2016-07-30T06:12:51.117Z</time>
      </trkpt>
      <trkpt lat="43.15425" lon="5.90683">
        <ele>102</ele>
        <time>2016-07-30T06:12:52.117Z</time>
      </trkpt>
      <trkpt lat="43.15427" lon="5.9068">
        <ele>103</ele>
        <time>2016-07-30T06:12:53.117Z</time>
      </trkpt>
      <trkpt lat="43.1543" lon="5.90676">
        <ele>103</ele>
        <time>2016-07-30T06:12:54.117Z</time>
      </trkpt>
      <trkpt lat="43.15433" lon="5.90673">
        <ele>104</ele>
        <time>2016-07-30T06:12:55.117Z</time>
      </trkpt>
      <trkpt lat="43.15436" lon="5.90671">
        <ele>105</ele>
        <time>2016-07-30T06:12:56.117Z</time>
      </trkpt>
      <trkpt lat="43.15439" lon="5.90669">
        <ele>106</ele>
        <time>2016-07-30T06:12:57.117Z</time>
      </trkpt>
      <trkpt lat="43.15442" lon="5.90667">
        <ele>107</ele>
        <time>2016-07-30T06:12:58.117Z</time>
      </trkpt>
      <trkpt lat="43.15445" lon="5.90666">
        <ele>107</ele>
        <time>2016-07-30T06:12:59.117Z</time>
      </trkpt>
      <trkpt lat="43.15449" lon="5.90665">
        <ele>107</ele>
        <time>2016-07-30T06:13:00.117Z</time>
      </trkpt>
      <trkpt lat="43.15452" lon="5.90665">
        <ele>107</ele>
        <time>2016-07-30T06:13:01.117Z</time>
      </trkpt>
      <trkpt lat="43.15456" lon="5.90665">
        <ele>109</ele>
        <time>2016-07-30T06:13:02.117Z</time>
      </trkpt>
      <trkpt lat="43.15459" lon="5.90665">
        <ele>110</ele>
        <time>2016-07-30T06:13:03.117Z</time>
      </trkpt>
      <trkpt lat="43.15462" lon="5.90666">
        <ele>110</ele>
        <time>2016-07-30T06:13:04.117Z</time>
      </trkpt>
      <trkpt lat="43.15465" lon="5.90666">
        <ele>110</ele>
        <time>2016-07-30T06:13:05.117Z</time>
      </trkpt>
      <trkpt lat="43.15469" lon="5.90668">
        <ele>110</ele>
        <time>2016-07-30T06:13:06.117Z</time>
      </trkpt>
      <trkpt lat="43.15472" lon="5.90669">
        <ele>111</ele>
        <time>2016-07-30T06:13:07.117Z</time>
      </trkpt>
      <trkpt lat="43.15475" lon="5.90671">
        <ele>111</ele>
        <time>2016-07-30T06:13:08.117Z</time>
      </trkpt>
      <trkpt lat="43.15478" lon="5.90673">
        <ele>111</ele>
        <time>2016-07-30T06:13:09.117Z</time>
      </trkpt>
      <trkpt lat="43.15481" lon="5.90676">
        <ele>112</ele>
        <time>2016-07-30T06:13:10.117Z</time>
      </trkpt>
      <trkpt lat="43.15484" lon="5.90678">
        <ele>112</ele>
        <time>2016-07-30T06:13:11.117Z</time>
      </trkpt>
      <trkpt lat="43.15487" lon="5.9068">
        <ele>112</ele>
        <time>2016-07-30T06:13:12.117Z</time>
      </trkpt>
      <trkpt lat="43.1549" lon="5.90682">
        <ele>112</ele>
        <time>2016-07-30T06:13:13.117Z</time>
      </trkpt>
      <trkpt lat="43.15493" lon="5.90684">
        <ele>112</ele>
        <time>2016-07-30T06:13:14.117Z</time>
      </trkpt>
      <trkpt lat="43.15496" lon="5.90686">
        <ele>114</ele>
        <time>2016-07-30T06:13:15.117Z</time>
      </trkpt>
      <trkpt lat="43.15499" lon="5.90689">
        <ele>115</ele>
        <time>2016-07-30T06:13:16.117Z</time>
      </trkpt>
      <trkpt lat="43.15502" lon="5.90692">
        <ele>115</ele>
        <time>2016-07-30T06:13:17.117Z</time>
      </trkpt>
      <trkpt lat="43.15505" lon="5.90694">
        <ele>115</ele>
        <time>2016-07-30T06:13:18.117Z</time>
      </trkpt>
      <trkpt lat="43.15507" lon="5.90696">
        <ele>116</ele>
        <time>2016-07-30T06:13:19.117Z</time>
      </trkpt>
      <trkpt lat="43.1551" lon="5.90699">
        <ele>117</ele>
        <time>2016-07-30T06:13:20.117Z</time>
      </trkpt>
      <trkpt lat="43.15513" lon="5.90701">
        <ele>117</ele>
        <time>2016-07-30T06:13:21.117Z</time>
      </trkpt>
      <trkpt lat="43.15515" lon="5.90704">
        <ele>117</ele>
        <time>2016-07-30T06:13:22.117Z</time>
      </trkpt>
      <trkpt lat="43.15518" lon="5.90706">
        <ele>117</ele>
        <time>2016-07-30T06:13:23.117Z</time>
      </trkpt>
      <trkpt lat="43.15521" lon="5.90709">
        <ele>117</ele>
        <time>2016-07-30T06:13:24.117Z</time>
      </trkpt>
      <trkpt lat="43.15523" lon="5.90712">
        <ele>116</ele>
        <time>2016-07-30T06:13:25.117Z</time>
      </trkpt>
      <trkpt lat="43.15526" lon="5.90714">
        <ele>116</ele>
        <time>2016-07-30T06:13:26.117Z</time>
      </trkpt>
      <trkpt lat="43.15529" lon="5.90717">
        <ele>116</ele>
        <time>2016-07-30T06:13:27.117Z</time>
      </trkpt>
      <trkpt lat="43.15532" lon="5.90719">
        <ele>116</ele>
        <time>2016-07-30T06:13:28.117Z</time>
      </trkpt>
      <trkpt lat="43.15535" lon="5.90722">
        <ele>116</ele>
        <time>2016-07-30T06:13:29.117Z</time>
      </trkpt>
      <trkpt lat="43.15538" lon="5.90725">
        <ele>117</ele>
        <time>2016-07-30T06:13:30.117Z</time>
      </trkpt>
      <trkpt lat="43.15541" lon="5.90728">
        <ele>117</ele>
        <time>2016-07-30T06:13:31.117Z</time>
      </trkpt>
      <trkpt lat="43.15543" lon="5.90731">
        <ele>117</ele>
        <time>2016-07-30T06:13:32.117Z</time>
      </trkpt>
      <trkpt lat="43.15546" lon="5.90734">
        <ele>117</ele>
        <time>2016-07-30T06:13:33.117Z</time>
      </trkpt>
      <trkpt lat="43.15548" lon="5.90736">
        <ele>117</ele>
        <time>2016-07-30T06:13:34.117Z</time>
      </trkpt>
      <trkpt lat="43.15551" lon="5.90739">
        <ele>118</ele>
        <time>2016-07-30T06:13:35.117Z</time>
      </trkpt>
      <trkpt lat="43.15554" lon="5.90741">
        <ele>118</ele>
        <time>2016-07-30T06:13:36.117Z</time>
      </trkpt>
      <trkpt lat="43.15557" lon="5.90743">
        <ele>118</ele>
        <time>2016-07-30T06:13:37.117Z</time>
      </trkpt>
      <trkpt lat="43.1556" lon="5.90745">
        <ele>117</ele>
        <time>2016-07-30T06:13:38.117Z</time>
      </trkpt>
      <trkpt lat="43.15563" lon="5.90747">
        <ele>117</ele>
        <time>2016-07-30T06:13:39.117Z</time>
      </trkpt>
      <trkpt lat="43.15566" lon="5.90749">
        <ele>118</ele>
        <time>2016-07-30T06:13:40.117Z</time>
      </trkpt>
      <trkpt lat="43.15569" lon="5.90751">
        <ele>118</ele>
        <time>2016-07-30T06:13:41.117Z</time>
      </trkpt>
      <trkpt lat="43.15573" lon="5.90752">
        <ele>120</ele>
        <time>2016-07-30T06:13:42.117Z</time>
      </trkpt>
      <trkpt lat="43.15576" lon="5.90754">
        <ele>120</ele>
        <time>2016-07-30T06:13:43.117Z</time>
      </trkpt>
      <trkpt lat="43.1558" lon="5.90756">
        <ele>120</ele>
        <time>2016-07-30T06:13:44.117Z</time>
      </trkpt>
      <trkpt lat="43.15584" lon="5.90757">
        <ele>121</ele>
        <time>2016-07-30T06:13:45.117Z</time>
      </trkpt>
      <trkpt lat="43.15587" lon="5.90758">
        <ele>121</ele>
        <time>2016-07-30T06:13:46.117Z</time>
      </trkpt>
      <trkpt lat="43.15591" lon="5.90759">
        <ele>122</ele>
        <time>2016-07-30T06:13:47.117Z</time>
      </trkpt>
      <trkpt lat="43.15594" lon="5.9076">
        <ele>122</ele>
        <time>2016-07-30T06:13:48.117Z</time>
      </trkpt>
      <trkpt lat="43.15598" lon="5.90761">
        <ele>122</ele>
        <time>2016-07-30T06:13:49.117Z</time>
      </trkpt>
      <trkpt lat="43.15601" lon="5.90762">
        <ele>123</ele>
        <time>2016-07-30T06:13:50.117Z</time>
      </trkpt>
      <trkpt lat="43.15604" lon="5.90762">
        <ele>124</ele>
        <time>2016-07-30T06:13:51.117Z</time>
      </trkpt>
      <trkpt lat="43.15607" lon="5.90762">
        <ele>124</ele>
        <time>2016-07-30T06:13:52.117Z</time>
      </trkpt>
      <trkpt lat="43.1561" lon="5.90762">
        <ele>124</ele>
        <time>2016-07-30T06:13:53.117Z</time>
      </trkpt>
      <trkpt lat="43.15614" lon="5.90762">
        <ele>125</ele>
        <time>2016-07-30T06:13:54.117Z</time>
      </trkpt>
      <trkpt lat="43.15617" lon="5.90761">
        <ele>126</ele>
        <time>2016-07-30T06:13:55.117Z</time>
      </trkpt>
      <trkpt lat="43.15621" lon="5.90761">
        <ele>127</ele>
        <time>2016-07-30T06:13:56.117Z</time>
      </trkpt>
      <trkpt lat="43.15625" lon="5.90761">
        <ele>127</ele>
        <time>2016-07-30T06:13:57.117Z</time>
      </trkpt>
      <trkpt lat="43.15628" lon="5.90761">
        <ele>127</ele>
        <time>2016-07-30T06:13:58.117Z</time>
      </trkpt>
      <trkpt lat="43.15632" lon="5.9076">
        <ele>127</ele>
        <time>2016-07-30T06:13:59.117Z</time>
      </trkpt>
      <trkpt lat="43.15635" lon="5.90759">
        <ele>126</ele>
        <time>2016-07-30T06:14:00.117Z</time>
      </trkpt>
      <trkpt lat="43.15639" lon="5.90758">
        <ele>127</ele>
        <time>2016-07-30T06:14:01.117Z</time>
      </trkpt>
      <trkpt lat="43.15643" lon="5.90757">
        <ele>127</ele>
        <time>2016-07-30T06:14:02.117Z</time>
      </trkpt>
      <trkpt lat="43.15647" lon="5.90755">
        <ele>128</ele>
        <time>2016-07-30T06:14:03.117Z</time>
      </trkpt>
      <trkpt lat="43.15651" lon="5.90753">
        <ele>129</ele>
        <time>2016-07-30T06:14:04.117Z</time>
      </trkpt>
      <trkpt lat="43.15654" lon="5.90751">
        <ele>130</ele>
        <time>2016-07-30T06:14:05.117Z</time>
      </trkpt>
      <trkpt lat="43.15658" lon="5.90749">
        <ele>130</ele>
        <time>2016-07-30T06:14:06.117Z</time>
      </trkpt>
      <trkpt lat="43.15661" lon="5.90747">
        <ele>131</ele>
        <time>2016-07-30T06:14:07.117Z</time>
      </trkpt>
      <trkpt lat="43.15664" lon="5.90745">
        <ele>131</ele>
        <time>2016-07-30T06:14:08.117Z</time>
      </trkpt>
      <trkpt lat="43.15667" lon="5.90742">
        <ele>132</ele>
        <time>2016-07-30T06:14:09.117Z</time>
      </trkpt>
      <trkpt lat="43.1567" lon="5.90739">
        <ele>133</ele>
        <time>2016-07-30T06:14:10.117Z</time>
      </trkpt>
      <trkpt lat="43.15673" lon="5.90737">
        <ele>134</ele>
        <time>2016-07-30T06:14:11.117Z</time>
      </trkpt>
      <trkpt lat="43.15675" lon="5.90733">
        <ele>134</ele>
        <time>2016-07-30T06:14:12.117Z</time>
      </trkpt>
      <trkpt lat="43.15678" lon="5.9073">
        <ele>135</ele>
        <time>2016-07-30T06:14:13.117Z</time>
      </trkpt>
      <trkpt lat="43.15681" lon="5.90727">
        <ele>135</ele>
        <time>2016-07-30T06:14:14.117Z</time>
      </trkpt>
      <trkpt lat="43.15683" lon="5.90723">
        <ele>135</ele>
        <time>2016-07-30T06:14:15.117Z</time>
      </trkpt>
      <trkpt lat="43.15686" lon="5.90719">
        <ele>136</ele>
        <time>2016-07-30T06:14:16.117Z</time>
      </trkpt>
      <trkpt lat="43.15688" lon="5.90716">
        <ele>136</ele>
        <time>2016-07-30T06:14:17.117Z</time>
      </trkpt>
      <trkpt lat="43.15691" lon="5.90712">
        <ele>137</ele>
        <time>2016-07-30T06:14:18.117Z</time>
      </trkpt>
      <trkpt lat="43.15693" lon="5.90708">
        <ele>138</ele>
        <time>2016-07-30T06:14:19.117Z</time>
      </trkpt>
      <trkpt lat="43.15695" lon="5.90704">
        <ele>138</ele>
        <time>2016-07-30T06:14:20.117Z</time>
      </trkpt>
      <trkpt lat="43.15696" lon="5.907">
        <ele>138</ele>
        <time>2016-07-30T06:14:21.117Z</time>
      </trkpt>
      <trkpt lat="43.15698" lon="5.90695">
        <ele>139</ele>
        <time>2016-07-30T06:14:22.117Z</time>
      </trkpt>
      <trkpt lat="43.157" lon="5.90691">
        <ele>139</ele>
        <time>2016-07-30T06:14:23.117Z</time>
      </trkpt>
      <trkpt lat="43.15701" lon="5.90687">
        <ele>139</ele>
        <time>2016-07-30T06:14:24.117Z</time>
      </trkpt>
      <trkpt lat="43.15703" lon="5.90683">
        <ele>140</ele>
        <time>2016-07-30T06:14:25.117Z</time>
      </trkpt>
      <trkpt lat="43.15704" lon="5.90679">
        <ele>140</ele>
        <time>2016-07-30T06:14:26.117Z</time>
      </trkpt>
      <trkpt lat="43.15706" lon="5.90674">
        <ele>141</ele>
        <time>2016-07-30T06:14:27.117Z</time>
      </trkpt>
      <trkpt lat="43.15708" lon="5.9067">
        <ele>141</ele>
        <time>2016-07-30T06:14:28.117Z</time>
      </trkpt>
      <trkpt lat="43.15711" lon="5.90666">
        <ele>140</ele>
        <time>2016-07-30T06:14:29.117Z</time>
      </trkpt>
      <trkpt lat="43.15714" lon="5.90662">
        <ele>139</ele>
        <time>2016-07-30T06:14:30.117Z</time>
      </trkpt>
      <trkpt lat="43.15717" lon="5.90659">
        <ele>139</ele>
        <time>2016-07-30T06:14:31.117Z</time>
      </trkpt>
      <trkpt lat="43.15721" lon="5.90657">
        <ele>139</ele>
        <time>2016-07-30T06:14:32.117Z</time>
      </trkpt>
      <trkpt lat="43.15724" lon="5.90655">
        <ele>139</ele>
        <time>2016-07-30T06:14:33.117Z</time>
      </trkpt>
      <trkpt lat="43.15727" lon="5.90654">
        <ele>139</ele>
        <time>2016-07-30T06:14:34.117Z</time>
      </trkpt>
      <trkpt lat="43.15731" lon="5.90652">
        <ele>140</ele>
        <time>2016-07-30T06:14:35.117Z</time>
      </trkpt>
      <trkpt lat="43.15734" lon="5.90652">
        <ele>141</ele>
        <time>2016-07-30T06:14:36.117Z</time>
      </trkpt>
      <trkpt lat="43.15737" lon="5.90652">
        <ele>141</ele>
        <time>2016-07-30T06:14:37.117Z</time>
      </trkpt>
      <trkpt lat="43.15741" lon="5.90653">
        <ele>141</ele>
        <time>2016-07-30T06:14:38.117Z</time>
      </trkpt>
      <trkpt lat="43.15744" lon="5.90654">
        <ele>141</ele>
        <time>2016-07-30T06:14:39.117Z</time>
      </trkpt>
      <trkpt lat="43.15748" lon="5.90655">
        <ele>142</ele>
        <time>2016-07-30T06:14:40.117Z</time>
      </trkpt>
      <trkpt lat="43.15751" lon="5.90656">
        <ele>142</ele>
        <time>2016-07-30T06:14:41.117Z</time>
      </trkpt>
      <trkpt lat="43.15754" lon="5.90658">
        <ele>142</ele>
        <time>2016-07-30T06:14:42.117Z</time>
      </trkpt>
      <trkpt lat="43.15758" lon="5.9066">
        <ele>142</ele>
        <time>2016-07-30T06:14:43.117Z</time>
      </trkpt>
      <trkpt lat="43.15761" lon="5.90661">
        <ele>143</ele>
        <time>2016-07-30T06:14:44.117Z</time>
      </trkpt>
      <trkpt lat="43.15765" lon="5.90663">
        <ele>143</ele>
        <time>2016-07-30T06:14:45.117Z</time>
      </trkpt>
      <trkpt lat="43.15768" lon="5.90665">
        <ele>143</ele>
        <time>2016-07-30T06:14:46.117Z</time>
      </trkpt>
      <trkpt lat="43.15771" lon="5.90667">
        <ele>144</ele>
        <time>2016-07-30T06:14:47.117Z</time>
      </trkpt>
      <trkpt lat="43.15775" lon="5.90669">
        <ele>144</ele>
        <time>2016-07-30T06:14:48.117Z</time>
      </trkpt>
      <trkpt lat="43.15778" lon="5.9067">
        <ele>144</ele>
        <time>2016-07-30T06:14:49.117Z</time>
      </trkpt>
      <trkpt lat="43.15782" lon="5.90672">
        <ele>145</ele>
        <time>2016-07-30T06:14:50.117Z</time>
      </trkpt>
      <trkpt lat="43.15785" lon="5.90673">
        <ele>145</ele>
        <time>2016-07-30T06:14:51.117Z</time>
      </trkpt>
      <trkpt lat="43.15789" lon="5.90674">
        <ele>145</ele>
        <time>2016-07-30T06:14:52.117Z</time>
      </trkpt>
      <trkpt lat="43.15792" lon="5.90674">
        <ele>146</ele>
        <time>2016-07-30T06:14:53.117Z</time>
      </trkpt>
      <trkpt lat="43.15796" lon="5.90674">
        <ele>146</ele>
        <time>2016-07-30T06:14:54.117Z</time>
      </trkpt>
      <trkpt lat="43.15799" lon="5.90673">
        <ele>145</ele>
        <time>2016-07-30T06:14:55.117Z</time>
      </trkpt>
      <trkpt lat="43.15803" lon="5.90672">
        <ele>144</ele>
        <time>2016-07-30T06:14:56.117Z</time>
      </trkpt>
      <trkpt lat="43.15806" lon="5.9067">
        <ele>144</ele>
        <time>2016-07-30T06:14:57.117Z</time>
      </trkpt>
      <trkpt lat="43.1581" lon="5.90669">
        <ele>144</ele>
        <time>2016-07-30T06:14:58.117Z</time>
      </trkpt>
      <trkpt lat="43.15813" lon="5.90667">
        <ele>144</ele>
        <time>2016-07-30T06:14:59.117Z</time>
      </trkpt>
      <trkpt lat="43.15816" lon="5.90665">
        <ele>144</ele>
        <time>2016-07-30T06:15:00.117Z</time>
      </trkpt>
      <trkpt lat="43.1582" lon="5.90663">
        <ele>144</ele>
        <time>2016-07-30T06:15:01.117Z</time>
      </trkpt>
      <trkpt lat="43.15823" lon="5.9066">
        <ele>144</ele>
        <time>2016-07-30T06:15:02.117Z</time>
      </trkpt>
      <trkpt lat="43.15826" lon="5.90658">
        <ele>144</ele>
        <time>2016-07-30T06:15:03.117Z</time>
      </trkpt>
      <trkpt lat="43.15829" lon="5.90655">
        <ele>144</ele>
        <time>2016-07-30T06:15:04.117Z</time>
      </trkpt>
      <trkpt lat="43.15832" lon="5.90652">
        <ele>144</ele>
        <time>2016-07-30T06:15:05.117Z</time>
      </trkpt>
      <trkpt lat="43.15835" lon="5.90649">
        <ele>144</ele>
        <time>2016-07-30T06:15:06.117Z</time>
      </trkpt>
      <trkpt lat="43.15838" lon="5.90646">
        <ele>144</ele>
        <time>2016-07-30T06:15:07.117Z</time>
      </trkpt>
      <trkpt lat="43.15841" lon="5.90643">
        <ele>144</ele>
        <time>2016-07-30T06:15:08.117Z</time>
      </trkpt>
      <trkpt lat="43.15843" lon="5.9064">
        <ele>144</ele>
        <time>2016-07-30T06:15:09.117Z</time>
      </trkpt>
      <trkpt lat="43.15846" lon="5.90636">
        <ele>144</ele>
        <time>2016-07-30T06:15:10.117Z</time>
      </trkpt>
      <trkpt lat="43.15849" lon="5.90633">
        <ele>145</ele>
        <time>2016-07-30T06:15:11.117Z</time>
      </trkpt>
      <trkpt lat="43.15851" lon="5.9063">
        <ele>145</ele>
        <time>2016-07-30T06:15:12.117Z</time>
      </trkpt>
      <trkpt lat="43.15854" lon="5.90626">
        <ele>145</ele>
        <time>2016-07-30T06:15:13.117Z</time>
      </trkpt>
      <trkpt lat="43.15857" lon="5.90623">
        <ele>145</ele>
        <time>2016-07-30T06:15:14.117Z</time>
      </trkpt>
      <trkpt lat="43.15859" lon="5.90619">
        <ele>145</ele>
        <time>2016-07-30T06:15:15.117Z</time>
      </trkpt>
      <trkpt lat="43.15862" lon="5.90616">
        <ele>145</ele>
        <time>2016-07-30T06:15:16.117Z</time>
      </trkpt>
      <trkpt lat="43.15864" lon="5.90613">
        <ele>146</ele>
        <time>2016-07-30T06:15:17.117Z</time>
      </trkpt>
      <trkpt lat="43.15867" lon="5.90609">
        <ele>146</ele>
        <time>2016-07-30T06:15:18.117Z</time>
      </trkpt>
      <trkpt lat="43.15869" lon="5.90606">
        <ele>146</ele>
        <time>2016-07-30T06:15:19.117Z</time>
      </trkpt>
      <trkpt lat="43.15872" lon="5.90602">
        <ele>146</ele>
        <time>2016-07-30T06:15:20.117Z</time>
      </trkpt>
      <trkpt lat="43.15874" lon="5.90599">
        <ele>147</ele>
        <time>2016-07-30T06:15:21.117Z</time>
      </trkpt>
      <trkpt lat="43.15876" lon="5.90595">
        <ele>148</ele>
        <time>2016-07-30T06:15:22.117Z</time>
      </trkpt>
      <trkpt lat="43.15878" lon="5.90591">
        <ele>148</ele>
        <time>2016-07-30T06:15:23.117Z</time>
      </trkpt>
      <trkpt lat="43.1588" lon="5.90587">
        <ele>148</ele>
        <time>2016-07-30T06:15:24.117Z</time>
      </trkpt>
      <trkpt lat="43.15882" lon="5.90584">
        <ele>149</ele>
        <time>2016-07-30T06:15:25.117Z</time>
      </trkpt>
      <trkpt lat="43.15884" lon="5.9058">
        <ele>149</ele>
        <time>2016-07-30T06:15:26.117Z</time>
      </trkpt>
      <trkpt lat="43.15886" lon="5.90575">
        <ele>149</ele>
        <time>2016-07-30T06:15:27.117Z</time>
      </trkpt>
      <trkpt lat="43.15888" lon="5.90571">
        <ele>149</ele>
        <time>2016-07-30T06:15:28.117Z</time>
      </trkpt>
      <trkpt lat="43.1589" lon="5.90567">
        <ele>150</ele>
        <time>2016-07-30T06:15:29.117Z</time>
      </trkpt>
      <trkpt lat="43.15892" lon="5.90563">
        <ele>150</ele>
        <time>2016-07-30T06:15:30.117Z</time>
      </trkpt>
      <trkpt lat="43.15894" lon="5.90559">
        <ele>149</ele>
        <time>2016-07-30T06:15:31.117Z</time>
      </trkpt>
      <trkpt lat="43.15896" lon="5.90555">
        <ele>150</ele>
        <time>2016-07-30T06:15:32.117Z</time>
      </trkpt>
      <trkpt lat="43.15898" lon="5.90551">
        <ele>150</ele>
        <time>2016-07-30T06:15:33.117Z</time>
      </trkpt>
      <trkpt lat="43.159" lon="5.90547">
        <ele>150</ele>
        <time>2016-07-30T06:15:34.117Z</time>
      </trkpt>
      <trkpt lat="43.15902" lon="5.90543">
        <ele>150</ele>
        <time>2016-07-30T06:15:35.117Z</time>
      </trkpt>
      <trkpt lat="43.15904" lon="5.9054">
        <ele>151</ele>
        <time>2016-07-30T06:15:36.117Z</time>
      </trkpt>
      <trkpt lat="43.15906" lon="5.90536">
        <ele>152</ele>
        <time>2016-07-30T06:15:37.117Z</time>
      </trkpt>
      <trkpt lat="43.15909" lon="5.90532">
        <ele>153</ele>
        <time>2016-07-30T06:15:38.117Z</time>
      </trkpt>
      <trkpt lat="43.15911" lon="5.90528">
        <ele>153</ele>
        <time>2016-07-30T06:15:39.117Z</time>
      </trkpt>
      <trkpt lat="43.15913" lon="5.90524">
        <ele>154</ele>
        <time>2016-07-30T06:15:40.117Z</time>
      </trkpt>
      <trkpt lat="43.15916" lon="5.9052">
        <ele>154</ele>
        <time>2016-07-30T06:15:41.117Z</time>
      </trkpt>
      <trkpt lat="43.15918" lon="5.90516">
        <ele>154</ele>
        <time>2016-07-30T06:15:42.117Z</time>
      </trkpt>
      <trkpt lat="43.1592" lon="5.90512">
        <ele>154</ele>
        <time>2016-07-30T06:15:43.117Z</time>
      </trkpt>
      <trkpt lat="43.15922" lon="5.90508">
        <ele>155</ele>
        <time>2016-07-30T06:15:44.117Z</time>
      </trkpt>
      <trkpt lat="43.15924" lon="5.90504">
        <ele>155</ele>
        <time>2016-07-30T06:15:45.117Z</time>
      </trkpt>
      <trkpt lat="43.15927" lon="5.905">
        <ele>156</ele>
        <time>2016-07-30T06:15:46.117Z</time>
      </trkpt>
      <trkpt lat="43.15929" lon="5.90496">
        <ele>156</ele>
        <time>2016-07-30T06:15:47.117Z</time>
      </trkpt>
      <trkpt lat="43.15931" lon="5.90492">
        <ele>157</ele>
        <time>2016-07-30T06:15:48.117Z</time>
      </trkpt>
      <trkpt lat="43.15933" lon="5.90488">
        <ele>157</ele>
        <time>2016-07-30T06:15:49.117Z</time>
      </trkpt>
      <trkpt lat="43.15935" lon="5.90483">
        <ele>157</ele>
        <time>2016-07-30T06:15:50.117Z</time>
      </trkpt>
      <trkpt lat="43.15937" lon="5.90479">
        <ele>157</ele>
        <time>2016-07-30T06:15:51.117Z</time>
      </trkpt>
      <trkpt lat="43.15939" lon="5.90475">
        <ele>157</ele>
        <time>2016-07-30T06:15:52.117Z</time>
      </trkpt>
      <trkpt lat="43.15941" lon="5.9047">
        <ele>158</ele>
        <time>2016-07-30T06:15:53.117Z</time>
      </trkpt>
      <trkpt lat="43.15943" lon="5.90466">
        <ele>158</ele>
        <time>2016-07-30T06:15:54.117Z</time>
      </trkpt>
      <trkpt lat="43.15945" lon="5.90462">
        <ele>158</ele>
        <time>2016-07-30T06:15:55.117Z</time>
      </trkpt>
      <trkpt lat="43.15947" lon="5.90457">
        <ele>159</ele>
        <time>2016-07-30T06:15:56.117Z</time>
      </trkpt>
      <trkpt lat="43.15949" lon="5.90453">
        <ele>159</ele>
        <time>2016-07-30T06:15:57.117Z</time>
      </trkpt>
      <trkpt lat="43.1595" lon="5.90448">
        <ele>159</ele>
        <time>2016-07-30T06:15:58.117Z</time>
      </trkpt>
      <trkpt lat="43.15952" lon="5.90444">
        <ele>160</ele>
        <time>2016-07-30T06:15:59.117Z</time>
      </trkpt>
      <trkpt lat="43.15953" lon="5.90439">
        <ele>160</ele>
        <time>2016-07-30T06:16:00.117Z</time>
      </trkpt>
      <trkpt lat="43.15954" lon="5.90433">
        <ele>161</ele>
        <time>2016-07-30T06:16:01.117Z</time>
      </trkpt>
      <trkpt lat="43.15956" lon="5.90429">
        <ele>161</ele>
        <time>2016-07-30T06:16:02.117Z</time>
      </trkpt>
      <trkpt lat="43.15957" lon="5.90424">
        <ele>162</ele>
        <time>2016-07-30T06:16:03.117Z</time>
      </trkpt>
      <trkpt lat="43.15958" lon="5.90419">
        <ele>162</ele>
        <time>2016-07-30T06:16:04.117Z</time>
      </trkpt>
      <trkpt lat="43.15959" lon="5.90414">
        <ele>162</ele>
        <time>2016-07-30T06:16:05.117Z</time>
      </trkpt>
      <trkpt lat="43.15961" lon="5.90409">
        <ele>162</ele>
        <time>2016-07-30T06:16:06.117Z</time>
      </trkpt>
      <trkpt lat="43.15963" lon="5.90405">
        <ele>163</ele>
        <time>2016-07-30T06:16:07.117Z</time>
      </trkpt>
      <trkpt lat="43.15964" lon="5.904">
        <ele>163</ele>
        <time>2016-07-30T06:16:08.117Z</time>
      </trkpt>
      <trkpt lat="43.15966" lon="5.90395">
        <ele>163</ele>
        <time>2016-07-30T06:16:09.117Z</time>
      </trkpt>
      <trkpt lat="43.15968" lon="5.90391">
        <ele>164</ele>
        <time>2016-07-30T06:16:10.117Z</time>
      </trkpt>
      <trkpt lat="43.1597" lon="5.90386">
        <ele>164</ele>
        <time>2016-07-30T06:16:11.117Z</time>
      </trkpt>
      <trkpt lat="43.15972" lon="5.90382">
        <ele>165</ele>
        <time>2016-07-30T06:16:12.117Z</time>
      </trkpt>
      <trkpt lat="43.15974" lon="5.90378">
        <ele>165</ele>
        <time>2016-07-30T06:16:13.117Z</time>
      </trkpt>
      <trkpt lat="43.15976" lon="5.90374">
        <ele>165</ele>
        <time>2016-07-30T06:16:14.117Z</time>
      </trkpt>
      <trkpt lat="43.15978" lon="5.9037">
        <ele>166</ele>
        <time>2016-07-30T06:16:15.117Z</time>
      </trkpt>
      <trkpt lat="43.1598" lon="5.90366">
        <ele>166</ele>
        <time>2016-07-30T06:16:16.117Z</time>
      </trkpt>
      <trkpt lat="43.15983" lon="5.90362">
        <ele>166</ele>
        <time>2016-07-30T06:16:17.117Z</time>
      </trkpt>
      <trkpt lat="43.15984" lon="5.90357">
        <ele>167</ele>
        <time>2016-07-30T06:16:18.117Z</time>
      </trkpt>
      <trkpt lat="43.15986" lon="5.90353">
        <ele>167</ele>
        <time>2016-07-30T06:16:19.117Z</time>
      </trkpt>
      <trkpt lat="43.15988" lon="5.90349">
        <ele>167</ele>
        <time>2016-07-30T06:16:20.117Z</time>
      </trkpt>
      <trkpt lat="43.1599" lon="5.90344">
        <ele>167</ele>
        <time>2016-07-30T06:16:21.117Z</time>
      </trkpt>
      <trkpt lat="43.15992" lon="5.9034">
        <ele>168</ele>
        <time>2016-07-30T06:16:22.117Z</time>
      </trkpt>
      <trkpt lat="43.15994" lon="5.90335">
        <ele>168</ele>
        <time>2016-07-30T06:16:23.117Z</time>
      </trkpt>
      <trkpt lat="43.15995" lon="5.90331">
        <ele>168</ele>
        <time>2016-07-30T06:16:24.117Z</time>
      </trkpt>
      <trkpt lat="43.15997" lon="5.90327">
        <ele>168</ele>
        <time>2016-07-30T06:16:25.117Z</time>
      </trkpt>
      <trkpt lat="43.15998" lon="5.90322">
        <ele>169</ele>
        <time>2016-07-30T06:16:26.117Z</time>
      </trkpt>
      <trkpt lat="43.16" lon="5.90318">
        <ele>169</ele>
        <time>2016-07-30T06:16:27.117Z</time>
      </trkpt>
      <trkpt lat="43.16002" lon="5.90313">
        <ele>169</ele>
        <time>2016-07-30T06:16:28.117Z</time>
      </trkpt>
      <trkpt lat="43.16003" lon="5.90308">
        <ele>170</ele>
        <time>2016-07-30T06:16:29.117Z</time>
      </trkpt>
      <trkpt lat="43.16005" lon="5.90304">
        <ele>170</ele>
        <time>2016-07-30T06:16:30.117Z</time>
      </trkpt>
      <trkpt lat="43.16006" lon="5.90299">
        <ele>170</ele>
        <time>2016-07-30T06:16:31.117Z</time>
      </trkpt>
      <trkpt lat="43.16008" lon="5.90295">
        <ele>170</ele>
        <time>2016-07-30T06:16:32.117Z</time>
      </trkpt>
      <trkpt lat="43.16009" lon="5.90291">
        <ele>170</ele>
        <time>2016-07-30T06:16:33.117Z</time>
      </trkpt>
      <trkpt lat="43.1601" lon="5.90286">
        <ele>171</ele>
        <time>2016-07-30T06:16:34.117Z</time>
      </trkpt>
      <trkpt lat="43.16011" lon="5.90281">
        <ele>171</ele>
        <time>2016-07-30T06:16:35.117Z</time>
      </trkpt>
      <trkpt lat="43.16012" lon="5.90277">
        <ele>171</ele>
        <time>2016-07-30T06:16:36.117Z</time>
      </trkpt>
      <trkpt lat="43.16013" lon="5.90272">
        <ele>171</ele>
        <time>2016-07-30T06:16:37.117Z</time>
      </trkpt>
      <trkpt lat="43.16014" lon="5.90267">
        <ele>172</ele>
        <time>2016-07-30T06:16:38.117Z</time>
      </trkpt>
      <trkpt lat="43.16016" lon="5.90262">
        <ele>172</ele>
        <time>2016-07-30T06:16:39.117Z</time>
      </trkpt>
      <trkpt lat="43.16017" lon="5.90257">
        <ele>173</ele>
        <time>2016-07-30T06:16:40.117Z</time>
      </trkpt>
      <trkpt lat="43.16019" lon="5.90253">
        <ele>173</ele>
        <time>2016-07-30T06:16:41.117Z</time>
      </trkpt>
      <trkpt lat="43.16021" lon="5.90249">
        <ele>173</ele>
        <time>2016-07-30T06:16:42.117Z</time>
      </trkpt>
      <trkpt lat="43.16024" lon="5.90245">
        <ele>174</ele>
        <time>2016-07-30T06:16:43.117Z</time>
      </trkpt>
      <trkpt lat="43.16027" lon="5.90242">
        <ele>174</ele>
        <time>2016-07-30T06:16:44.117Z</time>
      </trkpt>
      <trkpt lat="43.1603" lon="5.90239">
        <ele>174</ele>
        <time>2016-07-30T06:16:45.117Z</time>
      </trkpt>
      <trkpt lat="43.16032" lon="5.90236">
        <ele>174</ele>
        <time>2016-07-30T06:16:46.117Z</time>
      </trkpt>
      <trkpt lat="43.16035" lon="5.90233">
        <ele>174</ele>
        <time>2016-07-30T06:16:47.117Z</time>
      </trkpt>
      <trkpt lat="43.16037" lon="5.9023">
        <ele>174</ele>
        <time>2016-07-30T06:16:48.117Z</time>
      </trkpt>
      <trkpt lat="43.1604" lon="5.90226">
        <ele>174</ele>
        <time>2016-07-30T06:16:49.117Z</time>
      </trkpt>
      <trkpt lat="43.16042" lon="5.90222">
        <ele>174</ele>
        <time>2016-07-30T06:16:50.117Z</time>
      </trkpt>
      <trkpt lat="43.16044" lon="5.90218">
        <ele>175</ele>
        <time>2016-07-30T06:16:51.117Z</time>
      </trkpt>
      <trkpt lat="43.16045" lon="5.90214">
        <ele>175</ele>
        <time>2016-07-30T06:16:52.117Z</time>
      </trkpt>
      <trkpt lat="43.16046" lon="5.90209">
        <ele>175</ele>
        <time>2016-07-30T06:16:53.117Z</time>
      </trkpt>
      <trkpt lat="43.16047" lon="5.90205">
        <ele>175</ele>
        <time>2016-07-30T06:16:54.117Z</time>
      </trkpt>
      <trkpt lat="43.16049" lon="5.90201">
        <ele>176</ele>
        <time>2016-07-30T06:16:55.117Z</time>
      </trkpt>
      <trkpt lat="43.16051" lon="5.90197">
        <ele>176</ele>
        <time>2016-07-30T06:16:56.117Z</time>
      </trkpt>
      <trkpt lat="43.16054" lon="5.90194">
        <ele>175</ele>
        <time>2016-07-30T06:16:57.117Z</time>
      </trkpt>
      <trkpt lat="43.16058" lon="5.90192">
        <ele>175</ele>
        <time>2016-07-30T06:16:58.117Z</time>
      </trkpt>
      <trkpt lat="43.16062" lon="5.9019">
        <ele>176</ele>
        <time>2016-07-30T06:16:59.117Z</time>
      </trkpt>
      <trkpt lat="43.16066" lon="5.90191">
        <ele>179</ele>
        <time>2016-07-30T06:17:00.117Z</time>
      </trkpt>
      <trkpt lat="43.16069" lon="5.90193">
        <ele>180</ele>
        <time>2016-07-30T06:17:01.117Z</time>
      </trkpt>
      <trkpt lat="43.16073" lon="5.90195">
        <ele>182</ele>
        <time>2016-07-30T06:17:02.117Z</time>
      </trkpt>
      <trkpt lat="43.16076" lon="5.90197">
        <ele>182</ele>
        <time>2016-07-30T06:17:03.117Z</time>
      </trkpt>
      <trkpt lat="43.16079" lon="5.90199">
        <ele>183</ele>
        <time>2016-07-30T06:17:04.117Z</time>
      </trkpt>
      <trkpt lat="43.16082" lon="5.90202">
        <ele>183</ele>
        <time>2016-07-30T06:17:05.117Z</time>
      </trkpt>
      <trkpt lat="43.16085" lon="5.90205">
        <ele>183</ele>
        <time>2016-07-30T06:17:06.117Z</time>
      </trkpt>
      <trkpt lat="43.16087" lon="5.90208">
        <ele>183</ele>
        <time>2016-07-30T06:17:07.117Z</time>
      </trkpt>
      <trkpt lat="43.1609" lon="5.90212">
        <ele>183</ele>
        <time>2016-07-30T06:17:08.117Z</time>
      </trkpt>
      <trkpt lat="43.16092" lon="5.90215">
        <ele>183</ele>
        <time>2016-07-30T06:17:09.117Z</time>
      </trkpt>
      <trkpt lat="43.16094" lon="5.90219">
        <ele>183</ele>
        <time>2016-07-30T06:17:10.117Z</time>
      </trkpt>
      <trkpt lat="43.16097" lon="5.90223">
        <ele>184</ele>
        <time>2016-07-30T06:17:11.117Z</time>
      </trkpt>
      <trkpt lat="43.16099" lon="5.90226">
        <ele>184</ele>
        <time>2016-07-30T06:17:12.117Z</time>
      </trkpt>
      <trkpt lat="43.16102" lon="5.90229">
        <ele>184</ele>
        <time>2016-07-30T06:17:13.117Z</time>
      </trkpt>
      <trkpt lat="43.16105" lon="5.90232">
        <ele>184</ele>
        <time>2016-07-30T06:17:14.117Z</time>
      </trkpt>
      <trkpt lat="43.16108" lon="5.90234">
        <ele>185</ele>
        <time>2016-07-30T06:17:15.117Z</time>
      </trkpt>
      <trkpt lat="43.16111" lon="5.90236">
        <ele>185</ele>
        <time>2016-07-30T06:17:16.117Z</time>
      </trkpt>
      <trkpt lat="43.16114" lon="5.90238">
        <ele>185</ele>
        <time>2016-07-30T06:17:17.117Z</time>
      </trkpt>
      <trkpt lat="43.16117" lon="5.90238">
        <ele>185</ele>
        <time>2016-07-30T06:17:18.117Z</time>
      </trkpt>
      <trkpt lat="43.16121" lon="5.90238">
        <ele>185</ele>
        <time>2016-07-30T06:17:19.117Z</time>
      </trkpt>
      <trkpt lat="43.16124" lon="5.90237">
        <ele>185</ele>
        <time>2016-07-30T06:17:20.117Z</time>
      </trkpt>
      <trkpt lat="43.16128" lon="5.90236">
        <ele>186</ele>
        <time>2016-07-30T06:17:21.117Z</time>
      </trkpt>
      <trkpt lat="43.16131" lon="5.90234">
        <ele>186</ele>
        <time>2016-07-30T06:17:22.117Z</time>
      </trkpt>
      <trkpt lat="43.16134" lon="5.90233">
        <ele>186</ele>
        <time>2016-07-30T06:17:23.117Z</time>
      </trkpt>
      <trkpt lat="43.16137" lon="5.90231">
        <ele>187</ele>
        <time>2016-07-30T06:17:24.117Z</time>
      </trkpt>
      <trkpt lat="43.1614" lon="5.90229">
        <ele>187</ele>
        <time>2016-07-30T06:17:25.117Z</time>
      </trkpt>
      <trkpt lat="43.16143" lon="5.90227">
        <ele>187</ele>
        <time>2016-07-30T06:17:26.117Z</time>
      </trkpt>
      <trkpt lat="43.16146" lon="5.90225">
        <ele>188</ele>
        <time>2016-07-30T06:17:27.117Z</time>
      </trkpt>
      <trkpt lat="43.16148" lon="5.90223">
        <ele>188</ele>
        <time>2016-07-30T06:17:28.117Z</time>
      </trkpt>
      <trkpt lat="43.16151" lon="5.9022">
        <ele>188</ele>
        <time>2016-07-30T06:17:29.117Z</time>
      </trkpt>
      <trkpt lat="43.16153" lon="5.90218">
        <ele>189</ele>
        <time>2016-07-30T06:17:30.117Z</time>
      </trkpt>
      <trkpt lat="43.16156" lon="5.90215">
        <ele>189</ele>
        <time>2016-07-30T06:17:31.117Z</time>
      </trkpt>
      <trkpt lat="43.16159" lon="5.90213">
        <ele>189</ele>
        <time>2016-07-30T06:17:32.117Z</time>
      </trkpt>
      <trkpt lat="43.16161" lon="5.9021">
        <ele>189</ele>
        <time>2016-07-30T06:17:33.117Z</time>
      </trkpt>
      <trkpt lat="43.16164" lon="5.90208">
        <ele>190</ele>
        <time>2016-07-30T06:17:34.117Z</time>
      </trkpt>
      <trkpt lat="43.16167" lon="5.90206">
        <ele>190</ele>
        <time>2016-07-30T06:17:35.117Z</time>
      </trkpt>
      <trkpt lat="43.1617" lon="5.90204">
        <ele>190</ele>
        <time>2016-07-30T06:17:36.117Z</time>
      </trkpt>
      <trkpt lat="43.16173" lon="5.90202">
        <ele>190</ele>
        <time>2016-07-30T06:17:37.117Z</time>
      </trkpt>
      <trkpt lat="43.16176" lon="5.902">
        <ele>190</ele>
        <time>2016-07-30T06:17:38.117Z</time>
      </trkpt>
      <trkpt lat="43.16179" lon="5.90198">
        <ele>191</ele>
        <time>2016-07-30T06:17:39.117Z</time>
      </trkpt>
      <trkpt lat="43.16182" lon="5.90197">
        <ele>191</ele>
        <time>2016-07-30T06:17:40.117Z</time>
      </trkpt>
      <trkpt lat="43.16186" lon="5.90196">
        <ele>191</ele>
        <time>2016-07-30T06:17:41.117Z</time>
      </trkpt>
      <trkpt lat="43.16189" lon="5.90195">
        <ele>191</ele>
        <time>2016-07-30T06:17:42.117Z</time>
      </trkpt>
      <trkpt lat="43.16193" lon="5.90196">
        <ele>190</ele>
        <time>2016-07-30T06:17:43.117Z</time>
      </trkpt>
      <trkpt lat="43.16197" lon="5.90197">
        <ele>190</ele>
        <time>2016-07-30T06:17:44.117Z</time>
      </trkpt>
      <trkpt lat="43.162" lon="5.90199">
        <ele>191</ele>
        <time>2016-07-30T06:17:45.117Z</time>
      </trkpt>
      <trkpt lat="43.16203" lon="5.90202">
        <ele>192</ele>
        <time>2016-07-30T06:17:46.117Z</time>
      </trkpt>
      <trkpt lat="43.16206" lon="5.90204">
        <ele>193</ele>
        <time>2016-07-30T06:17:47.117Z</time>
      </trkpt>
      <trkpt lat="43.16209" lon="5.90206">
        <ele>194</ele>
        <time>2016-07-30T06:17:48.117Z</time>
      </trkpt>
      <trkpt lat="43.16211" lon="5.90208">
        <ele>194</ele>
        <time>2016-07-30T06:17:49.117Z</time>
      </trkpt>
      <trkpt lat="43.16215" lon="5.9021">
        <ele>194</ele>
        <time>2016-07-30T06:17:50.117Z</time>
      </trkpt>
      <trkpt lat="43.16218" lon="5.90211">
        <ele>194</ele>
        <time>2016-07-30T06:17:51.117Z</time>
      </trkpt>
      <trkpt lat="43.16221" lon="5.90211">
        <ele>194</ele>
        <time>2016-07-30T06:17:52.117Z</time>
      </trkpt>
      <trkpt lat="43.16225" lon="5.9021">
        <ele>194</ele>
        <time>2016-07-30T06:17:53.117Z</time>
      </trkpt>
      <trkpt lat="43.16228" lon="5.90209">
        <ele>194</ele>
        <time>2016-07-30T06:17:54.117Z</time>
      </trkpt>
      <trkpt lat="43.16231" lon="5.90207">
        <ele>194</ele>
        <time>2016-07-30T06:17:55.117Z</time>
      </trkpt>
      <trkpt lat="43.16234" lon="5.90205">
        <ele>194</ele>
        <time>2016-07-30T06:17:56.117Z</time>
      </trkpt>
      <trkpt lat="43.16237" lon="5.90203">
        <ele>195</ele>
        <time>2016-07-30T06:17:57.117Z</time>
      </trkpt>
      <trkpt lat="43.1624" lon="5.902">
        <ele>195</ele>
        <time>2016-07-30T06:17:58.117Z</time>
      </trkpt>
      <trkpt lat="43.16243" lon="5.90197">
        <ele>195</ele>
        <time>2016-07-30T06:17:59.117Z</time>
      </trkpt>
      <trkpt lat="43.16246" lon="5.90194">
        <ele>195</ele>
        <time>2016-07-30T06:18:00.117Z</time>
      </trkpt>
      <trkpt lat="43.16249" lon="5.90191">
        <ele>195</ele>
        <time>2016-07-30T06:18:01.117Z</time>
      </trkpt>
      <trkpt lat="43.16252" lon="5.90188">
        <ele>196</ele>
        <time>2016-07-30T06:18:02.117Z</time>
      </trkpt>
      <trkpt lat="43.16255" lon="5.90185">
        <ele>196</ele>
        <time>2016-07-30T06:18:03.117Z</time>
      </trkpt>
      <trkpt lat="43.16258" lon="5.90182">
        <ele>196</ele>
        <time>2016-07-30T06:18:04.117Z</time>
      </trkpt>
      <trkpt lat="43.16261" lon="5.90179">
        <ele>196</ele>
        <time>2016-07-30T06:18:05.117Z</time>
      </trkpt>
      <trkpt lat="43.16264" lon="5.90175">
        <ele>197</ele>
        <time>2016-07-30T06:18:06.117Z</time>
      </trkpt>
      <trkpt lat="43.16267" lon="5.90172">
        <ele>197</ele>
        <time>2016-07-30T06:18:07.117Z</time>
      </trkpt>
      <trkpt lat="43.1627" lon="5.90169">
        <ele>197</ele>
        <time>2016-07-30T06:18:08.117Z</time>
      </trkpt>
      <trkpt lat="43.16273" lon="5.90166">
        <ele>197</ele>
        <time>2016-07-30T06:18:09.117Z</time>
      </trkpt>
      <trkpt lat="43.16277" lon="5.90163">
        <ele>198</ele>
        <time>2016-07-30T06:18:10.117Z</time>
      </trkpt>
      <trkpt lat="43.1628" lon="5.9016">
        <ele>198</ele>
        <time>2016-07-30T06:18:11.117Z</time>
      </trkpt>
      <trkpt lat="43.16283" lon="5.90158">
        <ele>198</ele>
        <time>2016-07-30T06:18:12.117Z</time>
      </trkpt>
      <trkpt lat="43.16286" lon="5.90154">
        <ele>198</ele>
        <time>2016-07-30T06:18:13.117Z</time>
      </trkpt>
      <trkpt lat="43.16288" lon="5.90151">
        <ele>199</ele>
        <time>2016-07-30T06:18:14.117Z</time>
      </trkpt>
      <trkpt lat="43.16291" lon="5.90147">
        <ele>199</ele>
        <time>2016-07-30T06:18:15.117Z</time>
      </trkpt>
      <trkpt lat="43.16293" lon="5.90143">
        <ele>199</ele>
        <time>2016-07-30T06:18:16.117Z</time>
      </trkpt>
      <trkpt lat="43.16294" lon="5.90139">
        <ele>199</ele>
        <time>2016-07-30T06:18:17.117Z</time>
      </trkpt>
      <trkpt lat="43.16296" lon="5.90134">
        <ele>199</ele>
        <time>2016-07-30T06:18:18.117Z</time>
      </trkpt>
      <trkpt lat="43.16297" lon="5.90129">
        <ele>199</ele>
        <time>2016-07-30T06:18:19.117Z</time>
      </trkpt>
      <trkpt lat="43.16298" lon="5.90124">
        <ele>200</ele>
        <time>2016-07-30T06:18:20.117Z</time>
      </trkpt>
      <trkpt lat="43.16299" lon="5.90119">
        <ele>200</ele>
        <time>2016-07-30T06:18:21.117Z</time>
      </trkpt>
      <trkpt lat="43.163" lon="5.90114">
        <ele>200</ele>
        <time>2016-07-30T06:18:22.117Z</time>
      </trkpt>
      <trkpt lat="43.16301" lon="5.90109">
        <ele>200</ele>
        <time>2016-07-30T06:18:23.117Z</time>
      </trkpt>
      <trkpt lat="43.16302" lon="5.90105">
        <ele>201</ele>
        <time>2016-07-30T06:18:24.117Z</time>
      </trkpt>
      <trkpt lat="43.16302" lon="5.901">
        <ele>201</ele>
        <time>2016-07-30T06:18:25.117Z</time>
      </trkpt>
      <trkpt lat="43.16303" lon="5.90096">
        <ele>201</ele>
        <time>2016-07-30T06:18:26.117Z</time>
      </trkpt>
      <trkpt lat="43.16303" lon="5.90091">
        <ele>201</ele>
        <time>2016-07-30T06:18:27.117Z</time>
      </trkpt>
      <trkpt lat="43.16304" lon="5.90087">
        <ele>202</ele>
        <time>2016-07-30T06:18:28.117Z</time>
      </trkpt>
      <trkpt lat="43.16305" lon="5.90082">
        <ele>202</ele>
        <time>2016-07-30T06:18:29.117Z</time>
      </trkpt>
      <trkpt lat="43.16306" lon="5.90078">
        <ele>202</ele>
        <time>2016-07-30T06:18:30.117Z</time>
      </trkpt>
      <trkpt lat="43.16307" lon="5.90074">
        <ele>203</ele>
        <time>2016-07-30T06:18:31.117Z</time>
      </trkpt>
      <trkpt lat="43.16308" lon="5.90069">
        <ele>203</ele>
        <time>2016-07-30T06:18:32.117Z</time>
      </trkpt>
      <trkpt lat="43.16309" lon="5.90065">
        <ele>203</ele>
        <time>2016-07-30T06:18:33.117Z</time>
      </trkpt>
      <trkpt lat="43.1631" lon="5.90061">
        <ele>204</ele>
        <time>2016-07-30T06:18:34.117Z</time>
      </trkpt>
      <trkpt lat="43.16311" lon="5.90057">
        <ele>204</ele>
        <time>2016-07-30T06:18:35.117Z</time>
      </trkpt>
      <trkpt lat="43.16312" lon="5.90054">
        <ele>204</ele>
        <time>2016-07-30T06:18:36.117Z</time>
      </trkpt>
      <trkpt lat="43.16313" lon="5.90051">
        <ele>204</ele>
        <time>2016-07-30T06:18:37.117Z</time>
      </trkpt>
      <trkpt lat="43.16315" lon="5.90048">
        <ele>204</ele>
        <time>2016-07-30T06:18:38.117Z</time>
      </trkpt>
      <trkpt lat="43.16316" lon="5.90045">
        <ele>204</ele>
        <time>2016-07-30T06:18:39.117Z</time>
      </trkpt>
      <trkpt lat="43.16319" lon="5.90043">
        <ele>203</ele>
        <time>2016-07-30T06:18:40.117Z</time>
      </trkpt>
      <trkpt lat="43.16322" lon="5.9004">
        <ele>203</ele>
        <time>2016-07-30T06:18:41.117Z</time>
      </trkpt>
      <trkpt lat="43.16325" lon="5.90038">
        <ele>203</ele>
        <time>2016-07-30T06:18:42.117Z</time>
      </trkpt>
      <trkpt lat="43.16328" lon="5.90036">
        <ele>204</ele>
        <time>2016-07-30T06:18:43.117Z</time>
      </trkpt>
      <trkpt lat="43.16331" lon="5.90034">
        <ele>204</ele>
        <time>2016-07-30T06:18:44.117Z</time>
      </trkpt>
      <trkpt lat="43.16335" lon="5.90033">
        <ele>205</ele>
        <time>2016-07-30T06:18:45.117Z</time>
      </trkpt>
      <trkpt lat="43.16338" lon="5.90032">
        <ele>206</ele>
        <time>2016-07-30T06:18:46.117Z</time>
      </trkpt>
      <trkpt lat="43.16341" lon="5.90032">
        <ele>206</ele>
        <time>2016-07-30T06:18:47.117Z</time>
      </trkpt>
      <trkpt lat="43.16345" lon="5.90032">
        <ele>205</ele>
        <time>2016-07-30T06:18:48.117Z</time>
      </trkpt>
      <trkpt lat="43.16348" lon="5.90033">
        <ele>205</ele>
        <time>2016-07-30T06:18:49.117Z</time>
      </trkpt>
      <trkpt lat="43.16352" lon="5.90033">
        <ele>205</ele>
        <time>2016-07-30T06:18:50.117Z</time>
      </trkpt>
      <trkpt lat="43.16355" lon="5.90034">
        <ele>205</ele>
        <time>2016-07-30T06:18:51.117Z</time>
      </trkpt>
      <trkpt lat="43.16358" lon="5.90035">
        <ele>205</ele>
        <time>2016-07-30T06:18:52.117Z</time>
      </trkpt>
      <trkpt lat="43.16362" lon="5.90037">
        <ele>206</ele>
        <time>2016-07-30T06:18:53.117Z</time>
      </trkpt>
      <trkpt lat="43.16365" lon="5.90038">
        <ele>206</ele>
        <time>2016-07-30T06:18:54.117Z</time>
      </trkpt>
      <trkpt lat="43.16369" lon="5.9004">
        <ele>206</ele>
        <time>2016-07-30T06:18:55.117Z</time>
      </trkpt>
      <trkpt lat="43.16373" lon="5.90042">
        <ele>206</ele>
        <time>2016-07-30T06:18:56.117Z</time>
      </trkpt>
      <trkpt lat="43.16376" lon="5.90045">
        <ele>206</ele>
        <time>2016-07-30T06:18:57.117Z</time>
      </trkpt>
      <trkpt lat="43.1638" lon="5.90048">
        <ele>206</ele>
        <time>2016-07-30T06:18:58.117Z</time>
      </trkpt>
      <trkpt lat="43.16383" lon="5.90051">
        <ele>207</ele>
        <time>2016-07-30T06:18:59.117Z</time>
      </trkpt>
      <trkpt lat="43.16386" lon="5.90055">
        <ele>208</ele>
        <time>2016-07-30T06:19:00.117Z</time>
      </trkpt>
      <trkpt lat="43.16389" lon="5.90059">
        <ele>208</ele>
        <time>2016-07-30T06:19:01.117Z</time>
      </trkpt>
      <trkpt lat="43.16391" lon="5.90063">
        <ele>209</ele>
        <time>2016-07-30T06:19:02.117Z</time>
      </trkpt>
      <trkpt lat="43.16394" lon="5.90067">
        <ele>209</ele>
        <time>2016-07-30T06:19:03.117Z</time>
      </trkpt>
      <trkpt lat="43.16397" lon="5.90071">
        <ele>210</ele>
        <time>2016-07-30T06:19:04.117Z</time>
      </trkpt>
      <trkpt lat="43.16399" lon="5.90075">
        <ele>210</ele>
        <time>2016-07-30T06:19:05.117Z</time>
      </trkpt>
      <trkpt lat="43.16402" lon="5.90078">
        <ele>210</ele>
        <time>2016-07-30T06:19:06.117Z</time>
      </trkpt>
      <trkpt lat="43.16405" lon="5.90082">
        <ele>210</ele>
        <time>2016-07-30T06:19:07.117Z</time>
      </trkpt>
      <trkpt lat="43.16408" lon="5.90085">
        <ele>210</ele>
        <time>2016-07-30T06:19:08.117Z</time>
      </trkpt>
      <trkpt lat="43.16411" lon="5.90088">
        <ele>210</ele>
        <time>2016-07-30T06:19:09.117Z</time>
      </trkpt>
      <trkpt lat="43.16415" lon="5.9009">
        <ele>211</ele>
        <time>2016-07-30T06:19:10.117Z</time>
      </trkpt>
      <trkpt lat="43.16419" lon="5.90091">
        <ele>212</ele>
        <time>2016-07-30T06:19:11.117Z</time>
      </trkpt>
      <trkpt lat="43.16423" lon="5.90093">
        <ele>211</ele>
        <time>2016-07-30T06:19:12.117Z</time>
      </trkpt>
      <trkpt lat="43.16427" lon="5.90094">
        <ele>212</ele>
        <time>2016-07-30T06:19:13.117Z</time>
      </trkpt>
      <trkpt lat="43.16431" lon="5.90096">
        <ele>212</ele>
        <time>2016-07-30T06:19:14.117Z</time>
      </trkpt>
      <trkpt lat="43.16435" lon="5.90098">
        <ele>213</ele>
        <time>2016-07-30T06:19:15.117Z</time>
      </trkpt>
      <trkpt lat="43.16438" lon="5.901">
        <ele>213</ele>
        <time>2016-07-30T06:19:16.117Z</time>
      </trkpt>
      <trkpt lat="43.16442" lon="5.90101">
        <ele>213</ele>
        <time>2016-07-30T06:19:17.117Z</time>
      </trkpt>
      <trkpt lat="43.16445" lon="5.90103">
        <ele>215</ele>
        <time>2016-07-30T06:19:18.117Z</time>
      </trkpt>
      <trkpt lat="43.16449" lon="5.90105">
        <ele>215</ele>
        <time>2016-07-30T06:19:19.117Z</time>
      </trkpt>
      <trkpt lat="43.16452" lon="5.90107">
        <ele>215</ele>
        <time>2016-07-30T06:19:20.117Z</time>
      </trkpt>
      <trkpt lat="43.16456" lon="5.90109">
        <ele>215</ele>
        <time>2016-07-30T06:19:21.117Z</time>
      </trkpt>
      <trkpt lat="43.16459" lon="5.90111">
        <ele>216</ele>
        <time>2016-07-30T06:19:22.117Z</time>
      </trkpt>
      <trkpt lat="43.16463" lon="5.90113">
        <ele>216</ele>
        <time>2016-07-30T06:19:23.117Z</time>
      </trkpt>
      <trkpt lat="43.16466" lon="5.90115">
        <ele>216</ele>
        <time>2016-07-30T06:19:24.117Z</time>
      </trkpt>
      <trkpt lat="43.16469" lon="5.90116">
        <ele>216</ele>
        <time>2016-07-30T06:19:25.117Z</time>
      </trkpt>
      <trkpt lat="43.16472" lon="5.90118">
        <ele>217</ele>
        <time>2016-07-30T06:19:26.117Z</time>
      </trkpt>
      <trkpt lat="43.16475" lon="5.90119">
        <ele>217</ele>
        <time>2016-07-30T06:19:27.117Z</time>
      </trkpt>
      <trkpt lat="43.16478" lon="5.90119">
        <ele>217</ele>
        <time>2016-07-30T06:19:28.117Z</time>
      </trkpt>
      <trkpt lat="43.16482" lon="5.90119">
        <ele>218</ele>
        <time>2016-07-30T06:19:29.117Z</time>
      </trkpt>
      <trkpt lat="43.16487" lon="5.90118">
        <ele>218</ele>
        <time>2016-07-30T06:19:30.117Z</time>
      </trkpt>
      <trkpt lat="43.16491" lon="5.90117">
        <ele>218</ele>
        <time>2016-07-30T06:19:31.117Z</time>
      </trkpt>
      <trkpt lat="43.16495" lon="5.90115">
        <ele>217</ele>
        <time>2016-07-30T06:19:32.117Z</time>
      </trkpt>
      <trkpt lat="43.16499" lon="5.90113">
        <ele>216</ele>
        <time>2016-07-30T06:19:33.117Z</time>
      </trkpt>
      <trkpt lat="43.16503" lon="5.90111">
        <ele>215</ele>
        <time>2016-07-30T06:19:34.117Z</time>
      </trkpt>
      <trkpt lat="43.16506" lon="5.90109">
        <ele>215</ele>
        <time>2016-07-30T06:19:35.117Z</time>
      </trkpt>
      <trkpt lat="43.1651" lon="5.90106">
        <ele>215</ele>
        <time>2016-07-30T06:19:36.117Z</time>
      </trkpt>
      <trkpt lat="43.16512" lon="5.90103">
        <ele>215</ele>
        <time>2016-07-30T06:19:37.117Z</time>
      </trkpt>
      <trkpt lat="43.16515" lon="5.901">
        <ele>215</ele>
        <time>2016-07-30T06:19:38.117Z</time>
      </trkpt>
      <trkpt lat="43.16517" lon="5.90097">
        <ele>215</ele>
        <time>2016-07-30T06:19:39.117Z</time>
      </trkpt>
      <trkpt lat="43.16519" lon="5.90093">
        <ele>215</ele>
        <time>2016-07-30T06:19:40.117Z</time>
      </trkpt>
      <trkpt lat="43.1652" lon="5.90088">
        <ele>215</ele>
        <time>2016-07-30T06:19:41.117Z</time>
      </trkpt>
      <trkpt lat="43.16522" lon="5.90084">
        <ele>215</ele>
        <time>2016-07-30T06:19:42.117Z</time>
      </trkpt>
      <trkpt lat="43.16523" lon="5.9008">
        <ele>215</ele>
        <time>2016-07-30T06:19:43.117Z</time>
      </trkpt>
      <trkpt lat="43.16524" lon="5.90075">
        <ele>216</ele>
        <time>2016-07-30T06:19:44.117Z</time>
      </trkpt>
      <trkpt lat="43.16524" lon="5.9007">
        <ele>217</ele>
        <time>2016-07-30T06:19:45.117Z</time>
      </trkpt>
      <trkpt lat="43.16525" lon="5.90065">
        <ele>217</ele>
        <time>2016-07-30T06:19:46.117Z</time>
      </trkpt>
      <trkpt lat="43.16526" lon="5.90061">
        <ele>217</ele>
        <time>2016-07-30T06:19:47.117Z</time>
      </trkpt>
      <trkpt lat="43.16526" lon="5.90056">
        <ele>217</ele>
        <time>2016-07-30T06:19:48.117Z</time>
      </trkpt>
      <trkpt lat="43.16527" lon="5.90052">
        <ele>218</ele>
        <time>2016-07-30T06:19:49.117Z</time>
      </trkpt>
      <trkpt lat="43.16527" lon="5.90048">
        <ele>218</ele>
        <time>2016-07-30T06:19:50.117Z</time>
      </trkpt>
      <trkpt lat="43.16528" lon="5.90043">
        <ele>218</ele>
        <time>2016-07-30T06:19:51.117Z</time>
      </trkpt>
      <trkpt lat="43.16528" lon="5.9004">
        <ele>218</ele>
        <time>2016-07-30T06:19:52.117Z</time>
      </trkpt>
      <trkpt lat="43.16529" lon="5.90037">
        <ele>217</ele>
        <time>2016-07-30T06:19:53.117Z</time>
      </trkpt>
      <trkpt lat="43.1653" lon="5.90034">
        <ele>217</ele>
        <time>2016-07-30T06:19:54.117Z</time>
      </trkpt>
      <trkpt lat="43.16531" lon="5.90031">
        <ele>216</ele>
        <time>2016-07-30T06:19:55.117Z</time>
      </trkpt>
      <trkpt lat="43.16534" lon="5.9003">
        <ele>216</ele>
        <time>2016-07-30T06:19:56.117Z</time>
      </trkpt>
      <trkpt lat="43.16539" lon="5.90031">
        <ele>217</ele>
        <time>2016-07-30T06:19:57.117Z</time>
      </trkpt>
      <trkpt lat="43.16544" lon="5.90032">
        <ele>217</ele>
        <time>2016-07-30T06:19:58.117Z</time>
      </trkpt>
      <trkpt lat="43.16549" lon="5.90033">
        <ele>218</ele>
        <time>2016-07-30T06:19:59.117Z</time>
      </trkpt>
      <trkpt lat="43.16553" lon="5.90034">
        <ele>218</ele>
        <time>2016-07-30T06:20:00.117Z</time>
      </trkpt>
      <trkpt lat="43.16555" lon="5.90037">
        <ele>218</ele>
        <time>2016-07-30T06:20:01.117Z</time>
      </trkpt>
      <trkpt lat="43.16558" lon="5.9004">
        <ele>218</ele>
        <time>2016-07-30T06:20:02.117Z</time>
      </trkpt>
      <trkpt lat="43.1656" lon="5.90042">
        <ele>218</ele>
        <time>2016-07-30T06:20:03.117Z</time>
      </trkpt>
      <trkpt lat="43.16563" lon="5.90045">
        <ele>218</ele>
        <time>2016-07-30T06:20:04.117Z</time>
      </trkpt>
      <trkpt lat="43.16566" lon="5.90048">
        <ele>218</ele>
        <time>2016-07-30T06:20:05.117Z</time>
      </trkpt>
      <trkpt lat="43.16569" lon="5.9005">
        <ele>218</ele>
        <time>2016-07-30T06:20:06.117Z</time>
      </trkpt>
      <trkpt lat="43.16572" lon="5.90052">
        <ele>219</ele>
        <time>2016-07-30T06:20:07.117Z</time>
      </trkpt>
      <trkpt lat="43.16575" lon="5.90053">
        <ele>218</ele>
        <time>2016-07-30T06:20:08.117Z</time>
      </trkpt>
      <trkpt lat="43.16578" lon="5.90054">
        <ele>218</ele>
        <time>2016-07-30T06:20:09.117Z</time>
      </trkpt>
      <trkpt lat="43.16581" lon="5.90054">
        <ele>219</ele>
        <time>2016-07-30T06:20:10.117Z</time>
      </trkpt>
      <trkpt lat="43.16585" lon="5.90054">
        <ele>220</ele>
        <time>2016-07-30T06:20:11.117Z</time>
      </trkpt>
      <trkpt lat="43.16588" lon="5.90053">
        <ele>220</ele>
        <time>2016-07-30T06:20:12.117Z</time>
      </trkpt>
      <trkpt lat="43.16592" lon="5.90052">
        <ele>221</ele>
        <time>2016-07-30T06:20:13.117Z</time>
      </trkpt>
      <trkpt lat="43.16595" lon="5.9005">
        <ele>220</ele>
        <time>2016-07-30T06:20:14.117Z</time>
      </trkpt>
      <trkpt lat="43.16598" lon="5.90048">
        <ele>220</ele>
        <time>2016-07-30T06:20:15.117Z</time>
      </trkpt>
      <trkpt lat="43.16602" lon="5.90045">
        <ele>221</ele>
        <time>2016-07-30T06:20:16.117Z</time>
      </trkpt>
      <trkpt lat="43.16605" lon="5.90043">
        <ele>222</ele>
        <time>2016-07-30T06:20:17.117Z</time>
      </trkpt>
      <trkpt lat="43.16609" lon="5.90041">
        <ele>222</ele>
        <time>2016-07-30T06:20:18.117Z</time>
      </trkpt>
      <trkpt lat="43.16612" lon="5.90039">
        <ele>222</ele>
        <time>2016-07-30T06:20:19.117Z</time>
      </trkpt>
      <trkpt lat="43.16615" lon="5.90037">
        <ele>223</ele>
        <time>2016-07-30T06:20:20.117Z</time>
      </trkpt>
      <trkpt lat="43.16619" lon="5.90034">
        <ele>223</ele>
        <time>2016-07-30T06:20:21.117Z</time>
      </trkpt>
      <trkpt lat="43.16622" lon="5.90032">
        <ele>224</ele>
        <time>2016-07-30T06:20:22.117Z</time>
      </trkpt>
      <trkpt lat="43.16625" lon="5.9003">
        <ele>225</ele>
        <time>2016-07-30T06:20:23.117Z</time>
      </trkpt>
      <trkpt lat="43.16629" lon="5.90028">
        <ele>225</ele>
        <time>2016-07-30T06:20:24.117Z</time>
      </trkpt>
      <trkpt lat="43.16632" lon="5.90026">
        <ele>225</ele>
        <time>2016-07-30T06:20:25.117Z</time>
      </trkpt>
      <trkpt lat="43.16635" lon="5.90024">
        <ele>225</ele>
        <time>2016-07-30T06:20:26.117Z</time>
      </trkpt>
      <trkpt lat="43.16639" lon="5.90022">
        <ele>226</ele>
        <time>2016-07-30T06:20:27.117Z</time>
      </trkpt>
      <trkpt lat="43.16642" lon="5.9002">
        <ele>226</ele>
        <time>2016-07-30T06:20:28.117Z</time>
      </trkpt>
      <trkpt lat="43.16645" lon="5.90018">
        <ele>226</ele>
        <time>2016-07-30T06:20:29.117Z</time>
      </trkpt>
      <trkpt lat="43.16648" lon="5.90017">
        <ele>227</ele>
        <time>2016-07-30T06:20:30.117Z</time>
      </trkpt>
      <trkpt lat="43.16651" lon="5.90015">
        <ele>227</ele>
        <time>2016-07-30T06:20:31.117Z</time>
      </trkpt>
      <trkpt lat="43.16654" lon="5.90013">
        <ele>227</ele>
        <time>2016-07-30T06:20:32.117Z</time>
      </trkpt>
      <trkpt lat="43.16657" lon="5.90011">
        <ele>228</ele>
        <time>2016-07-30T06:20:33.117Z</time>
      </trkpt>
      <trkpt lat="43.1666" lon="5.90009">
        <ele>228</ele>
        <time>2016-07-30T06:20:34.117Z</time>
      </trkpt>
      <trkpt lat="43.16663" lon="5.90007">
        <ele>229</ele>
        <time>2016-07-30T06:20:35.117Z</time>
      </trkpt>
      <trkpt lat="43.16666" lon="5.90005">
        <ele>229</ele>
        <time>2016-07-30T06:20:36.117Z</time>
      </trkpt>
      <trkpt lat="43.16669" lon="5.90003">
        <ele>229</ele>
        <time>2016-07-30T06:20:37.117Z</time>
      </trkpt>
      <trkpt lat="43.16672" lon="5.9">
        <ele>229</ele>
        <time>2016-07-30T06:20:38.117Z</time>
      </trkpt>
      <trkpt lat="43.16674" lon="5.89997">
        <ele>230</ele>
        <time>2016-07-30T06:20:39.117Z</time>
      </trkpt>
      <trkpt lat="43.16677" lon="5.89995">
        <ele>230</ele>
        <time>2016-07-30T06:20:40.117Z</time>
      </trkpt>
      <trkpt lat="43.1668" lon="5.89992">
        <ele>230</ele>
        <time>2016-07-30T06:20:41.117Z</time>
      </trkpt>
      <trkpt lat="43.16683" lon="5.89989">
        <ele>230</ele>
        <time>2016-07-30T06:20:42.117Z</time>
      </trkpt>
      <trkpt lat="43.16686" lon="5.89987">
        <ele>230</ele>
        <time>2016-07-30T06:20:43.117Z</time>
      </trkpt>
      <trkpt lat="43.16688" lon="5.89984">
        <ele>231</ele>
        <time>2016-07-30T06:20:44.117Z</time>
      </trkpt>
      <trkpt lat="43.16691" lon="5.89981">
        <ele>231</ele>
        <time>2016-07-30T06:20:45.117Z</time>
      </trkpt>
      <trkpt lat="43.16694" lon="5.89978">
        <ele>231</ele>
        <time>2016-07-30T06:20:46.117Z</time>
      </trkpt>
      <trkpt lat="43.16696" lon="5.89975">
        <ele>232</ele>
        <time>2016-07-30T06:20:47.117Z</time>
      </trkpt>
      <trkpt lat="43.16699" lon="5.89972">
        <ele>232</ele>
        <time>2016-07-30T06:20:48.117Z</time>
      </trkpt>
      <trkpt lat="43.16701" lon="5.8997">
        <ele>232</ele>
        <time>2016-07-30T06:20:49.117Z</time>
      </trkpt>
      <trkpt lat="43.16704" lon="5.89967">
        <ele>232</ele>
        <time>2016-07-30T06:20:50.117Z</time>
      </trkpt>
      <trkpt lat="43.16707" lon="5.89965">
        <ele>233</ele>
        <time>2016-07-30T06:20:51.117Z</time>
      </trkpt>
      <trkpt lat="43.1671" lon="5.89962">
        <ele>233</ele>
        <time>2016-07-30T06:20:52.117Z</time>
      </trkpt>
      <trkpt lat="43.16712" lon="5.8996">
        <ele>233</ele>
        <time>2016-07-30T06:20:53.117Z</time>
      </trkpt>
      <trkpt lat="43.16715" lon="5.89958">
        <ele>233</ele>
        <time>2016-07-30T06:20:54.117Z</time>
      </trkpt>
      <trkpt lat="43.16718" lon="5.89955">
        <ele>233</ele>
        <time>2016-07-30T06:20:55.117Z</time>
      </trkpt>
      <trkpt lat="43.16721" lon="5.89953">
        <ele>233</ele>
        <time>2016-07-30T06:20:56.117Z</time>
      </trkpt>
      <trkpt lat="43.16724" lon="5.8995">
        <ele>234</ele>
        <time>2016-07-30T06:20:57.117Z</time>
      </trkpt>
      <trkpt lat="43.16728" lon="5.89947">
        <ele>234</ele>
        <time>2016-07-30T06:20:58.117Z</time>
      </trkpt>
      <trkpt lat="43.16732" lon="5.89944">
        <ele>235</ele>
        <time>2016-07-30T06:20:59.117Z</time>
      </trkpt>
      <trkpt lat="43.16736" lon="5.89941">
        <ele>235</ele>
        <time>2016-07-30T06:21:00.117Z</time>
      </trkpt>
      <trkpt lat="43.1674" lon="5.89938">
        <ele>235</ele>
        <time>2016-07-30T06:21:01.117Z</time>
      </trkpt>
      <trkpt lat="43.16744" lon="5.89936">
        <ele>236</ele>
        <time>2016-07-30T06:21:02.117Z</time>
      </trkpt>
      <trkpt lat="43.16748" lon="5.89933">
        <ele>235</ele>
        <time>2016-07-30T06:21:03.117Z</time>
      </trkpt>
      <trkpt lat="43.16752" lon="5.89931">
        <ele>235</ele>
        <time>2016-07-30T06:21:04.117Z</time>
      </trkpt>
      <trkpt lat="43.16757" lon="5.89929">
        <ele>235</ele>
        <time>2016-07-30T06:21:05.117Z</time>
      </trkpt>
      <trkpt lat="43.16761" lon="5.89928">
        <ele>234</ele>
        <time>2016-07-30T06:21:06.117Z</time>
      </trkpt>
      <trkpt lat="43.16765" lon="5.89928">
        <ele>234</ele>
        <time>2016-07-30T06:21:07.117Z</time>
      </trkpt>
      <trkpt lat="43.1677" lon="5.89928">
        <ele>235</ele>
        <time>2016-07-30T06:21:08.117Z</time>
      </trkpt>
      <trkpt lat="43.16774" lon="5.89929">
        <ele>235</ele>
        <time>2016-07-30T06:21:09.117Z</time>
      </trkpt>
      <trkpt lat="43.16778" lon="5.89929">
        <ele>235</ele>
        <time>2016-07-30T06:21:10.117Z</time>
      </trkpt>
      <trkpt lat="43.16782" lon="5.8993">
        <ele>235</ele>
        <time>2016-07-30T06:21:11.117Z</time>
      </trkpt>
      <trkpt lat="43.16786" lon="5.89931">
        <ele>235</ele>
        <time>2016-07-30T06:21:12.117Z</time>
      </trkpt>
      <trkpt lat="43.1679" lon="5.89932">
        <ele>235</ele>
        <time>2016-07-30T06:21:13.117Z</time>
      </trkpt>
      <trkpt lat="43.16794" lon="5.89933">
        <ele>235</ele>
        <time>2016-07-30T06:21:14.117Z</time>
      </trkpt>
      <trkpt lat="43.16798" lon="5.89933">
        <ele>235</ele>
        <time>2016-07-30T06:21:15.117Z</time>
      </trkpt>
      <trkpt lat="43.16802" lon="5.89934">
        <ele>235</ele>
        <time>2016-07-30T06:21:16.117Z</time>
      </trkpt>
      <trkpt lat="43.16805" lon="5.89934">
        <ele>235</ele>
        <time>2016-07-30T06:21:17.117Z</time>
      </trkpt>
      <trkpt lat="43.16809" lon="5.89935">
        <ele>235</ele>
        <time>2016-07-30T06:21:18.117Z</time>
      </trkpt>
      <trkpt lat="43.16813" lon="5.89935">
        <ele>235</ele>
        <time>2016-07-30T06:21:19.117Z</time>
      </trkpt>
      <trkpt lat="43.16817" lon="5.89936">
        <ele>235</ele>
        <time>2016-07-30T06:21:20.117Z</time>
      </trkpt>
      <trkpt lat="43.16821" lon="5.89939">
        <ele>235</ele>
        <time>2016-07-30T06:21:21.117Z</time>
      </trkpt>
      <trkpt lat="43.16824" lon="5.89941">
        <ele>236</ele>
        <time>2016-07-30T06:21:22.117Z</time>
      </trkpt>
      <trkpt lat="43.16828" lon="5.89944">
        <ele>237</ele>
        <time>2016-07-30T06:21:23.117Z</time>
      </trkpt>
      <trkpt lat="43.16831" lon="5.89946">
        <ele>237</ele>
        <time>2016-07-30T06:21:24.117Z</time>
      </trkpt>
      <trkpt lat="43.16835" lon="5.89949">
        <ele>237</ele>
        <time>2016-07-30T06:21:25.117Z</time>
      </trkpt>
      <trkpt lat="43.16839" lon="5.8995">
        <ele>237</ele>
        <time>2016-07-30T06:21:26.117Z</time>
      </trkpt>
      <trkpt lat="43.16842" lon="5.89952">
        <ele>237</ele>
        <time>2016-07-30T06:21:27.117Z</time>
      </trkpt>
      <trkpt lat="43.16846" lon="5.89953">
        <ele>237</ele>
        <time>2016-07-30T06:21:28.117Z</time>
      </trkpt>
      <trkpt lat="43.1685" lon="5.89952">
        <ele>237</ele>
        <time>2016-07-30T06:21:29.117Z</time>
      </trkpt>
      <trkpt lat="43.16855" lon="5.89951">
        <ele>238</ele>
        <time>2016-07-30T06:21:30.117Z</time>
      </trkpt>
      <trkpt lat="43.16859" lon="5.89949">
        <ele>237</ele>
        <time>2016-07-30T06:21:31.117Z</time>
      </trkpt>
      <trkpt lat="43.16863" lon="5.89947">
        <ele>239</ele>
        <time>2016-07-30T06:21:32.117Z</time>
      </trkpt>
      <trkpt lat="43.16867" lon="5.89943">
        <ele>241</ele>
        <time>2016-07-30T06:21:33.117Z</time>
      </trkpt>
      <trkpt lat="43.1687" lon="5.8994">
        <ele>241</ele>
        <time>2016-07-30T06:21:34.117Z</time>
      </trkpt>
      <trkpt lat="43.16873" lon="5.89936">
        <ele>241</ele>
        <time>2016-07-30T06:21:35.117Z</time>
      </trkpt>
      <trkpt lat="43.16876" lon="5.89933">
        <ele>242</ele>
        <time>2016-07-30T06:21:36.117Z</time>
      </trkpt>
      <trkpt lat="43.1688" lon="5.8993">
        <ele>243</ele>
        <time>2016-07-30T06:21:37.117Z</time>
      </trkpt>
      <trkpt lat="43.16884" lon="5.89928">
        <ele>244</ele>
        <time>2016-07-30T06:21:38.117Z</time>
      </trkpt>
      <trkpt lat="43.16888" lon="5.89928">
        <ele>246</ele>
        <time>2016-07-30T06:21:39.117Z</time>
      </trkpt>
      <trkpt lat="43.16891" lon="5.89931">
        <ele>248</ele>
        <time>2016-07-30T06:21:40.117Z</time>
      </trkpt>
      <trkpt lat="43.16895" lon="5.89934">
        <ele>252</ele>
        <time>2016-07-30T06:21:41.117Z</time>
      </trkpt>
      <trkpt lat="43.16897" lon="5.89939">
        <ele>253</ele>
        <time>2016-07-30T06:21:42.117Z</time>
      </trkpt>
      <trkpt lat="43.16899" lon="5.89943">
        <ele>253</ele>
        <time>2016-07-30T06:21:43.117Z</time>
      </trkpt>
      <trkpt lat="43.16899" lon="5.89948">
        <ele>254</ele>
        <time>2016-07-30T06:21:44.117Z</time>
      </trkpt>
      <trkpt lat="43.16897" lon="5.89954">
        <ele>254</ele>
        <time>2016-07-30T06:21:45.117Z</time>
      </trkpt>
      <trkpt lat="43.16895" lon="5.89959">
        <ele>254</ele>
        <time>2016-07-30T06:21:46.117Z</time>
      </trkpt>
      <trkpt lat="43.16892" lon="5.89964">
        <ele>254</ele>
        <time>2016-07-30T06:21:47.117Z</time>
      </trkpt>
      <trkpt lat="43.1689" lon="5.89968">
        <ele>253</ele>
        <time>2016-07-30T06:21:48.117Z</time>
      </trkpt>
      <trkpt lat="43.16888" lon="5.89972">
        <ele>253</ele>
        <time>2016-07-30T06:21:49.117Z</time>
      </trkpt>
      <trkpt lat="43.16886" lon="5.89976">
        <ele>252</ele>
        <time>2016-07-30T06:21:50.117Z</time>
      </trkpt>
      <trkpt lat="43.16884" lon="5.8998">
        <ele>252</ele>
        <time>2016-07-30T06:21:51.117Z</time>
      </trkpt>
      <trkpt lat="43.16882" lon="5.89984">
        <ele>253</ele>
        <time>2016-07-30T06:21:52.117Z</time>
      </trkpt>
      <trkpt lat="43.16879" lon="5.89987">
        <ele>252</ele>
        <time>2016-07-30T06:21:53.117Z</time>
      </trkpt>
      <trkpt lat="43.16876" lon="5.89991">
        <ele>251</ele>
        <time>2016-07-30T06:21:54.117Z</time>
      </trkpt>
      <trkpt lat="43.16874" lon="5.89994">
        <ele>251</ele>
        <time>2016-07-30T06:21:55.117Z</time>
      </trkpt>
      <trkpt lat="43.16871" lon="5.89998">
        <ele>250</ele>
        <time>2016-07-30T06:21:56.117Z</time>
      </trkpt>
      <trkpt lat="43.16868" lon="5.90001">
        <ele>250</ele>
        <time>2016-07-30T06:21:57.117Z</time>
      </trkpt>
      <trkpt lat="43.16864" lon="5.90004">
        <ele>251</ele>
        <time>2016-07-30T06:21:58.117Z</time>
      </trkpt>
      <trkpt lat="43.16861" lon="5.90006">
        <ele>251</ele>
        <time>2016-07-30T06:21:59.117Z</time>
      </trkpt>
      <trkpt lat="43.16858" lon="5.90009">
        <ele>251</ele>
        <time>2016-07-30T06:22:00.117Z</time>
      </trkpt>
      <trkpt lat="43.16855" lon="5.90012">
        <ele>251</ele>
        <time>2016-07-30T06:22:01.117Z</time>
      </trkpt>
      <trkpt lat="43.16852" lon="5.90016">
        <ele>251</ele>
        <time>2016-07-30T06:22:02.117Z</time>
      </trkpt>
      <trkpt lat="43.16849" lon="5.90019">
        <ele>251</ele>
        <time>2016-07-30T06:22:03.117Z</time>
      </trkpt>
      <trkpt lat="43.16847" lon="5.90023">
        <ele>251</ele>
        <time>2016-07-30T06:22:04.117Z</time>
      </trkpt>
      <trkpt lat="43.16844" lon="5.90026">
        <ele>250</ele>
        <time>2016-07-30T06:22:05.117Z</time>
      </trkpt>
      <trkpt lat="43.16842" lon="5.90029">
        <ele>250</ele>
        <time>2016-07-30T06:22:06.117Z</time>
      </trkpt>
      <trkpt lat="43.1684" lon="5.90033">
        <ele>250</ele>
        <time>2016-07-30T06:22:07.117Z</time>
      </trkpt>
      <trkpt lat="43.16839" lon="5.90038">
        <ele>250</ele>
        <time>2016-07-30T06:22:08.117Z</time>
      </trkpt>
      <trkpt lat="43.16838" lon="5.90043">
        <ele>250</ele>
        <time>2016-07-30T06:22:09.117Z</time>
      </trkpt>
      <trkpt lat="43.16837" lon="5.90048">
        <ele>250</ele>
        <time>2016-07-30T06:22:10.117Z</time>
      </trkpt>
      <trkpt lat="43.16838" lon="5.90053">
        <ele>251</ele>
        <time>2016-07-30T06:22:11.117Z</time>
      </trkpt>
      <trkpt lat="43.16838" lon="5.90058">
        <ele>251</ele>
        <time>2016-07-30T06:22:12.117Z</time>
      </trkpt>
      <trkpt lat="43.16839" lon="5.90063">
        <ele>250</ele>
        <time>2016-07-30T06:22:13.117Z</time>
      </trkpt>
      <trkpt lat="43.16841" lon="5.90067">
        <ele>250</ele>
        <time>2016-07-30T06:22:14.117Z</time>
      </trkpt>
      <trkpt lat="43.16843" lon="5.9007">
        <ele>250</ele>
        <time>2016-07-30T06:22:15.117Z</time>
      </trkpt>
      <trkpt lat="43.16846" lon="5.90072">
        <ele>250</ele>
        <time>2016-07-30T06:22:16.117Z</time>
      </trkpt>
      <trkpt lat="43.16849" lon="5.90074">
        <ele>250</ele>
        <time>2016-07-30T06:22:17.117Z</time>
      </trkpt>
      <trkpt lat="43.16852" lon="5.90075">
        <ele>250</ele>
        <time>2016-07-30T06:22:18.117Z</time>
      </trkpt>
      <trkpt lat="43.16856" lon="5.90075">
        <ele>251</ele>
        <time>2016-07-30T06:22:19.117Z</time>
      </trkpt>
      <trkpt lat="43.16859" lon="5.90075">
        <ele>252</ele>
        <time>2016-07-30T06:22:20.117Z</time>
      </trkpt>
      <trkpt lat="43.16863" lon="5.90074">
        <ele>252</ele>
        <time>2016-07-30T06:22:21.117Z</time>
      </trkpt>
      <trkpt lat="43.16867" lon="5.90072">
        <ele>253</ele>
        <time>2016-07-30T06:22:22.117Z</time>
      </trkpt>
      <trkpt lat="43.1687" lon="5.90069">
        <ele>254</ele>
        <time>2016-07-30T06:22:23.117Z</time>
      </trkpt>
      <trkpt lat="43.16873" lon="5.90067">
        <ele>254</ele>
        <time>2016-07-30T06:22:24.117Z</time>
      </trkpt>
      <trkpt lat="43.16877" lon="5.90064">
        <ele>255</ele>
        <time>2016-07-30T06:22:25.117Z</time>
      </trkpt>
      <trkpt lat="43.1688" lon="5.90062">
        <ele>255</ele>
        <time>2016-07-30T06:22:26.117Z</time>
      </trkpt>
      <trkpt lat="43.16883" lon="5.90059">
        <ele>255</ele>
        <time>2016-07-30T06:22:27.117Z</time>
      </trkpt>
      <trkpt lat="43.16886" lon="5.90055">
        <ele>255</ele>
        <time>2016-07-30T06:22:28.117Z</time>
      </trkpt>
      <trkpt lat="43.16889" lon="5.90052">
        <ele>255</ele>
        <time>2016-07-30T06:22:29.117Z</time>
      </trkpt>
      <trkpt lat="43.16891" lon="5.90048">
        <ele>256</ele>
        <time>2016-07-30T06:22:30.117Z</time>
      </trkpt>
      <trkpt lat="43.16894" lon="5.90044">
        <ele>256</ele>
        <time>2016-07-30T06:22:31.117Z</time>
      </trkpt>
      <trkpt lat="43.16896" lon="5.9004">
        <ele>256</ele>
        <time>2016-07-30T06:22:32.117Z</time>
      </trkpt>
      <trkpt lat="43.16898" lon="5.90035">
        <ele>257</ele>
        <time>2016-07-30T06:22:33.117Z</time>
      </trkpt>
      <trkpt lat="43.169" lon="5.90031">
        <ele>258</ele>
        <time>2016-07-30T06:22:34.117Z</time>
      </trkpt>
      <trkpt lat="43.16902" lon="5.90027">
        <ele>258</ele>
        <time>2016-07-30T06:22:35.117Z</time>
      </trkpt>
      <trkpt lat="43.16904" lon="5.90023">
        <ele>259</ele>
        <time>2016-07-30T06:22:36.117Z</time>
      </trkpt>
      <trkpt lat="43.16906" lon="5.90019">
        <ele>259</ele>
        <time>2016-07-30T06:22:37.117Z</time>
      </trkpt>
      <trkpt lat="43.16909" lon="5.90015">
        <ele>259</ele>
        <time>2016-07-30T06:22:38.117Z</time>
      </trkpt>
      <trkpt lat="43.16911" lon="5.90011">
        <ele>260</ele>
        <time>2016-07-30T06:22:39.117Z</time>
      </trkpt>
      <trkpt lat="43.16913" lon="5.90008">
        <ele>260</ele>
        <time>2016-07-30T06:22:40.117Z</time>
      </trkpt>
      <trkpt lat="43.16915" lon="5.90004">
        <ele>261</ele>
        <time>2016-07-30T06:22:41.117Z</time>
      </trkpt>
      <trkpt lat="43.16917" lon="5.9">
        <ele>261</ele>
        <time>2016-07-30T06:22:42.117Z</time>
      </trkpt>
      <trkpt lat="43.1692" lon="5.89996">
        <ele>262</ele>
        <time>2016-07-30T06:22:43.117Z</time>
      </trkpt>
      <trkpt lat="43.16922" lon="5.89992">
        <ele>262</ele>
        <time>2016-07-30T06:22:44.117Z</time>
      </trkpt>
      <trkpt lat="43.16924" lon="5.89988">
        <ele>262</ele>
        <time>2016-07-30T06:22:45.117Z</time>
      </trkpt>
      <trkpt lat="43.16926" lon="5.89984">
        <ele>263</ele>
        <time>2016-07-30T06:22:46.117Z</time>
      </trkpt>
      <trkpt lat="43.16928" lon="5.8998">
        <ele>263</ele>
        <time>2016-07-30T06:22:47.117Z</time>
      </trkpt>
      <trkpt lat="43.1693" lon="5.89976">
        <ele>263</ele>
        <time>2016-07-30T06:22:48.117Z</time>
      </trkpt>
      <trkpt lat="43.16932" lon="5.89972">
        <ele>263</ele>
        <time>2016-07-30T06:22:49.117Z</time>
      </trkpt>
      <trkpt lat="43.16934" lon="5.89968">
        <ele>264</ele>
        <time>2016-07-30T06:22:50.117Z</time>
      </trkpt>
      <trkpt lat="43.16936" lon="5.89964">
        <ele>264</ele>
        <time>2016-07-30T06:22:51.117Z</time>
      </trkpt>
      <trkpt lat="43.16938" lon="5.89961">
        <ele>265</ele>
        <time>2016-07-30T06:22:52.117Z</time>
      </trkpt>
      <trkpt lat="43.1694" lon="5.89957">
        <ele>264</ele>
        <time>2016-07-30T06:22:53.117Z</time>
      </trkpt>
      <trkpt lat="43.16942" lon="5.89953">
        <ele>265</ele>
        <time>2016-07-30T06:22:54.117Z</time>
      </trkpt>
      <trkpt lat="43.16944" lon="5.89949">
        <ele>264</ele>
        <time>2016-07-30T06:22:55.117Z</time>
      </trkpt>
      <trkpt lat="43.16946" lon="5.89945">
        <ele>264</ele>
        <time>2016-07-30T06:22:56.117Z</time>
      </trkpt>
      <trkpt lat="43.16948" lon="5.8994">
        <ele>264</ele>
        <time>2016-07-30T06:22:57.117Z</time>
      </trkpt>
      <trkpt lat="43.1695" lon="5.89936">
        <ele>264</ele>
        <time>2016-07-30T06:22:58.117Z</time>
      </trkpt>
      <trkpt lat="43.16951" lon="5.89932">
        <ele>264</ele>
        <time>2016-07-30T06:22:59.117Z</time>
      </trkpt>
      <trkpt lat="43.16953" lon="5.89927">
        <ele>264</ele>
        <time>2016-07-30T06:23:00.117Z</time>
      </trkpt>
      <trkpt lat="43.16955" lon="5.89923">
        <ele>264</ele>
        <time>2016-07-30T06:23:01.117Z</time>
      </trkpt>
      <trkpt lat="43.16956" lon="5.89918">
        <ele>263</ele>
        <time>2016-07-30T06:23:02.117Z</time>
      </trkpt>
      <trkpt lat="43.16958" lon="5.89913">
        <ele>264</ele>
        <time>2016-07-30T06:23:03.117Z</time>
      </trkpt>
      <trkpt lat="43.16959" lon="5.89909">
        <ele>264</ele>
        <time>2016-07-30T06:23:04.117Z</time>
      </trkpt>
      <trkpt lat="43.16961" lon="5.89904">
        <ele>264</ele>
        <time>2016-07-30T06:23:05.117Z</time>
      </trkpt>
      <trkpt lat="43.16963" lon="5.899">
        <ele>264</ele>
        <time>2016-07-30T06:23:06.117Z</time>
      </trkpt>
      <trkpt lat="43.16964" lon="5.89896">
        <ele>264</ele>
        <time>2016-07-30T06:23:07.117Z</time>
      </trkpt>
      <trkpt lat="43.16966" lon="5.89892">
        <ele>264</ele>
        <time>2016-07-30T06:23:08.117Z</time>
      </trkpt>
      <trkpt lat="43.16967" lon="5.89887">
        <ele>265</ele>
        <time>2016-07-30T06:23:09.117Z</time>
      </trkpt>
      <trkpt lat="43.16968" lon="5.89883">
        <ele>265</ele>
        <time>2016-07-30T06:23:10.117Z</time>
      </trkpt>
      <trkpt lat="43.16969" lon="5.89879">
        <ele>266</ele>
        <time>2016-07-30T06:23:11.117Z</time>
      </trkpt>
      <trkpt lat="43.1697" lon="5.89874">
        <ele>267</ele>
        <time>2016-07-30T06:23:12.117Z</time>
      </trkpt>
      <trkpt lat="43.16971" lon="5.89869">
        <ele>267</ele>
        <time>2016-07-30T06:23:13.117Z</time>
      </trkpt>
      <trkpt lat="43.16972" lon="5.89865">
        <ele>268</ele>
        <time>2016-07-30T06:23:14.117Z</time>
      </trkpt>
      <trkpt lat="43.16973" lon="5.8986">
        <ele>268</ele>
        <time>2016-07-30T06:23:15.117Z</time>
      </trkpt>
      <trkpt lat="43.16974" lon="5.89856">
        <ele>269</ele>
        <time>2016-07-30T06:23:16.117Z</time>
      </trkpt>
      <trkpt lat="43.16975" lon="5.89852">
        <ele>269</ele>
        <time>2016-07-30T06:23:17.117Z</time>
      </trkpt>
      <trkpt lat="43.16976" lon="5.89847">
        <ele>270</ele>
        <time>2016-07-30T06:23:18.117Z</time>
      </trkpt>
      <trkpt lat="43.16976" lon="5.89843">
        <ele>270</ele>
        <time>2016-07-30T06:23:19.117Z</time>
      </trkpt>
      <trkpt lat="43.16976" lon="5.89838">
        <ele>271</ele>
        <time>2016-07-30T06:23:20.117Z</time>
      </trkpt>
      <trkpt lat="43.16976" lon="5.89833">
        <ele>271</ele>
        <time>2016-07-30T06:23:21.117Z</time>
      </trkpt>
      <trkpt lat="43.16977" lon="5.89829">
        <ele>271</ele>
        <time>2016-07-30T06:23:22.117Z</time>
      </trkpt>
      <trkpt lat="43.16977" lon="5.89824">
        <ele>271</ele>
        <time>2016-07-30T06:23:23.117Z</time>
      </trkpt>
      <trkpt lat="43.16978" lon="5.8982">
        <ele>271</ele>
        <time>2016-07-30T06:23:24.117Z</time>
      </trkpt>
      <trkpt lat="43.16978" lon="5.89815">
        <ele>272</ele>
        <time>2016-07-30T06:23:25.117Z</time>
      </trkpt>
      <trkpt lat="43.16979" lon="5.89811">
        <ele>272</ele>
        <time>2016-07-30T06:23:26.117Z</time>
      </trkpt>
      <trkpt lat="43.16979" lon="5.89806">
        <ele>272</ele>
        <time>2016-07-30T06:23:27.117Z</time>
      </trkpt>
      <trkpt lat="43.16979" lon="5.89801">
        <ele>272</ele>
        <time>2016-07-30T06:23:28.117Z</time>
      </trkpt>
      <trkpt lat="43.16979" lon="5.89797">
        <ele>272</ele>
        <time>2016-07-30T06:23:29.117Z</time>
      </trkpt>
      <trkpt lat="43.16979" lon="5.89792">
        <ele>272</ele>
        <time>2016-07-30T06:23:30.117Z</time>
      </trkpt>
      <trkpt lat="43.16979" lon="5.89787">
        <ele>273</ele>
        <time>2016-07-30T06:23:31.117Z</time>
      </trkpt>
      <trkpt lat="43.1698" lon="5.89782">
        <ele>272</ele>
        <time>2016-07-30T06:23:32.117Z</time>
      </trkpt>
      <trkpt lat="43.1698" lon="5.89777">
        <ele>273</ele>
        <time>2016-07-30T06:23:33.117Z</time>
      </trkpt>
      <trkpt lat="43.16981" lon="5.89772">
        <ele>273</ele>
        <time>2016-07-30T06:23:34.117Z</time>
      </trkpt>
      <trkpt lat="43.16981" lon="5.89768">
        <ele>273</ele>
        <time>2016-07-30T06:23:35.117Z</time>
      </trkpt>
      <trkpt lat="43.16982" lon="5.89763">
        <ele>273</ele>
        <time>2016-07-30T06:23:36.117Z</time>
      </trkpt>
      <trkpt lat="43.16982" lon="5.89759">
        <ele>273</ele>
        <time>2016-07-30T06:23:37.117Z</time>
      </trkpt>
      <trkpt lat="43.16982" lon="5.89754">
        <ele>272</ele>
        <time>2016-07-30T06:23:38.117Z</time>
      </trkpt>
      <trkpt lat="43.16982" lon="5.8975">
        <ele>273</ele>
        <time>2016-07-30T06:23:39.117Z</time>
      </trkpt>
      <trkpt lat="43.16981" lon="5.89745">
        <ele>273</ele>
        <time>2016-07-30T06:23:40.117Z</time>
      </trkpt>
      <trkpt lat="43.1698" lon="5.89741">
        <ele>274</ele>
        <time>2016-07-30T06:23:41.117Z</time>
      </trkpt>
      <trkpt lat="43.16977" lon="5.89737">
        <ele>274</ele>
        <time>2016-07-30T06:23:42.117Z</time>
      </trkpt>
      <trkpt lat="43.16974" lon="5.89733">
        <ele>274</ele>
        <time>2016-07-30T06:23:43.117Z</time>
      </trkpt>
      <trkpt lat="43.16971" lon="5.8973">
        <ele>274</ele>
        <time>2016-07-30T06:23:44.117Z</time>
      </trkpt>
      <trkpt lat="43.16969" lon="5.89726">
        <ele>273</ele>
        <time>2016-07-30T06:23:45.117Z</time>
      </trkpt>
      <trkpt lat="43.16966" lon="5.89723">
        <ele>273</ele>
        <time>2016-07-30T06:23:46.117Z</time>
      </trkpt>
      <trkpt lat="43.16964" lon="5.89719">
        <ele>272</ele>
        <time>2016-07-30T06:23:47.117Z</time>
      </trkpt>
      <trkpt lat="43.16961" lon="5.89716">
        <ele>273</ele>
        <time>2016-07-30T06:23:48.117Z</time>
      </trkpt>
      <trkpt lat="43.16959" lon="5.89712">
        <ele>273</ele>
        <time>2016-07-30T06:23:49.117Z</time>
      </trkpt>
      <trkpt lat="43.16957" lon="5.89709">
        <ele>273</ele>
        <time>2016-07-30T06:23:50.117Z</time>
      </trkpt>
      <trkpt lat="43.16956" lon="5.89705">
        <ele>273</ele>
        <time>2016-07-30T06:23:51.117Z</time>
      </trkpt>
      <trkpt lat="43.16955" lon="5.89701">
        <ele>273</ele>
        <time>2016-07-30T06:23:52.117Z</time>
      </trkpt>
      <trkpt lat="43.16953" lon="5.89697">
        <ele>273</ele>
        <time>2016-07-30T06:23:53.117Z</time>
      </trkpt>
      <trkpt lat="43.16952" lon="5.89693">
        <ele>273</ele>
        <time>2016-07-30T06:23:54.117Z</time>
      </trkpt>
      <trkpt lat="43.1695" lon="5.89689">
        <ele>273</ele>
        <time>2016-07-30T06:23:55.117Z</time>
      </trkpt>
      <trkpt lat="43.16949" lon="5.89685">
        <ele>273</ele>
        <time>2016-07-30T06:23:56.117Z</time>
      </trkpt>
      <trkpt lat="43.16947" lon="5.89682">
        <ele>273</ele>
        <time>2016-07-30T06:23:57.117Z</time>
      </trkpt>
      <trkpt lat="43.16945" lon="5.89678">
        <ele>273</ele>
        <time>2016-07-30T06:23:58.117Z</time>
      </trkpt>
      <trkpt lat="43.16943" lon="5.89674">
        <ele>273</ele>
        <time>2016-07-30T06:23:59.117Z</time>
      </trkpt>
      <trkpt lat="43.16941" lon="5.8967">
        <ele>273</ele>
        <time>2016-07-30T06:24:00.117Z</time>
      </trkpt>
      <trkpt lat="43.1694" lon="5.89666">
        <ele>272</ele>
        <time>2016-07-30T06:24:01.117Z</time>
      </trkpt>
      <trkpt lat="43.1694" lon="5.89661">
        <ele>273</ele>
        <time>2016-07-30T06:24:02.117Z</time>
      </trkpt>
      <trkpt lat="43.16942" lon="5.89657">
        <ele>273</ele>
        <time>2016-07-30T06:24:03.117Z</time>
      </trkpt>
      <trkpt lat="43.16944" lon="5.89652">
        <ele>274</ele>
        <time>2016-07-30T06:24:04.117Z</time>
      </trkpt>
      <trkpt lat="43.16946" lon="5.89648">
        <ele>274</ele>
        <time>2016-07-30T06:24:05.117Z</time>
      </trkpt>
      <trkpt lat="43.16948" lon="5.89646">
        <ele>275</ele>
        <time>2016-07-30T06:24:06.117Z</time>
      </trkpt>
      <trkpt lat="43.16951" lon="5.89646">
        <ele>273</ele>
        <time>2016-07-30T06:24:07.117Z</time>
      </trkpt>
      <trkpt lat="43.16954" lon="5.89648">
        <ele>272</ele>
        <time>2016-07-30T06:24:08.117Z</time>
      </trkpt>
      <trkpt lat="43.16957" lon="5.8965">
        <ele>271</ele>
        <time>2016-07-30T06:24:09.117Z</time>
      </trkpt>
      <trkpt lat="43.1696" lon="5.89652">
        <ele>270</ele>
        <time>2016-07-30T06:24:10.117Z</time>
      </trkpt>
      <trkpt lat="43.16962" lon="5.89654">
        <ele>270</ele>
        <time>2016-07-30T06:24:11.117Z</time>
      </trkpt>
      <trkpt lat="43.16964" lon="5.89658">
        <ele>269</ele>
        <time>2016-07-30T06:24:12.117Z</time>
      </trkpt>
      <trkpt lat="43.16966" lon="5.89662">
        <ele>270</ele>
        <time>2016-07-30T06:24:13.117Z</time>
      </trkpt>
      <trkpt lat="43.16966" lon="5.89666">
        <ele>269</ele>
        <time>2016-07-30T06:24:14.117Z</time>
      </trkpt>
      <trkpt lat="43.16967" lon="5.8967">
        <ele>270</ele>
        <time>2016-07-30T06:24:15.117Z</time>
      </trkpt>
      <trkpt lat="43.16967" lon="5.89675">
        <ele>270</ele>
        <time>2016-07-30T06:24:16.117Z</time>
      </trkpt>
      <trkpt lat="43.16967" lon="5.8968">
        <ele>270</ele>
        <time>2016-07-30T06:24:17.117Z</time>
      </trkpt>
      <trkpt lat="43.16967" lon="5.89685">
        <ele>270</ele>
        <time>2016-07-30T06:24:18.117Z</time>
      </trkpt>
      <trkpt lat="43.16967" lon="5.89689">
        <ele>271</ele>
        <time>2016-07-30T06:24:19.117Z</time>
      </trkpt>
      <trkpt lat="43.16969" lon="5.89693">
        <ele>271</ele>
        <time>2016-07-30T06:24:20.117Z</time>
      </trkpt>
      <trkpt lat="43.1697" lon="5.89697">
        <ele>272</ele>
        <time>2016-07-30T06:24:21.117Z</time>
      </trkpt>
      <trkpt lat="43.16972" lon="5.89701">
        <ele>272</ele>
        <time>2016-07-30T06:24:22.117Z</time>
      </trkpt>
      <trkpt lat="43.16974" lon="5.89704">
        <ele>273</ele>
        <time>2016-07-30T06:24:23.117Z</time>
      </trkpt>
      <trkpt lat="43.16976" lon="5.89707">
        <ele>273</ele>
        <time>2016-07-30T06:24:24.117Z</time>
      </trkpt>
      <trkpt lat="43.16978" lon="5.8971">
        <ele>274</ele>
        <time>2016-07-30T06:24:25.117Z</time>
      </trkpt>
      <trkpt lat="43.16981" lon="5.89713">
        <ele>275</ele>
        <time>2016-07-30T06:24:26.117Z</time>
      </trkpt>
      <trkpt lat="43.16983" lon="5.89715">
        <ele>275</ele>
        <time>2016-07-30T06:24:27.117Z</time>
      </trkpt>
      <trkpt lat="43.16986" lon="5.89717">
        <ele>276</ele>
        <time>2016-07-30T06:24:28.117Z</time>
      </trkpt>
      <trkpt lat="43.16988" lon="5.8972">
        <ele>276</ele>
        <time>2016-07-30T06:24:29.117Z</time>
      </trkpt>
      <trkpt lat="43.16991" lon="5.89723">
        <ele>276</ele>
        <time>2016-07-30T06:24:30.117Z</time>
      </trkpt>
      <trkpt lat="43.16993" lon="5.89726">
        <ele>277</ele>
        <time>2016-07-30T06:24:31.117Z</time>
      </trkpt>
      <trkpt lat="43.16995" lon="5.8973">
        <ele>277</ele>
        <time>2016-07-30T06:24:32.117Z</time>
      </trkpt>
      <trkpt lat="43.16997" lon="5.89734">
        <ele>277</ele>
        <time>2016-07-30T06:24:33.117Z</time>
      </trkpt>
      <trkpt lat="43.16999" lon="5.89737">
        <ele>277</ele>
        <time>2016-07-30T06:24:34.117Z</time>
      </trkpt>
      <trkpt lat="43.17" lon="5.89741">
        <ele>278</ele>
        <time>2016-07-30T06:24:35.117Z</time>
      </trkpt>
      <trkpt lat="43.17002" lon="5.89746">
        <ele>278</ele>
        <time>2016-07-30T06:24:36.117Z</time>
      </trkpt>
      <trkpt lat="43.17003" lon="5.8975">
        <ele>278</ele>
        <time>2016-07-30T06:24:37.117Z</time>
      </trkpt>
      <trkpt lat="43.17005" lon="5.89754">
        <ele>279</ele>
        <time>2016-07-30T06:24:38.117Z</time>
      </trkpt>
      <trkpt lat="43.17006" lon="5.89759">
        <ele>279</ele>
        <time>2016-07-30T06:24:39.117Z</time>
      </trkpt>
      <trkpt lat="43.17006" lon="5.89764">
        <ele>279</ele>
        <time>2016-07-30T06:24:40.117Z</time>
      </trkpt>
      <trkpt lat="43.17005" lon="5.89769">
        <ele>278</ele>
        <time>2016-07-30T06:24:41.117Z</time>
      </trkpt>
      <trkpt lat="43.17004" lon="5.89774">
        <ele>278</ele>
        <time>2016-07-30T06:24:42.117Z</time>
      </trkpt>
      <trkpt lat="43.17004" lon="5.89779">
        <ele>278</ele>
        <time>2016-07-30T06:24:43.117Z</time>
      </trkpt>
      <trkpt lat="43.17003" lon="5.89784">
        <ele>278</ele>
        <time>2016-07-30T06:24:44.117Z</time>
      </trkpt>
      <trkpt lat="43.17004" lon="5.89789">
        <ele>279</ele>
        <time>2016-07-30T06:24:45.117Z</time>
      </trkpt>
      <trkpt lat="43.17004" lon="5.89795">
        <ele>279</ele>
        <time>2016-07-30T06:24:46.117Z</time>
      </trkpt>
      <trkpt lat="43.17004" lon="5.89801">
        <ele>280</ele>
        <time>2016-07-30T06:24:47.117Z</time>
      </trkpt>
      <trkpt lat="43.17003" lon="5.89806">
        <ele>280</ele>
        <time>2016-07-30T06:24:48.117Z</time>
      </trkpt>
      <trkpt lat="43.17003" lon="5.89812">
        <ele>280</ele>
        <time>2016-07-30T06:24:49.117Z</time>
      </trkpt>
      <trkpt lat="43.17004" lon="5.89817">
        <ele>280</ele>
        <time>2016-07-30T06:24:50.117Z</time>
      </trkpt>
      <trkpt lat="43.17004" lon="5.89822">
        <ele>280</ele>
        <time>2016-07-30T06:24:51.117Z</time>
      </trkpt>
      <trkpt lat="43.17005" lon="5.89828">
        <ele>280</ele>
        <time>2016-07-30T06:24:52.117Z</time>
      </trkpt>
      <trkpt lat="43.17005" lon="5.89833">
        <ele>281</ele>
        <time>2016-07-30T06:24:53.117Z</time>
      </trkpt>
      <trkpt lat="43.17006" lon="5.89838">
        <ele>281</ele>
        <time>2016-07-30T06:24:54.117Z</time>
      </trkpt>
      <trkpt lat="43.17006" lon="5.89843">
        <ele>281</ele>
        <time>2016-07-30T06:24:55.117Z</time>
      </trkpt>
      <trkpt lat="43.17007" lon="5.89848">
        <ele>282</ele>
        <time>2016-07-30T06:24:56.117Z</time>
      </trkpt>
      <trkpt lat="43.17008" lon="5.89853">
        <ele>282</ele>
        <time>2016-07-30T06:24:57.117Z</time>
      </trkpt>
      <trkpt lat="43.17008" lon="5.89858">
        <ele>282</ele>
        <time>2016-07-30T06:24:58.117Z</time>
      </trkpt>
      <trkpt lat="43.17009" lon="5.89863">
        <ele>283</ele>
        <time>2016-07-30T06:24:59.117Z</time>
      </trkpt>
      <trkpt lat="43.17009" lon="5.89868">
        <ele>283</ele>
        <time>2016-07-30T06:25:00.117Z</time>
      </trkpt>
      <trkpt lat="43.17009" lon="5.89873">
        <ele>283</ele>
        <time>2016-07-30T06:25:01.117Z</time>
      </trkpt>
      <trkpt lat="43.17009" lon="5.89879">
        <ele>284</ele>
        <time>2016-07-30T06:25:02.117Z</time>
      </trkpt>
      <trkpt lat="43.17008" lon="5.89884">
        <ele>284</ele>
        <time>2016-07-30T06:25:03.117Z</time>
      </trkpt>
      <trkpt lat="43.17007" lon="5.89889">
        <ele>283</ele>
        <time>2016-07-30T06:25:04.117Z</time>
      </trkpt>
      <trkpt lat="43.17006" lon="5.89894">
        <ele>283</ele>
        <time>2016-07-30T06:25:05.117Z</time>
      </trkpt>
      <trkpt lat="43.17005" lon="5.89898">
        <ele>283</ele>
        <time>2016-07-30T06:25:06.117Z</time>
      </trkpt>
      <trkpt lat="43.17003" lon="5.89903">
        <ele>283</ele>
        <time>2016-07-30T06:25:07.117Z</time>
      </trkpt>
      <trkpt lat="43.17001" lon="5.89907">
        <ele>283</ele>
        <time>2016-07-30T06:25:08.117Z</time>
      </trkpt>
      <trkpt lat="43.16999" lon="5.89911">
        <ele>282</ele>
        <time>2016-07-30T06:25:09.117Z</time>
      </trkpt>
      <trkpt lat="43.16997" lon="5.89915">
        <ele>282</ele>
        <time>2016-07-30T06:25:10.117Z</time>
      </trkpt>
      <trkpt lat="43.16994" lon="5.89919">
        <ele>283</ele>
        <time>2016-07-30T06:25:11.117Z</time>
      </trkpt>
      <trkpt lat="43.16992" lon="5.89924">
        <ele>284</ele>
        <time>2016-07-30T06:25:12.117Z</time>
      </trkpt>
      <trkpt lat="43.16991" lon="5.89929">
        <ele>283</ele>
        <time>2016-07-30T06:25:13.117Z</time>
      </trkpt>
      <trkpt lat="43.16992" lon="5.89934">
        <ele>282</ele>
        <time>2016-07-30T06:25:14.117Z</time>
      </trkpt>
      <trkpt lat="43.16993" lon="5.89938">
        <ele>283</ele>
        <time>2016-07-30T06:25:15.117Z</time>
      </trkpt>
      <trkpt lat="43.16995" lon="5.89942">
        <ele>284</ele>
        <time>2016-07-30T06:25:16.117Z</time>
      </trkpt>
      <trkpt lat="43.16996" lon="5.89944">
        <ele>284</ele>
        <time>2016-07-30T06:25:17.117Z</time>
      </trkpt>
      <trkpt lat="43.16997" lon="5.89946">
        <ele>284</ele>
        <time>2016-07-30T06:25:18.117Z</time>
      </trkpt>
      <trkpt lat="43.16999" lon="5.89946">
        <ele>284</ele>
        <time>2016-07-30T06:25:19.117Z</time>
      </trkpt>
      <trkpt lat="43.17" lon="5.89944">
        <ele>284</ele>
        <time>2016-07-30T06:25:20.117Z</time>
      </trkpt>
      <trkpt lat="43.17002" lon="5.8994">
        <ele>286</ele>
        <time>2016-07-30T06:25:21.117Z</time>
      </trkpt>
      <trkpt lat="43.17003" lon="5.89935">
        <ele>287</ele>
        <time>2016-07-30T06:25:22.117Z</time>
      </trkpt>
      <trkpt lat="43.17004" lon="5.8993">
        <ele>287</ele>
        <time>2016-07-30T06:25:23.117Z</time>
      </trkpt>
      <trkpt lat="43.17005" lon="5.89925">
        <ele>286</ele>
        <time>2016-07-30T06:25:24.117Z</time>
      </trkpt>
      <trkpt lat="43.17006" lon="5.8992">
        <ele>286</ele>
        <time>2016-07-30T06:25:25.117Z</time>
      </trkpt>
      <trkpt lat="43.17008" lon="5.89916">
        <ele>285</ele>
        <time>2016-07-30T06:25:26.117Z</time>
      </trkpt>
      <trkpt lat="43.1701" lon="5.89911">
        <ele>285</ele>
        <time>2016-07-30T06:25:27.117Z</time>
      </trkpt>
      <trkpt lat="43.17011" lon="5.89905">
        <ele>285</ele>
        <time>2016-07-30T06:25:28.117Z</time>
      </trkpt>
      <trkpt lat="43.17013" lon="5.899">
        <ele>285</ele>
        <time>2016-07-30T06:25:29.117Z</time>
      </trkpt>
      <trkpt lat="43.17015" lon="5.89895">
        <ele>285</ele>
        <time>2016-07-30T06:25:30.117Z</time>
      </trkpt>
      <trkpt lat="43.17016" lon="5.89889">
        <ele>284</ele>
        <time>2016-07-30T06:25:31.117Z</time>
      </trkpt>
      <trkpt lat="43.17017" lon="5.89883">
        <ele>284</ele>
        <time>2016-07-30T06:25:32.117Z</time>
      </trkpt>
      <trkpt lat="43.17018" lon="5.89876">
        <ele>284</ele>
        <time>2016-07-30T06:25:33.117Z</time>
      </trkpt>
      <trkpt lat="43.17018" lon="5.89869">
        <ele>285</ele>
        <time>2016-07-30T06:25:34.117Z</time>
      </trkpt>
      <trkpt lat="43.17017" lon="5.89863">
        <ele>287</ele>
        <time>2016-07-30T06:25:35.117Z</time>
      </trkpt>
      <trkpt lat="43.17016" lon="5.89857">
        <ele>287</ele>
        <time>2016-07-30T06:25:36.117Z</time>
      </trkpt>
      <trkpt lat="43.17016" lon="5.89851">
        <ele>288</ele>
        <time>2016-07-30T06:25:37.117Z</time>
      </trkpt>
      <trkpt lat="43.17015" lon="5.89846">
        <ele>288</ele>
        <time>2016-07-30T06:25:38.117Z</time>
      </trkpt>
      <trkpt lat="43.17013" lon="5.8984">
        <ele>288</ele>
        <time>2016-07-30T06:25:39.117Z</time>
      </trkpt>
      <trkpt lat="43.17012" lon="5.89835">
        <ele>288</ele>
        <time>2016-07-30T06:25:40.117Z</time>
      </trkpt>
      <trkpt lat="43.17012" lon="5.89829">
        <ele>289</ele>
        <time>2016-07-30T06:25:41.117Z</time>
      </trkpt>
      <trkpt lat="43.17012" lon="5.89823">
        <ele>289</ele>
        <time>2016-07-30T06:25:42.117Z</time>
      </trkpt>
      <trkpt lat="43.17012" lon="5.89817">
        <ele>290</ele>
        <time>2016-07-30T06:25:43.117Z</time>
      </trkpt>
      <trkpt lat="43.17012" lon="5.89811">
        <ele>292</ele>
        <time>2016-07-30T06:25:44.117Z</time>
      </trkpt>
      <trkpt lat="43.17013" lon="5.89805">
        <ele>292</ele>
        <time>2016-07-30T06:25:45.117Z</time>
      </trkpt>
      <trkpt lat="43.17014" lon="5.89799">
        <ele>293</ele>
        <time>2016-07-30T06:25:46.117Z</time>
      </trkpt>
      <trkpt lat="43.17015" lon="5.89793">
        <ele>293</ele>
        <time>2016-07-30T06:25:47.117Z</time>
      </trkpt>
      <trkpt lat="43.17017" lon="5.89788">
        <ele>294</ele>
        <time>2016-07-30T06:25:48.117Z</time>
      </trkpt>
      <trkpt lat="43.17019" lon="5.89783">
        <ele>295</ele>
        <time>2016-07-30T06:25:49.117Z</time>
      </trkpt>
      <trkpt lat="43.17021" lon="5.89778">
        <ele>295</ele>
        <time>2016-07-30T06:25:50.117Z</time>
      </trkpt>
      <trkpt lat="43.17022" lon="5.89773">
        <ele>296</ele>
        <time>2016-07-30T06:25:51.117Z</time>
      </trkpt>
      <trkpt lat="43.17024" lon="5.89768">
        <ele>296</ele>
        <time>2016-07-30T06:25:52.117Z</time>
      </trkpt>
      <trkpt lat="43.17025" lon="5.89763">
        <ele>297</ele>
        <time>2016-07-30T06:25:53.117Z</time>
      </trkpt>
      <trkpt lat="43.17026" lon="5.89758">
        <ele>297</ele>
        <time>2016-07-30T06:25:54.117Z</time>
      </trkpt>
      <trkpt lat="43.17027" lon="5.89752">
        <ele>297</ele>
        <time>2016-07-30T06:25:55.117Z</time>
      </trkpt>
      <trkpt lat="43.17026" lon="5.89748">
        <ele>299</ele>
        <time>2016-07-30T06:25:56.117Z</time>
      </trkpt>
      <trkpt lat="43.17025" lon="5.89743">
        <ele>299</ele>
        <time>2016-07-30T06:25:57.117Z</time>
      </trkpt>
      <trkpt lat="43.17023" lon="5.89738">
        <ele>299</ele>
        <time>2016-07-30T06:25:58.117Z</time>
      </trkpt>
      <trkpt lat="43.17022" lon="5.89734">
        <ele>297</ele>
        <time>2016-07-30T06:25:59.117Z</time>
      </trkpt>
      <trkpt lat="43.17022" lon="5.89729">
        <ele>298</ele>
        <time>2016-07-30T06:26:00.117Z</time>
      </trkpt>
      <trkpt lat="43.17021" lon="5.89724">
        <ele>298</ele>
        <time>2016-07-30T06:26:01.117Z</time>
      </trkpt>
      <trkpt lat="43.1702" lon="5.8972">
        <ele>298</ele>
        <time>2016-07-30T06:26:02.117Z</time>
      </trkpt>
      <trkpt lat="43.17018" lon="5.89715">
        <ele>298</ele>
        <time>2016-07-30T06:26:03.117Z</time>
      </trkpt>
      <trkpt lat="43.17017" lon="5.89711">
        <ele>298</ele>
        <time>2016-07-30T06:26:04.117Z</time>
      </trkpt>
      <trkpt lat="43.17016" lon="5.89706">
        <ele>298</ele>
        <time>2016-07-30T06:26:05.117Z</time>
      </trkpt>
      <trkpt lat="43.17015" lon="5.89702">
        <ele>298</ele>
        <time>2016-07-30T06:26:06.117Z</time>
      </trkpt>
      <trkpt lat="43.17014" lon="5.89697">
        <ele>298</ele>
        <time>2016-07-30T06:26:07.117Z</time>
      </trkpt>
      <trkpt lat="43.17012" lon="5.89693">
        <ele>299</ele>
        <time>2016-07-30T06:26:08.117Z</time>
      </trkpt>
      <trkpt lat="43.17011" lon="5.89688">
        <ele>299</ele>
        <time>2016-07-30T06:26:09.117Z</time>
      </trkpt>
      <trkpt lat="43.17009" lon="5.89684">
        <ele>299</ele>
        <time>2016-07-30T06:26:10.117Z</time>
      </trkpt>
      <trkpt lat="43.17008" lon="5.89679">
        <ele>299</ele>
        <time>2016-07-30T06:26:11.117Z</time>
      </trkpt>
      <trkpt lat="43.17007" lon="5.89675">
        <ele>299</ele>
        <time>2016-07-30T06:26:12.117Z</time>
      </trkpt>
      <trkpt lat="43.17007" lon="5.8967">
        <ele>299</ele>
        <time>2016-07-30T06:26:13.117Z</time>
      </trkpt>
      <trkpt lat="43.17008" lon="5.89665">
        <ele>300</ele>
        <time>2016-07-30T06:26:14.117Z</time>
      </trkpt>
      <trkpt lat="43.17008" lon="5.8966">
        <ele>300</ele>
        <time>2016-07-30T06:26:15.117Z</time>
      </trkpt>
      <trkpt lat="43.17009" lon="5.89655">
        <ele>301</ele>
        <time>2016-07-30T06:26:16.117Z</time>
      </trkpt>
      <trkpt lat="43.17009" lon="5.89651">
        <ele>301</ele>
        <time>2016-07-30T06:26:17.117Z</time>
      </trkpt>
      <trkpt lat="43.1701" lon="5.89647">
        <ele>301</ele>
        <time>2016-07-30T06:26:18.117Z</time>
      </trkpt>
      <trkpt lat="43.17011" lon="5.89643">
        <ele>301</ele>
        <time>2016-07-30T06:26:19.117Z</time>
      </trkpt>
      <trkpt lat="43.17013" lon="5.89638">
        <ele>302</ele>
        <time>2016-07-30T06:26:20.117Z</time>
      </trkpt>
      <trkpt lat="43.17014" lon="5.89634">
        <ele>302</ele>
        <time>2016-07-30T06:26:21.117Z</time>
      </trkpt>
      <trkpt lat="43.17016" lon="5.89629">
        <ele>302</ele>
        <time>2016-07-30T06:26:22.117Z</time>
      </trkpt>
      <trkpt lat="43.17018" lon="5.89624">
        <ele>302</ele>
        <time>2016-07-30T06:26:23.117Z</time>
      </trkpt>
      <trkpt lat="43.17019" lon="5.8962">
        <ele>302</ele>
        <time>2016-07-30T06:26:24.117Z</time>
      </trkpt>
      <trkpt lat="43.17021" lon="5.89616">
        <ele>303</ele>
        <time>2016-07-30T06:26:25.117Z</time>
      </trkpt>
      <trkpt lat="43.17022" lon="5.89611">
        <ele>303</ele>
        <time>2016-07-30T06:26:26.117Z</time>
      </trkpt>
      <trkpt lat="43.17022" lon="5.89607">
        <ele>303</ele>
        <time>2016-07-30T06:26:27.117Z</time>
      </trkpt>
      <trkpt lat="43.17022" lon="5.89603">
        <ele>302</ele>
        <time>2016-07-30T06:26:28.117Z</time>
      </trkpt>
      <trkpt lat="43.17021" lon="5.89598">
        <ele>303</ele>
        <time>2016-07-30T06:26:29.117Z</time>
      </trkpt>
      <trkpt lat="43.17019" lon="5.89594">
        <ele>303</ele>
        <time>2016-07-30T06:26:30.117Z</time>
      </trkpt>
      <trkpt lat="43.17017" lon="5.8959">
        <ele>303</ele>
        <time>2016-07-30T06:26:31.117Z</time>
      </trkpt>
      <trkpt lat="43.17014" lon="5.89587">
        <ele>303</ele>
        <time>2016-07-30T06:26:32.117Z</time>
      </trkpt>
      <trkpt lat="43.17011" lon="5.89583">
        <ele>303</ele>
        <time>2016-07-30T06:26:33.117Z</time>
      </trkpt>
      <trkpt lat="43.17009" lon="5.89581">
        <ele>302</ele>
        <time>2016-07-30T06:26:34.117Z</time>
      </trkpt>
      <trkpt lat="43.17006" lon="5.89578">
        <ele>303</ele>
        <time>2016-07-30T06:26:35.117Z</time>
      </trkpt>
      <trkpt lat="43.17003" lon="5.89575">
        <ele>303</ele>
        <time>2016-07-30T06:26:36.117Z</time>
      </trkpt>
      <trkpt lat="43.17" lon="5.89573">
        <ele>304</ele>
        <time>2016-07-30T06:26:37.117Z</time>
      </trkpt>
      <trkpt lat="43.16997" lon="5.8957">
        <ele>305</ele>
        <time>2016-07-30T06:26:38.117Z</time>
      </trkpt>
      <trkpt lat="43.16994" lon="5.89568">
        <ele>304</ele>
        <time>2016-07-30T06:26:39.117Z</time>
      </trkpt>
      <trkpt lat="43.16992" lon="5.89564">
        <ele>305</ele>
        <time>2016-07-30T06:26:40.117Z</time>
      </trkpt>
      <trkpt lat="43.16989" lon="5.89561">
        <ele>305</ele>
        <time>2016-07-30T06:26:41.117Z</time>
      </trkpt>
      <trkpt lat="43.16989" lon="5.89561">
        <ele>305</ele>
        <time>2016-07-30T06:26:42.117Z</time>
      </trkpt>
      <trkpt lat="43.16987" lon="5.89556">
        <ele>306</ele>
        <time>2016-07-30T06:26:43.117Z</time>
      </trkpt>
      <trkpt lat="43.16985" lon="5.89551">
        <ele>305</ele>
        <time>2016-07-30T06:26:44.117Z</time>
      </trkpt>
      <trkpt lat="43.16984" lon="5.89546">
        <ele>305</ele>
        <time>2016-07-30T06:26:45.117Z</time>
      </trkpt>
      <trkpt lat="43.16983" lon="5.89541">
        <ele>305</ele>
        <time>2016-07-30T06:26:46.117Z</time>
      </trkpt>
      <trkpt lat="43.16983" lon="5.89536">
        <ele>305</ele>
        <time>2016-07-30T06:26:47.117Z</time>
      </trkpt>
      <trkpt lat="43.16983" lon="5.89531">
        <ele>306</ele>
        <time>2016-07-30T06:26:48.117Z</time>
      </trkpt>
      <trkpt lat="43.16982" lon="5.89526">
        <ele>306</ele>
        <time>2016-07-30T06:26:49.117Z</time>
      </trkpt>
      <trkpt lat="43.16982" lon="5.89522">
        <ele>306</ele>
        <time>2016-07-30T06:26:50.117Z</time>
      </trkpt>
      <trkpt lat="43.16981" lon="5.89517">
        <ele>307</ele>
        <time>2016-07-30T06:26:51.117Z</time>
      </trkpt>
      <trkpt lat="43.16981" lon="5.89513">
        <ele>307</ele>
        <time>2016-07-30T06:26:52.117Z</time>
      </trkpt>
      <trkpt lat="43.1698" lon="5.89508">
        <ele>307</ele>
        <time>2016-07-30T06:26:53.117Z</time>
      </trkpt>
      <trkpt lat="43.1698" lon="5.89504">
        <ele>307</ele>
        <time>2016-07-30T06:26:54.117Z</time>
      </trkpt>
      <trkpt lat="43.16979" lon="5.89499">
        <ele>308</ele>
        <time>2016-07-30T06:26:55.117Z</time>
      </trkpt>
      <trkpt lat="43.16979" lon="5.89495">
        <ele>308</ele>
        <time>2016-07-30T06:26:56.117Z</time>
      </trkpt>
      <trkpt lat="43.16979" lon="5.8949">
        <ele>308</ele>
        <time>2016-07-30T06:26:57.117Z</time>
      </trkpt>
      <trkpt lat="43.16978" lon="5.89486">
        <ele>308</ele>
        <time>2016-07-30T06:26:58.117Z</time>
      </trkpt>
      <trkpt lat="43.16978" lon="5.89481">
        <ele>309</ele>
        <time>2016-07-30T06:26:59.117Z</time>
      </trkpt>
      <trkpt lat="43.16978" lon="5.89477">
        <ele>309</ele>
        <time>2016-07-30T06:27:00.117Z</time>
      </trkpt>
      <trkpt lat="43.16978" lon="5.89472">
        <ele>309</ele>
        <time>2016-07-30T06:27:01.117Z</time>
      </trkpt>
      <trkpt lat="43.16977" lon="5.89467">
        <ele>308</ele>
        <time>2016-07-30T06:27:02.117Z</time>
      </trkpt>
      <trkpt lat="43.16977" lon="5.89462">
        <ele>308</ele>
        <time>2016-07-30T06:27:03.117Z</time>
      </trkpt>
      <trkpt lat="43.16977" lon="5.89457">
        <ele>308</ele>
        <time>2016-07-30T06:27:04.117Z</time>
      </trkpt>
      <trkpt lat="43.16977" lon="5.89452">
        <ele>309</ele>
        <time>2016-07-30T06:27:05.117Z</time>
      </trkpt>
      <trkpt lat="43.16977" lon="5.89447">
        <ele>308</ele>
        <time>2016-07-30T06:27:06.117Z</time>
      </trkpt>
      <trkpt lat="43.16977" lon="5.89442">
        <ele>309</ele>
        <time>2016-07-30T06:27:07.117Z</time>
      </trkpt>
      <trkpt lat="43.16977" lon="5.89437">
        <ele>309</ele>
        <time>2016-07-30T06:27:08.117Z</time>
      </trkpt>
      <trkpt lat="43.16976" lon="5.89433">
        <ele>309</ele>
        <time>2016-07-30T06:27:09.117Z</time>
      </trkpt>
      <trkpt lat="43.16976" lon="5.89428">
        <ele>310</ele>
        <time>2016-07-30T06:27:10.117Z</time>
      </trkpt>
      <trkpt lat="43.16976" lon="5.89423">
        <ele>310</ele>
        <time>2016-07-30T06:27:11.117Z</time>
      </trkpt>
      <trkpt lat="43.16976" lon="5.89418">
        <ele>310</ele>
        <time>2016-07-30T06:27:12.117Z</time>
      </trkpt>
      <trkpt lat="43.16977" lon="5.89413">
        <ele>310</ele>
        <time>2016-07-30T06:27:13.117Z</time>
      </trkpt>
      <trkpt lat="43.16977" lon="5.89408">
        <ele>310</ele>
        <time>2016-07-30T06:27:14.117Z</time>
      </trkpt>
      <trkpt lat="43.16977" lon="5.89403">
        <ele>310</ele>
        <time>2016-07-30T06:27:15.117Z</time>
      </trkpt>
      <trkpt lat="43.16978" lon="5.89398">
        <ele>310</ele>
        <time>2016-07-30T06:27:16.117Z</time>
      </trkpt>
      <trkpt lat="43.16978" lon="5.89393">
        <ele>310</ele>
        <time>2016-07-30T06:27:17.117Z</time>
      </trkpt>
      <trkpt lat="43.16978" lon="5.89387">
        <ele>309</ele>
        <time>2016-07-30T06:27:18.117Z</time>
      </trkpt>
      <trkpt lat="43.16979" lon="5.89382">
        <ele>309</ele>
        <time>2016-07-30T06:27:19.117Z</time>
      </trkpt>
      <trkpt lat="43.16979" lon="5.89377">
        <ele>309</ele>
        <time>2016-07-30T06:27:20.117Z</time>
      </trkpt>
      <trkpt lat="43.16979" lon="5.89372">
        <ele>309</ele>
        <time>2016-07-30T06:27:21.117Z</time>
      </trkpt>
      <trkpt lat="43.16979" lon="5.89367">
        <ele>309</ele>
        <time>2016-07-30T06:27:22.117Z</time>
      </trkpt>
      <trkpt lat="43.16979" lon="5.89362">
        <ele>309</ele>
        <time>2016-07-30T06:27:23.117Z</time>
      </trkpt>
      <trkpt lat="43.16979" lon="5.89357">
        <ele>309</ele>
        <time>2016-07-30T06:27:24.117Z</time>
      </trkpt>
      <trkpt lat="43.16979" lon="5.89352">
        <ele>309</ele>
        <time>2016-07-30T06:27:25.117Z</time>
      </trkpt>
      <trkpt lat="43.16979" lon="5.89347">
        <ele>309</ele>
        <time>2016-07-30T06:27:26.117Z</time>
      </trkpt>
      <trkpt lat="43.16979" lon="5.89342">
        <ele>308</ele>
        <time>2016-07-30T06:27:27.117Z</time>
      </trkpt>
      <trkpt lat="43.16979" lon="5.89337">
        <ele>308</ele>
        <time>2016-07-30T06:27:28.117Z</time>
      </trkpt>
      <trkpt lat="43.16979" lon="5.89332">
        <ele>308</ele>
        <time>2016-07-30T06:27:29.117Z</time>
      </trkpt>
      <trkpt lat="43.16979" lon="5.89327">
        <ele>307</ele>
        <time>2016-07-30T06:27:30.117Z</time>
      </trkpt>
      <trkpt lat="43.16979" lon="5.89322">
        <ele>306</ele>
        <time>2016-07-30T06:27:31.117Z</time>
      </trkpt>
      <trkpt lat="43.1698" lon="5.89317">
        <ele>306</ele>
        <time>2016-07-30T06:27:32.117Z</time>
      </trkpt>
      <trkpt lat="43.1698" lon="5.89312">
        <ele>306</ele>
        <time>2016-07-30T06:27:33.117Z</time>
      </trkpt>
      <trkpt lat="43.16981" lon="5.89307">
        <ele>307</ele>
        <time>2016-07-30T06:27:34.117Z</time>
      </trkpt>
      <trkpt lat="43.16981" lon="5.89302">
        <ele>308</ele>
        <time>2016-07-30T06:27:35.117Z</time>
      </trkpt>
      <trkpt lat="43.16981" lon="5.89297">
        <ele>308</ele>
        <time>2016-07-30T06:27:36.117Z</time>
      </trkpt>
      <trkpt lat="43.16981" lon="5.89292">
        <ele>308</ele>
        <time>2016-07-30T06:27:37.117Z</time>
      </trkpt>
      <trkpt lat="43.16981" lon="5.89287">
        <ele>307</ele>
        <time>2016-07-30T06:27:38.117Z</time>
      </trkpt>
      <trkpt lat="43.16981" lon="5.89283">
        <ele>307</ele>
        <time>2016-07-30T06:27:39.117Z</time>
      </trkpt>
      <trkpt lat="43.16981" lon="5.89278">
        <ele>305</ele>
        <time>2016-07-30T06:27:40.117Z</time>
      </trkpt>
      <trkpt lat="43.16981" lon="5.89273">
        <ele>304</ele>
        <time>2016-07-30T06:27:41.117Z</time>
      </trkpt>
      <trkpt lat="43.16981" lon="5.89269">
        <ele>303</ele>
        <time>2016-07-30T06:27:42.117Z</time>
      </trkpt>
      <trkpt lat="43.16982" lon="5.89264">
        <ele>302</ele>
        <time>2016-07-30T06:27:43.117Z</time>
      </trkpt>
      <trkpt lat="43.16982" lon="5.89259">
        <ele>301</ele>
        <time>2016-07-30T06:27:44.117Z</time>
      </trkpt>
      <trkpt lat="43.16982" lon="5.89254">
        <ele>300</ele>
        <time>2016-07-30T06:27:45.117Z</time>
      </trkpt>
      <trkpt lat="43.16982" lon="5.8925">
        <ele>299</ele>
        <time>2016-07-30T06:27:46.117Z</time>
      </trkpt>
      <trkpt lat="43.16983" lon="5.89245">
        <ele>299</ele>
        <time>2016-07-30T06:27:47.117Z</time>
      </trkpt>
      <trkpt lat="43.16983" lon="5.8924">
        <ele>299</ele>
        <time>2016-07-30T06:27:48.117Z</time>
      </trkpt>
      <trkpt lat="43.16983" lon="5.89234">
        <ele>300</ele>
        <time>2016-07-30T06:27:49.117Z</time>
      </trkpt>
      <trkpt lat="43.16983" lon="5.89229">
        <ele>300</ele>
        <time>2016-07-30T06:27:50.117Z</time>
      </trkpt>
      <trkpt lat="43.16983" lon="5.89224">
        <ele>301</ele>
        <time>2016-07-30T06:27:51.117Z</time>
      </trkpt>
      <trkpt lat="43.16983" lon="5.89219">
        <ele>301</ele>
        <time>2016-07-30T06:27:52.117Z</time>
      </trkpt>
      <trkpt lat="43.16983" lon="5.89213">
        <ele>302</ele>
        <time>2016-07-30T06:27:53.117Z</time>
      </trkpt>
      <trkpt lat="43.16983" lon="5.89208">
        <ele>302</ele>
        <time>2016-07-30T06:27:54.117Z</time>
      </trkpt>
      <trkpt lat="43.16983" lon="5.89203">
        <ele>302</ele>
        <time>2016-07-30T06:27:55.117Z</time>
      </trkpt>
      <trkpt lat="43.16983" lon="5.89198">
        <ele>303</ele>
        <time>2016-07-30T06:27:56.117Z</time>
      </trkpt>
      <trkpt lat="43.16983" lon="5.89193">
        <ele>302</ele>
        <time>2016-07-30T06:27:57.117Z</time>
      </trkpt>
      <trkpt lat="43.16982" lon="5.89189">
        <ele>303</ele>
        <time>2016-07-30T06:27:58.117Z</time>
      </trkpt>
      <trkpt lat="43.16982" lon="5.89184">
        <ele>303</ele>
        <time>2016-07-30T06:27:59.117Z</time>
      </trkpt>
      <trkpt lat="43.16982" lon="5.89179">
        <ele>303</ele>
        <time>2016-07-30T06:28:00.117Z</time>
      </trkpt>
      <trkpt lat="43.16983" lon="5.89173">
        <ele>303</ele>
        <time>2016-07-30T06:28:01.117Z</time>
      </trkpt>
      <trkpt lat="43.16982" lon="5.89169">
        <ele>302</ele>
        <time>2016-07-30T06:28:02.117Z</time>
      </trkpt>
      <trkpt lat="43.16982" lon="5.89164">
        <ele>301</ele>
        <time>2016-07-30T06:28:03.117Z</time>
      </trkpt>
      <trkpt lat="43.16982" lon="5.89159">
        <ele>302</ele>
        <time>2016-07-30T06:28:04.117Z</time>
      </trkpt>
      <trkpt lat="43.16982" lon="5.89154">
        <ele>302</ele>
        <time>2016-07-30T06:28:05.117Z</time>
      </trkpt>
      <trkpt lat="43.16982" lon="5.89149">
        <ele>303</ele>
        <time>2016-07-30T06:28:06.117Z</time>
      </trkpt>
      <trkpt lat="43.16981" lon="5.89144">
        <ele>303</ele>
        <time>2016-07-30T06:28:07.117Z</time>
      </trkpt>
      <trkpt lat="43.16982" lon="5.89138">
        <ele>304</ele>
        <time>2016-07-30T06:28:08.117Z</time>
      </trkpt>
      <trkpt lat="43.16982" lon="5.89133">
        <ele>304</ele>
        <time>2016-07-30T06:28:09.117Z</time>
      </trkpt>
      <trkpt lat="43.16982" lon="5.89127">
        <ele>306</ele>
        <time>2016-07-30T06:28:10.117Z</time>
      </trkpt>
      <trkpt lat="43.16982" lon="5.89122">
        <ele>307</ele>
        <time>2016-07-30T06:28:11.117Z</time>
      </trkpt>
      <trkpt lat="43.16982" lon="5.89116">
        <ele>309</ele>
        <time>2016-07-30T06:28:12.117Z</time>
      </trkpt>
      <trkpt lat="43.16982" lon="5.8911">
        <ele>310</ele>
        <time>2016-07-30T06:28:13.117Z</time>
      </trkpt>
      <trkpt lat="43.16982" lon="5.89105">
        <ele>311</ele>
        <time>2016-07-30T06:28:14.117Z</time>
      </trkpt>
      <trkpt lat="43.16981" lon="5.89099">
        <ele>312</ele>
        <time>2016-07-30T06:28:15.117Z</time>
      </trkpt>
      <trkpt lat="43.16981" lon="5.89093">
        <ele>313</ele>
        <time>2016-07-30T06:28:16.117Z</time>
      </trkpt>
      <trkpt lat="43.16981" lon="5.89087">
        <ele>314</ele>
        <time>2016-07-30T06:28:17.117Z</time>
      </trkpt>
      <trkpt lat="43.16981" lon="5.89082">
        <ele>315</ele>
        <time>2016-07-30T06:28:18.117Z</time>
      </trkpt>
      <trkpt lat="43.1698" lon="5.89076">
        <ele>317</ele>
        <time>2016-07-30T06:28:19.117Z</time>
      </trkpt>
      <trkpt lat="43.16979" lon="5.89071">
        <ele>318</ele>
        <time>2016-07-30T06:28:20.117Z</time>
      </trkpt>
      <trkpt lat="43.16978" lon="5.89065">
        <ele>319</ele>
        <time>2016-07-30T06:28:21.117Z</time>
      </trkpt>
      <trkpt lat="43.16977" lon="5.8906">
        <ele>321</ele>
        <time>2016-07-30T06:28:22.117Z</time>
      </trkpt>
      <trkpt lat="43.16974" lon="5.89054">
        <ele>323</ele>
        <time>2016-07-30T06:28:23.117Z</time>
      </trkpt>
      <trkpt lat="43.16971" lon="5.89049">
        <ele>324</ele>
        <time>2016-07-30T06:28:24.117Z</time>
      </trkpt>
      <trkpt lat="43.16968" lon="5.89044">
        <ele>326</ele>
        <time>2016-07-30T06:28:25.117Z</time>
      </trkpt>
      <trkpt lat="43.16966" lon="5.8904">
        <ele>327</ele>
        <time>2016-07-30T06:28:26.117Z</time>
      </trkpt>
      <trkpt lat="43.16962" lon="5.89036">
        <ele>328</ele>
        <time>2016-07-30T06:28:27.117Z</time>
      </trkpt>
      <trkpt lat="43.16957" lon="5.89032">
        <ele>330</ele>
        <time>2016-07-30T06:28:28.117Z</time>
      </trkpt>
      <trkpt lat="43.16953" lon="5.89029">
        <ele>330</ele>
        <time>2016-07-30T06:28:29.117Z</time>
      </trkpt>
      <trkpt lat="43.1695" lon="5.89025">
        <ele>330</ele>
        <time>2016-07-30T06:28:30.117Z</time>
      </trkpt>
      <trkpt lat="43.16947" lon="5.89022">
        <ele>331</ele>
        <time>2016-07-30T06:28:31.117Z</time>
      </trkpt>
      <trkpt lat="43.16945" lon="5.89018">
        <ele>330</ele>
        <time>2016-07-30T06:28:32.117Z</time>
      </trkpt>
      <trkpt lat="43.16942" lon="5.89014">
        <ele>330</ele>
        <time>2016-07-30T06:28:33.117Z</time>
      </trkpt>
      <trkpt lat="43.1694" lon="5.8901">
        <ele>330</ele>
        <time>2016-07-30T06:28:34.117Z</time>
      </trkpt>
      <trkpt lat="43.16938" lon="5.89006">
        <ele>330</ele>
        <time>2016-07-30T06:28:35.117Z</time>
      </trkpt>
      <trkpt lat="43.16935" lon="5.89002">
        <ele>331</ele>
        <time>2016-07-30T06:28:36.117Z</time>
      </trkpt>
      <trkpt lat="43.16933" lon="5.88998">
        <ele>331</ele>
        <time>2016-07-30T06:28:37.117Z</time>
      </trkpt>
      <trkpt lat="43.1693" lon="5.88994">
        <ele>331</ele>
        <time>2016-07-30T06:28:38.117Z</time>
      </trkpt>
      <trkpt lat="43.16928" lon="5.88991">
        <ele>331</ele>
        <time>2016-07-30T06:28:39.117Z</time>
      </trkpt>
      <trkpt lat="43.16925" lon="5.88988">
        <ele>331</ele>
        <time>2016-07-30T06:28:40.117Z</time>
      </trkpt>
      <trkpt lat="43.16923" lon="5.88985">
        <ele>331</ele>
        <time>2016-07-30T06:28:41.117Z</time>
      </trkpt>
      <trkpt lat="43.1692" lon="5.88981">
        <ele>332</ele>
        <time>2016-07-30T06:28:42.117Z</time>
      </trkpt>
      <trkpt lat="43.16918" lon="5.88977">
        <ele>333</ele>
        <time>2016-07-30T06:28:43.117Z</time>
      </trkpt>
      <trkpt lat="43.16916" lon="5.88973">
        <ele>333</ele>
        <time>2016-07-30T06:28:44.117Z</time>
      </trkpt>
      <trkpt lat="43.16914" lon="5.88969">
        <ele>333</ele>
        <time>2016-07-30T06:28:45.117Z</time>
      </trkpt>
      <trkpt lat="43.16913" lon="5.88965">
        <ele>333</ele>
        <time>2016-07-30T06:28:46.117Z</time>
      </trkpt>
      <trkpt lat="43.16911" lon="5.8896">
        <ele>333</ele>
        <time>2016-07-30T06:28:47.117Z</time>
      </trkpt>
      <trkpt lat="43.1691" lon="5.88955">
        <ele>333</ele>
        <time>2016-07-30T06:28:48.117Z</time>
      </trkpt>
      <trkpt lat="43.16909" lon="5.8895">
        <ele>333</ele>
        <time>2016-07-30T06:28:49.117Z</time>
      </trkpt>
      <trkpt lat="43.16909" lon="5.88945">
        <ele>333</ele>
        <time>2016-07-30T06:28:50.117Z</time>
      </trkpt>
      <trkpt lat="43.16911" lon="5.8894">
        <ele>333</ele>
        <time>2016-07-30T06:28:51.117Z</time>
      </trkpt>
      <trkpt lat="43.16915" lon="5.88937">
        <ele>330</ele>
        <time>2016-07-30T06:28:52.117Z</time>
      </trkpt>
      <trkpt lat="43.1692" lon="5.88935">
        <ele>329</ele>
        <time>2016-07-30T06:28:53.117Z</time>
      </trkpt>
      <trkpt lat="43.16923" lon="5.88937">
        <ele>329</ele>
        <time>2016-07-30T06:28:54.117Z</time>
      </trkpt>
      <trkpt lat="43.16925" lon="5.8894">
        <ele>329</ele>
        <time>2016-07-30T06:28:55.117Z</time>
      </trkpt>
      <trkpt lat="43.16927" lon="5.88944">
        <ele>328</ele>
        <time>2016-07-30T06:28:56.117Z</time>
      </trkpt>
      <trkpt lat="43.16929" lon="5.88947">
        <ele>327</ele>
        <time>2016-07-30T06:28:57.117Z</time>
      </trkpt>
      <trkpt lat="43.16931" lon="5.88951">
        <ele>328</ele>
        <time>2016-07-30T06:28:58.117Z</time>
      </trkpt>
      <trkpt lat="43.16932" lon="5.88955">
        <ele>329</ele>
        <time>2016-07-30T06:28:59.117Z</time>
      </trkpt>
      <trkpt lat="43.16934" lon="5.88959">
        <ele>329</ele>
        <time>2016-07-30T06:29:00.117Z</time>
      </trkpt>
      <trkpt lat="43.16936" lon="5.88963">
        <ele>330</ele>
        <time>2016-07-30T06:29:01.117Z</time>
      </trkpt>
      <trkpt lat="43.16938" lon="5.88967">
        <ele>330</ele>
        <time>2016-07-30T06:29:02.117Z</time>
      </trkpt>
      <trkpt lat="43.16941" lon="5.88971">
        <ele>330</ele>
        <time>2016-07-30T06:29:03.117Z</time>
      </trkpt>
      <trkpt lat="43.16943" lon="5.88976">
        <ele>331</ele>
        <time>2016-07-30T06:29:04.117Z</time>
      </trkpt>
      <trkpt lat="43.16946" lon="5.8898">
        <ele>331</ele>
        <time>2016-07-30T06:29:05.117Z</time>
      </trkpt>
      <trkpt lat="43.16948" lon="5.88984">
        <ele>332</ele>
        <time>2016-07-30T06:29:06.117Z</time>
      </trkpt>
      <trkpt lat="43.1695" lon="5.88988">
        <ele>332</ele>
        <time>2016-07-30T06:29:07.117Z</time>
      </trkpt>
      <trkpt lat="43.16953" lon="5.88991">
        <ele>333</ele>
        <time>2016-07-30T06:29:08.117Z</time>
      </trkpt>
      <trkpt lat="43.16955" lon="5.88995">
        <ele>333</ele>
        <time>2016-07-30T06:29:09.117Z</time>
      </trkpt>
      <trkpt lat="43.16957" lon="5.88997">
        <ele>334</ele>
        <time>2016-07-30T06:29:10.117Z</time>
      </trkpt>
      <trkpt lat="43.1696" lon="5.89">
        <ele>335</ele>
        <time>2016-07-30T06:29:11.117Z</time>
      </trkpt>
      <trkpt lat="43.16963" lon="5.89002">
        <ele>335</ele>
        <time>2016-07-30T06:29:12.117Z</time>
      </trkpt>
      <trkpt lat="43.16967" lon="5.89003">
        <ele>336</ele>
        <time>2016-07-30T06:29:13.117Z</time>
      </trkpt>
      <trkpt lat="43.16971" lon="5.89004">
        <ele>337</ele>
        <time>2016-07-30T06:29:14.117Z</time>
      </trkpt>
      <trkpt lat="43.16975" lon="5.89005">
        <ele>337</ele>
        <time>2016-07-30T06:29:15.117Z</time>
      </trkpt>
      <trkpt lat="43.16979" lon="5.89006">
        <ele>337</ele>
        <time>2016-07-30T06:29:16.117Z</time>
      </trkpt>
      <trkpt lat="43.16982" lon="5.89006">
        <ele>337</ele>
        <time>2016-07-30T06:29:17.117Z</time>
      </trkpt>
      <trkpt lat="43.16985" lon="5.89007">
        <ele>338</ele>
        <time>2016-07-30T06:29:18.117Z</time>
      </trkpt>
      <trkpt lat="43.16988" lon="5.89007">
        <ele>338</ele>
        <time>2016-07-30T06:29:19.117Z</time>
      </trkpt>
      <trkpt lat="43.16992" lon="5.89008">
        <ele>340</ele>
        <time>2016-07-30T06:29:20.117Z</time>
      </trkpt>
      <trkpt lat="43.16996" lon="5.89009">
        <ele>340</ele>
        <time>2016-07-30T06:29:21.117Z</time>
      </trkpt>
      <trkpt lat="43.17" lon="5.89012">
        <ele>342</ele>
        <time>2016-07-30T06:29:22.117Z</time>
      </trkpt>
      <trkpt lat="43.17003" lon="5.89015">
        <ele>342</ele>
        <time>2016-07-30T06:29:23.117Z</time>
      </trkpt>
      <trkpt lat="43.17006" lon="5.8902">
        <ele>342</ele>
        <time>2016-07-30T06:29:24.117Z</time>
      </trkpt>
      <trkpt lat="43.17008" lon="5.89024">
        <ele>340</ele>
        <time>2016-07-30T06:29:25.117Z</time>
      </trkpt>
      <trkpt lat="43.17009" lon="5.89029">
        <ele>340</ele>
        <time>2016-07-30T06:29:26.117Z</time>
      </trkpt>
      <trkpt lat="43.1701" lon="5.89034">
        <ele>341</ele>
        <time>2016-07-30T06:29:27.117Z</time>
      </trkpt>
      <trkpt lat="43.17011" lon="5.89038">
        <ele>342</ele>
        <time>2016-07-30T06:29:28.117Z</time>
      </trkpt>
      <trkpt lat="43.17013" lon="5.89042">
        <ele>342</ele>
        <time>2016-07-30T06:29:29.117Z</time>
      </trkpt>
      <trkpt lat="43.17014" lon="5.89046">
        <ele>342</ele>
        <time>2016-07-30T06:29:30.117Z</time>
      </trkpt>
      <trkpt lat="43.17015" lon="5.89051">
        <ele>343</ele>
        <time>2016-07-30T06:29:31.117Z</time>
      </trkpt>
      <trkpt lat="43.17016" lon="5.89055">
        <ele>343</ele>
        <time>2016-07-30T06:29:32.117Z</time>
      </trkpt>
      <trkpt lat="43.17017" lon="5.8906">
        <ele>344</ele>
        <time>2016-07-30T06:29:33.117Z</time>
      </trkpt>
      <trkpt lat="43.17019" lon="5.89064">
        <ele>344</ele>
        <time>2016-07-30T06:29:34.117Z</time>
      </trkpt>
      <trkpt lat="43.17021" lon="5.89068">
        <ele>345</ele>
        <time>2016-07-30T06:29:35.117Z</time>
      </trkpt>
      <trkpt lat="43.17022" lon="5.89073">
        <ele>345</ele>
        <time>2016-07-30T06:29:36.117Z</time>
      </trkpt>
      <trkpt lat="43.17024" lon="5.89077">
        <ele>346</ele>
        <time>2016-07-30T06:29:37.117Z</time>
      </trkpt>
      <trkpt lat="43.17026" lon="5.89081">
        <ele>346</ele>
        <time>2016-07-30T06:29:38.117Z</time>
      </trkpt>
      <trkpt lat="43.17027" lon="5.89086">
        <ele>346</ele>
        <time>2016-07-30T06:29:39.117Z</time>
      </trkpt>
      <trkpt lat="43.17028" lon="5.8909">
        <ele>346</ele>
        <time>2016-07-30T06:29:40.117Z</time>
      </trkpt>
      <trkpt lat="43.17029" lon="5.89095">
        <ele>346</ele>
        <time>2016-07-30T06:29:41.117Z</time>
      </trkpt>
      <trkpt lat="43.17029" lon="5.891">
        <ele>346</ele>
        <time>2016-07-30T06:29:42.117Z</time>
      </trkpt>
      <trkpt lat="43.17029" lon="5.89105">
        <ele>347</ele>
        <time>2016-07-30T06:29:43.117Z</time>
      </trkpt>
      <trkpt lat="43.17029" lon="5.89109">
        <ele>347</ele>
        <time>2016-07-30T06:29:44.117Z</time>
      </trkpt>
      <trkpt lat="43.17029" lon="5.89114">
        <ele>348</ele>
        <time>2016-07-30T06:29:45.117Z</time>
      </trkpt>
      <trkpt lat="43.17029" lon="5.89118">
        <ele>349</ele>
        <time>2016-07-30T06:29:46.117Z</time>
      </trkpt>
      <trkpt lat="43.17029" lon="5.89123">
        <ele>349</ele>
        <time>2016-07-30T06:29:47.117Z</time>
      </trkpt>
      <trkpt lat="43.17029" lon="5.89128">
        <ele>350</ele>
        <time>2016-07-30T06:29:48.117Z</time>
      </trkpt>
      <trkpt lat="43.17029" lon="5.89133">
        <ele>350</ele>
        <time>2016-07-30T06:29:49.117Z</time>
      </trkpt>
      <trkpt lat="43.17029" lon="5.89138">
        <ele>351</ele>
        <time>2016-07-30T06:29:50.117Z</time>
      </trkpt>
      <trkpt lat="43.17029" lon="5.89143">
        <ele>351</ele>
        <time>2016-07-30T06:29:51.117Z</time>
      </trkpt>
      <trkpt lat="43.1703" lon="5.89147">
        <ele>351</ele>
        <time>2016-07-30T06:29:52.117Z</time>
      </trkpt>
      <trkpt lat="43.17031" lon="5.89152">
        <ele>350</ele>
        <time>2016-07-30T06:29:53.117Z</time>
      </trkpt>
      <trkpt lat="43.17032" lon="5.89156">
        <ele>348</ele>
        <time>2016-07-30T06:29:54.117Z</time>
      </trkpt>
      <trkpt lat="43.17034" lon="5.8916">
        <ele>347</ele>
        <time>2016-07-30T06:29:55.117Z</time>
      </trkpt>
      <trkpt lat="43.17035" lon="5.89164">
        <ele>346</ele>
        <time>2016-07-30T06:29:56.117Z</time>
      </trkpt>
      <trkpt lat="43.17036" lon="5.89168">
        <ele>346</ele>
        <time>2016-07-30T06:29:57.117Z</time>
      </trkpt>
      <trkpt lat="43.17038" lon="5.89172">
        <ele>347</ele>
        <time>2016-07-30T06:29:58.117Z</time>
      </trkpt>
      <trkpt lat="43.17039" lon="5.89176">
        <ele>347</ele>
        <time>2016-07-30T06:29:59.117Z</time>
      </trkpt>
      <trkpt lat="43.17041" lon="5.89181">
        <ele>347</ele>
        <time>2016-07-30T06:30:00.117Z</time>
      </trkpt>
      <trkpt lat="43.17042" lon="5.89185">
        <ele>347</ele>
        <time>2016-07-30T06:30:01.117Z</time>
      </trkpt>
      <trkpt lat="43.17044" lon="5.89189">
        <ele>347</ele>
        <time>2016-07-30T06:30:02.117Z</time>
      </trkpt>
      <trkpt lat="43.17045" lon="5.89194">
        <ele>348</ele>
        <time>2016-07-30T06:30:03.117Z</time>
      </trkpt>
      <trkpt lat="43.17047" lon="5.89198">
        <ele>349</ele>
        <time>2016-07-30T06:30:04.117Z</time>
      </trkpt>
      <trkpt lat="43.17048" lon="5.89202">
        <ele>349</ele>
        <time>2016-07-30T06:30:05.117Z</time>
      </trkpt>
      <trkpt lat="43.1705" lon="5.89207">
        <ele>349</ele>
        <time>2016-07-30T06:30:06.117Z</time>
      </trkpt>
      <trkpt lat="43.17052" lon="5.89211">
        <ele>350</ele>
        <time>2016-07-30T06:30:07.117Z</time>
      </trkpt>
      <trkpt lat="43.17053" lon="5.89216">
        <ele>350</ele>
        <time>2016-07-30T06:30:08.117Z</time>
      </trkpt>
      <trkpt lat="43.17054" lon="5.8922">
        <ele>350</ele>
        <time>2016-07-30T06:30:09.117Z</time>
      </trkpt>
      <trkpt lat="43.17055" lon="5.89225">
        <ele>350</ele>
        <time>2016-07-30T06:30:10.117Z</time>
      </trkpt>
      <trkpt lat="43.17056" lon="5.89229">
        <ele>350</ele>
        <time>2016-07-30T06:30:11.117Z</time>
      </trkpt>
      <trkpt lat="43.17056" lon="5.89234">
        <ele>350</ele>
        <time>2016-07-30T06:30:12.117Z</time>
      </trkpt>
      <trkpt lat="43.17056" lon="5.89239">
        <ele>349</ele>
        <time>2016-07-30T06:30:13.117Z</time>
      </trkpt>
      <trkpt lat="43.17056" lon="5.89243">
        <ele>350</ele>
        <time>2016-07-30T06:30:14.117Z</time>
      </trkpt>
      <trkpt lat="43.17056" lon="5.89248">
        <ele>349</ele>
        <time>2016-07-30T06:30:15.117Z</time>
      </trkpt>
      <trkpt lat="43.17056" lon="5.89253">
        <ele>348</ele>
        <time>2016-07-30T06:30:16.117Z</time>
      </trkpt>
      <trkpt lat="43.17056" lon="5.89257">
        <ele>347</ele>
        <time>2016-07-30T06:30:17.117Z</time>
      </trkpt>
      <trkpt lat="43.17055" lon="5.89262">
        <ele>347</ele>
        <time>2016-07-30T06:30:18.117Z</time>
      </trkpt>
      <trkpt lat="43.17055" lon="5.89266">
        <ele>347</ele>
        <time>2016-07-30T06:30:19.117Z</time>
      </trkpt>
      <trkpt lat="43.17055" lon="5.89271">
        <ele>348</ele>
        <time>2016-07-30T06:30:20.117Z</time>
      </trkpt>
      <trkpt lat="43.17055" lon="5.89277">
        <ele>349</ele>
        <time>2016-07-30T06:30:21.117Z</time>
      </trkpt>
      <trkpt lat="43.17055" lon="5.89282">
        <ele>349</ele>
        <time>2016-07-30T06:30:22.117Z</time>
      </trkpt>
      <trkpt lat="43.17055" lon="5.89287">
        <ele>349</ele>
        <time>2016-07-30T06:30:23.117Z</time>
      </trkpt>
      <trkpt lat="43.17055" lon="5.89292">
        <ele>349</ele>
        <time>2016-07-30T06:30:24.117Z</time>
      </trkpt>
      <trkpt lat="43.17055" lon="5.89297">
        <ele>349</ele>
        <time>2016-07-30T06:30:25.117Z</time>
      </trkpt>
      <trkpt lat="43.17055" lon="5.89302">
        <ele>349</ele>
        <time>2016-07-30T06:30:26.117Z</time>
      </trkpt>
      <trkpt lat="43.17054" lon="5.89307">
        <ele>349</ele>
        <time>2016-07-30T06:30:27.117Z</time>
      </trkpt>
      <trkpt lat="43.17054" lon="5.89311">
        <ele>350</ele>
        <time>2016-07-30T06:30:28.117Z</time>
      </trkpt>
      <trkpt lat="43.17053" lon="5.89316">
        <ele>350</ele>
        <time>2016-07-30T06:30:29.117Z</time>
      </trkpt>
      <trkpt lat="43.17053" lon="5.89321">
        <ele>350</ele>
        <time>2016-07-30T06:30:30.117Z</time>
      </trkpt>
      <trkpt lat="43.17053" lon="5.89326">
        <ele>350</ele>
        <time>2016-07-30T06:30:31.117Z</time>
      </trkpt>
      <trkpt lat="43.17053" lon="5.89331">
        <ele>350</ele>
        <time>2016-07-30T06:30:32.117Z</time>
      </trkpt>
      <trkpt lat="43.17054" lon="5.89336">
        <ele>349</ele>
        <time>2016-07-30T06:30:33.117Z</time>
      </trkpt>
      <trkpt lat="43.17055" lon="5.8934">
        <ele>350</ele>
        <time>2016-07-30T06:30:34.117Z</time>
      </trkpt>
      <trkpt lat="43.17057" lon="5.89343">
        <ele>351</ele>
        <time>2016-07-30T06:30:35.117Z</time>
      </trkpt>
      <trkpt lat="43.17059" lon="5.89345">
        <ele>351</ele>
        <time>2016-07-30T06:30:36.117Z</time>
      </trkpt>
      <trkpt lat="43.1706" lon="5.89346">
        <ele>351</ele>
        <time>2016-07-30T06:30:37.117Z</time>
      </trkpt>
      <trkpt lat="43.17062" lon="5.89346">
        <ele>352</ele>
        <time>2016-07-30T06:30:38.117Z</time>
      </trkpt>
      <trkpt lat="43.17064" lon="5.89344">
        <ele>353</ele>
        <time>2016-07-30T06:30:39.117Z</time>
      </trkpt>
      <trkpt lat="43.17065" lon="5.89341">
        <ele>354</ele>
        <time>2016-07-30T06:30:40.117Z</time>
      </trkpt>
      <trkpt lat="43.17066" lon="5.89337">
        <ele>353</ele>
        <time>2016-07-30T06:30:41.117Z</time>
      </trkpt>
      <trkpt lat="43.17067" lon="5.89332">
        <ele>352</ele>
        <time>2016-07-30T06:30:42.117Z</time>
      </trkpt>
      <trkpt lat="43.17067" lon="5.89327">
        <ele>352</ele>
        <time>2016-07-30T06:30:43.117Z</time>
      </trkpt>
      <trkpt lat="43.17068" lon="5.89322">
        <ele>351</ele>
        <time>2016-07-30T06:30:44.117Z</time>
      </trkpt>
      <trkpt lat="43.17068" lon="5.89318">
        <ele>351</ele>
        <time>2016-07-30T06:30:45.117Z</time>
      </trkpt>
      <trkpt lat="43.17068" lon="5.89313">
        <ele>351</ele>
        <time>2016-07-30T06:30:46.117Z</time>
      </trkpt>
      <trkpt lat="43.17067" lon="5.89308">
        <ele>351</ele>
        <time>2016-07-30T06:30:47.117Z</time>
      </trkpt>
      <trkpt lat="43.17067" lon="5.89303">
        <ele>350</ele>
        <time>2016-07-30T06:30:48.117Z</time>
      </trkpt>
      <trkpt lat="43.17067" lon="5.89298">
        <ele>350</ele>
        <time>2016-07-30T06:30:49.117Z</time>
      </trkpt>
      <trkpt lat="43.17068" lon="5.89293">
        <ele>351</ele>
        <time>2016-07-30T06:30:50.117Z</time>
      </trkpt>
      <trkpt lat="43.17069" lon="5.89288">
        <ele>350</ele>
        <time>2016-07-30T06:30:51.117Z</time>
      </trkpt>
      <trkpt lat="43.1707" lon="5.89283">
        <ele>350</ele>
        <time>2016-07-30T06:30:52.117Z</time>
      </trkpt>
      <trkpt lat="43.17071" lon="5.89279">
        <ele>351</ele>
        <time>2016-07-30T06:30:53.117Z</time>
      </trkpt>
      <trkpt lat="43.17072" lon="5.89274">
        <ele>351</ele>
        <time>2016-07-30T06:30:54.117Z</time>
      </trkpt>
      <trkpt lat="43.17073" lon="5.8927">
        <ele>351</ele>
        <time>2016-07-30T06:30:55.117Z</time>
      </trkpt>
      <trkpt lat="43.17074" lon="5.89265">
        <ele>351</ele>
        <time>2016-07-30T06:30:56.117Z</time>
      </trkpt>
      <trkpt lat="43.17076" lon="5.89261">
        <ele>350</ele>
        <time>2016-07-30T06:30:57.117Z</time>
      </trkpt>
      <trkpt lat="43.17077" lon="5.89257">
        <ele>350</ele>
        <time>2016-07-30T06:30:58.117Z</time>
      </trkpt>
      <trkpt lat="43.17079" lon="5.89253">
        <ele>351</ele>
        <time>2016-07-30T06:30:59.117Z</time>
      </trkpt>
      <trkpt lat="43.1708" lon="5.89249">
        <ele>351</ele>
        <time>2016-07-30T06:31:00.117Z</time>
      </trkpt>
      <trkpt lat="43.17082" lon="5.89245">
        <ele>351</ele>
        <time>2016-07-30T06:31:01.117Z</time>
      </trkpt>
      <trkpt lat="43.17083" lon="5.89241">
        <ele>352</ele>
        <time>2016-07-30T06:31:02.117Z</time>
      </trkpt>
      <trkpt lat="43.17084" lon="5.89236">
        <ele>351</ele>
        <time>2016-07-30T06:31:03.117Z</time>
      </trkpt>
      <trkpt lat="43.17085" lon="5.89232">
        <ele>351</ele>
        <time>2016-07-30T06:31:04.117Z</time>
      </trkpt>
      <trkpt lat="43.17085" lon="5.89227">
        <ele>351</ele>
        <time>2016-07-30T06:31:05.117Z</time>
      </trkpt>
      <trkpt lat="43.17086" lon="5.89222">
        <ele>351</ele>
        <time>2016-07-30T06:31:06.117Z</time>
      </trkpt>
      <trkpt lat="43.17086" lon="5.89217">
        <ele>351</ele>
        <time>2016-07-30T06:31:07.117Z</time>
      </trkpt>
      <trkpt lat="43.17086" lon="5.89212">
        <ele>352</ele>
        <time>2016-07-30T06:31:08.117Z</time>
      </trkpt>
      <trkpt lat="43.17086" lon="5.89207">
        <ele>352</ele>
        <time>2016-07-30T06:31:09.117Z</time>
      </trkpt>
      <trkpt lat="43.17086" lon="5.89203">
        <ele>352</ele>
        <time>2016-07-30T06:31:10.117Z</time>
      </trkpt>
      <trkpt lat="43.17085" lon="5.89198">
        <ele>353</ele>
        <time>2016-07-30T06:31:11.117Z</time>
      </trkpt>
      <trkpt lat="43.17084" lon="5.89193">
        <ele>355</ele>
        <time>2016-07-30T06:31:12.117Z</time>
      </trkpt>
      <trkpt lat="43.17083" lon="5.89188">
        <ele>357</ele>
        <time>2016-07-30T06:31:13.117Z</time>
      </trkpt>
      <trkpt lat="43.17082" lon="5.89183">
        <ele>357</ele>
        <time>2016-07-30T06:31:14.117Z</time>
      </trkpt>
      <trkpt lat="43.17081" lon="5.89178">
        <ele>358</ele>
        <time>2016-07-30T06:31:15.117Z</time>
      </trkpt>
      <trkpt lat="43.17081" lon="5.89174">
        <ele>358</ele>
        <time>2016-07-30T06:31:16.117Z</time>
      </trkpt>
      <trkpt lat="43.1708" lon="5.8917">
        <ele>358</ele>
        <time>2016-07-30T06:31:17.117Z</time>
      </trkpt>
      <trkpt lat="43.1708" lon="5.89165">
        <ele>359</ele>
        <time>2016-07-30T06:31:18.117Z</time>
      </trkpt>
      <trkpt lat="43.1708" lon="5.89161">
        <ele>360</ele>
        <time>2016-07-30T06:31:19.117Z</time>
      </trkpt>
      <trkpt lat="43.1708" lon="5.89156">
        <ele>360</ele>
        <time>2016-07-30T06:31:20.117Z</time>
      </trkpt>
      <trkpt lat="43.1708" lon="5.89151">
        <ele>361</ele>
        <time>2016-07-30T06:31:21.117Z</time>
      </trkpt>
      <trkpt lat="43.1708" lon="5.89147">
        <ele>361</ele>
        <time>2016-07-30T06:31:22.117Z</time>
      </trkpt>
      <trkpt lat="43.1708" lon="5.89142">
        <ele>362</ele>
        <time>2016-07-30T06:31:23.117Z</time>
      </trkpt>
      <trkpt lat="43.1708" lon="5.89137">
        <ele>363</ele>
        <time>2016-07-30T06:31:24.117Z</time>
      </trkpt>
      <trkpt lat="43.1708" lon="5.89133">
        <ele>363</ele>
        <time>2016-07-30T06:31:25.117Z</time>
      </trkpt>
      <trkpt lat="43.1708" lon="5.89128">
        <ele>364</ele>
        <time>2016-07-30T06:31:26.117Z</time>
      </trkpt>
      <trkpt lat="43.1708" lon="5.89123">
        <ele>365</ele>
        <time>2016-07-30T06:31:27.117Z</time>
      </trkpt>
      <trkpt lat="43.17081" lon="5.89119">
        <ele>366</ele>
        <time>2016-07-30T06:31:28.117Z</time>
      </trkpt>
      <trkpt lat="43.17082" lon="5.89114">
        <ele>366</ele>
        <time>2016-07-30T06:31:29.117Z</time>
      </trkpt>
      <trkpt lat="43.17083" lon="5.89109">
        <ele>367</ele>
        <time>2016-07-30T06:31:30.117Z</time>
      </trkpt>
      <trkpt lat="43.17084" lon="5.89105">
        <ele>367</ele>
        <time>2016-07-30T06:31:31.117Z</time>
      </trkpt>
      <trkpt lat="43.17086" lon="5.89101">
        <ele>367</ele>
        <time>2016-07-30T06:31:32.117Z</time>
      </trkpt>
      <trkpt lat="43.17087" lon="5.89097">
        <ele>368</ele>
        <time>2016-07-30T06:31:33.117Z</time>
      </trkpt>
      <trkpt lat="43.17089" lon="5.89093">
        <ele>369</ele>
        <time>2016-07-30T06:31:34.117Z</time>
      </trkpt>
      <trkpt lat="43.1709" lon="5.89089">
        <ele>370</ele>
        <time>2016-07-30T06:31:35.117Z</time>
      </trkpt>
      <trkpt lat="43.17091" lon="5.89084">
        <ele>370</ele>
        <time>2016-07-30T06:31:36.117Z</time>
      </trkpt>
      <trkpt lat="43.17092" lon="5.89079">
        <ele>370</ele>
        <time>2016-07-30T06:31:37.117Z</time>
      </trkpt>
      <trkpt lat="43.17093" lon="5.89074">
        <ele>369</ele>
        <time>2016-07-30T06:31:38.117Z</time>
      </trkpt>
      <trkpt lat="43.17093" lon="5.89069">
        <ele>369</ele>
        <time>2016-07-30T06:31:39.117Z</time>
      </trkpt>
      <trkpt lat="43.17093" lon="5.89064">
        <ele>369</ele>
        <time>2016-07-30T06:31:40.117Z</time>
      </trkpt>
      <trkpt lat="43.17093" lon="5.89059">
        <ele>369</ele>
        <time>2016-07-30T06:31:41.117Z</time>
      </trkpt>
      <trkpt lat="43.17093" lon="5.89054">
        <ele>369</ele>
        <time>2016-07-30T06:31:42.117Z</time>
      </trkpt>
      <trkpt lat="43.17093" lon="5.89049">
        <ele>368</ele>
        <time>2016-07-30T06:31:43.117Z</time>
      </trkpt>
      <trkpt lat="43.17093" lon="5.89045">
        <ele>367</ele>
        <time>2016-07-30T06:31:44.117Z</time>
      </trkpt>
      <trkpt lat="43.17093" lon="5.8904">
        <ele>367</ele>
        <time>2016-07-30T06:31:45.117Z</time>
      </trkpt>
      <trkpt lat="43.17093" lon="5.89036">
        <ele>367</ele>
        <time>2016-07-30T06:31:46.117Z</time>
      </trkpt>
      <trkpt lat="43.17092" lon="5.89031">
        <ele>367</ele>
        <time>2016-07-30T06:31:47.117Z</time>
      </trkpt>
      <trkpt lat="43.17092" lon="5.89027">
        <ele>366</ele>
        <time>2016-07-30T06:31:48.117Z</time>
      </trkpt>
      <trkpt lat="43.17092" lon="5.89023">
        <ele>366</ele>
        <time>2016-07-30T06:31:49.117Z</time>
      </trkpt>
      <trkpt lat="43.17093" lon="5.89018">
        <ele>367</ele>
        <time>2016-07-30T06:31:50.117Z</time>
      </trkpt>
      <trkpt lat="43.17093" lon="5.89014">
        <ele>367</ele>
        <time>2016-07-30T06:31:51.117Z</time>
      </trkpt>
      <trkpt lat="43.17093" lon="5.89009">
        <ele>367</ele>
        <time>2016-07-30T06:31:52.117Z</time>
      </trkpt>
      <trkpt lat="43.17093" lon="5.89005">
        <ele>367</ele>
        <time>2016-07-30T06:31:53.117Z</time>
      </trkpt>
      <trkpt lat="43.17094" lon="5.89">
        <ele>367</ele>
        <time>2016-07-30T06:31:54.117Z</time>
      </trkpt>
      <trkpt lat="43.17094" lon="5.88996">
        <ele>367</ele>
        <time>2016-07-30T06:31:55.117Z</time>
      </trkpt>
      <trkpt lat="43.17094" lon="5.88992">
        <ele>367</ele>
        <time>2016-07-30T06:31:56.117Z</time>
      </trkpt>
      <trkpt lat="43.17095" lon="5.88987">
        <ele>367</ele>
        <time>2016-07-30T06:31:57.117Z</time>
      </trkpt>
      <trkpt lat="43.17095" lon="5.88983">
        <ele>367</ele>
        <time>2016-07-30T06:31:58.117Z</time>
      </trkpt>
      <trkpt lat="43.17095" lon="5.88979">
        <ele>368</ele>
        <time>2016-07-30T06:31:59.117Z</time>
      </trkpt>
      <trkpt lat="43.17095" lon="5.88975">
        <ele>368</ele>
        <time>2016-07-30T06:32:00.117Z</time>
      </trkpt>
      <trkpt lat="43.17096" lon="5.8897">
        <ele>368</ele>
        <time>2016-07-30T06:32:01.117Z</time>
      </trkpt>
      <trkpt lat="43.17096" lon="5.88966">
        <ele>368</ele>
        <time>2016-07-30T06:32:02.117Z</time>
      </trkpt>
      <trkpt lat="43.17096" lon="5.88962">
        <ele>369</ele>
        <time>2016-07-30T06:32:03.117Z</time>
      </trkpt>
      <trkpt lat="43.17096" lon="5.88958">
        <ele>369</ele>
        <time>2016-07-30T06:32:04.117Z</time>
      </trkpt>
      <trkpt lat="43.17097" lon="5.88953">
        <ele>370</ele>
        <time>2016-07-30T06:32:05.117Z</time>
      </trkpt>
      <trkpt lat="43.17097" lon="5.88948">
        <ele>370</ele>
        <time>2016-07-30T06:32:06.117Z</time>
      </trkpt>
      <trkpt lat="43.17098" lon="5.88944">
        <ele>370</ele>
        <time>2016-07-30T06:32:07.117Z</time>
      </trkpt>
      <trkpt lat="43.17098" lon="5.88939">
        <ele>370</ele>
        <time>2016-07-30T06:32:08.117Z</time>
      </trkpt>
      <trkpt lat="43.17099" lon="5.88934">
        <ele>369</ele>
        <time>2016-07-30T06:32:09.117Z</time>
      </trkpt>
      <trkpt lat="43.171" lon="5.8893">
        <ele>369</ele>
        <time>2016-07-30T06:32:10.117Z</time>
      </trkpt>
      <trkpt lat="43.171" lon="5.88925">
        <ele>369</ele>
        <time>2016-07-30T06:32:11.117Z</time>
      </trkpt>
      <trkpt lat="43.171" lon="5.8892">
        <ele>369</ele>
        <time>2016-07-30T06:32:12.117Z</time>
      </trkpt>
      <trkpt lat="43.17099" lon="5.88916">
        <ele>369</ele>
        <time>2016-07-30T06:32:13.117Z</time>
      </trkpt>
      <trkpt lat="43.17098" lon="5.88912">
        <ele>369</ele>
        <time>2016-07-30T06:32:14.117Z</time>
      </trkpt>
      <trkpt lat="43.17096" lon="5.88908">
        <ele>369</ele>
        <time>2016-07-30T06:32:15.117Z</time>
      </trkpt>
      <trkpt lat="43.17094" lon="5.88905">
        <ele>370</ele>
        <time>2016-07-30T06:32:16.117Z</time>
      </trkpt>
      <trkpt lat="43.17091" lon="5.88901">
        <ele>374</ele>
        <time>2016-07-30T06:32:17.117Z</time>
      </trkpt>
      <trkpt lat="43.17088" lon="5.88897">
        <ele>374</ele>
        <time>2016-07-30T06:32:18.117Z</time>
      </trkpt>
      <trkpt lat="43.17085" lon="5.88894">
        <ele>375</ele>
        <time>2016-07-30T06:32:19.117Z</time>
      </trkpt>
      <trkpt lat="43.17083" lon="5.8889">
        <ele>375</ele>
        <time>2016-07-30T06:32:20.117Z</time>
      </trkpt>
      <trkpt lat="43.17081" lon="5.88887">
        <ele>376</ele>
        <time>2016-07-30T06:32:21.117Z</time>
      </trkpt>
      <trkpt lat="43.17078" lon="5.88884">
        <ele>376</ele>
        <time>2016-07-30T06:32:22.117Z</time>
      </trkpt>
      <trkpt lat="43.17076" lon="5.88881">
        <ele>376</ele>
        <time>2016-07-30T06:32:23.117Z</time>
      </trkpt>
      <trkpt lat="43.17073" lon="5.88878">
        <ele>376</ele>
        <time>2016-07-30T06:32:24.117Z</time>
      </trkpt>
      <trkpt lat="43.1707" lon="5.88876">
        <ele>377</ele>
        <time>2016-07-30T06:32:25.117Z</time>
      </trkpt>
      <trkpt lat="43.17067" lon="5.88873">
        <ele>378</ele>
        <time>2016-07-30T06:32:26.117Z</time>
      </trkpt>
      <trkpt lat="43.17064" lon="5.8887">
        <ele>378</ele>
        <time>2016-07-30T06:32:27.117Z</time>
      </trkpt>
      <trkpt lat="43.17061" lon="5.88867">
        <ele>379</ele>
        <time>2016-07-30T06:32:28.117Z</time>
      </trkpt>
      <trkpt lat="43.17058" lon="5.88864">
        <ele>379</ele>
        <time>2016-07-30T06:32:29.117Z</time>
      </trkpt>
      <trkpt lat="43.17055" lon="5.88861">
        <ele>379</ele>
        <time>2016-07-30T06:32:30.117Z</time>
      </trkpt>
      <trkpt lat="43.17052" lon="5.88858">
        <ele>380</ele>
        <time>2016-07-30T06:32:31.117Z</time>
      </trkpt>
      <trkpt lat="43.17049" lon="5.88855">
        <ele>380</ele>
        <time>2016-07-30T06:32:32.117Z</time>
      </trkpt>
      <trkpt lat="43.17047" lon="5.88852">
        <ele>380</ele>
        <time>2016-07-30T06:32:33.117Z</time>
      </trkpt>
      <trkpt lat="43.17045" lon="5.88848">
        <ele>381</ele>
        <time>2016-07-30T06:32:34.117Z</time>
      </trkpt>
      <trkpt lat="43.17046" lon="5.88844">
        <ele>382</ele>
        <time>2016-07-30T06:32:35.117Z</time>
      </trkpt>
      <trkpt lat="43.17047" lon="5.8884">
        <ele>381</ele>
        <time>2016-07-30T06:32:36.117Z</time>
      </trkpt>
      <trkpt lat="43.17049" lon="5.88838">
        <ele>380</ele>
        <time>2016-07-30T06:32:37.117Z</time>
      </trkpt>
      <trkpt lat="43.17049" lon="5.88837">
        <ele>380</ele>
        <time>2016-07-30T06:32:38.117Z</time>
      </trkpt>
      <trkpt lat="43.17051" lon="5.88837">
        <ele>380</ele>
        <time>2016-07-30T06:32:39.117Z</time>
      </trkpt>
      <trkpt lat="43.17053" lon="5.88839">
        <ele>382</ele>
        <time>2016-07-30T06:32:40.117Z</time>
      </trkpt>
      <trkpt lat="43.17055" lon="5.88841">
        <ele>383</ele>
        <time>2016-07-30T06:32:41.117Z</time>
      </trkpt>
      <trkpt lat="43.17056" lon="5.88844">
        <ele>383</ele>
        <time>2016-07-30T06:32:42.117Z</time>
      </trkpt>
      <trkpt lat="43.17058" lon="5.88846">
        <ele>383</ele>
        <time>2016-07-30T06:32:43.117Z</time>
      </trkpt>
      <trkpt lat="43.17059" lon="5.88848">
        <ele>383</ele>
        <time>2016-07-30T06:32:44.117Z</time>
      </trkpt>
      <trkpt lat="43.17061" lon="5.88851">
        <ele>384</ele>
        <time>2016-07-30T06:32:45.117Z</time>
      </trkpt>
      <trkpt lat="43.17064" lon="5.88854">
        <ele>385</ele>
        <time>2016-07-30T06:32:46.117Z</time>
      </trkpt>
      <trkpt lat="43.17066" lon="5.88857">
        <ele>386</ele>
        <time>2016-07-30T06:32:47.117Z</time>
      </trkpt>
      <trkpt lat="43.17068" lon="5.8886">
        <ele>387</ele>
        <time>2016-07-30T06:32:48.117Z</time>
      </trkpt>
      <trkpt lat="43.1707" lon="5.88863">
        <ele>387</ele>
        <time>2016-07-30T06:32:49.117Z</time>
      </trkpt>
      <trkpt lat="43.17072" lon="5.88865">
        <ele>388</ele>
        <time>2016-07-30T06:32:50.117Z</time>
      </trkpt>
      <trkpt lat="43.17075" lon="5.88868">
        <ele>389</ele>
        <time>2016-07-30T06:32:51.117Z</time>
      </trkpt>
      <trkpt lat="43.17077" lon="5.88871">
        <ele>389</ele>
        <time>2016-07-30T06:32:52.117Z</time>
      </trkpt>
      <trkpt lat="43.17079" lon="5.88873">
        <ele>389</ele>
        <time>2016-07-30T06:32:53.117Z</time>
      </trkpt>
      <trkpt lat="43.17081" lon="5.88876">
        <ele>390</ele>
        <time>2016-07-30T06:32:54.117Z</time>
      </trkpt>
      <trkpt lat="43.17083" lon="5.88879">
        <ele>391</ele>
        <time>2016-07-30T06:32:55.117Z</time>
      </trkpt>
      <trkpt lat="43.17084" lon="5.88882">
        <ele>391</ele>
        <time>2016-07-30T06:32:56.117Z</time>
      </trkpt>
      <trkpt lat="43.17086" lon="5.88885">
        <ele>392</ele>
        <time>2016-07-30T06:32:57.117Z</time>
      </trkpt>
      <trkpt lat="43.17088" lon="5.88888">
        <ele>393</ele>
        <time>2016-07-30T06:32:58.117Z</time>
      </trkpt>
      <trkpt lat="43.1709" lon="5.88891">
        <ele>393</ele>
        <time>2016-07-30T06:32:59.117Z</time>
      </trkpt>
      <trkpt lat="43.17091" lon="5.88894">
        <ele>394</ele>
        <time>2016-07-30T06:33:00.117Z</time>
      </trkpt>
      <trkpt lat="43.17093" lon="5.88897">
        <ele>394</ele>
        <time>2016-07-30T06:33:01.117Z</time>
      </trkpt>
      <trkpt lat="43.17095" lon="5.889">
        <ele>394</ele>
        <time>2016-07-30T06:33:02.117Z</time>
      </trkpt>
      <trkpt lat="43.17096" lon="5.88904">
        <ele>394</ele>
        <time>2016-07-30T06:33:03.117Z</time>
      </trkpt>
      <trkpt lat="43.17097" lon="5.88907">
        <ele>394</ele>
        <time>2016-07-30T06:33:04.117Z</time>
      </trkpt>
      <trkpt lat="43.17098" lon="5.88911">
        <ele>394</ele>
        <time>2016-07-30T06:33:05.117Z</time>
      </trkpt>
      <trkpt lat="43.171" lon="5.88914">
        <ele>394</ele>
        <time>2016-07-30T06:33:06.117Z</time>
      </trkpt>
      <trkpt lat="43.17101" lon="5.88918">
        <ele>394</ele>
        <time>2016-07-30T06:33:07.117Z</time>
      </trkpt>
      <trkpt lat="43.17102" lon="5.88922">
        <ele>394</ele>
        <time>2016-07-30T06:33:08.117Z</time>
      </trkpt>
      <trkpt lat="43.17102" lon="5.88926">
        <ele>394</ele>
        <time>2016-07-30T06:33:09.117Z</time>
      </trkpt>
      <trkpt lat="43.17103" lon="5.88932">
        <ele>392</ele>
        <time>2016-07-30T06:33:10.117Z</time>
      </trkpt>
      <trkpt lat="43.17103" lon="5.88938">
        <ele>391</ele>
        <time>2016-07-30T06:33:11.117Z</time>
      </trkpt>
      <trkpt lat="43.17104" lon="5.88945">
        <ele>391</ele>
        <time>2016-07-30T06:33:12.117Z</time>
      </trkpt>
      <trkpt lat="43.17105" lon="5.88951">
        <ele>392</ele>
        <time>2016-07-30T06:33:13.117Z</time>
      </trkpt>
      <trkpt lat="43.17105" lon="5.88957">
        <ele>393</ele>
        <time>2016-07-30T06:33:14.117Z</time>
      </trkpt>
      <trkpt lat="43.17106" lon="5.88963">
        <ele>394</ele>
        <time>2016-07-30T06:33:15.117Z</time>
      </trkpt>
      <trkpt lat="43.17108" lon="5.8897">
        <ele>394</ele>
        <time>2016-07-30T06:33:16.117Z</time>
      </trkpt>
      <trkpt lat="43.17109" lon="5.88977">
        <ele>394</ele>
        <time>2016-07-30T06:33:17.117Z</time>
      </trkpt>
      <trkpt lat="43.17111" lon="5.88983">
        <ele>394</ele>
        <time>2016-07-30T06:33:18.117Z</time>
      </trkpt>
      <trkpt lat="43.17112" lon="5.8899">
        <ele>394</ele>
        <time>2016-07-30T06:33:19.117Z</time>
      </trkpt>
      <trkpt lat="43.17113" lon="5.88997">
        <ele>394</ele>
        <time>2016-07-30T06:33:20.117Z</time>
      </trkpt>
      <trkpt lat="43.17113" lon="5.89004">
        <ele>393</ele>
        <time>2016-07-30T06:33:21.117Z</time>
      </trkpt>
      <trkpt lat="43.17114" lon="5.89011">
        <ele>393</ele>
        <time>2016-07-30T06:33:22.117Z</time>
      </trkpt>
      <trkpt lat="43.17115" lon="5.89018">
        <ele>394</ele>
        <time>2016-07-30T06:33:23.117Z</time>
      </trkpt>
      <trkpt lat="43.17116" lon="5.89025">
        <ele>393</ele>
        <time>2016-07-30T06:33:24.117Z</time>
      </trkpt>
      <trkpt lat="43.17117" lon="5.89032">
        <ele>393</ele>
        <time>2016-07-30T06:33:25.117Z</time>
      </trkpt>
      <trkpt lat="43.17119" lon="5.89038">
        <ele>393</ele>
        <time>2016-07-30T06:33:26.117Z</time>
      </trkpt>
      <trkpt lat="43.1712" lon="5.89045">
        <ele>393</ele>
        <time>2016-07-30T06:33:27.117Z</time>
      </trkpt>
      <trkpt lat="43.17122" lon="5.89051">
        <ele>393</ele>
        <time>2016-07-30T06:33:28.117Z</time>
      </trkpt>
      <trkpt lat="43.17123" lon="5.89056">
        <ele>393</ele>
        <time>2016-07-30T06:33:29.117Z</time>
      </trkpt>
      <trkpt lat="43.17125" lon="5.89062">
        <ele>393</ele>
        <time>2016-07-30T06:33:30.117Z</time>
      </trkpt>
      <trkpt lat="43.17126" lon="5.89068">
        <ele>393</ele>
        <time>2016-07-30T06:33:31.117Z</time>
      </trkpt>
      <trkpt lat="43.17127" lon="5.89073">
        <ele>393</ele>
        <time>2016-07-30T06:33:32.117Z</time>
      </trkpt>
      <trkpt lat="43.17127" lon="5.89079">
        <ele>393</ele>
        <time>2016-07-30T06:33:33.117Z</time>
      </trkpt>
      <trkpt lat="43.17127" lon="5.89084">
        <ele>393</ele>
        <time>2016-07-30T06:33:34.117Z</time>
      </trkpt>
      <trkpt lat="43.17128" lon="5.8909">
        <ele>393</ele>
        <time>2016-07-30T06:33:35.117Z</time>
      </trkpt>
      <trkpt lat="43.17127" lon="5.89095">
        <ele>393</ele>
        <time>2016-07-30T06:33:36.117Z</time>
      </trkpt>
      <trkpt lat="43.17127" lon="5.891">
        <ele>393</ele>
        <time>2016-07-30T06:33:37.117Z</time>
      </trkpt>
      <trkpt lat="43.17127" lon="5.89105">
        <ele>393</ele>
        <time>2016-07-30T06:33:38.117Z</time>
      </trkpt>
      <trkpt lat="43.17128" lon="5.8911">
        <ele>393</ele>
        <time>2016-07-30T06:33:39.117Z</time>
      </trkpt>
      <trkpt lat="43.17128" lon="5.89114">
        <ele>393</ele>
        <time>2016-07-30T06:33:40.117Z</time>
      </trkpt>
      <trkpt lat="43.17129" lon="5.89119">
        <ele>393</ele>
        <time>2016-07-30T06:33:41.117Z</time>
      </trkpt>
      <trkpt lat="43.17129" lon="5.89123">
        <ele>393</ele>
        <time>2016-07-30T06:33:42.117Z</time>
      </trkpt>
      <trkpt lat="43.1713" lon="5.89128">
        <ele>393</ele>
        <time>2016-07-30T06:33:43.117Z</time>
      </trkpt>
      <trkpt lat="43.17131" lon="5.89131">
        <ele>392</ele>
        <time>2016-07-30T06:33:44.117Z</time>
      </trkpt>
      <trkpt lat="43.17131" lon="5.89135">
        <ele>392</ele>
        <time>2016-07-30T06:33:45.117Z</time>
      </trkpt>
      <trkpt lat="43.17132" lon="5.89139">
        <ele>392</ele>
        <time>2016-07-30T06:33:46.117Z</time>
      </trkpt>
      <trkpt lat="43.17133" lon="5.89143">
        <ele>393</ele>
        <time>2016-07-30T06:33:47.117Z</time>
      </trkpt>
      <trkpt lat="43.17134" lon="5.89148">
        <ele>394</ele>
        <time>2016-07-30T06:33:48.117Z</time>
      </trkpt>
      <trkpt lat="43.17135" lon="5.89152">
        <ele>395</ele>
        <time>2016-07-30T06:33:49.117Z</time>
      </trkpt>
      <trkpt lat="43.17135" lon="5.89156">
        <ele>395</ele>
        <time>2016-07-30T06:33:50.117Z</time>
      </trkpt>
      <trkpt lat="43.17136" lon="5.89161">
        <ele>396</ele>
        <time>2016-07-30T06:33:51.117Z</time>
      </trkpt>
      <trkpt lat="43.17136" lon="5.89165">
        <ele>397</ele>
        <time>2016-07-30T06:33:52.117Z</time>
      </trkpt>
      <trkpt lat="43.17137" lon="5.89169">
        <ele>397</ele>
        <time>2016-07-30T06:33:53.117Z</time>
      </trkpt>
      <trkpt lat="43.17137" lon="5.89173">
        <ele>398</ele>
        <time>2016-07-30T06:33:54.117Z</time>
      </trkpt>
      <trkpt lat="43.17138" lon="5.89176">
        <ele>399</ele>
        <time>2016-07-30T06:33:55.117Z</time>
      </trkpt>
      <trkpt lat="43.17139" lon="5.8918">
        <ele>400</ele>
        <time>2016-07-30T06:33:56.117Z</time>
      </trkpt>
      <trkpt lat="43.1714" lon="5.89184">
        <ele>401</ele>
        <time>2016-07-30T06:33:57.117Z</time>
      </trkpt>
      <trkpt lat="43.17141" lon="5.89188">
        <ele>402</ele>
        <time>2016-07-30T06:33:58.117Z</time>
      </trkpt>
      <trkpt lat="43.17141" lon="5.89192">
        <ele>403</ele>
        <time>2016-07-30T06:33:59.117Z</time>
      </trkpt>
      <trkpt lat="43.17141" lon="5.89196">
        <ele>403</ele>
        <time>2016-07-30T06:34:00.117Z</time>
      </trkpt>
      <trkpt lat="43.17141" lon="5.89199">
        <ele>404</ele>
        <time>2016-07-30T06:34:01.117Z</time>
      </trkpt>
      <trkpt lat="43.17142" lon="5.89203">
        <ele>404</ele>
        <time>2016-07-30T06:34:02.117Z</time>
      </trkpt>
      <trkpt lat="43.17142" lon="5.89207">
        <ele>405</ele>
        <time>2016-07-30T06:34:03.117Z</time>
      </trkpt>
      <trkpt lat="43.17143" lon="5.89211">
        <ele>406</ele>
        <time>2016-07-30T06:34:04.117Z</time>
      </trkpt>
      <trkpt lat="43.17143" lon="5.89216">
        <ele>407</ele>
        <time>2016-07-30T06:34:05.117Z</time>
      </trkpt>
      <trkpt lat="43.17143" lon="5.8922">
        <ele>408</ele>
        <time>2016-07-30T06:34:06.117Z</time>
      </trkpt>
      <trkpt lat="43.17144" lon="5.89224">
        <ele>409</ele>
        <time>2016-07-30T06:34:07.117Z</time>
      </trkpt>
      <trkpt lat="43.17144" lon="5.89228">
        <ele>410</ele>
        <time>2016-07-30T06:34:08.117Z</time>
      </trkpt>
      <trkpt lat="43.17145" lon="5.89232">
        <ele>410</ele>
        <time>2016-07-30T06:34:09.117Z</time>
      </trkpt>
      <trkpt lat="43.17145" lon="5.89235">
        <ele>410</ele>
        <time>2016-07-30T06:34:10.117Z</time>
      </trkpt>
      <trkpt lat="43.17146" lon="5.89239">
        <ele>410</ele>
        <time>2016-07-30T06:34:11.117Z</time>
      </trkpt>
      <trkpt lat="43.17145" lon="5.89243">
        <ele>410</ele>
        <time>2016-07-30T06:34:12.117Z</time>
      </trkpt>
      <trkpt lat="43.17145" lon="5.89247">
        <ele>410</ele>
        <time>2016-07-30T06:34:13.117Z</time>
      </trkpt>
      <trkpt lat="43.17145" lon="5.8925">
        <ele>410</ele>
        <time>2016-07-30T06:34:14.117Z</time>
      </trkpt>
      <trkpt lat="43.17144" lon="5.89254">
        <ele>410</ele>
        <time>2016-07-30T06:34:15.117Z</time>
      </trkpt>
      <trkpt lat="43.17144" lon="5.89258">
        <ele>411</ele>
        <time>2016-07-30T06:34:16.117Z</time>
      </trkpt>
      <trkpt lat="43.17144" lon="5.89261">
        <ele>411</ele>
        <time>2016-07-30T06:34:17.117Z</time>
      </trkpt>
      <trkpt lat="43.17144" lon="5.89265">
        <ele>412</ele>
        <time>2016-07-30T06:34:18.117Z</time>
      </trkpt>
      <trkpt lat="43.17144" lon="5.89269">
        <ele>412</ele>
        <time>2016-07-30T06:34:19.117Z</time>
      </trkpt>
      <trkpt lat="43.17144" lon="5.89273">
        <ele>412</ele>
        <time>2016-07-30T06:34:20.117Z</time>
      </trkpt>
      <trkpt lat="43.17144" lon="5.89277">
        <ele>412</ele>
        <time>2016-07-30T06:34:21.117Z</time>
      </trkpt>
      <trkpt lat="43.17144" lon="5.89281">
        <ele>412</ele>
        <time>2016-07-30T06:34:22.117Z</time>
      </trkpt>
      <trkpt lat="43.17144" lon="5.89284">
        <ele>412</ele>
        <time>2016-07-30T06:34:23.117Z</time>
      </trkpt>
      <trkpt lat="43.17144" lon="5.89288">
        <ele>412</ele>
        <time>2016-07-30T06:34:24.117Z</time>
      </trkpt>
      <trkpt lat="43.17145" lon="5.89292">
        <ele>412</ele>
        <time>2016-07-30T06:34:25.117Z</time>
      </trkpt>
      <trkpt lat="43.17145" lon="5.89296">
        <ele>412</ele>
        <time>2016-07-30T06:34:26.117Z</time>
      </trkpt>
      <trkpt lat="43.17145" lon="5.893">
        <ele>412</ele>
        <time>2016-07-30T06:34:27.117Z</time>
      </trkpt>
      <trkpt lat="43.17146" lon="5.89304">
        <ele>412</ele>
        <time>2016-07-30T06:34:28.117Z</time>
      </trkpt>
      <trkpt lat="43.17146" lon="5.89308">
        <ele>412</ele>
        <time>2016-07-30T06:34:29.117Z</time>
      </trkpt>
      <trkpt lat="43.17146" lon="5.89311">
        <ele>412</ele>
        <time>2016-07-30T06:34:30.117Z</time>
      </trkpt>
      <trkpt lat="43.17146" lon="5.89315">
        <ele>412</ele>
        <time>2016-07-30T06:34:31.117Z</time>
      </trkpt>
      <trkpt lat="43.17146" lon="5.89319">
        <ele>412</ele>
        <time>2016-07-30T06:34:32.117Z</time>
      </trkpt>
      <trkpt lat="43.17147" lon="5.89323">
        <ele>412</ele>
        <time>2016-07-30T06:34:33.117Z</time>
      </trkpt>
      <trkpt lat="43.17147" lon="5.89326">
        <ele>411</ele>
        <time>2016-07-30T06:34:34.117Z</time>
      </trkpt>
      <trkpt lat="43.17148" lon="5.89329">
        <ele>411</ele>
        <time>2016-07-30T06:34:35.117Z</time>
      </trkpt>
      <trkpt lat="43.17149" lon="5.89332">
        <ele>411</ele>
        <time>2016-07-30T06:34:36.117Z</time>
      </trkpt>
      <trkpt lat="43.1715" lon="5.89336">
        <ele>411</ele>
        <time>2016-07-30T06:34:37.117Z</time>
      </trkpt>
      <trkpt lat="43.1715" lon="5.89339">
        <ele>411</ele>
        <time>2016-07-30T06:34:38.117Z</time>
      </trkpt>
      <trkpt lat="43.17151" lon="5.89342">
        <ele>411</ele>
        <time>2016-07-30T06:34:39.117Z</time>
      </trkpt>
      <trkpt lat="43.17152" lon="5.89346">
        <ele>411</ele>
        <time>2016-07-30T06:34:40.117Z</time>
      </trkpt>
      <trkpt lat="43.17152" lon="5.89349">
        <ele>412</ele>
        <time>2016-07-30T06:34:41.117Z</time>
      </trkpt>
      <trkpt lat="43.17153" lon="5.89352">
        <ele>412</ele>
        <time>2016-07-30T06:34:42.117Z</time>
      </trkpt>
      <trkpt lat="43.17154" lon="5.89356">
        <ele>412</ele>
        <time>2016-07-30T06:34:43.117Z</time>
      </trkpt>
      <trkpt lat="43.17155" lon="5.89359">
        <ele>413</ele>
        <time>2016-07-30T06:34:44.117Z</time>
      </trkpt>
      <trkpt lat="43.17155" lon="5.89363">
        <ele>414</ele>
        <time>2016-07-30T06:34:45.117Z</time>
      </trkpt>
      <trkpt lat="43.17156" lon="5.89366">
        <ele>413</ele>
        <time>2016-07-30T06:34:46.117Z</time>
      </trkpt>
      <trkpt lat="43.17157" lon="5.8937">
        <ele>413</ele>
        <time>2016-07-30T06:34:47.117Z</time>
      </trkpt>
      <trkpt lat="43.17159" lon="5.89374">
        <ele>415</ele>
        <time>2016-07-30T06:34:48.117Z</time>
      </trkpt>
      <trkpt lat="43.1716" lon="5.89377">
        <ele>416</ele>
        <time>2016-07-30T06:34:49.117Z</time>
      </trkpt>
      <trkpt lat="43.17162" lon="5.8938">
        <ele>416</ele>
        <time>2016-07-30T06:34:50.117Z</time>
      </trkpt>
      <trkpt lat="43.17163" lon="5.89383">
        <ele>416</ele>
        <time>2016-07-30T06:34:51.117Z</time>
      </trkpt>
      <trkpt lat="43.17164" lon="5.89386">
        <ele>417</ele>
        <time>2016-07-30T06:34:52.117Z</time>
      </trkpt>
      <trkpt lat="43.17166" lon="5.89388">
        <ele>417</ele>
        <time>2016-07-30T06:34:53.117Z</time>
      </trkpt>
      <trkpt lat="43.17168" lon="5.89391">
        <ele>417</ele>
        <time>2016-07-30T06:34:54.117Z</time>
      </trkpt>
      <trkpt lat="43.17169" lon="5.89392">
        <ele>417</ele>
        <time>2016-07-30T06:34:55.117Z</time>
      </trkpt>
      <trkpt lat="43.17171" lon="5.89394">
        <ele>418</ele>
        <time>2016-07-30T06:34:56.117Z</time>
      </trkpt>
      <trkpt lat="43.17173" lon="5.89395">
        <ele>418</ele>
        <time>2016-07-30T06:34:57.117Z</time>
      </trkpt>
      <trkpt lat="43.17175" lon="5.89396">
        <ele>419</ele>
        <time>2016-07-30T06:34:58.117Z</time>
      </trkpt>
      <trkpt lat="43.17177" lon="5.89398">
        <ele>419</ele>
        <time>2016-07-30T06:34:59.117Z</time>
      </trkpt>
      <trkpt lat="43.17179" lon="5.89399">
        <ele>420</ele>
        <time>2016-07-30T06:35:00.117Z</time>
      </trkpt>
      <trkpt lat="43.17181" lon="5.894">
        <ele>420</ele>
        <time>2016-07-30T06:35:01.117Z</time>
      </trkpt>
      <trkpt lat="43.17183" lon="5.89401">
        <ele>420</ele>
        <time>2016-07-30T06:35:02.117Z</time>
      </trkpt>
      <trkpt lat="43.17185" lon="5.89401">
        <ele>420</ele>
        <time>2016-07-30T06:35:03.117Z</time>
      </trkpt>
      <trkpt lat="43.17187" lon="5.89402">
        <ele>420</ele>
        <time>2016-07-30T06:35:04.117Z</time>
      </trkpt>
      <trkpt lat="43.17189" lon="5.89403">
        <ele>420</ele>
        <time>2016-07-30T06:35:05.117Z</time>
      </trkpt>
      <trkpt lat="43.17191" lon="5.89403">
        <ele>420</ele>
        <time>2016-07-30T06:35:06.117Z</time>
      </trkpt>
      <trkpt lat="43.17194" lon="5.89404">
        <ele>420</ele>
        <time>2016-07-30T06:35:07.117Z</time>
      </trkpt>
      <trkpt lat="43.17196" lon="5.89405">
        <ele>420</ele>
        <time>2016-07-30T06:35:08.117Z</time>
      </trkpt>
      <trkpt lat="43.17198" lon="5.89405">
        <ele>420</ele>
        <time>2016-07-30T06:35:09.117Z</time>
      </trkpt>
      <trkpt lat="43.172" lon="5.89406">
        <ele>420</ele>
        <time>2016-07-30T06:35:10.117Z</time>
      </trkpt>
      <trkpt lat="43.17203" lon="5.89407">
        <ele>420</ele>
        <time>2016-07-30T06:35:11.117Z</time>
      </trkpt>
      <trkpt lat="43.17205" lon="5.89407">
        <ele>420</ele>
        <time>2016-07-30T06:35:12.117Z</time>
      </trkpt>
      <trkpt lat="43.17207" lon="5.89408">
        <ele>420</ele>
        <time>2016-07-30T06:35:13.117Z</time>
      </trkpt>
      <trkpt lat="43.17209" lon="5.89408">
        <ele>421</ele>
        <time>2016-07-30T06:35:14.117Z</time>
      </trkpt>
      <trkpt lat="43.17212" lon="5.89409">
        <ele>421</ele>
        <time>2016-07-30T06:35:15.117Z</time>
      </trkpt>
      <trkpt lat="43.17214" lon="5.8941">
        <ele>421</ele>
        <time>2016-07-30T06:35:16.117Z</time>
      </trkpt>
      <trkpt lat="43.17216" lon="5.89411">
        <ele>421</ele>
        <time>2016-07-30T06:35:17.117Z</time>
      </trkpt>
      <trkpt lat="43.17218" lon="5.89412">
        <ele>421</ele>
        <time>2016-07-30T06:35:18.117Z</time>
      </trkpt>
      <trkpt lat="43.1722" lon="5.89413">
        <ele>422</ele>
        <time>2016-07-30T06:35:19.117Z</time>
      </trkpt>
      <trkpt lat="43.17222" lon="5.89414">
        <ele>422</ele>
        <time>2016-07-30T06:35:20.117Z</time>
      </trkpt>
      <trkpt lat="43.17224" lon="5.89415">
        <ele>422</ele>
        <time>2016-07-30T06:35:21.117Z</time>
      </trkpt>
      <trkpt lat="43.17226" lon="5.89416">
        <ele>422</ele>
        <time>2016-07-30T06:35:22.117Z</time>
      </trkpt>
      <trkpt lat="43.17228" lon="5.89417">
        <ele>422</ele>
        <time>2016-07-30T06:35:23.117Z</time>
      </trkpt>
      <trkpt lat="43.1723" lon="5.89419">
        <ele>422</ele>
        <time>2016-07-30T06:35:24.117Z</time>
      </trkpt>
      <trkpt lat="43.17232" lon="5.8942">
        <ele>422</ele>
        <time>2016-07-30T06:35:25.117Z</time>
      </trkpt>
      <trkpt lat="43.17234" lon="5.89421">
        <ele>422</ele>
        <time>2016-07-30T06:35:26.117Z</time>
      </trkpt>
      <trkpt lat="43.17235" lon="5.89422">
        <ele>422</ele>
        <time>2016-07-30T06:35:27.117Z</time>
      </trkpt>
      <trkpt lat="43.17237" lon="5.89423">
        <ele>422</ele>
        <time>2016-07-30T06:35:28.117Z</time>
      </trkpt>
      <trkpt lat="43.17239" lon="5.89424">
        <ele>423</ele>
        <time>2016-07-30T06:35:29.117Z</time>
      </trkpt>
      <trkpt lat="43.17241" lon="5.89425">
        <ele>423</ele>
        <time>2016-07-30T06:35:30.117Z</time>
      </trkpt>
      <trkpt lat="43.17243" lon="5.89427">
        <ele>423</ele>
        <time>2016-07-30T06:35:31.117Z</time>
      </trkpt>
      <trkpt lat="43.17245" lon="5.89428">
        <ele>423</ele>
        <time>2016-07-30T06:35:32.117Z</time>
      </trkpt>
      <trkpt lat="43.17247" lon="5.89429">
        <ele>423</ele>
        <time>2016-07-30T06:35:33.117Z</time>
      </trkpt>
      <trkpt lat="43.17249" lon="5.89431">
        <ele>424</ele>
        <time>2016-07-30T06:35:34.117Z</time>
      </trkpt>
      <trkpt lat="43.1725" lon="5.89433">
        <ele>424</ele>
        <time>2016-07-30T06:35:35.117Z</time>
      </trkpt>
      <trkpt lat="43.17252" lon="5.89436">
        <ele>424</ele>
        <time>2016-07-30T06:35:36.117Z</time>
      </trkpt>
      <trkpt lat="43.17254" lon="5.89439">
        <ele>425</ele>
        <time>2016-07-30T06:35:37.117Z</time>
      </trkpt>
      <trkpt lat="43.17255" lon="5.89442">
        <ele>425</ele>
        <time>2016-07-30T06:35:38.117Z</time>
      </trkpt>
      <trkpt lat="43.17257" lon="5.89445">
        <ele>426</ele>
        <time>2016-07-30T06:35:39.117Z</time>
      </trkpt>
      <trkpt lat="43.17258" lon="5.89448">
        <ele>426</ele>
        <time>2016-07-30T06:35:40.117Z</time>
      </trkpt>
      <trkpt lat="43.17259" lon="5.89451">
        <ele>426</ele>
        <time>2016-07-30T06:35:41.117Z</time>
      </trkpt>
      <trkpt lat="43.1726" lon="5.89454">
        <ele>426</ele>
        <time>2016-07-30T06:35:42.117Z</time>
      </trkpt>
      <trkpt lat="43.17261" lon="5.89457">
        <ele>427</ele>
        <time>2016-07-30T06:35:43.117Z</time>
      </trkpt>
      <trkpt lat="43.17262" lon="5.8946">
        <ele>427</ele>
        <time>2016-07-30T06:35:44.117Z</time>
      </trkpt>
      <trkpt lat="43.17263" lon="5.89463">
        <ele>428</ele>
        <time>2016-07-30T06:35:45.117Z</time>
      </trkpt>
      <trkpt lat="43.17264" lon="5.89466">
        <ele>428</ele>
        <time>2016-07-30T06:35:46.117Z</time>
      </trkpt>
      <trkpt lat="43.17264" lon="5.89469">
        <ele>428</ele>
        <time>2016-07-30T06:35:47.117Z</time>
      </trkpt>
      <trkpt lat="43.17265" lon="5.89472">
        <ele>429</ele>
        <time>2016-07-30T06:35:48.117Z</time>
      </trkpt>
      <trkpt lat="43.17266" lon="5.89475">
        <ele>429</ele>
        <time>2016-07-30T06:35:49.117Z</time>
      </trkpt>
      <trkpt lat="43.17267" lon="5.89478">
        <ele>429</ele>
        <time>2016-07-30T06:35:50.117Z</time>
      </trkpt>
      <trkpt lat="43.17267" lon="5.89481">
        <ele>430</ele>
        <time>2016-07-30T06:35:51.117Z</time>
      </trkpt>
      <trkpt lat="43.17268" lon="5.89484">
        <ele>431</ele>
        <time>2016-07-30T06:35:52.117Z</time>
      </trkpt>
      <trkpt lat="43.17268" lon="5.89487">
        <ele>431</ele>
        <time>2016-07-30T06:35:53.117Z</time>
      </trkpt>
      <trkpt lat="43.17268" lon="5.8949">
        <ele>432</ele>
        <time>2016-07-30T06:35:54.117Z</time>
      </trkpt>
      <trkpt lat="43.17268" lon="5.89493">
        <ele>432</ele>
        <time>2016-07-30T06:35:55.117Z</time>
      </trkpt>
      <trkpt lat="43.17269" lon="5.89496">
        <ele>432</ele>
        <time>2016-07-30T06:35:56.117Z</time>
      </trkpt>
      <trkpt lat="43.17269" lon="5.89499">
        <ele>433</ele>
        <time>2016-07-30T06:35:57.117Z</time>
      </trkpt>
      <trkpt lat="43.1727" lon="5.89502">
        <ele>433</ele>
        <time>2016-07-30T06:35:58.117Z</time>
      </trkpt>
      <trkpt lat="43.17271" lon="5.89504">
        <ele>433</ele>
        <time>2016-07-30T06:35:59.117Z</time>
      </trkpt>
      <trkpt lat="43.17272" lon="5.89507">
        <ele>434</ele>
        <time>2016-07-30T06:36:00.117Z</time>
      </trkpt>
      <trkpt lat="43.17272" lon="5.8951">
        <ele>434</ele>
        <time>2016-07-30T06:36:01.117Z</time>
      </trkpt>
      <trkpt lat="43.17273" lon="5.89513">
        <ele>434</ele>
        <time>2016-07-30T06:36:02.117Z</time>
      </trkpt>
      <trkpt lat="43.17274" lon="5.89515">
        <ele>435</ele>
        <time>2016-07-30T06:36:03.117Z</time>
      </trkpt>
      <trkpt lat="43.17274" lon="5.89518">
        <ele>435</ele>
        <time>2016-07-30T06:36:04.117Z</time>
      </trkpt>
      <trkpt lat="43.17275" lon="5.89521">
        <ele>436</ele>
        <time>2016-07-30T06:36:05.117Z</time>
      </trkpt>
      <trkpt lat="43.17276" lon="5.89523">
        <ele>436</ele>
        <time>2016-07-30T06:36:06.117Z</time>
      </trkpt>
      <trkpt lat="43.17277" lon="5.89526">
        <ele>436</ele>
        <time>2016-07-30T06:36:07.117Z</time>
      </trkpt>
      <trkpt lat="43.17277" lon="5.89529">
        <ele>437</ele>
        <time>2016-07-30T06:36:08.117Z</time>
      </trkpt>
      <trkpt lat="43.17278" lon="5.89531">
        <ele>437</ele>
        <time>2016-07-30T06:36:09.117Z</time>
      </trkpt>
      <trkpt lat="43.17278" lon="5.89534">
        <ele>437</ele>
        <time>2016-07-30T06:36:10.117Z</time>
      </trkpt>
      <trkpt lat="43.17279" lon="5.89537">
        <ele>438</ele>
        <time>2016-07-30T06:36:11.117Z</time>
      </trkpt>
      <trkpt lat="43.17279" lon="5.8954">
        <ele>439</ele>
        <time>2016-07-30T06:36:12.117Z</time>
      </trkpt>
      <trkpt lat="43.1728" lon="5.89542">
        <ele>440</ele>
        <time>2016-07-30T06:36:13.117Z</time>
      </trkpt>
      <trkpt lat="43.1728" lon="5.89545">
        <ele>440</ele>
        <time>2016-07-30T06:36:14.117Z</time>
      </trkpt>
      <trkpt lat="43.17281" lon="5.89548">
        <ele>440</ele>
        <time>2016-07-30T06:36:15.117Z</time>
      </trkpt>
      <trkpt lat="43.17281" lon="5.89551">
        <ele>440</ele>
        <time>2016-07-30T06:36:16.117Z</time>
      </trkpt>
      <trkpt lat="43.17282" lon="5.89554">
        <ele>440</ele>
        <time>2016-07-30T06:36:17.117Z</time>
      </trkpt>
      <trkpt lat="43.17282" lon="5.89557">
        <ele>440</ele>
        <time>2016-07-30T06:36:18.117Z</time>
      </trkpt>
      <trkpt lat="43.17282" lon="5.8956">
        <ele>440</ele>
        <time>2016-07-30T06:36:19.117Z</time>
      </trkpt>
      <trkpt lat="43.17282" lon="5.89562">
        <ele>440</ele>
        <time>2016-07-30T06:36:20.117Z</time>
      </trkpt>
      <trkpt lat="43.17282" lon="5.89565">
        <ele>440</ele>
        <time>2016-07-30T06:36:21.117Z</time>
      </trkpt>
      <trkpt lat="43.17283" lon="5.89568">
        <ele>440</ele>
        <time>2016-07-30T06:36:22.117Z</time>
      </trkpt>
      <trkpt lat="43.17283" lon="5.89571">
        <ele>440</ele>
        <time>2016-07-30T06:36:23.117Z</time>
      </trkpt>
      <trkpt lat="43.17283" lon="5.89573">
        <ele>440</ele>
        <time>2016-07-30T06:36:24.117Z</time>
      </trkpt>
      <trkpt lat="43.17283" lon="5.89576">
        <ele>440</ele>
        <time>2016-07-30T06:36:25.117Z</time>
      </trkpt>
      <trkpt lat="43.17283" lon="5.89578">
        <ele>440</ele>
        <time>2016-07-30T06:36:26.117Z</time>
      </trkpt>
      <trkpt lat="43.17283" lon="5.89581">
        <ele>440</ele>
        <time>2016-07-30T06:36:27.117Z</time>
      </trkpt>
      <trkpt lat="43.17283" lon="5.89584">
        <ele>440</ele>
        <time>2016-07-30T06:36:28.117Z</time>
      </trkpt>
      <trkpt lat="43.17284" lon="5.89586">
        <ele>441</ele>
        <time>2016-07-30T06:36:29.117Z</time>
      </trkpt>
      <trkpt lat="43.17284" lon="5.89589">
        <ele>440</ele>
        <time>2016-07-30T06:36:30.117Z</time>
      </trkpt>
      <trkpt lat="43.17285" lon="5.89592">
        <ele>441</ele>
        <time>2016-07-30T06:36:31.117Z</time>
      </trkpt>
      <trkpt lat="43.17285" lon="5.89594">
        <ele>441</ele>
        <time>2016-07-30T06:36:32.117Z</time>
      </trkpt>
      <trkpt lat="43.17286" lon="5.89597">
        <ele>441</ele>
        <time>2016-07-30T06:36:33.117Z</time>
      </trkpt>
      <trkpt lat="43.17287" lon="5.896">
        <ele>441</ele>
        <time>2016-07-30T06:36:34.117Z</time>
      </trkpt>
      <trkpt lat="43.17288" lon="5.89603">
        <ele>441</ele>
        <time>2016-07-30T06:36:35.117Z</time>
      </trkpt>
      <trkpt lat="43.17289" lon="5.89606">
        <ele>441</ele>
        <time>2016-07-30T06:36:36.117Z</time>
      </trkpt>
      <trkpt lat="43.1729" lon="5.89608">
        <ele>442</ele>
        <time>2016-07-30T06:36:37.117Z</time>
      </trkpt>
      <trkpt lat="43.17291" lon="5.89611">
        <ele>442</ele>
        <time>2016-07-30T06:36:38.117Z</time>
      </trkpt>
      <trkpt lat="43.17292" lon="5.89614">
        <ele>442</ele>
        <time>2016-07-30T06:36:39.117Z</time>
      </trkpt>
      <trkpt lat="43.17293" lon="5.89616">
        <ele>442</ele>
        <time>2016-07-30T06:36:40.117Z</time>
      </trkpt>
      <trkpt lat="43.17294" lon="5.89618">
        <ele>442</ele>
        <time>2016-07-30T06:36:41.117Z</time>
      </trkpt>
      <trkpt lat="43.17296" lon="5.8962">
        <ele>442</ele>
        <time>2016-07-30T06:36:42.117Z</time>
      </trkpt>
      <trkpt lat="43.17297" lon="5.89622">
        <ele>442</ele>
        <time>2016-07-30T06:36:43.117Z</time>
      </trkpt>
      <trkpt lat="43.17299" lon="5.89625">
        <ele>442</ele>
        <time>2016-07-30T06:36:44.117Z</time>
      </trkpt>
      <trkpt lat="43.173" lon="5.89627">
        <ele>443</ele>
        <time>2016-07-30T06:36:45.117Z</time>
      </trkpt>
      <trkpt lat="43.17302" lon="5.89629">
        <ele>443</ele>
        <time>2016-07-30T06:36:46.117Z</time>
      </trkpt>
      <trkpt lat="43.17303" lon="5.8963">
        <ele>443</ele>
        <time>2016-07-30T06:36:47.117Z</time>
      </trkpt>
      <trkpt lat="43.17305" lon="5.89632">
        <ele>444</ele>
        <time>2016-07-30T06:36:48.117Z</time>
      </trkpt>
      <trkpt lat="43.17307" lon="5.89634">
        <ele>444</ele>
        <time>2016-07-30T06:36:49.117Z</time>
      </trkpt>
      <trkpt lat="43.17309" lon="5.89636">
        <ele>445</ele>
        <time>2016-07-30T06:36:50.117Z</time>
      </trkpt>
      <trkpt lat="43.17311" lon="5.89638">
        <ele>445</ele>
        <time>2016-07-30T06:36:51.117Z</time>
      </trkpt>
      <trkpt lat="43.17313" lon="5.8964">
        <ele>445</ele>
        <time>2016-07-30T06:36:52.117Z</time>
      </trkpt>
      <trkpt lat="43.17315" lon="5.89642">
        <ele>445</ele>
        <time>2016-07-30T06:36:53.117Z</time>
      </trkpt>
      <trkpt lat="43.17316" lon="5.89644">
        <ele>446</ele>
        <time>2016-07-30T06:36:54.117Z</time>
      </trkpt>
      <trkpt lat="43.17318" lon="5.89646">
        <ele>446</ele>
        <time>2016-07-30T06:36:55.117Z</time>
      </trkpt>
      <trkpt lat="43.1732" lon="5.89648">
        <ele>446</ele>
        <time>2016-07-30T06:36:56.117Z</time>
      </trkpt>
      <trkpt lat="43.17322" lon="5.8965">
        <ele>447</ele>
        <time>2016-07-30T06:36:57.117Z</time>
      </trkpt>
      <trkpt lat="43.17324" lon="5.89652">
        <ele>447</ele>
        <time>2016-07-30T06:36:58.117Z</time>
      </trkpt>
      <trkpt lat="43.17325" lon="5.89654">
        <ele>448</ele>
        <time>2016-07-30T06:36:59.117Z</time>
      </trkpt>
      <trkpt lat="43.17327" lon="5.89656">
        <ele>448</ele>
        <time>2016-07-30T06:37:00.117Z</time>
      </trkpt>
      <trkpt lat="43.17329" lon="5.89658">
        <ele>448</ele>
        <time>2016-07-30T06:37:01.117Z</time>
      </trkpt>
      <trkpt lat="43.1733" lon="5.8966">
        <ele>449</ele>
        <time>2016-07-30T06:37:02.117Z</time>
      </trkpt>
      <trkpt lat="43.17332" lon="5.89661">
        <ele>449</ele>
        <time>2016-07-30T06:37:03.117Z</time>
      </trkpt>
      <trkpt lat="43.17334" lon="5.89663">
        <ele>449</ele>
        <time>2016-07-30T06:37:04.117Z</time>
      </trkpt>
      <trkpt lat="43.17335" lon="5.89665">
        <ele>449</ele>
        <time>2016-07-30T06:37:05.117Z</time>
      </trkpt>
      <trkpt lat="43.17337" lon="5.89667">
        <ele>449</ele>
        <time>2016-07-30T06:37:06.117Z</time>
      </trkpt>
      <trkpt lat="43.17338" lon="5.89669">
        <ele>449</ele>
        <time>2016-07-30T06:37:07.117Z</time>
      </trkpt>
      <trkpt lat="43.1734" lon="5.89671">
        <ele>450</ele>
        <time>2016-07-30T06:37:08.117Z</time>
      </trkpt>
      <trkpt lat="43.17342" lon="5.89673">
        <ele>450</ele>
        <time>2016-07-30T06:37:09.117Z</time>
      </trkpt>
      <trkpt lat="43.17344" lon="5.89675">
        <ele>450</ele>
        <time>2016-07-30T06:37:10.117Z</time>
      </trkpt>
      <trkpt lat="43.17345" lon="5.89677">
        <ele>451</ele>
        <time>2016-07-30T06:37:11.117Z</time>
      </trkpt>
      <trkpt lat="43.17347" lon="5.89679">
        <ele>451</ele>
        <time>2016-07-30T06:37:12.117Z</time>
      </trkpt>
      <trkpt lat="43.17348" lon="5.89681">
        <ele>451</ele>
        <time>2016-07-30T06:37:13.117Z</time>
      </trkpt>
      <trkpt lat="43.1735" lon="5.89683">
        <ele>451</ele>
        <time>2016-07-30T06:37:14.117Z</time>
      </trkpt>
      <trkpt lat="43.17351" lon="5.89686">
        <ele>452</ele>
        <time>2016-07-30T06:37:15.117Z</time>
      </trkpt>
      <trkpt lat="43.17352" lon="5.89688">
        <ele>452</ele>
        <time>2016-07-30T06:37:16.117Z</time>
      </trkpt>
      <trkpt lat="43.17353" lon="5.89691">
        <ele>452</ele>
        <time>2016-07-30T06:37:17.117Z</time>
      </trkpt>
      <trkpt lat="43.17354" lon="5.89693">
        <ele>453</ele>
        <time>2016-07-30T06:37:18.117Z</time>
      </trkpt>
      <trkpt lat="43.17355" lon="5.89696">
        <ele>453</ele>
        <time>2016-07-30T06:37:19.117Z</time>
      </trkpt>
      <trkpt lat="43.17356" lon="5.89698">
        <ele>453</ele>
        <time>2016-07-30T06:37:20.117Z</time>
      </trkpt>
      <trkpt lat="43.17357" lon="5.897">
        <ele>453</ele>
        <time>2016-07-30T06:37:21.117Z</time>
      </trkpt>
      <trkpt lat="43.17358" lon="5.89703">
        <ele>454</ele>
        <time>2016-07-30T06:37:22.117Z</time>
      </trkpt>
      <trkpt lat="43.17359" lon="5.89706">
        <ele>454</ele>
        <time>2016-07-30T06:37:23.117Z</time>
      </trkpt>
      <trkpt lat="43.1736" lon="5.89708">
        <ele>455</ele>
        <time>2016-07-30T06:37:24.117Z</time>
      </trkpt>
      <trkpt lat="43.17361" lon="5.89711">
        <ele>456</ele>
        <time>2016-07-30T06:37:25.117Z</time>
      </trkpt>
      <trkpt lat="43.17362" lon="5.89714">
        <ele>456</ele>
        <time>2016-07-30T06:37:26.117Z</time>
      </trkpt>
      <trkpt lat="43.17363" lon="5.89717">
        <ele>456</ele>
        <time>2016-07-30T06:37:27.117Z</time>
      </trkpt>
      <trkpt lat="43.17364" lon="5.8972">
        <ele>457</ele>
        <time>2016-07-30T06:37:28.117Z</time>
      </trkpt>
      <trkpt lat="43.17365" lon="5.89723">
        <ele>457</ele>
        <time>2016-07-30T06:37:29.117Z</time>
      </trkpt>
      <trkpt lat="43.17366" lon="5.89725">
        <ele>458</ele>
        <time>2016-07-30T06:37:30.117Z</time>
      </trkpt>
      <trkpt lat="43.17367" lon="5.89728">
        <ele>458</ele>
        <time>2016-07-30T06:37:31.117Z</time>
      </trkpt>
      <trkpt lat="43.17369" lon="5.8973">
        <ele>458</ele>
        <time>2016-07-30T06:37:32.117Z</time>
      </trkpt>
      <trkpt lat="43.1737" lon="5.89733">
        <ele>458</ele>
        <time>2016-07-30T06:37:33.117Z</time>
      </trkpt>
      <trkpt lat="43.17371" lon="5.89735">
        <ele>459</ele>
        <time>2016-07-30T06:37:34.117Z</time>
      </trkpt>
      <trkpt lat="43.17372" lon="5.89737">
        <ele>459</ele>
        <time>2016-07-30T06:37:35.117Z</time>
      </trkpt>
      <trkpt lat="43.17374" lon="5.89739">
        <ele>459</ele>
        <time>2016-07-30T06:37:36.117Z</time>
      </trkpt>
      <trkpt lat="43.17375" lon="5.89742">
        <ele>459</ele>
        <time>2016-07-30T06:37:37.117Z</time>
      </trkpt>
      <trkpt lat="43.17376" lon="5.89744">
        <ele>460</ele>
        <time>2016-07-30T06:37:38.117Z</time>
      </trkpt>
      <trkpt lat="43.17377" lon="5.89746">
        <ele>460</ele>
        <time>2016-07-30T06:37:39.117Z</time>
      </trkpt>
      <trkpt lat="43.17378" lon="5.89748">
        <ele>460</ele>
        <time>2016-07-30T06:37:40.117Z</time>
      </trkpt>
      <trkpt lat="43.1738" lon="5.89751">
        <ele>460</ele>
        <time>2016-07-30T06:37:41.117Z</time>
      </trkpt>
      <trkpt lat="43.17381" lon="5.89753">
        <ele>461</ele>
        <time>2016-07-30T06:37:42.117Z</time>
      </trkpt>
      <trkpt lat="43.17382" lon="5.89755">
        <ele>461</ele>
        <time>2016-07-30T06:37:43.117Z</time>
      </trkpt>
      <trkpt lat="43.17383" lon="5.89758">
        <ele>461</ele>
        <time>2016-07-30T06:37:44.117Z</time>
      </trkpt>
      <trkpt lat="43.17384" lon="5.89759">
        <ele>461</ele>
        <time>2016-07-30T06:37:45.117Z</time>
      </trkpt>
      <trkpt lat="43.17385" lon="5.89761">
        <ele>461</ele>
        <time>2016-07-30T06:37:46.117Z</time>
      </trkpt>
      <trkpt lat="43.17387" lon="5.89763">
        <ele>461</ele>
        <time>2016-07-30T06:37:47.117Z</time>
      </trkpt>
      <trkpt lat="43.17388" lon="5.89764">
        <ele>461</ele>
        <time>2016-07-30T06:37:48.117Z</time>
      </trkpt>
      <trkpt lat="43.17389" lon="5.89766">
        <ele>461</ele>
        <time>2016-07-30T06:37:49.117Z</time>
      </trkpt>
      <trkpt lat="43.17391" lon="5.89767">
        <ele>461</ele>
        <time>2016-07-30T06:37:50.117Z</time>
      </trkpt>
      <trkpt lat="43.17392" lon="5.89768">
        <ele>461</ele>
        <time>2016-07-30T06:37:51.117Z</time>
      </trkpt>
      <trkpt lat="43.17394" lon="5.89769">
        <ele>461</ele>
        <time>2016-07-30T06:37:52.117Z</time>
      </trkpt>
      <trkpt lat="43.17396" lon="5.89769">
        <ele>462</ele>
        <time>2016-07-30T06:37:53.117Z</time>
      </trkpt>
      <trkpt lat="43.17398" lon="5.89769">
        <ele>462</ele>
        <time>2016-07-30T06:37:54.117Z</time>
      </trkpt>
      <trkpt lat="43.174" lon="5.89769">
        <ele>463</ele>
        <time>2016-07-30T06:37:55.117Z</time>
      </trkpt>
      <trkpt lat="43.17402" lon="5.89768">
        <ele>463</ele>
        <time>2016-07-30T06:37:56.117Z</time>
      </trkpt>
      <trkpt lat="43.17404" lon="5.89768">
        <ele>463</ele>
        <time>2016-07-30T06:37:57.117Z</time>
      </trkpt>
      <trkpt lat="43.17406" lon="5.89768">
        <ele>464</ele>
        <time>2016-07-30T06:37:58.117Z</time>
      </trkpt>
      <trkpt lat="43.17409" lon="5.89768">
        <ele>464</ele>
        <time>2016-07-30T06:37:59.117Z</time>
      </trkpt>
      <trkpt lat="43.17411" lon="5.89769">
        <ele>464</ele>
        <time>2016-07-30T06:38:00.117Z</time>
      </trkpt>
      <trkpt lat="43.17413" lon="5.89769">
        <ele>464</ele>
        <time>2016-07-30T06:38:01.117Z</time>
      </trkpt>
      <trkpt lat="43.17415" lon="5.89769">
        <ele>465</ele>
        <time>2016-07-30T06:38:02.117Z</time>
      </trkpt>
      <trkpt lat="43.17418" lon="5.89769">
        <ele>465</ele>
        <time>2016-07-30T06:38:03.117Z</time>
      </trkpt>
      <trkpt lat="43.1742" lon="5.89769">
        <ele>465</ele>
        <time>2016-07-30T06:38:04.117Z</time>
      </trkpt>
      <trkpt lat="43.17423" lon="5.8977">
        <ele>466</ele>
        <time>2016-07-30T06:38:05.117Z</time>
      </trkpt>
      <trkpt lat="43.17425" lon="5.8977">
        <ele>466</ele>
        <time>2016-07-30T06:38:06.117Z</time>
      </trkpt>
      <trkpt lat="43.17427" lon="5.8977">
        <ele>466</ele>
        <time>2016-07-30T06:38:07.117Z</time>
      </trkpt>
      <trkpt lat="43.1743" lon="5.89771">
        <ele>467</ele>
        <time>2016-07-30T06:38:08.117Z</time>
      </trkpt>
      <trkpt lat="43.17432" lon="5.89771">
        <ele>467</ele>
        <time>2016-07-30T06:38:09.117Z</time>
      </trkpt>
      <trkpt lat="43.17434" lon="5.89772">
        <ele>467</ele>
        <time>2016-07-30T06:38:10.117Z</time>
      </trkpt>
      <trkpt lat="43.17436" lon="5.89772">
        <ele>467</ele>
        <time>2016-07-30T06:38:11.117Z</time>
      </trkpt>
      <trkpt lat="43.17439" lon="5.89773">
        <ele>467</ele>
        <time>2016-07-30T06:38:12.117Z</time>
      </trkpt>
      <trkpt lat="43.17441" lon="5.89773">
        <ele>467</ele>
        <time>2016-07-30T06:38:13.117Z</time>
      </trkpt>
      <trkpt lat="43.17443" lon="5.89774">
        <ele>468</ele>
        <time>2016-07-30T06:38:14.117Z</time>
      </trkpt>
      <trkpt lat="43.17445" lon="5.89774">
        <ele>468</ele>
        <time>2016-07-30T06:38:15.117Z</time>
      </trkpt>
      <trkpt lat="43.17448" lon="5.89774">
        <ele>468</ele>
        <time>2016-07-30T06:38:16.117Z</time>
      </trkpt>
      <trkpt lat="43.1745" lon="5.89774">
        <ele>469</ele>
        <time>2016-07-30T06:38:17.117Z</time>
      </trkpt>
      <trkpt lat="43.17452" lon="5.89774">
        <ele>469</ele>
        <time>2016-07-30T06:38:18.117Z</time>
      </trkpt>
      <trkpt lat="43.17454" lon="5.89774">
        <ele>469</ele>
        <time>2016-07-30T06:38:19.117Z</time>
      </trkpt>
      <trkpt lat="43.17456" lon="5.89773">
        <ele>469</ele>
        <time>2016-07-30T06:38:20.117Z</time>
      </trkpt>
      <trkpt lat="43.17458" lon="5.89773">
        <ele>469</ele>
        <time>2016-07-30T06:38:21.117Z</time>
      </trkpt>
      <trkpt lat="43.1746" lon="5.89772">
        <ele>470</ele>
        <time>2016-07-30T06:38:22.117Z</time>
      </trkpt>
      <trkpt lat="43.17462" lon="5.89772">
        <ele>470</ele>
        <time>2016-07-30T06:38:23.117Z</time>
      </trkpt>
      <trkpt lat="43.17465" lon="5.89771">
        <ele>470</ele>
        <time>2016-07-30T06:38:24.117Z</time>
      </trkpt>
      <trkpt lat="43.17467" lon="5.89771">
        <ele>470</ele>
        <time>2016-07-30T06:38:25.117Z</time>
      </trkpt>
      <trkpt lat="43.17469" lon="5.8977">
        <ele>470</ele>
        <time>2016-07-30T06:38:26.117Z</time>
      </trkpt>
      <trkpt lat="43.17471" lon="5.8977">
        <ele>471</ele>
        <time>2016-07-30T06:38:27.117Z</time>
      </trkpt>
      <trkpt lat="43.17473" lon="5.89769">
        <ele>471</ele>
        <time>2016-07-30T06:38:28.117Z</time>
      </trkpt>
      <trkpt lat="43.17476" lon="5.89769">
        <ele>471</ele>
        <time>2016-07-30T06:38:29.117Z</time>
      </trkpt>
      <trkpt lat="43.17478" lon="5.89768">
        <ele>471</ele>
        <time>2016-07-30T06:38:30.117Z</time>
      </trkpt>
      <trkpt lat="43.1748" lon="5.89768">
        <ele>471</ele>
        <time>2016-07-30T06:38:31.117Z</time>
      </trkpt>
      <trkpt lat="43.17482" lon="5.89767">
        <ele>472</ele>
        <time>2016-07-30T06:38:32.117Z</time>
      </trkpt>
      <trkpt lat="43.17484" lon="5.89767">
        <ele>472</ele>
        <time>2016-07-30T06:38:33.117Z</time>
      </trkpt>
      <trkpt lat="43.17487" lon="5.89766">
        <ele>472</ele>
        <time>2016-07-30T06:38:34.117Z</time>
      </trkpt>
      <trkpt lat="43.17489" lon="5.89766">
        <ele>473</ele>
        <time>2016-07-30T06:38:35.117Z</time>
      </trkpt>
      <trkpt lat="43.17491" lon="5.89765">
        <ele>473</ele>
        <time>2016-07-30T06:38:36.117Z</time>
      </trkpt>
      <trkpt lat="43.17493" lon="5.89764">
        <ele>474</ele>
        <time>2016-07-30T06:38:37.117Z</time>
      </trkpt>
      <trkpt lat="43.17495" lon="5.89764">
        <ele>474</ele>
        <time>2016-07-30T06:38:38.117Z</time>
      </trkpt>
      <trkpt lat="43.17497" lon="5.89763">
        <ele>474</ele>
        <time>2016-07-30T06:38:39.117Z</time>
      </trkpt>
      <trkpt lat="43.175" lon="5.89763">
        <ele>475</ele>
        <time>2016-07-30T06:38:40.117Z</time>
      </trkpt>
      <trkpt lat="43.17502" lon="5.89763">
        <ele>475</ele>
        <time>2016-07-30T06:38:41.117Z</time>
      </trkpt>
      <trkpt lat="43.17504" lon="5.89764">
        <ele>476</ele>
        <time>2016-07-30T06:38:42.117Z</time>
      </trkpt>
      <trkpt lat="43.17506" lon="5.89766">
        <ele>477</ele>
        <time>2016-07-30T06:38:43.117Z</time>
      </trkpt>
      <trkpt lat="43.17508" lon="5.89768">
        <ele>477</ele>
        <time>2016-07-30T06:38:44.117Z</time>
      </trkpt>
      <trkpt lat="43.1751" lon="5.8977">
        <ele>477</ele>
        <time>2016-07-30T06:38:45.117Z</time>
      </trkpt>
      <trkpt lat="43.17512" lon="5.89772">
        <ele>477</ele>
        <time>2016-07-30T06:38:46.117Z</time>
      </trkpt>
      <trkpt lat="43.17514" lon="5.89775">
        <ele>476</ele>
        <time>2016-07-30T06:38:47.117Z</time>
      </trkpt>
      <trkpt lat="43.17515" lon="5.89777">
        <ele>477</ele>
        <time>2016-07-30T06:38:48.117Z</time>
      </trkpt>
      <trkpt lat="43.17516" lon="5.8978">
        <ele>477</ele>
        <time>2016-07-30T06:38:49.117Z</time>
      </trkpt>
      <trkpt lat="43.17517" lon="5.89783">
        <ele>477</ele>
        <time>2016-07-30T06:38:50.117Z</time>
      </trkpt>
      <trkpt lat="43.17518" lon="5.89787">
        <ele>477</ele>
        <time>2016-07-30T06:38:51.117Z</time>
      </trkpt>
      <trkpt lat="43.17519" lon="5.8979">
        <ele>478</ele>
        <time>2016-07-30T06:38:52.117Z</time>
      </trkpt>
      <trkpt lat="43.1752" lon="5.89793">
        <ele>478</ele>
        <time>2016-07-30T06:38:53.117Z</time>
      </trkpt>
      <trkpt lat="43.17521" lon="5.89796">
        <ele>478</ele>
        <time>2016-07-30T06:38:54.117Z</time>
      </trkpt>
      <trkpt lat="43.17522" lon="5.89799">
        <ele>479</ele>
        <time>2016-07-30T06:38:55.117Z</time>
      </trkpt>
      <trkpt lat="43.17523" lon="5.89803">
        <ele>479</ele>
        <time>2016-07-30T06:38:56.117Z</time>
      </trkpt>
      <trkpt lat="43.17524" lon="5.89806">
        <ele>479</ele>
        <time>2016-07-30T06:38:57.117Z</time>
      </trkpt>
      <trkpt lat="43.17525" lon="5.8981">
        <ele>479</ele>
        <time>2016-07-30T06:38:58.117Z</time>
      </trkpt>
      <trkpt lat="43.17526" lon="5.89813">
        <ele>480</ele>
        <time>2016-07-30T06:38:59.117Z</time>
      </trkpt>
      <trkpt lat="43.17526" lon="5.89816">
        <ele>480</ele>
        <time>2016-07-30T06:39:00.117Z</time>
      </trkpt>
      <trkpt lat="43.17527" lon="5.8982">
        <ele>480</ele>
        <time>2016-07-30T06:39:01.117Z</time>
      </trkpt>
      <trkpt lat="43.17528" lon="5.89823">
        <ele>480</ele>
        <time>2016-07-30T06:39:02.117Z</time>
      </trkpt>
      <trkpt lat="43.17528" lon="5.89827">
        <ele>480</ele>
        <time>2016-07-30T06:39:03.117Z</time>
      </trkpt>
      <trkpt lat="43.17528" lon="5.8983">
        <ele>481</ele>
        <time>2016-07-30T06:39:04.117Z</time>
      </trkpt>
      <trkpt lat="43.17527" lon="5.89833">
        <ele>481</ele>
        <time>2016-07-30T06:39:05.117Z</time>
      </trkpt>
      <trkpt lat="43.17527" lon="5.89837">
        <ele>481</ele>
        <time>2016-07-30T06:39:06.117Z</time>
      </trkpt>
      <trkpt lat="43.17527" lon="5.8984">
        <ele>482</ele>
        <time>2016-07-30T06:39:07.117Z</time>
      </trkpt>
      <trkpt lat="43.17526" lon="5.89843">
        <ele>482</ele>
        <time>2016-07-30T06:39:08.117Z</time>
      </trkpt>
      <trkpt lat="43.17526" lon="5.89846">
        <ele>482</ele>
        <time>2016-07-30T06:39:09.117Z</time>
      </trkpt>
      <trkpt lat="43.17525" lon="5.8985">
        <ele>482</ele>
        <time>2016-07-30T06:39:10.117Z</time>
      </trkpt>
      <trkpt lat="43.17525" lon="5.89853">
        <ele>483</ele>
        <time>2016-07-30T06:39:11.117Z</time>
      </trkpt>
      <trkpt lat="43.17524" lon="5.89856">
        <ele>483</ele>
        <time>2016-07-30T06:39:12.117Z</time>
      </trkpt>
      <trkpt lat="43.17524" lon="5.89859">
        <ele>483</ele>
        <time>2016-07-30T06:39:13.117Z</time>
      </trkpt>
      <trkpt lat="43.17523" lon="5.89862">
        <ele>483</ele>
        <time>2016-07-30T06:39:14.117Z</time>
      </trkpt>
      <trkpt lat="43.17523" lon="5.89865">
        <ele>483</ele>
        <time>2016-07-30T06:39:15.117Z</time>
      </trkpt>
      <trkpt lat="43.17523" lon="5.89868">
        <ele>484</ele>
        <time>2016-07-30T06:39:16.117Z</time>
      </trkpt>
      <trkpt lat="43.17522" lon="5.89871">
        <ele>484</ele>
        <time>2016-07-30T06:39:17.117Z</time>
      </trkpt>
      <trkpt lat="43.17522" lon="5.89874">
        <ele>484</ele>
        <time>2016-07-30T06:39:18.117Z</time>
      </trkpt>
      <trkpt lat="43.17522" lon="5.89877">
        <ele>484</ele>
        <time>2016-07-30T06:39:19.117Z</time>
      </trkpt>
      <trkpt lat="43.17521" lon="5.8988">
        <ele>484</ele>
        <time>2016-07-30T06:39:20.117Z</time>
      </trkpt>
      <trkpt lat="43.17521" lon="5.89883">
        <ele>484</ele>
        <time>2016-07-30T06:39:21.117Z</time>
      </trkpt>
      <trkpt lat="43.1752" lon="5.89886">
        <ele>484</ele>
        <time>2016-07-30T06:39:22.117Z</time>
      </trkpt>
      <trkpt lat="43.1752" lon="5.89889">
        <ele>485</ele>
        <time>2016-07-30T06:39:23.117Z</time>
      </trkpt>
      <trkpt lat="43.17519" lon="5.89892">
        <ele>485</ele>
        <time>2016-07-30T06:39:24.117Z</time>
      </trkpt>
      <trkpt lat="43.17519" lon="5.89896">
        <ele>485</ele>
        <time>2016-07-30T06:39:25.117Z</time>
      </trkpt>
      <trkpt lat="43.17518" lon="5.89899">
        <ele>485</ele>
        <time>2016-07-30T06:39:26.117Z</time>
      </trkpt>
      <trkpt lat="43.17518" lon="5.89902">
        <ele>485</ele>
        <time>2016-07-30T06:39:27.117Z</time>
      </trkpt>
      <trkpt lat="43.17518" lon="5.89906">
        <ele>485</ele>
        <time>2016-07-30T06:39:28.117Z</time>
      </trkpt>
      <trkpt lat="43.17518" lon="5.89909">
        <ele>486</ele>
        <time>2016-07-30T06:39:29.117Z</time>
      </trkpt>
      <trkpt lat="43.17519" lon="5.89912">
        <ele>486</ele>
        <time>2016-07-30T06:39:30.117Z</time>
      </trkpt>
      <trkpt lat="43.17519" lon="5.89915">
        <ele>486</ele>
        <time>2016-07-30T06:39:31.117Z</time>
      </trkpt>
      <trkpt lat="43.17519" lon="5.89918">
        <ele>486</ele>
        <time>2016-07-30T06:39:32.117Z</time>
      </trkpt>
      <trkpt lat="43.1752" lon="5.89921">
        <ele>487</ele>
        <time>2016-07-30T06:39:33.117Z</time>
      </trkpt>
      <trkpt lat="43.1752" lon="5.89924">
        <ele>487</ele>
        <time>2016-07-30T06:39:34.117Z</time>
      </trkpt>
      <trkpt lat="43.17521" lon="5.89927">
        <ele>487</ele>
        <time>2016-07-30T06:39:35.117Z</time>
      </trkpt>
      <trkpt lat="43.17522" lon="5.8993">
        <ele>487</ele>
        <time>2016-07-30T06:39:36.117Z</time>
      </trkpt>
      <trkpt lat="43.17523" lon="5.89933">
        <ele>487</ele>
        <time>2016-07-30T06:39:37.117Z</time>
      </trkpt>
      <trkpt lat="43.17524" lon="5.89936">
        <ele>488</ele>
        <time>2016-07-30T06:39:38.117Z</time>
      </trkpt>
      <trkpt lat="43.17525" lon="5.89939">
        <ele>488</ele>
        <time>2016-07-30T06:39:39.117Z</time>
      </trkpt>
      <trkpt lat="43.17526" lon="5.89942">
        <ele>488</ele>
        <time>2016-07-30T06:39:40.117Z</time>
      </trkpt>
      <trkpt lat="43.17528" lon="5.89944">
        <ele>488</ele>
        <time>2016-07-30T06:39:41.117Z</time>
      </trkpt>
      <trkpt lat="43.17529" lon="5.89947">
        <ele>489</ele>
        <time>2016-07-30T06:39:42.117Z</time>
      </trkpt>
      <trkpt lat="43.1753" lon="5.8995">
        <ele>489</ele>
        <time>2016-07-30T06:39:43.117Z</time>
      </trkpt>
      <trkpt lat="43.17531" lon="5.89952">
        <ele>489</ele>
        <time>2016-07-30T06:39:44.117Z</time>
      </trkpt>
      <trkpt lat="43.17533" lon="5.89954">
        <ele>489</ele>
        <time>2016-07-30T06:39:45.117Z</time>
      </trkpt>
      <trkpt lat="43.17534" lon="5.89957">
        <ele>489</ele>
        <time>2016-07-30T06:39:46.117Z</time>
      </trkpt>
      <trkpt lat="43.17535" lon="5.89959">
        <ele>489</ele>
        <time>2016-07-30T06:39:47.117Z</time>
      </trkpt>
      <trkpt lat="43.17537" lon="5.89962">
        <ele>489</ele>
        <time>2016-07-30T06:39:48.117Z</time>
      </trkpt>
      <trkpt lat="43.17538" lon="5.89964">
        <ele>490</ele>
        <time>2016-07-30T06:39:49.117Z</time>
      </trkpt>
      <trkpt lat="43.1754" lon="5.89966">
        <ele>490</ele>
        <time>2016-07-30T06:39:50.117Z</time>
      </trkpt>
      <trkpt lat="43.17542" lon="5.89969">
        <ele>490</ele>
        <time>2016-07-30T06:39:51.117Z</time>
      </trkpt>
      <trkpt lat="43.17543" lon="5.89971">
        <ele>491</ele>
        <time>2016-07-30T06:39:52.117Z</time>
      </trkpt>
      <trkpt lat="43.17545" lon="5.89973">
        <ele>491</ele>
        <time>2016-07-30T06:39:53.117Z</time>
      </trkpt>
      <trkpt lat="43.17547" lon="5.89975">
        <ele>491</ele>
        <time>2016-07-30T06:39:54.117Z</time>
      </trkpt>
      <trkpt lat="43.17549" lon="5.89977">
        <ele>491</ele>
        <time>2016-07-30T06:39:55.117Z</time>
      </trkpt>
      <trkpt lat="43.1755" lon="5.89979">
        <ele>491</ele>
        <time>2016-07-30T06:39:56.117Z</time>
      </trkpt>
      <trkpt lat="43.17552" lon="5.89981">
        <ele>491</ele>
        <time>2016-07-30T06:39:57.117Z</time>
      </trkpt>
      <trkpt lat="43.17554" lon="5.89983">
        <ele>492</ele>
        <time>2016-07-30T06:39:58.117Z</time>
      </trkpt>
      <trkpt lat="43.17555" lon="5.89985">
        <ele>492</ele>
        <time>2016-07-30T06:39:59.117Z</time>
      </trkpt>
      <trkpt lat="43.17557" lon="5.89987">
        <ele>492</ele>
        <time>2016-07-30T06:40:00.117Z</time>
      </trkpt>
      <trkpt lat="43.17559" lon="5.89989">
        <ele>492</ele>
        <time>2016-07-30T06:40:01.117Z</time>
      </trkpt>
      <trkpt lat="43.17561" lon="5.89991">
        <ele>492</ele>
        <time>2016-07-30T06:40:02.117Z</time>
      </trkpt>
      <trkpt lat="43.17563" lon="5.89993">
        <ele>493</ele>
        <time>2016-07-30T06:40:03.117Z</time>
      </trkpt>
      <trkpt lat="43.17565" lon="5.89995">
        <ele>493</ele>
        <time>2016-07-30T06:40:04.117Z</time>
      </trkpt>
      <trkpt lat="43.17567" lon="5.89996">
        <ele>493</ele>
        <time>2016-07-30T06:40:05.117Z</time>
      </trkpt>
      <trkpt lat="43.17569" lon="5.89998">
        <ele>494</ele>
        <time>2016-07-30T06:40:06.117Z</time>
      </trkpt>
      <trkpt lat="43.17571" lon="5.9">
        <ele>495</ele>
        <time>2016-07-30T06:40:07.117Z</time>
      </trkpt>
      <trkpt lat="43.17573" lon="5.90001">
        <ele>495</ele>
        <time>2016-07-30T06:40:08.117Z</time>
      </trkpt>
      <trkpt lat="43.17575" lon="5.90003">
        <ele>495</ele>
        <time>2016-07-30T06:40:09.117Z</time>
      </trkpt>
      <trkpt lat="43.17577" lon="5.90004">
        <ele>495</ele>
        <time>2016-07-30T06:40:10.117Z</time>
      </trkpt>
      <trkpt lat="43.17579" lon="5.90006">
        <ele>495</ele>
        <time>2016-07-30T06:40:11.117Z</time>
      </trkpt>
      <trkpt lat="43.17581" lon="5.90007">
        <ele>496</ele>
        <time>2016-07-30T06:40:12.117Z</time>
      </trkpt>
      <trkpt lat="43.17582" lon="5.90009">
        <ele>496</ele>
        <time>2016-07-30T06:40:13.117Z</time>
      </trkpt>
      <trkpt lat="43.17584" lon="5.9001">
        <ele>496</ele>
        <time>2016-07-30T06:40:14.117Z</time>
      </trkpt>
      <trkpt lat="43.17586" lon="5.90012">
        <ele>496</ele>
        <time>2016-07-30T06:40:15.117Z</time>
      </trkpt>
      <trkpt lat="43.17588" lon="5.90013">
        <ele>496</ele>
        <time>2016-07-30T06:40:16.117Z</time>
      </trkpt>
      <trkpt lat="43.17589" lon="5.90015">
        <ele>497</ele>
        <time>2016-07-30T06:40:17.117Z</time>
      </trkpt>
      <trkpt lat="43.17591" lon="5.90016">
        <ele>497</ele>
        <time>2016-07-30T06:40:18.117Z</time>
      </trkpt>
      <trkpt lat="43.17593" lon="5.90018">
        <ele>497</ele>
        <time>2016-07-30T06:40:19.117Z</time>
      </trkpt>
      <trkpt lat="43.17594" lon="5.90019">
        <ele>497</ele>
        <time>2016-07-30T06:40:20.117Z</time>
      </trkpt>
      <trkpt lat="43.17596" lon="5.90021">
        <ele>497</ele>
        <time>2016-07-30T06:40:21.117Z</time>
      </trkpt>
      <trkpt lat="43.17598" lon="5.90022">
        <ele>498</ele>
        <time>2016-07-30T06:40:22.117Z</time>
      </trkpt>
      <trkpt lat="43.176" lon="5.90023">
        <ele>498</ele>
        <time>2016-07-30T06:40:23.117Z</time>
      </trkpt>
      <trkpt lat="43.17602" lon="5.90025">
        <ele>498</ele>
        <time>2016-07-30T06:40:24.117Z</time>
      </trkpt>
      <trkpt lat="43.17604" lon="5.90027">
        <ele>497</ele>
        <time>2016-07-30T06:40:25.117Z</time>
      </trkpt>
      <trkpt lat="43.17605" lon="5.90029">
        <ele>497</ele>
        <time>2016-07-30T06:40:26.117Z</time>
      </trkpt>
      <trkpt lat="43.17607" lon="5.9003">
        <ele>497</ele>
        <time>2016-07-30T06:40:27.117Z</time>
      </trkpt>
      <trkpt lat="43.17609" lon="5.90032">
        <ele>497</ele>
        <time>2016-07-30T06:40:28.117Z</time>
      </trkpt>
      <trkpt lat="43.1761" lon="5.90034">
        <ele>497</ele>
        <time>2016-07-30T06:40:29.117Z</time>
      </trkpt>
      <trkpt lat="43.17611" lon="5.90036">
        <ele>497</ele>
        <time>2016-07-30T06:40:30.117Z</time>
      </trkpt>
      <trkpt lat="43.17612" lon="5.90039">
        <ele>497</ele>
        <time>2016-07-30T06:40:31.117Z</time>
      </trkpt>
      <trkpt lat="43.17613" lon="5.90042">
        <ele>498</ele>
        <time>2016-07-30T06:40:32.117Z</time>
      </trkpt>
      <trkpt lat="43.17613" lon="5.90045">
        <ele>499</ele>
        <time>2016-07-30T06:40:33.117Z</time>
      </trkpt>
      <trkpt lat="43.17614" lon="5.90048">
        <ele>499</ele>
        <time>2016-07-30T06:40:34.117Z</time>
      </trkpt>
      <trkpt lat="43.17615" lon="5.9005">
        <ele>499</ele>
        <time>2016-07-30T06:40:35.117Z</time>
      </trkpt>
      <trkpt lat="43.17615" lon="5.90053">
        <ele>499</ele>
        <time>2016-07-30T06:40:36.117Z</time>
      </trkpt>
      <trkpt lat="43.17616" lon="5.90056">
        <ele>499</ele>
        <time>2016-07-30T06:40:37.117Z</time>
      </trkpt>
      <trkpt lat="43.17617" lon="5.90058">
        <ele>500</ele>
        <time>2016-07-30T06:40:38.117Z</time>
      </trkpt>
      <trkpt lat="43.17617" lon="5.90061">
        <ele>500</ele>
        <time>2016-07-30T06:40:39.117Z</time>
      </trkpt>
      <trkpt lat="43.17618" lon="5.90063">
        <ele>500</ele>
        <time>2016-07-30T06:40:40.117Z</time>
      </trkpt>
      <trkpt lat="43.17619" lon="5.90066">
        <ele>500</ele>
        <time>2016-07-30T06:40:41.117Z</time>
      </trkpt>
      <trkpt lat="43.1762" lon="5.90068">
        <ele>501</ele>
        <time>2016-07-30T06:40:42.117Z</time>
      </trkpt>
      <trkpt lat="43.1762" lon="5.90071">
        <ele>501</ele>
        <time>2016-07-30T06:40:43.117Z</time>
      </trkpt>
      <trkpt lat="43.17621" lon="5.90073">
        <ele>501</ele>
        <time>2016-07-30T06:40:44.117Z</time>
      </trkpt>
      <trkpt lat="43.17622" lon="5.90076">
        <ele>502</ele>
        <time>2016-07-30T06:40:45.117Z</time>
      </trkpt>
      <trkpt lat="43.17623" lon="5.90079">
        <ele>502</ele>
        <time>2016-07-30T06:40:46.117Z</time>
      </trkpt>
      <trkpt lat="43.17624" lon="5.90081">
        <ele>502</ele>
        <time>2016-07-30T06:40:47.117Z</time>
      </trkpt>
      <trkpt lat="43.17625" lon="5.90083">
        <ele>502</ele>
        <time>2016-07-30T06:40:48.117Z</time>
      </trkpt>
      <trkpt lat="43.17626" lon="5.90085">
        <ele>503</ele>
        <time>2016-07-30T06:40:49.117Z</time>
      </trkpt>
      <trkpt lat="43.17627" lon="5.90088">
        <ele>503</ele>
        <time>2016-07-30T06:40:50.117Z</time>
      </trkpt>
      <trkpt lat="43.17629" lon="5.9009">
        <ele>503</ele>
        <time>2016-07-30T06:40:51.117Z</time>
      </trkpt>
      <trkpt lat="43.1763" lon="5.90093">
        <ele>503</ele>
        <time>2016-07-30T06:40:52.117Z</time>
      </trkpt>
      <trkpt lat="43.17632" lon="5.90095">
        <ele>504</ele>
        <time>2016-07-30T06:40:53.117Z</time>
      </trkpt>
      <trkpt lat="43.17633" lon="5.90097">
        <ele>504</ele>
        <time>2016-07-30T06:40:54.117Z</time>
      </trkpt>
      <trkpt lat="43.17635" lon="5.90099">
        <ele>504</ele>
        <time>2016-07-30T06:40:55.117Z</time>
      </trkpt>
      <trkpt lat="43.17636" lon="5.90101">
        <ele>505</ele>
        <time>2016-07-30T06:40:56.117Z</time>
      </trkpt>
      <trkpt lat="43.17638" lon="5.90102">
        <ele>505</ele>
        <time>2016-07-30T06:40:57.117Z</time>
      </trkpt>
      <trkpt lat="43.1764" lon="5.90104">
        <ele>505</ele>
        <time>2016-07-30T06:40:58.117Z</time>
      </trkpt>
      <trkpt lat="43.17642" lon="5.90105">
        <ele>505</ele>
        <time>2016-07-30T06:40:59.117Z</time>
      </trkpt>
      <trkpt lat="43.17644" lon="5.90106">
        <ele>506</ele>
        <time>2016-07-30T06:41:00.117Z</time>
      </trkpt>
      <trkpt lat="43.17645" lon="5.90107">
        <ele>506</ele>
        <time>2016-07-30T06:41:01.117Z</time>
      </trkpt>
      <trkpt lat="43.17647" lon="5.90108">
        <ele>506</ele>
        <time>2016-07-30T06:41:02.117Z</time>
      </trkpt>
      <trkpt lat="43.17649" lon="5.90108">
        <ele>506</ele>
        <time>2016-07-30T06:41:03.117Z</time>
      </trkpt>
      <trkpt lat="43.17651" lon="5.90109">
        <ele>506</ele>
        <time>2016-07-30T06:41:04.117Z</time>
      </trkpt>
      <trkpt lat="43.17653" lon="5.9011">
        <ele>507</ele>
        <time>2016-07-30T06:41:05.117Z</time>
      </trkpt>
      <trkpt lat="43.17655" lon="5.9011">
        <ele>507</ele>
        <time>2016-07-30T06:41:06.117Z</time>
      </trkpt>
      <trkpt lat="43.17656" lon="5.90111">
        <ele>507</ele>
        <time>2016-07-30T06:41:07.117Z</time>
      </trkpt>
      <trkpt lat="43.17658" lon="5.90111">
        <ele>508</ele>
        <time>2016-07-30T06:41:08.117Z</time>
      </trkpt>
      <trkpt lat="43.1766" lon="5.90112">
        <ele>508</ele>
        <time>2016-07-30T06:41:09.117Z</time>
      </trkpt>
      <trkpt lat="43.17662" lon="5.90112">
        <ele>508</ele>
        <time>2016-07-30T06:41:10.117Z</time>
      </trkpt>
      <trkpt lat="43.17664" lon="5.90113">
        <ele>509</ele>
        <time>2016-07-30T06:41:11.117Z</time>
      </trkpt>
      <trkpt lat="43.17666" lon="5.90113">
        <ele>509</ele>
        <time>2016-07-30T06:41:12.117Z</time>
      </trkpt>
      <trkpt lat="43.17668" lon="5.90114">
        <ele>509</ele>
        <time>2016-07-30T06:41:13.117Z</time>
      </trkpt>
      <trkpt lat="43.17671" lon="5.90115">
        <ele>509</ele>
        <time>2016-07-30T06:41:14.117Z</time>
      </trkpt>
      <trkpt lat="43.17673" lon="5.90115">
        <ele>509</ele>
        <time>2016-07-30T06:41:15.117Z</time>
      </trkpt>
      <trkpt lat="43.17676" lon="5.90115">
        <ele>509</ele>
        <time>2016-07-30T06:41:16.117Z</time>
      </trkpt>
      <trkpt lat="43.17678" lon="5.90116">
        <ele>509</ele>
        <time>2016-07-30T06:41:17.117Z</time>
      </trkpt>
      <trkpt lat="43.17681" lon="5.90116">
        <ele>510</ele>
        <time>2016-07-30T06:41:18.117Z</time>
      </trkpt>
      <trkpt lat="43.17683" lon="5.90117">
        <ele>510</ele>
        <time>2016-07-30T06:41:19.117Z</time>
      </trkpt>
      <trkpt lat="43.17685" lon="5.90117">
        <ele>510</ele>
        <time>2016-07-30T06:41:20.117Z</time>
      </trkpt>
      <trkpt lat="43.17688" lon="5.90117">
        <ele>510</ele>
        <time>2016-07-30T06:41:21.117Z</time>
      </trkpt>
      <trkpt lat="43.1769" lon="5.90118">
        <ele>510</ele>
        <time>2016-07-30T06:41:22.117Z</time>
      </trkpt>
      <trkpt lat="43.17692" lon="5.90118">
        <ele>510</ele>
        <time>2016-07-30T06:41:23.117Z</time>
      </trkpt>
      <trkpt lat="43.17695" lon="5.90119">
        <ele>511</ele>
        <time>2016-07-30T06:41:24.117Z</time>
      </trkpt>
      <trkpt lat="43.17697" lon="5.90119">
        <ele>511</ele>
        <time>2016-07-30T06:41:25.117Z</time>
      </trkpt>
      <trkpt lat="43.17699" lon="5.9012">
        <ele>511</ele>
        <time>2016-07-30T06:41:26.117Z</time>
      </trkpt>
      <trkpt lat="43.17701" lon="5.9012">
        <ele>511</ele>
        <time>2016-07-30T06:41:27.117Z</time>
      </trkpt>
      <trkpt lat="43.17703" lon="5.90121">
        <ele>511</ele>
        <time>2016-07-30T06:41:28.117Z</time>
      </trkpt>
      <trkpt lat="43.17706" lon="5.90121">
        <ele>511</ele>
        <time>2016-07-30T06:41:29.117Z</time>
      </trkpt>
      <trkpt lat="43.17708" lon="5.90122">
        <ele>512</ele>
        <time>2016-07-30T06:41:30.117Z</time>
      </trkpt>
      <trkpt lat="43.1771" lon="5.90122">
        <ele>511</ele>
        <time>2016-07-30T06:41:31.117Z</time>
      </trkpt>
      <trkpt lat="43.17713" lon="5.90123">
        <ele>512</ele>
        <time>2016-07-30T06:41:32.117Z</time>
      </trkpt>
      <trkpt lat="43.17715" lon="5.90123">
        <ele>512</ele>
        <time>2016-07-30T06:41:33.117Z</time>
      </trkpt>
      <trkpt lat="43.17717" lon="5.90123">
        <ele>512</ele>
        <time>2016-07-30T06:41:34.117Z</time>
      </trkpt>
      <trkpt lat="43.1772" lon="5.90123">
        <ele>513</ele>
        <time>2016-07-30T06:41:35.117Z</time>
      </trkpt>
      <trkpt lat="43.17722" lon="5.90123">
        <ele>513</ele>
        <time>2016-07-30T06:41:36.117Z</time>
      </trkpt>
      <trkpt lat="43.17725" lon="5.90123">
        <ele>512</ele>
        <time>2016-07-30T06:41:37.117Z</time>
      </trkpt>
      <trkpt lat="43.17727" lon="5.90123">
        <ele>512</ele>
        <time>2016-07-30T06:41:38.117Z</time>
      </trkpt>
      <trkpt lat="43.1773" lon="5.90123">
        <ele>512</ele>
        <time>2016-07-30T06:41:39.117Z</time>
      </trkpt>
      <trkpt lat="43.17732" lon="5.90124">
        <ele>512</ele>
        <time>2016-07-30T06:41:40.117Z</time>
      </trkpt>
      <trkpt lat="43.17735" lon="5.90124">
        <ele>512</ele>
        <time>2016-07-30T06:41:41.117Z</time>
      </trkpt>
      <trkpt lat="43.17737" lon="5.90124">
        <ele>512</ele>
        <time>2016-07-30T06:41:42.117Z</time>
      </trkpt>
      <trkpt lat="43.1774" lon="5.90124">
        <ele>511</ele>
        <time>2016-07-30T06:41:43.117Z</time>
      </trkpt>
      <trkpt lat="43.17742" lon="5.90125">
        <ele>511</ele>
        <time>2016-07-30T06:41:44.117Z</time>
      </trkpt>
      <trkpt lat="43.17744" lon="5.90125">
        <ele>511</ele>
        <time>2016-07-30T06:41:45.117Z</time>
      </trkpt>
      <trkpt lat="43.17746" lon="5.90125">
        <ele>511</ele>
        <time>2016-07-30T06:41:46.117Z</time>
      </trkpt>
      <trkpt lat="43.17749" lon="5.90126">
        <ele>512</ele>
        <time>2016-07-30T06:41:47.117Z</time>
      </trkpt>
      <trkpt lat="43.17751" lon="5.90126">
        <ele>512</ele>
        <time>2016-07-30T06:41:48.117Z</time>
      </trkpt>
      <trkpt lat="43.17754" lon="5.90126">
        <ele>512</ele>
        <time>2016-07-30T06:41:49.117Z</time>
      </trkpt>
      <trkpt lat="43.17756" lon="5.90127">
        <ele>512</ele>
        <time>2016-07-30T06:41:50.117Z</time>
      </trkpt>
      <trkpt lat="43.17759" lon="5.90127">
        <ele>512</ele>
        <time>2016-07-30T06:41:51.117Z</time>
      </trkpt>
      <trkpt lat="43.17761" lon="5.90127">
        <ele>512</ele>
        <time>2016-07-30T06:41:52.117Z</time>
      </trkpt>
      <trkpt lat="43.17764" lon="5.90127">
        <ele>512</ele>
        <time>2016-07-30T06:41:53.117Z</time>
      </trkpt>
      <trkpt lat="43.17766" lon="5.90127">
        <ele>513</ele>
        <time>2016-07-30T06:41:54.117Z</time>
      </trkpt>
      <trkpt lat="43.17769" lon="5.90127">
        <ele>513</ele>
        <time>2016-07-30T06:41:55.117Z</time>
      </trkpt>
      <trkpt lat="43.17771" lon="5.90126">
        <ele>513</ele>
        <time>2016-07-30T06:41:56.117Z</time>
      </trkpt>
      <trkpt lat="43.17774" lon="5.90126">
        <ele>513</ele>
        <time>2016-07-30T06:41:57.117Z</time>
      </trkpt>
      <trkpt lat="43.17776" lon="5.90126">
        <ele>513</ele>
        <time>2016-07-30T06:41:58.117Z</time>
      </trkpt>
      <trkpt lat="43.17779" lon="5.90126">
        <ele>513</ele>
        <time>2016-07-30T06:41:59.117Z</time>
      </trkpt>
      <trkpt lat="43.17781" lon="5.90126">
        <ele>514</ele>
        <time>2016-07-30T06:42:00.117Z</time>
      </trkpt>
      <trkpt lat="43.17784" lon="5.90125">
        <ele>514</ele>
        <time>2016-07-30T06:42:01.117Z</time>
      </trkpt>
      <trkpt lat="43.17786" lon="5.90125">
        <ele>514</ele>
        <time>2016-07-30T06:42:02.117Z</time>
      </trkpt>
      <trkpt lat="43.17789" lon="5.90125">
        <ele>515</ele>
        <time>2016-07-30T06:42:03.117Z</time>
      </trkpt>
      <trkpt lat="43.17791" lon="5.90125">
        <ele>515</ele>
        <time>2016-07-30T06:42:04.117Z</time>
      </trkpt>
      <trkpt lat="43.17794" lon="5.90124">
        <ele>515</ele>
        <time>2016-07-30T06:42:05.117Z</time>
      </trkpt>
      <trkpt lat="43.17796" lon="5.90124">
        <ele>515</ele>
        <time>2016-07-30T06:42:06.117Z</time>
      </trkpt>
      <trkpt lat="43.17799" lon="5.90124">
        <ele>515</ele>
        <time>2016-07-30T06:42:07.117Z</time>
      </trkpt>
      <trkpt lat="43.17801" lon="5.90124">
        <ele>515</ele>
        <time>2016-07-30T06:42:08.117Z</time>
      </trkpt>
      <trkpt lat="43.17804" lon="5.90124">
        <ele>516</ele>
        <time>2016-07-30T06:42:09.117Z</time>
      </trkpt>
      <trkpt lat="43.17806" lon="5.90123">
        <ele>516</ele>
        <time>2016-07-30T06:42:10.117Z</time>
      </trkpt>
      <trkpt lat="43.17809" lon="5.90123">
        <ele>516</ele>
        <time>2016-07-30T06:42:11.117Z</time>
      </trkpt>
      <trkpt lat="43.17811" lon="5.90123">
        <ele>516</ele>
        <time>2016-07-30T06:42:12.117Z</time>
      </trkpt>
      <trkpt lat="43.17814" lon="5.90123">
        <ele>516</ele>
        <time>2016-07-30T06:42:13.117Z</time>
      </trkpt>
      <trkpt lat="43.17816" lon="5.90123">
        <ele>516</ele>
        <time>2016-07-30T06:42:14.117Z</time>
      </trkpt>
      <trkpt lat="43.17818" lon="5.90123">
        <ele>517</ele>
        <time>2016-07-30T06:42:15.117Z</time>
      </trkpt>
      <trkpt lat="43.1782" lon="5.90123">
        <ele>517</ele>
        <time>2016-07-30T06:42:16.117Z</time>
      </trkpt>
      <trkpt lat="43.17822" lon="5.90123">
        <ele>517</ele>
        <time>2016-07-30T06:42:17.117Z</time>
      </trkpt>
      <trkpt lat="43.17825" lon="5.90122">
        <ele>517</ele>
        <time>2016-07-30T06:42:18.117Z</time>
      </trkpt>
      <trkpt lat="43.17827" lon="5.90121">
        <ele>517</ele>
        <time>2016-07-30T06:42:19.117Z</time>
      </trkpt>
      <trkpt lat="43.17829" lon="5.9012">
        <ele>518</ele>
        <time>2016-07-30T06:42:20.117Z</time>
      </trkpt>
      <trkpt lat="43.17831" lon="5.9012">
        <ele>519</ele>
        <time>2016-07-30T06:42:21.117Z</time>
      </trkpt>
      <trkpt lat="43.17833" lon="5.90119">
        <ele>519</ele>
        <time>2016-07-30T06:42:22.117Z</time>
      </trkpt>
      <trkpt lat="43.17835" lon="5.90119">
        <ele>520</ele>
        <time>2016-07-30T06:42:23.117Z</time>
      </trkpt>
      <trkpt lat="43.17838" lon="5.90118">
        <ele>520</ele>
        <time>2016-07-30T06:42:24.117Z</time>
      </trkpt>
      <trkpt lat="43.1784" lon="5.90117">
        <ele>520</ele>
        <time>2016-07-30T06:42:25.117Z</time>
      </trkpt>
      <trkpt lat="43.17842" lon="5.90116">
        <ele>520</ele>
        <time>2016-07-30T06:42:26.117Z</time>
      </trkpt>
      <trkpt lat="43.17844" lon="5.90116">
        <ele>520</ele>
        <time>2016-07-30T06:42:27.117Z</time>
      </trkpt>
      <trkpt lat="43.17846" lon="5.90115">
        <ele>520</ele>
        <time>2016-07-30T06:42:28.117Z</time>
      </trkpt>
      <trkpt lat="43.17848" lon="5.90114">
        <ele>520</ele>
        <time>2016-07-30T06:42:29.117Z</time>
      </trkpt>
      <trkpt lat="43.17851" lon="5.90113">
        <ele>521</ele>
        <time>2016-07-30T06:42:30.117Z</time>
      </trkpt>
      <trkpt lat="43.17853" lon="5.90112">
        <ele>521</ele>
        <time>2016-07-30T06:42:31.117Z</time>
      </trkpt>
      <trkpt lat="43.17855" lon="5.90111">
        <ele>521</ele>
        <time>2016-07-30T06:42:32.117Z</time>
      </trkpt>
      <trkpt lat="43.17858" lon="5.90111">
        <ele>521</ele>
        <time>2016-07-30T06:42:33.117Z</time>
      </trkpt>
      <trkpt lat="43.1786" lon="5.9011">
        <ele>522</ele>
        <time>2016-07-30T06:42:34.117Z</time>
      </trkpt>
      <trkpt lat="43.17863" lon="5.90109">
        <ele>522</ele>
        <time>2016-07-30T06:42:35.117Z</time>
      </trkpt>
      <trkpt lat="43.17865" lon="5.90108">
        <ele>522</ele>
        <time>2016-07-30T06:42:36.117Z</time>
      </trkpt>
      <trkpt lat="43.17867" lon="5.90108">
        <ele>522</ele>
        <time>2016-07-30T06:42:37.117Z</time>
      </trkpt>
      <trkpt lat="43.17869" lon="5.90107">
        <ele>522</ele>
        <time>2016-07-30T06:42:38.117Z</time>
      </trkpt>
      <trkpt lat="43.17871" lon="5.90106">
        <ele>522</ele>
        <time>2016-07-30T06:42:39.117Z</time>
      </trkpt>
      <trkpt lat="43.17874" lon="5.90105">
        <ele>522</ele>
        <time>2016-07-30T06:42:40.117Z</time>
      </trkpt>
      <trkpt lat="43.17876" lon="5.90104">
        <ele>522</ele>
        <time>2016-07-30T06:42:41.117Z</time>
      </trkpt>
      <trkpt lat="43.17878" lon="5.90104">
        <ele>523</ele>
        <time>2016-07-30T06:42:42.117Z</time>
      </trkpt>
      <trkpt lat="43.1788" lon="5.90103">
        <ele>523</ele>
        <time>2016-07-30T06:42:43.117Z</time>
      </trkpt>
      <trkpt lat="43.17883" lon="5.90103">
        <ele>524</ele>
        <time>2016-07-30T06:42:44.117Z</time>
      </trkpt>
      <trkpt lat="43.17885" lon="5.90103">
        <ele>524</ele>
        <time>2016-07-30T06:42:45.117Z</time>
      </trkpt>
      <trkpt lat="43.17887" lon="5.90103">
        <ele>525</ele>
        <time>2016-07-30T06:42:46.117Z</time>
      </trkpt>
      <trkpt lat="43.17889" lon="5.90102">
        <ele>525</ele>
        <time>2016-07-30T06:42:47.117Z</time>
      </trkpt>
      <trkpt lat="43.17892" lon="5.90102">
        <ele>525</ele>
        <time>2016-07-30T06:42:48.117Z</time>
      </trkpt>
      <trkpt lat="43.17894" lon="5.90102">
        <ele>525</ele>
        <time>2016-07-30T06:42:49.117Z</time>
      </trkpt>
      <trkpt lat="43.17896" lon="5.90101">
        <ele>524</ele>
        <time>2016-07-30T06:42:50.117Z</time>
      </trkpt>
      <trkpt lat="43.17899" lon="5.90101">
        <ele>524</ele>
        <time>2016-07-30T06:42:51.117Z</time>
      </trkpt>
      <trkpt lat="43.17901" lon="5.90101">
        <ele>525</ele>
        <time>2016-07-30T06:42:52.117Z</time>
      </trkpt>
      <trkpt lat="43.17904" lon="5.901">
        <ele>526</ele>
        <time>2016-07-30T06:42:53.117Z</time>
      </trkpt>
      <trkpt lat="43.17906" lon="5.901">
        <ele>526</ele>
        <time>2016-07-30T06:42:54.117Z</time>
      </trkpt>
      <trkpt lat="43.17908" lon="5.901">
        <ele>526</ele>
        <time>2016-07-30T06:42:55.117Z</time>
      </trkpt>
      <trkpt lat="43.17911" lon="5.90101">
        <ele>527</ele>
        <time>2016-07-30T06:42:56.117Z</time>
      </trkpt>
      <trkpt lat="43.17913" lon="5.90101">
        <ele>527</ele>
        <time>2016-07-30T06:42:57.117Z</time>
      </trkpt>
      <trkpt lat="43.17915" lon="5.90101">
        <ele>527</ele>
        <time>2016-07-30T06:42:58.117Z</time>
      </trkpt>
      <trkpt lat="43.17917" lon="5.90101">
        <ele>528</ele>
        <time>2016-07-30T06:42:59.117Z</time>
      </trkpt>
      <trkpt lat="43.1792" lon="5.90101">
        <ele>528</ele>
        <time>2016-07-30T06:43:00.117Z</time>
      </trkpt>
      <trkpt lat="43.17922" lon="5.90101">
        <ele>528</ele>
        <time>2016-07-30T06:43:01.117Z</time>
      </trkpt>
      <trkpt lat="43.17924" lon="5.90102">
        <ele>528</ele>
        <time>2016-07-30T06:43:02.117Z</time>
      </trkpt>
      <trkpt lat="43.17926" lon="5.90102">
        <ele>528</ele>
        <time>2016-07-30T06:43:03.117Z</time>
      </trkpt>
      <trkpt lat="43.17928" lon="5.90103">
        <ele>528</ele>
        <time>2016-07-30T06:43:04.117Z</time>
      </trkpt>
      <trkpt lat="43.1793" lon="5.90103">
        <ele>529</ele>
        <time>2016-07-30T06:43:05.117Z</time>
      </trkpt>
      <trkpt lat="43.17932" lon="5.90104">
        <ele>529</ele>
        <time>2016-07-30T06:43:06.117Z</time>
      </trkpt>
      <trkpt lat="43.17934" lon="5.90104">
        <ele>529</ele>
        <time>2016-07-30T06:43:07.117Z</time>
      </trkpt>
      <trkpt lat="43.17937" lon="5.90104">
        <ele>529</ele>
        <time>2016-07-30T06:43:08.117Z</time>
      </trkpt>
      <trkpt lat="43.17939" lon="5.90105">
        <ele>530</ele>
        <time>2016-07-30T06:43:09.117Z</time>
      </trkpt>
      <trkpt lat="43.17941" lon="5.90105">
        <ele>530</ele>
        <time>2016-07-30T06:43:10.117Z</time>
      </trkpt>
      <trkpt lat="43.17943" lon="5.90106">
        <ele>530</ele>
        <time>2016-07-30T06:43:11.117Z</time>
      </trkpt>
      <trkpt lat="43.17945" lon="5.90106">
        <ele>531</ele>
        <time>2016-07-30T06:43:12.117Z</time>
      </trkpt>
      <trkpt lat="43.17947" lon="5.90107">
        <ele>530</ele>
        <time>2016-07-30T06:43:13.117Z</time>
      </trkpt>
      <trkpt lat="43.17949" lon="5.90108">
        <ele>530</ele>
        <time>2016-07-30T06:43:14.117Z</time>
      </trkpt>
      <trkpt lat="43.17951" lon="5.90109">
        <ele>530</ele>
        <time>2016-07-30T06:43:15.117Z</time>
      </trkpt>
      <trkpt lat="43.17953" lon="5.9011">
        <ele>531</ele>
        <time>2016-07-30T06:43:16.117Z</time>
      </trkpt>
      <trkpt lat="43.17955" lon="5.90113">
        <ele>532</ele>
        <time>2016-07-30T06:43:17.117Z</time>
      </trkpt>
      <trkpt lat="43.17957" lon="5.90115">
        <ele>532</ele>
        <time>2016-07-30T06:43:18.117Z</time>
      </trkpt>
      <trkpt lat="43.17958" lon="5.90118">
        <ele>533</ele>
        <time>2016-07-30T06:43:19.117Z</time>
      </trkpt>
      <trkpt lat="43.17959" lon="5.9012">
        <ele>533</ele>
        <time>2016-07-30T06:43:20.117Z</time>
      </trkpt>
      <trkpt lat="43.1796" lon="5.90123">
        <ele>533</ele>
        <time>2016-07-30T06:43:21.117Z</time>
      </trkpt>
      <trkpt lat="43.17961" lon="5.90125">
        <ele>534</ele>
        <time>2016-07-30T06:43:22.117Z</time>
      </trkpt>
      <trkpt lat="43.17962" lon="5.90128">
        <ele>534</ele>
        <time>2016-07-30T06:43:23.117Z</time>
      </trkpt>
      <trkpt lat="43.17962" lon="5.90131">
        <ele>534</ele>
        <time>2016-07-30T06:43:24.117Z</time>
      </trkpt>
      <trkpt lat="43.17961" lon="5.90135">
        <ele>533</ele>
        <time>2016-07-30T06:43:25.117Z</time>
      </trkpt>
      <trkpt lat="43.17961" lon="5.90137">
        <ele>533</ele>
        <time>2016-07-30T06:43:26.117Z</time>
      </trkpt>
      <trkpt lat="43.1796" lon="5.9014">
        <ele>533</ele>
        <time>2016-07-30T06:43:27.117Z</time>
      </trkpt>
      <trkpt lat="43.17959" lon="5.90142">
        <ele>532</ele>
        <time>2016-07-30T06:43:28.117Z</time>
      </trkpt>
      <trkpt lat="43.17958" lon="5.90144">
        <ele>533</ele>
        <time>2016-07-30T06:43:29.117Z</time>
      </trkpt>
      <trkpt lat="43.17956" lon="5.90146">
        <ele>532</ele>
        <time>2016-07-30T06:43:30.117Z</time>
      </trkpt>
      <trkpt lat="43.17955" lon="5.90148">
        <ele>533</ele>
        <time>2016-07-30T06:43:31.117Z</time>
      </trkpt>
      <trkpt lat="43.17953" lon="5.9015">
        <ele>534</ele>
        <time>2016-07-30T06:43:32.117Z</time>
      </trkpt>
      <trkpt lat="43.17952" lon="5.90152">
        <ele>534</ele>
        <time>2016-07-30T06:43:33.117Z</time>
      </trkpt>
      <trkpt lat="43.17951" lon="5.90154">
        <ele>535</ele>
        <time>2016-07-30T06:43:34.117Z</time>
      </trkpt>
      <trkpt lat="43.1795" lon="5.90156">
        <ele>536</ele>
        <time>2016-07-30T06:43:35.117Z</time>
      </trkpt>
      <trkpt lat="43.17949" lon="5.90158">
        <ele>537</ele>
        <time>2016-07-30T06:43:36.117Z</time>
      </trkpt>
      <trkpt lat="43.17947" lon="5.90161">
        <ele>537</ele>
        <time>2016-07-30T06:43:37.117Z</time>
      </trkpt>
      <trkpt lat="43.17946" lon="5.90164">
        <ele>537</ele>
        <time>2016-07-30T06:43:38.117Z</time>
      </trkpt>
      <trkpt lat="43.17946" lon="5.90167">
        <ele>538</ele>
        <time>2016-07-30T06:43:39.117Z</time>
      </trkpt>
      <trkpt lat="43.17946" lon="5.90171">
        <ele>538</ele>
        <time>2016-07-30T06:43:40.117Z</time>
      </trkpt>
      <trkpt lat="43.17946" lon="5.90174">
        <ele>539</ele>
        <time>2016-07-30T06:43:41.117Z</time>
      </trkpt>
      <trkpt lat="43.17947" lon="5.90177">
        <ele>539</ele>
        <time>2016-07-30T06:43:42.117Z</time>
      </trkpt>
      <trkpt lat="43.17947" lon="5.9018">
        <ele>540</ele>
        <time>2016-07-30T06:43:43.117Z</time>
      </trkpt>
      <trkpt lat="43.17948" lon="5.90183">
        <ele>540</ele>
        <time>2016-07-30T06:43:44.117Z</time>
      </trkpt>
      <trkpt lat="43.17949" lon="5.90185">
        <ele>540</ele>
        <time>2016-07-30T06:43:45.117Z</time>
      </trkpt>
      <trkpt lat="43.1795" lon="5.90188">
        <ele>540</ele>
        <time>2016-07-30T06:43:46.117Z</time>
      </trkpt>
      <trkpt lat="43.17952" lon="5.9019">
        <ele>541</ele>
        <time>2016-07-30T06:43:47.117Z</time>
      </trkpt>
      <trkpt lat="43.17953" lon="5.90192">
        <ele>541</ele>
        <time>2016-07-30T06:43:48.117Z</time>
      </trkpt>
      <trkpt lat="43.17954" lon="5.90194">
        <ele>541</ele>
        <time>2016-07-30T06:43:49.117Z</time>
      </trkpt>
      <trkpt lat="43.17955" lon="5.90197">
        <ele>541</ele>
        <time>2016-07-30T06:43:50.117Z</time>
      </trkpt>
      <trkpt lat="43.17957" lon="5.90199">
        <ele>541</ele>
        <time>2016-07-30T06:43:51.117Z</time>
      </trkpt>
      <trkpt lat="43.17958" lon="5.90201">
        <ele>542</ele>
        <time>2016-07-30T06:43:52.117Z</time>
      </trkpt>
      <trkpt lat="43.17959" lon="5.90204">
        <ele>542</ele>
        <time>2016-07-30T06:43:53.117Z</time>
      </trkpt>
      <trkpt lat="43.1796" lon="5.90206">
        <ele>542</ele>
        <time>2016-07-30T06:43:54.117Z</time>
      </trkpt>
      <trkpt lat="43.17961" lon="5.90209">
        <ele>542</ele>
        <time>2016-07-30T06:43:55.117Z</time>
      </trkpt>
      <trkpt lat="43.17962" lon="5.90212">
        <ele>542</ele>
        <time>2016-07-30T06:43:56.117Z</time>
      </trkpt>
      <trkpt lat="43.17963" lon="5.90215">
        <ele>543</ele>
        <time>2016-07-30T06:43:57.117Z</time>
      </trkpt>
      <trkpt lat="43.17964" lon="5.90217">
        <ele>543</ele>
        <time>2016-07-30T06:43:58.117Z</time>
      </trkpt>
      <trkpt lat="43.17965" lon="5.9022">
        <ele>543</ele>
        <time>2016-07-30T06:43:59.117Z</time>
      </trkpt>
      <trkpt lat="43.17966" lon="5.90223">
        <ele>543</ele>
        <time>2016-07-30T06:44:00.117Z</time>
      </trkpt>
      <trkpt lat="43.17967" lon="5.90226">
        <ele>543</ele>
        <time>2016-07-30T06:44:01.117Z</time>
      </trkpt>
      <trkpt lat="43.17968" lon="5.90228">
        <ele>544</ele>
        <time>2016-07-30T06:44:02.117Z</time>
      </trkpt>
      <trkpt lat="43.17969" lon="5.90231">
        <ele>544</ele>
        <time>2016-07-30T06:44:03.117Z</time>
      </trkpt>
      <trkpt lat="43.1797" lon="5.90233">
        <ele>544</ele>
        <time>2016-07-30T06:44:04.117Z</time>
      </trkpt>
      <trkpt lat="43.17971" lon="5.90236">
        <ele>544</ele>
        <time>2016-07-30T06:44:05.117Z</time>
      </trkpt>
      <trkpt lat="43.17973" lon="5.90239">
        <ele>544</ele>
        <time>2016-07-30T06:44:06.117Z</time>
      </trkpt>
      <trkpt lat="43.17974" lon="5.90242">
        <ele>545</ele>
        <time>2016-07-30T06:44:07.117Z</time>
      </trkpt>
      <trkpt lat="43.17975" lon="5.90245">
        <ele>545</ele>
        <time>2016-07-30T06:44:08.117Z</time>
      </trkpt>
      <trkpt lat="43.17976" lon="5.90248">
        <ele>545</ele>
        <time>2016-07-30T06:44:09.117Z</time>
      </trkpt>
      <trkpt lat="43.17977" lon="5.90251">
        <ele>545</ele>
        <time>2016-07-30T06:44:10.117Z</time>
      </trkpt>
      <trkpt lat="43.17978" lon="5.90254">
        <ele>545</ele>
        <time>2016-07-30T06:44:11.117Z</time>
      </trkpt>
      <trkpt lat="43.17978" lon="5.90257">
        <ele>546</ele>
        <time>2016-07-30T06:44:12.117Z</time>
      </trkpt>
      <trkpt lat="43.17979" lon="5.9026">
        <ele>546</ele>
        <time>2016-07-30T06:44:13.117Z</time>
      </trkpt>
      <trkpt lat="43.17979" lon="5.90263">
        <ele>546</ele>
        <time>2016-07-30T06:44:14.117Z</time>
      </trkpt>
      <trkpt lat="43.17979" lon="5.90267">
        <ele>546</ele>
        <time>2016-07-30T06:44:15.117Z</time>
      </trkpt>
      <trkpt lat="43.1798" lon="5.9027">
        <ele>546</ele>
        <time>2016-07-30T06:44:16.117Z</time>
      </trkpt>
      <trkpt lat="43.1798" lon="5.90273">
        <ele>546</ele>
        <time>2016-07-30T06:44:17.117Z</time>
      </trkpt>
      <trkpt lat="43.1798" lon="5.90276">
        <ele>547</ele>
        <time>2016-07-30T06:44:18.117Z</time>
      </trkpt>
      <trkpt lat="43.17981" lon="5.90279">
        <ele>547</ele>
        <time>2016-07-30T06:44:19.117Z</time>
      </trkpt>
      <trkpt lat="43.17981" lon="5.90283">
        <ele>547</ele>
        <time>2016-07-30T06:44:20.117Z</time>
      </trkpt>
      <trkpt lat="43.17981" lon="5.90286">
        <ele>547</ele>
        <time>2016-07-30T06:44:21.117Z</time>
      </trkpt>
      <trkpt lat="43.17981" lon="5.90289">
        <ele>548</ele>
        <time>2016-07-30T06:44:22.117Z</time>
      </trkpt>
      <trkpt lat="43.17981" lon="5.90293">
        <ele>548</ele>
        <time>2016-07-30T06:44:23.117Z</time>
      </trkpt>
      <trkpt lat="43.17982" lon="5.90296">
        <ele>548</ele>
        <time>2016-07-30T06:44:24.117Z</time>
      </trkpt>
      <trkpt lat="43.17982" lon="5.90299">
        <ele>548</ele>
        <time>2016-07-30T06:44:25.117Z</time>
      </trkpt>
      <trkpt lat="43.17982" lon="5.90302">
        <ele>548</ele>
        <time>2016-07-30T06:44:26.117Z</time>
      </trkpt>
      <trkpt lat="43.17982" lon="5.90306">
        <ele>548</ele>
        <time>2016-07-30T06:44:27.117Z</time>
      </trkpt>
      <trkpt lat="43.17983" lon="5.90309">
        <ele>549</ele>
        <time>2016-07-30T06:44:28.117Z</time>
      </trkpt>
      <trkpt lat="43.17983" lon="5.90313">
        <ele>549</ele>
        <time>2016-07-30T06:44:29.117Z</time>
      </trkpt>
      <trkpt lat="43.17983" lon="5.90316">
        <ele>549</ele>
        <time>2016-07-30T06:44:30.117Z</time>
      </trkpt>
      <trkpt lat="43.17984" lon="5.90319">
        <ele>549</ele>
        <time>2016-07-30T06:44:31.117Z</time>
      </trkpt>
      <trkpt lat="43.17984" lon="5.90323">
        <ele>550</ele>
        <time>2016-07-30T06:44:32.117Z</time>
      </trkpt>
      <trkpt lat="43.17985" lon="5.90326">
        <ele>550</ele>
        <time>2016-07-30T06:44:33.117Z</time>
      </trkpt>
      <trkpt lat="43.17986" lon="5.9033">
        <ele>550</ele>
        <time>2016-07-30T06:44:34.117Z</time>
      </trkpt>
      <trkpt lat="43.17987" lon="5.90333">
        <ele>550</ele>
        <time>2016-07-30T06:44:35.117Z</time>
      </trkpt>
      <trkpt lat="43.17988" lon="5.90336">
        <ele>550</ele>
        <time>2016-07-30T06:44:36.117Z</time>
      </trkpt>
      <trkpt lat="43.17988" lon="5.90339">
        <ele>551</ele>
        <time>2016-07-30T06:44:37.117Z</time>
      </trkpt>
      <trkpt lat="43.17989" lon="5.90343">
        <ele>551</ele>
        <time>2016-07-30T06:44:38.117Z</time>
      </trkpt>
      <trkpt lat="43.17991" lon="5.90346">
        <ele>551</ele>
        <time>2016-07-30T06:44:39.117Z</time>
      </trkpt>
      <trkpt lat="43.17992" lon="5.90349">
        <ele>551</ele>
        <time>2016-07-30T06:44:40.117Z</time>
      </trkpt>
      <trkpt lat="43.17993" lon="5.90352">
        <ele>551</ele>
        <time>2016-07-30T06:44:41.117Z</time>
      </trkpt>
      <trkpt lat="43.17994" lon="5.90354">
        <ele>552</ele>
        <time>2016-07-30T06:44:42.117Z</time>
      </trkpt>
      <trkpt lat="43.17995" lon="5.90357">
        <ele>552</ele>
        <time>2016-07-30T06:44:43.117Z</time>
      </trkpt>
      <trkpt lat="43.17996" lon="5.9036">
        <ele>552</ele>
        <time>2016-07-30T06:44:44.117Z</time>
      </trkpt>
      <trkpt lat="43.17996" lon="5.90363">
        <ele>553</ele>
        <time>2016-07-30T06:44:45.117Z</time>
      </trkpt>
      <trkpt lat="43.17997" lon="5.90366">
        <ele>553</ele>
        <time>2016-07-30T06:44:46.117Z</time>
      </trkpt>
      <trkpt lat="43.17998" lon="5.90369">
        <ele>554</ele>
        <time>2016-07-30T06:44:47.117Z</time>
      </trkpt>
      <trkpt lat="43.17999" lon="5.90372">
        <ele>554</ele>
        <time>2016-07-30T06:44:48.117Z</time>
      </trkpt>
      <trkpt lat="43.18" lon="5.90374">
        <ele>554</ele>
        <time>2016-07-30T06:44:49.117Z</time>
      </trkpt>
      <trkpt lat="43.18001" lon="5.90377">
        <ele>554</ele>
        <time>2016-07-30T06:44:50.117Z</time>
      </trkpt>
      <trkpt lat="43.18002" lon="5.9038">
        <ele>554</ele>
        <time>2016-07-30T06:44:51.117Z</time>
      </trkpt>
      <trkpt lat="43.18004" lon="5.90383">
        <ele>554</ele>
        <time>2016-07-30T06:44:52.117Z</time>
      </trkpt>
      <trkpt lat="43.18005" lon="5.90386">
        <ele>555</ele>
        <time>2016-07-30T06:44:53.117Z</time>
      </trkpt>
      <trkpt lat="43.18006" lon="5.90388">
        <ele>555</ele>
        <time>2016-07-30T06:44:54.117Z</time>
      </trkpt>
      <trkpt lat="43.18007" lon="5.90391">
        <ele>555</ele>
        <time>2016-07-30T06:44:55.117Z</time>
      </trkpt>
      <trkpt lat="43.18008" lon="5.90393">
        <ele>555</ele>
        <time>2016-07-30T06:44:56.117Z</time>
      </trkpt>
      <trkpt lat="43.18009" lon="5.90396">
        <ele>555</ele>
        <time>2016-07-30T06:44:57.117Z</time>
      </trkpt>
      <trkpt lat="43.18011" lon="5.90398">
        <ele>555</ele>
        <time>2016-07-30T06:44:58.117Z</time>
      </trkpt>
      <trkpt lat="43.18012" lon="5.90401">
        <ele>556</ele>
        <time>2016-07-30T06:44:59.117Z</time>
      </trkpt>
      <trkpt lat="43.18013" lon="5.90404">
        <ele>556</ele>
        <time>2016-07-30T06:45:00.117Z</time>
      </trkpt>
      <trkpt lat="43.18014" lon="5.90406">
        <ele>556</ele>
        <time>2016-07-30T06:45:01.117Z</time>
      </trkpt>
      <trkpt lat="43.18015" lon="5.90409">
        <ele>556</ele>
        <time>2016-07-30T06:45:02.117Z</time>
      </trkpt>
      <trkpt lat="43.18017" lon="5.90411">
        <ele>557</ele>
        <time>2016-07-30T06:45:03.117Z</time>
      </trkpt>
      <trkpt lat="43.18018" lon="5.90413">
        <ele>557</ele>
        <time>2016-07-30T06:45:04.117Z</time>
      </trkpt>
      <trkpt lat="43.18019" lon="5.90415">
        <ele>557</ele>
        <time>2016-07-30T06:45:05.117Z</time>
      </trkpt>
      <trkpt lat="43.1802" lon="5.90418">
        <ele>558</ele>
        <time>2016-07-30T06:45:06.117Z</time>
      </trkpt>
      <trkpt lat="43.18021" lon="5.9042">
        <ele>558</ele>
        <time>2016-07-30T06:45:07.117Z</time>
      </trkpt>
      <trkpt lat="43.18022" lon="5.90422">
        <ele>559</ele>
        <time>2016-07-30T06:45:08.117Z</time>
      </trkpt>
      <trkpt lat="43.18023" lon="5.90424">
        <ele>559</ele>
        <time>2016-07-30T06:45:09.117Z</time>
      </trkpt>
      <trkpt lat="43.18024" lon="5.90426">
        <ele>560</ele>
        <time>2016-07-30T06:45:10.117Z</time>
      </trkpt>
      <trkpt lat="43.18025" lon="5.90428">
        <ele>560</ele>
        <time>2016-07-30T06:45:11.117Z</time>
      </trkpt>
      <trkpt lat="43.18027" lon="5.90431">
        <ele>560</ele>
        <time>2016-07-30T06:45:12.117Z</time>
      </trkpt>
      <trkpt lat="43.18028" lon="5.90433">
        <ele>559</ele>
        <time>2016-07-30T06:45:13.117Z</time>
      </trkpt>
      <trkpt lat="43.18029" lon="5.90436">
        <ele>560</ele>
        <time>2016-07-30T06:45:14.117Z</time>
      </trkpt>
      <trkpt lat="43.18029" lon="5.90439">
        <ele>560</ele>
        <time>2016-07-30T06:45:15.117Z</time>
      </trkpt>
      <trkpt lat="43.1803" lon="5.90442">
        <ele>560</ele>
        <time>2016-07-30T06:45:16.117Z</time>
      </trkpt>
      <trkpt lat="43.1803" lon="5.90445">
        <ele>560</ele>
        <time>2016-07-30T06:45:17.117Z</time>
      </trkpt>
      <trkpt lat="43.1803" lon="5.90448">
        <ele>560</ele>
        <time>2016-07-30T06:45:18.117Z</time>
      </trkpt>
      <trkpt lat="43.1803" lon="5.9045">
        <ele>561</ele>
        <time>2016-07-30T06:45:19.117Z</time>
      </trkpt>
      <trkpt lat="43.18031" lon="5.90453">
        <ele>561</ele>
        <time>2016-07-30T06:45:20.117Z</time>
      </trkpt>
      <trkpt lat="43.18031" lon="5.90456">
        <ele>561</ele>
        <time>2016-07-30T06:45:21.117Z</time>
      </trkpt>
      <trkpt lat="43.18031" lon="5.90459">
        <ele>561</ele>
        <time>2016-07-30T06:45:22.117Z</time>
      </trkpt>
      <trkpt lat="43.18032" lon="5.90461">
        <ele>561</ele>
        <time>2016-07-30T06:45:23.117Z</time>
      </trkpt>
      <trkpt lat="43.18032" lon="5.90464">
        <ele>561</ele>
        <time>2016-07-30T06:45:24.117Z</time>
      </trkpt>
      <trkpt lat="43.18032" lon="5.90466">
        <ele>562</ele>
        <time>2016-07-30T06:45:25.117Z</time>
      </trkpt>
      <trkpt lat="43.18032" lon="5.90469">
        <ele>562</ele>
        <time>2016-07-30T06:45:26.117Z</time>
      </trkpt>
      <trkpt lat="43.18032" lon="5.90471">
        <ele>562</ele>
        <time>2016-07-30T06:45:27.117Z</time>
      </trkpt>
      <trkpt lat="43.18033" lon="5.90474">
        <ele>562</ele>
        <time>2016-07-30T06:45:28.117Z</time>
      </trkpt>
      <trkpt lat="43.18033" lon="5.90477">
        <ele>562</ele>
        <time>2016-07-30T06:45:29.117Z</time>
      </trkpt>
      <trkpt lat="43.18033" lon="5.90479">
        <ele>562</ele>
        <time>2016-07-30T06:45:30.117Z</time>
      </trkpt>
      <trkpt lat="43.18033" lon="5.90482">
        <ele>562</ele>
        <time>2016-07-30T06:45:31.117Z</time>
      </trkpt>
      <trkpt lat="43.18034" lon="5.90485">
        <ele>563</ele>
        <time>2016-07-30T06:45:32.117Z</time>
      </trkpt>
      <trkpt lat="43.18035" lon="5.90488">
        <ele>563</ele>
        <time>2016-07-30T06:45:33.117Z</time>
      </trkpt>
      <trkpt lat="43.18035" lon="5.90491">
        <ele>564</ele>
        <time>2016-07-30T06:45:34.117Z</time>
      </trkpt>
      <trkpt lat="43.18036" lon="5.90494">
        <ele>564</ele>
        <time>2016-07-30T06:45:35.117Z</time>
      </trkpt>
      <trkpt lat="43.18036" lon="5.90497">
        <ele>565</ele>
        <time>2016-07-30T06:45:36.117Z</time>
      </trkpt>
      <trkpt lat="43.18037" lon="5.905">
        <ele>565</ele>
        <time>2016-07-30T06:45:37.117Z</time>
      </trkpt>
      <trkpt lat="43.18038" lon="5.90503">
        <ele>565</ele>
        <time>2016-07-30T06:45:38.117Z</time>
      </trkpt>
      <trkpt lat="43.18038" lon="5.90505">
        <ele>565</ele>
        <time>2016-07-30T06:45:39.117Z</time>
      </trkpt>
      <trkpt lat="43.18039" lon="5.90508">
        <ele>565</ele>
        <time>2016-07-30T06:45:40.117Z</time>
      </trkpt>
      <trkpt lat="43.1804" lon="5.90511">
        <ele>565</ele>
        <time>2016-07-30T06:45:41.117Z</time>
      </trkpt>
      <trkpt lat="43.18041" lon="5.90514">
        <ele>566</ele>
        <time>2016-07-30T06:45:42.117Z</time>
      </trkpt>
      <trkpt lat="43.18042" lon="5.90518">
        <ele>566</ele>
        <time>2016-07-30T06:45:43.117Z</time>
      </trkpt>
      <trkpt lat="43.18043" lon="5.90521">
        <ele>566</ele>
        <time>2016-07-30T06:45:44.117Z</time>
      </trkpt>
      <trkpt lat="43.18044" lon="5.90525">
        <ele>566</ele>
        <time>2016-07-30T06:45:45.117Z</time>
      </trkpt>
      <trkpt lat="43.18045" lon="5.90528">
        <ele>567</ele>
        <time>2016-07-30T06:45:46.117Z</time>
      </trkpt>
      <trkpt lat="43.18046" lon="5.90532">
        <ele>567</ele>
        <time>2016-07-30T06:45:47.117Z</time>
      </trkpt>
      <trkpt lat="43.18046" lon="5.90535">
        <ele>567</ele>
        <time>2016-07-30T06:45:48.117Z</time>
      </trkpt>
      <trkpt lat="43.18047" lon="5.90539">
        <ele>567</ele>
        <time>2016-07-30T06:45:49.117Z</time>
      </trkpt>
      <trkpt lat="43.18046" lon="5.90542">
        <ele>567</ele>
        <time>2016-07-30T06:45:50.117Z</time>
      </trkpt>
      <trkpt lat="43.18046" lon="5.90545">
        <ele>567</ele>
        <time>2016-07-30T06:45:51.117Z</time>
      </trkpt>
      <trkpt lat="43.18044" lon="5.90549">
        <ele>566</ele>
        <time>2016-07-30T06:45:52.117Z</time>
      </trkpt>
      <trkpt lat="43.18042" lon="5.90552">
        <ele>565</ele>
        <time>2016-07-30T06:45:53.117Z</time>
      </trkpt>
      <trkpt lat="43.1804" lon="5.90554">
        <ele>565</ele>
        <time>2016-07-30T06:45:54.117Z</time>
      </trkpt>
      <trkpt lat="43.18038" lon="5.90556">
        <ele>566</ele>
        <time>2016-07-30T06:45:55.117Z</time>
      </trkpt>
      <trkpt lat="43.18036" lon="5.90557">
        <ele>566</ele>
        <time>2016-07-30T06:45:56.117Z</time>
      </trkpt>
      <trkpt lat="43.18034" lon="5.90558">
        <ele>567</ele>
        <time>2016-07-30T06:45:57.117Z</time>
      </trkpt>
      <trkpt lat="43.18031" lon="5.90559">
        <ele>566</ele>
        <time>2016-07-30T06:45:58.117Z</time>
      </trkpt>
      <trkpt lat="43.18029" lon="5.9056">
        <ele>566</ele>
        <time>2016-07-30T06:45:59.117Z</time>
      </trkpt>
      <trkpt lat="43.18027" lon="5.90561">
        <ele>566</ele>
        <time>2016-07-30T06:46:00.117Z</time>
      </trkpt>
      <trkpt lat="43.18025" lon="5.90562">
        <ele>566</ele>
        <time>2016-07-30T06:46:01.117Z</time>
      </trkpt>
      <trkpt lat="43.18022" lon="5.90563">
        <ele>566</ele>
        <time>2016-07-30T06:46:02.117Z</time>
      </trkpt>
      <trkpt lat="43.1802" lon="5.90564">
        <ele>566</ele>
        <time>2016-07-30T06:46:03.117Z</time>
      </trkpt>
      <trkpt lat="43.18017" lon="5.90565">
        <ele>566</ele>
        <time>2016-07-30T06:46:04.117Z</time>
      </trkpt>
      <trkpt lat="43.18015" lon="5.90567">
        <ele>567</ele>
        <time>2016-07-30T06:46:05.117Z</time>
      </trkpt>
      <trkpt lat="43.18013" lon="5.90568">
        <ele>567</ele>
        <time>2016-07-30T06:46:06.117Z</time>
      </trkpt>
      <trkpt lat="43.18011" lon="5.9057">
        <ele>567</ele>
        <time>2016-07-30T06:46:07.117Z</time>
      </trkpt>
      <trkpt lat="43.18009" lon="5.90572">
        <ele>567</ele>
        <time>2016-07-30T06:46:08.117Z</time>
      </trkpt>
      <trkpt lat="43.18007" lon="5.90575">
        <ele>567</ele>
        <time>2016-07-30T06:46:09.117Z</time>
      </trkpt>
      <trkpt lat="43.18006" lon="5.90578">
        <ele>568</ele>
        <time>2016-07-30T06:46:10.117Z</time>
      </trkpt>
      <trkpt lat="43.18004" lon="5.90581">
        <ele>568</ele>
        <time>2016-07-30T06:46:11.117Z</time>
      </trkpt>
      <trkpt lat="43.18003" lon="5.90584">
        <ele>568</ele>
        <time>2016-07-30T06:46:12.117Z</time>
      </trkpt>
      <trkpt lat="43.18002" lon="5.90588">
        <ele>569</ele>
        <time>2016-07-30T06:46:13.117Z</time>
      </trkpt>
      <trkpt lat="43.18002" lon="5.90591">
        <ele>569</ele>
        <time>2016-07-30T06:46:14.117Z</time>
      </trkpt>
      <trkpt lat="43.18001" lon="5.90594">
        <ele>569</ele>
        <time>2016-07-30T06:46:15.117Z</time>
      </trkpt>
      <trkpt lat="43.18001" lon="5.90598">
        <ele>569</ele>
        <time>2016-07-30T06:46:16.117Z</time>
      </trkpt>
      <trkpt lat="43.18001" lon="5.90601">
        <ele>570</ele>
        <time>2016-07-30T06:46:17.117Z</time>
      </trkpt>
      <trkpt lat="43.18001" lon="5.90604">
        <ele>570</ele>
        <time>2016-07-30T06:46:18.117Z</time>
      </trkpt>
      <trkpt lat="43.18001" lon="5.90607">
        <ele>570</ele>
        <time>2016-07-30T06:46:19.117Z</time>
      </trkpt>
      <trkpt lat="43.18002" lon="5.90611">
        <ele>571</ele>
        <time>2016-07-30T06:46:20.117Z</time>
      </trkpt>
      <trkpt lat="43.18003" lon="5.90614">
        <ele>570</ele>
        <time>2016-07-30T06:46:21.117Z</time>
      </trkpt>
      <trkpt lat="43.18004" lon="5.90616">
        <ele>570</ele>
        <time>2016-07-30T06:46:22.117Z</time>
      </trkpt>
      <trkpt lat="43.18006" lon="5.90617">
        <ele>570</ele>
        <time>2016-07-30T06:46:23.117Z</time>
      </trkpt>
      <trkpt lat="43.18008" lon="5.90617">
        <ele>570</ele>
        <time>2016-07-30T06:46:24.117Z</time>
      </trkpt>
      <trkpt lat="43.1801" lon="5.90615">
        <ele>570</ele>
        <time>2016-07-30T06:46:25.117Z</time>
      </trkpt>
      <trkpt lat="43.18012" lon="5.90613">
        <ele>569</ele>
        <time>2016-07-30T06:46:26.117Z</time>
      </trkpt>
      <trkpt lat="43.18014" lon="5.90611">
        <ele>569</ele>
        <time>2016-07-30T06:46:27.117Z</time>
      </trkpt>
      <trkpt lat="43.18016" lon="5.90608">
        <ele>570</ele>
        <time>2016-07-30T06:46:28.117Z</time>
      </trkpt>
      <trkpt lat="43.18017" lon="5.90605">
        <ele>570</ele>
        <time>2016-07-30T06:46:29.117Z</time>
      </trkpt>
      <trkpt lat="43.18019" lon="5.90602">
        <ele>570</ele>
        <time>2016-07-30T06:46:30.117Z</time>
      </trkpt>
      <trkpt lat="43.1802" lon="5.90599">
        <ele>570</ele>
        <time>2016-07-30T06:46:31.117Z</time>
      </trkpt>
      <trkpt lat="43.18022" lon="5.90596">
        <ele>570</ele>
        <time>2016-07-30T06:46:32.117Z</time>
      </trkpt>
      <trkpt lat="43.18024" lon="5.90594">
        <ele>570</ele>
        <time>2016-07-30T06:46:33.117Z</time>
      </trkpt>
      <trkpt lat="43.18027" lon="5.90592">
        <ele>570</ele>
        <time>2016-07-30T06:46:34.117Z</time>
      </trkpt>
      <trkpt lat="43.18029" lon="5.90591">
        <ele>570</ele>
        <time>2016-07-30T06:46:35.117Z</time>
      </trkpt>
      <trkpt lat="43.18031" lon="5.90589">
        <ele>571</ele>
        <time>2016-07-30T06:46:36.117Z</time>
      </trkpt>
      <trkpt lat="43.18034" lon="5.90588">
        <ele>571</ele>
        <time>2016-07-30T06:46:37.117Z</time>
      </trkpt>
      <trkpt lat="43.18036" lon="5.90587">
        <ele>571</ele>
        <time>2016-07-30T06:46:38.117Z</time>
      </trkpt>
      <trkpt lat="43.18039" lon="5.90586">
        <ele>572</ele>
        <time>2016-07-30T06:46:39.117Z</time>
      </trkpt>
      <trkpt lat="43.18041" lon="5.90585">
        <ele>572</ele>
        <time>2016-07-30T06:46:40.117Z</time>
      </trkpt>
      <trkpt lat="43.18043" lon="5.90585">
        <ele>572</ele>
        <time>2016-07-30T06:46:41.117Z</time>
      </trkpt>
      <trkpt lat="43.18046" lon="5.90584">
        <ele>573</ele>
        <time>2016-07-30T06:46:42.117Z</time>
      </trkpt>
      <trkpt lat="43.18048" lon="5.90584">
        <ele>573</ele>
        <time>2016-07-30T06:46:43.117Z</time>
      </trkpt>
      <trkpt lat="43.18051" lon="5.90583">
        <ele>573</ele>
        <time>2016-07-30T06:46:44.117Z</time>
      </trkpt>
      <trkpt lat="43.18053" lon="5.90583">
        <ele>574</ele>
        <time>2016-07-30T06:46:45.117Z</time>
      </trkpt>
      <trkpt lat="43.18056" lon="5.90582">
        <ele>574</ele>
        <time>2016-07-30T06:46:46.117Z</time>
      </trkpt>
      <trkpt lat="43.18058" lon="5.90581">
        <ele>574</ele>
        <time>2016-07-30T06:46:47.117Z</time>
      </trkpt>
      <trkpt lat="43.18061" lon="5.90581">
        <ele>575</ele>
        <time>2016-07-30T06:46:48.117Z</time>
      </trkpt>
      <trkpt lat="43.18063" lon="5.9058">
        <ele>575</ele>
        <time>2016-07-30T06:46:49.117Z</time>
      </trkpt>
      <trkpt lat="43.18066" lon="5.9058">
        <ele>575</ele>
        <time>2016-07-30T06:46:50.117Z</time>
      </trkpt>
      <trkpt lat="43.18068" lon="5.90579">
        <ele>575</ele>
        <time>2016-07-30T06:46:51.117Z</time>
      </trkpt>
      <trkpt lat="43.1807" lon="5.90578">
        <ele>575</ele>
        <time>2016-07-30T06:46:52.117Z</time>
      </trkpt>
      <trkpt lat="43.18073" lon="5.90577">
        <ele>575</ele>
        <time>2016-07-30T06:46:53.117Z</time>
      </trkpt>
      <trkpt lat="43.18075" lon="5.90575">
        <ele>575</ele>
        <time>2016-07-30T06:46:54.117Z</time>
      </trkpt>
      <trkpt lat="43.18076" lon="5.90573">
        <ele>575</ele>
        <time>2016-07-30T06:46:55.117Z</time>
      </trkpt>
      <trkpt lat="43.18077" lon="5.90571">
        <ele>575</ele>
        <time>2016-07-30T06:46:56.117Z</time>
      </trkpt>
      <trkpt lat="43.18079" lon="5.90568">
        <ele>575</ele>
        <time>2016-07-30T06:46:57.117Z</time>
      </trkpt>
      <trkpt lat="43.18079" lon="5.90564">
        <ele>575</ele>
        <time>2016-07-30T06:46:58.117Z</time>
      </trkpt>
      <trkpt lat="43.1808" lon="5.90561">
        <ele>575</ele>
        <time>2016-07-30T06:46:59.117Z</time>
      </trkpt>
      <trkpt lat="43.1808" lon="5.90557">
        <ele>575</ele>
        <time>2016-07-30T06:47:00.117Z</time>
      </trkpt>
      <trkpt lat="43.1808" lon="5.90554">
        <ele>575</ele>
        <time>2016-07-30T06:47:01.117Z</time>
      </trkpt>
      <trkpt lat="43.1808" lon="5.90551">
        <ele>575</ele>
        <time>2016-07-30T06:47:02.117Z</time>
      </trkpt>
      <trkpt lat="43.1808" lon="5.90547">
        <ele>576</ele>
        <time>2016-07-30T06:47:03.117Z</time>
      </trkpt>
      <trkpt lat="43.1808" lon="5.90544">
        <ele>576</ele>
        <time>2016-07-30T06:47:04.117Z</time>
      </trkpt>
      <trkpt lat="43.18079" lon="5.90541">
        <ele>577</ele>
        <time>2016-07-30T06:47:05.117Z</time>
      </trkpt>
      <trkpt lat="43.18079" lon="5.90537">
        <ele>577</ele>
        <time>2016-07-30T06:47:06.117Z</time>
      </trkpt>
      <trkpt lat="43.18079" lon="5.90534">
        <ele>577</ele>
        <time>2016-07-30T06:47:07.117Z</time>
      </trkpt>
      <trkpt lat="43.18079" lon="5.90531">
        <ele>577</ele>
        <time>2016-07-30T06:47:08.117Z</time>
      </trkpt>
      <trkpt lat="43.18079" lon="5.90527">
        <ele>578</ele>
        <time>2016-07-30T06:47:09.117Z</time>
      </trkpt>
      <trkpt lat="43.1808" lon="5.90524">
        <ele>578</ele>
        <time>2016-07-30T06:47:10.117Z</time>
      </trkpt>
      <trkpt lat="43.1808" lon="5.90521">
        <ele>579</ele>
        <time>2016-07-30T06:47:11.117Z</time>
      </trkpt>
      <trkpt lat="43.1808" lon="5.90518">
        <ele>579</ele>
        <time>2016-07-30T06:47:12.117Z</time>
      </trkpt>
      <trkpt lat="43.1808" lon="5.90515">
        <ele>580</ele>
        <time>2016-07-30T06:47:13.117Z</time>
      </trkpt>
      <trkpt lat="43.1808" lon="5.90512">
        <ele>580</ele>
        <time>2016-07-30T06:47:14.117Z</time>
      </trkpt>
      <trkpt lat="43.1808" lon="5.90509">
        <ele>581</ele>
        <time>2016-07-30T06:47:15.117Z</time>
      </trkpt>
      <trkpt lat="43.18081" lon="5.90506">
        <ele>581</ele>
        <time>2016-07-30T06:47:16.117Z</time>
      </trkpt>
      <trkpt lat="43.18081" lon="5.90503">
        <ele>582</ele>
        <time>2016-07-30T06:47:17.117Z</time>
      </trkpt>
      <trkpt lat="43.18081" lon="5.90501">
        <ele>582</ele>
        <time>2016-07-30T06:47:18.117Z</time>
      </trkpt>
      <trkpt lat="43.18082" lon="5.90498">
        <ele>582</ele>
        <time>2016-07-30T06:47:19.117Z</time>
      </trkpt>
      <trkpt lat="43.18082" lon="5.90495">
        <ele>582</ele>
        <time>2016-07-30T06:47:20.117Z</time>
      </trkpt>
      <trkpt lat="43.18083" lon="5.90493">
        <ele>582</ele>
        <time>2016-07-30T06:47:21.117Z</time>
      </trkpt>
      <trkpt lat="43.18083" lon="5.9049">
        <ele>583</ele>
        <time>2016-07-30T06:47:22.117Z</time>
      </trkpt>
      <trkpt lat="43.18084" lon="5.90488">
        <ele>583</ele>
        <time>2016-07-30T06:47:23.117Z</time>
      </trkpt>
      <trkpt lat="43.18085" lon="5.90485">
        <ele>583</ele>
        <time>2016-07-30T06:47:24.117Z</time>
      </trkpt>
      <trkpt lat="43.18086" lon="5.90482">
        <ele>583</ele>
        <time>2016-07-30T06:47:25.117Z</time>
      </trkpt>
      <trkpt lat="43.18087" lon="5.90479">
        <ele>584</ele>
        <time>2016-07-30T06:47:26.117Z</time>
      </trkpt>
      <trkpt lat="43.18087" lon="5.90477">
        <ele>584</ele>
        <time>2016-07-30T06:47:27.117Z</time>
      </trkpt>
      <trkpt lat="43.18088" lon="5.90474">
        <ele>584</ele>
        <time>2016-07-30T06:47:28.117Z</time>
      </trkpt>
      <trkpt lat="43.18089" lon="5.90471">
        <ele>584</ele>
        <time>2016-07-30T06:47:29.117Z</time>
      </trkpt>
      <trkpt lat="43.1809" lon="5.90469">
        <ele>585</ele>
        <time>2016-07-30T06:47:30.117Z</time>
      </trkpt>
      <trkpt lat="43.1809" lon="5.90466">
        <ele>585</ele>
        <time>2016-07-30T06:47:31.117Z</time>
      </trkpt>
      <trkpt lat="43.18091" lon="5.90463">
        <ele>585</ele>
        <time>2016-07-30T06:47:32.117Z</time>
      </trkpt>
      <trkpt lat="43.18091" lon="5.9046">
        <ele>585</ele>
        <time>2016-07-30T06:47:33.117Z</time>
      </trkpt>
      <trkpt lat="43.18092" lon="5.90457">
        <ele>586</ele>
        <time>2016-07-30T06:47:34.117Z</time>
      </trkpt>
      <trkpt lat="43.18092" lon="5.90454">
        <ele>586</ele>
        <time>2016-07-30T06:47:35.117Z</time>
      </trkpt>
      <trkpt lat="43.18092" lon="5.90451">
        <ele>586</ele>
        <time>2016-07-30T06:47:36.117Z</time>
      </trkpt>
      <trkpt lat="43.18092" lon="5.90448">
        <ele>586</ele>
        <time>2016-07-30T06:47:37.117Z</time>
      </trkpt>
      <trkpt lat="43.18093" lon="5.90445">
        <ele>587</ele>
        <time>2016-07-30T06:47:38.117Z</time>
      </trkpt>
      <trkpt lat="43.18093" lon="5.90442">
        <ele>587</ele>
        <time>2016-07-30T06:47:39.117Z</time>
      </trkpt>
      <trkpt lat="43.18093" lon="5.90439">
        <ele>587</ele>
        <time>2016-07-30T06:47:40.117Z</time>
      </trkpt>
      <trkpt lat="43.18093" lon="5.90436">
        <ele>587</ele>
        <time>2016-07-30T06:47:41.117Z</time>
      </trkpt>
      <trkpt lat="43.18093" lon="5.90434">
        <ele>588</ele>
        <time>2016-07-30T06:47:42.117Z</time>
      </trkpt>
      <trkpt lat="43.18093" lon="5.90431">
        <ele>588</ele>
        <time>2016-07-30T06:47:43.117Z</time>
      </trkpt>
      <trkpt lat="43.18094" lon="5.90428">
        <ele>588</ele>
        <time>2016-07-30T06:47:44.117Z</time>
      </trkpt>
      <trkpt lat="43.18094" lon="5.90426">
        <ele>588</ele>
        <time>2016-07-30T06:47:45.117Z</time>
      </trkpt>
      <trkpt lat="43.18094" lon="5.90423">
        <ele>589</ele>
        <time>2016-07-30T06:47:46.117Z</time>
      </trkpt>
      <trkpt lat="43.18095" lon="5.90421">
        <ele>589</ele>
        <time>2016-07-30T06:47:47.117Z</time>
      </trkpt>
      <trkpt lat="43.18095" lon="5.90418">
        <ele>589</ele>
        <time>2016-07-30T06:47:48.117Z</time>
      </trkpt>
      <trkpt lat="43.18095" lon="5.90415">
        <ele>589</ele>
        <time>2016-07-30T06:47:49.117Z</time>
      </trkpt>
      <trkpt lat="43.18095" lon="5.90413">
        <ele>590</ele>
        <time>2016-07-30T06:47:50.117Z</time>
      </trkpt>
      <trkpt lat="43.18095" lon="5.9041">
        <ele>590</ele>
        <time>2016-07-30T06:47:51.117Z</time>
      </trkpt>
      <trkpt lat="43.18095" lon="5.90407">
        <ele>590</ele>
        <time>2016-07-30T06:47:52.117Z</time>
      </trkpt>
      <trkpt lat="43.18095" lon="5.90405">
        <ele>590</ele>
        <time>2016-07-30T06:47:53.117Z</time>
      </trkpt>
      <trkpt lat="43.18095" lon="5.90402">
        <ele>590</ele>
        <time>2016-07-30T06:47:54.117Z</time>
      </trkpt>
      <trkpt lat="43.18094" lon="5.90399">
        <ele>591</ele>
        <time>2016-07-30T06:47:55.117Z</time>
      </trkpt>
      <trkpt lat="43.18094" lon="5.90396">
        <ele>591</ele>
        <time>2016-07-30T06:47:56.117Z</time>
      </trkpt>
      <trkpt lat="43.18094" lon="5.90393">
        <ele>591</ele>
        <time>2016-07-30T06:47:57.117Z</time>
      </trkpt>
      <trkpt lat="43.18093" lon="5.9039">
        <ele>591</ele>
        <time>2016-07-30T06:47:58.117Z</time>
      </trkpt>
      <trkpt lat="43.18093" lon="5.90388">
        <ele>592</ele>
        <time>2016-07-30T06:47:59.117Z</time>
      </trkpt>
      <trkpt lat="43.18093" lon="5.90385">
        <ele>592</ele>
        <time>2016-07-30T06:48:00.117Z</time>
      </trkpt>
      <trkpt lat="43.18093" lon="5.90382">
        <ele>592</ele>
        <time>2016-07-30T06:48:01.117Z</time>
      </trkpt>
      <trkpt lat="43.18093" lon="5.9038">
        <ele>593</ele>
        <time>2016-07-30T06:48:02.117Z</time>
      </trkpt>
      <trkpt lat="43.18093" lon="5.90377">
        <ele>593</ele>
        <time>2016-07-30T06:48:03.117Z</time>
      </trkpt>
      <trkpt lat="43.18092" lon="5.90374">
        <ele>593</ele>
        <time>2016-07-30T06:48:04.117Z</time>
      </trkpt>
      <trkpt lat="43.18092" lon="5.90372">
        <ele>594</ele>
        <time>2016-07-30T06:48:05.117Z</time>
      </trkpt>
      <trkpt lat="43.18092" lon="5.90369">
        <ele>594</ele>
        <time>2016-07-30T06:48:06.117Z</time>
      </trkpt>
      <trkpt lat="43.18092" lon="5.90366">
        <ele>594</ele>
        <time>2016-07-30T06:48:07.117Z</time>
      </trkpt>
      <trkpt lat="43.18092" lon="5.90364">
        <ele>594</ele>
        <time>2016-07-30T06:48:08.117Z</time>
      </trkpt>
      <trkpt lat="43.18092" lon="5.90361">
        <ele>595</ele>
        <time>2016-07-30T06:48:09.117Z</time>
      </trkpt>
      <trkpt lat="43.18092" lon="5.90359">
        <ele>595</ele>
        <time>2016-07-30T06:48:10.117Z</time>
      </trkpt>
      <trkpt lat="43.18092" lon="5.90356">
        <ele>595</ele>
        <time>2016-07-30T06:48:11.117Z</time>
      </trkpt>
      <trkpt lat="43.18092" lon="5.90353">
        <ele>596</ele>
        <time>2016-07-30T06:48:12.117Z</time>
      </trkpt>
      <trkpt lat="43.18091" lon="5.9035">
        <ele>596</ele>
        <time>2016-07-30T06:48:13.117Z</time>
      </trkpt>
      <trkpt lat="43.18091" lon="5.90347">
        <ele>596</ele>
        <time>2016-07-30T06:48:14.117Z</time>
      </trkpt>
      <trkpt lat="43.18092" lon="5.90344">
        <ele>596</ele>
        <time>2016-07-30T06:48:15.117Z</time>
      </trkpt>
      <trkpt lat="43.18092" lon="5.90341">
        <ele>596</ele>
        <time>2016-07-30T06:48:16.117Z</time>
      </trkpt>
      <trkpt lat="43.18092" lon="5.90338">
        <ele>596</ele>
        <time>2016-07-30T06:48:17.117Z</time>
      </trkpt>
      <trkpt lat="43.18092" lon="5.90334">
        <ele>596</ele>
        <time>2016-07-30T06:48:18.117Z</time>
      </trkpt>
      <trkpt lat="43.18092" lon="5.90331">
        <ele>596</ele>
        <time>2016-07-30T06:48:19.117Z</time>
      </trkpt>
      <trkpt lat="43.18093" lon="5.90328">
        <ele>596</ele>
        <time>2016-07-30T06:48:20.117Z</time>
      </trkpt>
      <trkpt lat="43.18093" lon="5.90325">
        <ele>596</ele>
        <time>2016-07-30T06:48:21.117Z</time>
      </trkpt>
      <trkpt lat="43.18093" lon="5.90322">
        <ele>597</ele>
        <time>2016-07-30T06:48:22.117Z</time>
      </trkpt>
      <trkpt lat="43.18093" lon="5.90318">
        <ele>596</ele>
        <time>2016-07-30T06:48:23.117Z</time>
      </trkpt>
      <trkpt lat="43.18094" lon="5.90315">
        <ele>597</ele>
        <time>2016-07-30T06:48:24.117Z</time>
      </trkpt>
      <trkpt lat="43.18094" lon="5.90312">
        <ele>597</ele>
        <time>2016-07-30T06:48:25.117Z</time>
      </trkpt>
      <trkpt lat="43.18094" lon="5.90309">
        <ele>597</ele>
        <time>2016-07-30T06:48:26.117Z</time>
      </trkpt>
      <trkpt lat="43.18094" lon="5.90306">
        <ele>597</ele>
        <time>2016-07-30T06:48:27.117Z</time>
      </trkpt>
      <trkpt lat="43.18094" lon="5.90303">
        <ele>597</ele>
        <time>2016-07-30T06:48:28.117Z</time>
      </trkpt>
      <trkpt lat="43.18095" lon="5.903">
        <ele>597</ele>
        <time>2016-07-30T06:48:29.117Z</time>
      </trkpt>
      <trkpt lat="43.18095" lon="5.90297">
        <ele>597</ele>
        <time>2016-07-30T06:48:30.117Z</time>
      </trkpt>
      <trkpt lat="43.18095" lon="5.90293">
        <ele>598</ele>
        <time>2016-07-30T06:48:31.117Z</time>
      </trkpt>
      <trkpt lat="43.18095" lon="5.9029">
        <ele>598</ele>
        <time>2016-07-30T06:48:32.117Z</time>
      </trkpt>
      <trkpt lat="43.18096" lon="5.90287">
        <ele>598</ele>
        <time>2016-07-30T06:48:33.117Z</time>
      </trkpt>
      <trkpt lat="43.18096" lon="5.90284">
        <ele>598</ele>
        <time>2016-07-30T06:48:34.117Z</time>
      </trkpt>
      <trkpt lat="43.18096" lon="5.90282">
        <ele>598</ele>
        <time>2016-07-30T06:48:35.117Z</time>
      </trkpt>
      <trkpt lat="43.18096" lon="5.90278">
        <ele>598</ele>
        <time>2016-07-30T06:48:36.117Z</time>
      </trkpt>
      <trkpt lat="43.18096" lon="5.90275">
        <ele>599</ele>
        <time>2016-07-30T06:48:37.117Z</time>
      </trkpt>
      <trkpt lat="43.18096" lon="5.90272">
        <ele>599</ele>
        <time>2016-07-30T06:48:38.117Z</time>
      </trkpt>
      <trkpt lat="43.18097" lon="5.90269">
        <ele>600</ele>
        <time>2016-07-30T06:48:39.117Z</time>
      </trkpt>
      <trkpt lat="43.18097" lon="5.90266">
        <ele>600</ele>
        <time>2016-07-30T06:48:40.117Z</time>
      </trkpt>
      <trkpt lat="43.18097" lon="5.90262">
        <ele>600</ele>
        <time>2016-07-30T06:48:41.117Z</time>
      </trkpt>
      <trkpt lat="43.18098" lon="5.90259">
        <ele>601</ele>
        <time>2016-07-30T06:48:42.117Z</time>
      </trkpt>
      <trkpt lat="43.18099" lon="5.90256">
        <ele>601</ele>
        <time>2016-07-30T06:48:43.117Z</time>
      </trkpt>
      <trkpt lat="43.181" lon="5.90253">
        <ele>601</ele>
        <time>2016-07-30T06:48:44.117Z</time>
      </trkpt>
      <trkpt lat="43.18101" lon="5.9025">
        <ele>601</ele>
        <time>2016-07-30T06:48:45.117Z</time>
      </trkpt>
      <trkpt lat="43.18102" lon="5.90248">
        <ele>602</ele>
        <time>2016-07-30T06:48:46.117Z</time>
      </trkpt>
      <trkpt lat="43.18103" lon="5.90245">
        <ele>602</ele>
        <time>2016-07-30T06:48:47.117Z</time>
      </trkpt>
      <trkpt lat="43.18104" lon="5.90242">
        <ele>602</ele>
        <time>2016-07-30T06:48:48.117Z</time>
      </trkpt>
      <trkpt lat="43.18105" lon="5.90239">
        <ele>603</ele>
        <time>2016-07-30T06:48:49.117Z</time>
      </trkpt>
      <trkpt lat="43.18107" lon="5.90237">
        <ele>603</ele>
        <time>2016-07-30T06:48:50.117Z</time>
      </trkpt>
      <trkpt lat="43.18108" lon="5.90234">
        <ele>604</ele>
        <time>2016-07-30T06:48:51.117Z</time>
      </trkpt>
      <trkpt lat="43.1811" lon="5.90232">
        <ele>604</ele>
        <time>2016-07-30T06:48:52.117Z</time>
      </trkpt>
      <trkpt lat="43.18112" lon="5.9023">
        <ele>604</ele>
        <time>2016-07-30T06:48:53.117Z</time>
      </trkpt>
      <trkpt lat="43.18113" lon="5.90227">
        <ele>605</ele>
        <time>2016-07-30T06:48:54.117Z</time>
      </trkpt>
      <trkpt lat="43.18115" lon="5.90225">
        <ele>605</ele>
        <time>2016-07-30T06:48:55.117Z</time>
      </trkpt>
      <trkpt lat="43.18116" lon="5.90223">
        <ele>605</ele>
        <time>2016-07-30T06:48:56.117Z</time>
      </trkpt>
      <trkpt lat="43.18118" lon="5.9022">
        <ele>605</ele>
        <time>2016-07-30T06:48:57.117Z</time>
      </trkpt>
      <trkpt lat="43.18119" lon="5.90218">
        <ele>606</ele>
        <time>2016-07-30T06:48:58.117Z</time>
      </trkpt>
      <trkpt lat="43.18121" lon="5.90215">
        <ele>606</ele>
        <time>2016-07-30T06:48:59.117Z</time>
      </trkpt>
      <trkpt lat="43.18122" lon="5.90213">
        <ele>606</ele>
        <time>2016-07-30T06:49:00.117Z</time>
      </trkpt>
      <trkpt lat="43.18124" lon="5.9021">
        <ele>607</ele>
        <time>2016-07-30T06:49:01.117Z</time>
      </trkpt>
      <trkpt lat="43.18125" lon="5.90207">
        <ele>607</ele>
        <time>2016-07-30T06:49:02.117Z</time>
      </trkpt>
      <trkpt lat="43.18126" lon="5.90205">
        <ele>607</ele>
        <time>2016-07-30T06:49:03.117Z</time>
      </trkpt>
      <trkpt lat="43.18127" lon="5.90202">
        <ele>607</ele>
        <time>2016-07-30T06:49:04.117Z</time>
      </trkpt>
      <trkpt lat="43.18128" lon="5.90199">
        <ele>607</ele>
        <time>2016-07-30T06:49:05.117Z</time>
      </trkpt>
      <trkpt lat="43.18128" lon="5.90196">
        <ele>607</ele>
        <time>2016-07-30T06:49:06.117Z</time>
      </trkpt>
      <trkpt lat="43.18128" lon="5.90192">
        <ele>607</ele>
        <time>2016-07-30T06:49:07.117Z</time>
      </trkpt>
      <trkpt lat="43.18128" lon="5.90189">
        <ele>607</ele>
        <time>2016-07-30T06:49:08.117Z</time>
      </trkpt>
      <trkpt lat="43.18127" lon="5.90186">
        <ele>607</ele>
        <time>2016-07-30T06:49:09.117Z</time>
      </trkpt>
      <trkpt lat="43.18127" lon="5.90183">
        <ele>607</ele>
        <time>2016-07-30T06:49:10.117Z</time>
      </trkpt>
      <trkpt lat="43.18126" lon="5.9018">
        <ele>607</ele>
        <time>2016-07-30T06:49:11.117Z</time>
      </trkpt>
      <trkpt lat="43.18125" lon="5.90177">
        <ele>607</ele>
        <time>2016-07-30T06:49:12.117Z</time>
      </trkpt>
      <trkpt lat="43.18124" lon="5.90174">
        <ele>608</ele>
        <time>2016-07-30T06:49:13.117Z</time>
      </trkpt>
      <trkpt lat="43.18123" lon="5.90171">
        <ele>608</ele>
        <time>2016-07-30T06:49:14.117Z</time>
      </trkpt>
      <trkpt lat="43.18122" lon="5.90168">
        <ele>608</ele>
        <time>2016-07-30T06:49:15.117Z</time>
      </trkpt>
      <trkpt lat="43.18121" lon="5.90165">
        <ele>608</ele>
        <time>2016-07-30T06:49:16.117Z</time>
      </trkpt>
      <trkpt lat="43.1812" lon="5.90162">
        <ele>609</ele>
        <time>2016-07-30T06:49:17.117Z</time>
      </trkpt>
      <trkpt lat="43.1812" lon="5.9016">
        <ele>609</ele>
        <time>2016-07-30T06:49:18.117Z</time>
      </trkpt>
      <trkpt lat="43.18119" lon="5.90157">
        <ele>609</ele>
        <time>2016-07-30T06:49:19.117Z</time>
      </trkpt>
      <trkpt lat="43.18118" lon="5.90154">
        <ele>609</ele>
        <time>2016-07-30T06:49:20.117Z</time>
      </trkpt>
      <trkpt lat="43.18117" lon="5.90151">
        <ele>609</ele>
        <time>2016-07-30T06:49:21.117Z</time>
      </trkpt>
      <trkpt lat="43.18116" lon="5.90147">
        <ele>610</ele>
        <time>2016-07-30T06:49:22.117Z</time>
      </trkpt>
      <trkpt lat="43.18115" lon="5.90144">
        <ele>610</ele>
        <time>2016-07-30T06:49:23.117Z</time>
      </trkpt>
      <trkpt lat="43.18115" lon="5.90142">
        <ele>610</ele>
        <time>2016-07-30T06:49:24.117Z</time>
      </trkpt>
      <trkpt lat="43.18114" lon="5.90139">
        <ele>610</ele>
        <time>2016-07-30T06:49:25.117Z</time>
      </trkpt>
      <trkpt lat="43.18113" lon="5.90136">
        <ele>611</ele>
        <time>2016-07-30T06:49:26.117Z</time>
      </trkpt>
      <trkpt lat="43.18112" lon="5.90133">
        <ele>611</ele>
        <time>2016-07-30T06:49:27.117Z</time>
      </trkpt>
      <trkpt lat="43.18111" lon="5.9013">
        <ele>611</ele>
        <time>2016-07-30T06:49:28.117Z</time>
      </trkpt>
      <trkpt lat="43.1811" lon="5.90127">
        <ele>611</ele>
        <time>2016-07-30T06:49:29.117Z</time>
      </trkpt>
      <trkpt lat="43.18109" lon="5.90125">
        <ele>611</ele>
        <time>2016-07-30T06:49:30.117Z</time>
      </trkpt>
      <trkpt lat="43.18109" lon="5.90122">
        <ele>612</ele>
        <time>2016-07-30T06:49:31.117Z</time>
      </trkpt>
      <trkpt lat="43.18108" lon="5.90119">
        <ele>612</ele>
        <time>2016-07-30T06:49:32.117Z</time>
      </trkpt>
      <trkpt lat="43.18108" lon="5.90115">
        <ele>612</ele>
        <time>2016-07-30T06:49:33.117Z</time>
      </trkpt>
      <trkpt lat="43.18108" lon="5.90112">
        <ele>612</ele>
        <time>2016-07-30T06:49:34.117Z</time>
      </trkpt>
      <trkpt lat="43.18108" lon="5.90109">
        <ele>612</ele>
        <time>2016-07-30T06:49:35.117Z</time>
      </trkpt>
      <trkpt lat="43.18108" lon="5.90106">
        <ele>612</ele>
        <time>2016-07-30T06:49:36.117Z</time>
      </trkpt>
      <trkpt lat="43.18108" lon="5.90103">
        <ele>612</ele>
        <time>2016-07-30T06:49:37.117Z</time>
      </trkpt>
      <trkpt lat="43.18109" lon="5.901">
        <ele>612</ele>
        <time>2016-07-30T06:49:38.117Z</time>
      </trkpt>
      <trkpt lat="43.18109" lon="5.90097">
        <ele>613</ele>
        <time>2016-07-30T06:49:39.117Z</time>
      </trkpt>
      <trkpt lat="43.1811" lon="5.90095">
        <ele>613</ele>
        <time>2016-07-30T06:49:40.117Z</time>
      </trkpt>
      <trkpt lat="43.1811" lon="5.90092">
        <ele>614</ele>
        <time>2016-07-30T06:49:41.117Z</time>
      </trkpt>
      <trkpt lat="43.18111" lon="5.90089">
        <ele>614</ele>
        <time>2016-07-30T06:49:42.117Z</time>
      </trkpt>
      <trkpt lat="43.18112" lon="5.90087">
        <ele>615</ele>
        <time>2016-07-30T06:49:43.117Z</time>
      </trkpt>
      <trkpt lat="43.18113" lon="5.90084">
        <ele>615</ele>
        <time>2016-07-30T06:49:44.117Z</time>
      </trkpt>
      <trkpt lat="43.18113" lon="5.90081">
        <ele>615</ele>
        <time>2016-07-30T06:49:45.117Z</time>
      </trkpt>
      <trkpt lat="43.18114" lon="5.90079">
        <ele>615</ele>
        <time>2016-07-30T06:49:46.117Z</time>
      </trkpt>
      <trkpt lat="43.18115" lon="5.90076">
        <ele>616</ele>
        <time>2016-07-30T06:49:47.117Z</time>
      </trkpt>
      <trkpt lat="43.18117" lon="5.90073">
        <ele>616</ele>
        <time>2016-07-30T06:49:48.117Z</time>
      </trkpt>
      <trkpt lat="43.18118" lon="5.90071">
        <ele>616</ele>
        <time>2016-07-30T06:49:49.117Z</time>
      </trkpt>
      <trkpt lat="43.18119" lon="5.90068">
        <ele>615</ele>
        <time>2016-07-30T06:49:50.117Z</time>
      </trkpt>
      <trkpt lat="43.1812" lon="5.90066">
        <ele>615</ele>
        <time>2016-07-30T06:49:51.117Z</time>
      </trkpt>
      <trkpt lat="43.18121" lon="5.90063">
        <ele>616</ele>
        <time>2016-07-30T06:49:52.117Z</time>
      </trkpt>
      <trkpt lat="43.18122" lon="5.9006">
        <ele>615</ele>
        <time>2016-07-30T06:49:53.117Z</time>
      </trkpt>
      <trkpt lat="43.18123" lon="5.90056">
        <ele>616</ele>
        <time>2016-07-30T06:49:54.117Z</time>
      </trkpt>
      <trkpt lat="43.18124" lon="5.90053">
        <ele>616</ele>
        <time>2016-07-30T06:49:55.117Z</time>
      </trkpt>
      <trkpt lat="43.18125" lon="5.9005">
        <ele>616</ele>
        <time>2016-07-30T06:49:56.117Z</time>
      </trkpt>
      <trkpt lat="43.18126" lon="5.90047">
        <ele>615</ele>
        <time>2016-07-30T06:49:57.117Z</time>
      </trkpt>
      <trkpt lat="43.18127" lon="5.90044">
        <ele>615</ele>
        <time>2016-07-30T06:49:58.117Z</time>
      </trkpt>
      <trkpt lat="43.18128" lon="5.9004">
        <ele>615</ele>
        <time>2016-07-30T06:49:59.117Z</time>
      </trkpt>
      <trkpt lat="43.18128" lon="5.90037">
        <ele>615</ele>
        <time>2016-07-30T06:50:00.117Z</time>
      </trkpt>
      <trkpt lat="43.18129" lon="5.90034">
        <ele>615</ele>
        <time>2016-07-30T06:50:01.117Z</time>
      </trkpt>
      <trkpt lat="43.18129" lon="5.90031">
        <ele>614</ele>
        <time>2016-07-30T06:50:02.117Z</time>
      </trkpt>
      <trkpt lat="43.18129" lon="5.90028">
        <ele>613</ele>
        <time>2016-07-30T06:50:03.117Z</time>
      </trkpt>
      <trkpt lat="43.18128" lon="5.90025">
        <ele>613</ele>
        <time>2016-07-30T06:50:04.117Z</time>
      </trkpt>
      <trkpt lat="43.18126" lon="5.90022">
        <ele>615</ele>
        <time>2016-07-30T06:50:05.117Z</time>
      </trkpt>
      <trkpt lat="43.18123" lon="5.90019">
        <ele>617</ele>
        <time>2016-07-30T06:50:06.117Z</time>
      </trkpt>
      <trkpt lat="43.18121" lon="5.90017">
        <ele>617</ele>
        <time>2016-07-30T06:50:07.117Z</time>
      </trkpt>
      <trkpt lat="43.18118" lon="5.90014">
        <ele>618</ele>
        <time>2016-07-30T06:50:08.117Z</time>
      </trkpt>
      <trkpt lat="43.18116" lon="5.90012">
        <ele>618</ele>
        <time>2016-07-30T06:50:09.117Z</time>
      </trkpt>
      <trkpt lat="43.18114" lon="5.9001">
        <ele>619</ele>
        <time>2016-07-30T06:50:10.117Z</time>
      </trkpt>
      <trkpt lat="43.18112" lon="5.90007">
        <ele>619</ele>
        <time>2016-07-30T06:50:11.117Z</time>
      </trkpt>
      <trkpt lat="43.1811" lon="5.90005">
        <ele>619</ele>
        <time>2016-07-30T06:50:12.117Z</time>
      </trkpt>
      <trkpt lat="43.18108" lon="5.90004">
        <ele>620</ele>
        <time>2016-07-30T06:50:13.117Z</time>
      </trkpt>
      <trkpt lat="43.18106" lon="5.90002">
        <ele>620</ele>
        <time>2016-07-30T06:50:14.117Z</time>
      </trkpt>
      <trkpt lat="43.18104" lon="5.90001">
        <ele>620</ele>
        <time>2016-07-30T06:50:15.117Z</time>
      </trkpt>
      <trkpt lat="43.18102" lon="5.89999">
        <ele>620</ele>
        <time>2016-07-30T06:50:16.117Z</time>
      </trkpt>
      <trkpt lat="43.181" lon="5.89997">
        <ele>620</ele>
        <time>2016-07-30T06:50:17.117Z</time>
      </trkpt>
      <trkpt lat="43.18099" lon="5.89995">
        <ele>621</ele>
        <time>2016-07-30T06:50:18.117Z</time>
      </trkpt>
      <trkpt lat="43.18097" lon="5.89993">
        <ele>621</ele>
        <time>2016-07-30T06:50:19.117Z</time>
      </trkpt>
      <trkpt lat="43.18095" lon="5.89991">
        <ele>621</ele>
        <time>2016-07-30T06:50:20.117Z</time>
      </trkpt>
      <trkpt lat="43.18093" lon="5.8999">
        <ele>621</ele>
        <time>2016-07-30T06:50:21.117Z</time>
      </trkpt>
      <trkpt lat="43.18091" lon="5.89988">
        <ele>621</ele>
        <time>2016-07-30T06:50:22.117Z</time>
      </trkpt>
      <trkpt lat="43.18089" lon="5.89986">
        <ele>621</ele>
        <time>2016-07-30T06:50:23.117Z</time>
      </trkpt>
      <trkpt lat="43.18088" lon="5.89984">
        <ele>622</ele>
        <time>2016-07-30T06:50:24.117Z</time>
      </trkpt>
      <trkpt lat="43.18086" lon="5.89982">
        <ele>622</ele>
        <time>2016-07-30T06:50:25.117Z</time>
      </trkpt>
      <trkpt lat="43.18084" lon="5.8998">
        <ele>622</ele>
        <time>2016-07-30T06:50:26.117Z</time>
      </trkpt>
      <trkpt lat="43.18082" lon="5.89978">
        <ele>623</ele>
        <time>2016-07-30T06:50:27.117Z</time>
      </trkpt>
      <trkpt lat="43.1808" lon="5.89976">
        <ele>623</ele>
        <time>2016-07-30T06:50:28.117Z</time>
      </trkpt>
      <trkpt lat="43.18079" lon="5.89973">
        <ele>623</ele>
        <time>2016-07-30T06:50:29.117Z</time>
      </trkpt>
      <trkpt lat="43.18077" lon="5.89971">
        <ele>623</ele>
        <time>2016-07-30T06:50:30.117Z</time>
      </trkpt>
      <trkpt lat="43.18076" lon="5.89969">
        <ele>624</ele>
        <time>2016-07-30T06:50:31.117Z</time>
      </trkpt>
      <trkpt lat="43.18074" lon="5.89967">
        <ele>624</ele>
        <time>2016-07-30T06:50:32.117Z</time>
      </trkpt>
      <trkpt lat="43.18072" lon="5.89965">
        <ele>624</ele>
        <time>2016-07-30T06:50:33.117Z</time>
      </trkpt>
      <trkpt lat="43.1807" lon="5.89963">
        <ele>625</ele>
        <time>2016-07-30T06:50:34.117Z</time>
      </trkpt>
      <trkpt lat="43.18069" lon="5.89961">
        <ele>625</ele>
        <time>2016-07-30T06:50:35.117Z</time>
      </trkpt>
      <trkpt lat="43.18067" lon="5.89958">
        <ele>625</ele>
        <time>2016-07-30T06:50:36.117Z</time>
      </trkpt>
      <trkpt lat="43.18065" lon="5.89956">
        <ele>625</ele>
        <time>2016-07-30T06:50:37.117Z</time>
      </trkpt>
      <trkpt lat="43.18063" lon="5.89954">
        <ele>626</ele>
        <time>2016-07-30T06:50:38.117Z</time>
      </trkpt>
      <trkpt lat="43.18061" lon="5.89952">
        <ele>626</ele>
        <time>2016-07-30T06:50:39.117Z</time>
      </trkpt>
      <trkpt lat="43.18059" lon="5.8995">
        <ele>626</ele>
        <time>2016-07-30T06:50:40.117Z</time>
      </trkpt>
      <trkpt lat="43.18058" lon="5.89948">
        <ele>626</ele>
        <time>2016-07-30T06:50:41.117Z</time>
      </trkpt>
      <trkpt lat="43.18056" lon="5.89947">
        <ele>627</ele>
        <time>2016-07-30T06:50:42.117Z</time>
      </trkpt>
      <trkpt lat="43.18054" lon="5.89945">
        <ele>627</ele>
        <time>2016-07-30T06:50:43.117Z</time>
      </trkpt>
      <trkpt lat="43.18052" lon="5.89943">
        <ele>627</ele>
        <time>2016-07-30T06:50:44.117Z</time>
      </trkpt>
      <trkpt lat="43.18051" lon="5.8994">
        <ele>627</ele>
        <time>2016-07-30T06:50:45.117Z</time>
      </trkpt>
      <trkpt lat="43.1805" lon="5.89938">
        <ele>627</ele>
        <time>2016-07-30T06:50:46.117Z</time>
      </trkpt>
      <trkpt lat="43.18049" lon="5.89935">
        <ele>628</ele>
        <time>2016-07-30T06:50:47.117Z</time>
      </trkpt>
      <trkpt lat="43.1805" lon="5.89932">
        <ele>628</ele>
        <time>2016-07-30T06:50:48.117Z</time>
      </trkpt>
      <trkpt lat="43.18051" lon="5.8993">
        <ele>626</ele>
        <time>2016-07-30T06:50:49.117Z</time>
      </trkpt>
      <trkpt lat="43.18053" lon="5.8993">
        <ele>625</ele>
        <time>2016-07-30T06:50:50.117Z</time>
      </trkpt>
      <trkpt lat="43.18056" lon="5.89931">
        <ele>625</ele>
        <time>2016-07-30T06:50:51.117Z</time>
      </trkpt>
      <trkpt lat="43.18058" lon="5.89933">
        <ele>625</ele>
        <time>2016-07-30T06:50:52.117Z</time>
      </trkpt>
      <trkpt lat="43.1806" lon="5.89935">
        <ele>625</ele>
        <time>2016-07-30T06:50:53.117Z</time>
      </trkpt>
      <trkpt lat="43.18062" lon="5.89938">
        <ele>626</ele>
        <time>2016-07-30T06:50:54.117Z</time>
      </trkpt>
      <trkpt lat="43.18063" lon="5.89941">
        <ele>626</ele>
        <time>2016-07-30T06:50:55.117Z</time>
      </trkpt>
      <trkpt lat="43.18065" lon="5.89943">
        <ele>626</ele>
        <time>2016-07-30T06:50:56.117Z</time>
      </trkpt>
      <trkpt lat="43.18067" lon="5.89946">
        <ele>626</ele>
        <time>2016-07-30T06:50:57.117Z</time>
      </trkpt>
      <trkpt lat="43.18069" lon="5.89948">
        <ele>627</ele>
        <time>2016-07-30T06:50:58.117Z</time>
      </trkpt>
      <trkpt lat="43.18071" lon="5.8995">
        <ele>627</ele>
        <time>2016-07-30T06:50:59.117Z</time>
      </trkpt>
      <trkpt lat="43.18073" lon="5.89951">
        <ele>627</ele>
        <time>2016-07-30T06:51:00.117Z</time>
      </trkpt>
      <trkpt lat="43.18075" lon="5.89953">
        <ele>627</ele>
        <time>2016-07-30T06:51:01.117Z</time>
      </trkpt>
      <trkpt lat="43.18077" lon="5.89954">
        <ele>627</ele>
        <time>2016-07-30T06:51:02.117Z</time>
      </trkpt>
      <trkpt lat="43.18079" lon="5.89956">
        <ele>627</ele>
        <time>2016-07-30T06:51:03.117Z</time>
      </trkpt>
      <trkpt lat="43.18081" lon="5.89958">
        <ele>628</ele>
        <time>2016-07-30T06:51:04.117Z</time>
      </trkpt>
      <trkpt lat="43.18083" lon="5.89959">
        <ele>628</ele>
        <time>2016-07-30T06:51:05.117Z</time>
      </trkpt>
      <trkpt lat="43.18085" lon="5.89961">
        <ele>628</ele>
        <time>2016-07-30T06:51:06.117Z</time>
      </trkpt>
      <trkpt lat="43.18087" lon="5.89962">
        <ele>628</ele>
        <time>2016-07-30T06:51:07.117Z</time>
      </trkpt>
      <trkpt lat="43.18089" lon="5.89964">
        <ele>628</ele>
        <time>2016-07-30T06:51:08.117Z</time>
      </trkpt>
      <trkpt lat="43.18091" lon="5.89965">
        <ele>629</ele>
        <time>2016-07-30T06:51:09.117Z</time>
      </trkpt>
      <trkpt lat="43.18094" lon="5.89967">
        <ele>629</ele>
        <time>2016-07-30T06:51:10.117Z</time>
      </trkpt>
      <trkpt lat="43.18096" lon="5.89968">
        <ele>630</ele>
        <time>2016-07-30T06:51:11.117Z</time>
      </trkpt>
      <trkpt lat="43.18098" lon="5.89969">
        <ele>630</ele>
        <time>2016-07-30T06:51:12.117Z</time>
      </trkpt>
      <trkpt lat="43.181" lon="5.8997">
        <ele>630</ele>
        <time>2016-07-30T06:51:13.117Z</time>
      </trkpt>
      <trkpt lat="43.18102" lon="5.89972">
        <ele>631</ele>
        <time>2016-07-30T06:51:14.117Z</time>
      </trkpt>
      <trkpt lat="43.18104" lon="5.89973">
        <ele>631</ele>
        <time>2016-07-30T06:51:15.117Z</time>
      </trkpt>
      <trkpt lat="43.18107" lon="5.89974">
        <ele>631</ele>
        <time>2016-07-30T06:51:16.117Z</time>
      </trkpt>
      <trkpt lat="43.18109" lon="5.89975">
        <ele>632</ele>
        <time>2016-07-30T06:51:17.117Z</time>
      </trkpt>
      <trkpt lat="43.18112" lon="5.89975">
        <ele>632</ele>
        <time>2016-07-30T06:51:18.117Z</time>
      </trkpt>
      <trkpt lat="43.18114" lon="5.89976">
        <ele>632</ele>
        <time>2016-07-30T06:51:19.117Z</time>
      </trkpt>
      <trkpt lat="43.18117" lon="5.89978">
        <ele>632</ele>
        <time>2016-07-30T06:51:20.117Z</time>
      </trkpt>
      <trkpt lat="43.18119" lon="5.89979">
        <ele>633</ele>
        <time>2016-07-30T06:51:21.117Z</time>
      </trkpt>
      <trkpt lat="43.18121" lon="5.8998">
        <ele>633</ele>
        <time>2016-07-30T06:51:22.117Z</time>
      </trkpt>
      <trkpt lat="43.18124" lon="5.8998">
        <ele>633</ele>
        <time>2016-07-30T06:51:23.117Z</time>
      </trkpt>
      <trkpt lat="43.18126" lon="5.89981">
        <ele>634</ele>
        <time>2016-07-30T06:51:24.117Z</time>
      </trkpt>
      <trkpt lat="43.18128" lon="5.89982">
        <ele>634</ele>
        <time>2016-07-30T06:51:25.117Z</time>
      </trkpt>
      <trkpt lat="43.1813" lon="5.89983">
        <ele>634</ele>
        <time>2016-07-30T06:51:26.117Z</time>
      </trkpt>
      <trkpt lat="43.18133" lon="5.89984">
        <ele>635</ele>
        <time>2016-07-30T06:51:27.117Z</time>
      </trkpt>
      <trkpt lat="43.18135" lon="5.89985">
        <ele>635</ele>
        <time>2016-07-30T06:51:28.117Z</time>
      </trkpt>
      <trkpt lat="43.18137" lon="5.89986">
        <ele>635</ele>
        <time>2016-07-30T06:51:29.117Z</time>
      </trkpt>
      <trkpt lat="43.18139" lon="5.89987">
        <ele>636</ele>
        <time>2016-07-30T06:51:30.117Z</time>
      </trkpt>
      <trkpt lat="43.18142" lon="5.89988">
        <ele>636</ele>
        <time>2016-07-30T06:51:31.117Z</time>
      </trkpt>
      <trkpt lat="43.18144" lon="5.89989">
        <ele>636</ele>
        <time>2016-07-30T06:51:32.117Z</time>
      </trkpt>
      <trkpt lat="43.18146" lon="5.8999">
        <ele>636</ele>
        <time>2016-07-30T06:51:33.117Z</time>
      </trkpt>
      <trkpt lat="43.18148" lon="5.89992">
        <ele>637</ele>
        <time>2016-07-30T06:51:34.117Z</time>
      </trkpt>
      <trkpt lat="43.1815" lon="5.89994">
        <ele>637</ele>
        <time>2016-07-30T06:51:35.117Z</time>
      </trkpt>
      <trkpt lat="43.18152" lon="5.89996">
        <ele>638</ele>
        <time>2016-07-30T06:51:36.117Z</time>
      </trkpt>
      <trkpt lat="43.18154" lon="5.89998">
        <ele>638</ele>
        <time>2016-07-30T06:51:37.117Z</time>
      </trkpt>
      <trkpt lat="43.18156" lon="5.9">
        <ele>639</ele>
        <time>2016-07-30T06:51:38.117Z</time>
      </trkpt>
      <trkpt lat="43.18157" lon="5.90002">
        <ele>639</ele>
        <time>2016-07-30T06:51:39.117Z</time>
      </trkpt>
      <trkpt lat="43.18158" lon="5.90005">
        <ele>639</ele>
        <time>2016-07-30T06:51:40.117Z</time>
      </trkpt>
      <trkpt lat="43.1816" lon="5.90007">
        <ele>639</ele>
        <time>2016-07-30T06:51:41.117Z</time>
      </trkpt>
      <trkpt lat="43.18161" lon="5.9001">
        <ele>639</ele>
        <time>2016-07-30T06:51:42.117Z</time>
      </trkpt>
      <trkpt lat="43.18162" lon="5.90012">
        <ele>640</ele>
        <time>2016-07-30T06:51:43.117Z</time>
      </trkpt>
      <trkpt lat="43.18162" lon="5.90016">
        <ele>641</ele>
        <time>2016-07-30T06:51:44.117Z</time>
      </trkpt>
      <trkpt lat="43.18163" lon="5.90019">
        <ele>641</ele>
        <time>2016-07-30T06:51:45.117Z</time>
      </trkpt>
      <trkpt lat="43.18163" lon="5.90023">
        <ele>642</ele>
        <time>2016-07-30T06:51:46.117Z</time>
      </trkpt>
      <trkpt lat="43.18163" lon="5.90026">
        <ele>642</ele>
        <time>2016-07-30T06:51:47.117Z</time>
      </trkpt>
      <trkpt lat="43.18163" lon="5.90029">
        <ele>642</ele>
        <time>2016-07-30T06:51:48.117Z</time>
      </trkpt>
      <trkpt lat="43.18163" lon="5.90032">
        <ele>643</ele>
        <time>2016-07-30T06:51:49.117Z</time>
      </trkpt>
      <trkpt lat="43.18163" lon="5.90035">
        <ele>643</ele>
        <time>2016-07-30T06:51:50.117Z</time>
      </trkpt>
      <trkpt lat="43.18163" lon="5.90038">
        <ele>643</ele>
        <time>2016-07-30T06:51:51.117Z</time>
      </trkpt>
      <trkpt lat="43.18163" lon="5.90041">
        <ele>643</ele>
        <time>2016-07-30T06:51:52.117Z</time>
      </trkpt>
      <trkpt lat="43.18163" lon="5.90044">
        <ele>643</ele>
        <time>2016-07-30T06:51:53.117Z</time>
      </trkpt>
      <trkpt lat="43.18164" lon="5.90047">
        <ele>643</ele>
        <time>2016-07-30T06:51:54.117Z</time>
      </trkpt>
      <trkpt lat="43.18164" lon="5.9005">
        <ele>644</ele>
        <time>2016-07-30T06:51:55.117Z</time>
      </trkpt>
      <trkpt lat="43.18164" lon="5.90053">
        <ele>644</ele>
        <time>2016-07-30T06:51:56.117Z</time>
      </trkpt>
      <trkpt lat="43.18164" lon="5.90056">
        <ele>644</ele>
        <time>2016-07-30T06:51:57.117Z</time>
      </trkpt>
      <trkpt lat="43.18164" lon="5.90059">
        <ele>644</ele>
        <time>2016-07-30T06:51:58.117Z</time>
      </trkpt>
      <trkpt lat="43.18165" lon="5.90062">
        <ele>644</ele>
        <time>2016-07-30T06:51:59.117Z</time>
      </trkpt>
      <trkpt lat="43.18165" lon="5.90065">
        <ele>645</ele>
        <time>2016-07-30T06:52:00.117Z</time>
      </trkpt>
      <trkpt lat="43.18166" lon="5.90068">
        <ele>645</ele>
        <time>2016-07-30T06:52:01.117Z</time>
      </trkpt>
      <trkpt lat="43.18166" lon="5.90072">
        <ele>645</ele>
        <time>2016-07-30T06:52:02.117Z</time>
      </trkpt>
      <trkpt lat="43.18166" lon="5.90075">
        <ele>645</ele>
        <time>2016-07-30T06:52:03.117Z</time>
      </trkpt>
      <trkpt lat="43.18167" lon="5.90078">
        <ele>646</ele>
        <time>2016-07-30T06:52:04.117Z</time>
      </trkpt>
      <trkpt lat="43.18167" lon="5.90081">
        <ele>646</ele>
        <time>2016-07-30T06:52:05.117Z</time>
      </trkpt>
      <trkpt lat="43.18168" lon="5.90084">
        <ele>646</ele>
        <time>2016-07-30T06:52:06.117Z</time>
      </trkpt>
      <trkpt lat="43.18168" lon="5.90088">
        <ele>646</ele>
        <time>2016-07-30T06:52:07.117Z</time>
      </trkpt>
      <trkpt lat="43.18169" lon="5.90091">
        <ele>646</ele>
        <time>2016-07-30T06:52:08.117Z</time>
      </trkpt>
      <trkpt lat="43.18169" lon="5.90094">
        <ele>646</ele>
        <time>2016-07-30T06:52:09.117Z</time>
      </trkpt>
      <trkpt lat="43.1817" lon="5.90097">
        <ele>647</ele>
        <time>2016-07-30T06:52:10.117Z</time>
      </trkpt>
      <trkpt lat="43.18171" lon="5.901">
        <ele>647</ele>
        <time>2016-07-30T06:52:11.117Z</time>
      </trkpt>
      <trkpt lat="43.18172" lon="5.90103">
        <ele>647</ele>
        <time>2016-07-30T06:52:12.117Z</time>
      </trkpt>
      <trkpt lat="43.18173" lon="5.90106">
        <ele>647</ele>
        <time>2016-07-30T06:52:13.117Z</time>
      </trkpt>
      <trkpt lat="43.18173" lon="5.90109">
        <ele>647</ele>
        <time>2016-07-30T06:52:14.117Z</time>
      </trkpt>
      <trkpt lat="43.18174" lon="5.90112">
        <ele>648</ele>
        <time>2016-07-30T06:52:15.117Z</time>
      </trkpt>
      <trkpt lat="43.18175" lon="5.90115">
        <ele>648</ele>
        <time>2016-07-30T06:52:16.117Z</time>
      </trkpt>
      <trkpt lat="43.18176" lon="5.90117">
        <ele>648</ele>
        <time>2016-07-30T06:52:17.117Z</time>
      </trkpt>
      <trkpt lat="43.18177" lon="5.9012">
        <ele>648</ele>
        <time>2016-07-30T06:52:18.117Z</time>
      </trkpt>
      <trkpt lat="43.18178" lon="5.90123">
        <ele>648</ele>
        <time>2016-07-30T06:52:19.117Z</time>
      </trkpt>
      <trkpt lat="43.18179" lon="5.90126">
        <ele>648</ele>
        <time>2016-07-30T06:52:20.117Z</time>
      </trkpt>
      <trkpt lat="43.1818" lon="5.90128">
        <ele>648</ele>
        <time>2016-07-30T06:52:21.117Z</time>
      </trkpt>
      <trkpt lat="43.18181" lon="5.90131">
        <ele>649</ele>
        <time>2016-07-30T06:52:22.117Z</time>
      </trkpt>
      <trkpt lat="43.18182" lon="5.90133">
        <ele>649</ele>
        <time>2016-07-30T06:52:23.117Z</time>
      </trkpt>
      <trkpt lat="43.18183" lon="5.90135">
        <ele>649</ele>
        <time>2016-07-30T06:52:24.117Z</time>
      </trkpt>
      <trkpt lat="43.18185" lon="5.90138">
        <ele>650</ele>
        <time>2016-07-30T06:52:25.117Z</time>
      </trkpt>
      <trkpt lat="43.18186" lon="5.9014">
        <ele>650</ele>
        <time>2016-07-30T06:52:26.117Z</time>
      </trkpt>
      <trkpt lat="43.18187" lon="5.90143">
        <ele>650</ele>
        <time>2016-07-30T06:52:27.117Z</time>
      </trkpt>
      <trkpt lat="43.18188" lon="5.90145">
        <ele>650</ele>
        <time>2016-07-30T06:52:28.117Z</time>
      </trkpt>
      <trkpt lat="43.18189" lon="5.90148">
        <ele>650</ele>
        <time>2016-07-30T06:52:29.117Z</time>
      </trkpt>
      <trkpt lat="43.1819" lon="5.9015">
        <ele>650</ele>
        <time>2016-07-30T06:52:30.117Z</time>
      </trkpt>
      <trkpt lat="43.18192" lon="5.90153">
        <ele>651</ele>
        <time>2016-07-30T06:52:31.117Z</time>
      </trkpt>
      <trkpt lat="43.18193" lon="5.90155">
        <ele>650</ele>
        <time>2016-07-30T06:52:32.117Z</time>
      </trkpt>
      <trkpt lat="43.18194" lon="5.90157">
        <ele>650</ele>
        <time>2016-07-30T06:52:33.117Z</time>
      </trkpt>
      <trkpt lat="43.18195" lon="5.9016">
        <ele>651</ele>
        <time>2016-07-30T06:52:34.117Z</time>
      </trkpt>
      <trkpt lat="43.18196" lon="5.90162">
        <ele>651</ele>
        <time>2016-07-30T06:52:35.117Z</time>
      </trkpt>
      <trkpt lat="43.18197" lon="5.90165">
        <ele>651</ele>
        <time>2016-07-30T06:52:36.117Z</time>
      </trkpt>
      <trkpt lat="43.18199" lon="5.90167">
        <ele>651</ele>
        <time>2016-07-30T06:52:37.117Z</time>
      </trkpt>
      <trkpt lat="43.182" lon="5.9017">
        <ele>651</ele>
        <time>2016-07-30T06:52:38.117Z</time>
      </trkpt>
      <trkpt lat="43.18201" lon="5.90173">
        <ele>651</ele>
        <time>2016-07-30T06:52:39.117Z</time>
      </trkpt>
      <trkpt lat="43.18202" lon="5.90176">
        <ele>652</ele>
        <time>2016-07-30T06:52:40.117Z</time>
      </trkpt>
      <trkpt lat="43.18203" lon="5.90179">
        <ele>652</ele>
        <time>2016-07-30T06:52:41.117Z</time>
      </trkpt>
      <trkpt lat="43.18204" lon="5.90182">
        <ele>652</ele>
        <time>2016-07-30T06:52:42.117Z</time>
      </trkpt>
      <trkpt lat="43.18205" lon="5.90185">
        <ele>652</ele>
        <time>2016-07-30T06:52:43.117Z</time>
      </trkpt>
      <trkpt lat="43.18205" lon="5.90187">
        <ele>652</ele>
        <time>2016-07-30T06:52:44.117Z</time>
      </trkpt>
      <trkpt lat="43.18206" lon="5.9019">
        <ele>653</ele>
        <time>2016-07-30T06:52:45.117Z</time>
      </trkpt>
      <trkpt lat="43.18207" lon="5.90194">
        <ele>653</ele>
        <time>2016-07-30T06:52:46.117Z</time>
      </trkpt>
      <trkpt lat="43.18207" lon="5.90197">
        <ele>653</ele>
        <time>2016-07-30T06:52:47.117Z</time>
      </trkpt>
      <trkpt lat="43.18207" lon="5.902">
        <ele>653</ele>
        <time>2016-07-30T06:52:48.117Z</time>
      </trkpt>
      <trkpt lat="43.18207" lon="5.90203">
        <ele>654</ele>
        <time>2016-07-30T06:52:49.117Z</time>
      </trkpt>
      <trkpt lat="43.18208" lon="5.90207">
        <ele>654</ele>
        <time>2016-07-30T06:52:50.117Z</time>
      </trkpt>
      <trkpt lat="43.18207" lon="5.9021">
        <ele>655</ele>
        <time>2016-07-30T06:52:51.117Z</time>
      </trkpt>
      <trkpt lat="43.18207" lon="5.90213">
        <ele>655</ele>
        <time>2016-07-30T06:52:52.117Z</time>
      </trkpt>
      <trkpt lat="43.18207" lon="5.90216">
        <ele>655</ele>
        <time>2016-07-30T06:52:53.117Z</time>
      </trkpt>
      <trkpt lat="43.18207" lon="5.9022">
        <ele>655</ele>
        <time>2016-07-30T06:52:54.117Z</time>
      </trkpt>
      <trkpt lat="43.18206" lon="5.90224">
        <ele>656</ele>
        <time>2016-07-30T06:52:55.117Z</time>
      </trkpt>
      <trkpt lat="43.18206" lon="5.90227">
        <ele>656</ele>
        <time>2016-07-30T06:52:56.117Z</time>
      </trkpt>
      <trkpt lat="43.18205" lon="5.90231">
        <ele>656</ele>
        <time>2016-07-30T06:52:57.117Z</time>
      </trkpt>
      <trkpt lat="43.18205" lon="5.90234">
        <ele>656</ele>
        <time>2016-07-30T06:52:58.117Z</time>
      </trkpt>
      <trkpt lat="43.18204" lon="5.90238">
        <ele>657</ele>
        <time>2016-07-30T06:52:59.117Z</time>
      </trkpt>
      <trkpt lat="43.18204" lon="5.90242">
        <ele>657</ele>
        <time>2016-07-30T06:53:00.117Z</time>
      </trkpt>
      <trkpt lat="43.18204" lon="5.90245">
        <ele>657</ele>
        <time>2016-07-30T06:53:01.117Z</time>
      </trkpt>
      <trkpt lat="43.18203" lon="5.90249">
        <ele>658</ele>
        <time>2016-07-30T06:53:02.117Z</time>
      </trkpt>
      <trkpt lat="43.18203" lon="5.90253">
        <ele>658</ele>
        <time>2016-07-30T06:53:03.117Z</time>
      </trkpt>
      <trkpt lat="43.18203" lon="5.90257">
        <ele>658</ele>
        <time>2016-07-30T06:53:04.117Z</time>
      </trkpt>
      <trkpt lat="43.18202" lon="5.9026">
        <ele>659</ele>
        <time>2016-07-30T06:53:05.117Z</time>
      </trkpt>
      <trkpt lat="43.18202" lon="5.90264">
        <ele>659</ele>
        <time>2016-07-30T06:53:06.117Z</time>
      </trkpt>
      <trkpt lat="43.18201" lon="5.90268">
        <ele>659</ele>
        <time>2016-07-30T06:53:07.117Z</time>
      </trkpt>
      <trkpt lat="43.18201" lon="5.90272">
        <ele>660</ele>
        <time>2016-07-30T06:53:08.117Z</time>
      </trkpt>
      <trkpt lat="43.18201" lon="5.90276">
        <ele>660</ele>
        <time>2016-07-30T06:53:09.117Z</time>
      </trkpt>
      <trkpt lat="43.182" lon="5.9028">
        <ele>660</ele>
        <time>2016-07-30T06:53:10.117Z</time>
      </trkpt>
      <trkpt lat="43.182" lon="5.90284">
        <ele>660</ele>
        <time>2016-07-30T06:53:11.117Z</time>
      </trkpt>
      <trkpt lat="43.182" lon="5.90288">
        <ele>661</ele>
        <time>2016-07-30T06:53:12.117Z</time>
      </trkpt>
      <trkpt lat="43.182" lon="5.90292">
        <ele>661</ele>
        <time>2016-07-30T06:53:13.117Z</time>
      </trkpt>
      <trkpt lat="43.18201" lon="5.90296">
        <ele>661</ele>
        <time>2016-07-30T06:53:14.117Z</time>
      </trkpt>
      <trkpt lat="43.18201" lon="5.903">
        <ele>661</ele>
        <time>2016-07-30T06:53:15.117Z</time>
      </trkpt>
      <trkpt lat="43.18202" lon="5.90304">
        <ele>662</ele>
        <time>2016-07-30T06:53:16.117Z</time>
      </trkpt>
      <trkpt lat="43.18202" lon="5.90308">
        <ele>662</ele>
        <time>2016-07-30T06:53:17.117Z</time>
      </trkpt>
      <trkpt lat="43.18203" lon="5.90312">
        <ele>662</ele>
        <time>2016-07-30T06:53:18.117Z</time>
      </trkpt>
      <trkpt lat="43.18203" lon="5.90316">
        <ele>662</ele>
        <time>2016-07-30T06:53:19.117Z</time>
      </trkpt>
      <trkpt lat="43.18204" lon="5.90319">
        <ele>663</ele>
        <time>2016-07-30T06:53:20.117Z</time>
      </trkpt>
      <trkpt lat="43.18204" lon="5.90323">
        <ele>663</ele>
        <time>2016-07-30T06:53:21.117Z</time>
      </trkpt>
      <trkpt lat="43.18205" lon="5.90327">
        <ele>663</ele>
        <time>2016-07-30T06:53:22.117Z</time>
      </trkpt>
      <trkpt lat="43.18206" lon="5.9033">
        <ele>663</ele>
        <time>2016-07-30T06:53:23.117Z</time>
      </trkpt>
      <trkpt lat="43.18207" lon="5.90334">
        <ele>663</ele>
        <time>2016-07-30T06:53:24.117Z</time>
      </trkpt>
      <trkpt lat="43.18208" lon="5.90337">
        <ele>664</ele>
        <time>2016-07-30T06:53:25.117Z</time>
      </trkpt>
      <trkpt lat="43.18209" lon="5.90341">
        <ele>664</ele>
        <time>2016-07-30T06:53:26.117Z</time>
      </trkpt>
      <trkpt lat="43.1821" lon="5.90344">
        <ele>664</ele>
        <time>2016-07-30T06:53:27.117Z</time>
      </trkpt>
      <trkpt lat="43.18211" lon="5.90347">
        <ele>664</ele>
        <time>2016-07-30T06:53:28.117Z</time>
      </trkpt>
      <trkpt lat="43.18212" lon="5.9035">
        <ele>664</ele>
        <time>2016-07-30T06:53:29.117Z</time>
      </trkpt>
      <trkpt lat="43.18214" lon="5.90353">
        <ele>664</ele>
        <time>2016-07-30T06:53:30.117Z</time>
      </trkpt>
      <trkpt lat="43.18215" lon="5.90356">
        <ele>665</ele>
        <time>2016-07-30T06:53:31.117Z</time>
      </trkpt>
      <trkpt lat="43.18216" lon="5.90358">
        <ele>665</ele>
        <time>2016-07-30T06:53:32.117Z</time>
      </trkpt>
      <trkpt lat="43.18216" lon="5.90361">
        <ele>665</ele>
        <time>2016-07-30T06:53:33.117Z</time>
      </trkpt>
      <trkpt lat="43.18217" lon="5.90364">
        <ele>665</ele>
        <time>2016-07-30T06:53:34.117Z</time>
      </trkpt>
      <trkpt lat="43.18218" lon="5.90367">
        <ele>665</ele>
        <time>2016-07-30T06:53:35.117Z</time>
      </trkpt>
      <trkpt lat="43.18219" lon="5.9037">
        <ele>665</ele>
        <time>2016-07-30T06:53:36.117Z</time>
      </trkpt>
      <trkpt lat="43.1822" lon="5.90372">
        <ele>665</ele>
        <time>2016-07-30T06:53:37.117Z</time>
      </trkpt>
      <trkpt lat="43.18222" lon="5.90375">
        <ele>666</ele>
        <time>2016-07-30T06:53:38.117Z</time>
      </trkpt>
      <trkpt lat="43.18222" lon="5.90378">
        <ele>666</ele>
        <time>2016-07-30T06:53:39.117Z</time>
      </trkpt>
      <trkpt lat="43.18223" lon="5.90381">
        <ele>666</ele>
        <time>2016-07-30T06:53:40.117Z</time>
      </trkpt>
      <trkpt lat="43.18224" lon="5.90384">
        <ele>666</ele>
        <time>2016-07-30T06:53:41.117Z</time>
      </trkpt>
      <trkpt lat="43.18224" lon="5.90387">
        <ele>667</ele>
        <time>2016-07-30T06:53:42.117Z</time>
      </trkpt>
      <trkpt lat="43.18225" lon="5.9039">
        <ele>667</ele>
        <time>2016-07-30T06:53:43.117Z</time>
      </trkpt>
      <trkpt lat="43.18226" lon="5.90392">
        <ele>667</ele>
        <time>2016-07-30T06:53:44.117Z</time>
      </trkpt>
      <trkpt lat="43.18227" lon="5.90395">
        <ele>667</ele>
        <time>2016-07-30T06:53:45.117Z</time>
      </trkpt>
      <trkpt lat="43.18227" lon="5.90398">
        <ele>668</ele>
        <time>2016-07-30T06:53:46.117Z</time>
      </trkpt>
      <trkpt lat="43.18228" lon="5.904">
        <ele>668</ele>
        <time>2016-07-30T06:53:47.117Z</time>
      </trkpt>
      <trkpt lat="43.18229" lon="5.90403">
        <ele>668</ele>
        <time>2016-07-30T06:53:48.117Z</time>
      </trkpt>
      <trkpt lat="43.18229" lon="5.90406">
        <ele>668</ele>
        <time>2016-07-30T06:53:49.117Z</time>
      </trkpt>
      <trkpt lat="43.1823" lon="5.90408">
        <ele>668</ele>
        <time>2016-07-30T06:53:50.117Z</time>
      </trkpt>
      <trkpt lat="43.1823" lon="5.90411">
        <ele>668</ele>
        <time>2016-07-30T06:53:51.117Z</time>
      </trkpt>
      <trkpt lat="43.18231" lon="5.90414">
        <ele>669</ele>
        <time>2016-07-30T06:53:52.117Z</time>
      </trkpt>
      <trkpt lat="43.18232" lon="5.90416">
        <ele>669</ele>
        <time>2016-07-30T06:53:53.117Z</time>
      </trkpt>
      <trkpt lat="43.18232" lon="5.90419">
        <ele>669</ele>
        <time>2016-07-30T06:53:54.117Z</time>
      </trkpt>
      <trkpt lat="43.18233" lon="5.90421">
        <ele>669</ele>
        <time>2016-07-30T06:53:55.117Z</time>
      </trkpt>
      <trkpt lat="43.18234" lon="5.90424">
        <ele>669</ele>
        <time>2016-07-30T06:53:56.117Z</time>
      </trkpt>
      <trkpt lat="43.18235" lon="5.90426">
        <ele>669</ele>
        <time>2016-07-30T06:53:57.117Z</time>
      </trkpt>
      <trkpt lat="43.18236" lon="5.90429">
        <ele>669</ele>
        <time>2016-07-30T06:53:58.117Z</time>
      </trkpt>
      <trkpt lat="43.18237" lon="5.90432">
        <ele>669</ele>
        <time>2016-07-30T06:53:59.117Z</time>
      </trkpt>
      <trkpt lat="43.18237" lon="5.90434">
        <ele>670</ele>
        <time>2016-07-30T06:54:00.117Z</time>
      </trkpt>
      <trkpt lat="43.18238" lon="5.90437">
        <ele>670</ele>
        <time>2016-07-30T06:54:01.117Z</time>
      </trkpt>
      <trkpt lat="43.18239" lon="5.9044">
        <ele>670</ele>
        <time>2016-07-30T06:54:02.117Z</time>
      </trkpt>
      <trkpt lat="43.1824" lon="5.90443">
        <ele>670</ele>
        <time>2016-07-30T06:54:03.117Z</time>
      </trkpt>
      <trkpt lat="43.18241" lon="5.90446">
        <ele>670</ele>
        <time>2016-07-30T06:54:04.117Z</time>
      </trkpt>
      <trkpt lat="43.18242" lon="5.90449">
        <ele>671</ele>
        <time>2016-07-30T06:54:05.117Z</time>
      </trkpt>
      <trkpt lat="43.18242" lon="5.90451">
        <ele>671</ele>
        <time>2016-07-30T06:54:06.117Z</time>
      </trkpt>
      <trkpt lat="43.18243" lon="5.90454">
        <ele>671</ele>
        <time>2016-07-30T06:54:07.117Z</time>
      </trkpt>
      <trkpt lat="43.18243" lon="5.90457">
        <ele>671</ele>
        <time>2016-07-30T06:54:08.117Z</time>
      </trkpt>
      <trkpt lat="43.18244" lon="5.9046">
        <ele>671</ele>
        <time>2016-07-30T06:54:09.117Z</time>
      </trkpt>
      <trkpt lat="43.18244" lon="5.90463">
        <ele>672</ele>
        <time>2016-07-30T06:54:10.117Z</time>
      </trkpt>
      <trkpt lat="43.18245" lon="5.90466">
        <ele>672</ele>
        <time>2016-07-30T06:54:11.117Z</time>
      </trkpt>
      <trkpt lat="43.18245" lon="5.90469">
        <ele>672</ele>
        <time>2016-07-30T06:54:12.117Z</time>
      </trkpt>
      <trkpt lat="43.18246" lon="5.90472">
        <ele>673</ele>
        <time>2016-07-30T06:54:13.117Z</time>
      </trkpt>
      <trkpt lat="43.18246" lon="5.90475">
        <ele>673</ele>
        <time>2016-07-30T06:54:14.117Z</time>
      </trkpt>
      <trkpt lat="43.18246" lon="5.90479">
        <ele>673</ele>
        <time>2016-07-30T06:54:15.117Z</time>
      </trkpt>
      <trkpt lat="43.18246" lon="5.90482">
        <ele>673</ele>
        <time>2016-07-30T06:54:16.117Z</time>
      </trkpt>
      <trkpt lat="43.18247" lon="5.90485">
        <ele>673</ele>
        <time>2016-07-30T06:54:17.117Z</time>
      </trkpt>
      <trkpt lat="43.18247" lon="5.90488">
        <ele>674</ele>
        <time>2016-07-30T06:54:18.117Z</time>
      </trkpt>
      <trkpt lat="43.18247" lon="5.90491">
        <ele>674</ele>
        <time>2016-07-30T06:54:19.117Z</time>
      </trkpt>
      <trkpt lat="43.18247" lon="5.90494">
        <ele>674</ele>
        <time>2016-07-30T06:54:20.117Z</time>
      </trkpt>
      <trkpt lat="43.18248" lon="5.90497">
        <ele>674</ele>
        <time>2016-07-30T06:54:21.117Z</time>
      </trkpt>
      <trkpt lat="43.18248" lon="5.905">
        <ele>675</ele>
        <time>2016-07-30T06:54:22.117Z</time>
      </trkpt>
      <trkpt lat="43.18248" lon="5.90503">
        <ele>675</ele>
        <time>2016-07-30T06:54:23.117Z</time>
      </trkpt>
      <trkpt lat="43.18248" lon="5.90507">
        <ele>675</ele>
        <time>2016-07-30T06:54:24.117Z</time>
      </trkpt>
      <trkpt lat="43.18248" lon="5.9051">
        <ele>676</ele>
        <time>2016-07-30T06:54:25.117Z</time>
      </trkpt>
      <trkpt lat="43.18248" lon="5.90513">
        <ele>676</ele>
        <time>2016-07-30T06:54:26.117Z</time>
      </trkpt>
      <trkpt lat="43.18248" lon="5.90516">
        <ele>676</ele>
        <time>2016-07-30T06:54:27.117Z</time>
      </trkpt>
      <trkpt lat="43.18248" lon="5.90519">
        <ele>676</ele>
        <time>2016-07-30T06:54:28.117Z</time>
      </trkpt>
      <trkpt lat="43.18249" lon="5.90522">
        <ele>676</ele>
        <time>2016-07-30T06:54:29.117Z</time>
      </trkpt>
      <trkpt lat="43.18249" lon="5.90524">
        <ele>676</ele>
        <time>2016-07-30T06:54:30.117Z</time>
      </trkpt>
      <trkpt lat="43.18251" lon="5.90526">
        <ele>676</ele>
        <time>2016-07-30T06:54:31.117Z</time>
      </trkpt>
      <trkpt lat="43.18252" lon="5.90528">
        <ele>675</ele>
        <time>2016-07-30T06:54:32.117Z</time>
      </trkpt>
      <trkpt lat="43.18254" lon="5.90528">
        <ele>674</ele>
        <time>2016-07-30T06:54:33.117Z</time>
      </trkpt>
      <trkpt lat="43.18256" lon="5.90526">
        <ele>673</ele>
        <time>2016-07-30T06:54:34.117Z</time>
      </trkpt>
      <trkpt lat="43.18258" lon="5.90524">
        <ele>673</ele>
        <time>2016-07-30T06:54:35.117Z</time>
      </trkpt>
      <trkpt lat="43.18259" lon="5.90521">
        <ele>673</ele>
        <time>2016-07-30T06:54:36.117Z</time>
      </trkpt>
      <trkpt lat="43.1826" lon="5.90517">
        <ele>672</ele>
        <time>2016-07-30T06:54:37.117Z</time>
      </trkpt>
      <trkpt lat="43.1826" lon="5.90514">
        <ele>672</ele>
        <time>2016-07-30T06:54:38.117Z</time>
      </trkpt>
      <trkpt lat="43.1826" lon="5.9051">
        <ele>672</ele>
        <time>2016-07-30T06:54:39.117Z</time>
      </trkpt>
      <trkpt lat="43.1826" lon="5.90507">
        <ele>672</ele>
        <time>2016-07-30T06:54:40.117Z</time>
      </trkpt>
      <trkpt lat="43.18259" lon="5.90503">
        <ele>672</ele>
        <time>2016-07-30T06:54:41.117Z</time>
      </trkpt>
      <trkpt lat="43.18259" lon="5.90499">
        <ele>673</ele>
        <time>2016-07-30T06:54:42.117Z</time>
      </trkpt>
      <trkpt lat="43.18259" lon="5.90495">
        <ele>673</ele>
        <time>2016-07-30T06:54:43.117Z</time>
      </trkpt>
      <trkpt lat="43.18258" lon="5.90491">
        <ele>673</ele>
        <time>2016-07-30T06:54:44.117Z</time>
      </trkpt>
      <trkpt lat="43.18258" lon="5.90488">
        <ele>673</ele>
        <time>2016-07-30T06:54:45.117Z</time>
      </trkpt>
      <trkpt lat="43.18258" lon="5.90484">
        <ele>673</ele>
        <time>2016-07-30T06:54:46.117Z</time>
      </trkpt>
      <trkpt lat="43.18258" lon="5.9048">
        <ele>673</ele>
        <time>2016-07-30T06:54:47.117Z</time>
      </trkpt>
      <trkpt lat="43.18258" lon="5.90477">
        <ele>673</ele>
        <time>2016-07-30T06:54:48.117Z</time>
      </trkpt>
      <trkpt lat="43.18257" lon="5.90473">
        <ele>673</ele>
        <time>2016-07-30T06:54:49.117Z</time>
      </trkpt>
      <trkpt lat="43.18257" lon="5.9047">
        <ele>674</ele>
        <time>2016-07-30T06:54:50.117Z</time>
      </trkpt>
      <trkpt lat="43.18257" lon="5.90466">
        <ele>674</ele>
        <time>2016-07-30T06:54:51.117Z</time>
      </trkpt>
      <trkpt lat="43.18257" lon="5.90463">
        <ele>674</ele>
        <time>2016-07-30T06:54:52.117Z</time>
      </trkpt>
      <trkpt lat="43.18258" lon="5.90459">
        <ele>674</ele>
        <time>2016-07-30T06:54:53.117Z</time>
      </trkpt>
      <trkpt lat="43.18258" lon="5.90456">
        <ele>675</ele>
        <time>2016-07-30T06:54:54.117Z</time>
      </trkpt>
      <trkpt lat="43.18258" lon="5.90452">
        <ele>675</ele>
        <time>2016-07-30T06:54:55.117Z</time>
      </trkpt>
      <trkpt lat="43.18258" lon="5.90449">
        <ele>675</ele>
        <time>2016-07-30T06:54:56.117Z</time>
      </trkpt>
      <trkpt lat="43.18258" lon="5.90445">
        <ele>675</ele>
        <time>2016-07-30T06:54:57.117Z</time>
      </trkpt>
      <trkpt lat="43.18257" lon="5.90442">
        <ele>675</ele>
        <time>2016-07-30T06:54:58.117Z</time>
      </trkpt>
      <trkpt lat="43.18257" lon="5.90439">
        <ele>676</ele>
        <time>2016-07-30T06:54:59.117Z</time>
      </trkpt>
      <trkpt lat="43.18257" lon="5.90436">
        <ele>676</ele>
        <time>2016-07-30T06:55:00.117Z</time>
      </trkpt>
      <trkpt lat="43.18257" lon="5.90432">
        <ele>676</ele>
        <time>2016-07-30T06:55:01.117Z</time>
      </trkpt>
      <trkpt lat="43.18256" lon="5.90429">
        <ele>676</ele>
        <time>2016-07-30T06:55:02.117Z</time>
      </trkpt>
      <trkpt lat="43.18257" lon="5.90426">
        <ele>677</ele>
        <time>2016-07-30T06:55:03.117Z</time>
      </trkpt>
      <trkpt lat="43.18257" lon="5.90422">
        <ele>677</ele>
        <time>2016-07-30T06:55:04.117Z</time>
      </trkpt>
      <trkpt lat="43.18257" lon="5.90419">
        <ele>677</ele>
        <time>2016-07-30T06:55:05.117Z</time>
      </trkpt>
      <trkpt lat="43.18257" lon="5.90416">
        <ele>677</ele>
        <time>2016-07-30T06:55:06.117Z</time>
      </trkpt>
      <trkpt lat="43.18257" lon="5.90413">
        <ele>678</ele>
        <time>2016-07-30T06:55:07.117Z</time>
      </trkpt>
      <trkpt lat="43.18257" lon="5.9041">
        <ele>678</ele>
        <time>2016-07-30T06:55:08.117Z</time>
      </trkpt>
      <trkpt lat="43.18257" lon="5.90407">
        <ele>678</ele>
        <time>2016-07-30T06:55:09.117Z</time>
      </trkpt>
      <trkpt lat="43.18257" lon="5.90404">
        <ele>678</ele>
        <time>2016-07-30T06:55:10.117Z</time>
      </trkpt>
      <trkpt lat="43.18257" lon="5.904">
        <ele>679</ele>
        <time>2016-07-30T06:55:11.117Z</time>
      </trkpt>
      <trkpt lat="43.18257" lon="5.90397">
        <ele>679</ele>
        <time>2016-07-30T06:55:12.117Z</time>
      </trkpt>
      <trkpt lat="43.18258" lon="5.90394">
        <ele>679</ele>
        <time>2016-07-30T06:55:13.117Z</time>
      </trkpt>
      <trkpt lat="43.18258" lon="5.90391">
        <ele>680</ele>
        <time>2016-07-30T06:55:14.117Z</time>
      </trkpt>
      <trkpt lat="43.18258" lon="5.90387">
        <ele>680</ele>
        <time>2016-07-30T06:55:15.117Z</time>
      </trkpt>
      <trkpt lat="43.18258" lon="5.90384">
        <ele>680</ele>
        <time>2016-07-30T06:55:16.117Z</time>
      </trkpt>
      <trkpt lat="43.18259" lon="5.9038">
        <ele>681</ele>
        <time>2016-07-30T06:55:17.117Z</time>
      </trkpt>
      <trkpt lat="43.18259" lon="5.90377">
        <ele>681</ele>
        <time>2016-07-30T06:55:18.117Z</time>
      </trkpt>
      <trkpt lat="43.18259" lon="5.90374">
        <ele>681</ele>
        <time>2016-07-30T06:55:19.117Z</time>
      </trkpt>
      <trkpt lat="43.1826" lon="5.90371">
        <ele>682</ele>
        <time>2016-07-30T06:55:20.117Z</time>
      </trkpt>
      <trkpt lat="43.1826" lon="5.90367">
        <ele>682</ele>
        <time>2016-07-30T06:55:21.117Z</time>
      </trkpt>
      <trkpt lat="43.1826" lon="5.90364">
        <ele>682</ele>
        <time>2016-07-30T06:55:22.117Z</time>
      </trkpt>
      <trkpt lat="43.18261" lon="5.90361">
        <ele>682</ele>
        <time>2016-07-30T06:55:23.117Z</time>
      </trkpt>
      <trkpt lat="43.18261" lon="5.90358">
        <ele>683</ele>
        <time>2016-07-30T06:55:24.117Z</time>
      </trkpt>
      <trkpt lat="43.18261" lon="5.90354">
        <ele>683</ele>
        <time>2016-07-30T06:55:25.117Z</time>
      </trkpt>
      <trkpt lat="43.18262" lon="5.90351">
        <ele>683</ele>
        <time>2016-07-30T06:55:26.117Z</time>
      </trkpt>
      <trkpt lat="43.18263" lon="5.90348">
        <ele>683</ele>
        <time>2016-07-30T06:55:27.117Z</time>
      </trkpt>
      <trkpt lat="43.18263" lon="5.90345">
        <ele>683</ele>
        <time>2016-07-30T06:55:28.117Z</time>
      </trkpt>
      <trkpt lat="43.18263" lon="5.90341">
        <ele>684</ele>
        <time>2016-07-30T06:55:29.117Z</time>
      </trkpt>
      <trkpt lat="43.18264" lon="5.90338">
        <ele>684</ele>
        <time>2016-07-30T06:55:30.117Z</time>
      </trkpt>
      <trkpt lat="43.18264" lon="5.90335">
        <ele>684</ele>
        <time>2016-07-30T06:55:31.117Z</time>
      </trkpt>
      <trkpt lat="43.18264" lon="5.90332">
        <ele>685</ele>
        <time>2016-07-30T06:55:32.117Z</time>
      </trkpt>
      <trkpt lat="43.18264" lon="5.90329">
        <ele>685</ele>
        <time>2016-07-30T06:55:33.117Z</time>
      </trkpt>
      <trkpt lat="43.18265" lon="5.90326">
        <ele>685</ele>
        <time>2016-07-30T06:55:34.117Z</time>
      </trkpt>
      <trkpt lat="43.18265" lon="5.90322">
        <ele>686</ele>
        <time>2016-07-30T06:55:35.117Z</time>
      </trkpt>
      <trkpt lat="43.18265" lon="5.90319">
        <ele>686</ele>
        <time>2016-07-30T06:55:36.117Z</time>
      </trkpt>
      <trkpt lat="43.18265" lon="5.90316">
        <ele>686</ele>
        <time>2016-07-30T06:55:37.117Z</time>
      </trkpt>
      <trkpt lat="43.18265" lon="5.90313">
        <ele>687</ele>
        <time>2016-07-30T06:55:38.117Z</time>
      </trkpt>
      <trkpt lat="43.18266" lon="5.9031">
        <ele>687</ele>
        <time>2016-07-30T06:55:39.117Z</time>
      </trkpt>
      <trkpt lat="43.18266" lon="5.90307">
        <ele>688</ele>
        <time>2016-07-30T06:55:40.117Z</time>
      </trkpt>
      <trkpt lat="43.18267" lon="5.90304">
        <ele>688</ele>
        <time>2016-07-30T06:55:41.117Z</time>
      </trkpt>
      <trkpt lat="43.18267" lon="5.90301">
        <ele>688</ele>
        <time>2016-07-30T06:55:42.117Z</time>
      </trkpt>
      <trkpt lat="43.18268" lon="5.90298">
        <ele>689</ele>
        <time>2016-07-30T06:55:43.117Z</time>
      </trkpt>
      <trkpt lat="43.18269" lon="5.90295">
        <ele>689</ele>
        <time>2016-07-30T06:55:44.117Z</time>
      </trkpt>
      <trkpt lat="43.18269" lon="5.90291">
        <ele>690</ele>
        <time>2016-07-30T06:55:45.117Z</time>
      </trkpt>
      <trkpt lat="43.1827" lon="5.90288">
        <ele>690</ele>
        <time>2016-07-30T06:55:46.117Z</time>
      </trkpt>
      <trkpt lat="43.18271" lon="5.90285">
        <ele>690</ele>
        <time>2016-07-30T06:55:47.117Z</time>
      </trkpt>
      <trkpt lat="43.18272" lon="5.90282">
        <ele>690</ele>
        <time>2016-07-30T06:55:48.117Z</time>
      </trkpt>
      <trkpt lat="43.18273" lon="5.90279">
        <ele>691</ele>
        <time>2016-07-30T06:55:49.117Z</time>
      </trkpt>
      <trkpt lat="43.18274" lon="5.90276">
        <ele>691</ele>
        <time>2016-07-30T06:55:50.117Z</time>
      </trkpt>
      <trkpt lat="43.18275" lon="5.90273">
        <ele>691</ele>
        <time>2016-07-30T06:55:51.117Z</time>
      </trkpt>
      <trkpt lat="43.18276" lon="5.9027">
        <ele>691</ele>
        <time>2016-07-30T06:55:52.117Z</time>
      </trkpt>
      <trkpt lat="43.18277" lon="5.90267">
        <ele>692</ele>
        <time>2016-07-30T06:55:53.117Z</time>
      </trkpt>
      <trkpt lat="43.18277" lon="5.90264">
        <ele>692</ele>
        <time>2016-07-30T06:55:54.117Z</time>
      </trkpt>
      <trkpt lat="43.18278" lon="5.90261">
        <ele>692</ele>
        <time>2016-07-30T06:55:55.117Z</time>
      </trkpt>
      <trkpt lat="43.18279" lon="5.90258">
        <ele>692</ele>
        <time>2016-07-30T06:55:56.117Z</time>
      </trkpt>
      <trkpt lat="43.1828" lon="5.90255">
        <ele>693</ele>
        <time>2016-07-30T06:55:57.117Z</time>
      </trkpt>
      <trkpt lat="43.18281" lon="5.90252">
        <ele>693</ele>
        <time>2016-07-30T06:55:58.117Z</time>
      </trkpt>
      <trkpt lat="43.18281" lon="5.90249">
        <ele>693</ele>
        <time>2016-07-30T06:55:59.117Z</time>
      </trkpt>
      <trkpt lat="43.18282" lon="5.90246">
        <ele>693</ele>
        <time>2016-07-30T06:56:00.117Z</time>
      </trkpt>
      <trkpt lat="43.18283" lon="5.90243">
        <ele>694</ele>
        <time>2016-07-30T06:56:01.117Z</time>
      </trkpt>
      <trkpt lat="43.18284" lon="5.90239">
        <ele>694</ele>
        <time>2016-07-30T06:56:02.117Z</time>
      </trkpt>
      <trkpt lat="43.18285" lon="5.90236">
        <ele>694</ele>
        <time>2016-07-30T06:56:03.117Z</time>
      </trkpt>
      <trkpt lat="43.18286" lon="5.90233">
        <ele>694</ele>
        <time>2016-07-30T06:56:04.117Z</time>
      </trkpt>
      <trkpt lat="43.18286" lon="5.9023">
        <ele>694</ele>
        <time>2016-07-30T06:56:05.117Z</time>
      </trkpt>
      <trkpt lat="43.18287" lon="5.90227">
        <ele>695</ele>
        <time>2016-07-30T06:56:06.117Z</time>
      </trkpt>
      <trkpt lat="43.18288" lon="5.90225">
        <ele>695</ele>
        <time>2016-07-30T06:56:07.117Z</time>
      </trkpt>
      <trkpt lat="43.18289" lon="5.90222">
        <ele>695</ele>
        <time>2016-07-30T06:56:08.117Z</time>
      </trkpt>
      <trkpt lat="43.18289" lon="5.90219">
        <ele>695</ele>
        <time>2016-07-30T06:56:09.117Z</time>
      </trkpt>
      <trkpt lat="43.1829" lon="5.90216">
        <ele>696</ele>
        <time>2016-07-30T06:56:10.117Z</time>
      </trkpt>
      <trkpt lat="43.1829" lon="5.90213">
        <ele>696</ele>
        <time>2016-07-30T06:56:11.117Z</time>
      </trkpt>
      <trkpt lat="43.18291" lon="5.90211">
        <ele>696</ele>
        <time>2016-07-30T06:56:12.117Z</time>
      </trkpt>
      <trkpt lat="43.18292" lon="5.90208">
        <ele>696</ele>
        <time>2016-07-30T06:56:13.117Z</time>
      </trkpt>
      <trkpt lat="43.18293" lon="5.90205">
        <ele>696</ele>
        <time>2016-07-30T06:56:14.117Z</time>
      </trkpt>
      <trkpt lat="43.18294" lon="5.90203">
        <ele>697</ele>
        <time>2016-07-30T06:56:15.117Z</time>
      </trkpt>
      <trkpt lat="43.18294" lon="5.902">
        <ele>697</ele>
        <time>2016-07-30T06:56:16.117Z</time>
      </trkpt>
      <trkpt lat="43.18295" lon="5.90197">
        <ele>697</ele>
        <time>2016-07-30T06:56:17.117Z</time>
      </trkpt>
      <trkpt lat="43.18296" lon="5.90194">
        <ele>697</ele>
        <time>2016-07-30T06:56:18.117Z</time>
      </trkpt>
      <trkpt lat="43.18296" lon="5.90191">
        <ele>697</ele>
        <time>2016-07-30T06:56:19.117Z</time>
      </trkpt>
      <trkpt lat="43.18296" lon="5.90188">
        <ele>698</ele>
        <time>2016-07-30T06:56:20.117Z</time>
      </trkpt>
      <trkpt lat="43.18297" lon="5.90185">
        <ele>698</ele>
        <time>2016-07-30T06:56:21.117Z</time>
      </trkpt>
      <trkpt lat="43.18297" lon="5.90182">
        <ele>698</ele>
        <time>2016-07-30T06:56:22.117Z</time>
      </trkpt>
      <trkpt lat="43.18297" lon="5.90178">
        <ele>699</ele>
        <time>2016-07-30T06:56:23.117Z</time>
      </trkpt>
      <trkpt lat="43.18297" lon="5.90175">
        <ele>699</ele>
        <time>2016-07-30T06:56:24.117Z</time>
      </trkpt>
      <trkpt lat="43.18296" lon="5.90172">
        <ele>699</ele>
        <time>2016-07-30T06:56:25.117Z</time>
      </trkpt>
      <trkpt lat="43.18296" lon="5.90168">
        <ele>700</ele>
        <time>2016-07-30T06:56:26.117Z</time>
      </trkpt>
      <trkpt lat="43.18295" lon="5.90165">
        <ele>700</ele>
        <time>2016-07-30T06:56:27.117Z</time>
      </trkpt>
      <trkpt lat="43.18295" lon="5.90162">
        <ele>700</ele>
        <time>2016-07-30T06:56:28.117Z</time>
      </trkpt>
      <trkpt lat="43.18294" lon="5.90158">
        <ele>700</ele>
        <time>2016-07-30T06:56:29.117Z</time>
      </trkpt>
      <trkpt lat="43.18293" lon="5.90155">
        <ele>700</ele>
        <time>2016-07-30T06:56:30.117Z</time>
      </trkpt>
      <trkpt lat="43.18293" lon="5.90151">
        <ele>700</ele>
        <time>2016-07-30T06:56:31.117Z</time>
      </trkpt>
      <trkpt lat="43.18292" lon="5.90148">
        <ele>701</ele>
        <time>2016-07-30T06:56:32.117Z</time>
      </trkpt>
      <trkpt lat="43.18292" lon="5.90144">
        <ele>701</ele>
        <time>2016-07-30T06:56:33.117Z</time>
      </trkpt>
      <trkpt lat="43.18291" lon="5.9014">
        <ele>701</ele>
        <time>2016-07-30T06:56:34.117Z</time>
      </trkpt>
      <trkpt lat="43.1829" lon="5.90136">
        <ele>701</ele>
        <time>2016-07-30T06:56:35.117Z</time>
      </trkpt>
      <trkpt lat="43.1829" lon="5.90132">
        <ele>701</ele>
        <time>2016-07-30T06:56:36.117Z</time>
      </trkpt>
      <trkpt lat="43.18289" lon="5.90129">
        <ele>701</ele>
        <time>2016-07-30T06:56:37.117Z</time>
      </trkpt>
      <trkpt lat="43.18288" lon="5.90125">
        <ele>701</ele>
        <time>2016-07-30T06:56:38.117Z</time>
      </trkpt>
      <trkpt lat="43.18287" lon="5.90121">
        <ele>701</ele>
        <time>2016-07-30T06:56:39.117Z</time>
      </trkpt>
      <trkpt lat="43.18286" lon="5.90117">
        <ele>702</ele>
        <time>2016-07-30T06:56:40.117Z</time>
      </trkpt>
      <trkpt lat="43.18286" lon="5.90113">
        <ele>702</ele>
        <time>2016-07-30T06:56:41.117Z</time>
      </trkpt>
      <trkpt lat="43.18285" lon="5.90109">
        <ele>702</ele>
        <time>2016-07-30T06:56:42.117Z</time>
      </trkpt>
      <trkpt lat="43.18284" lon="5.90106">
        <ele>702</ele>
        <time>2016-07-30T06:56:43.117Z</time>
      </trkpt>
      <trkpt lat="43.18283" lon="5.90102">
        <ele>702</ele>
        <time>2016-07-30T06:56:44.117Z</time>
      </trkpt>
      <trkpt lat="43.18283" lon="5.90098">
        <ele>702</ele>
        <time>2016-07-30T06:56:45.117Z</time>
      </trkpt>
      <trkpt lat="43.18282" lon="5.90095">
        <ele>702</ele>
        <time>2016-07-30T06:56:46.117Z</time>
      </trkpt>
      <trkpt lat="43.18281" lon="5.90091">
        <ele>702</ele>
        <time>2016-07-30T06:56:47.117Z</time>
      </trkpt>
      <trkpt lat="43.1828" lon="5.90087">
        <ele>703</ele>
        <time>2016-07-30T06:56:48.117Z</time>
      </trkpt>
      <trkpt lat="43.1828" lon="5.90083">
        <ele>703</ele>
        <time>2016-07-30T06:56:49.117Z</time>
      </trkpt>
      <trkpt lat="43.18279" lon="5.90079">
        <ele>703</ele>
        <time>2016-07-30T06:56:50.117Z</time>
      </trkpt>
      <trkpt lat="43.18279" lon="5.90075">
        <ele>703</ele>
        <time>2016-07-30T06:56:51.117Z</time>
      </trkpt>
      <trkpt lat="43.18278" lon="5.90071">
        <ele>703</ele>
        <time>2016-07-30T06:56:52.117Z</time>
      </trkpt>
      <trkpt lat="43.18278" lon="5.90067">
        <ele>703</ele>
        <time>2016-07-30T06:56:53.117Z</time>
      </trkpt>
      <trkpt lat="43.18278" lon="5.90063">
        <ele>703</ele>
        <time>2016-07-30T06:56:54.117Z</time>
      </trkpt>
      <trkpt lat="43.18278" lon="5.90059">
        <ele>704</ele>
        <time>2016-07-30T06:56:55.117Z</time>
      </trkpt>
      <trkpt lat="43.18278" lon="5.90054">
        <ele>704</ele>
        <time>2016-07-30T06:56:56.117Z</time>
      </trkpt>
      <trkpt lat="43.18278" lon="5.9005">
        <ele>704</ele>
        <time>2016-07-30T06:56:57.117Z</time>
      </trkpt>
      <trkpt lat="43.18279" lon="5.90046">
        <ele>704</ele>
        <time>2016-07-30T06:56:58.117Z</time>
      </trkpt>
      <trkpt lat="43.18279" lon="5.90042">
        <ele>704</ele>
        <time>2016-07-30T06:56:59.117Z</time>
      </trkpt>
      <trkpt lat="43.1828" lon="5.90038">
        <ele>704</ele>
        <time>2016-07-30T06:57:00.117Z</time>
      </trkpt>
      <trkpt lat="43.18281" lon="5.90034">
        <ele>704</ele>
        <time>2016-07-30T06:57:01.117Z</time>
      </trkpt>
      <trkpt lat="43.18281" lon="5.90031">
        <ele>705</ele>
        <time>2016-07-30T06:57:02.117Z</time>
      </trkpt>
      <trkpt lat="43.18282" lon="5.90027">
        <ele>705</ele>
        <time>2016-07-30T06:57:03.117Z</time>
      </trkpt>
      <trkpt lat="43.18283" lon="5.90023">
        <ele>705</ele>
        <time>2016-07-30T06:57:04.117Z</time>
      </trkpt>
      <trkpt lat="43.18283" lon="5.90019">
        <ele>705</ele>
        <time>2016-07-30T06:57:05.117Z</time>
      </trkpt>
      <trkpt lat="43.18284" lon="5.90016">
        <ele>705</ele>
        <time>2016-07-30T06:57:06.117Z</time>
      </trkpt>
      <trkpt lat="43.18284" lon="5.90012">
        <ele>705</ele>
        <time>2016-07-30T06:57:07.117Z</time>
      </trkpt>
      <trkpt lat="43.18285" lon="5.90009">
        <ele>706</ele>
        <time>2016-07-30T06:57:08.117Z</time>
      </trkpt>
      <trkpt lat="43.18285" lon="5.90005">
        <ele>706</ele>
        <time>2016-07-30T06:57:09.117Z</time>
      </trkpt>
      <trkpt lat="43.18286" lon="5.90002">
        <ele>706</ele>
        <time>2016-07-30T06:57:10.117Z</time>
      </trkpt>
      <trkpt lat="43.18288" lon="5.90001">
        <ele>706</ele>
        <time>2016-07-30T06:57:11.117Z</time>
      </trkpt>
      <trkpt lat="43.1829" lon="5.9">
        <ele>705</ele>
        <time>2016-07-30T06:57:12.117Z</time>
      </trkpt>
      <trkpt lat="43.18293" lon="5.9">
        <ele>705</ele>
        <time>2016-07-30T06:57:13.117Z</time>
      </trkpt>
      <trkpt lat="43.18295" lon="5.90001">
        <ele>705</ele>
        <time>2016-07-30T06:57:14.117Z</time>
      </trkpt>
      <trkpt lat="43.18296" lon="5.90004">
        <ele>705</ele>
        <time>2016-07-30T06:57:15.117Z</time>
      </trkpt>
      <trkpt lat="43.18297" lon="5.90007">
        <ele>705</ele>
        <time>2016-07-30T06:57:16.117Z</time>
      </trkpt>
      <trkpt lat="43.18297" lon="5.90011">
        <ele>705</ele>
        <time>2016-07-30T06:57:17.117Z</time>
      </trkpt>
      <trkpt lat="43.18297" lon="5.90014">
        <ele>706</ele>
        <time>2016-07-30T06:57:18.117Z</time>
      </trkpt>
      <trkpt lat="43.18297" lon="5.90018">
        <ele>706</ele>
        <time>2016-07-30T06:57:19.117Z</time>
      </trkpt>
      <trkpt lat="43.18297" lon="5.90022">
        <ele>706</ele>
        <time>2016-07-30T06:57:20.117Z</time>
      </trkpt>
      <trkpt lat="43.18297" lon="5.90025">
        <ele>707</ele>
        <time>2016-07-30T06:57:21.117Z</time>
      </trkpt>
      <trkpt lat="43.18297" lon="5.90028">
        <ele>707</ele>
        <time>2016-07-30T06:57:22.117Z</time>
      </trkpt>
      <trkpt lat="43.18297" lon="5.9003">
        <ele>707</ele>
        <time>2016-07-30T06:57:23.117Z</time>
      </trkpt>
      <trkpt lat="43.18297" lon="5.90033">
        <ele>708</ele>
        <time>2016-07-30T06:57:24.117Z</time>
      </trkpt>
      <trkpt lat="43.18297" lon="5.90035">
        <ele>708</ele>
        <time>2016-07-30T06:57:25.117Z</time>
      </trkpt>
      <trkpt lat="43.18298" lon="5.90038">
        <ele>708</ele>
        <time>2016-07-30T06:57:26.117Z</time>
      </trkpt>
      <trkpt lat="43.18299" lon="5.90041">
        <ele>709</ele>
        <time>2016-07-30T06:57:27.117Z</time>
      </trkpt>
      <trkpt lat="43.18299" lon="5.90044">
        <ele>709</ele>
        <time>2016-07-30T06:57:28.117Z</time>
      </trkpt>
      <trkpt lat="43.183" lon="5.90047">
        <ele>709</ele>
        <time>2016-07-30T06:57:29.117Z</time>
      </trkpt>
      <trkpt lat="43.18301" lon="5.9005">
        <ele>709</ele>
        <time>2016-07-30T06:57:30.117Z</time>
      </trkpt>
      <trkpt lat="43.18302" lon="5.90053">
        <ele>709</ele>
        <time>2016-07-30T06:57:31.117Z</time>
      </trkpt>
      <trkpt lat="43.18304" lon="5.90056">
        <ele>710</ele>
        <time>2016-07-30T06:57:32.117Z</time>
      </trkpt>
      <trkpt lat="43.18305" lon="5.90059">
        <ele>710</ele>
        <time>2016-07-30T06:57:33.117Z</time>
      </trkpt>
      <trkpt lat="43.18306" lon="5.90063">
        <ele>710</ele>
        <time>2016-07-30T06:57:34.117Z</time>
      </trkpt>
      <trkpt lat="43.18307" lon="5.90066">
        <ele>711</ele>
        <time>2016-07-30T06:57:35.117Z</time>
      </trkpt>
      <trkpt lat="43.18308" lon="5.90069">
        <ele>711</ele>
        <time>2016-07-30T06:57:36.117Z</time>
      </trkpt>
      <trkpt lat="43.1831" lon="5.90072">
        <ele>711</ele>
        <time>2016-07-30T06:57:37.117Z</time>
      </trkpt>
      <trkpt lat="43.18311" lon="5.90075">
        <ele>711</ele>
        <time>2016-07-30T06:57:38.117Z</time>
      </trkpt>
      <trkpt lat="43.18312" lon="5.90077">
        <ele>711</ele>
        <time>2016-07-30T06:57:39.117Z</time>
      </trkpt>
      <trkpt lat="43.18313" lon="5.9008">
        <ele>712</ele>
        <time>2016-07-30T06:57:40.117Z</time>
      </trkpt>
      <trkpt lat="43.18314" lon="5.90083">
        <ele>712</ele>
        <time>2016-07-30T06:57:41.117Z</time>
      </trkpt>
      <trkpt lat="43.18316" lon="5.90086">
        <ele>712</ele>
        <time>2016-07-30T06:57:42.117Z</time>
      </trkpt>
      <trkpt lat="43.18317" lon="5.90089">
        <ele>712</ele>
        <time>2016-07-30T06:57:43.117Z</time>
      </trkpt>
      <trkpt lat="43.18318" lon="5.90092">
        <ele>713</ele>
        <time>2016-07-30T06:57:44.117Z</time>
      </trkpt>
      <trkpt lat="43.18319" lon="5.90095">
        <ele>713</ele>
        <time>2016-07-30T06:57:45.117Z</time>
      </trkpt>
      <trkpt lat="43.1832" lon="5.90098">
        <ele>713</ele>
        <time>2016-07-30T06:57:46.117Z</time>
      </trkpt>
      <trkpt lat="43.18321" lon="5.90101">
        <ele>713</ele>
        <time>2016-07-30T06:57:47.117Z</time>
      </trkpt>
      <trkpt lat="43.18322" lon="5.90104">
        <ele>713</ele>
        <time>2016-07-30T06:57:48.117Z</time>
      </trkpt>
      <trkpt lat="43.18323" lon="5.90107">
        <ele>714</ele>
        <time>2016-07-30T06:57:49.117Z</time>
      </trkpt>
      <trkpt lat="43.18324" lon="5.9011">
        <ele>714</ele>
        <time>2016-07-30T06:57:50.117Z</time>
      </trkpt>
      <trkpt lat="43.18324" lon="5.90113">
        <ele>714</ele>
        <time>2016-07-30T06:57:51.117Z</time>
      </trkpt>
      <trkpt lat="43.18325" lon="5.90116">
        <ele>714</ele>
        <time>2016-07-30T06:57:52.117Z</time>
      </trkpt>
      <trkpt lat="43.18326" lon="5.9012">
        <ele>715</ele>
        <time>2016-07-30T06:57:53.117Z</time>
      </trkpt>
      <trkpt lat="43.18327" lon="5.90123">
        <ele>715</ele>
        <time>2016-07-30T06:57:54.117Z</time>
      </trkpt>
      <trkpt lat="43.18328" lon="5.90126">
        <ele>715</ele>
        <time>2016-07-30T06:57:55.117Z</time>
      </trkpt>
      <trkpt lat="43.18328" lon="5.9013">
        <ele>716</ele>
        <time>2016-07-30T06:57:56.117Z</time>
      </trkpt>
      <trkpt lat="43.18329" lon="5.90133">
        <ele>716</ele>
        <time>2016-07-30T06:57:57.117Z</time>
      </trkpt>
      <trkpt lat="43.1833" lon="5.90136">
        <ele>716</ele>
        <time>2016-07-30T06:57:58.117Z</time>
      </trkpt>
      <trkpt lat="43.1833" lon="5.9014">
        <ele>716</ele>
        <time>2016-07-30T06:57:59.117Z</time>
      </trkpt>
      <trkpt lat="43.18331" lon="5.90143">
        <ele>717</ele>
        <time>2016-07-30T06:58:00.117Z</time>
      </trkpt>
      <trkpt lat="43.18332" lon="5.90146">
        <ele>717</ele>
        <time>2016-07-30T06:58:01.117Z</time>
      </trkpt>
      <trkpt lat="43.18333" lon="5.9015">
        <ele>717</ele>
        <time>2016-07-30T06:58:02.117Z</time>
      </trkpt>
      <trkpt lat="43.18333" lon="5.90153">
        <ele>717</ele>
        <time>2016-07-30T06:58:03.117Z</time>
      </trkpt>
      <trkpt lat="43.18334" lon="5.90156">
        <ele>718</ele>
        <time>2016-07-30T06:58:04.117Z</time>
      </trkpt>
      <trkpt lat="43.18335" lon="5.90159">
        <ele>718</ele>
        <time>2016-07-30T06:58:05.117Z</time>
      </trkpt>
      <trkpt lat="43.18336" lon="5.90162">
        <ele>718</ele>
        <time>2016-07-30T06:58:06.117Z</time>
      </trkpt>
      <trkpt lat="43.18337" lon="5.90165">
        <ele>719</ele>
        <time>2016-07-30T06:58:07.117Z</time>
      </trkpt>
      <trkpt lat="43.18338" lon="5.90168">
        <ele>719</ele>
        <time>2016-07-30T06:58:08.117Z</time>
      </trkpt>
      <trkpt lat="43.18339" lon="5.90171">
        <ele>719</ele>
        <time>2016-07-30T06:58:09.117Z</time>
      </trkpt>
      <trkpt lat="43.1834" lon="5.90174">
        <ele>720</ele>
        <time>2016-07-30T06:58:10.117Z</time>
      </trkpt>
      <trkpt lat="43.18341" lon="5.90177">
        <ele>720</ele>
        <time>2016-07-30T06:58:11.117Z</time>
      </trkpt>
      <trkpt lat="43.18341" lon="5.9018">
        <ele>720</ele>
        <time>2016-07-30T06:58:12.117Z</time>
      </trkpt>
      <trkpt lat="43.18342" lon="5.90183">
        <ele>720</ele>
        <time>2016-07-30T06:58:13.117Z</time>
      </trkpt>
      <trkpt lat="43.18343" lon="5.90186">
        <ele>720</ele>
        <time>2016-07-30T06:58:14.117Z</time>
      </trkpt>
      <trkpt lat="43.18343" lon="5.90189">
        <ele>720</ele>
        <time>2016-07-30T06:58:15.117Z</time>
      </trkpt>
      <trkpt lat="43.18344" lon="5.90192">
        <ele>720</ele>
        <time>2016-07-30T06:58:16.117Z</time>
      </trkpt>
      <trkpt lat="43.18344" lon="5.90195">
        <ele>721</ele>
        <time>2016-07-30T06:58:17.117Z</time>
      </trkpt>
      <trkpt lat="43.18344" lon="5.90198">
        <ele>721</ele>
        <time>2016-07-30T06:58:18.117Z</time>
      </trkpt>
      <trkpt lat="43.18344" lon="5.90201">
        <ele>721</ele>
        <time>2016-07-30T06:58:19.117Z</time>
      </trkpt>
      <trkpt lat="43.18344" lon="5.90204">
        <ele>721</ele>
        <time>2016-07-30T06:58:20.117Z</time>
      </trkpt>
      <trkpt lat="43.18344" lon="5.90208">
        <ele>721</ele>
        <time>2016-07-30T06:58:21.117Z</time>
      </trkpt>
      <trkpt lat="43.18343" lon="5.90211">
        <ele>721</ele>
        <time>2016-07-30T06:58:22.117Z</time>
      </trkpt>
      <trkpt lat="43.18343" lon="5.90215">
        <ele>721</ele>
        <time>2016-07-30T06:58:23.117Z</time>
      </trkpt>
      <trkpt lat="43.18342" lon="5.90218">
        <ele>721</ele>
        <time>2016-07-30T06:58:24.117Z</time>
      </trkpt>
      <trkpt lat="43.18341" lon="5.90222">
        <ele>721</ele>
        <time>2016-07-30T06:58:25.117Z</time>
      </trkpt>
      <trkpt lat="43.18341" lon="5.90225">
        <ele>721</ele>
        <time>2016-07-30T06:58:26.117Z</time>
      </trkpt>
      <trkpt lat="43.1834" lon="5.90228">
        <ele>721</ele>
        <time>2016-07-30T06:58:27.117Z</time>
      </trkpt>
      <trkpt lat="43.1834" lon="5.90232">
        <ele>722</ele>
        <time>2016-07-30T06:58:28.117Z</time>
      </trkpt>
      <trkpt lat="43.18339" lon="5.90235">
        <ele>722</ele>
        <time>2016-07-30T06:58:29.117Z</time>
      </trkpt>
      <trkpt lat="43.18339" lon="5.90238">
        <ele>722</ele>
        <time>2016-07-30T06:58:30.117Z</time>
      </trkpt>
      <trkpt lat="43.18338" lon="5.90241">
        <ele>723</ele>
        <time>2016-07-30T06:58:31.117Z</time>
      </trkpt>
      <trkpt lat="43.18338" lon="5.90245">
        <ele>723</ele>
        <time>2016-07-30T06:58:32.117Z</time>
      </trkpt>
      <trkpt lat="43.18337" lon="5.90248">
        <ele>723</ele>
        <time>2016-07-30T06:58:33.117Z</time>
      </trkpt>
      <trkpt lat="43.18337" lon="5.90252">
        <ele>723</ele>
        <time>2016-07-30T06:58:34.117Z</time>
      </trkpt>
      <trkpt lat="43.18336" lon="5.90255">
        <ele>724</ele>
        <time>2016-07-30T06:58:35.117Z</time>
      </trkpt>
      <trkpt lat="43.18335" lon="5.90259">
        <ele>724</ele>
        <time>2016-07-30T06:58:36.117Z</time>
      </trkpt>
      <trkpt lat="43.18335" lon="5.90263">
        <ele>725</ele>
        <time>2016-07-30T06:58:37.117Z</time>
      </trkpt>
      <trkpt lat="43.18334" lon="5.90266">
        <ele>725</ele>
        <time>2016-07-30T06:58:38.117Z</time>
      </trkpt>
      <trkpt lat="43.18333" lon="5.9027">
        <ele>725</ele>
        <time>2016-07-30T06:58:39.117Z</time>
      </trkpt>
      <trkpt lat="43.18333" lon="5.90274">
        <ele>726</ele>
        <time>2016-07-30T06:58:40.117Z</time>
      </trkpt>
      <trkpt lat="43.18332" lon="5.90278">
        <ele>726</ele>
        <time>2016-07-30T06:58:41.117Z</time>
      </trkpt>
      <trkpt lat="43.18332" lon="5.90281">
        <ele>726</ele>
        <time>2016-07-30T06:58:42.117Z</time>
      </trkpt>
      <trkpt lat="43.18332" lon="5.90285">
        <ele>726</ele>
        <time>2016-07-30T06:58:43.117Z</time>
      </trkpt>
      <trkpt lat="43.18332" lon="5.90289">
        <ele>727</ele>
        <time>2016-07-30T06:58:44.117Z</time>
      </trkpt>
      <trkpt lat="43.18331" lon="5.90293">
        <ele>727</ele>
        <time>2016-07-30T06:58:45.117Z</time>
      </trkpt>
      <trkpt lat="43.18331" lon="5.90297">
        <ele>727</ele>
        <time>2016-07-30T06:58:46.117Z</time>
      </trkpt>
      <trkpt lat="43.18332" lon="5.903">
        <ele>727</ele>
        <time>2016-07-30T06:58:47.117Z</time>
      </trkpt>
      <trkpt lat="43.18332" lon="5.90304">
        <ele>728</ele>
        <time>2016-07-30T06:58:48.117Z</time>
      </trkpt>
      <trkpt lat="43.18332" lon="5.90308">
        <ele>728</ele>
        <time>2016-07-30T06:58:49.117Z</time>
      </trkpt>
      <trkpt lat="43.18332" lon="5.90312">
        <ele>728</ele>
        <time>2016-07-30T06:58:50.117Z</time>
      </trkpt>
      <trkpt lat="43.18332" lon="5.90316">
        <ele>729</ele>
        <time>2016-07-30T06:58:51.117Z</time>
      </trkpt>
      <trkpt lat="43.18333" lon="5.9032">
        <ele>729</ele>
        <time>2016-07-30T06:58:52.117Z</time>
      </trkpt>
      <trkpt lat="43.18333" lon="5.90324">
        <ele>730</ele>
        <time>2016-07-30T06:58:53.117Z</time>
      </trkpt>
      <trkpt lat="43.18333" lon="5.90328">
        <ele>730</ele>
        <time>2016-07-30T06:58:54.117Z</time>
      </trkpt>
      <trkpt lat="43.18333" lon="5.90332">
        <ele>730</ele>
        <time>2016-07-30T06:58:55.117Z</time>
      </trkpt>
      <trkpt lat="43.18334" lon="5.90335">
        <ele>731</ele>
        <time>2016-07-30T06:58:56.117Z</time>
      </trkpt>
      <trkpt lat="43.18334" lon="5.90339">
        <ele>731</ele>
        <time>2016-07-30T06:58:57.117Z</time>
      </trkpt>
      <trkpt lat="43.18334" lon="5.90342">
        <ele>731</ele>
        <time>2016-07-30T06:58:58.117Z</time>
      </trkpt>
      <trkpt lat="43.18334" lon="5.90345">
        <ele>731</ele>
        <time>2016-07-30T06:58:59.117Z</time>
      </trkpt>
      <trkpt lat="43.18335" lon="5.90349">
        <ele>732</ele>
        <time>2016-07-30T06:59:00.117Z</time>
      </trkpt>
      <trkpt lat="43.18335" lon="5.90352">
        <ele>732</ele>
        <time>2016-07-30T06:59:01.117Z</time>
      </trkpt>
      <trkpt lat="43.18335" lon="5.90356">
        <ele>732</ele>
        <time>2016-07-30T06:59:02.117Z</time>
      </trkpt>
      <trkpt lat="43.18336" lon="5.90359">
        <ele>732</ele>
        <time>2016-07-30T06:59:03.117Z</time>
      </trkpt>
      <trkpt lat="43.18336" lon="5.90363">
        <ele>732</ele>
        <time>2016-07-30T06:59:04.117Z</time>
      </trkpt>
      <trkpt lat="43.18336" lon="5.90366">
        <ele>732</ele>
        <time>2016-07-30T06:59:05.117Z</time>
      </trkpt>
      <trkpt lat="43.18336" lon="5.9037">
        <ele>733</ele>
        <time>2016-07-30T06:59:06.117Z</time>
      </trkpt>
      <trkpt lat="43.18336" lon="5.90374">
        <ele>733</ele>
        <time>2016-07-30T06:59:07.117Z</time>
      </trkpt>
      <trkpt lat="43.18337" lon="5.90377">
        <ele>733</ele>
        <time>2016-07-30T06:59:08.117Z</time>
      </trkpt>
      <trkpt lat="43.18337" lon="5.90381">
        <ele>733</ele>
        <time>2016-07-30T06:59:09.117Z</time>
      </trkpt>
      <trkpt lat="43.18337" lon="5.90384">
        <ele>734</ele>
        <time>2016-07-30T06:59:10.117Z</time>
      </trkpt>
      <trkpt lat="43.18337" lon="5.90388">
        <ele>734</ele>
        <time>2016-07-30T06:59:11.117Z</time>
      </trkpt>
      <trkpt lat="43.18338" lon="5.90391">
        <ele>734</ele>
        <time>2016-07-30T06:59:12.117Z</time>
      </trkpt>
      <trkpt lat="43.18338" lon="5.90394">
        <ele>734</ele>
        <time>2016-07-30T06:59:13.117Z</time>
      </trkpt>
      <trkpt lat="43.18339" lon="5.90398">
        <ele>734</ele>
        <time>2016-07-30T06:59:14.117Z</time>
      </trkpt>
      <trkpt lat="43.18339" lon="5.90401">
        <ele>735</ele>
        <time>2016-07-30T06:59:15.117Z</time>
      </trkpt>
      <trkpt lat="43.1834" lon="5.90405">
        <ele>735</ele>
        <time>2016-07-30T06:59:16.117Z</time>
      </trkpt>
      <trkpt lat="43.1834" lon="5.90408">
        <ele>735</ele>
        <time>2016-07-30T06:59:17.117Z</time>
      </trkpt>
      <trkpt lat="43.18341" lon="5.90411">
        <ele>735</ele>
        <time>2016-07-30T06:59:18.117Z</time>
      </trkpt>
      <trkpt lat="43.18341" lon="5.90415">
        <ele>735</ele>
        <time>2016-07-30T06:59:19.117Z</time>
      </trkpt>
      <trkpt lat="43.18342" lon="5.90418">
        <ele>735</ele>
        <time>2016-07-30T06:59:20.117Z</time>
      </trkpt>
      <trkpt lat="43.18342" lon="5.90421">
        <ele>735</ele>
        <time>2016-07-30T06:59:21.117Z</time>
      </trkpt>
      <trkpt lat="43.18343" lon="5.90425">
        <ele>736</ele>
        <time>2016-07-30T06:59:22.117Z</time>
      </trkpt>
      <trkpt lat="43.18344" lon="5.90428">
        <ele>736</ele>
        <time>2016-07-30T06:59:23.117Z</time>
      </trkpt>
      <trkpt lat="43.18344" lon="5.90431">
        <ele>736</ele>
        <time>2016-07-30T06:59:24.117Z</time>
      </trkpt>
      <trkpt lat="43.18345" lon="5.90434">
        <ele>736</ele>
        <time>2016-07-30T06:59:25.117Z</time>
      </trkpt>
      <trkpt lat="43.18345" lon="5.90437">
        <ele>737</ele>
        <time>2016-07-30T06:59:26.117Z</time>
      </trkpt>
      <trkpt lat="43.18346" lon="5.9044">
        <ele>737</ele>
        <time>2016-07-30T06:59:27.117Z</time>
      </trkpt>
      <trkpt lat="43.18347" lon="5.90443">
        <ele>737</ele>
        <time>2016-07-30T06:59:28.117Z</time>
      </trkpt>
      <trkpt lat="43.18347" lon="5.90446">
        <ele>737</ele>
        <time>2016-07-30T06:59:29.117Z</time>
      </trkpt>
      <trkpt lat="43.18348" lon="5.90449">
        <ele>738</ele>
        <time>2016-07-30T06:59:30.117Z</time>
      </trkpt>
      <trkpt lat="43.18349" lon="5.90452">
        <ele>738</ele>
        <time>2016-07-30T06:59:31.117Z</time>
      </trkpt>
      <trkpt lat="43.1835" lon="5.90455">
        <ele>738</ele>
        <time>2016-07-30T06:59:32.117Z</time>
      </trkpt>
      <trkpt lat="43.1835" lon="5.90458">
        <ele>738</ele>
        <time>2016-07-30T06:59:33.117Z</time>
      </trkpt>
      <trkpt lat="43.18351" lon="5.90461">
        <ele>738</ele>
        <time>2016-07-30T06:59:34.117Z</time>
      </trkpt>
      <trkpt lat="43.18352" lon="5.90464">
        <ele>739</ele>
        <time>2016-07-30T06:59:35.117Z</time>
      </trkpt>
      <trkpt lat="43.18353" lon="5.90467">
        <ele>739</ele>
        <time>2016-07-30T06:59:36.117Z</time>
      </trkpt>
      <trkpt lat="43.18353" lon="5.90471">
        <ele>739</ele>
        <time>2016-07-30T06:59:37.117Z</time>
      </trkpt>
      <trkpt lat="43.18354" lon="5.90474">
        <ele>739</ele>
        <time>2016-07-30T06:59:38.117Z</time>
      </trkpt>
      <trkpt lat="43.18354" lon="5.90478">
        <ele>739</ele>
        <time>2016-07-30T06:59:39.117Z</time>
      </trkpt>
      <trkpt lat="43.18355" lon="5.90481">
        <ele>739</ele>
        <time>2016-07-30T06:59:40.117Z</time>
      </trkpt>
      <trkpt lat="43.18355" lon="5.90485">
        <ele>739</ele>
        <time>2016-07-30T06:59:41.117Z</time>
      </trkpt>
      <trkpt lat="43.18355" lon="5.90488">
        <ele>739</ele>
        <time>2016-07-30T06:59:42.117Z</time>
      </trkpt>
      <trkpt lat="43.18356" lon="5.90492">
        <ele>740</ele>
        <time>2016-07-30T06:59:43.117Z</time>
      </trkpt>
      <trkpt lat="43.18356" lon="5.90496">
        <ele>740</ele>
        <time>2016-07-30T06:59:44.117Z</time>
      </trkpt>
      <trkpt lat="43.18357" lon="5.90499">
        <ele>740</ele>
        <time>2016-07-30T06:59:45.117Z</time>
      </trkpt>
      <trkpt lat="43.18357" lon="5.90502">
        <ele>740</ele>
        <time>2016-07-30T06:59:46.117Z</time>
      </trkpt>
      <trkpt lat="43.18358" lon="5.90505">
        <ele>741</ele>
        <time>2016-07-30T06:59:47.117Z</time>
      </trkpt>
      <trkpt lat="43.18358" lon="5.90509">
        <ele>741</ele>
        <time>2016-07-30T06:59:48.117Z</time>
      </trkpt>
      <trkpt lat="43.18359" lon="5.90512">
        <ele>741</ele>
        <time>2016-07-30T06:59:49.117Z</time>
      </trkpt>
      <trkpt lat="43.18359" lon="5.90515">
        <ele>741</ele>
        <time>2016-07-30T06:59:50.117Z</time>
      </trkpt>
      <trkpt lat="43.18359" lon="5.90519">
        <ele>741</ele>
        <time>2016-07-30T06:59:51.117Z</time>
      </trkpt>
      <trkpt lat="43.1836" lon="5.90522">
        <ele>742</ele>
        <time>2016-07-30T06:59:52.117Z</time>
      </trkpt>
      <trkpt lat="43.1836" lon="5.90525">
        <ele>742</ele>
        <time>2016-07-30T06:59:53.117Z</time>
      </trkpt>
      <trkpt lat="43.18361" lon="5.90528">
        <ele>742</ele>
        <time>2016-07-30T06:59:54.117Z</time>
      </trkpt>
      <trkpt lat="43.18361" lon="5.90531">
        <ele>743</ele>
        <time>2016-07-30T06:59:55.117Z</time>
      </trkpt>
      <trkpt lat="43.18362" lon="5.90534">
        <ele>743</ele>
        <time>2016-07-30T06:59:56.117Z</time>
      </trkpt>
      <trkpt lat="43.18362" lon="5.90537">
        <ele>743</ele>
        <time>2016-07-30T06:59:57.117Z</time>
      </trkpt>
      <trkpt lat="43.18363" lon="5.90539">
        <ele>743</ele>
        <time>2016-07-30T06:59:58.117Z</time>
      </trkpt>
      <trkpt lat="43.18363" lon="5.90542">
        <ele>744</ele>
        <time>2016-07-30T06:59:59.117Z</time>
      </trkpt>
      <trkpt lat="43.18364" lon="5.90545">
        <ele>744</ele>
        <time>2016-07-30T07:00:00.117Z</time>
      </trkpt>
      <trkpt lat="43.18364" lon="5.90548">
        <ele>744</ele>
        <time>2016-07-30T07:00:01.117Z</time>
      </trkpt>
      <trkpt lat="43.18365" lon="5.90551">
        <ele>744</ele>
        <time>2016-07-30T07:00:02.117Z</time>
      </trkpt>
      <trkpt lat="43.18366" lon="5.90553">
        <ele>744</ele>
        <time>2016-07-30T07:00:03.117Z</time>
      </trkpt>
      <trkpt lat="43.18366" lon="5.90556">
        <ele>744</ele>
        <time>2016-07-30T07:00:04.117Z</time>
      </trkpt>
      <trkpt lat="43.18367" lon="5.90559">
        <ele>744</ele>
        <time>2016-07-30T07:00:05.117Z</time>
      </trkpt>
      <trkpt lat="43.18367" lon="5.90561">
        <ele>744</ele>
        <time>2016-07-30T07:00:06.117Z</time>
      </trkpt>
      <trkpt lat="43.18368" lon="5.90564">
        <ele>744</ele>
        <time>2016-07-30T07:00:07.117Z</time>
      </trkpt>
      <trkpt lat="43.18369" lon="5.90567">
        <ele>745</ele>
        <time>2016-07-30T07:00:08.117Z</time>
      </trkpt>
      <trkpt lat="43.18369" lon="5.90569">
        <ele>745</ele>
        <time>2016-07-30T07:00:09.117Z</time>
      </trkpt>
      <trkpt lat="43.1837" lon="5.90572">
        <ele>745</ele>
        <time>2016-07-30T07:00:10.117Z</time>
      </trkpt>
      <trkpt lat="43.1837" lon="5.90574">
        <ele>745</ele>
        <time>2016-07-30T07:00:11.117Z</time>
      </trkpt>
      <trkpt lat="43.18371" lon="5.90577">
        <ele>745</ele>
        <time>2016-07-30T07:00:12.117Z</time>
      </trkpt>
      <trkpt lat="43.18371" lon="5.90579">
        <ele>745</ele>
        <time>2016-07-30T07:00:13.117Z</time>
      </trkpt>
      <trkpt lat="43.18372" lon="5.90582">
        <ele>745</ele>
        <time>2016-07-30T07:00:14.117Z</time>
      </trkpt>
      <trkpt lat="43.18372" lon="5.90585">
        <ele>745</ele>
        <time>2016-07-30T07:00:15.117Z</time>
      </trkpt>
      <trkpt lat="43.18373" lon="5.90588">
        <ele>746</ele>
        <time>2016-07-30T07:00:16.117Z</time>
      </trkpt>
      <trkpt lat="43.18374" lon="5.9059">
        <ele>746</ele>
        <time>2016-07-30T07:00:17.117Z</time>
      </trkpt>
      <trkpt lat="43.18374" lon="5.90593">
        <ele>746</ele>
        <time>2016-07-30T07:00:18.117Z</time>
      </trkpt>
      <trkpt lat="43.18375" lon="5.90596">
        <ele>746</ele>
        <time>2016-07-30T07:00:19.117Z</time>
      </trkpt>
      <trkpt lat="43.18376" lon="5.90598">
        <ele>747</ele>
        <time>2016-07-30T07:00:20.117Z</time>
      </trkpt>
      <trkpt lat="43.18376" lon="5.90601">
        <ele>747</ele>
        <time>2016-07-30T07:00:21.117Z</time>
      </trkpt>
      <trkpt lat="43.18377" lon="5.90604">
        <ele>747</ele>
        <time>2016-07-30T07:00:22.117Z</time>
      </trkpt>
      <trkpt lat="43.18377" lon="5.90607">
        <ele>747</ele>
        <time>2016-07-30T07:00:23.117Z</time>
      </trkpt>
      <trkpt lat="43.18378" lon="5.90609">
        <ele>747</ele>
        <time>2016-07-30T07:00:24.117Z</time>
      </trkpt>
      <trkpt lat="43.18379" lon="5.90612">
        <ele>747</ele>
        <time>2016-07-30T07:00:25.117Z</time>
      </trkpt>
      <trkpt lat="43.1838" lon="5.90615">
        <ele>747</ele>
        <time>2016-07-30T07:00:26.117Z</time>
      </trkpt>
      <trkpt lat="43.1838" lon="5.90618">
        <ele>747</ele>
        <time>2016-07-30T07:00:27.117Z</time>
      </trkpt>
      <trkpt lat="43.18381" lon="5.9062">
        <ele>748</ele>
        <time>2016-07-30T07:00:28.117Z</time>
      </trkpt>
      <trkpt lat="43.18382" lon="5.90623">
        <ele>748</ele>
        <time>2016-07-30T07:00:29.117Z</time>
      </trkpt>
      <trkpt lat="43.18382" lon="5.90626">
        <ele>748</ele>
        <time>2016-07-30T07:00:30.117Z</time>
      </trkpt>
      <trkpt lat="43.18383" lon="5.90628">
        <ele>748</ele>
        <time>2016-07-30T07:00:31.117Z</time>
      </trkpt>
      <trkpt lat="43.18384" lon="5.90631">
        <ele>749</ele>
        <time>2016-07-30T07:00:32.117Z</time>
      </trkpt>
      <trkpt lat="43.18385" lon="5.90634">
        <ele>749</ele>
        <time>2016-07-30T07:00:33.117Z</time>
      </trkpt>
      <trkpt lat="43.18385" lon="5.90636">
        <ele>749</ele>
        <time>2016-07-30T07:00:34.117Z</time>
      </trkpt>
      <trkpt lat="43.18386" lon="5.90639">
        <ele>749</ele>
        <time>2016-07-30T07:00:35.117Z</time>
      </trkpt>
      <trkpt lat="43.18387" lon="5.90642">
        <ele>749</ele>
        <time>2016-07-30T07:00:36.117Z</time>
      </trkpt>
      <trkpt lat="43.18387" lon="5.90644">
        <ele>750</ele>
        <time>2016-07-30T07:00:37.117Z</time>
      </trkpt>
      <trkpt lat="43.18388" lon="5.90647">
        <ele>750</ele>
        <time>2016-07-30T07:00:38.117Z</time>
      </trkpt>
      <trkpt lat="43.18389" lon="5.90649">
        <ele>751</ele>
        <time>2016-07-30T07:00:39.117Z</time>
      </trkpt>
      <trkpt lat="43.1839" lon="5.90652">
        <ele>751</ele>
        <time>2016-07-30T07:00:40.117Z</time>
      </trkpt>
      <trkpt lat="43.1839" lon="5.90654">
        <ele>751</ele>
        <time>2016-07-30T07:00:41.117Z</time>
      </trkpt>
      <trkpt lat="43.18391" lon="5.90657">
        <ele>751</ele>
        <time>2016-07-30T07:00:42.117Z</time>
      </trkpt>
      <trkpt lat="43.18392" lon="5.9066">
        <ele>751</ele>
        <time>2016-07-30T07:00:43.117Z</time>
      </trkpt>
      <trkpt lat="43.18392" lon="5.90662">
        <ele>751</ele>
        <time>2016-07-30T07:00:44.117Z</time>
      </trkpt>
      <trkpt lat="43.18393" lon="5.90665">
        <ele>752</ele>
        <time>2016-07-30T07:00:45.117Z</time>
      </trkpt>
      <trkpt lat="43.18394" lon="5.90668">
        <ele>752</ele>
        <time>2016-07-30T07:00:46.117Z</time>
      </trkpt>
      <trkpt lat="43.18395" lon="5.9067">
        <ele>752</ele>
        <time>2016-07-30T07:00:47.117Z</time>
      </trkpt>
      <trkpt lat="43.18395" lon="5.90673">
        <ele>752</ele>
        <time>2016-07-30T07:00:48.117Z</time>
      </trkpt>
      <trkpt lat="43.18396" lon="5.90676">
        <ele>752</ele>
        <time>2016-07-30T07:00:49.117Z</time>
      </trkpt>
      <trkpt lat="43.18397" lon="5.90679">
        <ele>753</ele>
        <time>2016-07-30T07:00:50.117Z</time>
      </trkpt>
      <trkpt lat="43.18398" lon="5.90682">
        <ele>753</ele>
        <time>2016-07-30T07:00:51.117Z</time>
      </trkpt>
      <trkpt lat="43.18398" lon="5.90685">
        <ele>753</ele>
        <time>2016-07-30T07:00:52.117Z</time>
      </trkpt>
      <trkpt lat="43.18399" lon="5.90688">
        <ele>753</ele>
        <time>2016-07-30T07:00:53.117Z</time>
      </trkpt>
      <trkpt lat="43.18399" lon="5.90691">
        <ele>754</ele>
        <time>2016-07-30T07:00:54.117Z</time>
      </trkpt>
      <trkpt lat="43.184" lon="5.90694">
        <ele>754</ele>
        <time>2016-07-30T07:00:55.117Z</time>
      </trkpt>
      <trkpt lat="43.184" lon="5.90697">
        <ele>755</ele>
        <time>2016-07-30T07:00:56.117Z</time>
      </trkpt>
      <trkpt lat="43.184" lon="5.907">
        <ele>755</ele>
        <time>2016-07-30T07:00:57.117Z</time>
      </trkpt>
      <trkpt lat="43.184" lon="5.90702">
        <ele>755</ele>
        <time>2016-07-30T07:00:58.117Z</time>
      </trkpt>
      <trkpt lat="43.184" lon="5.90705">
        <ele>755</ele>
        <time>2016-07-30T07:00:59.117Z</time>
      </trkpt>
      <trkpt lat="43.184" lon="5.90708">
        <ele>756</ele>
        <time>2016-07-30T07:01:00.117Z</time>
      </trkpt>
      <trkpt lat="43.184" lon="5.90711">
        <ele>756</ele>
        <time>2016-07-30T07:01:01.117Z</time>
      </trkpt>
      <trkpt lat="43.18399" lon="5.90714">
        <ele>756</ele>
        <time>2016-07-30T07:01:02.117Z</time>
      </trkpt>
      <trkpt lat="43.18399" lon="5.90717">
        <ele>756</ele>
        <time>2016-07-30T07:01:03.117Z</time>
      </trkpt>
      <trkpt lat="43.18399" lon="5.9072">
        <ele>756</ele>
        <time>2016-07-30T07:01:04.117Z</time>
      </trkpt>
      <trkpt lat="43.18399" lon="5.90723">
        <ele>757</ele>
        <time>2016-07-30T07:01:05.117Z</time>
      </trkpt>
      <trkpt lat="43.18398" lon="5.90726">
        <ele>757</ele>
        <time>2016-07-30T07:01:06.117Z</time>
      </trkpt>
      <trkpt lat="43.18398" lon="5.90729">
        <ele>757</ele>
        <time>2016-07-30T07:01:07.117Z</time>
      </trkpt>
      <trkpt lat="43.18397" lon="5.90732">
        <ele>757</ele>
        <time>2016-07-30T07:01:08.117Z</time>
      </trkpt>
      <trkpt lat="43.18396" lon="5.90735">
        <ele>757</ele>
        <time>2016-07-30T07:01:09.117Z</time>
      </trkpt>
      <trkpt lat="43.18396" lon="5.90738">
        <ele>757</ele>
        <time>2016-07-30T07:01:10.117Z</time>
      </trkpt>
      <trkpt lat="43.18396" lon="5.90741">
        <ele>757</ele>
        <time>2016-07-30T07:01:11.117Z</time>
      </trkpt>
      <trkpt lat="43.18395" lon="5.90744">
        <ele>758</ele>
        <time>2016-07-30T07:01:12.117Z</time>
      </trkpt>
      <trkpt lat="43.18394" lon="5.90747">
        <ele>758</ele>
        <time>2016-07-30T07:01:13.117Z</time>
      </trkpt>
      <trkpt lat="43.18394" lon="5.9075">
        <ele>758</ele>
        <time>2016-07-30T07:01:14.117Z</time>
      </trkpt>
      <trkpt lat="43.18393" lon="5.90753">
        <ele>758</ele>
        <time>2016-07-30T07:01:15.117Z</time>
      </trkpt>
      <trkpt lat="43.18392" lon="5.90756">
        <ele>759</ele>
        <time>2016-07-30T07:01:16.117Z</time>
      </trkpt>
      <trkpt lat="43.18392" lon="5.90759">
        <ele>759</ele>
        <time>2016-07-30T07:01:17.117Z</time>
      </trkpt>
      <trkpt lat="43.18391" lon="5.90762">
        <ele>759</ele>
        <time>2016-07-30T07:01:18.117Z</time>
      </trkpt>
      <trkpt lat="43.18391" lon="5.90765">
        <ele>759</ele>
        <time>2016-07-30T07:01:19.117Z</time>
      </trkpt>
      <trkpt lat="43.1839" lon="5.90768">
        <ele>759</ele>
        <time>2016-07-30T07:01:20.117Z</time>
      </trkpt>
      <trkpt lat="43.1839" lon="5.90771">
        <ele>759</ele>
        <time>2016-07-30T07:01:21.117Z</time>
      </trkpt>
      <trkpt lat="43.18389" lon="5.90775">
        <ele>760</ele>
        <time>2016-07-30T07:01:22.117Z</time>
      </trkpt>
      <trkpt lat="43.18389" lon="5.90778">
        <ele>760</ele>
        <time>2016-07-30T07:01:23.117Z</time>
      </trkpt>
      <trkpt lat="43.18388" lon="5.90781">
        <ele>760</ele>
        <time>2016-07-30T07:01:24.117Z</time>
      </trkpt>
      <trkpt lat="43.18388" lon="5.90784">
        <ele>760</ele>
        <time>2016-07-30T07:01:25.117Z</time>
      </trkpt>
      <trkpt lat="43.18387" lon="5.90787">
        <ele>760</ele>
        <time>2016-07-30T07:01:26.117Z</time>
      </trkpt>
      <trkpt lat="43.18386" lon="5.9079">
        <ele>761</ele>
        <time>2016-07-30T07:01:27.117Z</time>
      </trkpt>
      <trkpt lat="43.18386" lon="5.90793">
        <ele>761</ele>
        <time>2016-07-30T07:01:28.117Z</time>
      </trkpt>
      <trkpt lat="43.18385" lon="5.90796">
        <ele>761</ele>
        <time>2016-07-30T07:01:29.117Z</time>
      </trkpt>
      <trkpt lat="43.18385" lon="5.90799">
        <ele>761</ele>
        <time>2016-07-30T07:01:30.117Z</time>
      </trkpt>
      <trkpt lat="43.18385" lon="5.90802">
        <ele>761</ele>
        <time>2016-07-30T07:01:31.117Z</time>
      </trkpt>
      <trkpt lat="43.18385" lon="5.90805">
        <ele>761</ele>
        <time>2016-07-30T07:01:32.117Z</time>
      </trkpt>
      <trkpt lat="43.18384" lon="5.90809">
        <ele>761</ele>
        <time>2016-07-30T07:01:33.117Z</time>
      </trkpt>
      <trkpt lat="43.18384" lon="5.90812">
        <ele>761</ele>
        <time>2016-07-30T07:01:34.117Z</time>
      </trkpt>
      <trkpt lat="43.18383" lon="5.90815">
        <ele>761</ele>
        <time>2016-07-30T07:01:35.117Z</time>
      </trkpt>
      <trkpt lat="43.18383" lon="5.90818">
        <ele>762</ele>
        <time>2016-07-30T07:01:36.117Z</time>
      </trkpt>
      <trkpt lat="43.18383" lon="5.90821">
        <ele>762</ele>
        <time>2016-07-30T07:01:37.117Z</time>
      </trkpt>
      <trkpt lat="43.18383" lon="5.90824">
        <ele>763</ele>
        <time>2016-07-30T07:01:38.117Z</time>
      </trkpt>
      <trkpt lat="43.18383" lon="5.90826">
        <ele>763</ele>
        <time>2016-07-30T07:01:39.117Z</time>
      </trkpt>
      <trkpt lat="43.18383" lon="5.90829">
        <ele>764</ele>
        <time>2016-07-30T07:01:40.117Z</time>
      </trkpt>
      <trkpt lat="43.18383" lon="5.90832">
        <ele>764</ele>
        <time>2016-07-30T07:01:41.117Z</time>
      </trkpt>
      <trkpt lat="43.18383" lon="5.90835">
        <ele>764</ele>
        <time>2016-07-30T07:01:42.117Z</time>
      </trkpt>
      <trkpt lat="43.18383" lon="5.90838">
        <ele>764</ele>
        <time>2016-07-30T07:01:43.117Z</time>
      </trkpt>
      <trkpt lat="43.18382" lon="5.90841">
        <ele>765</ele>
        <time>2016-07-30T07:01:44.117Z</time>
      </trkpt>
      <trkpt lat="43.18382" lon="5.90844">
        <ele>765</ele>
        <time>2016-07-30T07:01:45.117Z</time>
      </trkpt>
      <trkpt lat="43.18381" lon="5.90847">
        <ele>765</ele>
        <time>2016-07-30T07:01:46.117Z</time>
      </trkpt>
      <trkpt lat="43.18381" lon="5.9085">
        <ele>765</ele>
        <time>2016-07-30T07:01:47.117Z</time>
      </trkpt>
      <trkpt lat="43.1838" lon="5.90852">
        <ele>766</ele>
        <time>2016-07-30T07:01:48.117Z</time>
      </trkpt>
      <trkpt lat="43.1838" lon="5.90855">
        <ele>766</ele>
        <time>2016-07-30T07:01:49.117Z</time>
      </trkpt>
      <trkpt lat="43.18379" lon="5.90858">
        <ele>767</ele>
        <time>2016-07-30T07:01:50.117Z</time>
      </trkpt>
      <trkpt lat="43.18378" lon="5.90861">
        <ele>767</ele>
        <time>2016-07-30T07:01:51.117Z</time>
      </trkpt>
      <trkpt lat="43.18378" lon="5.90864">
        <ele>768</ele>
        <time>2016-07-30T07:01:52.117Z</time>
      </trkpt>
      <trkpt lat="43.18377" lon="5.90867">
        <ele>768</ele>
        <time>2016-07-30T07:01:53.117Z</time>
      </trkpt>
      <trkpt lat="43.18376" lon="5.9087">
        <ele>768</ele>
        <time>2016-07-30T07:01:54.117Z</time>
      </trkpt>
      <trkpt lat="43.18375" lon="5.90873">
        <ele>769</ele>
        <time>2016-07-30T07:01:55.117Z</time>
      </trkpt>
      <trkpt lat="43.18375" lon="5.90876">
        <ele>768</ele>
        <time>2016-07-30T07:01:56.117Z</time>
      </trkpt>
      <trkpt lat="43.18374" lon="5.90879">
        <ele>768</ele>
        <time>2016-07-30T07:01:57.117Z</time>
      </trkpt>
      <trkpt lat="43.18374" lon="5.90882">
        <ele>768</ele>
        <time>2016-07-30T07:01:58.117Z</time>
      </trkpt>
      <trkpt lat="43.18374" lon="5.90886">
        <ele>769</ele>
        <time>2016-07-30T07:01:59.117Z</time>
      </trkpt>
      <trkpt lat="43.18373" lon="5.90889">
        <ele>769</ele>
        <time>2016-07-30T07:02:00.117Z</time>
      </trkpt>
      <trkpt lat="43.18372" lon="5.90892">
        <ele>769</ele>
        <time>2016-07-30T07:02:01.117Z</time>
      </trkpt>
      <trkpt lat="43.18371" lon="5.90895">
        <ele>769</ele>
        <time>2016-07-30T07:02:02.117Z</time>
      </trkpt>
      <trkpt lat="43.1837" lon="5.90898">
        <ele>769</ele>
        <time>2016-07-30T07:02:03.117Z</time>
      </trkpt>
      <trkpt lat="43.1837" lon="5.90901">
        <ele>769</ele>
        <time>2016-07-30T07:02:04.117Z</time>
      </trkpt>
      <trkpt lat="43.18369" lon="5.90904">
        <ele>769</ele>
        <time>2016-07-30T07:02:05.117Z</time>
      </trkpt>
      <trkpt lat="43.18369" lon="5.90907">
        <ele>769</ele>
        <time>2016-07-30T07:02:06.117Z</time>
      </trkpt>
      <trkpt lat="43.18369" lon="5.9091">
        <ele>769</ele>
        <time>2016-07-30T07:02:07.117Z</time>
      </trkpt>
      <trkpt lat="43.18369" lon="5.90912">
        <ele>769</ele>
        <time>2016-07-30T07:02:08.117Z</time>
      </trkpt>
      <trkpt lat="43.1837" lon="5.90914">
        <ele>767</ele>
        <time>2016-07-30T07:02:09.117Z</time>
      </trkpt>
      <trkpt lat="43.18371" lon="5.90916">
        <ele>767</ele>
        <time>2016-07-30T07:02:10.117Z</time>
      </trkpt>
      <trkpt lat="43.18374" lon="5.90916">
        <ele>767</ele>
        <time>2016-07-30T07:02:11.117Z</time>
      </trkpt>
      <trkpt lat="43.18375" lon="5.90915">
        <ele>768</ele>
        <time>2016-07-30T07:02:12.117Z</time>
      </trkpt>
      <trkpt lat="43.18377" lon="5.90912">
        <ele>767</ele>
        <time>2016-07-30T07:02:13.117Z</time>
      </trkpt>
      <trkpt lat="43.18378" lon="5.90909">
        <ele>767</ele>
        <time>2016-07-30T07:02:14.117Z</time>
      </trkpt>
      <trkpt lat="43.18379" lon="5.90906">
        <ele>767</ele>
        <time>2016-07-30T07:02:15.117Z</time>
      </trkpt>
      <trkpt lat="43.1838" lon="5.90903">
        <ele>767</ele>
        <time>2016-07-30T07:02:16.117Z</time>
      </trkpt>
      <trkpt lat="43.18381" lon="5.909">
        <ele>767</ele>
        <time>2016-07-30T07:02:17.117Z</time>
      </trkpt>
      <trkpt lat="43.18382" lon="5.90897">
        <ele>767</ele>
        <time>2016-07-30T07:02:18.117Z</time>
      </trkpt>
      <trkpt lat="43.18382" lon="5.90893">
        <ele>768</ele>
        <time>2016-07-30T07:02:19.117Z</time>
      </trkpt>
      <trkpt lat="43.18383" lon="5.9089">
        <ele>768</ele>
        <time>2016-07-30T07:02:20.117Z</time>
      </trkpt>
      <trkpt lat="43.18384" lon="5.90887">
        <ele>768</ele>
        <time>2016-07-30T07:02:21.117Z</time>
      </trkpt>
      <trkpt lat="43.18385" lon="5.90884">
        <ele>768</ele>
        <time>2016-07-30T07:02:22.117Z</time>
      </trkpt>
      <trkpt lat="43.18386" lon="5.90881">
        <ele>768</ele>
        <time>2016-07-30T07:02:23.117Z</time>
      </trkpt>
      <trkpt lat="43.18386" lon="5.90878">
        <ele>768</ele>
        <time>2016-07-30T07:02:24.117Z</time>
      </trkpt>
      <trkpt lat="43.18387" lon="5.90875">
        <ele>769</ele>
        <time>2016-07-30T07:02:25.117Z</time>
      </trkpt>
      <trkpt lat="43.18388" lon="5.90872">
        <ele>769</ele>
        <time>2016-07-30T07:02:26.117Z</time>
      </trkpt>
      <trkpt lat="43.18388" lon="5.90869">
        <ele>769</ele>
        <time>2016-07-30T07:02:27.117Z</time>
      </trkpt>
      <trkpt lat="43.18389" lon="5.90866">
        <ele>769</ele>
        <time>2016-07-30T07:02:28.117Z</time>
      </trkpt>
      <trkpt lat="43.1839" lon="5.90863">
        <ele>770</ele>
        <time>2016-07-30T07:02:29.117Z</time>
      </trkpt>
      <trkpt lat="43.1839" lon="5.9086">
        <ele>770</ele>
        <time>2016-07-30T07:02:30.117Z</time>
      </trkpt>
      <trkpt lat="43.18391" lon="5.90857">
        <ele>770</ele>
        <time>2016-07-30T07:02:31.117Z</time>
      </trkpt>
      <trkpt lat="43.18392" lon="5.90854">
        <ele>771</ele>
        <time>2016-07-30T07:02:32.117Z</time>
      </trkpt>
      <trkpt lat="43.18392" lon="5.90851">
        <ele>771</ele>
        <time>2016-07-30T07:02:33.117Z</time>
      </trkpt>
      <trkpt lat="43.18393" lon="5.90848">
        <ele>771</ele>
        <time>2016-07-30T07:02:34.117Z</time>
      </trkpt>
      <trkpt lat="43.18394" lon="5.90845">
        <ele>771</ele>
        <time>2016-07-30T07:02:35.117Z</time>
      </trkpt>
      <trkpt lat="43.18395" lon="5.90843">
        <ele>772</ele>
        <time>2016-07-30T07:02:36.117Z</time>
      </trkpt>
      <trkpt lat="43.18396" lon="5.9084">
        <ele>772</ele>
        <time>2016-07-30T07:02:37.117Z</time>
      </trkpt>
      <trkpt lat="43.18396" lon="5.90837">
        <ele>772</ele>
        <time>2016-07-30T07:02:38.117Z</time>
      </trkpt>
      <trkpt lat="43.18397" lon="5.90834">
        <ele>773</ele>
        <time>2016-07-30T07:02:39.117Z</time>
      </trkpt>
      <trkpt lat="43.18397" lon="5.90831">
        <ele>773</ele>
        <time>2016-07-30T07:02:40.117Z</time>
      </trkpt>
      <trkpt lat="43.18398" lon="5.90828">
        <ele>773</ele>
        <time>2016-07-30T07:02:41.117Z</time>
      </trkpt>
      <trkpt lat="43.18398" lon="5.90825">
        <ele>774</ele>
        <time>2016-07-30T07:02:42.117Z</time>
      </trkpt>
      <trkpt lat="43.18398" lon="5.90823">
        <ele>774</ele>
        <time>2016-07-30T07:02:43.117Z</time>
      </trkpt>
      <trkpt lat="43.18398" lon="5.9082">
        <ele>774</ele>
        <time>2016-07-30T07:02:44.117Z</time>
      </trkpt>
      <trkpt lat="43.18399" lon="5.90819">
        <ele>773</ele>
        <time>2016-07-30T07:02:45.117Z</time>
      </trkpt>
      <trkpt lat="43.18401" lon="5.90818">
        <ele>772</ele>
        <time>2016-07-30T07:02:46.117Z</time>
      </trkpt>
      <trkpt lat="43.18402" lon="5.90819">
        <ele>771</ele>
        <time>2016-07-30T07:02:47.117Z</time>
      </trkpt>
      <trkpt lat="43.18404" lon="5.90819">
        <ele>771</ele>
        <time>2016-07-30T07:02:48.117Z</time>
      </trkpt>
      <trkpt lat="43.18404" lon="5.90821">
        <ele>770</ele>
        <time>2016-07-30T07:02:49.117Z</time>
      </trkpt>
      <trkpt lat="43.18404" lon="5.90823">
        <ele>770</ele>
        <time>2016-07-30T07:02:50.117Z</time>
      </trkpt>
      <trkpt lat="43.18404" lon="5.90825">
        <ele>770</ele>
        <time>2016-07-30T07:02:51.117Z</time>
      </trkpt>
      <trkpt lat="43.18404" lon="5.90828">
        <ele>770</ele>
        <time>2016-07-30T07:02:52.117Z</time>
      </trkpt>
      <trkpt lat="43.18404" lon="5.90831">
        <ele>770</ele>
        <time>2016-07-30T07:02:53.117Z</time>
      </trkpt>
      <trkpt lat="43.18404" lon="5.90834">
        <ele>770</ele>
        <time>2016-07-30T07:02:54.117Z</time>
      </trkpt>
      <trkpt lat="43.18404" lon="5.90836">
        <ele>770</ele>
        <time>2016-07-30T07:02:55.117Z</time>
      </trkpt>
      <trkpt lat="43.18403" lon="5.90839">
        <ele>770</ele>
        <time>2016-07-30T07:02:56.117Z</time>
      </trkpt>
      <trkpt lat="43.18403" lon="5.90842">
        <ele>770</ele>
        <time>2016-07-30T07:02:57.117Z</time>
      </trkpt>
      <trkpt lat="43.18403" lon="5.90845">
        <ele>770</ele>
        <time>2016-07-30T07:02:58.117Z</time>
      </trkpt>
      <trkpt lat="43.18403" lon="5.90848">
        <ele>770</ele>
        <time>2016-07-30T07:02:59.117Z</time>
      </trkpt>
      <trkpt lat="43.18402" lon="5.90851">
        <ele>770</ele>
        <time>2016-07-30T07:03:00.117Z</time>
      </trkpt>
      <trkpt lat="43.18402" lon="5.90854">
        <ele>771</ele>
        <time>2016-07-30T07:03:01.117Z</time>
      </trkpt>
      <trkpt lat="43.18401" lon="5.90857">
        <ele>771</ele>
        <time>2016-07-30T07:03:02.117Z</time>
      </trkpt>
      <trkpt lat="43.18401" lon="5.9086">
        <ele>771</ele>
        <time>2016-07-30T07:03:03.117Z</time>
      </trkpt>
      <trkpt lat="43.184" lon="5.90862">
        <ele>771</ele>
        <time>2016-07-30T07:03:04.117Z</time>
      </trkpt>
      <trkpt lat="43.18399" lon="5.90865">
        <ele>771</ele>
        <time>2016-07-30T07:03:05.117Z</time>
      </trkpt>
      <trkpt lat="43.18398" lon="5.90867">
        <ele>772</ele>
        <time>2016-07-30T07:03:06.117Z</time>
      </trkpt>
      <trkpt lat="43.18397" lon="5.90869">
        <ele>772</ele>
        <time>2016-07-30T07:03:07.117Z</time>
      </trkpt>
      <trkpt lat="43.18396" lon="5.90871">
        <ele>772</ele>
        <time>2016-07-30T07:03:08.117Z</time>
      </trkpt>
      <trkpt lat="43.18395" lon="5.90873">
        <ele>772</ele>
        <time>2016-07-30T07:03:09.117Z</time>
      </trkpt>
      <trkpt lat="43.18395" lon="5.90875">
        <ele>772</ele>
        <time>2016-07-30T07:03:10.117Z</time>
      </trkpt>
      <trkpt lat="43.18395" lon="5.90877">
        <ele>772</ele>
        <time>2016-07-30T07:03:11.117Z</time>
      </trkpt>
      <trkpt lat="43.18395" lon="5.90878">
        <ele>771</ele>
        <time>2016-07-30T07:03:12.117Z</time>
      </trkpt>
      <trkpt lat="43.18396" lon="5.90878">
        <ele>771</ele>
        <time>2016-07-30T07:03:13.117Z</time>
      </trkpt>
      <trkpt lat="43.18397" lon="5.90877">
        <ele>770</ele>
        <time>2016-07-30T07:03:14.117Z</time>
      </trkpt>
      <trkpt lat="43.18398" lon="5.90875">
        <ele>769</ele>
        <time>2016-07-30T07:03:15.117Z</time>
      </trkpt>
      <trkpt lat="43.18398" lon="5.90872">
        <ele>769</ele>
        <time>2016-07-30T07:03:16.117Z</time>
      </trkpt>
      <trkpt lat="43.18399" lon="5.90869">
        <ele>768</ele>
        <time>2016-07-30T07:03:17.117Z</time>
      </trkpt>
      <trkpt lat="43.184" lon="5.90864">
        <ele>768</ele>
        <time>2016-07-30T07:03:18.117Z</time>
      </trkpt>
      <trkpt lat="43.18401" lon="5.90859">
        <ele>768</ele>
        <time>2016-07-30T07:03:19.117Z</time>
      </trkpt>
      <trkpt lat="43.18403" lon="5.90854">
        <ele>767</ele>
        <time>2016-07-30T07:03:20.117Z</time>
      </trkpt>
      <trkpt lat="43.18404" lon="5.90849">
        <ele>768</ele>
        <time>2016-07-30T07:03:21.117Z</time>
      </trkpt>
      <trkpt lat="43.18405" lon="5.90844">
        <ele>767</ele>
        <time>2016-07-30T07:03:22.117Z</time>
      </trkpt>
      <trkpt lat="43.18406" lon="5.90839">
        <ele>767</ele>
        <time>2016-07-30T07:03:23.117Z</time>
      </trkpt>
      <trkpt lat="43.18406" lon="5.90834">
        <ele>766</ele>
        <time>2016-07-30T07:03:24.117Z</time>
      </trkpt>
      <trkpt lat="43.18407" lon="5.9083">
        <ele>764</ele>
        <time>2016-07-30T07:03:25.117Z</time>
      </trkpt>
      <trkpt lat="43.18408" lon="5.90826">
        <ele>763</ele>
        <time>2016-07-30T07:03:26.117Z</time>
      </trkpt>
      <trkpt lat="43.18408" lon="5.90823">
        <ele>761</ele>
        <time>2016-07-30T07:03:27.117Z</time>
      </trkpt>
      <trkpt lat="43.18407" lon="5.90822">
        <ele>758</ele>
        <time>2016-07-30T07:03:28.117Z</time>
      </trkpt>
      <trkpt lat="43.18406" lon="5.90825">
        <ele>761</ele>
        <time>2016-07-30T07:03:29.117Z</time>
      </trkpt>
      <trkpt lat="43.18403" lon="5.9083">
        <ele>764</ele>
        <time>2016-07-30T07:03:30.117Z</time>
      </trkpt>
      <trkpt lat="43.18401" lon="5.90835">
        <ele>765</ele>
        <time>2016-07-30T07:03:31.117Z</time>
      </trkpt>
      <trkpt lat="43.18398" lon="5.9084">
        <ele>765</ele>
        <time>2016-07-30T07:03:32.117Z</time>
      </trkpt>
      <trkpt lat="43.18396" lon="5.90846">
        <ele>765</ele>
        <time>2016-07-30T07:03:33.117Z</time>
      </trkpt>
      <trkpt lat="43.18394" lon="5.90852">
        <ele>766</ele>
        <time>2016-07-30T07:03:34.117Z</time>
      </trkpt>
      <trkpt lat="43.18391" lon="5.90859">
        <ele>766</ele>
        <time>2016-07-30T07:03:35.117Z</time>
      </trkpt>
      <trkpt lat="43.18389" lon="5.90866">
        <ele>766</ele>
        <time>2016-07-30T07:03:36.117Z</time>
      </trkpt>
      <trkpt lat="43.18386" lon="5.90875">
        <ele>766</ele>
        <time>2016-07-30T07:03:37.117Z</time>
      </trkpt>
      <trkpt lat="43.18384" lon="5.90883">
        <ele>765</ele>
        <time>2016-07-30T07:03:38.117Z</time>
      </trkpt>
      <trkpt lat="43.18381" lon="5.90892">
        <ele>764</ele>
        <time>2016-07-30T07:03:39.117Z</time>
      </trkpt>
      <trkpt lat="43.18379" lon="5.90901">
        <ele>764</ele>
        <time>2016-07-30T07:03:40.117Z</time>
      </trkpt>
      <trkpt lat="43.18376" lon="5.90909">
        <ele>764</ele>
        <time>2016-07-30T07:03:41.117Z</time>
      </trkpt>
      <trkpt lat="43.18374" lon="5.90914">
        <ele>763</ele>
        <time>2016-07-30T07:03:42.117Z</time>
      </trkpt>
      <trkpt lat="43.1837" lon="5.90912">
        <ele>765</ele>
        <time>2016-07-30T07:03:43.117Z</time>
      </trkpt>
      <trkpt lat="43.18368" lon="5.90907">
        <ele>766</ele>
        <time>2016-07-30T07:03:44.117Z</time>
      </trkpt>
      <trkpt lat="43.18367" lon="5.90898">
        <ele>768</ele>
        <time>2016-07-30T07:03:45.117Z</time>
      </trkpt>
      <trkpt lat="43.18369" lon="5.90889">
        <ele>766</ele>
        <time>2016-07-30T07:03:46.117Z</time>
      </trkpt>
      <trkpt lat="43.18371" lon="5.90879">
        <ele>765</ele>
        <time>2016-07-30T07:03:47.117Z</time>
      </trkpt>
      <trkpt lat="43.18374" lon="5.9087">
        <ele>764</ele>
        <time>2016-07-30T07:03:48.117Z</time>
      </trkpt>
      <trkpt lat="43.18377" lon="5.90862">
        <ele>763</ele>
        <time>2016-07-30T07:03:49.117Z</time>
      </trkpt>
      <trkpt lat="43.18379" lon="5.90853">
        <ele>762</ele>
        <time>2016-07-30T07:03:50.117Z</time>
      </trkpt>
      <trkpt lat="43.18381" lon="5.90843">
        <ele>761</ele>
        <time>2016-07-30T07:03:51.117Z</time>
      </trkpt>
      <trkpt lat="43.18383" lon="5.90833">
        <ele>760</ele>
        <time>2016-07-30T07:03:52.117Z</time>
      </trkpt>
      <trkpt lat="43.18384" lon="5.90823">
        <ele>758</ele>
        <time>2016-07-30T07:03:53.117Z</time>
      </trkpt>
      <trkpt lat="43.18385" lon="5.90813">
        <ele>757</ele>
        <time>2016-07-30T07:03:54.117Z</time>
      </trkpt>
      <trkpt lat="43.18387" lon="5.90802">
        <ele>756</ele>
        <time>2016-07-30T07:03:55.117Z</time>
      </trkpt>
      <trkpt lat="43.18389" lon="5.90791">
        <ele>756</ele>
        <time>2016-07-30T07:03:56.117Z</time>
      </trkpt>
      <trkpt lat="43.18391" lon="5.9078">
        <ele>755</ele>
        <time>2016-07-30T07:03:57.117Z</time>
      </trkpt>
      <trkpt lat="43.18393" lon="5.9077">
        <ele>755</ele>
        <time>2016-07-30T07:03:58.117Z</time>
      </trkpt>
      <trkpt lat="43.18395" lon="5.90759">
        <ele>755</ele>
        <time>2016-07-30T07:03:59.117Z</time>
      </trkpt>
      <trkpt lat="43.18396" lon="5.90748">
        <ele>754</ele>
        <time>2016-07-30T07:04:00.117Z</time>
      </trkpt>
      <trkpt lat="43.18398" lon="5.90737">
        <ele>753</ele>
        <time>2016-07-30T07:04:01.117Z</time>
      </trkpt>
      <trkpt lat="43.18399" lon="5.90727">
        <ele>752</ele>
        <time>2016-07-30T07:04:02.117Z</time>
      </trkpt>
      <trkpt lat="43.18401" lon="5.90718">
        <ele>752</ele>
        <time>2016-07-30T07:04:03.117Z</time>
      </trkpt>
      <trkpt lat="43.18401" lon="5.90709">
        <ele>751</ele>
        <time>2016-07-30T07:04:04.117Z</time>
      </trkpt>
      <trkpt lat="43.18402" lon="5.907">
        <ele>750</ele>
        <time>2016-07-30T07:04:05.117Z</time>
      </trkpt>
      <trkpt lat="43.18402" lon="5.9069">
        <ele>748</ele>
        <time>2016-07-30T07:04:06.117Z</time>
      </trkpt>
      <trkpt lat="43.18401" lon="5.9068">
        <ele>747</ele>
        <time>2016-07-30T07:04:07.117Z</time>
      </trkpt>
      <trkpt lat="43.18399" lon="5.90669">
        <ele>745</ele>
        <time>2016-07-30T07:04:08.117Z</time>
      </trkpt>
      <trkpt lat="43.18397" lon="5.90658">
        <ele>744</ele>
        <time>2016-07-30T07:04:09.117Z</time>
      </trkpt>
      <trkpt lat="43.18394" lon="5.90648">
        <ele>743</ele>
        <time>2016-07-30T07:04:10.117Z</time>
      </trkpt>
      <trkpt lat="43.18391" lon="5.90639">
        <ele>742</ele>
        <time>2016-07-30T07:04:11.117Z</time>
      </trkpt>
      <trkpt lat="43.18389" lon="5.90629">
        <ele>741</ele>
        <time>2016-07-30T07:04:12.117Z</time>
      </trkpt>
      <trkpt lat="43.18386" lon="5.90618">
        <ele>741</ele>
        <time>2016-07-30T07:04:13.117Z</time>
      </trkpt>
      <trkpt lat="43.18383" lon="5.90607">
        <ele>740</ele>
        <time>2016-07-30T07:04:14.117Z</time>
      </trkpt>
      <trkpt lat="43.1838" lon="5.90595">
        <ele>739</ele>
        <time>2016-07-30T07:04:15.117Z</time>
      </trkpt>
      <trkpt lat="43.18377" lon="5.90583">
        <ele>738</ele>
        <time>2016-07-30T07:04:16.117Z</time>
      </trkpt>
      <trkpt lat="43.18374" lon="5.90573">
        <ele>737</ele>
        <time>2016-07-30T07:04:17.117Z</time>
      </trkpt>
      <trkpt lat="43.18372" lon="5.90562">
        <ele>736</ele>
        <time>2016-07-30T07:04:18.117Z</time>
      </trkpt>
      <trkpt lat="43.18369" lon="5.90551">
        <ele>735</ele>
        <time>2016-07-30T07:04:19.117Z</time>
      </trkpt>
      <trkpt lat="43.18367" lon="5.90539">
        <ele>735</ele>
        <time>2016-07-30T07:04:20.117Z</time>
      </trkpt>
      <trkpt lat="43.18364" lon="5.90527">
        <ele>734</ele>
        <time>2016-07-30T07:04:21.117Z</time>
      </trkpt>
      <trkpt lat="43.18362" lon="5.90515">
        <ele>733</ele>
        <time>2016-07-30T07:04:22.117Z</time>
      </trkpt>
      <trkpt lat="43.1836" lon="5.90502">
        <ele>733</ele>
        <time>2016-07-30T07:04:23.117Z</time>
      </trkpt>
      <trkpt lat="43.18358" lon="5.90488">
        <ele>732</ele>
        <time>2016-07-30T07:04:24.117Z</time>
      </trkpt>
      <trkpt lat="43.18355" lon="5.90475">
        <ele>732</ele>
        <time>2016-07-30T07:04:25.117Z</time>
      </trkpt>
      <trkpt lat="43.18353" lon="5.90461">
        <ele>731</ele>
        <time>2016-07-30T07:04:26.117Z</time>
      </trkpt>
      <trkpt lat="43.1835" lon="5.90448">
        <ele>730</ele>
        <time>2016-07-30T07:04:27.117Z</time>
      </trkpt>
      <trkpt lat="43.18348" lon="5.90434">
        <ele>729</ele>
        <time>2016-07-30T07:04:28.117Z</time>
      </trkpt>
      <trkpt lat="43.18346" lon="5.90421">
        <ele>729</ele>
        <time>2016-07-30T07:04:29.117Z</time>
      </trkpt>
      <trkpt lat="43.18343" lon="5.90409">
        <ele>728</ele>
        <time>2016-07-30T07:04:30.117Z</time>
      </trkpt>
      <trkpt lat="43.18341" lon="5.90398">
        <ele>728</ele>
        <time>2016-07-30T07:04:31.117Z</time>
      </trkpt>
      <trkpt lat="43.18339" lon="5.90386">
        <ele>728</ele>
        <time>2016-07-30T07:04:32.117Z</time>
      </trkpt>
      <trkpt lat="43.18338" lon="5.90374">
        <ele>727</ele>
        <time>2016-07-30T07:04:33.117Z</time>
      </trkpt>
      <trkpt lat="43.18337" lon="5.90362">
        <ele>726</ele>
        <time>2016-07-30T07:04:34.117Z</time>
      </trkpt>
      <trkpt lat="43.18336" lon="5.90349">
        <ele>725</ele>
        <time>2016-07-30T07:04:35.117Z</time>
      </trkpt>
      <trkpt lat="43.18335" lon="5.90336">
        <ele>724</ele>
        <time>2016-07-30T07:04:36.117Z</time>
      </trkpt>
      <trkpt lat="43.18334" lon="5.90323">
        <ele>724</ele>
        <time>2016-07-30T07:04:37.117Z</time>
      </trkpt>
      <trkpt lat="43.18333" lon="5.9031">
        <ele>723</ele>
        <time>2016-07-30T07:04:38.117Z</time>
      </trkpt>
      <trkpt lat="43.18333" lon="5.90298">
        <ele>722</ele>
        <time>2016-07-30T07:04:39.117Z</time>
      </trkpt>
      <trkpt lat="43.18333" lon="5.90287">
        <ele>721</ele>
        <time>2016-07-30T07:04:40.117Z</time>
      </trkpt>
      <trkpt lat="43.18334" lon="5.90275">
        <ele>721</ele>
        <time>2016-07-30T07:04:41.117Z</time>
      </trkpt>
      <trkpt lat="43.18336" lon="5.90264">
        <ele>720</ele>
        <time>2016-07-30T07:04:42.117Z</time>
      </trkpt>
      <trkpt lat="43.18337" lon="5.90252">
        <ele>720</ele>
        <time>2016-07-30T07:04:43.117Z</time>
      </trkpt>
      <trkpt lat="43.18339" lon="5.9024">
        <ele>720</ele>
        <time>2016-07-30T07:04:44.117Z</time>
      </trkpt>
      <trkpt lat="43.18341" lon="5.90228">
        <ele>719</ele>
        <time>2016-07-30T07:04:45.117Z</time>
      </trkpt>
      <trkpt lat="43.18343" lon="5.90217">
        <ele>720</ele>
        <time>2016-07-30T07:04:46.117Z</time>
      </trkpt>
      <trkpt lat="43.18344" lon="5.90207">
        <ele>719</ele>
        <time>2016-07-30T07:04:47.117Z</time>
      </trkpt>
      <trkpt lat="43.18345" lon="5.90197">
        <ele>718</ele>
        <time>2016-07-30T07:04:48.117Z</time>
      </trkpt>
      <trkpt lat="43.18345" lon="5.90187">
        <ele>716</ele>
        <time>2016-07-30T07:04:49.117Z</time>
      </trkpt>
      <trkpt lat="43.18344" lon="5.90178">
        <ele>715</ele>
        <time>2016-07-30T07:04:50.117Z</time>
      </trkpt>
      <trkpt lat="43.18342" lon="5.90168">
        <ele>715</ele>
        <time>2016-07-30T07:04:51.117Z</time>
      </trkpt>
      <trkpt lat="43.18339" lon="5.90157">
        <ele>714</ele>
        <time>2016-07-30T07:04:52.117Z</time>
      </trkpt>
      <trkpt lat="43.18335" lon="5.90146">
        <ele>713</ele>
        <time>2016-07-30T07:04:53.117Z</time>
      </trkpt>
      <trkpt lat="43.18332" lon="5.90134">
        <ele>713</ele>
        <time>2016-07-30T07:04:54.117Z</time>
      </trkpt>
      <trkpt lat="43.18329" lon="5.90121">
        <ele>712</ele>
        <time>2016-07-30T07:04:55.117Z</time>
      </trkpt>
      <trkpt lat="43.18326" lon="5.90109">
        <ele>711</ele>
        <time>2016-07-30T07:04:56.117Z</time>
      </trkpt>
      <trkpt lat="43.18322" lon="5.90096">
        <ele>710</ele>
        <time>2016-07-30T07:04:57.117Z</time>
      </trkpt>
      <trkpt lat="43.18318" lon="5.90084">
        <ele>709</ele>
        <time>2016-07-30T07:04:58.117Z</time>
      </trkpt>
      <trkpt lat="43.18313" lon="5.90072">
        <ele>708</ele>
        <time>2016-07-30T07:04:59.117Z</time>
      </trkpt>
      <trkpt lat="43.18309" lon="5.90061">
        <ele>707</ele>
        <time>2016-07-30T07:05:00.117Z</time>
      </trkpt>
      <trkpt lat="43.18305" lon="5.9005">
        <ele>707</ele>
        <time>2016-07-30T07:05:01.117Z</time>
      </trkpt>
      <trkpt lat="43.18302" lon="5.9004">
        <ele>706</ele>
        <time>2016-07-30T07:05:02.117Z</time>
      </trkpt>
      <trkpt lat="43.183" lon="5.9003">
        <ele>706</ele>
        <time>2016-07-30T07:05:03.117Z</time>
      </trkpt>
      <trkpt lat="43.18299" lon="5.9002">
        <ele>706</ele>
        <time>2016-07-30T07:05:04.117Z</time>
      </trkpt>
      <trkpt lat="43.18299" lon="5.90013">
        <ele>706</ele>
        <time>2016-07-30T07:05:05.117Z</time>
      </trkpt>
      <trkpt lat="43.18298" lon="5.90007">
        <ele>706</ele>
        <time>2016-07-30T07:05:06.117Z</time>
      </trkpt>
      <trkpt lat="43.18297" lon="5.90003">
        <ele>706</ele>
        <time>2016-07-30T07:05:07.117Z</time>
      </trkpt>
      <trkpt lat="43.18295" lon="5.89999">
        <ele>705</ele>
        <time>2016-07-30T07:05:08.117Z</time>
      </trkpt>
      <trkpt lat="43.18293" lon="5.89996">
        <ele>705</ele>
        <time>2016-07-30T07:05:09.117Z</time>
      </trkpt>
      <trkpt lat="43.18292" lon="5.89994">
        <ele>705</ele>
        <time>2016-07-30T07:05:10.117Z</time>
      </trkpt>
      <trkpt lat="43.1829" lon="5.89991">
        <ele>705</ele>
        <time>2016-07-30T07:05:11.117Z</time>
      </trkpt>
      <trkpt lat="43.18289" lon="5.89989">
        <ele>705</ele>
        <time>2016-07-30T07:05:12.117Z</time>
      </trkpt>
      <trkpt lat="43.18289" lon="5.89988">
        <ele>705</ele>
        <time>2016-07-30T07:05:13.117Z</time>
      </trkpt>
      <trkpt lat="43.18289" lon="5.89987">
        <ele>705</ele>
        <time>2016-07-30T07:05:14.117Z</time>
      </trkpt>
      <trkpt lat="43.18288" lon="5.89986">
        <ele>706</ele>
        <time>2016-07-30T07:05:15.117Z</time>
      </trkpt>
      <trkpt lat="43.18289" lon="5.89986">
        <ele>706</ele>
        <time>2016-07-30T07:05:16.117Z</time>
      </trkpt>
      <trkpt lat="43.18289" lon="5.89987">
        <ele>706</ele>
        <time>2016-07-30T07:05:17.117Z</time>
      </trkpt>
      <trkpt lat="43.18289" lon="5.89987">
        <ele>706</ele>
        <time>2016-07-30T07:05:18.117Z</time>
      </trkpt>
      <trkpt lat="43.18288" lon="5.89987">
        <ele>706</ele>
        <time>2016-07-30T07:05:19.117Z</time>
      </trkpt>
      <trkpt lat="43.18289" lon="5.89987">
        <ele>706</ele>
        <time>2016-07-30T07:05:20.117Z</time>
      </trkpt>
      <trkpt lat="43.18289" lon="5.89987">
        <ele>705</ele>
        <time>2016-07-30T07:05:21.117Z</time>
      </trkpt>
      <trkpt lat="43.18287" lon="5.89989">
        <ele>707</ele>
        <time>2016-07-30T07:05:22.117Z</time>
      </trkpt>
      <trkpt lat="43.18287" lon="5.89989">
        <ele>707</ele>
        <time>2016-07-30T07:05:23.117Z</time>
      </trkpt>
      <trkpt lat="43.18287" lon="5.89989">
        <ele>707</ele>
        <time>2016-07-30T07:05:24.117Z</time>
      </trkpt>
      <trkpt lat="43.18287" lon="5.89989">
        <ele>707</ele>
        <time>2016-07-30T07:05:25.117Z</time>
      </trkpt>
      <trkpt lat="43.18287" lon="5.89988">
        <ele>707</ele>
        <time>2016-07-30T07:05:26.117Z</time>
      </trkpt>
      <trkpt lat="43.18287" lon="5.89988">
        <ele>707</ele>
        <time>2016-07-30T07:05:27.117Z</time>
      </trkpt>
      <trkpt lat="43.18287" lon="5.89988">
        <ele>707</ele>
        <time>2016-07-30T07:05:28.117Z</time>
      </trkpt>
      <trkpt lat="43.18287" lon="5.89988">
        <ele>707</ele>
        <time>2016-07-30T07:05:29.117Z</time>
      </trkpt>
      <trkpt lat="43.18287" lon="5.89988">
        <ele>707</ele>
        <time>2016-07-30T07:05:30.117Z</time>
      </trkpt>
      <trkpt lat="43.18289" lon="5.89987">
        <ele>706</ele>
        <time>2016-07-30T07:05:31.003Z</time>
      </trkpt>
      <trkpt lat="43.18289" lon="5.89989">
        <ele>706</ele>
        <time>2016-07-30T07:05:32.003Z</time>
      </trkpt>
      <trkpt lat="43.18289" lon="5.89989">
        <ele>706</ele>
        <time>2016-07-30T07:05:33.003Z</time>
      </trkpt>
      <trkpt lat="43.18289" lon="5.89989">
        <ele>706</ele>
        <time>2016-07-30T07:05:34.003Z</time>
      </trkpt>
      <trkpt lat="43.18289" lon="5.89989">
        <ele>706</ele>
        <time>2016-07-30T07:05:35.003Z</time>
      </trkpt>
      <trkpt lat="43.18289" lon="5.89989">
        <ele>706</ele>
        <time>2016-07-30T07:05:36.003Z</time>
      </trkpt>
      <trkpt lat="43.18289" lon="5.89989">
        <ele>706</ele>
        <time>2016-07-30T07:05:37.003Z</time>
      </trkpt>
      <trkpt lat="43.18289" lon="5.89989">
        <ele>706</ele>
        <time>2016-07-30T07:05:38.003Z</time>
      </trkpt>
      <trkpt lat="43.18288" lon="5.89996">
        <ele>707</ele>
        <time>2016-07-30T07:05:39.003Z</time>
      </trkpt>
      <trkpt lat="43.18288" lon="5.89998">
        <ele>707</ele>
        <time>2016-07-30T07:05:40.003Z</time>
      </trkpt>
      <trkpt lat="43.18287" lon="5.90001">
        <ele>707</ele>
        <time>2016-07-30T07:05:41.003Z</time>
      </trkpt>
      <trkpt lat="43.18287" lon="5.90003">
        <ele>707</ele>
        <time>2016-07-30T07:05:42.003Z</time>
      </trkpt>
      <trkpt lat="43.18286" lon="5.90006">
        <ele>707</ele>
        <time>2016-07-30T07:05:43.003Z</time>
      </trkpt>
      <trkpt lat="43.18285" lon="5.90008">
        <ele>707</ele>
        <time>2016-07-30T07:05:44.003Z</time>
      </trkpt>
      <trkpt lat="43.18285" lon="5.90011">
        <ele>707</ele>
        <time>2016-07-30T07:05:45.003Z</time>
      </trkpt>
      <trkpt lat="43.18284" lon="5.90013">
        <ele>706</ele>
        <time>2016-07-30T07:05:46.003Z</time>
      </trkpt>
      <trkpt lat="43.18283" lon="5.90016">
        <ele>706</ele>
        <time>2016-07-30T07:05:47.003Z</time>
      </trkpt>
      <trkpt lat="43.18283" lon="5.90019">
        <ele>706</ele>
        <time>2016-07-30T07:05:48.003Z</time>
      </trkpt>
      <trkpt lat="43.18282" lon="5.90023">
        <ele>705</ele>
        <time>2016-07-30T07:05:49.003Z</time>
      </trkpt>
      <trkpt lat="43.18282" lon="5.90026">
        <ele>705</ele>
        <time>2016-07-30T07:05:50.003Z</time>
      </trkpt>
      <trkpt lat="43.18281" lon="5.9003">
        <ele>705</ele>
        <time>2016-07-30T07:05:51.003Z</time>
      </trkpt>
      <trkpt lat="43.1828" lon="5.90034">
        <ele>705</ele>
        <time>2016-07-30T07:05:52.003Z</time>
      </trkpt>
      <trkpt lat="43.18279" lon="5.90038">
        <ele>704</ele>
        <time>2016-07-30T07:05:53.003Z</time>
      </trkpt>
      <trkpt lat="43.18279" lon="5.90042">
        <ele>704</ele>
        <time>2016-07-30T07:05:54.003Z</time>
      </trkpt>
      <trkpt lat="43.18278" lon="5.90046">
        <ele>704</ele>
        <time>2016-07-30T07:05:55.003Z</time>
      </trkpt>
      <trkpt lat="43.18277" lon="5.9005">
        <ele>704</ele>
        <time>2016-07-30T07:05:56.003Z</time>
      </trkpt>
      <trkpt lat="43.18277" lon="5.90055">
        <ele>704</ele>
        <time>2016-07-30T07:05:57.003Z</time>
      </trkpt>
      <trkpt lat="43.18276" lon="5.90059">
        <ele>704</ele>
        <time>2016-07-30T07:05:58.003Z</time>
      </trkpt>
      <trkpt lat="43.18276" lon="5.90064">
        <ele>704</ele>
        <time>2016-07-30T07:05:59.003Z</time>
      </trkpt>
      <trkpt lat="43.18277" lon="5.90069">
        <ele>703</ele>
        <time>2016-07-30T07:06:00.003Z</time>
      </trkpt>
      <trkpt lat="43.18277" lon="5.90074">
        <ele>703</ele>
        <time>2016-07-30T07:06:01.003Z</time>
      </trkpt>
      <trkpt lat="43.18278" lon="5.90079">
        <ele>703</ele>
        <time>2016-07-30T07:06:02.003Z</time>
      </trkpt>
      <trkpt lat="43.18279" lon="5.90085">
        <ele>703</ele>
        <time>2016-07-30T07:06:03.003Z</time>
      </trkpt>
      <trkpt lat="43.1828" lon="5.9009">
        <ele>702</ele>
        <time>2016-07-30T07:06:04.003Z</time>
      </trkpt>
      <trkpt lat="43.18281" lon="5.90095">
        <ele>702</ele>
        <time>2016-07-30T07:06:05.003Z</time>
      </trkpt>
      <trkpt lat="43.18283" lon="5.90101">
        <ele>702</ele>
        <time>2016-07-30T07:06:06.003Z</time>
      </trkpt>
      <trkpt lat="43.18284" lon="5.90107">
        <ele>701</ele>
        <time>2016-07-30T07:06:07.003Z</time>
      </trkpt>
      <trkpt lat="43.18285" lon="5.90113">
        <ele>701</ele>
        <time>2016-07-30T07:06:08.003Z</time>
      </trkpt>
      <trkpt lat="43.18287" lon="5.90119">
        <ele>701</ele>
        <time>2016-07-30T07:06:09.003Z</time>
      </trkpt>
      <trkpt lat="43.18288" lon="5.90126">
        <ele>700</ele>
        <time>2016-07-30T07:06:10.003Z</time>
      </trkpt>
      <trkpt lat="43.18289" lon="5.90134">
        <ele>700</ele>
        <time>2016-07-30T07:06:11.003Z</time>
      </trkpt>
      <trkpt lat="43.18291" lon="5.90141">
        <ele>700</ele>
        <time>2016-07-30T07:06:12.003Z</time>
      </trkpt>
      <trkpt lat="43.18292" lon="5.90149">
        <ele>699</ele>
        <time>2016-07-30T07:06:13.003Z</time>
      </trkpt>
      <trkpt lat="43.18294" lon="5.90158">
        <ele>699</ele>
        <time>2016-07-30T07:06:14.003Z</time>
      </trkpt>
      <trkpt lat="43.18295" lon="5.90166">
        <ele>699</ele>
        <time>2016-07-30T07:06:15.003Z</time>
      </trkpt>
      <trkpt lat="43.18296" lon="5.90174">
        <ele>699</ele>
        <time>2016-07-30T07:06:16.003Z</time>
      </trkpt>
      <trkpt lat="43.18296" lon="5.90183">
        <ele>698</ele>
        <time>2016-07-30T07:06:17.003Z</time>
      </trkpt>
      <trkpt lat="43.18295" lon="5.90191">
        <ele>698</ele>
        <time>2016-07-30T07:06:18.003Z</time>
      </trkpt>
      <trkpt lat="43.18293" lon="5.90201">
        <ele>697</ele>
        <time>2016-07-30T07:06:19.003Z</time>
      </trkpt>
      <trkpt lat="43.18291" lon="5.9021">
        <ele>697</ele>
        <time>2016-07-30T07:06:20.003Z</time>
      </trkpt>
      <trkpt lat="43.18289" lon="5.9022">
        <ele>696</ele>
        <time>2016-07-30T07:06:21.003Z</time>
      </trkpt>
      <trkpt lat="43.18286" lon="5.9023">
        <ele>695</ele>
        <time>2016-07-30T07:06:22.003Z</time>
      </trkpt>
      <trkpt lat="43.18283" lon="5.90241">
        <ele>694</ele>
        <time>2016-07-30T07:06:23.003Z</time>
      </trkpt>
      <trkpt lat="43.18281" lon="5.90252">
        <ele>694</ele>
        <time>2016-07-30T07:06:24.003Z</time>
      </trkpt>
      <trkpt lat="43.18278" lon="5.90262">
        <ele>693</ele>
        <time>2016-07-30T07:06:25.003Z</time>
      </trkpt>
      <trkpt lat="43.18275" lon="5.90272">
        <ele>692</ele>
        <time>2016-07-30T07:06:26.003Z</time>
      </trkpt>
      <trkpt lat="43.18273" lon="5.90281">
        <ele>691</ele>
        <time>2016-07-30T07:06:27.003Z</time>
      </trkpt>
      <trkpt lat="43.1827" lon="5.90291">
        <ele>690</ele>
        <time>2016-07-30T07:06:28.003Z</time>
      </trkpt>
      <trkpt lat="43.18268" lon="5.90302">
        <ele>689</ele>
        <time>2016-07-30T07:06:29.003Z</time>
      </trkpt>
      <trkpt lat="43.18266" lon="5.90314">
        <ele>688</ele>
        <time>2016-07-30T07:06:30.003Z</time>
      </trkpt>
      <trkpt lat="43.18265" lon="5.90327">
        <ele>687</ele>
        <time>2016-07-30T07:06:31.003Z</time>
      </trkpt>
      <trkpt lat="43.18264" lon="5.9034">
        <ele>687</ele>
        <time>2016-07-30T07:06:32.003Z</time>
      </trkpt>
      <trkpt lat="43.18263" lon="5.90352">
        <ele>686</ele>
        <time>2016-07-30T07:06:33.003Z</time>
      </trkpt>
      <trkpt lat="43.18261" lon="5.90365">
        <ele>685</ele>
        <time>2016-07-30T07:06:34.003Z</time>
      </trkpt>
      <trkpt lat="43.18259" lon="5.90378">
        <ele>684</ele>
        <time>2016-07-30T07:06:35.003Z</time>
      </trkpt>
      <trkpt lat="43.18258" lon="5.90392">
        <ele>683</ele>
        <time>2016-07-30T07:06:36.003Z</time>
      </trkpt>
      <trkpt lat="43.18257" lon="5.90406">
        <ele>682</ele>
        <time>2016-07-30T07:06:37.003Z</time>
      </trkpt>
      <trkpt lat="43.18257" lon="5.9042">
        <ele>681</ele>
        <time>2016-07-30T07:06:38.003Z</time>
      </trkpt>
      <trkpt lat="43.18257" lon="5.90435">
        <ele>680</ele>
        <time>2016-07-30T07:06:39.003Z</time>
      </trkpt>
      <trkpt lat="43.18257" lon="5.90449">
        <ele>679</ele>
        <time>2016-07-30T07:06:40.003Z</time>
      </trkpt>
      <trkpt lat="43.18257" lon="5.90463">
        <ele>678</ele>
        <time>2016-07-30T07:06:41.003Z</time>
      </trkpt>
      <trkpt lat="43.18257" lon="5.90476">
        <ele>678</ele>
        <time>2016-07-30T07:06:42.003Z</time>
      </trkpt>
      <trkpt lat="43.18258" lon="5.90489">
        <ele>677</ele>
        <time>2016-07-30T07:06:43.003Z</time>
      </trkpt>
      <trkpt lat="43.18258" lon="5.905">
        <ele>676</ele>
        <time>2016-07-30T07:06:44.003Z</time>
      </trkpt>
      <trkpt lat="43.18259" lon="5.9051">
        <ele>676</ele>
        <time>2016-07-30T07:06:45.003Z</time>
      </trkpt>
      <trkpt lat="43.1826" lon="5.90518">
        <ele>676</ele>
        <time>2016-07-30T07:06:46.003Z</time>
      </trkpt>
      <trkpt lat="43.18259" lon="5.90524">
        <ele>676</ele>
        <time>2016-07-30T07:06:47.003Z</time>
      </trkpt>
      <trkpt lat="43.18257" lon="5.90527">
        <ele>678</ele>
        <time>2016-07-30T07:06:48.003Z</time>
      </trkpt>
      <trkpt lat="43.18253" lon="5.90527">
        <ele>675</ele>
        <time>2016-07-30T07:06:49.003Z</time>
      </trkpt>
      <trkpt lat="43.18249" lon="5.90523">
        <ele>674</ele>
        <time>2016-07-30T07:06:50.003Z</time>
      </trkpt>
      <trkpt lat="43.18247" lon="5.90517">
        <ele>674</ele>
        <time>2016-07-30T07:06:51.003Z</time>
      </trkpt>
      <trkpt lat="43.18246" lon="5.90511">
        <ele>674</ele>
        <time>2016-07-30T07:06:52.003Z</time>
      </trkpt>
      <trkpt lat="43.18246" lon="5.90504">
        <ele>674</ele>
        <time>2016-07-30T07:06:53.003Z</time>
      </trkpt>
      <trkpt lat="43.18245" lon="5.90497">
        <ele>674</ele>
        <time>2016-07-30T07:06:54.003Z</time>
      </trkpt>
      <trkpt lat="43.18244" lon="5.90488">
        <ele>674</ele>
        <time>2016-07-30T07:06:55.003Z</time>
      </trkpt>
      <trkpt lat="43.18243" lon="5.90479">
        <ele>673</ele>
        <time>2016-07-30T07:06:56.003Z</time>
      </trkpt>
      <trkpt lat="43.18242" lon="5.9047">
        <ele>672</ele>
        <time>2016-07-30T07:06:57.003Z</time>
      </trkpt>
      <trkpt lat="43.1824" lon="5.9046">
        <ele>671</ele>
        <time>2016-07-30T07:06:58.003Z</time>
      </trkpt>
      <trkpt lat="43.18238" lon="5.90449">
        <ele>671</ele>
        <time>2016-07-30T07:06:59.003Z</time>
      </trkpt>
      <trkpt lat="43.18234" lon="5.90438">
        <ele>671</ele>
        <time>2016-07-30T07:07:00.003Z</time>
      </trkpt>
      <trkpt lat="43.18231" lon="5.90427">
        <ele>669</ele>
        <time>2016-07-30T07:07:01.003Z</time>
      </trkpt>
      <trkpt lat="43.18228" lon="5.90416">
        <ele>668</ele>
        <time>2016-07-30T07:07:02.003Z</time>
      </trkpt>
      <trkpt lat="43.18225" lon="5.90403">
        <ele>667</ele>
        <time>2016-07-30T07:07:03.003Z</time>
      </trkpt>
      <trkpt lat="43.18222" lon="5.90391">
        <ele>666</ele>
        <time>2016-07-30T07:07:04.003Z</time>
      </trkpt>
      <trkpt lat="43.18218" lon="5.90378">
        <ele>665</ele>
        <time>2016-07-30T07:07:05.003Z</time>
      </trkpt>
      <trkpt lat="43.18215" lon="5.90366">
        <ele>664</ele>
        <time>2016-07-30T07:07:06.003Z</time>
      </trkpt>
      <trkpt lat="43.18211" lon="5.90354">
        <ele>663</ele>
        <time>2016-07-30T07:07:07.003Z</time>
      </trkpt>
      <trkpt lat="43.18208" lon="5.90344">
        <ele>662</ele>
        <time>2016-07-30T07:07:08.003Z</time>
      </trkpt>
      <trkpt lat="43.18205" lon="5.90334">
        <ele>662</ele>
        <time>2016-07-30T07:07:09.003Z</time>
      </trkpt>
      <trkpt lat="43.18203" lon="5.90323">
        <ele>661</ele>
        <time>2016-07-30T07:07:10.003Z</time>
      </trkpt>
      <trkpt lat="43.18202" lon="5.90313">
        <ele>660</ele>
        <time>2016-07-30T07:07:11.003Z</time>
      </trkpt>
      <trkpt lat="43.18201" lon="5.90303">
        <ele>659</ele>
        <time>2016-07-30T07:07:12.003Z</time>
      </trkpt>
      <trkpt lat="43.182" lon="5.90293">
        <ele>658</ele>
        <time>2016-07-30T07:07:13.003Z</time>
      </trkpt>
      <trkpt lat="43.182" lon="5.90283">
        <ele>658</ele>
        <time>2016-07-30T07:07:14.003Z</time>
      </trkpt>
      <trkpt lat="43.182" lon="5.90272">
        <ele>656</ele>
        <time>2016-07-30T07:07:15.003Z</time>
      </trkpt>
      <trkpt lat="43.18202" lon="5.9026">
        <ele>655</ele>
        <time>2016-07-30T07:07:16.003Z</time>
      </trkpt>
      <trkpt lat="43.18204" lon="5.90249">
        <ele>654</ele>
        <time>2016-07-30T07:07:17.003Z</time>
      </trkpt>
      <trkpt lat="43.18205" lon="5.90237">
        <ele>654</ele>
        <time>2016-07-30T07:07:18.003Z</time>
      </trkpt>
      <trkpt lat="43.18206" lon="5.90225">
        <ele>653</ele>
        <time>2016-07-30T07:07:19.003Z</time>
      </trkpt>
      <trkpt lat="43.18207" lon="5.90213">
        <ele>651</ele>
        <time>2016-07-30T07:07:20.003Z</time>
      </trkpt>
      <trkpt lat="43.18207" lon="5.90201">
        <ele>650</ele>
        <time>2016-07-30T07:07:21.003Z</time>
      </trkpt>
      <trkpt lat="43.18206" lon="5.90189">
        <ele>648</ele>
        <time>2016-07-30T07:07:22.003Z</time>
      </trkpt>
      <trkpt lat="43.18204" lon="5.90177">
        <ele>646</ele>
        <time>2016-07-30T07:07:23.003Z</time>
      </trkpt>
      <trkpt lat="43.18201" lon="5.90164">
        <ele>644</ele>
        <time>2016-07-30T07:07:24.003Z</time>
      </trkpt>
      <trkpt lat="43.18197" lon="5.90152">
        <ele>644</ele>
        <time>2016-07-30T07:07:25.003Z</time>
      </trkpt>
      <trkpt lat="43.18193" lon="5.90141">
        <ele>643</ele>
        <time>2016-07-30T07:07:26.003Z</time>
      </trkpt>
      <trkpt lat="43.18188" lon="5.90131">
        <ele>642</ele>
        <time>2016-07-30T07:07:27.003Z</time>
      </trkpt>
      <trkpt lat="43.18184" lon="5.9012">
        <ele>641</ele>
        <time>2016-07-30T07:07:28.003Z</time>
      </trkpt>
      <trkpt lat="43.1818" lon="5.90108">
        <ele>640</ele>
        <time>2016-07-30T07:07:29.003Z</time>
      </trkpt>
      <trkpt lat="43.18177" lon="5.90096">
        <ele>639</ele>
        <time>2016-07-30T07:07:30.003Z</time>
      </trkpt>
      <trkpt lat="43.18174" lon="5.90083">
        <ele>638</ele>
        <time>2016-07-30T07:07:31.003Z</time>
      </trkpt>
      <trkpt lat="43.18172" lon="5.9007">
        <ele>638</ele>
        <time>2016-07-30T07:07:32.003Z</time>
      </trkpt>
      <trkpt lat="43.18171" lon="5.90056">
        <ele>637</ele>
        <time>2016-07-30T07:07:33.003Z</time>
      </trkpt>
      <trkpt lat="43.1817" lon="5.90043">
        <ele>636</ele>
        <time>2016-07-30T07:07:34.003Z</time>
      </trkpt>
      <trkpt lat="43.18169" lon="5.90031">
        <ele>635</ele>
        <time>2016-07-30T07:07:35.003Z</time>
      </trkpt>
      <trkpt lat="43.18168" lon="5.90021">
        <ele>634</ele>
        <time>2016-07-30T07:07:36.003Z</time>
      </trkpt>
      <trkpt lat="43.18167" lon="5.90012">
        <ele>634</ele>
        <time>2016-07-30T07:07:37.003Z</time>
      </trkpt>
      <trkpt lat="43.18165" lon="5.90005">
        <ele>632</ele>
        <time>2016-07-30T07:07:38.003Z</time>
      </trkpt>
      <trkpt lat="43.18161" lon="5.89998">
        <ele>630</ele>
        <time>2016-07-30T07:07:39.003Z</time>
      </trkpt>
      <trkpt lat="43.18157" lon="5.89991">
        <ele>628</ele>
        <time>2016-07-30T07:07:40.003Z</time>
      </trkpt>
      <trkpt lat="43.18151" lon="5.89986">
        <ele>629</ele>
        <time>2016-07-30T07:07:41.003Z</time>
      </trkpt>
      <trkpt lat="43.18144" lon="5.89981">
        <ele>630</ele>
        <time>2016-07-30T07:07:42.003Z</time>
      </trkpt>
      <trkpt lat="43.18135" lon="5.89977">
        <ele>630</ele>
        <time>2016-07-30T07:07:43.003Z</time>
      </trkpt>
      <trkpt lat="43.18126" lon="5.89974">
        <ele>630</ele>
        <time>2016-07-30T07:07:44.003Z</time>
      </trkpt>
      <trkpt lat="43.18118" lon="5.89971">
        <ele>629</ele>
        <time>2016-07-30T07:07:45.003Z</time>
      </trkpt>
      <trkpt lat="43.18109" lon="5.89967">
        <ele>628</ele>
        <time>2016-07-30T07:07:46.003Z</time>
      </trkpt>
      <trkpt lat="43.181" lon="5.89962">
        <ele>628</ele>
        <time>2016-07-30T07:07:47.003Z</time>
      </trkpt>
      <trkpt lat="43.18092" lon="5.89957">
        <ele>627</ele>
        <time>2016-07-30T07:07:48.003Z</time>
      </trkpt>
      <trkpt lat="43.18084" lon="5.89952">
        <ele>626</ele>
        <time>2016-07-30T07:07:49.003Z</time>
      </trkpt>
      <trkpt lat="43.18077" lon="5.89947">
        <ele>625</ele>
        <time>2016-07-30T07:07:50.003Z</time>
      </trkpt>
      <trkpt lat="43.1807" lon="5.8994">
        <ele>625</ele>
        <time>2016-07-30T07:07:51.003Z</time>
      </trkpt>
      <trkpt lat="43.18065" lon="5.89933">
        <ele>625</ele>
        <time>2016-07-30T07:07:52.003Z</time>
      </trkpt>
      <trkpt lat="43.1806" lon="5.89927">
        <ele>625</ele>
        <time>2016-07-30T07:07:53.003Z</time>
      </trkpt>
      <trkpt lat="43.18056" lon="5.89924">
        <ele>623</ele>
        <time>2016-07-30T07:07:54.003Z</time>
      </trkpt>
      <trkpt lat="43.18052" lon="5.89923">
        <ele>620</ele>
        <time>2016-07-30T07:07:55.003Z</time>
      </trkpt>
      <trkpt lat="43.18049" lon="5.89924">
        <ele>619</ele>
        <time>2016-07-30T07:07:56.003Z</time>
      </trkpt>
      <trkpt lat="43.18046" lon="5.89926">
        <ele>617</ele>
        <time>2016-07-30T07:07:57.003Z</time>
      </trkpt>
      <trkpt lat="43.18044" lon="5.89928">
        <ele>613</ele>
        <time>2016-07-30T07:07:58.003Z</time>
      </trkpt>
      <trkpt lat="43.18044" lon="5.89931">
        <ele>609</ele>
        <time>2016-07-30T07:07:59.003Z</time>
      </trkpt>
      <trkpt lat="43.18045" lon="5.89935">
        <ele>606</ele>
        <time>2016-07-30T07:08:00.003Z</time>
      </trkpt>
      <trkpt lat="43.18047" lon="5.89941">
        <ele>604</ele>
        <time>2016-07-30T07:08:01.003Z</time>
      </trkpt>
      <trkpt lat="43.18049" lon="5.89946">
        <ele>602</ele>
        <time>2016-07-30T07:08:02.003Z</time>
      </trkpt>
      <trkpt lat="43.18052" lon="5.89952">
        <ele>598</ele>
        <time>2016-07-30T07:08:03.003Z</time>
      </trkpt>
      <trkpt lat="43.18057" lon="5.89959">
        <ele>596</ele>
        <time>2016-07-30T07:08:04.003Z</time>
      </trkpt>
      <trkpt lat="43.18061" lon="5.89966">
        <ele>595</ele>
        <time>2016-07-30T07:08:05.003Z</time>
      </trkpt>
      <trkpt lat="43.18067" lon="5.89974">
        <ele>594</ele>
        <time>2016-07-30T07:08:06.003Z</time>
      </trkpt>
      <trkpt lat="43.18073" lon="5.89982">
        <ele>592</ele>
        <time>2016-07-30T07:08:07.003Z</time>
      </trkpt>
      <trkpt lat="43.1808" lon="5.89988">
        <ele>590</ele>
        <time>2016-07-30T07:08:08.003Z</time>
      </trkpt>
      <trkpt lat="43.18086" lon="5.89994">
        <ele>588</ele>
        <time>2016-07-30T07:08:09.003Z</time>
      </trkpt>
      <trkpt lat="43.18091" lon="5.9">
        <ele>587</ele>
        <time>2016-07-30T07:08:10.003Z</time>
      </trkpt>
      <trkpt lat="43.18096" lon="5.90006">
        <ele>587</ele>
        <time>2016-07-30T07:08:11.003Z</time>
      </trkpt>
      <trkpt lat="43.18099" lon="5.90013">
        <ele>591</ele>
        <time>2016-07-30T07:08:12.003Z</time>
      </trkpt>
      <trkpt lat="43.181" lon="5.90022">
        <ele>593</ele>
        <time>2016-07-30T07:08:13.003Z</time>
      </trkpt>
      <trkpt lat="43.181" lon="5.90032">
        <ele>595</ele>
        <time>2016-07-30T07:08:14.003Z</time>
      </trkpt>
      <trkpt lat="43.18099" lon="5.90042">
        <ele>595</ele>
        <time>2016-07-30T07:08:15.003Z</time>
      </trkpt>
      <trkpt lat="43.18099" lon="5.90051">
        <ele>596</ele>
        <time>2016-07-30T07:08:16.003Z</time>
      </trkpt>
      <trkpt lat="43.181" lon="5.9006">
        <ele>597</ele>
        <time>2016-07-30T07:08:17.003Z</time>
      </trkpt>
      <trkpt lat="43.181" lon="5.9007">
        <ele>596</ele>
        <time>2016-07-30T07:08:18.003Z</time>
      </trkpt>
      <trkpt lat="43.18099" lon="5.90079">
        <ele>596</ele>
        <time>2016-07-30T07:08:19.003Z</time>
      </trkpt>
      <trkpt lat="43.18098" lon="5.90087">
        <ele>596</ele>
        <time>2016-07-30T07:08:20.003Z</time>
      </trkpt>
      <trkpt lat="43.18097" lon="5.90096">
        <ele>597</ele>
        <time>2016-07-30T07:08:21.003Z</time>
      </trkpt>
      <trkpt lat="43.18097" lon="5.90106">
        <ele>597</ele>
        <time>2016-07-30T07:08:22.003Z</time>
      </trkpt>
      <trkpt lat="43.18098" lon="5.90117">
        <ele>597</ele>
        <time>2016-07-30T07:08:23.003Z</time>
      </trkpt>
      <trkpt lat="43.18102" lon="5.90128">
        <ele>602</ele>
        <time>2016-07-30T07:08:24.003Z</time>
      </trkpt>
      <trkpt lat="43.18106" lon="5.90139">
        <ele>605</ele>
        <time>2016-07-30T07:08:25.003Z</time>
      </trkpt>
      <trkpt lat="43.1811" lon="5.9015">
        <ele>604</ele>
        <time>2016-07-30T07:08:26.003Z</time>
      </trkpt>
      <trkpt lat="43.18114" lon="5.90161">
        <ele>604</ele>
        <time>2016-07-30T07:08:27.003Z</time>
      </trkpt>
      <trkpt lat="43.18118" lon="5.90172">
        <ele>604</ele>
        <time>2016-07-30T07:08:28.003Z</time>
      </trkpt>
      <trkpt lat="43.18122" lon="5.90183">
        <ele>604</ele>
        <time>2016-07-30T07:08:29.003Z</time>
      </trkpt>
      <trkpt lat="43.18125" lon="5.90193">
        <ele>603</ele>
        <time>2016-07-30T07:08:30.003Z</time>
      </trkpt>
      <trkpt lat="43.18128" lon="5.90203">
        <ele>602</ele>
        <time>2016-07-30T07:08:31.003Z</time>
      </trkpt>
      <trkpt lat="43.1813" lon="5.90213">
        <ele>601</ele>
        <time>2016-07-30T07:08:32.003Z</time>
      </trkpt>
      <trkpt lat="43.18132" lon="5.90224">
        <ele>600</ele>
        <time>2016-07-30T07:08:33.003Z</time>
      </trkpt>
      <trkpt lat="43.18133" lon="5.90234">
        <ele>599</ele>
        <time>2016-07-30T07:08:34.003Z</time>
      </trkpt>
      <trkpt lat="43.18134" lon="5.90244">
        <ele>599</ele>
        <time>2016-07-30T07:08:35.003Z</time>
      </trkpt>
      <trkpt lat="43.18133" lon="5.90254">
        <ele>598</ele>
        <time>2016-07-30T07:08:36.003Z</time>
      </trkpt>
      <trkpt lat="43.18131" lon="5.90264">
        <ele>597</ele>
        <time>2016-07-30T07:08:37.003Z</time>
      </trkpt>
      <trkpt lat="43.18128" lon="5.90273">
        <ele>596</ele>
        <time>2016-07-30T07:08:38.003Z</time>
      </trkpt>
      <trkpt lat="43.18125" lon="5.90284">
        <ele>596</ele>
        <time>2016-07-30T07:08:39.003Z</time>
      </trkpt>
      <trkpt lat="43.18123" lon="5.90296">
        <ele>595</ele>
        <time>2016-07-30T07:08:40.003Z</time>
      </trkpt>
      <trkpt lat="43.18122" lon="5.90308">
        <ele>595</ele>
        <time>2016-07-30T07:08:41.003Z</time>
      </trkpt>
      <trkpt lat="43.1812" lon="5.90321">
        <ele>594</ele>
        <time>2016-07-30T07:08:42.003Z</time>
      </trkpt>
      <trkpt lat="43.18119" lon="5.90334">
        <ele>593</ele>
        <time>2016-07-30T07:08:43.003Z</time>
      </trkpt>
      <trkpt lat="43.18117" lon="5.90347">
        <ele>592</ele>
        <time>2016-07-30T07:08:44.003Z</time>
      </trkpt>
      <trkpt lat="43.18117" lon="5.90361">
        <ele>592</ele>
        <time>2016-07-30T07:08:45.003Z</time>
      </trkpt>
      <trkpt lat="43.18116" lon="5.90374">
        <ele>592</ele>
        <time>2016-07-30T07:08:46.003Z</time>
      </trkpt>
      <trkpt lat="43.18116" lon="5.90388">
        <ele>591</ele>
        <time>2016-07-30T07:08:47.003Z</time>
      </trkpt>
      <trkpt lat="43.18116" lon="5.90401">
        <ele>590</ele>
        <time>2016-07-30T07:08:48.003Z</time>
      </trkpt>
      <trkpt lat="43.18115" lon="5.90414">
        <ele>591</ele>
        <time>2016-07-30T07:08:49.003Z</time>
      </trkpt>
      <trkpt lat="43.18113" lon="5.90427">
        <ele>591</ele>
        <time>2016-07-30T07:08:50.003Z</time>
      </trkpt>
      <trkpt lat="43.18111" lon="5.9044">
        <ele>590</ele>
        <time>2016-07-30T07:08:51.003Z</time>
      </trkpt>
      <trkpt lat="43.18108" lon="5.90453">
        <ele>589</ele>
        <time>2016-07-30T07:08:52.003Z</time>
      </trkpt>
      <trkpt lat="43.18106" lon="5.90466">
        <ele>589</ele>
        <time>2016-07-30T07:08:53.003Z</time>
      </trkpt>
      <trkpt lat="43.18103" lon="5.90478">
        <ele>587</ele>
        <time>2016-07-30T07:08:54.003Z</time>
      </trkpt>
      <trkpt lat="43.181" lon="5.9049">
        <ele>586</ele>
        <time>2016-07-30T07:08:55.003Z</time>
      </trkpt>
      <trkpt lat="43.18096" lon="5.90503">
        <ele>586</ele>
        <time>2016-07-30T07:08:56.003Z</time>
      </trkpt>
      <trkpt lat="43.18093" lon="5.90515">
        <ele>585</ele>
        <time>2016-07-30T07:08:57.003Z</time>
      </trkpt>
      <trkpt lat="43.18091" lon="5.90528">
        <ele>584</ele>
        <time>2016-07-30T07:08:58.003Z</time>
      </trkpt>
      <trkpt lat="43.1809" lon="5.9054">
        <ele>583</ele>
        <time>2016-07-30T07:08:59.003Z</time>
      </trkpt>
      <trkpt lat="43.18089" lon="5.90551">
        <ele>581</ele>
        <time>2016-07-30T07:09:00.003Z</time>
      </trkpt>
      <trkpt lat="43.18089" lon="5.90561">
        <ele>580</ele>
        <time>2016-07-30T07:09:01.003Z</time>
      </trkpt>
      <trkpt lat="43.18089" lon="5.90571">
        <ele>579</ele>
        <time>2016-07-30T07:09:02.003Z</time>
      </trkpt>
      <trkpt lat="43.18088" lon="5.90578">
        <ele>578</ele>
        <time>2016-07-30T07:09:03.003Z</time>
      </trkpt>
      <trkpt lat="43.18085" lon="5.90585">
        <ele>576</ele>
        <time>2016-07-30T07:09:04.003Z</time>
      </trkpt>
      <trkpt lat="43.18081" lon="5.90589">
        <ele>573</ele>
        <time>2016-07-30T07:09:05.003Z</time>
      </trkpt>
      <trkpt lat="43.18073" lon="5.90591">
        <ele>569</ele>
        <time>2016-07-30T07:09:06.003Z</time>
      </trkpt>
      <trkpt lat="43.18065" lon="5.90592">
        <ele>568</ele>
        <time>2016-07-30T07:09:07.003Z</time>
      </trkpt>
      <trkpt lat="43.18055" lon="5.90592">
        <ele>569</ele>
        <time>2016-07-30T07:09:08.003Z</time>
      </trkpt>
      <trkpt lat="43.18046" lon="5.90593">
        <ele>568</ele>
        <time>2016-07-30T07:09:09.003Z</time>
      </trkpt>
      <trkpt lat="43.18038" lon="5.90595">
        <ele>567</ele>
        <time>2016-07-30T07:09:10.003Z</time>
      </trkpt>
      <trkpt lat="43.18032" lon="5.90599">
        <ele>563</ele>
        <time>2016-07-30T07:09:11.003Z</time>
      </trkpt>
      <trkpt lat="43.18027" lon="5.90605">
        <ele>562</ele>
        <time>2016-07-30T07:09:12.003Z</time>
      </trkpt>
      <trkpt lat="43.18023" lon="5.90611">
        <ele>562</ele>
        <time>2016-07-30T07:09:13.003Z</time>
      </trkpt>
      <trkpt lat="43.1802" lon="5.90617">
        <ele>561</ele>
        <time>2016-07-30T07:09:14.003Z</time>
      </trkpt>
      <trkpt lat="43.18017" lon="5.9062">
        <ele>561</ele>
        <time>2016-07-30T07:09:15.003Z</time>
      </trkpt>
      <trkpt lat="43.18013" lon="5.90619">
        <ele>561</ele>
        <time>2016-07-30T07:09:16.003Z</time>
      </trkpt>
      <trkpt lat="43.1801" lon="5.90615">
        <ele>561</ele>
        <time>2016-07-30T07:09:17.003Z</time>
      </trkpt>
      <trkpt lat="43.18008" lon="5.90608">
        <ele>559</ele>
        <time>2016-07-30T07:09:18.003Z</time>
      </trkpt>
      <trkpt lat="43.18008" lon="5.90601">
        <ele>559</ele>
        <time>2016-07-30T07:09:19.003Z</time>
      </trkpt>
      <trkpt lat="43.1801" lon="5.90592">
        <ele>558</ele>
        <time>2016-07-30T07:09:20.003Z</time>
      </trkpt>
      <trkpt lat="43.18013" lon="5.90585">
        <ele>558</ele>
        <time>2016-07-30T07:09:21.003Z</time>
      </trkpt>
      <trkpt lat="43.18018" lon="5.90578">
        <ele>558</ele>
        <time>2016-07-30T07:09:22.003Z</time>
      </trkpt>
      <trkpt lat="43.18023" lon="5.90572">
        <ele>559</ele>
        <time>2016-07-30T07:09:23.003Z</time>
      </trkpt>
      <trkpt lat="43.1803" lon="5.90567">
        <ele>559</ele>
        <time>2016-07-30T07:09:24.003Z</time>
      </trkpt>
      <trkpt lat="43.18036" lon="5.90562">
        <ele>559</ele>
        <time>2016-07-30T07:09:25.003Z</time>
      </trkpt>
      <trkpt lat="43.18043" lon="5.90557">
        <ele>558</ele>
        <time>2016-07-30T07:09:26.003Z</time>
      </trkpt>
      <trkpt lat="43.18048" lon="5.90552">
        <ele>559</ele>
        <time>2016-07-30T07:09:27.003Z</time>
      </trkpt>
      <trkpt lat="43.18052" lon="5.90546">
        <ele>557</ele>
        <time>2016-07-30T07:09:28.003Z</time>
      </trkpt>
      <trkpt lat="43.18054" lon="5.90539">
        <ele>555</ele>
        <time>2016-07-30T07:09:29.003Z</time>
      </trkpt>
      <trkpt lat="43.18054" lon="5.9053">
        <ele>553</ele>
        <time>2016-07-30T07:09:30.003Z</time>
      </trkpt>
      <trkpt lat="43.18053" lon="5.90521">
        <ele>553</ele>
        <time>2016-07-30T07:09:31.003Z</time>
      </trkpt>
      <trkpt lat="43.18051" lon="5.90512">
        <ele>552</ele>
        <time>2016-07-30T07:09:32.003Z</time>
      </trkpt>
      <trkpt lat="43.18049" lon="5.90503">
        <ele>551</ele>
        <time>2016-07-30T07:09:33.003Z</time>
      </trkpt>
      <trkpt lat="43.18046" lon="5.90493">
        <ele>550</ele>
        <time>2016-07-30T07:09:34.003Z</time>
      </trkpt>
      <trkpt lat="43.18045" lon="5.90482">
        <ele>550</ele>
        <time>2016-07-30T07:09:35.003Z</time>
      </trkpt>
      <trkpt lat="43.18043" lon="5.9047">
        <ele>550</ele>
        <time>2016-07-30T07:09:36.003Z</time>
      </trkpt>
      <trkpt lat="43.18042" lon="5.90458">
        <ele>550</ele>
        <time>2016-07-30T07:09:37.003Z</time>
      </trkpt>
      <trkpt lat="43.18041" lon="5.90447">
        <ele>549</ele>
        <time>2016-07-30T07:09:38.003Z</time>
      </trkpt>
      <trkpt lat="43.18039" lon="5.90436">
        <ele>548</ele>
        <time>2016-07-30T07:09:39.003Z</time>
      </trkpt>
      <trkpt lat="43.18036" lon="5.90425">
        <ele>547</ele>
        <time>2016-07-30T07:09:40.003Z</time>
      </trkpt>
      <trkpt lat="43.1803" lon="5.90415">
        <ele>548</ele>
        <time>2016-07-30T07:09:41.003Z</time>
      </trkpt>
      <trkpt lat="43.18023" lon="5.90405">
        <ele>546</ele>
        <time>2016-07-30T07:09:42.003Z</time>
      </trkpt>
      <trkpt lat="43.18016" lon="5.90394">
        <ele>546</ele>
        <time>2016-07-30T07:09:43.003Z</time>
      </trkpt>
      <trkpt lat="43.18011" lon="5.90381">
        <ele>544</ele>
        <time>2016-07-30T07:09:44.003Z</time>
      </trkpt>
      <trkpt lat="43.18006" lon="5.90368">
        <ele>544</ele>
        <time>2016-07-30T07:09:45.003Z</time>
      </trkpt>
      <trkpt lat="43.18001" lon="5.90355">
        <ele>543</ele>
        <time>2016-07-30T07:09:46.003Z</time>
      </trkpt>
      <trkpt lat="43.17996" lon="5.90343">
        <ele>543</ele>
        <time>2016-07-30T07:09:47.003Z</time>
      </trkpt>
      <trkpt lat="43.17993" lon="5.90331">
        <ele>542</ele>
        <time>2016-07-30T07:09:48.003Z</time>
      </trkpt>
      <trkpt lat="43.1799" lon="5.90318">
        <ele>542</ele>
        <time>2016-07-30T07:09:49.003Z</time>
      </trkpt>
      <trkpt lat="43.17988" lon="5.90305">
        <ele>542</ele>
        <time>2016-07-30T07:09:50.003Z</time>
      </trkpt>
      <trkpt lat="43.17986" lon="5.90292">
        <ele>541</ele>
        <time>2016-07-30T07:09:51.003Z</time>
      </trkpt>
      <trkpt lat="43.17985" lon="5.90278">
        <ele>540</ele>
        <time>2016-07-30T07:09:52.003Z</time>
      </trkpt>
      <trkpt lat="43.17983" lon="5.90264">
        <ele>540</ele>
        <time>2016-07-30T07:09:53.003Z</time>
      </trkpt>
      <trkpt lat="43.17981" lon="5.9025">
        <ele>539</ele>
        <time>2016-07-30T07:09:54.003Z</time>
      </trkpt>
      <trkpt lat="43.17978" lon="5.90235">
        <ele>538</ele>
        <time>2016-07-30T07:09:55.003Z</time>
      </trkpt>
      <trkpt lat="43.17973" lon="5.90221">
        <ele>537</ele>
        <time>2016-07-30T07:09:56.003Z</time>
      </trkpt>
      <trkpt lat="43.17968" lon="5.90207">
        <ele>537</ele>
        <time>2016-07-30T07:09:57.003Z</time>
      </trkpt>
      <trkpt lat="43.17963" lon="5.90195">
        <ele>535</ele>
        <time>2016-07-30T07:09:58.003Z</time>
      </trkpt>
      <trkpt lat="43.17958" lon="5.90185">
        <ele>535</ele>
        <time>2016-07-30T07:09:59.003Z</time>
      </trkpt>
      <trkpt lat="43.17954" lon="5.90176">
        <ele>535</ele>
        <time>2016-07-30T07:10:00.003Z</time>
      </trkpt>
      <trkpt lat="43.17951" lon="5.90168">
        <ele>535</ele>
        <time>2016-07-30T07:10:01.003Z</time>
      </trkpt>
      <trkpt lat="43.1795" lon="5.9016">
        <ele>535</ele>
        <time>2016-07-30T07:10:02.003Z</time>
      </trkpt>
      <trkpt lat="43.17952" lon="5.90153">
        <ele>535</ele>
        <time>2016-07-30T07:10:03.003Z</time>
      </trkpt>
      <trkpt lat="43.17954" lon="5.90147">
        <ele>537</ele>
        <time>2016-07-30T07:10:04.003Z</time>
      </trkpt>
      <trkpt lat="43.17958" lon="5.90141">
        <ele>538</ele>
        <time>2016-07-30T07:10:05.003Z</time>
      </trkpt>
      <trkpt lat="43.17961" lon="5.90135">
        <ele>537</ele>
        <time>2016-07-30T07:10:06.003Z</time>
      </trkpt>
      <trkpt lat="43.17964" lon="5.90128">
        <ele>535</ele>
        <time>2016-07-30T07:10:07.003Z</time>
      </trkpt>
      <trkpt lat="43.17966" lon="5.9012">
        <ele>533</ele>
        <time>2016-07-30T07:10:08.003Z</time>
      </trkpt>
      <trkpt lat="43.17966" lon="5.90112">
        <ele>531</ele>
        <time>2016-07-30T07:10:09.003Z</time>
      </trkpt>
      <trkpt lat="43.17965" lon="5.90105">
        <ele>526</ele>
        <time>2016-07-30T07:10:10.003Z</time>
      </trkpt>
      <trkpt lat="43.17962" lon="5.90099">
        <ele>524</ele>
        <time>2016-07-30T07:10:11.003Z</time>
      </trkpt>
      <trkpt lat="43.17958" lon="5.90096">
        <ele>523</ele>
        <time>2016-07-30T07:10:12.003Z</time>
      </trkpt>
      <trkpt lat="43.17952" lon="5.90093">
        <ele>523</ele>
        <time>2016-07-30T07:10:13.003Z</time>
      </trkpt>
      <trkpt lat="43.17945" lon="5.90092">
        <ele>523</ele>
        <time>2016-07-30T07:10:14.003Z</time>
      </trkpt>
      <trkpt lat="43.17936" lon="5.90091">
        <ele>523</ele>
        <time>2016-07-30T07:10:15.003Z</time>
      </trkpt>
      <trkpt lat="43.17927" lon="5.90091">
        <ele>524</ele>
        <time>2016-07-30T07:10:16.003Z</time>
      </trkpt>
      <trkpt lat="43.17917" lon="5.9009">
        <ele>524</ele>
        <time>2016-07-30T07:10:17.003Z</time>
      </trkpt>
      <trkpt lat="43.17907" lon="5.9009">
        <ele>524</ele>
        <time>2016-07-30T07:10:18.003Z</time>
      </trkpt>
      <trkpt lat="43.17897" lon="5.90091">
        <ele>523</ele>
        <time>2016-07-30T07:10:19.003Z</time>
      </trkpt>
      <trkpt lat="43.17887" lon="5.90092">
        <ele>522</ele>
        <time>2016-07-30T07:10:20.003Z</time>
      </trkpt>
      <trkpt lat="43.17877" lon="5.90094">
        <ele>520</ele>
        <time>2016-07-30T07:10:21.003Z</time>
      </trkpt>
      <trkpt lat="43.17866" lon="5.90097">
        <ele>518</ele>
        <time>2016-07-30T07:10:22.003Z</time>
      </trkpt>
      <trkpt lat="43.17856" lon="5.90101">
        <ele>517</ele>
        <time>2016-07-30T07:10:23.003Z</time>
      </trkpt>
      <trkpt lat="43.17845" lon="5.90105">
        <ele>515</ele>
        <time>2016-07-30T07:10:24.003Z</time>
      </trkpt>
      <trkpt lat="43.17835" lon="5.90108">
        <ele>514</ele>
        <time>2016-07-30T07:10:25.003Z</time>
      </trkpt>
      <trkpt lat="43.17824" lon="5.9011">
        <ele>513</ele>
        <time>2016-07-30T07:10:26.003Z</time>
      </trkpt>
      <trkpt lat="43.17814" lon="5.90112">
        <ele>512</ele>
        <time>2016-07-30T07:10:27.003Z</time>
      </trkpt>
      <trkpt lat="43.17803" lon="5.90113">
        <ele>512</ele>
        <time>2016-07-30T07:10:28.003Z</time>
      </trkpt>
      <trkpt lat="43.17792" lon="5.90115">
        <ele>511</ele>
        <time>2016-07-30T07:10:29.003Z</time>
      </trkpt>
      <trkpt lat="43.17781" lon="5.90116">
        <ele>510</ele>
        <time>2016-07-30T07:10:30.003Z</time>
      </trkpt>
      <trkpt lat="43.1777" lon="5.90116">
        <ele>509</ele>
        <time>2016-07-30T07:10:31.003Z</time>
      </trkpt>
      <trkpt lat="43.17759" lon="5.90116">
        <ele>508</ele>
        <time>2016-07-30T07:10:32.003Z</time>
      </trkpt>
      <trkpt lat="43.17748" lon="5.90114">
        <ele>508</ele>
        <time>2016-07-30T07:10:33.003Z</time>
      </trkpt>
      <trkpt lat="43.17737" lon="5.90113">
        <ele>507</ele>
        <time>2016-07-30T07:10:34.003Z</time>
      </trkpt>
      <trkpt lat="43.17725" lon="5.90111">
        <ele>506</ele>
        <time>2016-07-30T07:10:35.003Z</time>
      </trkpt>
      <trkpt lat="43.17713" lon="5.90109">
        <ele>505</ele>
        <time>2016-07-30T07:10:36.003Z</time>
      </trkpt>
      <trkpt lat="43.17701" lon="5.90107">
        <ele>504</ele>
        <time>2016-07-30T07:10:37.003Z</time>
      </trkpt>
      <trkpt lat="43.17689" lon="5.90105">
        <ele>503</ele>
        <time>2016-07-30T07:10:38.003Z</time>
      </trkpt>
      <trkpt lat="43.17679" lon="5.90104">
        <ele>503</ele>
        <time>2016-07-30T07:10:39.003Z</time>
      </trkpt>
      <trkpt lat="43.1767" lon="5.90103">
        <ele>502</ele>
        <time>2016-07-30T07:10:40.003Z</time>
      </trkpt>
      <trkpt lat="43.17662" lon="5.90101">
        <ele>502</ele>
        <time>2016-07-30T07:10:41.003Z</time>
      </trkpt>
      <trkpt lat="43.17654" lon="5.90099">
        <ele>501</ele>
        <time>2016-07-30T07:10:42.003Z</time>
      </trkpt>
      <trkpt lat="43.17647" lon="5.90096">
        <ele>501</ele>
        <time>2016-07-30T07:10:43.003Z</time>
      </trkpt>
      <trkpt lat="43.17641" lon="5.90091">
        <ele>499</ele>
        <time>2016-07-30T07:10:44.003Z</time>
      </trkpt>
      <trkpt lat="43.17635" lon="5.90084">
        <ele>499</ele>
        <time>2016-07-30T07:10:45.003Z</time>
      </trkpt>
      <trkpt lat="43.1763" lon="5.90075">
        <ele>499</ele>
        <time>2016-07-30T07:10:46.003Z</time>
      </trkpt>
      <trkpt lat="43.17626" lon="5.90066">
        <ele>499</ele>
        <time>2016-07-30T07:10:47.003Z</time>
      </trkpt>
      <trkpt lat="43.17622" lon="5.90057">
        <ele>498</ele>
        <time>2016-07-30T07:10:48.003Z</time>
      </trkpt>
      <trkpt lat="43.1762" lon="5.90049">
        <ele>498</ele>
        <time>2016-07-30T07:10:49.003Z</time>
      </trkpt>
      <trkpt lat="43.17618" lon="5.90042">
        <ele>498</ele>
        <time>2016-07-30T07:10:50.003Z</time>
      </trkpt>
      <trkpt lat="43.17616" lon="5.90036">
        <ele>497</ele>
        <time>2016-07-30T07:10:51.003Z</time>
      </trkpt>
      <trkpt lat="43.17614" lon="5.90032">
        <ele>496</ele>
        <time>2016-07-30T07:10:52.003Z</time>
      </trkpt>
      <trkpt lat="43.17613" lon="5.90028">
        <ele>495</ele>
        <time>2016-07-30T07:10:53.003Z</time>
      </trkpt>
      <trkpt lat="43.17612" lon="5.90026">
        <ele>495</ele>
        <time>2016-07-30T07:10:54.003Z</time>
      </trkpt>
      <trkpt lat="43.17611" lon="5.90024">
        <ele>495</ele>
        <time>2016-07-30T07:10:55.003Z</time>
      </trkpt>
      <trkpt lat="43.17609" lon="5.90023">
        <ele>495</ele>
        <time>2016-07-30T07:10:56.003Z</time>
      </trkpt>
      <trkpt lat="43.17607" lon="5.90021">
        <ele>495</ele>
        <time>2016-07-30T07:10:57.003Z</time>
      </trkpt>
      <trkpt lat="43.17605" lon="5.90019">
        <ele>495</ele>
        <time>2016-07-30T07:10:58.003Z</time>
      </trkpt>
      <trkpt lat="43.17603" lon="5.90018">
        <ele>495</ele>
        <time>2016-07-30T07:10:59.003Z</time>
      </trkpt>
      <trkpt lat="43.17602" lon="5.90017">
        <ele>495</ele>
        <time>2016-07-30T07:11:00.003Z</time>
      </trkpt>
      <trkpt lat="43.176" lon="5.90016">
        <ele>495</ele>
        <time>2016-07-30T07:11:01.003Z</time>
      </trkpt>
      <trkpt lat="43.17598" lon="5.90015">
        <ele>495</ele>
        <time>2016-07-30T07:11:02.003Z</time>
      </trkpt>
      <trkpt lat="43.17597" lon="5.90015">
        <ele>495</ele>
        <time>2016-07-30T07:11:03.003Z</time>
      </trkpt>
      <trkpt lat="43.17595" lon="5.90014">
        <ele>495</ele>
        <time>2016-07-30T07:11:04.003Z</time>
      </trkpt>
      <trkpt lat="43.17594" lon="5.90013">
        <ele>494</ele>
        <time>2016-07-30T07:11:05.003Z</time>
      </trkpt>
      <trkpt lat="43.17593" lon="5.90012">
        <ele>494</ele>
        <time>2016-07-30T07:11:06.003Z</time>
      </trkpt>
      <trkpt lat="43.17592" lon="5.90012">
        <ele>494</ele>
        <time>2016-07-30T07:11:07.003Z</time>
      </trkpt>
      <trkpt lat="43.1759" lon="5.90011">
        <ele>494</ele>
        <time>2016-07-30T07:11:08.003Z</time>
      </trkpt>
      <trkpt lat="43.17589" lon="5.9001">
        <ele>494</ele>
        <time>2016-07-30T07:11:09.003Z</time>
      </trkpt>
      <trkpt lat="43.17588" lon="5.90009">
        <ele>494</ele>
        <time>2016-07-30T07:11:10.003Z</time>
      </trkpt>
      <trkpt lat="43.17587" lon="5.90009">
        <ele>494</ele>
        <time>2016-07-30T07:11:11.003Z</time>
      </trkpt>
      <trkpt lat="43.17586" lon="5.90008">
        <ele>494</ele>
        <time>2016-07-30T07:11:12.003Z</time>
      </trkpt>
      <trkpt lat="43.17585" lon="5.90008">
        <ele>494</ele>
        <time>2016-07-30T07:11:13.003Z</time>
      </trkpt>
      <trkpt lat="43.17584" lon="5.90007">
        <ele>494</ele>
        <time>2016-07-30T07:11:14.003Z</time>
      </trkpt>
      <trkpt lat="43.17583" lon="5.90006">
        <ele>494</ele>
        <time>2016-07-30T07:11:15.003Z</time>
      </trkpt>
      <trkpt lat="43.17582" lon="5.90005">
        <ele>494</ele>
        <time>2016-07-30T07:11:16.003Z</time>
      </trkpt>
      <trkpt lat="43.1758" lon="5.90004">
        <ele>493</ele>
        <time>2016-07-30T07:11:17.003Z</time>
      </trkpt>
      <trkpt lat="43.17579" lon="5.90002">
        <ele>493</ele>
        <time>2016-07-30T07:11:18.003Z</time>
      </trkpt>
      <trkpt lat="43.17578" lon="5.90001">
        <ele>493</ele>
        <time>2016-07-30T07:11:19.003Z</time>
      </trkpt>
      <trkpt lat="43.17577" lon="5.90001">
        <ele>493</ele>
        <time>2016-07-30T07:11:20.003Z</time>
      </trkpt>
      <trkpt lat="43.17577" lon="5.90001">
        <ele>493</ele>
        <time>2016-07-30T07:11:21.003Z</time>
      </trkpt>
      <trkpt lat="43.17576" lon="5.90001">
        <ele>493</ele>
        <time>2016-07-30T07:11:22.003Z</time>
      </trkpt>
      <trkpt lat="43.17576" lon="5.90001">
        <ele>493</ele>
        <time>2016-07-30T07:11:23.003Z</time>
      </trkpt>
      <trkpt lat="43.17576" lon="5.90001">
        <ele>493</ele>
        <time>2016-07-30T07:11:24.003Z</time>
      </trkpt>
      <trkpt lat="43.17576" lon="5.90001">
        <ele>493</ele>
        <time>2016-07-30T07:11:25.003Z</time>
      </trkpt>
      <trkpt lat="43.17576" lon="5.90001">
        <ele>493</ele>
        <time>2016-07-30T07:11:26.003Z</time>
      </trkpt>
      <trkpt lat="43.17566" lon="5.89993">
        <ele>492</ele>
        <time>2016-07-30T07:11:27.010Z</time>
      </trkpt>
      <trkpt lat="43.17562" lon="5.89989">
        <ele>491</ele>
        <time>2016-07-30T07:11:28.010Z</time>
      </trkpt>
      <trkpt lat="43.17556" lon="5.89984">
        <ele>490</ele>
        <time>2016-07-30T07:11:29.010Z</time>
      </trkpt>
      <trkpt lat="43.17551" lon="5.89978">
        <ele>489</ele>
        <time>2016-07-30T07:11:30.010Z</time>
      </trkpt>
      <trkpt lat="43.17545" lon="5.89971">
        <ele>488</ele>
        <time>2016-07-30T07:11:31.010Z</time>
      </trkpt>
      <trkpt lat="43.17539" lon="5.89963">
        <ele>487</ele>
        <time>2016-07-30T07:11:32.010Z</time>
      </trkpt>
      <trkpt lat="43.17533" lon="5.89954">
        <ele>486</ele>
        <time>2016-07-30T07:11:33.010Z</time>
      </trkpt>
      <trkpt lat="43.17529" lon="5.89945">
        <ele>485</ele>
        <time>2016-07-30T07:11:34.010Z</time>
      </trkpt>
      <trkpt lat="43.17524" lon="5.89937">
        <ele>485</ele>
        <time>2016-07-30T07:11:35.010Z</time>
      </trkpt>
      <trkpt lat="43.17521" lon="5.89927">
        <ele>484</ele>
        <time>2016-07-30T07:11:36.010Z</time>
      </trkpt>
      <trkpt lat="43.17519" lon="5.89917">
        <ele>483</ele>
        <time>2016-07-30T07:11:37.010Z</time>
      </trkpt>
      <trkpt lat="43.17518" lon="5.89905">
        <ele>483</ele>
        <time>2016-07-30T07:11:38.010Z</time>
      </trkpt>
      <trkpt lat="43.17518" lon="5.89893">
        <ele>483</ele>
        <time>2016-07-30T07:11:39.010Z</time>
      </trkpt>
      <trkpt lat="43.17519" lon="5.89881">
        <ele>482</ele>
        <time>2016-07-30T07:11:40.010Z</time>
      </trkpt>
      <trkpt lat="43.17521" lon="5.89867">
        <ele>481</ele>
        <time>2016-07-30T07:11:41.010Z</time>
      </trkpt>
      <trkpt lat="43.17523" lon="5.89853">
        <ele>480</ele>
        <time>2016-07-30T07:11:42.010Z</time>
      </trkpt>
      <trkpt lat="43.17525" lon="5.89839">
        <ele>479</ele>
        <time>2016-07-30T07:11:43.010Z</time>
      </trkpt>
      <trkpt lat="43.17525" lon="5.89825">
        <ele>477</ele>
        <time>2016-07-30T07:11:44.010Z</time>
      </trkpt>
      <trkpt lat="43.17525" lon="5.8981">
        <ele>476</ele>
        <time>2016-07-30T07:11:45.010Z</time>
      </trkpt>
      <trkpt lat="43.17522" lon="5.89797">
        <ele>474</ele>
        <time>2016-07-30T07:11:46.010Z</time>
      </trkpt>
      <trkpt lat="43.1752" lon="5.89785">
        <ele>473</ele>
        <time>2016-07-30T07:11:47.010Z</time>
      </trkpt>
      <trkpt lat="43.17516" lon="5.89775">
        <ele>472</ele>
        <time>2016-07-30T07:11:48.010Z</time>
      </trkpt>
      <trkpt lat="43.17511" lon="5.89767">
        <ele>473</ele>
        <time>2016-07-30T07:11:49.010Z</time>
      </trkpt>
      <trkpt lat="43.17504" lon="5.89763">
        <ele>473</ele>
        <time>2016-07-30T07:11:50.010Z</time>
      </trkpt>
      <trkpt lat="43.17497" lon="5.8976">
        <ele>471</ele>
        <time>2016-07-30T07:11:51.010Z</time>
      </trkpt>
      <trkpt lat="43.17489" lon="5.8976">
        <ele>470</ele>
        <time>2016-07-30T07:11:52.010Z</time>
      </trkpt>
      <trkpt lat="43.17481" lon="5.89761">
        <ele>469</ele>
        <time>2016-07-30T07:11:53.010Z</time>
      </trkpt>
      <trkpt lat="43.17472" lon="5.89764">
        <ele>468</ele>
        <time>2016-07-30T07:11:54.010Z</time>
      </trkpt>
      <trkpt lat="43.17462" lon="5.89767">
        <ele>467</ele>
        <time>2016-07-30T07:11:55.010Z</time>
      </trkpt>
      <trkpt lat="43.17452" lon="5.89769">
        <ele>466</ele>
        <time>2016-07-30T07:11:56.010Z</time>
      </trkpt>
      <trkpt lat="43.17442" lon="5.89769">
        <ele>464</ele>
        <time>2016-07-30T07:11:57.010Z</time>
      </trkpt>
      <trkpt lat="43.17431" lon="5.89767">
        <ele>463</ele>
        <time>2016-07-30T07:11:58.010Z</time>
      </trkpt>
      <trkpt lat="43.1742" lon="5.89766">
        <ele>462</ele>
        <time>2016-07-30T07:11:59.010Z</time>
      </trkpt>
      <trkpt lat="43.1741" lon="5.89765">
        <ele>461</ele>
        <time>2016-07-30T07:12:00.010Z</time>
      </trkpt>
      <trkpt lat="43.174" lon="5.89763">
        <ele>460</ele>
        <time>2016-07-30T07:12:01.010Z</time>
      </trkpt>
      <trkpt lat="43.17392" lon="5.8976">
        <ele>459</ele>
        <time>2016-07-30T07:12:02.010Z</time>
      </trkpt>
      <trkpt lat="43.17385" lon="5.89755">
        <ele>457</ele>
        <time>2016-07-30T07:12:03.010Z</time>
      </trkpt>
      <trkpt lat="43.17378" lon="5.89747">
        <ele>456</ele>
        <time>2016-07-30T07:12:04.010Z</time>
      </trkpt>
      <trkpt lat="43.17371" lon="5.89737">
        <ele>456</ele>
        <time>2016-07-30T07:12:05.010Z</time>
      </trkpt>
      <trkpt lat="43.17365" lon="5.89726">
        <ele>455</ele>
        <time>2016-07-30T07:12:06.010Z</time>
      </trkpt>
      <trkpt lat="43.1736" lon="5.89713">
        <ele>454</ele>
        <time>2016-07-30T07:12:07.010Z</time>
      </trkpt>
      <trkpt lat="43.17355" lon="5.89699">
        <ele>452</ele>
        <time>2016-07-30T07:12:08.010Z</time>
      </trkpt>
      <trkpt lat="43.1735" lon="5.89685">
        <ele>452</ele>
        <time>2016-07-30T07:12:09.010Z</time>
      </trkpt>
      <trkpt lat="43.17343" lon="5.89673">
        <ele>452</ele>
        <time>2016-07-30T07:12:10.010Z</time>
      </trkpt>
      <trkpt lat="43.17334" lon="5.89661">
        <ele>451</ele>
        <time>2016-07-30T07:12:11.010Z</time>
      </trkpt>
      <trkpt lat="43.17325" lon="5.8965">
        <ele>449</ele>
        <time>2016-07-30T07:12:12.010Z</time>
      </trkpt>
      <trkpt lat="43.17316" lon="5.8964">
        <ele>448</ele>
        <time>2016-07-30T07:12:13.010Z</time>
      </trkpt>
      <trkpt lat="43.17307" lon="5.89631">
        <ele>445</ele>
        <time>2016-07-30T07:12:14.010Z</time>
      </trkpt>
      <trkpt lat="43.173" lon="5.89622">
        <ele>444</ele>
        <time>2016-07-30T07:12:15.010Z</time>
      </trkpt>
      <trkpt lat="43.17293" lon="5.89614">
        <ele>443</ele>
        <time>2016-07-30T07:12:16.010Z</time>
      </trkpt>
      <trkpt lat="43.17287" lon="5.89604">
        <ele>443</ele>
        <time>2016-07-30T07:12:17.010Z</time>
      </trkpt>
      <trkpt lat="43.17283" lon="5.89595">
        <ele>444</ele>
        <time>2016-07-30T07:12:18.010Z</time>
      </trkpt>
      <trkpt lat="43.1728" lon="5.89585">
        <ele>444</ele>
        <time>2016-07-30T07:12:19.010Z</time>
      </trkpt>
      <trkpt lat="43.17278" lon="5.89574">
        <ele>444</ele>
        <time>2016-07-30T07:12:20.010Z</time>
      </trkpt>
      <trkpt lat="43.17276" lon="5.89562">
        <ele>444</ele>
        <time>2016-07-30T07:12:21.010Z</time>
      </trkpt>
      <trkpt lat="43.17273" lon="5.89551">
        <ele>443</ele>
        <time>2016-07-30T07:12:22.010Z</time>
      </trkpt>
      <trkpt lat="43.17269" lon="5.89539">
        <ele>442</ele>
        <time>2016-07-30T07:12:23.010Z</time>
      </trkpt>
      <trkpt lat="43.17266" lon="5.89525">
        <ele>441</ele>
        <time>2016-07-30T07:12:24.010Z</time>
      </trkpt>
      <trkpt lat="43.17262" lon="5.89509">
        <ele>440</ele>
        <time>2016-07-30T07:12:25.010Z</time>
      </trkpt>
      <trkpt lat="43.17258" lon="5.89494">
        <ele>439</ele>
        <time>2016-07-30T07:12:26.010Z</time>
      </trkpt>
      <trkpt lat="43.17255" lon="5.89479">
        <ele>438</ele>
        <time>2016-07-30T07:12:27.010Z</time>
      </trkpt>
      <trkpt lat="43.17253" lon="5.89465">
        <ele>437</ele>
        <time>2016-07-30T07:12:28.010Z</time>
      </trkpt>
      <trkpt lat="43.17249" lon="5.89453">
        <ele>436</ele>
        <time>2016-07-30T07:12:29.010Z</time>
      </trkpt>
      <trkpt lat="43.17246" lon="5.89442">
        <ele>434</ele>
        <time>2016-07-30T07:12:30.010Z</time>
      </trkpt>
      <trkpt lat="43.1724" lon="5.89435">
        <ele>433</ele>
        <time>2016-07-30T07:12:31.010Z</time>
      </trkpt>
      <trkpt lat="43.17231" lon="5.89431">
        <ele>434</ele>
        <time>2016-07-30T07:12:32.010Z</time>
      </trkpt>
      <trkpt lat="43.17221" lon="5.89429">
        <ele>433</ele>
        <time>2016-07-30T07:12:33.010Z</time>
      </trkpt>
      <trkpt lat="43.1721" lon="5.89426">
        <ele>431</ele>
        <time>2016-07-30T07:12:34.010Z</time>
      </trkpt>
      <trkpt lat="43.172" lon="5.89422">
        <ele>429</ele>
        <time>2016-07-30T07:12:35.010Z</time>
      </trkpt>
      <trkpt lat="43.17191" lon="5.89418">
        <ele>428</ele>
        <time>2016-07-30T07:12:36.010Z</time>
      </trkpt>
      <trkpt lat="43.17182" lon="5.89414">
        <ele>426</ele>
        <time>2016-07-30T07:12:37.010Z</time>
      </trkpt>
      <trkpt lat="43.17173" lon="5.8941">
        <ele>425</ele>
        <time>2016-07-30T07:12:38.010Z</time>
      </trkpt>
      <trkpt lat="43.17165" lon="5.89407">
        <ele>424</ele>
        <time>2016-07-30T07:12:39.010Z</time>
      </trkpt>
      <trkpt lat="43.17158" lon="5.89402">
        <ele>423</ele>
        <time>2016-07-30T07:12:40.010Z</time>
      </trkpt>
      <trkpt lat="43.17152" lon="5.89396">
        <ele>421</ele>
        <time>2016-07-30T07:12:41.010Z</time>
      </trkpt>
      <trkpt lat="43.17146" lon="5.89387">
        <ele>421</ele>
        <time>2016-07-30T07:12:42.010Z</time>
      </trkpt>
      <trkpt lat="43.17141" lon="5.89377">
        <ele>421</ele>
        <time>2016-07-30T07:12:43.010Z</time>
      </trkpt>
      <trkpt lat="43.17137" lon="5.89364">
        <ele>420</ele>
        <time>2016-07-30T07:12:44.010Z</time>
      </trkpt>
      <trkpt lat="43.17134" lon="5.89351">
        <ele>420</ele>
        <time>2016-07-30T07:12:45.010Z</time>
      </trkpt>
      <trkpt lat="43.17131" lon="5.89337">
        <ele>419</ele>
        <time>2016-07-30T07:12:46.010Z</time>
      </trkpt>
      <trkpt lat="43.17129" lon="5.89322">
        <ele>418</ele>
        <time>2016-07-30T07:12:47.010Z</time>
      </trkpt>
      <trkpt lat="43.17128" lon="5.89307">
        <ele>417</ele>
        <time>2016-07-30T07:12:48.010Z</time>
      </trkpt>
      <trkpt lat="43.17127" lon="5.89291">
        <ele>417</ele>
        <time>2016-07-30T07:12:49.010Z</time>
      </trkpt>
      <trkpt lat="43.17126" lon="5.89275">
        <ele>417</ele>
        <time>2016-07-30T07:12:50.010Z</time>
      </trkpt>
      <trkpt lat="43.17126" lon="5.89258">
        <ele>416</ele>
        <time>2016-07-30T07:12:51.010Z</time>
      </trkpt>
      <trkpt lat="43.17125" lon="5.89241">
        <ele>415</ele>
        <time>2016-07-30T07:12:52.010Z</time>
      </trkpt>
      <trkpt lat="43.17123" lon="5.89224">
        <ele>414</ele>
        <time>2016-07-30T07:12:53.010Z</time>
      </trkpt>
      <trkpt lat="43.17121" lon="5.89207">
        <ele>413</ele>
        <time>2016-07-30T07:12:54.010Z</time>
      </trkpt>
      <trkpt lat="43.17118" lon="5.8919">
        <ele>412</ele>
        <time>2016-07-30T07:12:55.010Z</time>
      </trkpt>
      <trkpt lat="43.17115" lon="5.89173">
        <ele>411</ele>
        <time>2016-07-30T07:12:56.010Z</time>
      </trkpt>
      <trkpt lat="43.17113" lon="5.89156">
        <ele>410</ele>
        <time>2016-07-30T07:12:57.010Z</time>
      </trkpt>
      <trkpt lat="43.1711" lon="5.8914">
        <ele>410</ele>
        <time>2016-07-30T07:12:58.010Z</time>
      </trkpt>
      <trkpt lat="43.1711" lon="5.89125">
        <ele>405</ele>
        <time>2016-07-30T07:12:59.010Z</time>
      </trkpt>
      <trkpt lat="43.1711" lon="5.89113">
        <ele>407</ele>
        <time>2016-07-30T07:13:00.010Z</time>
      </trkpt>
      <trkpt lat="43.17112" lon="5.89102">
        <ele>406</ele>
        <time>2016-07-30T07:13:01.010Z</time>
      </trkpt>
      <trkpt lat="43.17112" lon="5.89092">
        <ele>405</ele>
        <time>2016-07-30T07:13:02.010Z</time>
      </trkpt>
      <trkpt lat="43.17112" lon="5.89082">
        <ele>405</ele>
        <time>2016-07-30T07:13:03.010Z</time>
      </trkpt>
      <trkpt lat="43.17111" lon="5.89071">
        <ele>403</ele>
        <time>2016-07-30T07:13:04.010Z</time>
      </trkpt>
      <trkpt lat="43.1711" lon="5.8906">
        <ele>402</ele>
        <time>2016-07-30T07:13:05.010Z</time>
      </trkpt>
      <trkpt lat="43.17109" lon="5.89049">
        <ele>402</ele>
        <time>2016-07-30T07:13:06.010Z</time>
      </trkpt>
      <trkpt lat="43.17107" lon="5.89038">
        <ele>401</ele>
        <time>2016-07-30T07:13:07.010Z</time>
      </trkpt>
      <trkpt lat="43.17106" lon="5.89027">
        <ele>401</ele>
        <time>2016-07-30T07:13:08.010Z</time>
      </trkpt>
      <trkpt lat="43.17105" lon="5.89016">
        <ele>400</ele>
        <time>2016-07-30T07:13:09.010Z</time>
      </trkpt>
      <trkpt lat="43.17103" lon="5.89005">
        <ele>400</ele>
        <time>2016-07-30T07:13:10.010Z</time>
      </trkpt>
      <trkpt lat="43.17102" lon="5.88994">
        <ele>399</ele>
        <time>2016-07-30T07:13:11.010Z</time>
      </trkpt>
      <trkpt lat="43.17101" lon="5.88983">
        <ele>399</ele>
        <time>2016-07-30T07:13:12.010Z</time>
      </trkpt>
      <trkpt lat="43.171" lon="5.88973">
        <ele>399</ele>
        <time>2016-07-30T07:13:13.010Z</time>
      </trkpt>
      <trkpt lat="43.17099" lon="5.88963">
        <ele>398</ele>
        <time>2016-07-30T07:13:14.010Z</time>
      </trkpt>
      <trkpt lat="43.17099" lon="5.88953">
        <ele>397</ele>
        <time>2016-07-30T07:13:15.010Z</time>
      </trkpt>
      <trkpt lat="43.17099" lon="5.88943">
        <ele>396</ele>
        <time>2016-07-30T07:13:16.010Z</time>
      </trkpt>
      <trkpt lat="43.17099" lon="5.88934">
        <ele>396</ele>
        <time>2016-07-30T07:13:17.010Z</time>
      </trkpt>
      <trkpt lat="43.17098" lon="5.88925">
        <ele>395</ele>
        <time>2016-07-30T07:13:18.010Z</time>
      </trkpt>
      <trkpt lat="43.17097" lon="5.88916">
        <ele>394</ele>
        <time>2016-07-30T07:13:19.010Z</time>
      </trkpt>
      <trkpt lat="43.17095" lon="5.88907">
        <ele>393</ele>
        <time>2016-07-30T07:13:20.010Z</time>
      </trkpt>
      <trkpt lat="43.17092" lon="5.88899">
        <ele>393</ele>
        <time>2016-07-30T07:13:21.010Z</time>
      </trkpt>
      <trkpt lat="43.17088" lon="5.88891">
        <ele>393</ele>
        <time>2016-07-30T07:13:22.010Z</time>
      </trkpt>
      <trkpt lat="43.17083" lon="5.88884">
        <ele>392</ele>
        <time>2016-07-30T07:13:23.010Z</time>
      </trkpt>
      <trkpt lat="43.17077" lon="5.88876">
        <ele>390</ele>
        <time>2016-07-30T07:13:24.010Z</time>
      </trkpt>
      <trkpt lat="43.1707" lon="5.88869">
        <ele>388</ele>
        <time>2016-07-30T07:13:25.010Z</time>
      </trkpt>
      <trkpt lat="43.17065" lon="5.88862">
        <ele>387</ele>
        <time>2016-07-30T07:13:26.010Z</time>
      </trkpt>
      <trkpt lat="43.1706" lon="5.88855">
        <ele>386</ele>
        <time>2016-07-30T07:13:27.010Z</time>
      </trkpt>
      <trkpt lat="43.17055" lon="5.8885">
        <ele>385</ele>
        <time>2016-07-30T07:13:28.010Z</time>
      </trkpt>
      <trkpt lat="43.1705" lon="5.88846">
        <ele>385</ele>
        <time>2016-07-30T07:13:29.010Z</time>
      </trkpt>
      <trkpt lat="43.17045" lon="5.88844">
        <ele>385</ele>
        <time>2016-07-30T07:13:30.010Z</time>
      </trkpt>
      <trkpt lat="43.17041" lon="5.88842">
        <ele>384</ele>
        <time>2016-07-30T07:13:31.010Z</time>
      </trkpt>
      <trkpt lat="43.17038" lon="5.8884">
        <ele>384</ele>
        <time>2016-07-30T07:13:32.010Z</time>
      </trkpt>
      <trkpt lat="43.17036" lon="5.88839">
        <ele>383</ele>
        <time>2016-07-30T07:13:33.010Z</time>
      </trkpt>
      <trkpt lat="43.17035" lon="5.88838">
        <ele>381</ele>
        <time>2016-07-30T07:13:34.010Z</time>
      </trkpt>
      <trkpt lat="43.17034" lon="5.88839">
        <ele>381</ele>
        <time>2016-07-30T07:13:35.010Z</time>
      </trkpt>
      <trkpt lat="43.17034" lon="5.88842">
        <ele>382</ele>
        <time>2016-07-30T07:13:36.010Z</time>
      </trkpt>
      <trkpt lat="43.17034" lon="5.88846">
        <ele>384</ele>
        <time>2016-07-30T07:13:37.010Z</time>
      </trkpt>
      <trkpt lat="43.17034" lon="5.8885">
        <ele>385</ele>
        <time>2016-07-30T07:13:38.010Z</time>
      </trkpt>
      <trkpt lat="43.17036" lon="5.88854">
        <ele>385</ele>
        <time>2016-07-30T07:13:39.010Z</time>
      </trkpt>
      <trkpt lat="43.17037" lon="5.88858">
        <ele>385</ele>
        <time>2016-07-30T07:13:40.010Z</time>
      </trkpt>
      <trkpt lat="43.17039" lon="5.88861">
        <ele>386</ele>
        <time>2016-07-30T07:13:41.010Z</time>
      </trkpt>
      <trkpt lat="43.17041" lon="5.88866">
        <ele>386</ele>
        <time>2016-07-30T07:13:42.010Z</time>
      </trkpt>
      <trkpt lat="43.17044" lon="5.88869">
        <ele>386</ele>
        <time>2016-07-30T07:13:43.010Z</time>
      </trkpt>
      <trkpt lat="43.17047" lon="5.88873">
        <ele>387</ele>
        <time>2016-07-30T07:13:44.010Z</time>
      </trkpt>
      <trkpt lat="43.1705" lon="5.88877">
        <ele>386</ele>
        <time>2016-07-30T07:13:45.010Z</time>
      </trkpt>
      <trkpt lat="43.17054" lon="5.88882">
        <ele>385</ele>
        <time>2016-07-30T07:13:46.010Z</time>
      </trkpt>
      <trkpt lat="43.17058" lon="5.88886">
        <ele>384</ele>
        <time>2016-07-30T07:13:47.010Z</time>
      </trkpt>
      <trkpt lat="43.17063" lon="5.88891">
        <ele>383</ele>
        <time>2016-07-30T07:13:48.010Z</time>
      </trkpt>
      <trkpt lat="43.17067" lon="5.88895">
        <ele>383</ele>
        <time>2016-07-30T07:13:49.010Z</time>
      </trkpt>
      <trkpt lat="43.1707" lon="5.889">
        <ele>382</ele>
        <time>2016-07-30T07:13:50.010Z</time>
      </trkpt>
      <trkpt lat="43.17073" lon="5.88905">
        <ele>381</ele>
        <time>2016-07-30T07:13:51.010Z</time>
      </trkpt>
      <trkpt lat="43.17074" lon="5.88912">
        <ele>380</ele>
        <time>2016-07-30T07:13:52.010Z</time>
      </trkpt>
      <trkpt lat="43.17075" lon="5.88922">
        <ele>380</ele>
        <time>2016-07-30T07:13:53.010Z</time>
      </trkpt>
      <trkpt lat="43.17075" lon="5.88933">
        <ele>380</ele>
        <time>2016-07-30T07:13:54.010Z</time>
      </trkpt>
      <trkpt lat="43.17076" lon="5.88944">
        <ele>378</ele>
        <time>2016-07-30T07:13:55.010Z</time>
      </trkpt>
      <trkpt lat="43.17076" lon="5.88954">
        <ele>377</ele>
        <time>2016-07-30T07:13:56.010Z</time>
      </trkpt>
      <trkpt lat="43.17077" lon="5.88964">
        <ele>376</ele>
        <time>2016-07-30T07:13:57.010Z</time>
      </trkpt>
      <trkpt lat="43.17077" lon="5.88975">
        <ele>376</ele>
        <time>2016-07-30T07:13:58.010Z</time>
      </trkpt>
      <trkpt lat="43.17077" lon="5.88985">
        <ele>376</ele>
        <time>2016-07-30T07:13:59.010Z</time>
      </trkpt>
      <trkpt lat="43.17077" lon="5.88996">
        <ele>376</ele>
        <time>2016-07-30T07:14:00.010Z</time>
      </trkpt>
      <trkpt lat="43.17077" lon="5.89008">
        <ele>376</ele>
        <time>2016-07-30T07:14:01.010Z</time>
      </trkpt>
      <trkpt lat="43.17078" lon="5.89021">
        <ele>373</ele>
        <time>2016-07-30T07:14:02.010Z</time>
      </trkpt>
      <trkpt lat="43.1708" lon="5.89033">
        <ele>373</ele>
        <time>2016-07-30T07:14:03.010Z</time>
      </trkpt>
      <trkpt lat="43.17082" lon="5.89046">
        <ele>373</ele>
        <time>2016-07-30T07:14:04.010Z</time>
      </trkpt>
      <trkpt lat="43.17082" lon="5.8906">
        <ele>373</ele>
        <time>2016-07-30T07:14:05.010Z</time>
      </trkpt>
      <trkpt lat="43.17081" lon="5.89074">
        <ele>370</ele>
        <time>2016-07-30T07:14:06.010Z</time>
      </trkpt>
      <trkpt lat="43.17078" lon="5.89089">
        <ele>369</ele>
        <time>2016-07-30T07:14:07.010Z</time>
      </trkpt>
      <trkpt lat="43.17074" lon="5.89104">
        <ele>370</ele>
        <time>2016-07-30T07:14:08.010Z</time>
      </trkpt>
      <trkpt lat="43.17072" lon="5.89118">
        <ele>369</ele>
        <time>2016-07-30T07:14:09.010Z</time>
      </trkpt>
      <trkpt lat="43.1707" lon="5.89132">
        <ele>370</ele>
        <time>2016-07-30T07:14:10.010Z</time>
      </trkpt>
      <trkpt lat="43.17069" lon="5.89147">
        <ele>369</ele>
        <time>2016-07-30T07:14:11.010Z</time>
      </trkpt>
      <trkpt lat="43.17069" lon="5.89163">
        <ele>367</ele>
        <time>2016-07-30T07:14:12.010Z</time>
      </trkpt>
      <trkpt lat="43.1707" lon="5.89178">
        <ele>367</ele>
        <time>2016-07-30T07:14:13.010Z</time>
      </trkpt>
      <trkpt lat="43.17072" lon="5.89194">
        <ele>367</ele>
        <time>2016-07-30T07:14:14.010Z</time>
      </trkpt>
      <trkpt lat="43.17073" lon="5.8921">
        <ele>364</ele>
        <time>2016-07-30T07:14:15.010Z</time>
      </trkpt>
      <trkpt lat="43.17072" lon="5.89226">
        <ele>364</ele>
        <time>2016-07-30T07:14:16.010Z</time>
      </trkpt>
      <trkpt lat="43.17069" lon="5.89242">
        <ele>365</ele>
        <time>2016-07-30T07:14:17.010Z</time>
      </trkpt>
      <trkpt lat="43.17066" lon="5.89257">
        <ele>364</ele>
        <time>2016-07-30T07:14:18.010Z</time>
      </trkpt>
      <trkpt lat="43.17064" lon="5.89273">
        <ele>362</ele>
        <time>2016-07-30T07:14:19.010Z</time>
      </trkpt>
      <trkpt lat="43.17062" lon="5.89289">
        <ele>362</ele>
        <time>2016-07-30T07:14:20.010Z</time>
      </trkpt>
      <trkpt lat="43.17061" lon="5.89304">
        <ele>362</ele>
        <time>2016-07-30T07:14:21.010Z</time>
      </trkpt>
      <trkpt lat="43.17059" lon="5.89317">
        <ele>364</ele>
        <time>2016-07-30T07:14:22.010Z</time>
      </trkpt>
      <trkpt lat="43.17057" lon="5.89328">
        <ele>365</ele>
        <time>2016-07-30T07:14:23.010Z</time>
      </trkpt>
      <trkpt lat="43.17055" lon="5.89337">
        <ele>366</ele>
        <time>2016-07-30T07:14:24.010Z</time>
      </trkpt>
      <trkpt lat="43.17054" lon="5.89343">
        <ele>364</ele>
        <time>2016-07-30T07:14:25.010Z</time>
      </trkpt>
      <trkpt lat="43.17052" lon="5.89346">
        <ele>370</ele>
        <time>2016-07-30T07:14:26.010Z</time>
      </trkpt>
      <trkpt lat="43.17048" lon="5.89344">
        <ele>364</ele>
        <time>2016-07-30T07:14:27.010Z</time>
      </trkpt>
      <trkpt lat="43.17045" lon="5.89339">
        <ele>364</ele>
        <time>2016-07-30T07:14:28.010Z</time>
      </trkpt>
      <trkpt lat="43.17042" lon="5.8933">
        <ele>364</ele>
        <time>2016-07-30T07:14:29.010Z</time>
      </trkpt>
      <trkpt lat="43.17043" lon="5.8932">
        <ele>363</ele>
        <time>2016-07-30T07:14:30.010Z</time>
      </trkpt>
      <trkpt lat="43.17044" lon="5.89308">
        <ele>362</ele>
        <time>2016-07-30T07:14:31.010Z</time>
      </trkpt>
      <trkpt lat="43.17045" lon="5.89296">
        <ele>362</ele>
        <time>2016-07-30T07:14:32.010Z</time>
      </trkpt>
      <trkpt lat="43.17045" lon="5.89284">
        <ele>363</ele>
        <time>2016-07-30T07:14:33.010Z</time>
      </trkpt>
      <trkpt lat="43.17045" lon="5.89271">
        <ele>362</ele>
        <time>2016-07-30T07:14:34.010Z</time>
      </trkpt>
      <trkpt lat="43.17045" lon="5.89258">
        <ele>362</ele>
        <time>2016-07-30T07:14:35.010Z</time>
      </trkpt>
      <trkpt lat="43.17046" lon="5.89244">
        <ele>362</ele>
        <time>2016-07-30T07:14:36.010Z</time>
      </trkpt>
      <trkpt lat="43.17045" lon="5.8923">
        <ele>361</ele>
        <time>2016-07-30T07:14:37.010Z</time>
      </trkpt>
      <trkpt lat="43.17044" lon="5.89216">
        <ele>360</ele>
        <time>2016-07-30T07:14:38.010Z</time>
      </trkpt>
      <trkpt lat="43.17041" lon="5.89203">
        <ele>359</ele>
        <time>2016-07-30T07:14:39.010Z</time>
      </trkpt>
      <trkpt lat="43.17039" lon="5.89189">
        <ele>359</ele>
        <time>2016-07-30T07:14:40.010Z</time>
      </trkpt>
      <trkpt lat="43.17036" lon="5.89176">
        <ele>359</ele>
        <time>2016-07-30T07:14:41.010Z</time>
      </trkpt>
      <trkpt lat="43.17032" lon="5.89161">
        <ele>358</ele>
        <time>2016-07-30T07:14:42.010Z</time>
      </trkpt>
      <trkpt lat="43.1703" lon="5.89147">
        <ele>357</ele>
        <time>2016-07-30T07:14:43.010Z</time>
      </trkpt>
      <trkpt lat="43.17028" lon="5.89132">
        <ele>357</ele>
        <time>2016-07-30T07:14:44.010Z</time>
      </trkpt>
      <trkpt lat="43.17027" lon="5.89117">
        <ele>356</ele>
        <time>2016-07-30T07:14:45.010Z</time>
      </trkpt>
      <trkpt lat="43.17026" lon="5.89102">
        <ele>356</ele>
        <time>2016-07-30T07:14:46.010Z</time>
      </trkpt>
      <trkpt lat="43.17024" lon="5.89087">
        <ele>355</ele>
        <time>2016-07-30T07:14:47.010Z</time>
      </trkpt>
      <trkpt lat="43.17021" lon="5.89072">
        <ele>353</ele>
        <time>2016-07-30T07:14:48.010Z</time>
      </trkpt>
      <trkpt lat="43.17018" lon="5.89057">
        <ele>352</ele>
        <time>2016-07-30T07:14:49.010Z</time>
      </trkpt>
      <trkpt lat="43.17014" lon="5.89042">
        <ele>351</ele>
        <time>2016-07-30T07:14:50.010Z</time>
      </trkpt>
      <trkpt lat="43.17012" lon="5.89028">
        <ele>349</ele>
        <time>2016-07-30T07:14:51.010Z</time>
      </trkpt>
      <trkpt lat="43.17008" lon="5.89015">
        <ele>348</ele>
        <time>2016-07-30T07:14:52.010Z</time>
      </trkpt>
      <trkpt lat="43.17005" lon="5.89003">
        <ele>347</ele>
        <time>2016-07-30T07:14:53.010Z</time>
      </trkpt>
      <trkpt lat="43.17002" lon="5.88992">
        <ele>346</ele>
        <time>2016-07-30T07:14:54.010Z</time>
      </trkpt>
      <trkpt lat="43.16996" lon="5.88985">
        <ele>341</ele>
        <time>2016-07-30T07:14:55.010Z</time>
      </trkpt>
      <trkpt lat="43.16988" lon="5.8898">
        <ele>342</ele>
        <time>2016-07-30T07:14:56.010Z</time>
      </trkpt>
      <trkpt lat="43.16978" lon="5.88978">
        <ele>342</ele>
        <time>2016-07-30T07:14:57.010Z</time>
      </trkpt>
      <trkpt lat="43.16968" lon="5.88974">
        <ele>342</ele>
        <time>2016-07-30T07:14:58.010Z</time>
      </trkpt>
      <trkpt lat="43.16958" lon="5.88968">
        <ele>342</ele>
        <time>2016-07-30T07:14:59.010Z</time>
      </trkpt>
      <trkpt lat="43.1695" lon="5.88961">
        <ele>342</ele>
        <time>2016-07-30T07:15:00.010Z</time>
      </trkpt>
      <trkpt lat="43.16943" lon="5.88952">
        <ele>342</ele>
        <time>2016-07-30T07:15:01.010Z</time>
      </trkpt>
      <trkpt lat="43.16937" lon="5.88943">
        <ele>341</ele>
        <time>2016-07-30T07:15:02.010Z</time>
      </trkpt>
      <trkpt lat="43.16931" lon="5.88934">
        <ele>340</ele>
        <time>2016-07-30T07:15:03.010Z</time>
      </trkpt>
      <trkpt lat="43.16924" lon="5.88927">
        <ele>338</ele>
        <time>2016-07-30T07:15:04.010Z</time>
      </trkpt>
      <trkpt lat="43.16917" lon="5.88923">
        <ele>333</ele>
        <time>2016-07-30T07:15:05.010Z</time>
      </trkpt>
      <trkpt lat="43.1691" lon="5.88923">
        <ele>332</ele>
        <time>2016-07-30T07:15:06.010Z</time>
      </trkpt>
      <trkpt lat="43.16905" lon="5.88927">
        <ele>329</ele>
        <time>2016-07-30T07:15:07.010Z</time>
      </trkpt>
      <trkpt lat="43.16902" lon="5.88931">
        <ele>326</ele>
        <time>2016-07-30T07:15:08.010Z</time>
      </trkpt>
      <trkpt lat="43.169" lon="5.88935">
        <ele>322</ele>
        <time>2016-07-30T07:15:09.010Z</time>
      </trkpt>
      <trkpt lat="43.16899" lon="5.88938">
        <ele>319</ele>
        <time>2016-07-30T07:15:10.010Z</time>
      </trkpt>
      <trkpt lat="43.16898" lon="5.88942">
        <ele>317</ele>
        <time>2016-07-30T07:15:11.010Z</time>
      </trkpt>
      <trkpt lat="43.16896" lon="5.88946">
        <ele>314</ele>
        <time>2016-07-30T07:15:12.010Z</time>
      </trkpt>
      <trkpt lat="43.16895" lon="5.88952">
        <ele>308</ele>
        <time>2016-07-30T07:15:13.010Z</time>
      </trkpt>
      <trkpt lat="43.16898" lon="5.8896">
        <ele>302</ele>
        <time>2016-07-30T07:15:14.010Z</time>
      </trkpt>
      <trkpt lat="43.16904" lon="5.88971">
        <ele>296</ele>
        <time>2016-07-30T07:15:15.010Z</time>
      </trkpt>
      <trkpt lat="43.1691" lon="5.88981">
        <ele>291</ele>
        <time>2016-07-30T07:15:16.010Z</time>
      </trkpt>
      <trkpt lat="43.16915" lon="5.88991">
        <ele>289</ele>
        <time>2016-07-30T07:15:17.010Z</time>
      </trkpt>
      <trkpt lat="43.16918" lon="5.89003">
        <ele>289</ele>
        <time>2016-07-30T07:15:18.010Z</time>
      </trkpt>
      <trkpt lat="43.1692" lon="5.89014">
        <ele>287</ele>
        <time>2016-07-30T07:15:19.010Z</time>
      </trkpt>
      <trkpt lat="43.1692" lon="5.89026">
        <ele>282</ele>
        <time>2016-07-30T07:15:20.010Z</time>
      </trkpt>
      <trkpt lat="43.1692" lon="5.89038">
        <ele>281</ele>
        <time>2016-07-30T07:15:21.010Z</time>
      </trkpt>
      <trkpt lat="43.16921" lon="5.89054">
        <ele>288</ele>
        <time>2016-07-30T07:15:22.010Z</time>
      </trkpt>
      <trkpt lat="43.16923" lon="5.89076">
        <ele>303</ele>
        <time>2016-07-30T07:15:23.010Z</time>
      </trkpt>
      <trkpt lat="43.16927" lon="5.89098">
        <ele>306</ele>
        <time>2016-07-30T07:15:24.010Z</time>
      </trkpt>
      <trkpt lat="43.1693" lon="5.89117">
        <ele>306</ele>
        <time>2016-07-30T07:15:25.010Z</time>
      </trkpt>
      <trkpt lat="43.16934" lon="5.89133">
        <ele>308</ele>
        <time>2016-07-30T07:15:26.010Z</time>
      </trkpt>
      <trkpt lat="43.16938" lon="5.89149">
        <ele>310</ele>
        <time>2016-07-30T07:15:27.010Z</time>
      </trkpt>
      <trkpt lat="43.16942" lon="5.89167">
        <ele>314</ele>
        <time>2016-07-30T07:15:28.010Z</time>
      </trkpt>
      <trkpt lat="43.16945" lon="5.89185">
        <ele>315</ele>
        <time>2016-07-30T07:15:29.010Z</time>
      </trkpt>
      <trkpt lat="43.16948" lon="5.89203">
        <ele>316</ele>
        <time>2016-07-30T07:15:30.010Z</time>
      </trkpt>
      <trkpt lat="43.1695" lon="5.8922">
        <ele>318</ele>
        <time>2016-07-30T07:15:31.010Z</time>
      </trkpt>
      <trkpt lat="43.16952" lon="5.89237">
        <ele>319</ele>
        <time>2016-07-30T07:15:32.010Z</time>
      </trkpt>
      <trkpt lat="43.16954" lon="5.89254">
        <ele>320</ele>
        <time>2016-07-30T07:15:33.010Z</time>
      </trkpt>
      <trkpt lat="43.16955" lon="5.8927">
        <ele>319</ele>
        <time>2016-07-30T07:15:34.010Z</time>
      </trkpt>
      <trkpt lat="43.16956" lon="5.89287">
        <ele>318</ele>
        <time>2016-07-30T07:15:35.010Z</time>
      </trkpt>
      <trkpt lat="43.16956" lon="5.89305">
        <ele>317</ele>
        <time>2016-07-30T07:15:36.010Z</time>
      </trkpt>
      <trkpt lat="43.16957" lon="5.89323">
        <ele>317</ele>
        <time>2016-07-30T07:15:37.010Z</time>
      </trkpt>
      <trkpt lat="43.16957" lon="5.89342">
        <ele>317</ele>
        <time>2016-07-30T07:15:38.010Z</time>
      </trkpt>
      <trkpt lat="43.16957" lon="5.89361">
        <ele>318</ele>
        <time>2016-07-30T07:15:39.010Z</time>
      </trkpt>
      <trkpt lat="43.16958" lon="5.89381">
        <ele>319</ele>
        <time>2016-07-30T07:15:40.010Z</time>
      </trkpt>
      <trkpt lat="43.16958" lon="5.894">
        <ele>319</ele>
        <time>2016-07-30T07:15:41.010Z</time>
      </trkpt>
      <trkpt lat="43.16959" lon="5.8942">
        <ele>317</ele>
        <time>2016-07-30T07:15:42.010Z</time>
      </trkpt>
      <trkpt lat="43.1696" lon="5.8944">
        <ele>316</ele>
        <time>2016-07-30T07:15:43.010Z</time>
      </trkpt>
      <trkpt lat="43.16962" lon="5.8946">
        <ele>314</ele>
        <time>2016-07-30T07:15:44.010Z</time>
      </trkpt>
      <trkpt lat="43.16964" lon="5.8948">
        <ele>310</ele>
        <time>2016-07-30T07:15:45.010Z</time>
      </trkpt>
      <trkpt lat="43.16967" lon="5.89499">
        <ele>309</ele>
        <time>2016-07-30T07:15:46.010Z</time>
      </trkpt>
      <trkpt lat="43.1697" lon="5.89517">
        <ele>308</ele>
        <time>2016-07-30T07:15:47.010Z</time>
      </trkpt>
      <trkpt lat="43.16972" lon="5.89533">
        <ele>308</ele>
        <time>2016-07-30T07:15:48.010Z</time>
      </trkpt>
      <trkpt lat="43.16976" lon="5.89547">
        <ele>309</ele>
        <time>2016-07-30T07:15:49.010Z</time>
      </trkpt>
      <trkpt lat="43.16981" lon="5.8956">
        <ele>308</ele>
        <time>2016-07-30T07:15:50.010Z</time>
      </trkpt>
      <trkpt lat="43.16988" lon="5.89571">
        <ele>307</ele>
        <time>2016-07-30T07:15:51.010Z</time>
      </trkpt>
      <trkpt lat="43.16996" lon="5.89581">
        <ele>307</ele>
        <time>2016-07-30T07:15:52.010Z</time>
      </trkpt>
      <trkpt lat="43.17001" lon="5.89592">
        <ele>306</ele>
        <time>2016-07-30T07:15:53.010Z</time>
      </trkpt>
      <trkpt lat="43.17004" lon="5.89603">
        <ele>304</ele>
        <time>2016-07-30T07:15:54.010Z</time>
      </trkpt>
      <trkpt lat="43.17004" lon="5.89615">
        <ele>302</ele>
        <time>2016-07-30T07:15:55.010Z</time>
      </trkpt>
      <trkpt lat="43.17001" lon="5.89628">
        <ele>303</ele>
        <time>2016-07-30T07:15:56.010Z</time>
      </trkpt>
      <trkpt lat="43.16998" lon="5.8964">
        <ele>302</ele>
        <time>2016-07-30T07:15:57.010Z</time>
      </trkpt>
      <trkpt lat="43.16996" lon="5.89654">
        <ele>300</ele>
        <time>2016-07-30T07:15:58.010Z</time>
      </trkpt>
      <trkpt lat="43.16995" lon="5.89667">
        <ele>299</ele>
        <time>2016-07-30T07:15:59.010Z</time>
      </trkpt>
      <trkpt lat="43.16997" lon="5.89682">
        <ele>299</ele>
        <time>2016-07-30T07:16:00.010Z</time>
      </trkpt>
      <trkpt lat="43.17001" lon="5.89696">
        <ele>297</ele>
        <time>2016-07-30T07:16:01.010Z</time>
      </trkpt>
      <trkpt lat="43.17005" lon="5.8971">
        <ele>296</ele>
        <time>2016-07-30T07:16:02.010Z</time>
      </trkpt>
      <trkpt lat="43.1701" lon="5.89725">
        <ele>296</ele>
        <time>2016-07-30T07:16:03.010Z</time>
      </trkpt>
      <trkpt lat="43.17013" lon="5.89741">
        <ele>295</ele>
        <time>2016-07-30T07:16:04.010Z</time>
      </trkpt>
      <trkpt lat="43.17014" lon="5.89757">
        <ele>295</ele>
        <time>2016-07-30T07:16:05.010Z</time>
      </trkpt>
      <trkpt lat="43.17013" lon="5.89773">
        <ele>294</ele>
        <time>2016-07-30T07:16:06.010Z</time>
      </trkpt>
      <trkpt lat="43.17011" lon="5.89789">
        <ele>294</ele>
        <time>2016-07-30T07:16:07.010Z</time>
      </trkpt>
      <trkpt lat="43.1701" lon="5.89806">
        <ele>293</ele>
        <time>2016-07-30T07:16:08.010Z</time>
      </trkpt>
      <trkpt lat="43.1701" lon="5.89822">
        <ele>293</ele>
        <time>2016-07-30T07:16:09.010Z</time>
      </trkpt>
      <trkpt lat="43.17011" lon="5.89838">
        <ele>293</ele>
        <time>2016-07-30T07:16:10.010Z</time>
      </trkpt>
      <trkpt lat="43.17013" lon="5.89855">
        <ele>292</ele>
        <time>2016-07-30T07:16:11.010Z</time>
      </trkpt>
      <trkpt lat="43.17015" lon="5.89871">
        <ele>291</ele>
        <time>2016-07-30T07:16:12.010Z</time>
      </trkpt>
      <trkpt lat="43.17014" lon="5.89887">
        <ele>290</ele>
        <time>2016-07-30T07:16:13.010Z</time>
      </trkpt>
      <trkpt lat="43.17013" lon="5.89903">
        <ele>289</ele>
        <time>2016-07-30T07:16:14.010Z</time>
      </trkpt>
      <trkpt lat="43.17011" lon="5.89917">
        <ele>290</ele>
        <time>2016-07-30T07:16:15.010Z</time>
      </trkpt>
      <trkpt lat="43.17009" lon="5.89928">
        <ele>289</ele>
        <time>2016-07-30T07:16:16.010Z</time>
      </trkpt>
      <trkpt lat="43.17007" lon="5.89937">
        <ele>288</ele>
        <time>2016-07-30T07:16:17.010Z</time>
      </trkpt>
      <trkpt lat="43.17005" lon="5.89945">
        <ele>288</ele>
        <time>2016-07-30T07:16:18.010Z</time>
      </trkpt>
      <trkpt lat="43.16999" lon="5.89948">
        <ele>288</ele>
        <time>2016-07-30T07:16:19.010Z</time>
      </trkpt>
      <trkpt lat="43.16994" lon="5.89946">
        <ele>288</ele>
        <time>2016-07-30T07:16:20.010Z</time>
      </trkpt>
      <trkpt lat="43.16991" lon="5.89938">
        <ele>287</ele>
        <time>2016-07-30T07:16:21.010Z</time>
      </trkpt>
      <trkpt lat="43.16993" lon="5.89929">
        <ele>286</ele>
        <time>2016-07-30T07:16:22.010Z</time>
      </trkpt>
      <trkpt lat="43.16998" lon="5.8992">
        <ele>286</ele>
        <time>2016-07-30T07:16:23.010Z</time>
      </trkpt>
      <trkpt lat="43.17002" lon="5.89912">
        <ele>286</ele>
        <time>2016-07-30T07:16:24.010Z</time>
      </trkpt>
      <trkpt lat="43.17006" lon="5.89901">
        <ele>285</ele>
        <time>2016-07-30T07:16:25.010Z</time>
      </trkpt>
      <trkpt lat="43.17009" lon="5.89889">
        <ele>284</ele>
        <time>2016-07-30T07:16:26.010Z</time>
      </trkpt>
      <trkpt lat="43.1701" lon="5.89876">
        <ele>284</ele>
        <time>2016-07-30T07:16:27.010Z</time>
      </trkpt>
      <trkpt lat="43.1701" lon="5.89862">
        <ele>283</ele>
        <time>2016-07-30T07:16:28.010Z</time>
      </trkpt>
      <trkpt lat="43.17009" lon="5.89848">
        <ele>283</ele>
        <time>2016-07-30T07:16:29.010Z</time>
      </trkpt>
      <trkpt lat="43.17007" lon="5.89833">
        <ele>283</ele>
        <time>2016-07-30T07:16:30.010Z</time>
      </trkpt>
      <trkpt lat="43.17005" lon="5.89818">
        <ele>282</ele>
        <time>2016-07-30T07:16:31.010Z</time>
      </trkpt>
      <trkpt lat="43.17005" lon="5.89803">
        <ele>281</ele>
        <time>2016-07-30T07:16:32.010Z</time>
      </trkpt>
      <trkpt lat="43.17005" lon="5.89788">
        <ele>281</ele>
        <time>2016-07-30T07:16:33.010Z</time>
      </trkpt>
      <trkpt lat="43.17006" lon="5.89773">
        <ele>280</ele>
        <time>2016-07-30T07:16:34.010Z</time>
      </trkpt>
      <trkpt lat="43.17006" lon="5.89759">
        <ele>280</ele>
        <time>2016-07-30T07:16:35.010Z</time>
      </trkpt>
      <trkpt lat="43.17003" lon="5.89745">
        <ele>278</ele>
        <time>2016-07-30T07:16:36.010Z</time>
      </trkpt>
      <trkpt lat="43.16997" lon="5.89732">
        <ele>280</ele>
        <time>2016-07-30T07:16:37.010Z</time>
      </trkpt>
      <trkpt lat="43.1699" lon="5.89721">
        <ele>280</ele>
        <time>2016-07-30T07:16:38.010Z</time>
      </trkpt>
      <trkpt lat="43.16981" lon="5.89711">
        <ele>279</ele>
        <time>2016-07-30T07:16:39.010Z</time>
      </trkpt>
      <trkpt lat="43.16973" lon="5.897">
        <ele>279</ele>
        <time>2016-07-30T07:16:40.010Z</time>
      </trkpt>
      <trkpt lat="43.16968" lon="5.89688">
        <ele>279</ele>
        <time>2016-07-30T07:16:41.010Z</time>
      </trkpt>
      <trkpt lat="43.16966" lon="5.89675">
        <ele>279</ele>
        <time>2016-07-30T07:16:42.010Z</time>
      </trkpt>
      <trkpt lat="43.16965" lon="5.89662">
        <ele>278</ele>
        <time>2016-07-30T07:16:43.010Z</time>
      </trkpt>
      <trkpt lat="43.16964" lon="5.8965">
        <ele>278</ele>
        <time>2016-07-30T07:16:44.010Z</time>
      </trkpt>
      <trkpt lat="43.16963" lon="5.8964">
        <ele>277</ele>
        <time>2016-07-30T07:16:45.010Z</time>
      </trkpt>
      <trkpt lat="43.16959" lon="5.89635">
        <ele>277</ele>
        <time>2016-07-30T07:16:46.010Z</time>
      </trkpt>
      <trkpt lat="43.16955" lon="5.89634">
        <ele>276</ele>
        <time>2016-07-30T07:16:47.010Z</time>
      </trkpt>
      <trkpt lat="43.16951" lon="5.89641">
        <ele>275</ele>
        <time>2016-07-30T07:16:48.010Z</time>
      </trkpt>
      <trkpt lat="43.1695" lon="5.89651">
        <ele>276</ele>
        <time>2016-07-30T07:16:49.010Z</time>
      </trkpt>
      <trkpt lat="43.16954" lon="5.89664">
        <ele>276</ele>
        <time>2016-07-30T07:16:50.010Z</time>
      </trkpt>
      <trkpt lat="43.16959" lon="5.89677">
        <ele>277</ele>
        <time>2016-07-30T07:16:51.010Z</time>
      </trkpt>
      <trkpt lat="43.16964" lon="5.8969">
        <ele>278</ele>
        <time>2016-07-30T07:16:52.010Z</time>
      </trkpt>
      <trkpt lat="43.16969" lon="5.89702">
        <ele>278</ele>
        <time>2016-07-30T07:16:53.010Z</time>
      </trkpt>
      <trkpt lat="43.16975" lon="5.89713">
        <ele>277</ele>
        <time>2016-07-30T07:16:54.010Z</time>
      </trkpt>
      <trkpt lat="43.16982" lon="5.89724">
        <ele>277</ele>
        <time>2016-07-30T07:16:55.010Z</time>
      </trkpt>
      <trkpt lat="43.16987" lon="5.89737">
        <ele>276</ele>
        <time>2016-07-30T07:16:56.010Z</time>
      </trkpt>
      <trkpt lat="43.16989" lon="5.89752">
        <ele>275</ele>
        <time>2016-07-30T07:16:57.010Z</time>
      </trkpt>
      <trkpt lat="43.16989" lon="5.89768">
        <ele>274</ele>
        <time>2016-07-30T07:16:58.010Z</time>
      </trkpt>
      <trkpt lat="43.16989" lon="5.89784">
        <ele>274</ele>
        <time>2016-07-30T07:16:59.010Z</time>
      </trkpt>
      <trkpt lat="43.16988" lon="5.898">
        <ele>273</ele>
        <time>2016-07-30T07:17:00.010Z</time>
      </trkpt>
      <trkpt lat="43.16986" lon="5.89817">
        <ele>272</ele>
        <time>2016-07-30T07:17:01.010Z</time>
      </trkpt>
      <trkpt lat="43.16984" lon="5.89833">
        <ele>272</ele>
        <time>2016-07-30T07:17:02.010Z</time>
      </trkpt>
      <trkpt lat="43.1698" lon="5.8985">
        <ele>271</ele>
        <time>2016-07-30T07:17:03.010Z</time>
      </trkpt>
      <trkpt lat="43.16976" lon="5.89867">
        <ele>270</ele>
        <time>2016-07-30T07:17:04.010Z</time>
      </trkpt>
      <trkpt lat="43.16972" lon="5.89884">
        <ele>269</ele>
        <time>2016-07-30T07:17:05.010Z</time>
      </trkpt>
      <trkpt lat="43.16967" lon="5.899">
        <ele>268</ele>
        <time>2016-07-30T07:17:06.010Z</time>
      </trkpt>
      <trkpt lat="43.16961" lon="5.89917">
        <ele>267</ele>
        <time>2016-07-30T07:17:07.010Z</time>
      </trkpt>
      <trkpt lat="43.16954" lon="5.89933">
        <ele>266</ele>
        <time>2016-07-30T07:17:08.010Z</time>
      </trkpt>
      <trkpt lat="43.16947" lon="5.89948">
        <ele>264</ele>
        <time>2016-07-30T07:17:09.010Z</time>
      </trkpt>
      <trkpt lat="43.1694" lon="5.89964">
        <ele>263</ele>
        <time>2016-07-30T07:17:10.010Z</time>
      </trkpt>
      <trkpt lat="43.16932" lon="5.8998">
        <ele>262</ele>
        <time>2016-07-30T07:17:11.010Z</time>
      </trkpt>
      <trkpt lat="43.16924" lon="5.89995">
        <ele>261</ele>
        <time>2016-07-30T07:17:12.010Z</time>
      </trkpt>
      <trkpt lat="43.16917" lon="5.90011">
        <ele>260</ele>
        <time>2016-07-30T07:17:13.010Z</time>
      </trkpt>
      <trkpt lat="43.16909" lon="5.90025">
        <ele>259</ele>
        <time>2016-07-30T07:17:14.010Z</time>
      </trkpt>
      <trkpt lat="43.16901" lon="5.90037">
        <ele>257</ele>
        <time>2016-07-30T07:17:15.010Z</time>
      </trkpt>
      <trkpt lat="43.16892" lon="5.90047">
        <ele>256</ele>
        <time>2016-07-30T07:17:16.010Z</time>
      </trkpt>
      <trkpt lat="43.16883" lon="5.90056">
        <ele>257</ele>
        <time>2016-07-30T07:17:17.010Z</time>
      </trkpt>
      <trkpt lat="43.16873" lon="5.90063">
        <ele>255</ele>
        <time>2016-07-30T07:17:18.010Z</time>
      </trkpt>
      <trkpt lat="43.16863" lon="5.90068">
        <ele>254</ele>
        <time>2016-07-30T07:17:19.010Z</time>
      </trkpt>
      <trkpt lat="43.16853" lon="5.90069">
        <ele>253</ele>
        <time>2016-07-30T07:17:20.010Z</time>
      </trkpt>
      <trkpt lat="43.16845" lon="5.90066">
        <ele>252</ele>
        <time>2016-07-30T07:17:21.010Z</time>
      </trkpt>
      <trkpt lat="43.16838" lon="5.90061">
        <ele>253</ele>
        <time>2016-07-30T07:17:22.010Z</time>
      </trkpt>
      <trkpt lat="43.16832" lon="5.90055">
        <ele>256</ele>
        <time>2016-07-30T07:17:23.010Z</time>
      </trkpt>
      <trkpt lat="43.16827" lon="5.9005">
        <ele>261</ele>
        <time>2016-07-30T07:17:24.010Z</time>
      </trkpt>
      <trkpt lat="43.16825" lon="5.90044">
        <ele>265</ele>
        <time>2016-07-30T07:17:25.010Z</time>
      </trkpt>
      <trkpt lat="43.16828" lon="5.90036">
        <ele>269</ele>
        <time>2016-07-30T07:17:26.010Z</time>
      </trkpt>
      <trkpt lat="43.16836" lon="5.90025">
        <ele>268</ele>
        <time>2016-07-30T07:17:27.010Z</time>
      </trkpt>
      <trkpt lat="43.16845" lon="5.90013">
        <ele>268</ele>
        <time>2016-07-30T07:17:28.010Z</time>
      </trkpt>
      <trkpt lat="43.16855" lon="5.9">
        <ele>268</ele>
        <time>2016-07-30T07:17:29.010Z</time>
      </trkpt>
      <trkpt lat="43.16864" lon="5.89987">
        <ele>266</ele>
        <time>2016-07-30T07:17:30.010Z</time>
      </trkpt>
      <trkpt lat="43.16871" lon="5.89974">
        <ele>265</ele>
        <time>2016-07-30T07:17:31.010Z</time>
      </trkpt>
      <trkpt lat="43.16877" lon="5.8996">
        <ele>266</ele>
        <time>2016-07-30T07:17:32.010Z</time>
      </trkpt>
      <trkpt lat="43.16882" lon="5.89948">
        <ele>266</ele>
        <time>2016-07-30T07:17:33.010Z</time>
      </trkpt>
      <trkpt lat="43.16885" lon="5.89935">
        <ele>263</ele>
        <time>2016-07-30T07:17:34.010Z</time>
      </trkpt>
      <trkpt lat="43.16888" lon="5.89923">
        <ele>260</ele>
        <time>2016-07-30T07:17:35.010Z</time>
      </trkpt>
      <trkpt lat="43.1689" lon="5.89911">
        <ele>255</ele>
        <time>2016-07-30T07:17:36.010Z</time>
      </trkpt>
      <trkpt lat="43.16892" lon="5.899">
        <ele>248</ele>
        <time>2016-07-30T07:17:37.010Z</time>
      </trkpt>
      <trkpt lat="43.16894" lon="5.8989">
        <ele>246</ele>
        <time>2016-07-30T07:17:38.010Z</time>
      </trkpt>
      <trkpt lat="43.16895" lon="5.8988">
        <ele>243</ele>
        <time>2016-07-30T07:17:39.010Z</time>
      </trkpt>
      <trkpt lat="43.16895" lon="5.89872">
        <ele>237</ele>
        <time>2016-07-30T07:17:40.010Z</time>
      </trkpt>
      <trkpt lat="43.16891" lon="5.89866">
        <ele>234</ele>
        <time>2016-07-30T07:17:41.010Z</time>
      </trkpt>
      <trkpt lat="43.16886" lon="5.89861">
        <ele>228</ele>
        <time>2016-07-30T07:17:42.010Z</time>
      </trkpt>
      <trkpt lat="43.16879" lon="5.89855">
        <ele>222</ele>
        <time>2016-07-30T07:17:43.010Z</time>
      </trkpt>
      <trkpt lat="43.16874" lon="5.8985">
        <ele>219</ele>
        <time>2016-07-30T07:17:44.010Z</time>
      </trkpt>
      <trkpt lat="43.16865" lon="5.89847">
        <ele>222</ele>
        <time>2016-07-30T07:17:45.010Z</time>
      </trkpt>
      <trkpt lat="43.16853" lon="5.89844">
        <ele>224</ele>
        <time>2016-07-30T07:17:46.010Z</time>
      </trkpt>
      <trkpt lat="43.16838" lon="5.89844">
        <ele>225</ele>
        <time>2016-07-30T07:17:47.010Z</time>
      </trkpt>
      <trkpt lat="43.16823" lon="5.89842">
        <ele>223</ele>
        <time>2016-07-30T07:17:48.010Z</time>
      </trkpt>
      <trkpt lat="43.16809" lon="5.89842">
        <ele>219</ele>
        <time>2016-07-30T07:17:49.010Z</time>
      </trkpt>
      <trkpt lat="43.16797" lon="5.89842">
        <ele>216</ele>
        <time>2016-07-30T07:17:50.010Z</time>
      </trkpt>
      <trkpt lat="43.16784" lon="5.89843">
        <ele>212</ele>
        <time>2016-07-30T07:17:51.010Z</time>
      </trkpt>
      <trkpt lat="43.16772" lon="5.89844">
        <ele>209</ele>
        <time>2016-07-30T07:17:52.010Z</time>
      </trkpt>
      <trkpt lat="43.16759" lon="5.89847">
        <ele>206</ele>
        <time>2016-07-30T07:17:53.010Z</time>
      </trkpt>
      <trkpt lat="43.16745" lon="5.89852">
        <ele>202</ele>
        <time>2016-07-30T07:17:54.010Z</time>
      </trkpt>
      <trkpt lat="43.1673" lon="5.89858">
        <ele>201</ele>
        <time>2016-07-30T07:17:55.010Z</time>
      </trkpt>
      <trkpt lat="43.16716" lon="5.89865">
        <ele>199</ele>
        <time>2016-07-30T07:17:56.010Z</time>
      </trkpt>
      <trkpt lat="43.16703" lon="5.89871">
        <ele>195</ele>
        <time>2016-07-30T07:17:57.010Z</time>
      </trkpt>
      <trkpt lat="43.16691" lon="5.89876">
        <ele>191</ele>
        <time>2016-07-30T07:17:58.010Z</time>
      </trkpt>
      <trkpt lat="43.16679" lon="5.89882">
        <ele>187</ele>
        <time>2016-07-30T07:17:59.010Z</time>
      </trkpt>
      <trkpt lat="43.16667" lon="5.89888">
        <ele>184</ele>
        <time>2016-07-30T07:18:00.010Z</time>
      </trkpt>
      <trkpt lat="43.16654" lon="5.89895">
        <ele>181</ele>
        <time>2016-07-30T07:18:01.010Z</time>
      </trkpt>
      <trkpt lat="43.16641" lon="5.89905">
        <ele>180</ele>
        <time>2016-07-30T07:18:02.010Z</time>
      </trkpt>
      <trkpt lat="43.16628" lon="5.89916">
        <ele>179</ele>
        <time>2016-07-30T07:18:03.010Z</time>
      </trkpt>
      <trkpt lat="43.16616" lon="5.89928">
        <ele>177</ele>
        <time>2016-07-30T07:18:04.010Z</time>
      </trkpt>
      <trkpt lat="43.16605" lon="5.89939">
        <ele>177</ele>
        <time>2016-07-30T07:18:05.010Z</time>
      </trkpt>
      <trkpt lat="43.16595" lon="5.89947">
        <ele>181</ele>
        <time>2016-07-30T07:18:06.010Z</time>
      </trkpt>
      <trkpt lat="43.16586" lon="5.89953">
        <ele>184</ele>
        <time>2016-07-30T07:18:07.010Z</time>
      </trkpt>
      <trkpt lat="43.16577" lon="5.89955">
        <ele>187</ele>
        <time>2016-07-30T07:18:08.010Z</time>
      </trkpt>
      <trkpt lat="43.16569" lon="5.89954">
        <ele>190</ele>
        <time>2016-07-30T07:18:09.010Z</time>
      </trkpt>
      <trkpt lat="43.1656" lon="5.89954">
        <ele>193</ele>
        <time>2016-07-30T07:18:10.010Z</time>
      </trkpt>
      <trkpt lat="43.16551" lon="5.89957">
        <ele>196</ele>
        <time>2016-07-30T07:18:11.010Z</time>
      </trkpt>
      <trkpt lat="43.16542" lon="5.89963">
        <ele>195</ele>
        <time>2016-07-30T07:18:12.010Z</time>
      </trkpt>
      <trkpt lat="43.16534" lon="5.89971">
        <ele>195</ele>
        <time>2016-07-30T07:18:13.010Z</time>
      </trkpt>
      <trkpt lat="43.16529" lon="5.89985">
        <ele>197</ele>
        <time>2016-07-30T07:18:14.010Z</time>
      </trkpt>
      <trkpt lat="43.16527" lon="5.90004">
        <ele>198</ele>
        <time>2016-07-30T07:18:15.010Z</time>
      </trkpt>
      <trkpt lat="43.16525" lon="5.90026">
        <ele>201</ele>
        <time>2016-07-30T07:18:16.010Z</time>
      </trkpt>
      <trkpt lat="43.1652" lon="5.90045">
        <ele>203</ele>
        <time>2016-07-30T07:18:17.010Z</time>
      </trkpt>
      <trkpt lat="43.16514" lon="5.9006">
        <ele>204</ele>
        <time>2016-07-30T07:18:18.010Z</time>
      </trkpt>
      <trkpt lat="43.16506" lon="5.90071">
        <ele>203</ele>
        <time>2016-07-30T07:18:19.010Z</time>
      </trkpt>
      <trkpt lat="43.16496" lon="5.90078">
        <ele>202</ele>
        <time>2016-07-30T07:18:20.010Z</time>
      </trkpt>
      <trkpt lat="43.16486" lon="5.9008">
        <ele>203</ele>
        <time>2016-07-30T07:18:21.010Z</time>
      </trkpt>
      <trkpt lat="43.16475" lon="5.90078">
        <ele>202</ele>
        <time>2016-07-30T07:18:22.010Z</time>
      </trkpt>
      <trkpt lat="43.16464" lon="5.90075">
        <ele>203</ele>
        <time>2016-07-30T07:18:23.010Z</time>
      </trkpt>
      <trkpt lat="43.16454" lon="5.90072">
        <ele>203</ele>
        <time>2016-07-30T07:18:24.010Z</time>
      </trkpt>
      <trkpt lat="43.16443" lon="5.90069">
        <ele>203</ele>
        <time>2016-07-30T07:18:25.010Z</time>
      </trkpt>
      <trkpt lat="43.16432" lon="5.90067">
        <ele>204</ele>
        <time>2016-07-30T07:18:26.010Z</time>
      </trkpt>
      <trkpt lat="43.16422" lon="5.90063">
        <ele>204</ele>
        <time>2016-07-30T07:18:27.010Z</time>
      </trkpt>
      <trkpt lat="43.16413" lon="5.90057">
        <ele>204</ele>
        <time>2016-07-30T07:18:28.010Z</time>
      </trkpt>
      <trkpt lat="43.16405" lon="5.90047">
        <ele>204</ele>
        <time>2016-07-30T07:18:29.010Z</time>
      </trkpt>
      <trkpt lat="43.16398" lon="5.90035">
        <ele>204</ele>
        <time>2016-07-30T07:18:30.010Z</time>
      </trkpt>
      <trkpt lat="43.1639" lon="5.90025">
        <ele>204</ele>
        <time>2016-07-30T07:18:31.010Z</time>
      </trkpt>
      <trkpt lat="43.1638" lon="5.90017">
        <ele>203</ele>
        <time>2016-07-30T07:18:32.010Z</time>
      </trkpt>
      <trkpt lat="43.1637" lon="5.90012">
        <ele>204</ele>
        <time>2016-07-30T07:18:33.010Z</time>
      </trkpt>
      <trkpt lat="43.16359" lon="5.90009">
        <ele>203</ele>
        <time>2016-07-30T07:18:34.010Z</time>
      </trkpt>
      <trkpt lat="43.16348" lon="5.90008">
        <ele>202</ele>
        <time>2016-07-30T07:18:35.010Z</time>
      </trkpt>
      <trkpt lat="43.16336" lon="5.90009">
        <ele>201</ele>
        <time>2016-07-30T07:18:36.010Z</time>
      </trkpt>
      <trkpt lat="43.16326" lon="5.90015">
        <ele>201</ele>
        <time>2016-07-30T07:18:37.010Z</time>
      </trkpt>
      <trkpt lat="43.16318" lon="5.90024">
        <ele>201</ele>
        <time>2016-07-30T07:18:38.010Z</time>
      </trkpt>
      <trkpt lat="43.16312" lon="5.90038">
        <ele>201</ele>
        <time>2016-07-30T07:18:39.010Z</time>
      </trkpt>
      <trkpt lat="43.16308" lon="5.90054">
        <ele>200</ele>
        <time>2016-07-30T07:18:40.010Z</time>
      </trkpt>
      <trkpt lat="43.16305" lon="5.90072">
        <ele>199</ele>
        <time>2016-07-30T07:18:41.010Z</time>
      </trkpt>
      <trkpt lat="43.16302" lon="5.9009">
        <ele>199</ele>
        <time>2016-07-30T07:18:42.010Z</time>
      </trkpt>
      <trkpt lat="43.16299" lon="5.90107">
        <ele>198</ele>
        <time>2016-07-30T07:18:43.010Z</time>
      </trkpt>
      <trkpt lat="43.16294" lon="5.90123">
        <ele>197</ele>
        <time>2016-07-30T07:18:44.010Z</time>
      </trkpt>
      <trkpt lat="43.16287" lon="5.90136">
        <ele>196</ele>
        <time>2016-07-30T07:18:45.010Z</time>
      </trkpt>
      <trkpt lat="43.16278" lon="5.90148">
        <ele>195</ele>
        <time>2016-07-30T07:18:46.010Z</time>
      </trkpt>
      <trkpt lat="43.16268" lon="5.90158">
        <ele>194</ele>
        <time>2016-07-30T07:18:47.010Z</time>
      </trkpt>
      <trkpt lat="43.16258" lon="5.90168">
        <ele>193</ele>
        <time>2016-07-30T07:18:48.010Z</time>
      </trkpt>
      <trkpt lat="43.16249" lon="5.90177">
        <ele>193</ele>
        <time>2016-07-30T07:18:49.010Z</time>
      </trkpt>
      <trkpt lat="43.16239" lon="5.90186">
        <ele>191</ele>
        <time>2016-07-30T07:18:50.010Z</time>
      </trkpt>
      <trkpt lat="43.16229" lon="5.90192">
        <ele>191</ele>
        <time>2016-07-30T07:18:51.010Z</time>
      </trkpt>
      <trkpt lat="43.1622" lon="5.90195">
        <ele>191</ele>
        <time>2016-07-30T07:18:52.010Z</time>
      </trkpt>
      <trkpt lat="43.16211" lon="5.90193">
        <ele>189</ele>
        <time>2016-07-30T07:18:53.010Z</time>
      </trkpt>
      <trkpt lat="43.16202" lon="5.90188">
        <ele>189</ele>
        <time>2016-07-30T07:18:54.010Z</time>
      </trkpt>
      <trkpt lat="43.16193" lon="5.90183">
        <ele>188</ele>
        <time>2016-07-30T07:18:55.010Z</time>
      </trkpt>
      <trkpt lat="43.16184" lon="5.90182">
        <ele>187</ele>
        <time>2016-07-30T07:18:56.010Z</time>
      </trkpt>
      <trkpt lat="43.16174" lon="5.90185">
        <ele>186</ele>
        <time>2016-07-30T07:18:57.010Z</time>
      </trkpt>
      <trkpt lat="43.16164" lon="5.90192">
        <ele>185</ele>
        <time>2016-07-30T07:18:58.010Z</time>
      </trkpt>
      <trkpt lat="43.16155" lon="5.90201">
        <ele>185</ele>
        <time>2016-07-30T07:18:59.010Z</time>
      </trkpt>
      <trkpt lat="43.16146" lon="5.9021">
        <ele>184</ele>
        <time>2016-07-30T07:19:00.010Z</time>
      </trkpt>
      <trkpt lat="43.16137" lon="5.90218">
        <ele>183</ele>
        <time>2016-07-30T07:19:01.010Z</time>
      </trkpt>
      <trkpt lat="43.16127" lon="5.90223">
        <ele>182</ele>
        <time>2016-07-30T07:19:02.010Z</time>
      </trkpt>
      <trkpt lat="43.16117" lon="5.90223">
        <ele>180</ele>
        <time>2016-07-30T07:19:03.010Z</time>
      </trkpt>
      <trkpt lat="43.16108" lon="5.90219">
        <ele>180</ele>
        <time>2016-07-30T07:19:04.010Z</time>
      </trkpt>
      <trkpt lat="43.16099" lon="5.9021">
        <ele>179</ele>
        <time>2016-07-30T07:19:05.010Z</time>
      </trkpt>
      <trkpt lat="43.16091" lon="5.90201">
        <ele>179</ele>
        <time>2016-07-30T07:19:06.010Z</time>
      </trkpt>
      <trkpt lat="43.16083" lon="5.90192">
        <ele>177</ele>
        <time>2016-07-30T07:19:07.010Z</time>
      </trkpt>
      <trkpt lat="43.16075" lon="5.90185">
        <ele>176</ele>
        <time>2016-07-30T07:19:08.010Z</time>
      </trkpt>
      <trkpt lat="43.16065" lon="5.90182">
        <ele>175</ele>
        <time>2016-07-30T07:19:09.010Z</time>
      </trkpt>
      <trkpt lat="43.16056" lon="5.90183">
        <ele>175</ele>
        <time>2016-07-30T07:19:10.010Z</time>
      </trkpt>
      <trkpt lat="43.16049" lon="5.9019">
        <ele>175</ele>
        <time>2016-07-30T07:19:11.010Z</time>
      </trkpt>
      <trkpt lat="43.16043" lon="5.90201">
        <ele>174</ele>
        <time>2016-07-30T07:19:12.010Z</time>
      </trkpt>
      <trkpt lat="43.16038" lon="5.90213">
        <ele>174</ele>
        <time>2016-07-30T07:19:13.010Z</time>
      </trkpt>
      <trkpt lat="43.16031" lon="5.90225">
        <ele>173</ele>
        <time>2016-07-30T07:19:14.010Z</time>
      </trkpt>
      <trkpt lat="43.16023" lon="5.90235">
        <ele>172</ele>
        <time>2016-07-30T07:19:15.010Z</time>
      </trkpt>
      <trkpt lat="43.16016" lon="5.90247">
        <ele>172</ele>
        <time>2016-07-30T07:19:16.010Z</time>
      </trkpt>
      <trkpt lat="43.16011" lon="5.9026">
        <ele>171</ele>
        <time>2016-07-30T07:19:17.010Z</time>
      </trkpt>
      <trkpt lat="43.16007" lon="5.90275">
        <ele>170</ele>
        <time>2016-07-30T07:19:18.010Z</time>
      </trkpt>
      <trkpt lat="43.16003" lon="5.90289">
        <ele>170</ele>
        <time>2016-07-30T07:19:19.010Z</time>
      </trkpt>
      <trkpt lat="43.15998" lon="5.90304">
        <ele>169</ele>
        <time>2016-07-30T07:19:20.010Z</time>
      </trkpt>
      <trkpt lat="43.15993" lon="5.90318">
        <ele>168</ele>
        <time>2016-07-30T07:19:21.010Z</time>
      </trkpt>
      <trkpt lat="43.15988" lon="5.90332">
        <ele>167</ele>
        <time>2016-07-30T07:19:22.010Z</time>
      </trkpt>
      <trkpt lat="43.15982" lon="5.90346">
        <ele>167</ele>
        <time>2016-07-30T07:19:23.010Z</time>
      </trkpt>
      <trkpt lat="43.15976" lon="5.90359">
        <ele>166</ele>
        <time>2016-07-30T07:19:24.010Z</time>
      </trkpt>
      <trkpt lat="43.15969" lon="5.90372">
        <ele>165</ele>
        <time>2016-07-30T07:19:25.010Z</time>
      </trkpt>
      <trkpt lat="43.15963" lon="5.90386">
        <ele>164</ele>
        <time>2016-07-30T07:19:26.010Z</time>
      </trkpt>
      <trkpt lat="43.15958" lon="5.904">
        <ele>163</ele>
        <time>2016-07-30T07:19:27.010Z</time>
      </trkpt>
      <trkpt lat="43.15953" lon="5.90415">
        <ele>163</ele>
        <time>2016-07-30T07:19:28.010Z</time>
      </trkpt>
      <trkpt lat="43.15949" lon="5.90431">
        <ele>162</ele>
        <time>2016-07-30T07:19:29.010Z</time>
      </trkpt>
      <trkpt lat="43.15943" lon="5.90446">
        <ele>161</ele>
        <time>2016-07-30T07:19:30.010Z</time>
      </trkpt>
      <trkpt lat="43.15937" lon="5.90461">
        <ele>160</ele>
        <time>2016-07-30T07:19:31.010Z</time>
      </trkpt>
      <trkpt lat="43.15931" lon="5.90476">
        <ele>159</ele>
        <time>2016-07-30T07:19:32.010Z</time>
      </trkpt>
      <trkpt lat="43.15923" lon="5.9049">
        <ele>159</ele>
        <time>2016-07-30T07:19:33.010Z</time>
      </trkpt>
      <trkpt lat="43.15916" lon="5.90504">
        <ele>158</ele>
        <time>2016-07-30T07:19:34.010Z</time>
      </trkpt>
      <trkpt lat="43.15908" lon="5.90519">
        <ele>157</ele>
        <time>2016-07-30T07:19:35.010Z</time>
      </trkpt>
      <trkpt lat="43.15901" lon="5.90533">
        <ele>156</ele>
        <time>2016-07-30T07:19:36.010Z</time>
      </trkpt>
      <trkpt lat="43.15893" lon="5.90547">
        <ele>156</ele>
        <time>2016-07-30T07:19:37.010Z</time>
      </trkpt>
      <trkpt lat="43.15886" lon="5.90562">
        <ele>155</ele>
        <time>2016-07-30T07:19:38.010Z</time>
      </trkpt>
      <trkpt lat="43.15879" lon="5.90577">
        <ele>154</ele>
        <time>2016-07-30T07:19:39.010Z</time>
      </trkpt>
      <trkpt lat="43.15871" lon="5.90591">
        <ele>153</ele>
        <time>2016-07-30T07:19:40.010Z</time>
      </trkpt>
      <trkpt lat="43.15863" lon="5.90605">
        <ele>153</ele>
        <time>2016-07-30T07:19:41.010Z</time>
      </trkpt>
      <trkpt lat="43.15855" lon="5.90618">
        <ele>152</ele>
        <time>2016-07-30T07:19:42.010Z</time>
      </trkpt>
      <trkpt lat="43.15845" lon="5.9063">
        <ele>152</ele>
        <time>2016-07-30T07:19:43.010Z</time>
      </trkpt>
      <trkpt lat="43.15836" lon="5.90642">
        <ele>152</ele>
        <time>2016-07-30T07:19:44.010Z</time>
      </trkpt>
      <trkpt lat="43.15825" lon="5.90653">
        <ele>152</ele>
        <time>2016-07-30T07:19:45.010Z</time>
      </trkpt>
      <trkpt lat="43.15814" lon="5.90662">
        <ele>149</ele>
        <time>2016-07-30T07:19:46.010Z</time>
      </trkpt>
      <trkpt lat="43.15803" lon="5.90667">
        <ele>150</ele>
        <time>2016-07-30T07:19:47.010Z</time>
      </trkpt>
      <trkpt lat="43.1579" lon="5.90668">
        <ele>146</ele>
        <time>2016-07-30T07:19:48.010Z</time>
      </trkpt>
      <trkpt lat="43.15778" lon="5.90667">
        <ele>144</ele>
        <time>2016-07-30T07:19:49.010Z</time>
      </trkpt>
      <trkpt lat="43.15765" lon="5.90662">
        <ele>143</ele>
        <time>2016-07-30T07:19:50.010Z</time>
      </trkpt>
      <trkpt lat="43.15754" lon="5.90657">
        <ele>142</ele>
        <time>2016-07-30T07:19:51.010Z</time>
      </trkpt>
      <trkpt lat="43.15742" lon="5.90652">
        <ele>140</ele>
        <time>2016-07-30T07:19:52.010Z</time>
      </trkpt>
      <trkpt lat="43.1573" lon="5.90649">
        <ele>137</ele>
        <time>2016-07-30T07:19:53.010Z</time>
      </trkpt>
      <trkpt lat="43.15719" lon="5.90648">
        <ele>133</ele>
        <time>2016-07-30T07:19:54.010Z</time>
      </trkpt>
      <trkpt lat="43.15708" lon="5.9065">
        <ele>129</ele>
        <time>2016-07-30T07:19:55.010Z</time>
      </trkpt>
      <trkpt lat="43.15697" lon="5.90654">
        <ele>123</ele>
        <time>2016-07-30T07:19:56.010Z</time>
      </trkpt>
      <trkpt lat="43.15688" lon="5.90662">
        <ele>118</ele>
        <time>2016-07-30T07:19:57.010Z</time>
      </trkpt>
      <trkpt lat="43.1568" lon="5.90674">
        <ele>118</ele>
        <time>2016-07-30T07:19:58.010Z</time>
      </trkpt>
      <trkpt lat="43.15673" lon="5.90688">
        <ele>118</ele>
        <time>2016-07-30T07:19:59.010Z</time>
      </trkpt>
      <trkpt lat="43.15666" lon="5.907">
        <ele>118</ele>
        <time>2016-07-30T07:20:00.010Z</time>
      </trkpt>
      <trkpt lat="43.15657" lon="5.90712">
        <ele>118</ele>
        <time>2016-07-30T07:20:01.010Z</time>
      </trkpt>
      <trkpt lat="43.15647" lon="5.90722">
        <ele>118</ele>
        <time>2016-07-30T07:20:02.010Z</time>
      </trkpt>
      <trkpt lat="43.15637" lon="5.9073">
        <ele>119</ele>
        <time>2016-07-30T07:20:03.010Z</time>
      </trkpt>
      <trkpt lat="43.15626" lon="5.90736">
        <ele>120</ele>
        <time>2016-07-30T07:20:04.010Z</time>
      </trkpt>
      <trkpt lat="43.15615" lon="5.90742">
        <ele>120</ele>
        <time>2016-07-30T07:20:05.010Z</time>
      </trkpt>
      <trkpt lat="43.15604" lon="5.90746">
        <ele>119</ele>
        <time>2016-07-30T07:20:06.010Z</time>
      </trkpt>
      <trkpt lat="43.15594" lon="5.90748">
        <ele>119</ele>
        <time>2016-07-30T07:20:07.010Z</time>
      </trkpt>
      <trkpt lat="43.15582" lon="5.90747">
        <ele>120</ele>
        <time>2016-07-30T07:20:08.010Z</time>
      </trkpt>
      <trkpt lat="43.15571" lon="5.90744">
        <ele>120</ele>
        <time>2016-07-30T07:20:09.010Z</time>
      </trkpt>
      <trkpt lat="43.15558" lon="5.9074">
        <ele>119</ele>
        <time>2016-07-30T07:20:10.010Z</time>
      </trkpt>
      <trkpt lat="43.15547" lon="5.90735">
        <ele>119</ele>
        <time>2016-07-30T07:20:11.010Z</time>
      </trkpt>
      <trkpt lat="43.15535" lon="5.90729">
        <ele>118</ele>
        <time>2016-07-30T07:20:12.010Z</time>
      </trkpt>
      <trkpt lat="43.15524" lon="5.90723">
        <ele>120</ele>
        <time>2016-07-30T07:20:13.010Z</time>
      </trkpt>
      <trkpt lat="43.15513" lon="5.90716">
        <ele>120</ele>
        <time>2016-07-30T07:20:14.010Z</time>
      </trkpt>
      <trkpt lat="43.15503" lon="5.9071">
        <ele>120</ele>
        <time>2016-07-30T07:20:15.010Z</time>
      </trkpt>
      <trkpt lat="43.15493" lon="5.90702">
        <ele>120</ele>
        <time>2016-07-30T07:20:16.010Z</time>
      </trkpt>
      <trkpt lat="43.15483" lon="5.90695">
        <ele>120</ele>
        <time>2016-07-30T07:20:17.010Z</time>
      </trkpt>
      <trkpt lat="43.15473" lon="5.90687">
        <ele>121</ele>
        <time>2016-07-30T07:20:18.010Z</time>
      </trkpt>
      <trkpt lat="43.15463" lon="5.9068">
        <ele>120</ele>
        <time>2016-07-30T07:20:19.010Z</time>
      </trkpt>
      <trkpt lat="43.15453" lon="5.90674">
        <ele>118</ele>
        <time>2016-07-30T07:20:20.010Z</time>
      </trkpt>
      <trkpt lat="43.15443" lon="5.90669">
        <ele>115</ele>
        <time>2016-07-30T07:20:21.010Z</time>
      </trkpt>
      <trkpt lat="43.15433" lon="5.90668">
        <ele>107</ele>
        <time>2016-07-30T07:20:22.010Z</time>
      </trkpt>
      <trkpt lat="43.15423" lon="5.9067">
        <ele>101</ele>
        <time>2016-07-30T07:20:23.010Z</time>
      </trkpt>
      <trkpt lat="43.15412" lon="5.90674">
        <ele>99</ele>
        <time>2016-07-30T07:20:24.010Z</time>
      </trkpt>
      <trkpt lat="43.15403" lon="5.90679">
        <ele>97</ele>
        <time>2016-07-30T07:20:25.010Z</time>
      </trkpt>
      <trkpt lat="43.15396" lon="5.90682">
        <ele>93</ele>
        <time>2016-07-30T07:20:26.010Z</time>
      </trkpt>
      <trkpt lat="43.15391" lon="5.90685">
        <ele>92</ele>
        <time>2016-07-30T07:20:27.010Z</time>
      </trkpt>
      <trkpt lat="43.15386" lon="5.90687">
        <ele>92</ele>
        <time>2016-07-30T07:20:28.010Z</time>
      </trkpt>
      <trkpt lat="43.15383" lon="5.90689">
        <ele>91</ele>
        <time>2016-07-30T07:20:29.010Z</time>
      </trkpt>
      <trkpt lat="43.15381" lon="5.90691">
        <ele>92</ele>
        <time>2016-07-30T07:20:30.010Z</time>
      </trkpt>
      <trkpt lat="43.1538" lon="5.90693">
        <ele>93</ele>
        <time>2016-07-30T07:20:31.010Z</time>
      </trkpt>
      <trkpt lat="43.15379" lon="5.90693">
        <ele>91</ele>
        <time>2016-07-30T07:20:32.010Z</time>
      </trkpt>
      <trkpt lat="43.15379" lon="5.90694">
        <ele>95</ele>
        <time>2016-07-30T07:20:33.010Z</time>
      </trkpt>
      <trkpt lat="43.1538" lon="5.90695">
        <ele>95</ele>
        <time>2016-07-30T07:20:34.010Z</time>
      </trkpt>
      <trkpt lat="43.15381" lon="5.90697">
        <ele>96</ele>
        <time>2016-07-30T07:20:35.010Z</time>
      </trkpt>
      <trkpt lat="43.15382" lon="5.90697">
        <ele>97</ele>
        <time>2016-07-30T07:20:36.010Z</time>
      </trkpt>
      <trkpt lat="43.15382" lon="5.90698">
        <ele>98</ele>
        <time>2016-07-30T07:20:37.010Z</time>
      </trkpt>
      <trkpt lat="43.15383" lon="5.90699">
        <ele>98</ele>
        <time>2016-07-30T07:20:38.010Z</time>
      </trkpt>
      <trkpt lat="43.15383" lon="5.90699">
        <ele>99</ele>
        <time>2016-07-30T07:20:39.010Z</time>
      </trkpt>
      <trkpt lat="43.15384" lon="5.90699">
        <ele>100</ele>
        <time>2016-07-30T07:20:40.010Z</time>
      </trkpt>
      <trkpt lat="43.15384" lon="5.907">
        <ele>100</ele>
        <time>2016-07-30T07:20:41.010Z</time>
      </trkpt>
      <trkpt lat="43.15385" lon="5.90701">
        <ele>101</ele>
        <time>2016-07-30T07:20:42.010Z</time>
      </trkpt>
      <trkpt lat="43.15385" lon="5.90701">
        <ele>102</ele>
        <time>2016-07-30T07:20:43.010Z</time>
      </trkpt>
      <trkpt lat="43.15385" lon="5.90702">
        <ele>102</ele>
        <time>2016-07-30T07:20:44.010Z</time>
      </trkpt>
      <trkpt lat="43.1539" lon="5.90717">
        <ele>118</ele>
        <time>2016-07-30T07:20:45.017Z</time>
      </trkpt>
      <trkpt lat="43.15387" lon="5.90719">
        <ele>118</ele>
        <time>2016-07-30T07:20:46.017Z</time>
      </trkpt>
      <trkpt lat="43.15384" lon="5.9072">
        <ele>118</ele>
        <time>2016-07-30T07:20:47.017Z</time>
      </trkpt>
      <trkpt lat="43.1538" lon="5.90722">
        <ele>118</ele>
        <time>2016-07-30T07:20:48.017Z</time>
      </trkpt>
      <trkpt lat="43.15376" lon="5.90722">
        <ele>116</ele>
        <time>2016-07-30T07:20:49.017Z</time>
      </trkpt>
      <trkpt lat="43.15372" lon="5.90721">
        <ele>116</ele>
        <time>2016-07-30T07:20:50.017Z</time>
      </trkpt>
      <trkpt lat="43.15368" lon="5.90718">
        <ele>116</ele>
        <time>2016-07-30T07:20:51.017Z</time>
      </trkpt>
      <trkpt lat="43.15365" lon="5.90715">
        <ele>116</ele>
        <time>2016-07-30T07:20:52.017Z</time>
      </trkpt>
      <trkpt lat="43.15362" lon="5.9071">
        <ele>116</ele>
        <time>2016-07-30T07:20:53.017Z</time>
      </trkpt>
      <trkpt lat="43.1536" lon="5.90703">
        <ele>116</ele>
        <time>2016-07-30T07:20:54.017Z</time>
      </trkpt>
      <trkpt lat="43.15359" lon="5.90695">
        <ele>115</ele>
        <time>2016-07-30T07:20:55.017Z</time>
      </trkpt>
      <trkpt lat="43.15358" lon="5.90687">
        <ele>116</ele>
        <time>2016-07-30T07:20:56.017Z</time>
      </trkpt>
      <trkpt lat="43.15358" lon="5.9068">
        <ele>117</ele>
        <time>2016-07-30T07:20:57.017Z</time>
      </trkpt>
      <trkpt lat="43.15359" lon="5.90673">
        <ele>118</ele>
        <time>2016-07-30T07:20:58.017Z</time>
      </trkpt>
      <trkpt lat="43.15359" lon="5.90666">
        <ele>117</ele>
        <time>2016-07-30T07:20:59.017Z</time>
      </trkpt>
      <trkpt lat="43.1536" lon="5.90658">
        <ele>117</ele>
        <time>2016-07-30T07:21:00.017Z</time>
      </trkpt>
      <trkpt lat="43.15361" lon="5.9065">
        <ele>117</ele>
        <time>2016-07-30T07:21:01.017Z</time>
      </trkpt>
      <trkpt lat="43.15362" lon="5.90642">
        <ele>116</ele>
        <time>2016-07-30T07:21:02.017Z</time>
      </trkpt>
      <trkpt lat="43.15363" lon="5.90633">
        <ele>116</ele>
        <time>2016-07-30T07:21:03.017Z</time>
      </trkpt>
      <trkpt lat="43.15364" lon="5.90624">
        <ele>116</ele>
        <time>2016-07-30T07:21:04.017Z</time>
      </trkpt>
      <trkpt lat="43.15366" lon="5.90615">
        <ele>116</ele>
        <time>2016-07-30T07:21:05.017Z</time>
      </trkpt>
      <trkpt lat="43.15367" lon="5.90605">
        <ele>114</ele>
        <time>2016-07-30T07:21:06.017Z</time>
      </trkpt>
      <trkpt lat="43.15368" lon="5.90595">
        <ele>114</ele>
        <time>2016-07-30T07:21:07.017Z</time>
      </trkpt>
      <trkpt lat="43.15369" lon="5.90584">
        <ele>114</ele>
        <time>2016-07-30T07:21:08.017Z</time>
      </trkpt>
      <trkpt lat="43.1537" lon="5.90572">
        <ele>114</ele>
        <time>2016-07-30T07:21:09.017Z</time>
      </trkpt>
      <trkpt lat="43.15372" lon="5.90561">
        <ele>113</ele>
        <time>2016-07-30T07:21:10.017Z</time>
      </trkpt>
      <trkpt lat="43.15373" lon="5.90549">
        <ele>113</ele>
        <time>2016-07-30T07:21:11.017Z</time>
      </trkpt>
      <trkpt lat="43.15374" lon="5.90537">
        <ele>112</ele>
        <time>2016-07-30T07:21:12.017Z</time>
      </trkpt>
      <trkpt lat="43.15374" lon="5.90525">
        <ele>111</ele>
        <time>2016-07-30T07:21:13.017Z</time>
      </trkpt>
      <trkpt lat="43.15374" lon="5.90514">
        <ele>110</ele>
        <time>2016-07-30T07:21:14.017Z</time>
      </trkpt>
      <trkpt lat="43.15374" lon="5.90503">
        <ele>109</ele>
        <time>2016-07-30T07:21:15.017Z</time>
      </trkpt>
      <trkpt lat="43.15373" lon="5.90492">
        <ele>109</ele>
        <time>2016-07-30T07:21:16.017Z</time>
      </trkpt>
      <trkpt lat="43.15371" lon="5.90481">
        <ele>108</ele>
        <time>2016-07-30T07:21:17.017Z</time>
      </trkpt>
      <trkpt lat="43.1537" lon="5.90471">
        <ele>107</ele>
        <time>2016-07-30T07:21:18.017Z</time>
      </trkpt>
      <trkpt lat="43.15369" lon="5.90462">
        <ele>107</ele>
        <time>2016-07-30T07:21:19.017Z</time>
      </trkpt>
      <trkpt lat="43.15367" lon="5.90453">
        <ele>107</ele>
        <time>2016-07-30T07:21:20.017Z</time>
      </trkpt>
      <trkpt lat="43.15365" lon="5.90444">
        <ele>107</ele>
        <time>2016-07-30T07:21:21.017Z</time>
      </trkpt>
      <trkpt lat="43.15363" lon="5.90436">
        <ele>107</ele>
        <time>2016-07-30T07:21:22.017Z</time>
      </trkpt>
      <trkpt lat="43.15362" lon="5.90428">
        <ele>106</ele>
        <time>2016-07-30T07:21:23.017Z</time>
      </trkpt>
      <trkpt lat="43.15361" lon="5.9042">
        <ele>106</ele>
        <time>2016-07-30T07:21:24.017Z</time>
      </trkpt>
      <trkpt lat="43.15362" lon="5.90413">
        <ele>105</ele>
        <time>2016-07-30T07:21:25.017Z</time>
      </trkpt>
      <trkpt lat="43.15362" lon="5.90407">
        <ele>105</ele>
        <time>2016-07-30T07:21:26.017Z</time>
      </trkpt>
      <trkpt lat="43.15363" lon="5.90402">
        <ele>105</ele>
        <time>2016-07-30T07:21:27.017Z</time>
      </trkpt>
      <trkpt lat="43.15363" lon="5.90399">
        <ele>105</ele>
        <time>2016-07-30T07:21:28.017Z</time>
      </trkpt>
      <trkpt lat="43.15362" lon="5.90396">
        <ele>105</ele>
        <time>2016-07-30T07:21:29.017Z</time>
      </trkpt>
      <trkpt lat="43.15361" lon="5.90394">
        <ele>105</ele>
        <time>2016-07-30T07:21:30.017Z</time>
      </trkpt>
      <trkpt lat="43.15361" lon="5.90393">
        <ele>103</ele>
        <time>2016-07-30T07:21:31.017Z</time>
      </trkpt>
      <trkpt lat="43.1536" lon="5.90392">
        <ele>103</ele>
        <time>2016-07-30T07:21:32.017Z</time>
      </trkpt>
      <trkpt lat="43.15359" lon="5.90391">
        <ele>102</ele>
        <time>2016-07-30T07:21:33.017Z</time>
      </trkpt>
      <trkpt lat="43.15359" lon="5.90391">
        <ele>102</ele>
        <time>2016-07-30T07:21:34.017Z</time>
      </trkpt>
      <trkpt lat="43.15358" lon="5.90391">
        <ele>102</ele>
        <time>2016-07-30T07:21:35.017Z</time>
      </trkpt>
      <trkpt lat="43.15358" lon="5.90391">
        <ele>102</ele>
        <time>2016-07-30T07:21:36.017Z</time>
      </trkpt>
      <trkpt lat="43.15359" lon="5.90391">
        <ele>102</ele>
        <time>2016-07-30T07:21:37.017Z</time>
      </trkpt>
      <trkpt lat="43.15359" lon="5.90391">
        <ele>102</ele>
        <time>2016-07-30T07:21:38.017Z</time>
      </trkpt>
      <trkpt lat="43.15359" lon="5.90391">
        <ele>102</ele>
        <time>2016-07-30T07:21:39.017Z</time>
      </trkpt>
      <trkpt lat="43.1536" lon="5.90391">
        <ele>102</ele>
        <time>2016-07-30T07:21:40.017Z</time>
      </trkpt>
      <trkpt lat="43.1536" lon="5.90391">
        <ele>102</ele>
        <time>2016-07-30T07:21:41.017Z</time>
      </trkpt>
      <trkpt lat="43.15356" lon="5.90402">
        <ele>108</ele>
        <time>2016-07-30T07:21:42.017Z</time>
      </trkpt>
      <trkpt lat="43.15352" lon="5.90404">
        <ele>104</ele>
        <time>2016-07-30T07:21:43.017Z</time>
      </trkpt>
      <trkpt lat="43.15347" lon="5.90404">
        <ele>100</ele>
        <time>2016-07-30T07:21:44.017Z</time>
      </trkpt>
      <trkpt lat="43.15341" lon="5.90404">
        <ele>98</ele>
        <time>2016-07-30T07:21:45.017Z</time>
      </trkpt>
      <trkpt lat="43.15336" lon="5.90404">
        <ele>97</ele>
        <time>2016-07-30T07:21:46.017Z</time>
      </trkpt>
      <trkpt lat="43.1533" lon="5.90403">
        <ele>95</ele>
        <time>2016-07-30T07:21:47.017Z</time>
      </trkpt>
      <trkpt lat="43.15323" lon="5.90401">
        <ele>94</ele>
        <time>2016-07-30T07:21:48.017Z</time>
      </trkpt>
      <trkpt lat="43.15315" lon="5.90399">
        <ele>92</ele>
        <time>2016-07-30T07:21:49.017Z</time>
      </trkpt>
      <trkpt lat="43.15307" lon="5.90397">
        <ele>91</ele>
        <time>2016-07-30T07:21:50.017Z</time>
      </trkpt>
      <trkpt lat="43.15298" lon="5.90394">
        <ele>92</ele>
        <time>2016-07-30T07:21:51.017Z</time>
      </trkpt>
      <trkpt lat="43.15289" lon="5.90389">
        <ele>93</ele>
        <time>2016-07-30T07:21:52.017Z</time>
      </trkpt>
      <trkpt lat="43.1528" lon="5.90383">
        <ele>93</ele>
        <time>2016-07-30T07:21:53.017Z</time>
      </trkpt>
      <trkpt lat="43.15271" lon="5.90377">
        <ele>93</ele>
        <time>2016-07-30T07:21:54.017Z</time>
      </trkpt>
      <trkpt lat="43.15262" lon="5.90371">
        <ele>93</ele>
        <time>2016-07-30T07:21:55.017Z</time>
      </trkpt>
      <trkpt lat="43.15254" lon="5.90366">
        <ele>92</ele>
        <time>2016-07-30T07:21:56.017Z</time>
      </trkpt>
      <trkpt lat="43.15245" lon="5.9036">
        <ele>93</ele>
        <time>2016-07-30T07:21:57.017Z</time>
      </trkpt>
      <trkpt lat="43.15236" lon="5.90355">
        <ele>92</ele>
        <time>2016-07-30T07:21:58.017Z</time>
      </trkpt>
      <trkpt lat="43.15227" lon="5.90349">
        <ele>92</ele>
        <time>2016-07-30T07:21:59.017Z</time>
      </trkpt>
      <trkpt lat="43.15218" lon="5.90344">
        <ele>91</ele>
        <time>2016-07-30T07:22:00.017Z</time>
      </trkpt>
      <trkpt lat="43.1521" lon="5.90338">
        <ele>91</ele>
        <time>2016-07-30T07:22:01.017Z</time>
      </trkpt>
      <trkpt lat="43.15201" lon="5.90332">
        <ele>90</ele>
        <time>2016-07-30T07:22:02.017Z</time>
      </trkpt>
      <trkpt lat="43.15193" lon="5.90326">
        <ele>90</ele>
        <time>2016-07-30T07:22:03.017Z</time>
      </trkpt>
      <trkpt lat="43.15184" lon="5.90321">
        <ele>90</ele>
        <time>2016-07-30T07:22:04.017Z</time>
      </trkpt>
      <trkpt lat="43.15175" lon="5.90316">
        <ele>89</ele>
        <time>2016-07-30T07:22:05.017Z</time>
      </trkpt>
      <trkpt lat="43.15166" lon="5.90313">
        <ele>87</ele>
        <time>2016-07-30T07:22:06.017Z</time>
      </trkpt>
      <trkpt lat="43.15156" lon="5.90309">
        <ele>86</ele>
        <time>2016-07-30T07:22:07.017Z</time>
      </trkpt>
      <trkpt lat="43.15147" lon="5.90306">
        <ele>86</ele>
        <time>2016-07-30T07:22:08.017Z</time>
      </trkpt>
      <trkpt lat="43.15137" lon="5.90304">
        <ele>84</ele>
        <time>2016-07-30T07:22:09.017Z</time>
      </trkpt>
      <trkpt lat="43.15127" lon="5.90302">
        <ele>83</ele>
        <time>2016-07-30T07:22:10.017Z</time>
      </trkpt>
      <trkpt lat="43.15117" lon="5.90301">
        <ele>82</ele>
        <time>2016-07-30T07:22:11.017Z</time>
      </trkpt>
      <trkpt lat="43.15107" lon="5.90299">
        <ele>82</ele>
        <time>2016-07-30T07:22:12.017Z</time>
      </trkpt>
      <trkpt lat="43.15096" lon="5.90297">
        <ele>81</ele>
        <time>2016-07-30T07:22:13.017Z</time>
      </trkpt>
      <trkpt lat="43.15086" lon="5.90294">
        <ele>79</ele>
        <time>2016-07-30T07:22:14.017Z</time>
      </trkpt>
      <trkpt lat="43.15075" lon="5.90291">
        <ele>78</ele>
        <time>2016-07-30T07:22:15.017Z</time>
      </trkpt>
      <trkpt lat="43.15064" lon="5.90288">
        <ele>77</ele>
        <time>2016-07-30T07:22:16.017Z</time>
      </trkpt>
      <trkpt lat="43.15052" lon="5.90284">
        <ele>76</ele>
        <time>2016-07-30T07:22:17.017Z</time>
      </trkpt>
      <trkpt lat="43.1504" lon="5.90281">
        <ele>75</ele>
        <time>2016-07-30T07:22:18.017Z</time>
      </trkpt>
      <trkpt lat="43.15028" lon="5.90278">
        <ele>74</ele>
        <time>2016-07-30T07:22:19.017Z</time>
      </trkpt>
      <trkpt lat="43.15016" lon="5.90275">
        <ele>73</ele>
        <time>2016-07-30T07:22:20.017Z</time>
      </trkpt>
      <trkpt lat="43.15004" lon="5.90273">
        <ele>72</ele>
        <time>2016-07-30T07:22:21.017Z</time>
      </trkpt>
      <trkpt lat="43.14992" lon="5.90272">
        <ele>71</ele>
        <time>2016-07-30T07:22:22.017Z</time>
      </trkpt>
      <trkpt lat="43.14981" lon="5.90271">
        <ele>70</ele>
        <time>2016-07-30T07:22:23.017Z</time>
      </trkpt>
      <trkpt lat="43.14969" lon="5.90269">
        <ele>69</ele>
        <time>2016-07-30T07:22:24.017Z</time>
      </trkpt>
      <trkpt lat="43.14958" lon="5.90267">
        <ele>68</ele>
        <time>2016-07-30T07:22:25.017Z</time>
      </trkpt>
      <trkpt lat="43.14947" lon="5.90265">
        <ele>66</ele>
        <time>2016-07-30T07:22:26.017Z</time>
      </trkpt>
      <trkpt lat="43.14935" lon="5.90263">
        <ele>66</ele>
        <time>2016-07-30T07:22:27.017Z</time>
      </trkpt>
      <trkpt lat="43.14924" lon="5.9026">
        <ele>65</ele>
        <time>2016-07-30T07:22:28.017Z</time>
      </trkpt>
      <trkpt lat="43.14912" lon="5.90258">
        <ele>64</ele>
        <time>2016-07-30T07:22:29.017Z</time>
      </trkpt>
      <trkpt lat="43.149" lon="5.90255">
        <ele>63</ele>
        <time>2016-07-30T07:22:30.017Z</time>
      </trkpt>
      <trkpt lat="43.14889" lon="5.90253">
        <ele>63</ele>
        <time>2016-07-30T07:22:31.017Z</time>
      </trkpt>
      <trkpt lat="43.14877" lon="5.9025">
        <ele>62</ele>
        <time>2016-07-30T07:22:32.017Z</time>
      </trkpt>
      <trkpt lat="43.14865" lon="5.90248">
        <ele>61</ele>
        <time>2016-07-30T07:22:33.017Z</time>
      </trkpt>
      <trkpt lat="43.14853" lon="5.90246">
        <ele>60</ele>
        <time>2016-07-30T07:22:34.017Z</time>
      </trkpt>
      <trkpt lat="43.14841" lon="5.90243">
        <ele>59</ele>
        <time>2016-07-30T07:22:35.017Z</time>
      </trkpt>
      <trkpt lat="43.14829" lon="5.90241">
        <ele>58</ele>
        <time>2016-07-30T07:22:36.017Z</time>
      </trkpt>
      <trkpt lat="43.14817" lon="5.90239">
        <ele>58</ele>
        <time>2016-07-30T07:22:37.017Z</time>
      </trkpt>
      <trkpt lat="43.14806" lon="5.90237">
        <ele>56</ele>
        <time>2016-07-30T07:22:38.017Z</time>
      </trkpt>
      <trkpt lat="43.14797" lon="5.90236">
        <ele>55</ele>
        <time>2016-07-30T07:22:39.017Z</time>
      </trkpt>
      <trkpt lat="43.14788" lon="5.90234">
        <ele>55</ele>
        <time>2016-07-30T07:22:40.017Z</time>
      </trkpt>
      <trkpt lat="43.14779" lon="5.90233">
        <ele>54</ele>
        <time>2016-07-30T07:22:41.017Z</time>
      </trkpt>
      <trkpt lat="43.14771" lon="5.90231">
        <ele>55</ele>
        <time>2016-07-30T07:22:42.017Z</time>
      </trkpt>
      <trkpt lat="43.14764" lon="5.9023">
        <ele>56</ele>
        <time>2016-07-30T07:22:43.017Z</time>
      </trkpt>
      <trkpt lat="43.14758" lon="5.90228">
        <ele>56</ele>
        <time>2016-07-30T07:22:44.017Z</time>
      </trkpt>
      <trkpt lat="43.14754" lon="5.90227">
        <ele>56</ele>
        <time>2016-07-30T07:22:45.017Z</time>
      </trkpt>
      <trkpt lat="43.14751" lon="5.90225">
        <ele>54</ele>
        <time>2016-07-30T07:22:46.017Z</time>
      </trkpt>
      <trkpt lat="43.14748" lon="5.90224">
        <ele>52</ele>
        <time>2016-07-30T07:22:47.017Z</time>
      </trkpt>
      <trkpt lat="43.14747" lon="5.90224">
        <ele>51</ele>
        <time>2016-07-30T07:22:48.017Z</time>
      </trkpt>
      <trkpt lat="43.14744" lon="5.90225">
        <ele>51</ele>
        <time>2016-07-30T07:22:49.017Z</time>
      </trkpt>
      <trkpt lat="43.14742" lon="5.90226">
        <ele>50</ele>
        <time>2016-07-30T07:22:50.017Z</time>
      </trkpt>
      <trkpt lat="43.14739" lon="5.90227">
        <ele>49</ele>
        <time>2016-07-30T07:22:51.017Z</time>
      </trkpt>
      <trkpt lat="43.14735" lon="5.90227">
        <ele>48</ele>
        <time>2016-07-30T07:22:52.017Z</time>
      </trkpt>
      <trkpt lat="43.14731" lon="5.90226">
        <ele>46</ele>
        <time>2016-07-30T07:22:53.017Z</time>
      </trkpt>
      <trkpt lat="43.14727" lon="5.90226">
        <ele>45</ele>
        <time>2016-07-30T07:22:54.017Z</time>
      </trkpt>
      <trkpt lat="43.14722" lon="5.90225">
        <ele>45</ele>
        <time>2016-07-30T07:22:55.017Z</time>
      </trkpt>
      <trkpt lat="43.14718" lon="5.90224">
        <ele>45</ele>
        <time>2016-07-30T07:22:56.017Z</time>
      </trkpt>
      <trkpt lat="43.14714" lon="5.90224">
        <ele>46</ele>
        <time>2016-07-30T07:22:57.017Z</time>
      </trkpt>
      <trkpt lat="43.14712" lon="5.90224">
        <ele>46</ele>
        <time>2016-07-30T07:22:58.017Z</time>
      </trkpt>
      <trkpt lat="43.14709" lon="5.90223">
        <ele>46</ele>
        <time>2016-07-30T07:22:59.017Z</time>
      </trkpt>
      <trkpt lat="43.14707" lon="5.90222">
        <ele>46</ele>
        <time>2016-07-30T07:23:00.017Z</time>
      </trkpt>
      <trkpt lat="43.14704" lon="5.90221">
        <ele>46</ele>
        <time>2016-07-30T07:23:01.017Z</time>
      </trkpt>
      <trkpt lat="43.14702" lon="5.9022">
        <ele>46</ele>
        <time>2016-07-30T07:23:02.017Z</time>
      </trkpt>
      <trkpt lat="43.147" lon="5.90219">
        <ele>47</ele>
        <time>2016-07-30T07:23:03.017Z</time>
      </trkpt>
      <trkpt lat="43.14697" lon="5.90217">
        <ele>47</ele>
        <time>2016-07-30T07:23:04.017Z</time>
      </trkpt>
      <trkpt lat="43.14694" lon="5.90216">
        <ele>48</ele>
        <time>2016-07-30T07:23:05.017Z</time>
      </trkpt>
      <trkpt lat="43.14691" lon="5.90215">
        <ele>48</ele>
        <time>2016-07-30T07:23:06.017Z</time>
      </trkpt>
      <trkpt lat="43.14687" lon="5.90213">
        <ele>47</ele>
        <time>2016-07-30T07:23:07.017Z</time>
      </trkpt>
      <trkpt lat="43.14683" lon="5.90212">
        <ele>47</ele>
        <time>2016-07-30T07:23:08.017Z</time>
      </trkpt>
      <trkpt lat="43.14679" lon="5.9021">
        <ele>47</ele>
        <time>2016-07-30T07:23:09.017Z</time>
      </trkpt>
      <trkpt lat="43.14675" lon="5.90208">
        <ele>47</ele>
        <time>2016-07-30T07:23:10.017Z</time>
      </trkpt>
      <trkpt lat="43.1467" lon="5.90207">
        <ele>47</ele>
        <time>2016-07-30T07:23:11.017Z</time>
      </trkpt>
      <trkpt lat="43.14665" lon="5.90205">
        <ele>47</ele>
        <time>2016-07-30T07:23:12.017Z</time>
      </trkpt>
      <trkpt lat="43.14661" lon="5.90202">
        <ele>48</ele>
        <time>2016-07-30T07:23:13.017Z</time>
      </trkpt>
      <trkpt lat="43.14656" lon="5.902">
        <ele>48</ele>
        <time>2016-07-30T07:23:14.017Z</time>
      </trkpt>
      <trkpt lat="43.1465" lon="5.90198">
        <ele>47</ele>
        <time>2016-07-30T07:23:15.017Z</time>
      </trkpt>
      <trkpt lat="43.14645" lon="5.90195">
        <ele>47</ele>
        <time>2016-07-30T07:23:16.017Z</time>
      </trkpt>
      <trkpt lat="43.1464" lon="5.90193">
        <ele>47</ele>
        <time>2016-07-30T07:23:17.017Z</time>
      </trkpt>
      <trkpt lat="43.14634" lon="5.9019">
        <ele>47</ele>
        <time>2016-07-30T07:23:18.017Z</time>
      </trkpt>
      <trkpt lat="43.14629" lon="5.90187">
        <ele>47</ele>
        <time>2016-07-30T07:23:19.017Z</time>
      </trkpt>
      <trkpt lat="43.14623" lon="5.90184">
        <ele>46</ele>
        <time>2016-07-30T07:23:20.017Z</time>
      </trkpt>
      <trkpt lat="43.14617" lon="5.90182">
        <ele>46</ele>
        <time>2016-07-30T07:23:21.017Z</time>
      </trkpt>
      <trkpt lat="43.14611" lon="5.9018">
        <ele>45</ele>
        <time>2016-07-30T07:23:22.017Z</time>
      </trkpt>
      <trkpt lat="43.14605" lon="5.90177">
        <ele>45</ele>
        <time>2016-07-30T07:23:23.017Z</time>
      </trkpt>
      <trkpt lat="43.14599" lon="5.90175">
        <ele>45</ele>
        <time>2016-07-30T07:23:24.017Z</time>
      </trkpt>
      <trkpt lat="43.14593" lon="5.90172">
        <ele>45</ele>
        <time>2016-07-30T07:23:25.017Z</time>
      </trkpt>
      <trkpt lat="43.14587" lon="5.90169">
        <ele>45</ele>
        <time>2016-07-30T07:23:26.017Z</time>
      </trkpt>
      <trkpt lat="43.14581" lon="5.90166">
        <ele>44</ele>
        <time>2016-07-30T07:23:27.017Z</time>
      </trkpt>
      <trkpt lat="43.14575" lon="5.90163">
        <ele>44</ele>
        <time>2016-07-30T07:23:28.017Z</time>
      </trkpt>
      <trkpt lat="43.14569" lon="5.9016">
        <ele>44</ele>
        <time>2016-07-30T07:23:29.017Z</time>
      </trkpt>
      <trkpt lat="43.14562" lon="5.90158">
        <ele>43</ele>
        <time>2016-07-30T07:23:30.017Z</time>
      </trkpt>
      <trkpt lat="43.14555" lon="5.90156">
        <ele>42</ele>
        <time>2016-07-30T07:23:31.017Z</time>
      </trkpt>
      <trkpt lat="43.14549" lon="5.90154">
        <ele>42</ele>
        <time>2016-07-30T07:23:32.017Z</time>
      </trkpt>
      <trkpt lat="43.14542" lon="5.90153">
        <ele>41</ele>
        <time>2016-07-30T07:23:33.017Z</time>
      </trkpt>
      <trkpt lat="43.14535" lon="5.90153">
        <ele>41</ele>
        <time>2016-07-30T07:23:34.017Z</time>
      </trkpt>
      <trkpt lat="43.14528" lon="5.90154">
        <ele>41</ele>
        <time>2016-07-30T07:23:35.017Z</time>
      </trkpt>
      <trkpt lat="43.14521" lon="5.90156">
        <ele>41</ele>
        <time>2016-07-30T07:23:36.017Z</time>
      </trkpt>
      <trkpt lat="43.14514" lon="5.90157">
        <ele>40</ele>
        <time>2016-07-30T07:23:37.017Z</time>
      </trkpt>
      <trkpt lat="43.14506" lon="5.90158">
        <ele>40</ele>
        <time>2016-07-30T07:23:38.017Z</time>
      </trkpt>
      <trkpt lat="43.14499" lon="5.9016">
        <ele>39</ele>
        <time>2016-07-30T07:23:39.017Z</time>
      </trkpt>
      <trkpt lat="43.14491" lon="5.90161">
        <ele>39</ele>
        <time>2016-07-30T07:23:40.017Z</time>
      </trkpt>
      <trkpt lat="43.14484" lon="5.90163">
        <ele>39</ele>
        <time>2016-07-30T07:23:41.017Z</time>
      </trkpt>
      <trkpt lat="43.14476" lon="5.90165">
        <ele>38</ele>
        <time>2016-07-30T07:23:42.017Z</time>
      </trkpt>
      <trkpt lat="43.14468" lon="5.90167">
        <ele>38</ele>
        <time>2016-07-30T07:23:43.017Z</time>
      </trkpt>
      <trkpt lat="43.1446" lon="5.90168">
        <ele>37</ele>
        <time>2016-07-30T07:23:44.017Z</time>
      </trkpt>
      <trkpt lat="43.14452" lon="5.9017">
        <ele>38</ele>
        <time>2016-07-30T07:23:45.017Z</time>
      </trkpt>
      <trkpt lat="43.14443" lon="5.90172">
        <ele>38</ele>
        <time>2016-07-30T07:23:46.017Z</time>
      </trkpt>
      <trkpt lat="43.14435" lon="5.90173">
        <ele>38</ele>
        <time>2016-07-30T07:23:47.017Z</time>
      </trkpt>
      <trkpt lat="43.14426" lon="5.90174">
        <ele>38</ele>
        <time>2016-07-30T07:23:48.017Z</time>
      </trkpt>
      <trkpt lat="43.14417" lon="5.90173">
        <ele>37</ele>
        <time>2016-07-30T07:23:49.017Z</time>
      </trkpt>
      <trkpt lat="43.14407" lon="5.90172">
        <ele>36</ele>
        <time>2016-07-30T07:23:50.017Z</time>
      </trkpt>
      <trkpt lat="43.14398" lon="5.90171">
        <ele>36</ele>
        <time>2016-07-30T07:23:51.017Z</time>
      </trkpt>
      <trkpt lat="43.14389" lon="5.90169">
        <ele>35</ele>
        <time>2016-07-30T07:23:52.017Z</time>
      </trkpt>
      <trkpt lat="43.14379" lon="5.90167">
        <ele>35</ele>
        <time>2016-07-30T07:23:53.017Z</time>
      </trkpt>
      <trkpt lat="43.1437" lon="5.90165">
        <ele>35</ele>
        <time>2016-07-30T07:23:54.017Z</time>
      </trkpt>
      <trkpt lat="43.1436" lon="5.90164">
        <ele>34</ele>
        <time>2016-07-30T07:23:55.017Z</time>
      </trkpt>
      <trkpt lat="43.14351" lon="5.90162">
        <ele>34</ele>
        <time>2016-07-30T07:23:56.017Z</time>
      </trkpt>
      <trkpt lat="43.14341" lon="5.90161">
        <ele>33</ele>
        <time>2016-07-30T07:23:57.017Z</time>
      </trkpt>
      <trkpt lat="43.14332" lon="5.90161">
        <ele>33</ele>
        <time>2016-07-30T07:23:58.017Z</time>
      </trkpt>
      <trkpt lat="43.14323" lon="5.90161">
        <ele>32</ele>
        <time>2016-07-30T07:23:59.017Z</time>
      </trkpt>
      <trkpt lat="43.14314" lon="5.90163">
        <ele>32</ele>
        <time>2016-07-30T07:24:00.017Z</time>
      </trkpt>
      <trkpt lat="43.14305" lon="5.90166">
        <ele>32</ele>
        <time>2016-07-30T07:24:01.017Z</time>
      </trkpt>
      <trkpt lat="43.14296" lon="5.90169">
        <ele>32</ele>
        <time>2016-07-30T07:24:02.017Z</time>
      </trkpt>
      <trkpt lat="43.14287" lon="5.90171">
        <ele>31</ele>
        <time>2016-07-30T07:24:03.017Z</time>
      </trkpt>
      <trkpt lat="43.14277" lon="5.90174">
        <ele>31</ele>
        <time>2016-07-30T07:24:04.017Z</time>
      </trkpt>
      <trkpt lat="43.14268" lon="5.90177">
        <ele>31</ele>
        <time>2016-07-30T07:24:05.017Z</time>
      </trkpt>
      <trkpt lat="43.14258" lon="5.9018">
        <ele>30</ele>
        <time>2016-07-30T07:24:06.017Z</time>
      </trkpt>
      <trkpt lat="43.14249" lon="5.90183">
        <ele>29</ele>
        <time>2016-07-30T07:24:07.017Z</time>
      </trkpt>
      <trkpt lat="43.1424" lon="5.90186">
        <ele>29</ele>
        <time>2016-07-30T07:24:08.017Z</time>
      </trkpt>
      <trkpt lat="43.14231" lon="5.90188">
        <ele>30</ele>
        <time>2016-07-30T07:24:09.017Z</time>
      </trkpt>
      <trkpt lat="43.14224" lon="5.9019">
        <ele>30</ele>
        <time>2016-07-30T07:24:10.017Z</time>
      </trkpt>
      <trkpt lat="43.14218" lon="5.90192">
        <ele>29</ele>
        <time>2016-07-30T07:24:11.017Z</time>
      </trkpt>
      <trkpt lat="43.14213" lon="5.90193">
        <ele>28</ele>
        <time>2016-07-30T07:24:12.017Z</time>
      </trkpt>
      <trkpt lat="43.14211" lon="5.90193">
        <ele>28</ele>
        <time>2016-07-30T07:24:13.017Z</time>
      </trkpt>
      <trkpt lat="43.1421" lon="5.90194">
        <ele>27</ele>
        <time>2016-07-30T07:24:14.017Z</time>
      </trkpt>
      <trkpt lat="43.14208" lon="5.90195">
        <ele>27</ele>
        <time>2016-07-30T07:24:15.017Z</time>
      </trkpt>
      <trkpt lat="43.14207" lon="5.90195">
        <ele>27</ele>
        <time>2016-07-30T07:24:16.017Z</time>
      </trkpt>
      <trkpt lat="43.14206" lon="5.90195">
        <ele>27</ele>
        <time>2016-07-30T07:24:17.017Z</time>
      </trkpt>
      <trkpt lat="43.14205" lon="5.90195">
        <ele>27</ele>
        <time>2016-07-30T07:24:18.017Z</time>
      </trkpt>
      <trkpt lat="43.14205" lon="5.90196">
        <ele>28</ele>
        <time>2016-07-30T07:24:19.017Z</time>
      </trkpt>
      <trkpt lat="43.14205" lon="5.90196">
        <ele>28</ele>
        <time>2016-07-30T07:24:20.017Z</time>
      </trkpt>
      <trkpt lat="43.14205" lon="5.90196">
        <ele>28</ele>
        <time>2016-07-30T07:24:21.017Z</time>
      </trkpt>
      <trkpt lat="43.14205" lon="5.90196">
        <ele>29</ele>
        <time>2016-07-30T07:24:22.017Z</time>
      </trkpt>
      <trkpt lat="43.14205" lon="5.90197">
        <ele>29</ele>
        <time>2016-07-30T07:24:23.017Z</time>
      </trkpt>
      <trkpt lat="43.14205" lon="5.90197">
        <ele>29</ele>
        <time>2016-07-30T07:24:24.017Z</time>
      </trkpt>
      <trkpt lat="43.14206" lon="5.90197">
        <ele>30</ele>
        <time>2016-07-30T07:24:25.017Z</time>
      </trkpt>
      <trkpt lat="43.14201" lon="5.90203">
        <ele>33</ele>
        <time>2016-07-30T07:24:26.017Z</time>
      </trkpt>
      <trkpt lat="43.14198" lon="5.90205">
        <ele>33</ele>
        <time>2016-07-30T07:24:27.017Z</time>
      </trkpt>
      <trkpt lat="43.14194" lon="5.90207">
        <ele>32</ele>
        <time>2016-07-30T07:24:28.017Z</time>
      </trkpt>
      <trkpt lat="43.1419" lon="5.90209">
        <ele>32</ele>
        <time>2016-07-30T07:24:29.017Z</time>
      </trkpt>
      <trkpt lat="43.14186" lon="5.90211">
        <ele>32</ele>
        <time>2016-07-30T07:24:30.017Z</time>
      </trkpt>
      <trkpt lat="43.14182" lon="5.90214">
        <ele>30</ele>
        <time>2016-07-30T07:24:31.017Z</time>
      </trkpt>
      <trkpt lat="43.14177" lon="5.90218">
        <ele>28</ele>
        <time>2016-07-30T07:24:32.017Z</time>
      </trkpt>
      <trkpt lat="43.14173" lon="5.90223">
        <ele>27</ele>
        <time>2016-07-30T07:24:33.017Z</time>
      </trkpt>
      <trkpt lat="43.14168" lon="5.90229">
        <ele>27</ele>
        <time>2016-07-30T07:24:34.017Z</time>
      </trkpt>
      <trkpt lat="43.14163" lon="5.90237">
        <ele>29</ele>
        <time>2016-07-30T07:24:35.017Z</time>
      </trkpt>
      <trkpt lat="43.14158" lon="5.90245">
        <ele>30</ele>
        <time>2016-07-30T07:24:36.017Z</time>
      </trkpt>
      <trkpt lat="43.14153" lon="5.90254">
        <ele>31</ele>
        <time>2016-07-30T07:24:37.017Z</time>
      </trkpt>
      <trkpt lat="43.14149" lon="5.90263">
        <ele>30</ele>
        <time>2016-07-30T07:24:38.017Z</time>
      </trkpt>
      <trkpt lat="43.14144" lon="5.90272">
        <ele>30</ele>
        <time>2016-07-30T07:24:39.017Z</time>
      </trkpt>
      <trkpt lat="43.14139" lon="5.90281">
        <ele>30</ele>
        <time>2016-07-30T07:24:40.017Z</time>
      </trkpt>
      <trkpt lat="43.14134" lon="5.9029">
        <ele>30</ele>
        <time>2016-07-30T07:24:41.017Z</time>
      </trkpt>
      <trkpt lat="43.14128" lon="5.90299">
        <ele>30</ele>
        <time>2016-07-30T07:24:42.017Z</time>
      </trkpt>
      <trkpt lat="43.14121" lon="5.90307">
        <ele>31</ele>
        <time>2016-07-30T07:24:43.017Z</time>
      </trkpt>
      <trkpt lat="43.14114" lon="5.90313">
        <ele>31</ele>
        <time>2016-07-30T07:24:44.017Z</time>
      </trkpt>
      <trkpt lat="43.14106" lon="5.90319">
        <ele>32</ele>
        <time>2016-07-30T07:24:45.017Z</time>
      </trkpt>
      <trkpt lat="43.14099" lon="5.90325">
        <ele>32</ele>
        <time>2016-07-30T07:24:46.017Z</time>
      </trkpt>
      <trkpt lat="43.14091" lon="5.9033">
        <ele>32</ele>
        <time>2016-07-30T07:24:47.017Z</time>
      </trkpt>
      <trkpt lat="43.14084" lon="5.90334">
        <ele>32</ele>
        <time>2016-07-30T07:24:48.017Z</time>
      </trkpt>
      <trkpt lat="43.14076" lon="5.9034">
        <ele>32</ele>
        <time>2016-07-30T07:24:49.017Z</time>
      </trkpt>
      <trkpt lat="43.14068" lon="5.90345">
        <ele>33</ele>
        <time>2016-07-30T07:24:50.017Z</time>
      </trkpt>
      <trkpt lat="43.1406" lon="5.9035">
        <ele>32</ele>
        <time>2016-07-30T07:24:51.017Z</time>
      </trkpt>
      <trkpt lat="43.14053" lon="5.90355">
        <ele>32</ele>
        <time>2016-07-30T07:24:52.017Z</time>
      </trkpt>
      <trkpt lat="43.14045" lon="5.90359">
        <ele>32</ele>
        <time>2016-07-30T07:24:53.017Z</time>
      </trkpt>
      <trkpt lat="43.14037" lon="5.90365">
        <ele>32</ele>
        <time>2016-07-30T07:24:54.017Z</time>
      </trkpt>
      <trkpt lat="43.14029" lon="5.90369">
        <ele>32</ele>
        <time>2016-07-30T07:24:55.017Z</time>
      </trkpt>
      <trkpt lat="43.14022" lon="5.90374">
        <ele>32</ele>
        <time>2016-07-30T07:24:56.017Z</time>
      </trkpt>
      <trkpt lat="43.14014" lon="5.90379">
        <ele>33</ele>
        <time>2016-07-30T07:24:57.017Z</time>
      </trkpt>
      <trkpt lat="43.14007" lon="5.90383">
        <ele>33</ele>
        <time>2016-07-30T07:24:58.017Z</time>
      </trkpt>
      <trkpt lat="43.14" lon="5.90387">
        <ele>32</ele>
        <time>2016-07-30T07:24:59.017Z</time>
      </trkpt>
      <trkpt lat="43.13992" lon="5.9039">
        <ele>32</ele>
        <time>2016-07-30T07:25:00.017Z</time>
      </trkpt>
      <trkpt lat="43.13985" lon="5.90394">
        <ele>32</ele>
        <time>2016-07-30T07:25:01.017Z</time>
      </trkpt>
      <trkpt lat="43.13978" lon="5.90398">
        <ele>31</ele>
        <time>2016-07-30T07:25:02.017Z</time>
      </trkpt>
      <trkpt lat="43.1397" lon="5.90402">
        <ele>31</ele>
        <time>2016-07-30T07:25:03.017Z</time>
      </trkpt>
      <trkpt lat="43.13963" lon="5.90405">
        <ele>31</ele>
        <time>2016-07-30T07:25:04.017Z</time>
      </trkpt>
      <trkpt lat="43.13955" lon="5.90409">
        <ele>31</ele>
        <time>2016-07-30T07:25:05.017Z</time>
      </trkpt>
      <trkpt lat="43.13948" lon="5.90413">
        <ele>30</ele>
        <time>2016-07-30T07:25:06.017Z</time>
      </trkpt>
      <trkpt lat="43.1394" lon="5.90417">
        <ele>30</ele>
        <time>2016-07-30T07:25:07.017Z</time>
      </trkpt>
      <trkpt lat="43.13933" lon="5.90421">
        <ele>30</ele>
        <time>2016-07-30T07:25:08.017Z</time>
      </trkpt>
      <trkpt lat="43.13925" lon="5.90425">
        <ele>29</ele>
        <time>2016-07-30T07:25:09.017Z</time>
      </trkpt>
      <trkpt lat="43.13918" lon="5.90429">
        <ele>29</ele>
        <time>2016-07-30T07:25:10.017Z</time>
      </trkpt>
      <trkpt lat="43.1391" lon="5.90434">
        <ele>28</ele>
        <time>2016-07-30T07:25:11.017Z</time>
      </trkpt>
      <trkpt lat="43.13903" lon="5.9044">
        <ele>29</ele>
        <time>2016-07-30T07:25:12.017Z</time>
      </trkpt>
      <trkpt lat="43.13897" lon="5.90446">
        <ele>28</ele>
        <time>2016-07-30T07:25:13.017Z</time>
      </trkpt>
      <trkpt lat="43.1389" lon="5.90452">
        <ele>26</ele>
        <time>2016-07-30T07:25:14.017Z</time>
      </trkpt>
      <trkpt lat="43.13884" lon="5.90459">
        <ele>26</ele>
        <time>2016-07-30T07:25:15.017Z</time>
      </trkpt>
      <trkpt lat="43.13877" lon="5.90465">
        <ele>25</ele>
        <time>2016-07-30T07:25:16.017Z</time>
      </trkpt>
      <trkpt lat="43.1387" lon="5.90471">
        <ele>25</ele>
        <time>2016-07-30T07:25:17.017Z</time>
      </trkpt>
      <trkpt lat="43.13863" lon="5.90476">
        <ele>24</ele>
        <time>2016-07-30T07:25:18.017Z</time>
      </trkpt>
      <trkpt lat="43.13855" lon="5.90481">
        <ele>23</ele>
        <time>2016-07-30T07:25:19.017Z</time>
      </trkpt>
      <trkpt lat="43.13848" lon="5.90486">
        <ele>22</ele>
        <time>2016-07-30T07:25:20.017Z</time>
      </trkpt>
      <trkpt lat="43.13841" lon="5.9049">
        <ele>21</ele>
        <time>2016-07-30T07:25:21.017Z</time>
      </trkpt>
      <trkpt lat="43.13833" lon="5.90494">
        <ele>20</ele>
        <time>2016-07-30T07:25:22.017Z</time>
      </trkpt>
      <trkpt lat="43.13826" lon="5.90498">
        <ele>20</ele>
        <time>2016-07-30T07:25:23.017Z</time>
      </trkpt>
      <trkpt lat="43.13818" lon="5.90501">
        <ele>20</ele>
        <time>2016-07-30T07:25:24.017Z</time>
      </trkpt>
      <trkpt lat="43.13809" lon="5.90503">
        <ele>20</ele>
        <time>2016-07-30T07:25:25.017Z</time>
      </trkpt>
      <trkpt lat="43.13801" lon="5.90505">
        <ele>20</ele>
        <time>2016-07-30T07:25:26.017Z</time>
      </trkpt>
      <trkpt lat="43.13792" lon="5.90508">
        <ele>19</ele>
        <time>2016-07-30T07:25:27.017Z</time>
      </trkpt>
      <trkpt lat="43.13785" lon="5.90511">
        <ele>19</ele>
        <time>2016-07-30T07:25:28.017Z</time>
      </trkpt>
      <trkpt lat="43.13777" lon="5.90515">
        <ele>19</ele>
        <time>2016-07-30T07:25:29.017Z</time>
      </trkpt>
      <trkpt lat="43.13771" lon="5.9052">
        <ele>19</ele>
        <time>2016-07-30T07:25:30.017Z</time>
      </trkpt>
      <trkpt lat="43.13767" lon="5.90527">
        <ele>18</ele>
        <time>2016-07-30T07:25:31.017Z</time>
      </trkpt>
      <trkpt lat="43.13764" lon="5.90535">
        <ele>18</ele>
        <time>2016-07-30T07:25:32.017Z</time>
      </trkpt>
      <trkpt lat="43.13762" lon="5.90543">
        <ele>18</ele>
        <time>2016-07-30T07:25:33.017Z</time>
      </trkpt>
      <trkpt lat="43.1376" lon="5.9055">
        <ele>18</ele>
        <time>2016-07-30T07:25:34.017Z</time>
      </trkpt>
      <trkpt lat="43.13758" lon="5.90556">
        <ele>18</ele>
        <time>2016-07-30T07:25:35.017Z</time>
      </trkpt>
      <trkpt lat="43.13755" lon="5.90563">
        <ele>18</ele>
        <time>2016-07-30T07:25:36.017Z</time>
      </trkpt>
      <trkpt lat="43.13753" lon="5.90569">
        <ele>19</ele>
        <time>2016-07-30T07:25:37.017Z</time>
      </trkpt>
      <trkpt lat="43.13751" lon="5.90575">
        <ele>18</ele>
        <time>2016-07-30T07:25:38.017Z</time>
      </trkpt>
      <trkpt lat="43.13749" lon="5.90582">
        <ele>18</ele>
        <time>2016-07-30T07:25:39.017Z</time>
      </trkpt>
      <trkpt lat="43.13746" lon="5.90588">
        <ele>19</ele>
        <time>2016-07-30T07:25:40.017Z</time>
      </trkpt>
      <trkpt lat="43.13742" lon="5.90594">
        <ele>19</ele>
        <time>2016-07-30T07:25:41.017Z</time>
      </trkpt>
      <trkpt lat="43.13739" lon="5.906">
        <ele>19</ele>
        <time>2016-07-30T07:25:42.017Z</time>
      </trkpt>
      <trkpt lat="43.13735" lon="5.90607">
        <ele>19</ele>
        <time>2016-07-30T07:25:43.017Z</time>
      </trkpt>
      <trkpt lat="43.13732" lon="5.90614">
        <ele>19</ele>
        <time>2016-07-30T07:25:44.017Z</time>
      </trkpt>
      <trkpt lat="43.13728" lon="5.90622">
        <ele>19</ele>
        <time>2016-07-30T07:25:45.017Z</time>
      </trkpt>
      <trkpt lat="43.13728" lon="5.90622">
        <ele>19</ele>
        <time>2016-07-30T07:25:46.017Z</time>
      </trkpt>
      <trkpt lat="43.13725" lon="5.90633">
        <ele>20</ele>
        <time>2016-07-30T07:25:47.017Z</time>
      </trkpt>
      <trkpt lat="43.13722" lon="5.90645">
        <ele>20</ele>
        <time>2016-07-30T07:25:48.017Z</time>
      </trkpt>
      <trkpt lat="43.13719" lon="5.90657">
        <ele>20</ele>
        <time>2016-07-30T07:25:49.017Z</time>
      </trkpt>
      <trkpt lat="43.13718" lon="5.90666">
        <ele>19</ele>
        <time>2016-07-30T07:25:50.017Z</time>
      </trkpt>
      <trkpt lat="43.13716" lon="5.90676">
        <ele>19</ele>
        <time>2016-07-30T07:25:51.017Z</time>
      </trkpt>
      <trkpt lat="43.13714" lon="5.90685">
        <ele>19</ele>
        <time>2016-07-30T07:25:52.017Z</time>
      </trkpt>
      <trkpt lat="43.13712" lon="5.90695">
        <ele>19</ele>
        <time>2016-07-30T07:25:53.017Z</time>
      </trkpt>
      <trkpt lat="43.1371" lon="5.90704">
        <ele>19</ele>
        <time>2016-07-30T07:25:54.017Z</time>
      </trkpt>
      <trkpt lat="43.13708" lon="5.90713">
        <ele>19</ele>
        <time>2016-07-30T07:25:55.017Z</time>
      </trkpt>
      <trkpt lat="43.13706" lon="5.90722">
        <ele>18</ele>
        <time>2016-07-30T07:25:56.017Z</time>
      </trkpt>
      <trkpt lat="43.13705" lon="5.90731">
        <ele>18</ele>
        <time>2016-07-30T07:25:57.017Z</time>
      </trkpt>
      <trkpt lat="43.13704" lon="5.9074">
        <ele>18</ele>
        <time>2016-07-30T07:25:58.017Z</time>
      </trkpt>
      <trkpt lat="43.13703" lon="5.90749">
        <ele>19</ele>
        <time>2016-07-30T07:25:59.017Z</time>
      </trkpt>
      <trkpt lat="43.13703" lon="5.90756">
        <ele>20</ele>
        <time>2016-07-30T07:26:00.017Z</time>
      </trkpt>
      <trkpt lat="43.13701" lon="5.90762">
        <ele>22</ele>
        <time>2016-07-30T07:26:01.017Z</time>
      </trkpt>
      <trkpt lat="43.137" lon="5.90765">
        <ele>27</ele>
        <time>2016-07-30T07:26:02.017Z</time>
      </trkpt>
      <trkpt lat="43.137" lon="5.90768">
        <ele>26</ele>
        <time>2016-07-30T07:26:03.017Z</time>
      </trkpt>
      <trkpt lat="43.137" lon="5.9077">
        <ele>24</ele>
        <time>2016-07-30T07:26:04.017Z</time>
      </trkpt>
      <trkpt lat="43.137" lon="5.90772">
        <ele>25</ele>
        <time>2016-07-30T07:26:05.017Z</time>
      </trkpt>
      <trkpt lat="43.137" lon="5.90773">
        <ele>25</ele>
        <time>2016-07-30T07:26:06.017Z</time>
      </trkpt>
      <trkpt lat="43.137" lon="5.90775">
        <ele>25</ele>
        <time>2016-07-30T07:26:07.017Z</time>
      </trkpt>
      <trkpt lat="43.13699" lon="5.90777">
        <ele>24</ele>
        <time>2016-07-30T07:26:08.017Z</time>
      </trkpt>
      <trkpt lat="43.13698" lon="5.90779">
        <ele>24</ele>
        <time>2016-07-30T07:26:09.017Z</time>
      </trkpt>
      <trkpt lat="43.13697" lon="5.9078">
        <ele>24</ele>
        <time>2016-07-30T07:26:10.017Z</time>
      </trkpt>
      <trkpt lat="43.13696" lon="5.90782">
        <ele>24</ele>
        <time>2016-07-30T07:26:11.017Z</time>
      </trkpt>
      <trkpt lat="43.13695" lon="5.90784">
        <ele>23</ele>
        <time>2016-07-30T07:26:12.017Z</time>
      </trkpt>
      <trkpt lat="43.13693" lon="5.90787">
        <ele>24</ele>
        <time>2016-07-30T07:26:13.017Z</time>
      </trkpt>
      <trkpt lat="43.13692" lon="5.90792">
        <ele>24</ele>
        <time>2016-07-30T07:26:14.017Z</time>
      </trkpt>
      <trkpt lat="43.1369" lon="5.90799">
        <ele>26</ele>
        <time>2016-07-30T07:26:15.017Z</time>
      </trkpt>
      <trkpt lat="43.1369" lon="5.90806">
        <ele>25</ele>
        <time>2016-07-30T07:26:16.017Z</time>
      </trkpt>
      <trkpt lat="43.13691" lon="5.90813">
        <ele>21</ele>
        <time>2016-07-30T07:26:17.017Z</time>
      </trkpt>
      <trkpt lat="43.13692" lon="5.90819">
        <ele>20</ele>
        <time>2016-07-30T07:26:18.017Z</time>
      </trkpt>
      <trkpt lat="43.13694" lon="5.90825">
        <ele>18</ele>
        <time>2016-07-30T07:26:19.017Z</time>
      </trkpt>
      <trkpt lat="43.13696" lon="5.90832">
        <ele>17</ele>
        <time>2016-07-30T07:26:20.017Z</time>
      </trkpt>
      <trkpt lat="43.13697" lon="5.90841">
        <ele>17</ele>
        <time>2016-07-30T07:26:21.017Z</time>
      </trkpt>
      <trkpt lat="43.13698" lon="5.9085">
        <ele>16</ele>
        <time>2016-07-30T07:26:22.017Z</time>
      </trkpt>
      <trkpt lat="43.13698" lon="5.90859">
        <ele>16</ele>
        <time>2016-07-30T07:26:23.017Z</time>
      </trkpt>
      <trkpt lat="43.13698" lon="5.90869">
        <ele>16</ele>
        <time>2016-07-30T07:26:24.017Z</time>
      </trkpt>
      <trkpt lat="43.13697" lon="5.90879">
        <ele>15</ele>
        <time>2016-07-30T07:26:25.017Z</time>
      </trkpt>
      <trkpt lat="43.13697" lon="5.90889">
        <ele>15</ele>
        <time>2016-07-30T07:26:26.017Z</time>
      </trkpt>
      <trkpt lat="43.13696" lon="5.90899">
        <ele>15</ele>
        <time>2016-07-30T07:26:27.017Z</time>
      </trkpt>
      <trkpt lat="43.13696" lon="5.90909">
        <ele>15</ele>
        <time>2016-07-30T07:26:28.017Z</time>
      </trkpt>
      <trkpt lat="43.13695" lon="5.90919">
        <ele>15</ele>
        <time>2016-07-30T07:26:29.017Z</time>
      </trkpt>
      <trkpt lat="43.13695" lon="5.90929">
        <ele>15</ele>
        <time>2016-07-30T07:26:30.017Z</time>
      </trkpt>
      <trkpt lat="43.13695" lon="5.90938">
        <ele>15</ele>
        <time>2016-07-30T07:26:31.017Z</time>
      </trkpt>
      <trkpt lat="43.13694" lon="5.90948">
        <ele>15</ele>
        <time>2016-07-30T07:26:32.017Z</time>
      </trkpt>
      <trkpt lat="43.13694" lon="5.90958">
        <ele>15</ele>
        <time>2016-07-30T07:26:33.017Z</time>
      </trkpt>
      <trkpt lat="43.13694" lon="5.90967">
        <ele>14</ele>
        <time>2016-07-30T07:26:34.017Z</time>
      </trkpt>
      <trkpt lat="43.13693" lon="5.90976">
        <ele>14</ele>
        <time>2016-07-30T07:26:35.017Z</time>
      </trkpt>
      <trkpt lat="43.13693" lon="5.90984">
        <ele>14</ele>
        <time>2016-07-30T07:26:36.017Z</time>
      </trkpt>
      <trkpt lat="43.13693" lon="5.90992">
        <ele>15</ele>
        <time>2016-07-30T07:26:37.017Z</time>
      </trkpt>
      <trkpt lat="43.13694" lon="5.91">
        <ele>15</ele>
        <time>2016-07-30T07:26:38.017Z</time>
      </trkpt>
      <trkpt lat="43.13694" lon="5.91007">
        <ele>15</ele>
        <time>2016-07-30T07:26:39.017Z</time>
      </trkpt>
      <trkpt lat="43.13694" lon="5.91014">
        <ele>15</ele>
        <time>2016-07-30T07:26:40.017Z</time>
      </trkpt>
      <trkpt lat="43.13694" lon="5.91021">
        <ele>15</ele>
        <time>2016-07-30T07:26:41.017Z</time>
      </trkpt>
      <trkpt lat="43.13693" lon="5.91028">
        <ele>15</ele>
        <time>2016-07-30T07:26:42.017Z</time>
      </trkpt>
      <trkpt lat="43.13693" lon="5.91036">
        <ele>15</ele>
        <time>2016-07-30T07:26:43.017Z</time>
      </trkpt>
      <trkpt lat="43.13693" lon="5.91043">
        <ele>16</ele>
        <time>2016-07-30T07:26:44.017Z</time>
      </trkpt>
      <trkpt lat="43.13692" lon="5.91051">
        <ele>16</ele>
        <time>2016-07-30T07:26:45.017Z</time>
      </trkpt>
      <trkpt lat="43.13692" lon="5.91059">
        <ele>16</ele>
        <time>2016-07-30T07:26:46.017Z</time>
      </trkpt>
      <trkpt lat="43.13691" lon="5.91067">
        <ele>16</ele>
        <time>2016-07-30T07:26:47.017Z</time>
      </trkpt>
      <trkpt lat="43.13691" lon="5.91075">
        <ele>16</ele>
        <time>2016-07-30T07:26:48.017Z</time>
      </trkpt>
      <trkpt lat="43.13691" lon="5.91083">
        <ele>16</ele>
        <time>2016-07-30T07:26:49.017Z</time>
      </trkpt>
      <trkpt lat="43.13691" lon="5.91091">
        <ele>16</ele>
        <time>2016-07-30T07:26:50.017Z</time>
      </trkpt>
      <trkpt lat="43.13692" lon="5.91099">
        <ele>16</ele>
        <time>2016-07-30T07:26:51.017Z</time>
      </trkpt>
      <trkpt lat="43.13692" lon="5.91107">
        <ele>16</ele>
        <time>2016-07-30T07:26:52.017Z</time>
      </trkpt>
      <trkpt lat="43.13692" lon="5.91115">
        <ele>15</ele>
        <time>2016-07-30T07:26:53.017Z</time>
      </trkpt>
      <trkpt lat="43.13692" lon="5.91124">
        <ele>15</ele>
        <time>2016-07-30T07:26:54.017Z</time>
      </trkpt>
      <trkpt lat="43.13693" lon="5.91132">
        <ele>15</ele>
        <time>2016-07-30T07:26:55.017Z</time>
      </trkpt>
      <trkpt lat="43.13694" lon="5.9114">
        <ele>14</ele>
        <time>2016-07-30T07:26:56.017Z</time>
      </trkpt>
      <trkpt lat="43.13694" lon="5.91147">
        <ele>14</ele>
        <time>2016-07-30T07:26:57.017Z</time>
      </trkpt>
      <trkpt lat="43.13694" lon="5.91155">
        <ele>14</ele>
        <time>2016-07-30T07:26:58.017Z</time>
      </trkpt>
      <trkpt lat="43.13695" lon="5.91162">
        <ele>14</ele>
        <time>2016-07-30T07:26:59.017Z</time>
      </trkpt>
      <trkpt lat="43.13696" lon="5.91168">
        <ele>13</ele>
        <time>2016-07-30T07:27:00.017Z</time>
      </trkpt>
      <trkpt lat="43.13698" lon="5.91175">
        <ele>13</ele>
        <time>2016-07-30T07:27:01.017Z</time>
      </trkpt>
      <trkpt lat="43.13701" lon="5.91182">
        <ele>13</ele>
        <time>2016-07-30T07:27:02.017Z</time>
      </trkpt>
      <trkpt lat="43.13703" lon="5.9119">
        <ele>13</ele>
        <time>2016-07-30T07:27:03.017Z</time>
      </trkpt>
      <trkpt lat="43.13705" lon="5.91197">
        <ele>13</ele>
        <time>2016-07-30T07:27:04.017Z</time>
      </trkpt>
      <trkpt lat="43.13708" lon="5.91205">
        <ele>13</ele>
        <time>2016-07-30T07:27:05.017Z</time>
      </trkpt>
      <trkpt lat="43.1371" lon="5.91214">
        <ele>13</ele>
        <time>2016-07-30T07:27:06.017Z</time>
      </trkpt>
      <trkpt lat="43.13713" lon="5.91221">
        <ele>14</ele>
        <time>2016-07-30T07:27:07.017Z</time>
      </trkpt>
      <trkpt lat="43.13716" lon="5.91229">
        <ele>14</ele>
        <time>2016-07-30T07:27:08.017Z</time>
      </trkpt>
      <trkpt lat="43.13719" lon="5.91237">
        <ele>14</ele>
        <time>2016-07-30T07:27:09.017Z</time>
      </trkpt>
      <trkpt lat="43.13722" lon="5.91245">
        <ele>13</ele>
        <time>2016-07-30T07:27:10.017Z</time>
      </trkpt>
      <trkpt lat="43.13725" lon="5.91253">
        <ele>13</ele>
        <time>2016-07-30T07:27:11.017Z</time>
      </trkpt>
      <trkpt lat="43.13728" lon="5.91261">
        <ele>13</ele>
        <time>2016-07-30T07:27:12.017Z</time>
      </trkpt>
      <trkpt lat="43.13731" lon="5.91268">
        <ele>13</ele>
        <time>2016-07-30T07:27:13.017Z</time>
      </trkpt>
      <trkpt lat="43.13735" lon="5.91276">
        <ele>13</ele>
        <time>2016-07-30T07:27:14.017Z</time>
      </trkpt>
      <trkpt lat="43.13739" lon="5.91284">
        <ele>13</ele>
        <time>2016-07-30T07:27:15.017Z</time>
      </trkpt>
      <trkpt lat="43.13742" lon="5.91291">
        <ele>13</ele>
        <time>2016-07-30T07:27:16.017Z</time>
      </trkpt>
      <trkpt lat="43.13746" lon="5.91299">
        <ele>14</ele>
        <time>2016-07-30T07:27:17.017Z</time>
      </trkpt>
      <trkpt lat="43.13751" lon="5.91306">
        <ele>15</ele>
        <time>2016-07-30T07:27:18.017Z</time>
      </trkpt>
      <trkpt lat="43.13755" lon="5.91313">
        <ele>16</ele>
        <time>2016-07-30T07:27:19.017Z</time>
      </trkpt>
      <trkpt lat="43.13759" lon="5.9132">
        <ele>16</ele>
        <time>2016-07-30T07:27:20.017Z</time>
      </trkpt>
      <trkpt lat="43.13763" lon="5.91327">
        <ele>16</ele>
        <time>2016-07-30T07:27:21.017Z</time>
      </trkpt>
      <trkpt lat="43.13766" lon="5.91334">
        <ele>17</ele>
        <time>2016-07-30T07:27:22.017Z</time>
      </trkpt>
      <trkpt lat="43.1377" lon="5.91341">
        <ele>17</ele>
        <time>2016-07-30T07:27:23.017Z</time>
      </trkpt>
      <trkpt lat="43.13772" lon="5.91348">
        <ele>17</ele>
        <time>2016-07-30T07:27:24.017Z</time>
      </trkpt>
      <trkpt lat="43.13773" lon="5.91355">
        <ele>17</ele>
        <time>2016-07-30T07:27:25.017Z</time>
      </trkpt>
      <trkpt lat="43.13773" lon="5.91363">
        <ele>18</ele>
        <time>2016-07-30T07:27:26.017Z</time>
      </trkpt>
      <trkpt lat="43.13772" lon="5.9137">
        <ele>18</ele>
        <time>2016-07-30T07:27:27.017Z</time>
      </trkpt>
      <trkpt lat="43.13771" lon="5.91377">
        <ele>19</ele>
        <time>2016-07-30T07:27:28.017Z</time>
      </trkpt>
      <trkpt lat="43.1377" lon="5.91383">
        <ele>19</ele>
        <time>2016-07-30T07:27:29.017Z</time>
      </trkpt>
      <trkpt lat="43.13768" lon="5.91389">
        <ele>20</ele>
        <time>2016-07-30T07:27:30.017Z</time>
      </trkpt>
      <trkpt lat="43.13767" lon="5.91395">
        <ele>20</ele>
        <time>2016-07-30T07:27:31.017Z</time>
      </trkpt>
      <trkpt lat="43.13767" lon="5.914">
        <ele>21</ele>
        <time>2016-07-30T07:27:32.017Z</time>
      </trkpt>
      <trkpt lat="43.13765" lon="5.91405">
        <ele>21</ele>
        <time>2016-07-30T07:27:33.017Z</time>
      </trkpt>
      <trkpt lat="43.13763" lon="5.9141">
        <ele>20</ele>
        <time>2016-07-30T07:27:34.017Z</time>
      </trkpt>
      <trkpt lat="43.13761" lon="5.91415">
        <ele>20</ele>
        <time>2016-07-30T07:27:35.017Z</time>
      </trkpt>
      <trkpt lat="43.13758" lon="5.91419">
        <ele>21</ele>
        <time>2016-07-30T07:27:36.017Z</time>
      </trkpt>
      <trkpt lat="43.13754" lon="5.91423">
        <ele>21</ele>
        <time>2016-07-30T07:27:37.017Z</time>
      </trkpt>
      <trkpt lat="43.13751" lon="5.91426">
        <ele>22</ele>
        <time>2016-07-30T07:27:38.017Z</time>
      </trkpt>
      <trkpt lat="43.13748" lon="5.91429">
        <ele>22</ele>
        <time>2016-07-30T07:27:39.017Z</time>
      </trkpt>
      <trkpt lat="43.13745" lon="5.91433">
        <ele>22</ele>
        <time>2016-07-30T07:27:40.017Z</time>
      </trkpt>
      <trkpt lat="43.13742" lon="5.91437">
        <ele>22</ele>
        <time>2016-07-30T07:27:41.017Z</time>
      </trkpt>
      <trkpt lat="43.1374" lon="5.91441">
        <ele>22</ele>
        <time>2016-07-30T07:27:42.017Z</time>
      </trkpt>
      <trkpt lat="43.13737" lon="5.91445">
        <ele>23</ele>
        <time>2016-07-30T07:27:43.017Z</time>
      </trkpt>
      <trkpt lat="43.13735" lon="5.91449">
        <ele>24</ele>
        <time>2016-07-30T07:27:44.017Z</time>
      </trkpt>
      <trkpt lat="43.13732" lon="5.91453">
        <ele>26</ele>
        <time>2016-07-30T07:27:45.017Z</time>
      </trkpt>
      <trkpt lat="43.13729" lon="5.91458">
        <ele>26</ele>
        <time>2016-07-30T07:27:46.017Z</time>
      </trkpt>
      <trkpt lat="43.13726" lon="5.91462">
        <ele>26</ele>
        <time>2016-07-30T07:27:47.017Z</time>
      </trkpt>
      <trkpt lat="43.13723" lon="5.91467">
        <ele>24</ele>
        <time>2016-07-30T07:27:48.017Z</time>
      </trkpt>
      <trkpt lat="43.1372" lon="5.91472">
        <ele>24</ele>
        <time>2016-07-30T07:27:49.017Z</time>
      </trkpt>
      <trkpt lat="43.13716" lon="5.91477">
        <ele>24</ele>
        <time>2016-07-30T07:27:50.017Z</time>
      </trkpt>
      <trkpt lat="43.13711" lon="5.91482">
        <ele>25</ele>
        <time>2016-07-30T07:27:51.017Z</time>
      </trkpt>
      <trkpt lat="43.13707" lon="5.91487">
        <ele>25</ele>
        <time>2016-07-30T07:27:52.017Z</time>
      </trkpt>
      <trkpt lat="43.13702" lon="5.91493">
        <ele>25</ele>
        <time>2016-07-30T07:27:53.017Z</time>
      </trkpt>
      <trkpt lat="43.13697" lon="5.91499">
        <ele>26</ele>
        <time>2016-07-30T07:27:54.017Z</time>
      </trkpt>
      <trkpt lat="43.13693" lon="5.91505">
        <ele>26</ele>
        <time>2016-07-30T07:27:55.017Z</time>
      </trkpt>
      <trkpt lat="43.13688" lon="5.91511">
        <ele>25</ele>
        <time>2016-07-30T07:27:56.017Z</time>
      </trkpt>
      <trkpt lat="43.13683" lon="5.91517">
        <ele>25</ele>
        <time>2016-07-30T07:27:57.017Z</time>
      </trkpt>
      <trkpt lat="43.13678" lon="5.91523">
        <ele>25</ele>
        <time>2016-07-30T07:27:58.017Z</time>
      </trkpt>
      <trkpt lat="43.13674" lon="5.91529">
        <ele>25</ele>
        <time>2016-07-30T07:27:59.017Z</time>
      </trkpt>
      <trkpt lat="43.13669" lon="5.91535">
        <ele>25</ele>
        <time>2016-07-30T07:28:00.017Z</time>
      </trkpt>
      <trkpt lat="43.13664" lon="5.9154">
        <ele>25</ele>
        <time>2016-07-30T07:28:01.017Z</time>
      </trkpt>
      <trkpt lat="43.13659" lon="5.91545">
        <ele>25</ele>
        <time>2016-07-30T07:28:02.017Z</time>
      </trkpt>
      <trkpt lat="43.13654" lon="5.91551">
        <ele>25</ele>
        <time>2016-07-30T07:28:03.017Z</time>
      </trkpt>
      <trkpt lat="43.1365" lon="5.91556">
        <ele>25</ele>
        <time>2016-07-30T07:28:04.017Z</time>
      </trkpt>
      <trkpt lat="43.13645" lon="5.91561">
        <ele>25</ele>
        <time>2016-07-30T07:28:05.017Z</time>
      </trkpt>
      <trkpt lat="43.13641" lon="5.91566">
        <ele>25</ele>
        <time>2016-07-30T07:28:06.017Z</time>
      </trkpt>
      <trkpt lat="43.13637" lon="5.9157">
        <ele>25</ele>
        <time>2016-07-30T07:28:07.017Z</time>
      </trkpt>
      <trkpt lat="43.13633" lon="5.91575">
        <ele>26</ele>
        <time>2016-07-30T07:28:08.017Z</time>
      </trkpt>
      <trkpt lat="43.13629" lon="5.91578">
        <ele>26</ele>
        <time>2016-07-30T07:28:09.017Z</time>
      </trkpt>
      <trkpt lat="43.13626" lon="5.91581">
        <ele>27</ele>
        <time>2016-07-30T07:28:10.017Z</time>
      </trkpt>
      <trkpt lat="43.13623" lon="5.91583">
        <ele>27</ele>
        <time>2016-07-30T07:28:11.017Z</time>
      </trkpt>
      <trkpt lat="43.1362" lon="5.91585">
        <ele>26</ele>
        <time>2016-07-30T07:28:12.017Z</time>
      </trkpt>
      <trkpt lat="43.13617" lon="5.91587">
        <ele>26</ele>
        <time>2016-07-30T07:28:13.017Z</time>
      </trkpt>
      <trkpt lat="43.13614" lon="5.91589">
        <ele>25</ele>
        <time>2016-07-30T07:28:14.017Z</time>
      </trkpt>
      <trkpt lat="43.1361" lon="5.91591">
        <ele>25</ele>
        <time>2016-07-30T07:28:15.017Z</time>
      </trkpt>
      <trkpt lat="43.13606" lon="5.91592">
        <ele>24</ele>
        <time>2016-07-30T07:28:16.017Z</time>
      </trkpt>
      <trkpt lat="43.13603" lon="5.91594">
        <ele>23</ele>
        <time>2016-07-30T07:28:17.017Z</time>
      </trkpt>
      <trkpt lat="43.13599" lon="5.91595">
        <ele>23</ele>
        <time>2016-07-30T07:28:18.017Z</time>
      </trkpt>
      <trkpt lat="43.13595" lon="5.91598">
        <ele>22</ele>
        <time>2016-07-30T07:28:19.017Z</time>
      </trkpt>
      <trkpt lat="43.13591" lon="5.916">
        <ele>22</ele>
        <time>2016-07-30T07:28:20.017Z</time>
      </trkpt>
      <trkpt lat="43.13587" lon="5.91602">
        <ele>22</ele>
        <time>2016-07-30T07:28:21.017Z</time>
      </trkpt>
      <trkpt lat="43.13584" lon="5.91605">
        <ele>20</ele>
        <time>2016-07-30T07:28:22.017Z</time>
      </trkpt>
      <trkpt lat="43.13582" lon="5.91608">
        <ele>19</ele>
        <time>2016-07-30T07:28:23.017Z</time>
      </trkpt>
      <trkpt lat="43.13581" lon="5.91614">
        <ele>16</ele>
        <time>2016-07-30T07:28:24.017Z</time>
      </trkpt>
      <trkpt lat="43.13582" lon="5.91621">
        <ele>15</ele>
        <time>2016-07-30T07:28:25.017Z</time>
      </trkpt>
      <trkpt lat="43.13584" lon="5.91628">
        <ele>15</ele>
        <time>2016-07-30T07:28:26.017Z</time>
      </trkpt>
      <trkpt lat="43.13586" lon="5.91634">
        <ele>16</ele>
        <time>2016-07-30T07:28:27.017Z</time>
      </trkpt>
      <trkpt lat="43.13587" lon="5.9164">
        <ele>17</ele>
        <time>2016-07-30T07:28:28.017Z</time>
      </trkpt>
      <trkpt lat="43.13588" lon="5.91645">
        <ele>18</ele>
        <time>2016-07-30T07:28:29.017Z</time>
      </trkpt>
      <trkpt lat="43.13588" lon="5.91651">
        <ele>18</ele>
        <time>2016-07-30T07:28:30.017Z</time>
      </trkpt>
      <trkpt lat="43.13588" lon="5.91656">
        <ele>19</ele>
        <time>2016-07-30T07:28:31.017Z</time>
      </trkpt>
      <trkpt lat="43.13589" lon="5.91661">
        <ele>19</ele>
        <time>2016-07-30T07:28:32.017Z</time>
      </trkpt>
      <trkpt lat="43.13589" lon="5.91666">
        <ele>19</ele>
        <time>2016-07-30T07:28:33.017Z</time>
      </trkpt>
      <trkpt lat="43.13589" lon="5.91671">
        <ele>19</ele>
        <time>2016-07-30T07:28:34.017Z</time>
      </trkpt>
      <trkpt lat="43.13589" lon="5.91677">
        <ele>20</ele>
        <time>2016-07-30T07:28:35.017Z</time>
      </trkpt>
      <trkpt lat="43.13589" lon="5.91682">
        <ele>20</ele>
        <time>2016-07-30T07:28:36.017Z</time>
      </trkpt>
      <trkpt lat="43.13589" lon="5.91687">
        <ele>21</ele>
        <time>2016-07-30T07:28:37.017Z</time>
      </trkpt>
      <trkpt lat="43.13589" lon="5.91692">
        <ele>20</ele>
        <time>2016-07-30T07:28:38.017Z</time>
      </trkpt>
      <trkpt lat="43.13589" lon="5.91698">
        <ele>21</ele>
        <time>2016-07-30T07:28:39.017Z</time>
      </trkpt>
      <trkpt lat="43.13589" lon="5.91703">
        <ele>21</ele>
        <time>2016-07-30T07:28:40.017Z</time>
      </trkpt>
      <trkpt lat="43.13589" lon="5.91708">
        <ele>21</ele>
        <time>2016-07-30T07:28:41.017Z</time>
      </trkpt>
      <trkpt lat="43.1359" lon="5.91714">
        <ele>21</ele>
        <time>2016-07-30T07:28:42.017Z</time>
      </trkpt>
      <trkpt lat="43.1359" lon="5.91719">
        <ele>22</ele>
        <time>2016-07-30T07:28:43.017Z</time>
      </trkpt>
      <trkpt lat="43.1359" lon="5.91725">
        <ele>22</ele>
        <time>2016-07-30T07:28:44.017Z</time>
      </trkpt>
      <trkpt lat="43.1359" lon="5.91731">
        <ele>22</ele>
        <time>2016-07-30T07:28:45.017Z</time>
      </trkpt>
      <trkpt lat="43.1359" lon="5.91737">
        <ele>22</ele>
        <time>2016-07-30T07:28:46.017Z</time>
      </trkpt>
      <trkpt lat="43.13591" lon="5.91742">
        <ele>23</ele>
        <time>2016-07-30T07:28:47.017Z</time>
      </trkpt>
      <trkpt lat="43.13591" lon="5.91748">
        <ele>23</ele>
        <time>2016-07-30T07:28:48.017Z</time>
      </trkpt>
      <trkpt lat="43.13591" lon="5.91754">
        <ele>24</ele>
        <time>2016-07-30T07:28:49.017Z</time>
      </trkpt>
      <trkpt lat="43.13592" lon="5.9176">
        <ele>24</ele>
        <time>2016-07-30T07:28:50.017Z</time>
      </trkpt>
      <trkpt lat="43.13592" lon="5.91765">
        <ele>25</ele>
        <time>2016-07-30T07:28:51.017Z</time>
      </trkpt>
      <trkpt lat="43.13592" lon="5.91771">
        <ele>25</ele>
        <time>2016-07-30T07:28:52.017Z</time>
      </trkpt>
      <trkpt lat="43.13593" lon="5.91777">
        <ele>25</ele>
        <time>2016-07-30T07:28:53.017Z</time>
      </trkpt>
      <trkpt lat="43.13593" lon="5.91783">
        <ele>26</ele>
        <time>2016-07-30T07:28:54.017Z</time>
      </trkpt>
      <trkpt lat="43.13593" lon="5.91789">
        <ele>25</ele>
        <time>2016-07-30T07:28:55.017Z</time>
      </trkpt>
      <trkpt lat="43.13593" lon="5.91794">
        <ele>25</ele>
        <time>2016-07-30T07:28:56.017Z</time>
      </trkpt>
      <trkpt lat="43.13593" lon="5.918">
        <ele>26</ele>
        <time>2016-07-30T07:28:57.017Z</time>
      </trkpt>
      <trkpt lat="43.13593" lon="5.91806">
        <ele>26</ele>
        <time>2016-07-30T07:28:58.017Z</time>
      </trkpt>
      <trkpt lat="43.13593" lon="5.91812">
        <ele>26</ele>
        <time>2016-07-30T07:28:59.017Z</time>
      </trkpt>
      <trkpt lat="43.13594" lon="5.91817">
        <ele>26</ele>
        <time>2016-07-30T07:29:00.017Z</time>
      </trkpt>
      <trkpt lat="43.13594" lon="5.91823">
        <ele>27</ele>
        <time>2016-07-30T07:29:01.017Z</time>
      </trkpt>
      <trkpt lat="43.13594" lon="5.91829">
        <ele>27</ele>
        <time>2016-07-30T07:29:02.017Z</time>
      </trkpt>
      <trkpt lat="43.13594" lon="5.91835">
        <ele>28</ele>
        <time>2016-07-30T07:29:03.017Z</time>
      </trkpt>
      <trkpt lat="43.13594" lon="5.91841">
        <ele>28</ele>
        <time>2016-07-30T07:29:04.017Z</time>
      </trkpt>
      <trkpt lat="43.13594" lon="5.91846">
        <ele>28</ele>
        <time>2016-07-30T07:29:05.017Z</time>
      </trkpt>
      <trkpt lat="43.13595" lon="5.91852">
        <ele>29</ele>
        <time>2016-07-30T07:29:06.017Z</time>
      </trkpt>
      <trkpt lat="43.13595" lon="5.91858">
        <ele>30</ele>
        <time>2016-07-30T07:29:07.017Z</time>
      </trkpt>
      <trkpt lat="43.13596" lon="5.91864">
        <ele>30</ele>
        <time>2016-07-30T07:29:08.017Z</time>
      </trkpt>
      <trkpt lat="43.13596" lon="5.91869">
        <ele>31</ele>
        <time>2016-07-30T07:29:09.017Z</time>
      </trkpt>
      <trkpt lat="43.13596" lon="5.91875">
        <ele>31</ele>
        <time>2016-07-30T07:29:10.017Z</time>
      </trkpt>
      <trkpt lat="43.13596" lon="5.91881">
        <ele>32</ele>
        <time>2016-07-30T07:29:11.017Z</time>
      </trkpt>
      <trkpt lat="43.13597" lon="5.91887">
        <ele>33</ele>
        <time>2016-07-30T07:29:12.017Z</time>
      </trkpt>
      <trkpt lat="43.13598" lon="5.91892">
        <ele>33</ele>
        <time>2016-07-30T07:29:13.017Z</time>
      </trkpt>
      <trkpt lat="43.13598" lon="5.91898">
        <ele>33</ele>
        <time>2016-07-30T07:29:14.017Z</time>
      </trkpt>
      <trkpt lat="43.13598" lon="5.91904">
        <ele>34</ele>
        <time>2016-07-30T07:29:15.017Z</time>
      </trkpt>
      <trkpt lat="43.13598" lon="5.91909">
        <ele>34</ele>
        <time>2016-07-30T07:29:16.017Z</time>
      </trkpt>
      <trkpt lat="43.13599" lon="5.91915">
        <ele>34</ele>
        <time>2016-07-30T07:29:17.017Z</time>
      </trkpt>
      <trkpt lat="43.136" lon="5.91921">
        <ele>34</ele>
        <time>2016-07-30T07:29:18.017Z</time>
      </trkpt>
      <trkpt lat="43.136" lon="5.91926">
        <ele>35</ele>
        <time>2016-07-30T07:29:19.017Z</time>
      </trkpt>
      <trkpt lat="43.136" lon="5.91932">
        <ele>35</ele>
        <time>2016-07-30T07:29:20.017Z</time>
      </trkpt>
      <trkpt lat="43.13601" lon="5.91937">
        <ele>35</ele>
        <time>2016-07-30T07:29:21.017Z</time>
      </trkpt>
      <trkpt lat="43.13601" lon="5.91942">
        <ele>36</ele>
        <time>2016-07-30T07:29:22.017Z</time>
      </trkpt>
      <trkpt lat="43.13601" lon="5.91946">
        <ele>37</ele>
        <time>2016-07-30T07:29:23.017Z</time>
      </trkpt>
      <trkpt lat="43.13602" lon="5.9195">
        <ele>39</ele>
        <time>2016-07-30T07:29:24.017Z</time>
      </trkpt>
      <trkpt lat="43.13602" lon="5.91952">
        <ele>39</ele>
        <time>2016-07-30T07:29:25.017Z</time>
      </trkpt>
      <trkpt lat="43.13602" lon="5.91955">
        <ele>39</ele>
        <time>2016-07-30T07:29:26.017Z</time>
      </trkpt>
      <trkpt lat="43.13602" lon="5.91957">
        <ele>39</ele>
        <time>2016-07-30T07:29:27.017Z</time>
      </trkpt>
      <trkpt lat="43.13602" lon="5.9196">
        <ele>39</ele>
        <time>2016-07-30T07:29:28.017Z</time>
      </trkpt>
      <trkpt lat="43.13602" lon="5.91963">
        <ele>39</ele>
        <time>2016-07-30T07:29:29.017Z</time>
      </trkpt>
      <trkpt lat="43.13601" lon="5.91965">
        <ele>38</ele>
        <time>2016-07-30T07:29:30.017Z</time>
      </trkpt>
      <trkpt lat="43.13599" lon="5.91968">
        <ele>36</ele>
        <time>2016-07-30T07:29:31.017Z</time>
      </trkpt>
      <trkpt lat="43.13596" lon="5.9197">
        <ele>36</ele>
        <time>2016-07-30T07:29:32.017Z</time>
      </trkpt>
      <trkpt lat="43.13592" lon="5.91972">
        <ele>35</ele>
        <time>2016-07-30T07:29:33.017Z</time>
      </trkpt>
      <trkpt lat="43.1359" lon="5.91976">
        <ele>35</ele>
        <time>2016-07-30T07:29:34.017Z</time>
      </trkpt>
      <trkpt lat="43.13588" lon="5.9198">
        <ele>36</ele>
        <time>2016-07-30T07:29:35.017Z</time>
      </trkpt>
      <trkpt lat="43.13586" lon="5.91984">
        <ele>35</ele>
        <time>2016-07-30T07:29:36.017Z</time>
      </trkpt>
      <trkpt lat="43.13585" lon="5.91989">
        <ele>35</ele>
        <time>2016-07-30T07:29:37.017Z</time>
      </trkpt>
      <trkpt lat="43.13585" lon="5.91994">
        <ele>34</ele>
        <time>2016-07-30T07:29:38.017Z</time>
      </trkpt>
      <trkpt lat="43.13585" lon="5.91999">
        <ele>34</ele>
        <time>2016-07-30T07:29:39.017Z</time>
      </trkpt>
      <trkpt lat="43.13585" lon="5.92004">
        <ele>33</ele>
        <time>2016-07-30T07:29:40.017Z</time>
      </trkpt>
      <trkpt lat="43.13586" lon="5.92008">
        <ele>33</ele>
        <time>2016-07-30T07:29:41.017Z</time>
      </trkpt>
      <trkpt lat="43.13587" lon="5.92012">
        <ele>34</ele>
        <time>2016-07-30T07:29:42.017Z</time>
      </trkpt>
      <trkpt lat="43.13588" lon="5.92016">
        <ele>34</ele>
        <time>2016-07-30T07:29:43.017Z</time>
      </trkpt>
      <trkpt lat="43.13589" lon="5.9202">
        <ele>35</ele>
        <time>2016-07-30T07:29:44.017Z</time>
      </trkpt>
      <trkpt lat="43.13591" lon="5.92025">
        <ele>36</ele>
        <time>2016-07-30T07:29:45.017Z</time>
      </trkpt>
      <trkpt lat="43.13592" lon="5.92029">
        <ele>36</ele>
        <time>2016-07-30T07:29:46.017Z</time>
      </trkpt>
      <trkpt lat="43.13593" lon="5.92033">
        <ele>37</ele>
        <time>2016-07-30T07:29:47.017Z</time>
      </trkpt>
      <trkpt lat="43.13594" lon="5.92037">
        <ele>37</ele>
        <time>2016-07-30T07:29:48.017Z</time>
      </trkpt>
      <trkpt lat="43.13595" lon="5.92041">
        <ele>37</ele>
        <time>2016-07-30T07:29:49.017Z</time>
      </trkpt>
      <trkpt lat="43.13596" lon="5.92044">
        <ele>38</ele>
        <time>2016-07-30T07:29:50.017Z</time>
      </trkpt>
      <trkpt lat="43.13597" lon="5.92048">
        <ele>38</ele>
        <time>2016-07-30T07:29:51.017Z</time>
      </trkpt>
      <trkpt lat="43.13599" lon="5.92052">
        <ele>39</ele>
        <time>2016-07-30T07:29:52.017Z</time>
      </trkpt>
      <trkpt lat="43.136" lon="5.92055">
        <ele>39</ele>
        <time>2016-07-30T07:29:53.017Z</time>
      </trkpt>
      <trkpt lat="43.13601" lon="5.92059">
        <ele>39</ele>
        <time>2016-07-30T07:29:54.017Z</time>
      </trkpt>
      <trkpt lat="43.13602" lon="5.92062">
        <ele>40</ele>
        <time>2016-07-30T07:29:55.017Z</time>
      </trkpt>
      <trkpt lat="43.13603" lon="5.92066">
        <ele>40</ele>
        <time>2016-07-30T07:29:56.017Z</time>
      </trkpt>
      <trkpt lat="43.13605" lon="5.92069">
        <ele>40</ele>
        <time>2016-07-30T07:29:57.017Z</time>
      </trkpt>
      <trkpt lat="43.13605" lon="5.92073">
        <ele>41</ele>
        <time>2016-07-30T07:29:58.017Z</time>
      </trkpt>
      <trkpt lat="43.13606" lon="5.92076">
        <ele>41</ele>
        <time>2016-07-30T07:29:59.017Z</time>
      </trkpt>
      <trkpt lat="43.13607" lon="5.9208">
        <ele>41</ele>
        <time>2016-07-30T07:30:00.017Z</time>
      </trkpt>
      <trkpt lat="43.13608" lon="5.92083">
        <ele>41</ele>
        <time>2016-07-30T07:30:01.017Z</time>
      </trkpt>
      <trkpt lat="43.13609" lon="5.92087">
        <ele>42</ele>
        <time>2016-07-30T07:30:02.017Z</time>
      </trkpt>
      <trkpt lat="43.1361" lon="5.9209">
        <ele>42</ele>
        <time>2016-07-30T07:30:03.017Z</time>
      </trkpt>
      <trkpt lat="43.13611" lon="5.92094">
        <ele>42</ele>
        <time>2016-07-30T07:30:04.017Z</time>
      </trkpt>
      <trkpt lat="43.13611" lon="5.92097">
        <ele>42</ele>
        <time>2016-07-30T07:30:05.017Z</time>
      </trkpt>
      <trkpt lat="43.13612" lon="5.921">
        <ele>42</ele>
        <time>2016-07-30T07:30:06.017Z</time>
      </trkpt>
      <trkpt lat="43.13613" lon="5.92104">
        <ele>42</ele>
        <time>2016-07-30T07:30:07.017Z</time>
      </trkpt>
      <trkpt lat="43.13615" lon="5.92107">
        <ele>43</ele>
        <time>2016-07-30T07:30:08.017Z</time>
      </trkpt>
      <trkpt lat="43.13616" lon="5.92111">
        <ele>43</ele>
        <time>2016-07-30T07:30:09.017Z</time>
      </trkpt>
      <trkpt lat="43.13617" lon="5.92114">
        <ele>43</ele>
        <time>2016-07-30T07:30:10.017Z</time>
      </trkpt>
      <trkpt lat="43.13618" lon="5.92118">
        <ele>44</ele>
        <time>2016-07-30T07:30:11.017Z</time>
      </trkpt>
      <trkpt lat="43.13619" lon="5.92121">
        <ele>44</ele>
        <time>2016-07-30T07:30:12.017Z</time>
      </trkpt>
      <trkpt lat="43.1362" lon="5.92124">
        <ele>45</ele>
        <time>2016-07-30T07:30:13.017Z</time>
      </trkpt>
      <trkpt lat="43.1362" lon="5.92128">
        <ele>45</ele>
        <time>2016-07-30T07:30:14.017Z</time>
      </trkpt>
      <trkpt lat="43.13621" lon="5.92131">
        <ele>45</ele>
        <time>2016-07-30T07:30:15.017Z</time>
      </trkpt>
      <trkpt lat="43.13622" lon="5.92134">
        <ele>46</ele>
        <time>2016-07-30T07:30:16.017Z</time>
      </trkpt>
      <trkpt lat="43.13623" lon="5.92137">
        <ele>46</ele>
        <time>2016-07-30T07:30:17.017Z</time>
      </trkpt>
      <trkpt lat="43.13624" lon="5.9214">
        <ele>46</ele>
        <time>2016-07-30T07:30:18.017Z</time>
      </trkpt>
      <trkpt lat="43.13624" lon="5.92144">
        <ele>46</ele>
        <time>2016-07-30T07:30:19.017Z</time>
      </trkpt>
      <trkpt lat="43.13625" lon="5.92147">
        <ele>46</ele>
        <time>2016-07-30T07:30:20.017Z</time>
      </trkpt>
      <trkpt lat="43.13626" lon="5.9215">
        <ele>47</ele>
        <time>2016-07-30T07:30:21.017Z</time>
      </trkpt>
      <trkpt lat="43.13627" lon="5.92154">
        <ele>47</ele>
        <time>2016-07-30T07:30:22.017Z</time>
      </trkpt>
      <trkpt lat="43.13628" lon="5.92157">
        <ele>47</ele>
        <time>2016-07-30T07:30:23.017Z</time>
      </trkpt>
      <trkpt lat="43.13629" lon="5.9216">
        <ele>48</ele>
        <time>2016-07-30T07:30:24.017Z</time>
      </trkpt>
      <trkpt lat="43.13629" lon="5.92163">
        <ele>48</ele>
        <time>2016-07-30T07:30:25.017Z</time>
      </trkpt>
      <trkpt lat="43.13631" lon="5.92167">
        <ele>49</ele>
        <time>2016-07-30T07:30:26.017Z</time>
      </trkpt>
      <trkpt lat="43.13632" lon="5.9217">
        <ele>49</ele>
        <time>2016-07-30T07:30:27.017Z</time>
      </trkpt>
      <trkpt lat="43.13633" lon="5.92174">
        <ele>50</ele>
        <time>2016-07-30T07:30:28.017Z</time>
      </trkpt>
      <trkpt lat="43.13634" lon="5.92177">
        <ele>50</ele>
        <time>2016-07-30T07:30:29.017Z</time>
      </trkpt>
      <trkpt lat="43.13635" lon="5.92181">
        <ele>50</ele>
        <time>2016-07-30T07:30:30.017Z</time>
      </trkpt>
      <trkpt lat="43.13636" lon="5.92184">
        <ele>50</ele>
        <time>2016-07-30T07:30:31.017Z</time>
      </trkpt>
      <trkpt lat="43.13636" lon="5.92187">
        <ele>51</ele>
        <time>2016-07-30T07:30:32.017Z</time>
      </trkpt>
      <trkpt lat="43.13637" lon="5.92191">
        <ele>51</ele>
        <time>2016-07-30T07:30:33.017Z</time>
      </trkpt>
      <trkpt lat="43.13638" lon="5.92194">
        <ele>51</ele>
        <time>2016-07-30T07:30:34.017Z</time>
      </trkpt>
      <trkpt lat="43.13638" lon="5.92197">
        <ele>51</ele>
        <time>2016-07-30T07:30:35.017Z</time>
      </trkpt>
      <trkpt lat="43.13639" lon="5.92201">
        <ele>52</ele>
        <time>2016-07-30T07:30:36.017Z</time>
      </trkpt>
      <trkpt lat="43.13639" lon="5.92204">
        <ele>52</ele>
        <time>2016-07-30T07:30:37.017Z</time>
      </trkpt>
      <trkpt lat="43.13639" lon="5.92207">
        <ele>51</ele>
        <time>2016-07-30T07:30:38.017Z</time>
      </trkpt>
      <trkpt lat="43.13639" lon="5.92211">
        <ele>51</ele>
        <time>2016-07-30T07:30:39.017Z</time>
      </trkpt>
      <trkpt lat="43.1364" lon="5.92214">
        <ele>51</ele>
        <time>2016-07-30T07:30:40.017Z</time>
      </trkpt>
      <trkpt lat="43.1364" lon="5.92217">
        <ele>52</ele>
        <time>2016-07-30T07:30:41.017Z</time>
      </trkpt>
      <trkpt lat="43.1364" lon="5.9222">
        <ele>52</ele>
        <time>2016-07-30T07:30:42.017Z</time>
      </trkpt>
      <trkpt lat="43.13641" lon="5.92223">
        <ele>52</ele>
        <time>2016-07-30T07:30:43.017Z</time>
      </trkpt>
      <trkpt lat="43.13642" lon="5.92226">
        <ele>53</ele>
        <time>2016-07-30T07:30:44.017Z</time>
      </trkpt>
      <trkpt lat="43.13643" lon="5.92229">
        <ele>53</ele>
        <time>2016-07-30T07:30:45.017Z</time>
      </trkpt>
      <trkpt lat="43.13644" lon="5.92232">
        <ele>53</ele>
        <time>2016-07-30T07:30:46.017Z</time>
      </trkpt>
      <trkpt lat="43.13645" lon="5.92235">
        <ele>54</ele>
        <time>2016-07-30T07:30:47.017Z</time>
      </trkpt>
      <trkpt lat="43.13645" lon="5.92238">
        <ele>54</ele>
        <time>2016-07-30T07:30:48.017Z</time>
      </trkpt>
      <trkpt lat="43.13646" lon="5.92241">
        <ele>54</ele>
        <time>2016-07-30T07:30:49.017Z</time>
      </trkpt>
      <trkpt lat="43.13647" lon="5.92245">
        <ele>54</ele>
        <time>2016-07-30T07:30:50.017Z</time>
      </trkpt>
      <trkpt lat="43.13647" lon="5.92247">
        <ele>55</ele>
        <time>2016-07-30T07:30:51.017Z</time>
      </trkpt>
      <trkpt lat="43.13648" lon="5.9225">
        <ele>55</ele>
        <time>2016-07-30T07:30:52.017Z</time>
      </trkpt>
      <trkpt lat="43.13649" lon="5.92253">
        <ele>56</ele>
        <time>2016-07-30T07:30:53.017Z</time>
      </trkpt>
      <trkpt lat="43.1365" lon="5.92256">
        <ele>56</ele>
        <time>2016-07-30T07:30:54.017Z</time>
      </trkpt>
      <trkpt lat="43.13651" lon="5.92259">
        <ele>56</ele>
        <time>2016-07-30T07:30:55.017Z</time>
      </trkpt>
      <trkpt lat="43.13651" lon="5.92262">
        <ele>57</ele>
        <time>2016-07-30T07:30:56.017Z</time>
      </trkpt>
      <trkpt lat="43.13652" lon="5.92265">
        <ele>57</ele>
        <time>2016-07-30T07:30:57.017Z</time>
      </trkpt>
      <trkpt lat="43.13653" lon="5.92268">
        <ele>57</ele>
        <time>2016-07-30T07:30:58.017Z</time>
      </trkpt>
      <trkpt lat="43.13653" lon="5.9227">
        <ele>58</ele>
        <time>2016-07-30T07:30:59.017Z</time>
      </trkpt>
      <trkpt lat="43.13654" lon="5.92273">
        <ele>58</ele>
        <time>2016-07-30T07:31:00.017Z</time>
      </trkpt>
      <trkpt lat="43.13655" lon="5.92276">
        <ele>58</ele>
        <time>2016-07-30T07:31:01.017Z</time>
      </trkpt>
      <trkpt lat="43.13655" lon="5.92279">
        <ele>59</ele>
        <time>2016-07-30T07:31:02.017Z</time>
      </trkpt>
      <trkpt lat="43.13656" lon="5.92281">
        <ele>59</ele>
        <time>2016-07-30T07:31:03.017Z</time>
      </trkpt>
      <trkpt lat="43.13657" lon="5.92284">
        <ele>60</ele>
        <time>2016-07-30T07:31:04.017Z</time>
      </trkpt>
      <trkpt lat="43.13657" lon="5.92287">
        <ele>60</ele>
        <time>2016-07-30T07:31:05.017Z</time>
      </trkpt>
      <trkpt lat="43.13658" lon="5.9229">
        <ele>60</ele>
        <time>2016-07-30T07:31:06.017Z</time>
      </trkpt>
      <trkpt lat="43.13658" lon="5.92292">
        <ele>61</ele>
        <time>2016-07-30T07:31:07.017Z</time>
      </trkpt>
      <trkpt lat="43.13659" lon="5.92295">
        <ele>61</ele>
        <time>2016-07-30T07:31:08.017Z</time>
      </trkpt>
      <trkpt lat="43.13659" lon="5.92298">
        <ele>61</ele>
        <time>2016-07-30T07:31:09.017Z</time>
      </trkpt>
      <trkpt lat="43.1366" lon="5.92301">
        <ele>62</ele>
        <time>2016-07-30T07:31:10.017Z</time>
      </trkpt>
      <trkpt lat="43.1366" lon="5.92303">
        <ele>62</ele>
        <time>2016-07-30T07:31:11.017Z</time>
      </trkpt>
      <trkpt lat="43.1366" lon="5.92306">
        <ele>62</ele>
        <time>2016-07-30T07:31:12.017Z</time>
      </trkpt>
      <trkpt lat="43.1366" lon="5.92309">
        <ele>62</ele>
        <time>2016-07-30T07:31:13.017Z</time>
      </trkpt>
      <trkpt lat="43.13661" lon="5.92312">
        <ele>63</ele>
        <time>2016-07-30T07:31:14.017Z</time>
      </trkpt>
      <trkpt lat="43.13661" lon="5.92315">
        <ele>63</ele>
        <time>2016-07-30T07:31:15.017Z</time>
      </trkpt>
      <trkpt lat="43.13661" lon="5.92318">
        <ele>63</ele>
        <time>2016-07-30T07:31:16.017Z</time>
      </trkpt>
      <trkpt lat="43.13661" lon="5.92321">
        <ele>64</ele>
        <time>2016-07-30T07:31:17.017Z</time>
      </trkpt>
      <trkpt lat="43.13661" lon="5.92324">
        <ele>64</ele>
        <time>2016-07-30T07:31:18.017Z</time>
      </trkpt>
      <trkpt lat="43.1366" lon="5.92327">
        <ele>64</ele>
        <time>2016-07-30T07:31:19.017Z</time>
      </trkpt>
      <trkpt lat="43.1366" lon="5.9233">
        <ele>65</ele>
        <time>2016-07-30T07:31:20.017Z</time>
      </trkpt>
      <trkpt lat="43.1366" lon="5.92333">
        <ele>65</ele>
        <time>2016-07-30T07:31:21.017Z</time>
      </trkpt>
      <trkpt lat="43.13659" lon="5.92336">
        <ele>66</ele>
        <time>2016-07-30T07:31:22.017Z</time>
      </trkpt>
      <trkpt lat="43.13659" lon="5.9234">
        <ele>66</ele>
        <time>2016-07-30T07:31:23.017Z</time>
      </trkpt>
      <trkpt lat="43.13659" lon="5.92343">
        <ele>66</ele>
        <time>2016-07-30T07:31:24.017Z</time>
      </trkpt>
      <trkpt lat="43.13658" lon="5.92347">
        <ele>67</ele>
        <time>2016-07-30T07:31:25.017Z</time>
      </trkpt>
      <trkpt lat="43.13658" lon="5.9235">
        <ele>67</ele>
        <time>2016-07-30T07:31:26.017Z</time>
      </trkpt>
      <trkpt lat="43.13658" lon="5.92353">
        <ele>68</ele>
        <time>2016-07-30T07:31:27.017Z</time>
      </trkpt>
      <trkpt lat="43.13657" lon="5.92357">
        <ele>68</ele>
        <time>2016-07-30T07:31:28.017Z</time>
      </trkpt>
      <trkpt lat="43.13656" lon="5.9236">
        <ele>68</ele>
        <time>2016-07-30T07:31:29.017Z</time>
      </trkpt>
      <trkpt lat="43.13656" lon="5.92364">
        <ele>68</ele>
        <time>2016-07-30T07:31:30.017Z</time>
      </trkpt>
      <trkpt lat="43.13655" lon="5.92368">
        <ele>69</ele>
        <time>2016-07-30T07:31:31.017Z</time>
      </trkpt>
      <trkpt lat="43.13655" lon="5.92372">
        <ele>69</ele>
        <time>2016-07-30T07:31:32.017Z</time>
      </trkpt>
      <trkpt lat="43.13655" lon="5.92376">
        <ele>69</ele>
        <time>2016-07-30T07:31:33.017Z</time>
      </trkpt>
      <trkpt lat="43.13654" lon="5.9238">
        <ele>69</ele>
        <time>2016-07-30T07:31:34.017Z</time>
      </trkpt>
      <trkpt lat="43.13654" lon="5.92384">
        <ele>69</ele>
        <time>2016-07-30T07:31:35.017Z</time>
      </trkpt>
      <trkpt lat="43.13653" lon="5.92387">
        <ele>69</ele>
        <time>2016-07-30T07:31:36.017Z</time>
      </trkpt>
      <trkpt lat="43.13653" lon="5.92391">
        <ele>69</ele>
        <time>2016-07-30T07:31:37.017Z</time>
      </trkpt>
      <trkpt lat="43.13652" lon="5.92395">
        <ele>70</ele>
        <time>2016-07-30T07:31:38.017Z</time>
      </trkpt>
      <trkpt lat="43.13652" lon="5.924">
        <ele>70</ele>
        <time>2016-07-30T07:31:39.017Z</time>
      </trkpt>
      <trkpt lat="43.13651" lon="5.92404">
        <ele>70</ele>
        <time>2016-07-30T07:31:40.017Z</time>
      </trkpt>
      <trkpt lat="43.13649" lon="5.92408">
        <ele>69</ele>
        <time>2016-07-30T07:31:41.017Z</time>
      </trkpt>
      <trkpt lat="43.13647" lon="5.92412">
        <ele>69</ele>
        <time>2016-07-30T07:31:42.017Z</time>
      </trkpt>
      <trkpt lat="43.13644" lon="5.92416">
        <ele>69</ele>
        <time>2016-07-30T07:31:43.017Z</time>
      </trkpt>
      <trkpt lat="43.13641" lon="5.9242">
        <ele>69</ele>
        <time>2016-07-30T07:31:44.017Z</time>
      </trkpt>
      <trkpt lat="43.13638" lon="5.92424">
        <ele>68</ele>
        <time>2016-07-30T07:31:45.017Z</time>
      </trkpt>
      <trkpt lat="43.13635" lon="5.92429">
        <ele>67</ele>
        <time>2016-07-30T07:31:46.017Z</time>
      </trkpt>
      <trkpt lat="43.13631" lon="5.92434">
        <ele>67</ele>
        <time>2016-07-30T07:31:47.017Z</time>
      </trkpt>
      <trkpt lat="43.13628" lon="5.9244">
        <ele>67</ele>
        <time>2016-07-30T07:31:48.017Z</time>
      </trkpt>
      <trkpt lat="43.13623" lon="5.92445">
        <ele>67</ele>
        <time>2016-07-30T07:31:49.017Z</time>
      </trkpt>
      <trkpt lat="43.13619" lon="5.92451">
        <ele>67</ele>
        <time>2016-07-30T07:31:50.017Z</time>
      </trkpt>
      <trkpt lat="43.13615" lon="5.92456">
        <ele>67</ele>
        <time>2016-07-30T07:31:51.017Z</time>
      </trkpt>
      <trkpt lat="43.1361" lon="5.92461">
        <ele>67</ele>
        <time>2016-07-30T07:31:52.017Z</time>
      </trkpt>
      <trkpt lat="43.13606" lon="5.92467">
        <ele>67</ele>
        <time>2016-07-30T07:31:53.017Z</time>
      </trkpt>
      <trkpt lat="43.13602" lon="5.92472">
        <ele>67</ele>
        <time>2016-07-30T07:31:54.017Z</time>
      </trkpt>
      <trkpt lat="43.13598" lon="5.92476">
        <ele>68</ele>
        <time>2016-07-30T07:31:55.017Z</time>
      </trkpt>
      <trkpt lat="43.13595" lon="5.9248">
        <ele>68</ele>
        <time>2016-07-30T07:31:56.017Z</time>
      </trkpt>
      <trkpt lat="43.13592" lon="5.92484">
        <ele>68</ele>
        <time>2016-07-30T07:31:57.017Z</time>
      </trkpt>
      <trkpt lat="43.1359" lon="5.92488">
        <ele>68</ele>
        <time>2016-07-30T07:31:58.017Z</time>
      </trkpt>
      <trkpt lat="43.13587" lon="5.92491">
        <ele>67</ele>
        <time>2016-07-30T07:31:59.017Z</time>
      </trkpt>
      <trkpt lat="43.13585" lon="5.92494">
        <ele>67</ele>
        <time>2016-07-30T07:32:00.017Z</time>
      </trkpt>
      <trkpt lat="43.13582" lon="5.92497">
        <ele>67</ele>
        <time>2016-07-30T07:32:01.017Z</time>
      </trkpt>
      <trkpt lat="43.13579" lon="5.92499">
        <ele>67</ele>
        <time>2016-07-30T07:32:02.017Z</time>
      </trkpt>
      <trkpt lat="43.13577" lon="5.92502">
        <ele>67</ele>
        <time>2016-07-30T07:32:03.017Z</time>
      </trkpt>
      <trkpt lat="43.13574" lon="5.92506">
        <ele>66</ele>
        <time>2016-07-30T07:32:04.017Z</time>
      </trkpt>
      <trkpt lat="43.13572" lon="5.92509">
        <ele>66</ele>
        <time>2016-07-30T07:32:05.017Z</time>
      </trkpt>
      <trkpt lat="43.13569" lon="5.92512">
        <ele>66</ele>
        <time>2016-07-30T07:32:06.017Z</time>
      </trkpt>
      <trkpt lat="43.13566" lon="5.92516">
        <ele>66</ele>
        <time>2016-07-30T07:32:07.017Z</time>
      </trkpt>
      <trkpt lat="43.13564" lon="5.9252">
        <ele>65</ele>
        <time>2016-07-30T07:32:08.017Z</time>
      </trkpt>
      <trkpt lat="43.13562" lon="5.92526">
        <ele>65</ele>
        <time>2016-07-30T07:32:09.017Z</time>
      </trkpt>
      <trkpt lat="43.1356" lon="5.92531">
        <ele>65</ele>
        <time>2016-07-30T07:32:10.017Z</time>
      </trkpt>
      <trkpt lat="43.1356" lon="5.92538">
        <ele>65</ele>
        <time>2016-07-30T07:32:11.017Z</time>
      </trkpt>
      <trkpt lat="43.13559" lon="5.92544">
        <ele>65</ele>
        <time>2016-07-30T07:32:12.017Z</time>
      </trkpt>
      <trkpt lat="43.13559" lon="5.9255">
        <ele>65</ele>
        <time>2016-07-30T07:32:13.017Z</time>
      </trkpt>
      <trkpt lat="43.13559" lon="5.92557">
        <ele>65</ele>
        <time>2016-07-30T07:32:14.017Z</time>
      </trkpt>
      <trkpt lat="43.13559" lon="5.92564">
        <ele>65</ele>
        <time>2016-07-30T07:32:15.017Z</time>
      </trkpt>
      <trkpt lat="43.13558" lon="5.92572">
        <ele>64</ele>
        <time>2016-07-30T07:32:16.017Z</time>
      </trkpt>
      <trkpt lat="43.13558" lon="5.9258">
        <ele>64</ele>
        <time>2016-07-30T07:32:17.017Z</time>
      </trkpt>
      <trkpt lat="43.13558" lon="5.92588">
        <ele>64</ele>
        <time>2016-07-30T07:32:18.017Z</time>
      </trkpt>
      <trkpt lat="43.13558" lon="5.92597">
        <ele>64</ele>
        <time>2016-07-30T07:32:19.017Z</time>
      </trkpt>
      <trkpt lat="43.13559" lon="5.92606">
        <ele>63</ele>
        <time>2016-07-30T07:32:20.017Z</time>
      </trkpt>
      <trkpt lat="43.13559" lon="5.92616">
        <ele>62</ele>
        <time>2016-07-30T07:32:21.017Z</time>
      </trkpt>
      <trkpt lat="43.13559" lon="5.92627">
        <ele>61</ele>
        <time>2016-07-30T07:32:22.017Z</time>
      </trkpt>
      <trkpt lat="43.1356" lon="5.92638">
        <ele>61</ele>
        <time>2016-07-30T07:32:23.017Z</time>
      </trkpt>
      <trkpt lat="43.13561" lon="5.9265">
        <ele>61</ele>
        <time>2016-07-30T07:32:24.017Z</time>
      </trkpt>
      <trkpt lat="43.13561" lon="5.92662">
        <ele>61</ele>
        <time>2016-07-30T07:32:25.017Z</time>
      </trkpt>
      <trkpt lat="43.13562" lon="5.92675">
        <ele>60</ele>
        <time>2016-07-30T07:32:26.017Z</time>
      </trkpt>
      <trkpt lat="43.13564" lon="5.92687">
        <ele>60</ele>
        <time>2016-07-30T07:32:27.017Z</time>
      </trkpt>
      <trkpt lat="43.13565" lon="5.927">
        <ele>59</ele>
        <time>2016-07-30T07:32:28.017Z</time>
      </trkpt>
      <trkpt lat="43.13567" lon="5.92714">
        <ele>58</ele>
        <time>2016-07-30T07:32:29.017Z</time>
      </trkpt>
      <trkpt lat="43.13569" lon="5.92727">
        <ele>58</ele>
        <time>2016-07-30T07:32:30.017Z</time>
      </trkpt>
      <trkpt lat="43.13571" lon="5.92741">
        <ele>58</ele>
        <time>2016-07-30T07:32:31.017Z</time>
      </trkpt>
      <trkpt lat="43.13572" lon="5.92754">
        <ele>59</ele>
        <time>2016-07-30T07:32:32.017Z</time>
      </trkpt>
      <trkpt lat="43.13574" lon="5.92766">
        <ele>58</ele>
        <time>2016-07-30T07:32:33.017Z</time>
      </trkpt>
      <trkpt lat="43.13575" lon="5.92778">
        <ele>58</ele>
        <time>2016-07-30T07:32:34.017Z</time>
      </trkpt>
      <trkpt lat="43.13575" lon="5.92789">
        <ele>58</ele>
        <time>2016-07-30T07:32:35.017Z</time>
      </trkpt>
      <trkpt lat="43.13576" lon="5.92799">
        <ele>59</ele>
        <time>2016-07-30T07:32:36.017Z</time>
      </trkpt>
      <trkpt lat="43.13575" lon="5.92809">
        <ele>59</ele>
        <time>2016-07-30T07:32:37.017Z</time>
      </trkpt>
      <trkpt lat="43.13575" lon="5.92819">
        <ele>60</ele>
        <time>2016-07-30T07:32:38.017Z</time>
      </trkpt>
      <trkpt lat="43.13573" lon="5.92828">
        <ele>60</ele>
        <time>2016-07-30T07:32:39.017Z</time>
      </trkpt>
      <trkpt lat="43.13572" lon="5.92837">
        <ele>60</ele>
        <time>2016-07-30T07:32:40.017Z</time>
      </trkpt>
      <trkpt lat="43.1357" lon="5.92846">
        <ele>61</ele>
        <time>2016-07-30T07:32:41.017Z</time>
      </trkpt>
      <trkpt lat="43.13569" lon="5.92855">
        <ele>61</ele>
        <time>2016-07-30T07:32:42.017Z</time>
      </trkpt>
      <trkpt lat="43.13568" lon="5.92865">
        <ele>61</ele>
        <time>2016-07-30T07:32:43.017Z</time>
      </trkpt>
      <trkpt lat="43.13567" lon="5.92874">
        <ele>61</ele>
        <time>2016-07-30T07:32:44.017Z</time>
      </trkpt>
      <trkpt lat="43.13566" lon="5.92883">
        <ele>61</ele>
        <time>2016-07-30T07:32:45.017Z</time>
      </trkpt>
      <trkpt lat="43.13564" lon="5.92893">
        <ele>61</ele>
        <time>2016-07-30T07:32:46.017Z</time>
      </trkpt>
      <trkpt lat="43.13563" lon="5.92902">
        <ele>61</ele>
        <time>2016-07-30T07:32:47.017Z</time>
      </trkpt>
      <trkpt lat="43.13562" lon="5.92912">
        <ele>61</ele>
        <time>2016-07-30T07:32:48.017Z</time>
      </trkpt>
      <trkpt lat="43.13561" lon="5.92921">
        <ele>61</ele>
        <time>2016-07-30T07:32:49.017Z</time>
      </trkpt>
      <trkpt lat="43.1356" lon="5.92931">
        <ele>61</ele>
        <time>2016-07-30T07:32:50.017Z</time>
      </trkpt>
      <trkpt lat="43.13559" lon="5.92941">
        <ele>61</ele>
        <time>2016-07-30T07:32:51.017Z</time>
      </trkpt>
      <trkpt lat="43.13558" lon="5.9295">
        <ele>61</ele>
        <time>2016-07-30T07:32:52.017Z</time>
      </trkpt>
      <trkpt lat="43.13557" lon="5.9296">
        <ele>62</ele>
        <time>2016-07-30T07:32:53.017Z</time>
      </trkpt>
      <trkpt lat="43.13556" lon="5.9297">
        <ele>62</ele>
        <time>2016-07-30T07:32:54.017Z</time>
      </trkpt>
      <trkpt lat="43.13555" lon="5.9298">
        <ele>62</ele>
        <time>2016-07-30T07:32:55.017Z</time>
      </trkpt>
      <trkpt lat="43.13554" lon="5.9299">
        <ele>62</ele>
        <time>2016-07-30T07:32:56.017Z</time>
      </trkpt>
      <trkpt lat="43.13552" lon="5.92999">
        <ele>62</ele>
        <time>2016-07-30T07:32:57.017Z</time>
      </trkpt>
      <trkpt lat="43.13551" lon="5.93009">
        <ele>62</ele>
        <time>2016-07-30T07:32:58.017Z</time>
      </trkpt>
      <trkpt lat="43.13549" lon="5.93018">
        <ele>62</ele>
        <time>2016-07-30T07:32:59.017Z</time>
      </trkpt>
      <trkpt lat="43.13547" lon="5.93027">
        <ele>62</ele>
        <time>2016-07-30T07:33:00.017Z</time>
      </trkpt>
      <trkpt lat="43.13546" lon="5.93036">
        <ele>62</ele>
        <time>2016-07-30T07:33:01.017Z</time>
      </trkpt>
      <trkpt lat="43.13545" lon="5.93044">
        <ele>63</ele>
        <time>2016-07-30T07:33:02.017Z</time>
      </trkpt>
      <trkpt lat="43.13543" lon="5.93051">
        <ele>63</ele>
        <time>2016-07-30T07:33:03.017Z</time>
      </trkpt>
      <trkpt lat="43.13542" lon="5.93058">
        <ele>63</ele>
        <time>2016-07-30T07:33:04.017Z</time>
      </trkpt>
      <trkpt lat="43.13541" lon="5.93065">
        <ele>63</ele>
        <time>2016-07-30T07:33:05.017Z</time>
      </trkpt>
      <trkpt lat="43.1354" lon="5.93071">
        <ele>63</ele>
        <time>2016-07-30T07:33:06.017Z</time>
      </trkpt>
      <trkpt lat="43.13539" lon="5.93077">
        <ele>63</ele>
        <time>2016-07-30T07:33:07.017Z</time>
      </trkpt>
      <trkpt lat="43.13538" lon="5.93083">
        <ele>63</ele>
        <time>2016-07-30T07:33:08.017Z</time>
      </trkpt>
      <trkpt lat="43.13538" lon="5.93089">
        <ele>63</ele>
        <time>2016-07-30T07:33:09.017Z</time>
      </trkpt>
      <trkpt lat="43.13537" lon="5.93095">
        <ele>63</ele>
        <time>2016-07-30T07:33:10.017Z</time>
      </trkpt>
      <trkpt lat="43.13536" lon="5.93101">
        <ele>63</ele>
        <time>2016-07-30T07:33:11.017Z</time>
      </trkpt>
      <trkpt lat="43.13536" lon="5.93107">
        <ele>63</ele>
        <time>2016-07-30T07:33:12.017Z</time>
      </trkpt>
      <trkpt lat="43.13535" lon="5.93113">
        <ele>63</ele>
        <time>2016-07-30T07:33:13.017Z</time>
      </trkpt>
      <trkpt lat="43.13535" lon="5.93119">
        <ele>64</ele>
        <time>2016-07-30T07:33:14.017Z</time>
      </trkpt>
      <trkpt lat="43.13535" lon="5.93125">
        <ele>64</ele>
        <time>2016-07-30T07:33:15.017Z</time>
      </trkpt>
      <trkpt lat="43.13535" lon="5.93131">
        <ele>64</ele>
        <time>2016-07-30T07:33:16.017Z</time>
      </trkpt>
      <trkpt lat="43.13535" lon="5.93137">
        <ele>64</ele>
        <time>2016-07-30T07:33:17.017Z</time>
      </trkpt>
      <trkpt lat="43.13536" lon="5.93143">
        <ele>64</ele>
        <time>2016-07-30T07:33:18.017Z</time>
      </trkpt>
      <trkpt lat="43.13536" lon="5.93149">
        <ele>65</ele>
        <time>2016-07-30T07:33:19.017Z</time>
      </trkpt>
      <trkpt lat="43.13537" lon="5.93154">
        <ele>65</ele>
        <time>2016-07-30T07:33:20.017Z</time>
      </trkpt>
      <trkpt lat="43.13538" lon="5.9316">
        <ele>65</ele>
        <time>2016-07-30T07:33:21.017Z</time>
      </trkpt>
      <trkpt lat="43.13539" lon="5.93165">
        <ele>65</ele>
        <time>2016-07-30T07:33:22.017Z</time>
      </trkpt>
      <trkpt lat="43.1354" lon="5.93171">
        <ele>66</ele>
        <time>2016-07-30T07:33:23.017Z</time>
      </trkpt>
      <trkpt lat="43.13541" lon="5.93176">
        <ele>66</ele>
        <time>2016-07-30T07:33:24.017Z</time>
      </trkpt>
      <trkpt lat="43.13542" lon="5.93182">
        <ele>66</ele>
        <time>2016-07-30T07:33:25.017Z</time>
      </trkpt>
      <trkpt lat="43.13543" lon="5.93187">
        <ele>66</ele>
        <time>2016-07-30T07:33:26.017Z</time>
      </trkpt>
      <trkpt lat="43.13544" lon="5.93193">
        <ele>66</ele>
        <time>2016-07-30T07:33:27.017Z</time>
      </trkpt>
      <trkpt lat="43.13545" lon="5.93199">
        <ele>67</ele>
        <time>2016-07-30T07:33:28.017Z</time>
      </trkpt>
      <trkpt lat="43.13545" lon="5.93204">
        <ele>66</ele>
        <time>2016-07-30T07:33:29.017Z</time>
      </trkpt>
      <trkpt lat="43.13545" lon="5.9321">
        <ele>67</ele>
        <time>2016-07-30T07:33:30.017Z</time>
      </trkpt>
      <trkpt lat="43.13546" lon="5.93215">
        <ele>67</ele>
        <time>2016-07-30T07:33:31.017Z</time>
      </trkpt>
      <trkpt lat="43.13546" lon="5.9322">
        <ele>67</ele>
        <time>2016-07-30T07:33:32.017Z</time>
      </trkpt>
      <trkpt lat="43.13547" lon="5.93225">
        <ele>68</ele>
        <time>2016-07-30T07:33:33.017Z</time>
      </trkpt>
      <trkpt lat="43.13547" lon="5.93229">
        <ele>69</ele>
        <time>2016-07-30T07:33:34.017Z</time>
      </trkpt>
      <trkpt lat="43.13548" lon="5.93234">
        <ele>69</ele>
        <time>2016-07-30T07:33:35.017Z</time>
      </trkpt>
      <trkpt lat="43.13548" lon="5.93239">
        <ele>69</ele>
        <time>2016-07-30T07:33:36.017Z</time>
      </trkpt>
      <trkpt lat="43.13549" lon="5.93243">
        <ele>69</ele>
        <time>2016-07-30T07:33:37.017Z</time>
      </trkpt>
      <trkpt lat="43.1355" lon="5.93247">
        <ele>69</ele>
        <time>2016-07-30T07:33:38.017Z</time>
      </trkpt>
      <trkpt lat="43.13552" lon="5.9325">
        <ele>70</ele>
        <time>2016-07-30T07:33:39.017Z</time>
      </trkpt>
      <trkpt lat="43.13554" lon="5.93253">
        <ele>69</ele>
        <time>2016-07-30T07:33:40.017Z</time>
      </trkpt>
      <trkpt lat="43.13555" lon="5.93255">
        <ele>70</ele>
        <time>2016-07-30T07:33:41.017Z</time>
      </trkpt>
      <trkpt lat="43.13557" lon="5.93257">
        <ele>70</ele>
        <time>2016-07-30T07:33:42.017Z</time>
      </trkpt>
      <trkpt lat="43.13559" lon="5.93259">
        <ele>71</ele>
        <time>2016-07-30T07:33:43.017Z</time>
      </trkpt>
      <trkpt lat="43.13561" lon="5.93261">
        <ele>72</ele>
        <time>2016-07-30T07:33:44.017Z</time>
      </trkpt>
      <trkpt lat="43.13564" lon="5.93263">
        <ele>73</ele>
        <time>2016-07-30T07:33:45.017Z</time>
      </trkpt>
      <trkpt lat="43.13566" lon="5.93265">
        <ele>73</ele>
        <time>2016-07-30T07:33:46.017Z</time>
      </trkpt>
      <trkpt lat="43.13568" lon="5.93267">
        <ele>74</ele>
        <time>2016-07-30T07:33:47.017Z</time>
      </trkpt>
      <trkpt lat="43.1357" lon="5.93269">
        <ele>74</ele>
        <time>2016-07-30T07:33:48.017Z</time>
      </trkpt>
      <trkpt lat="43.13572" lon="5.9327">
        <ele>75</ele>
        <time>2016-07-30T07:33:49.017Z</time>
      </trkpt>
      <trkpt lat="43.13574" lon="5.93272">
        <ele>76</ele>
        <time>2016-07-30T07:33:50.017Z</time>
      </trkpt>
      <trkpt lat="43.13576" lon="5.93274">
        <ele>76</ele>
        <time>2016-07-30T07:33:51.017Z</time>
      </trkpt>
      <trkpt lat="43.13578" lon="5.93276">
        <ele>76</ele>
        <time>2016-07-30T07:33:52.017Z</time>
      </trkpt>
      <trkpt lat="43.1358" lon="5.93277">
        <ele>77</ele>
        <time>2016-07-30T07:33:53.017Z</time>
      </trkpt>
      <trkpt lat="43.13581" lon="5.93278">
        <ele>77</ele>
        <time>2016-07-30T07:33:54.017Z</time>
      </trkpt>
      <trkpt lat="43.13583" lon="5.93279">
        <ele>77</ele>
        <time>2016-07-30T07:33:55.017Z</time>
      </trkpt>
      <trkpt lat="43.13584" lon="5.9328">
        <ele>78</ele>
        <time>2016-07-30T07:33:56.017Z</time>
      </trkpt>
      <trkpt lat="43.13586" lon="5.93281">
        <ele>79</ele>
        <time>2016-07-30T07:33:57.017Z</time>
      </trkpt>
      <trkpt lat="43.13587" lon="5.93282">
        <ele>80</ele>
        <time>2016-07-30T07:33:58.017Z</time>
      </trkpt>
      <trkpt lat="43.13588" lon="5.93283">
        <ele>82</ele>
        <time>2016-07-30T07:33:59.017Z</time>
      </trkpt>
      <trkpt lat="43.1359" lon="5.93284">
        <ele>83</ele>
        <time>2016-07-30T07:34:00.017Z</time>
      </trkpt>
      <trkpt lat="43.13591" lon="5.93286">
        <ele>83</ele>
        <time>2016-07-30T07:34:01.017Z</time>
      </trkpt>
      <trkpt lat="43.13593" lon="5.93287">
        <ele>84</ele>
        <time>2016-07-30T07:34:02.017Z</time>
      </trkpt>
      <trkpt lat="43.13595" lon="5.93289">
        <ele>85</ele>
        <time>2016-07-30T07:34:03.017Z</time>
      </trkpt>
      <trkpt lat="43.13597" lon="5.9329">
        <ele>85</ele>
        <time>2016-07-30T07:34:04.017Z</time>
      </trkpt>
      <trkpt lat="43.13598" lon="5.93292">
        <ele>85</ele>
        <time>2016-07-30T07:34:05.017Z</time>
      </trkpt>
      <trkpt lat="43.136" lon="5.93294">
        <ele>85</ele>
        <time>2016-07-30T07:34:06.017Z</time>
      </trkpt>
      <trkpt lat="43.13602" lon="5.93296">
        <ele>86</ele>
        <time>2016-07-30T07:34:07.017Z</time>
      </trkpt>
      <trkpt lat="43.13603" lon="5.93298">
        <ele>86</ele>
        <time>2016-07-30T07:34:08.017Z</time>
      </trkpt>
      <trkpt lat="43.13604" lon="5.933">
        <ele>86</ele>
        <time>2016-07-30T07:34:09.017Z</time>
      </trkpt>
      <trkpt lat="43.13606" lon="5.93301">
        <ele>86</ele>
        <time>2016-07-30T07:34:10.017Z</time>
      </trkpt>
      <trkpt lat="43.13607" lon="5.93303">
        <ele>86</ele>
        <time>2016-07-30T07:34:11.017Z</time>
      </trkpt>
      <trkpt lat="43.13608" lon="5.93305">
        <ele>86</ele>
        <time>2016-07-30T07:34:12.017Z</time>
      </trkpt>
      <trkpt lat="43.13609" lon="5.93307">
        <ele>86</ele>
        <time>2016-07-30T07:34:13.017Z</time>
      </trkpt>
      <trkpt lat="43.13611" lon="5.93309">
        <ele>86</ele>
        <time>2016-07-30T07:34:14.017Z</time>
      </trkpt>
      <trkpt lat="43.13612" lon="5.9331">
        <ele>87</ele>
        <time>2016-07-30T07:34:15.017Z</time>
      </trkpt>
      <trkpt lat="43.13613" lon="5.93312">
        <ele>87</ele>
        <time>2016-07-30T07:34:16.017Z</time>
      </trkpt>
      <trkpt lat="43.13615" lon="5.93313">
        <ele>87</ele>
        <time>2016-07-30T07:34:17.017Z</time>
      </trkpt>
      <trkpt lat="43.13616" lon="5.93315">
        <ele>87</ele>
        <time>2016-07-30T07:34:18.017Z</time>
      </trkpt>
      <trkpt lat="43.13618" lon="5.93316">
        <ele>88</ele>
        <time>2016-07-30T07:34:19.017Z</time>
      </trkpt>
      <trkpt lat="43.13619" lon="5.93318">
        <ele>88</ele>
        <time>2016-07-30T07:34:20.017Z</time>
      </trkpt>
      <trkpt lat="43.13621" lon="5.93319">
        <ele>89</ele>
        <time>2016-07-30T07:34:21.017Z</time>
      </trkpt>
      <trkpt lat="43.13623" lon="5.93321">
        <ele>89</ele>
        <time>2016-07-30T07:34:22.017Z</time>
      </trkpt>
      <trkpt lat="43.13624" lon="5.93323">
        <ele>89</ele>
        <time>2016-07-30T07:34:23.017Z</time>
      </trkpt>
      <trkpt lat="43.13626" lon="5.93324">
        <ele>90</ele>
        <time>2016-07-30T07:34:24.017Z</time>
      </trkpt>
      <trkpt lat="43.13628" lon="5.93326">
        <ele>90</ele>
        <time>2016-07-30T07:34:25.017Z</time>
      </trkpt>
      <trkpt lat="43.1363" lon="5.93328">
        <ele>90</ele>
        <time>2016-07-30T07:34:26.017Z</time>
      </trkpt>
      <trkpt lat="43.13631" lon="5.93329">
        <ele>90</ele>
        <time>2016-07-30T07:34:27.017Z</time>
      </trkpt>
      <trkpt lat="43.13633" lon="5.93331">
        <ele>91</ele>
        <time>2016-07-30T07:34:28.017Z</time>
      </trkpt>
      <trkpt lat="43.13635" lon="5.93332">
        <ele>91</ele>
        <time>2016-07-30T07:34:29.017Z</time>
      </trkpt>
      <trkpt lat="43.13637" lon="5.93334">
        <ele>91</ele>
        <time>2016-07-30T07:34:30.017Z</time>
      </trkpt>
      <trkpt lat="43.13639" lon="5.93336">
        <ele>91</ele>
        <time>2016-07-30T07:34:31.017Z</time>
      </trkpt>
      <trkpt lat="43.13641" lon="5.93338">
        <ele>91</ele>
        <time>2016-07-30T07:34:32.017Z</time>
      </trkpt>
      <trkpt lat="43.13642" lon="5.9334">
        <ele>92</ele>
        <time>2016-07-30T07:34:33.017Z</time>
      </trkpt>
      <trkpt lat="43.13644" lon="5.93342">
        <ele>92</ele>
        <time>2016-07-30T07:34:34.017Z</time>
      </trkpt>
      <trkpt lat="43.13645" lon="5.93344">
        <ele>92</ele>
        <time>2016-07-30T07:34:35.017Z</time>
      </trkpt>
      <trkpt lat="43.13647" lon="5.93346">
        <ele>93</ele>
        <time>2016-07-30T07:34:36.017Z</time>
      </trkpt>
      <trkpt lat="43.13648" lon="5.93347">
        <ele>92</ele>
        <time>2016-07-30T07:34:37.017Z</time>
      </trkpt>
      <trkpt lat="43.13649" lon="5.93349">
        <ele>93</ele>
        <time>2016-07-30T07:34:38.017Z</time>
      </trkpt>
      <trkpt lat="43.13651" lon="5.93351">
        <ele>93</ele>
        <time>2016-07-30T07:34:39.017Z</time>
      </trkpt>
      <trkpt lat="43.13652" lon="5.93352">
        <ele>93</ele>
        <time>2016-07-30T07:34:40.017Z</time>
      </trkpt>
      <trkpt lat="43.13653" lon="5.93354">
        <ele>94</ele>
        <time>2016-07-30T07:34:41.017Z</time>
      </trkpt>
      <trkpt lat="43.13654" lon="5.93356">
        <ele>94</ele>
        <time>2016-07-30T07:34:42.017Z</time>
      </trkpt>
      <trkpt lat="43.13655" lon="5.93357">
        <ele>95</ele>
        <time>2016-07-30T07:34:43.017Z</time>
      </trkpt>
      <trkpt lat="43.13656" lon="5.93358">
        <ele>95</ele>
        <time>2016-07-30T07:34:44.017Z</time>
      </trkpt>
      <trkpt lat="43.13658" lon="5.9336">
        <ele>96</ele>
        <time>2016-07-30T07:34:45.017Z</time>
      </trkpt>
      <trkpt lat="43.13659" lon="5.93361">
        <ele>96</ele>
        <time>2016-07-30T07:34:46.017Z</time>
      </trkpt>
      <trkpt lat="43.1366" lon="5.93362">
        <ele>96</ele>
        <time>2016-07-30T07:34:47.017Z</time>
      </trkpt>
      <trkpt lat="43.13662" lon="5.93363">
        <ele>96</ele>
        <time>2016-07-30T07:34:48.017Z</time>
      </trkpt>
      <trkpt lat="43.13663" lon="5.93364">
        <ele>97</ele>
        <time>2016-07-30T07:34:49.017Z</time>
      </trkpt>
      <trkpt lat="43.13664" lon="5.93366">
        <ele>97</ele>
        <time>2016-07-30T07:34:50.017Z</time>
      </trkpt>
      <trkpt lat="43.13666" lon="5.93367">
        <ele>98</ele>
        <time>2016-07-30T07:34:51.017Z</time>
      </trkpt>
      <trkpt lat="43.13667" lon="5.93368">
        <ele>99</ele>
        <time>2016-07-30T07:34:52.017Z</time>
      </trkpt>
      <trkpt lat="43.13668" lon="5.93369">
        <ele>100</ele>
        <time>2016-07-30T07:34:53.017Z</time>
      </trkpt>
      <trkpt lat="43.13669" lon="5.9337">
        <ele>100</ele>
        <time>2016-07-30T07:34:54.017Z</time>
      </trkpt>
      <trkpt lat="43.1367" lon="5.93372">
        <ele>101</ele>
        <time>2016-07-30T07:34:55.017Z</time>
      </trkpt>
      <trkpt lat="43.13672" lon="5.93373">
        <ele>101</ele>
        <time>2016-07-30T07:34:56.017Z</time>
      </trkpt>
      <trkpt lat="43.13674" lon="5.93373">
        <ele>103</ele>
        <time>2016-07-30T07:34:57.017Z</time>
      </trkpt>
      <trkpt lat="43.13676" lon="5.93374">
        <ele>103</ele>
        <time>2016-07-30T07:34:58.017Z</time>
      </trkpt>
      <trkpt lat="43.13677" lon="5.93375">
        <ele>103</ele>
        <time>2016-07-30T07:34:59.017Z</time>
      </trkpt>
      <trkpt lat="43.13679" lon="5.93376">
        <ele>104</ele>
        <time>2016-07-30T07:35:00.017Z</time>
      </trkpt>
      <trkpt lat="43.1368" lon="5.93377">
        <ele>104</ele>
        <time>2016-07-30T07:35:01.017Z</time>
      </trkpt>
      <trkpt lat="43.13681" lon="5.93378">
        <ele>104</ele>
        <time>2016-07-30T07:35:02.017Z</time>
      </trkpt>
      <trkpt lat="43.13683" lon="5.93379">
        <ele>104</ele>
        <time>2016-07-30T07:35:03.017Z</time>
      </trkpt>
      <trkpt lat="43.13684" lon="5.9338">
        <ele>104</ele>
        <time>2016-07-30T07:35:04.017Z</time>
      </trkpt>
      <trkpt lat="43.13686" lon="5.93381">
        <ele>103</ele>
        <time>2016-07-30T07:35:05.017Z</time>
      </trkpt>
      <trkpt lat="43.13687" lon="5.93382">
        <ele>104</ele>
        <time>2016-07-30T07:35:06.017Z</time>
      </trkpt>
      <trkpt lat="43.13689" lon="5.93383">
        <ele>105</ele>
        <time>2016-07-30T07:35:07.017Z</time>
      </trkpt>
      <trkpt lat="43.13691" lon="5.93384">
        <ele>107</ele>
        <time>2016-07-30T07:35:08.017Z</time>
      </trkpt>
      <trkpt lat="43.13693" lon="5.93385">
        <ele>107</ele>
        <time>2016-07-30T07:35:09.017Z</time>
      </trkpt>
      <trkpt lat="43.13695" lon="5.93386">
        <ele>107</ele>
        <time>2016-07-30T07:35:10.017Z</time>
      </trkpt>
      <trkpt lat="43.13696" lon="5.93387">
        <ele>107</ele>
        <time>2016-07-30T07:35:11.017Z</time>
      </trkpt>
      <trkpt lat="43.13698" lon="5.93388">
        <ele>108</ele>
        <time>2016-07-30T07:35:12.017Z</time>
      </trkpt>
      <trkpt lat="43.13699" lon="5.9339">
        <ele>108</ele>
        <time>2016-07-30T07:35:13.017Z</time>
      </trkpt>
      <trkpt lat="43.13701" lon="5.93391">
        <ele>109</ele>
        <time>2016-07-30T07:35:14.017Z</time>
      </trkpt>
      <trkpt lat="43.13702" lon="5.93392">
        <ele>109</ele>
        <time>2016-07-30T07:35:15.017Z</time>
      </trkpt>
      <trkpt lat="43.13704" lon="5.93394">
        <ele>109</ele>
        <time>2016-07-30T07:35:16.017Z</time>
      </trkpt>
      <trkpt lat="43.13705" lon="5.93395">
        <ele>110</ele>
        <time>2016-07-30T07:35:17.017Z</time>
      </trkpt>
      <trkpt lat="43.13706" lon="5.93396">
        <ele>110</ele>
        <time>2016-07-30T07:35:18.017Z</time>
      </trkpt>
      <trkpt lat="43.13707" lon="5.93398">
        <ele>111</ele>
        <time>2016-07-30T07:35:19.017Z</time>
      </trkpt>
      <trkpt lat="43.13709" lon="5.93399">
        <ele>111</ele>
        <time>2016-07-30T07:35:20.017Z</time>
      </trkpt>
      <trkpt lat="43.1371" lon="5.93401">
        <ele>111</ele>
        <time>2016-07-30T07:35:21.017Z</time>
      </trkpt>
      <trkpt lat="43.13711" lon="5.93402">
        <ele>112</ele>
        <time>2016-07-30T07:35:22.017Z</time>
      </trkpt>
      <trkpt lat="43.13713" lon="5.93403">
        <ele>112</ele>
        <time>2016-07-30T07:35:23.017Z</time>
      </trkpt>
      <trkpt lat="43.13714" lon="5.93404">
        <ele>112</ele>
        <time>2016-07-30T07:35:24.017Z</time>
      </trkpt>
      <trkpt lat="43.13716" lon="5.93406">
        <ele>113</ele>
        <time>2016-07-30T07:35:25.017Z</time>
      </trkpt>
      <trkpt lat="43.13717" lon="5.93407">
        <ele>113</ele>
        <time>2016-07-30T07:35:26.017Z</time>
      </trkpt>
      <trkpt lat="43.13718" lon="5.93408">
        <ele>113</ele>
        <time>2016-07-30T07:35:27.017Z</time>
      </trkpt>
      <trkpt lat="43.1372" lon="5.93409">
        <ele>114</ele>
        <time>2016-07-30T07:35:28.017Z</time>
      </trkpt>
      <trkpt lat="43.13721" lon="5.9341">
        <ele>115</ele>
        <time>2016-07-30T07:35:29.017Z</time>
      </trkpt>
      <trkpt lat="43.13723" lon="5.93411">
        <ele>116</ele>
        <time>2016-07-30T07:35:30.017Z</time>
      </trkpt>
      <trkpt lat="43.13724" lon="5.93411">
        <ele>117</ele>
        <time>2016-07-30T07:35:31.017Z</time>
      </trkpt>
      <trkpt lat="43.13726" lon="5.93412">
        <ele>119</ele>
        <time>2016-07-30T07:35:32.017Z</time>
      </trkpt>
      <trkpt lat="43.13727" lon="5.93413">
        <ele>120</ele>
        <time>2016-07-30T07:35:33.017Z</time>
      </trkpt>
      <trkpt lat="43.13729" lon="5.93414">
        <ele>120</ele>
        <time>2016-07-30T07:35:34.017Z</time>
      </trkpt>
      <trkpt lat="43.1373" lon="5.93415">
        <ele>121</ele>
        <time>2016-07-30T07:35:35.017Z</time>
      </trkpt>
      <trkpt lat="43.13731" lon="5.93415">
        <ele>120</ele>
        <time>2016-07-30T07:35:36.017Z</time>
      </trkpt>
      <trkpt lat="43.13732" lon="5.93415">
        <ele>119</ele>
        <time>2016-07-30T07:35:37.017Z</time>
      </trkpt>
      <trkpt lat="43.13734" lon="5.93416">
        <ele>119</ele>
        <time>2016-07-30T07:35:38.017Z</time>
      </trkpt>
      <trkpt lat="43.13735" lon="5.93416">
        <ele>119</ele>
        <time>2016-07-30T07:35:39.017Z</time>
      </trkpt>
      <trkpt lat="43.13736" lon="5.93416">
        <ele>119</ele>
        <time>2016-07-30T07:35:40.017Z</time>
      </trkpt>
      <trkpt lat="43.13737" lon="5.93416">
        <ele>119</ele>
        <time>2016-07-30T07:35:41.017Z</time>
      </trkpt>
      <trkpt lat="43.13737" lon="5.93416">
        <ele>118</ele>
        <time>2016-07-30T07:35:42.017Z</time>
      </trkpt>
      <trkpt lat="43.13738" lon="5.93416">
        <ele>117</ele>
        <time>2016-07-30T07:35:43.017Z</time>
      </trkpt>
      <trkpt lat="43.13739" lon="5.93415">
        <ele>117</ele>
        <time>2016-07-30T07:35:44.017Z</time>
      </trkpt>
      <trkpt lat="43.13739" lon="5.93415">
        <ele>117</ele>
        <time>2016-07-30T07:35:45.017Z</time>
      </trkpt>
      <trkpt lat="43.1374" lon="5.93414">
        <ele>117</ele>
        <time>2016-07-30T07:35:46.017Z</time>
      </trkpt>
      <trkpt lat="43.1374" lon="5.93412">
        <ele>117</ele>
        <time>2016-07-30T07:35:47.017Z</time>
      </trkpt>
      <trkpt lat="43.13741" lon="5.9341">
        <ele>117</ele>
        <time>2016-07-30T07:35:48.017Z</time>
      </trkpt>
      <trkpt lat="43.13742" lon="5.93408">
        <ele>118</ele>
        <time>2016-07-30T07:35:49.017Z</time>
      </trkpt>
      <trkpt lat="43.13742" lon="5.93407">
        <ele>118</ele>
        <time>2016-07-30T07:35:50.017Z</time>
      </trkpt>
      <trkpt lat="43.13743" lon="5.93405">
        <ele>118</ele>
        <time>2016-07-30T07:35:51.017Z</time>
      </trkpt>
      <trkpt lat="43.13743" lon="5.93403">
        <ele>118</ele>
        <time>2016-07-30T07:35:52.017Z</time>
      </trkpt>
      <trkpt lat="43.13743" lon="5.93401">
        <ele>117</ele>
        <time>2016-07-30T07:35:53.017Z</time>
      </trkpt>
      <trkpt lat="43.13743" lon="5.93399">
        <ele>116</ele>
        <time>2016-07-30T07:35:54.017Z</time>
      </trkpt>
      <trkpt lat="43.13743" lon="5.93397">
        <ele>116</ele>
        <time>2016-07-30T07:35:55.017Z</time>
      </trkpt>
      <trkpt lat="43.13742" lon="5.93396">
        <ele>115</ele>
        <time>2016-07-30T07:35:56.017Z</time>
      </trkpt>
      <trkpt lat="43.13742" lon="5.93394">
        <ele>114</ele>
        <time>2016-07-30T07:35:57.017Z</time>
      </trkpt>
      <trkpt lat="43.13742" lon="5.93392">
        <ele>114</ele>
        <time>2016-07-30T07:35:58.017Z</time>
      </trkpt>
      <trkpt lat="43.13742" lon="5.9339">
        <ele>114</ele>
        <time>2016-07-30T07:35:59.017Z</time>
      </trkpt>
      <trkpt lat="43.13742" lon="5.93388">
        <ele>114</ele>
        <time>2016-07-30T07:36:00.017Z</time>
      </trkpt>
      <trkpt lat="43.13742" lon="5.93386">
        <ele>114</ele>
        <time>2016-07-30T07:36:01.017Z</time>
      </trkpt>
      <trkpt lat="43.13741" lon="5.93384">
        <ele>114</ele>
        <time>2016-07-30T07:36:02.017Z</time>
      </trkpt>
      <trkpt lat="43.13741" lon="5.93382">
        <ele>114</ele>
        <time>2016-07-30T07:36:03.017Z</time>
      </trkpt>
      <trkpt lat="43.13741" lon="5.9338">
        <ele>114</ele>
        <time>2016-07-30T07:36:04.017Z</time>
      </trkpt>
      <trkpt lat="43.13741" lon="5.93378">
        <ele>114</ele>
        <time>2016-07-30T07:36:05.017Z</time>
      </trkpt>
      <trkpt lat="43.13741" lon="5.93376">
        <ele>115</ele>
        <time>2016-07-30T07:36:06.017Z</time>
      </trkpt>
      <trkpt lat="43.13741" lon="5.93374">
        <ele>116</ele>
        <time>2016-07-30T07:36:07.017Z</time>
      </trkpt>
      <trkpt lat="43.13741" lon="5.93371">
        <ele>116</ele>
        <time>2016-07-30T07:36:08.017Z</time>
      </trkpt>
      <trkpt lat="43.13741" lon="5.93369">
        <ele>116</ele>
        <time>2016-07-30T07:36:09.017Z</time>
      </trkpt>
      <trkpt lat="43.13741" lon="5.93367">
        <ele>117</ele>
        <time>2016-07-30T07:36:10.017Z</time>
      </trkpt>
      <trkpt lat="43.13741" lon="5.93364">
        <ele>117</ele>
        <time>2016-07-30T07:36:11.017Z</time>
      </trkpt>
      <trkpt lat="43.13741" lon="5.93362">
        <ele>117</ele>
        <time>2016-07-30T07:36:12.017Z</time>
      </trkpt>
      <trkpt lat="43.13741" lon="5.9336">
        <ele>117</ele>
        <time>2016-07-30T07:36:13.017Z</time>
      </trkpt>
      <trkpt lat="43.13742" lon="5.93357">
        <ele>116</ele>
        <time>2016-07-30T07:36:14.017Z</time>
      </trkpt>
      <trkpt lat="43.13742" lon="5.93354">
        <ele>116</ele>
        <time>2016-07-30T07:36:15.017Z</time>
      </trkpt>
      <trkpt lat="43.13742" lon="5.93351">
        <ele>116</ele>
        <time>2016-07-30T07:36:16.017Z</time>
      </trkpt>
      <trkpt lat="43.13741" lon="5.93348">
        <ele>116</ele>
        <time>2016-07-30T07:36:17.017Z</time>
      </trkpt>
      <trkpt lat="43.13741" lon="5.93344">
        <ele>116</ele>
        <time>2016-07-30T07:36:18.017Z</time>
      </trkpt>
      <trkpt lat="43.13741" lon="5.9334">
        <ele>115</ele>
        <time>2016-07-30T07:36:19.017Z</time>
      </trkpt>
      <trkpt lat="43.13741" lon="5.93336">
        <ele>115</ele>
        <time>2016-07-30T07:36:20.017Z</time>
      </trkpt>
      <trkpt lat="43.13742" lon="5.93332">
        <ele>115</ele>
        <time>2016-07-30T07:36:21.017Z</time>
      </trkpt>
      <trkpt lat="43.13742" lon="5.93327">
        <ele>115</ele>
        <time>2016-07-30T07:36:22.017Z</time>
      </trkpt>
      <trkpt lat="43.13742" lon="5.93322">
        <ele>114</ele>
        <time>2016-07-30T07:36:23.017Z</time>
      </trkpt>
      <trkpt lat="43.13741" lon="5.93317">
        <ele>113</ele>
        <time>2016-07-30T07:36:24.017Z</time>
      </trkpt>
      <trkpt lat="43.13741" lon="5.93312">
        <ele>113</ele>
        <time>2016-07-30T07:36:25.017Z</time>
      </trkpt>
      <trkpt lat="43.13741" lon="5.93307">
        <ele>113</ele>
        <time>2016-07-30T07:36:26.017Z</time>
      </trkpt>
      <trkpt lat="43.13741" lon="5.93302">
        <ele>113</ele>
        <time>2016-07-30T07:36:27.017Z</time>
      </trkpt>
      <trkpt lat="43.1374" lon="5.93296">
        <ele>113</ele>
        <time>2016-07-30T07:36:28.017Z</time>
      </trkpt>
      <trkpt lat="43.1374" lon="5.93291">
        <ele>112</ele>
        <time>2016-07-30T07:36:29.017Z</time>
      </trkpt>
      <trkpt lat="43.1374" lon="5.93285">
        <ele>112</ele>
        <time>2016-07-30T07:36:30.017Z</time>
      </trkpt>
      <trkpt lat="43.13739" lon="5.9328">
        <ele>113</ele>
        <time>2016-07-30T07:36:31.017Z</time>
      </trkpt>
      <trkpt lat="43.13739" lon="5.93274">
        <ele>112</ele>
        <time>2016-07-30T07:36:32.017Z</time>
      </trkpt>
      <trkpt lat="43.13739" lon="5.93269">
        <ele>112</ele>
        <time>2016-07-30T07:36:33.017Z</time>
      </trkpt>
      <trkpt lat="43.13738" lon="5.93263">
        <ele>112</ele>
        <time>2016-07-30T07:36:34.017Z</time>
      </trkpt>
      <trkpt lat="43.13738" lon="5.93258">
        <ele>112</ele>
        <time>2016-07-30T07:36:35.017Z</time>
      </trkpt>
      <trkpt lat="43.13738" lon="5.93252">
        <ele>112</ele>
        <time>2016-07-30T07:36:36.017Z</time>
      </trkpt>
      <trkpt lat="43.13738" lon="5.93246">
        <ele>112</ele>
        <time>2016-07-30T07:36:37.017Z</time>
      </trkpt>
      <trkpt lat="43.13737" lon="5.9324">
        <ele>112</ele>
        <time>2016-07-30T07:36:38.017Z</time>
      </trkpt>
      <trkpt lat="43.13738" lon="5.93233">
        <ele>110</ele>
        <time>2016-07-30T07:36:39.017Z</time>
      </trkpt>
      <trkpt lat="43.13738" lon="5.93226">
        <ele>111</ele>
        <time>2016-07-30T07:36:40.017Z</time>
      </trkpt>
      <trkpt lat="43.1374" lon="5.93219">
        <ele>111</ele>
        <time>2016-07-30T07:36:41.017Z</time>
      </trkpt>
      <trkpt lat="43.13742" lon="5.93214">
        <ele>111</ele>
        <time>2016-07-30T07:36:42.017Z</time>
      </trkpt>
      <trkpt lat="43.13744" lon="5.93209">
        <ele>111</ele>
        <time>2016-07-30T07:36:43.017Z</time>
      </trkpt>
      <trkpt lat="43.13747" lon="5.93204">
        <ele>112</ele>
        <time>2016-07-30T07:36:44.017Z</time>
      </trkpt>
      <trkpt lat="43.13749" lon="5.932">
        <ele>112</ele>
        <time>2016-07-30T07:36:45.017Z</time>
      </trkpt>
      <trkpt lat="43.13752" lon="5.93196">
        <ele>113</ele>
        <time>2016-07-30T07:36:46.017Z</time>
      </trkpt>
      <trkpt lat="43.13755" lon="5.93191">
        <ele>113</ele>
        <time>2016-07-30T07:36:47.017Z</time>
      </trkpt>
      <trkpt lat="43.13758" lon="5.93187">
        <ele>113</ele>
        <time>2016-07-30T07:36:48.017Z</time>
      </trkpt>
      <trkpt lat="43.13761" lon="5.93183">
        <ele>114</ele>
        <time>2016-07-30T07:36:49.017Z</time>
      </trkpt>
      <trkpt lat="43.13764" lon="5.93179">
        <ele>115</ele>
        <time>2016-07-30T07:36:50.017Z</time>
      </trkpt>
      <trkpt lat="43.13767" lon="5.93175">
        <ele>115</ele>
        <time>2016-07-30T07:36:51.017Z</time>
      </trkpt>
      <trkpt lat="43.13771" lon="5.93172">
        <ele>115</ele>
        <time>2016-07-30T07:36:52.017Z</time>
      </trkpt>
      <trkpt lat="43.13775" lon="5.93169">
        <ele>115</ele>
        <time>2016-07-30T07:36:53.017Z</time>
      </trkpt>
      <trkpt lat="43.13779" lon="5.93167">
        <ele>115</ele>
        <time>2016-07-30T07:36:54.017Z</time>
      </trkpt>
      <trkpt lat="43.13784" lon="5.93165">
        <ele>115</ele>
        <time>2016-07-30T07:36:55.017Z</time>
      </trkpt>
      <trkpt lat="43.13788" lon="5.93163">
        <ele>116</ele>
        <time>2016-07-30T07:36:56.017Z</time>
      </trkpt>
      <trkpt lat="43.13793" lon="5.93161">
        <ele>116</ele>
        <time>2016-07-30T07:36:57.017Z</time>
      </trkpt>
      <trkpt lat="43.13797" lon="5.93157">
        <ele>116</ele>
        <time>2016-07-30T07:36:58.017Z</time>
      </trkpt>
      <trkpt lat="43.13799" lon="5.93152">
        <ele>116</ele>
        <time>2016-07-30T07:36:59.017Z</time>
      </trkpt>
      <trkpt lat="43.13801" lon="5.93146">
        <ele>116</ele>
        <time>2016-07-30T07:37:00.017Z</time>
      </trkpt>
      <trkpt lat="43.138" lon="5.93141">
        <ele>116</ele>
        <time>2016-07-30T07:37:01.017Z</time>
      </trkpt>
      <trkpt lat="43.13799" lon="5.93134">
        <ele>118</ele>
        <time>2016-07-30T07:37:02.017Z</time>
      </trkpt>
      <trkpt lat="43.13798" lon="5.93128">
        <ele>119</ele>
        <time>2016-07-30T07:37:03.017Z</time>
      </trkpt>
      <trkpt lat="43.13796" lon="5.93122">
        <ele>119</ele>
        <time>2016-07-30T07:37:04.017Z</time>
      </trkpt>
      <trkpt lat="43.13795" lon="5.93117">
        <ele>118</ele>
        <time>2016-07-30T07:37:05.017Z</time>
      </trkpt>
      <trkpt lat="43.13794" lon="5.93111">
        <ele>118</ele>
        <time>2016-07-30T07:37:06.017Z</time>
      </trkpt>
      <trkpt lat="43.13793" lon="5.93106">
        <ele>118</ele>
        <time>2016-07-30T07:37:07.017Z</time>
      </trkpt>
      <trkpt lat="43.13792" lon="5.93101">
        <ele>118</ele>
        <time>2016-07-30T07:37:08.017Z</time>
      </trkpt>
      <trkpt lat="43.13791" lon="5.93096">
        <ele>118</ele>
        <time>2016-07-30T07:37:09.017Z</time>
      </trkpt>
      <trkpt lat="43.1379" lon="5.93091">
        <ele>119</ele>
        <time>2016-07-30T07:37:10.017Z</time>
      </trkpt>
      <trkpt lat="43.13789" lon="5.93086">
        <ele>118</ele>
        <time>2016-07-30T07:37:11.017Z</time>
      </trkpt>
      <trkpt lat="43.13787" lon="5.93082">
        <ele>118</ele>
        <time>2016-07-30T07:37:12.017Z</time>
      </trkpt>
      <trkpt lat="43.13786" lon="5.93076">
        <ele>119</ele>
        <time>2016-07-30T07:37:13.017Z</time>
      </trkpt>
      <trkpt lat="43.13786" lon="5.93071">
        <ele>118</ele>
        <time>2016-07-30T07:37:14.017Z</time>
      </trkpt>
      <trkpt lat="43.13785" lon="5.93065">
        <ele>118</ele>
        <time>2016-07-30T07:37:15.017Z</time>
      </trkpt>
      <trkpt lat="43.13786" lon="5.93059">
        <ele>119</ele>
        <time>2016-07-30T07:37:16.017Z</time>
      </trkpt>
      <trkpt lat="43.13786" lon="5.93054">
        <ele>118</ele>
        <time>2016-07-30T07:37:17.017Z</time>
      </trkpt>
      <trkpt lat="43.13786" lon="5.93048">
        <ele>119</ele>
        <time>2016-07-30T07:37:18.017Z</time>
      </trkpt>
      <trkpt lat="43.13787" lon="5.93042">
        <ele>119</ele>
        <time>2016-07-30T07:37:19.017Z</time>
      </trkpt>
      <trkpt lat="43.13787" lon="5.93036">
        <ele>119</ele>
        <time>2016-07-30T07:37:20.017Z</time>
      </trkpt>
      <trkpt lat="43.13788" lon="5.9303">
        <ele>119</ele>
        <time>2016-07-30T07:37:21.017Z</time>
      </trkpt>
      <trkpt lat="43.13789" lon="5.93024">
        <ele>119</ele>
        <time>2016-07-30T07:37:22.017Z</time>
      </trkpt>
      <trkpt lat="43.1379" lon="5.93018">
        <ele>119</ele>
        <time>2016-07-30T07:37:23.017Z</time>
      </trkpt>
      <trkpt lat="43.13791" lon="5.93013">
        <ele>120</ele>
        <time>2016-07-30T07:37:24.017Z</time>
      </trkpt>
      <trkpt lat="43.13792" lon="5.93007">
        <ele>120</ele>
        <time>2016-07-30T07:37:25.017Z</time>
      </trkpt>
      <trkpt lat="43.13793" lon="5.93002">
        <ele>120</ele>
        <time>2016-07-30T07:37:26.017Z</time>
      </trkpt>
      <trkpt lat="43.13793" lon="5.92996">
        <ele>120</ele>
        <time>2016-07-30T07:37:27.017Z</time>
      </trkpt>
      <trkpt lat="43.13794" lon="5.92991">
        <ele>120</ele>
        <time>2016-07-30T07:37:28.017Z</time>
      </trkpt>
      <trkpt lat="43.13795" lon="5.92986">
        <ele>121</ele>
        <time>2016-07-30T07:37:29.017Z</time>
      </trkpt>
      <trkpt lat="43.13795" lon="5.9298">
        <ele>121</ele>
        <time>2016-07-30T07:37:30.017Z</time>
      </trkpt>
      <trkpt lat="43.13796" lon="5.92975">
        <ele>120</ele>
        <time>2016-07-30T07:37:31.017Z</time>
      </trkpt>
      <trkpt lat="43.13795" lon="5.92969">
        <ele>120</ele>
        <time>2016-07-30T07:37:32.017Z</time>
      </trkpt>
      <trkpt lat="43.13795" lon="5.92963">
        <ele>120</ele>
        <time>2016-07-30T07:37:33.017Z</time>
      </trkpt>
      <trkpt lat="43.13794" lon="5.92957">
        <ele>120</ele>
        <time>2016-07-30T07:37:34.017Z</time>
      </trkpt>
      <trkpt lat="43.13793" lon="5.92951">
        <ele>120</ele>
        <time>2016-07-30T07:37:35.017Z</time>
      </trkpt>
      <trkpt lat="43.13792" lon="5.92945">
        <ele>120</ele>
        <time>2016-07-30T07:37:36.017Z</time>
      </trkpt>
      <trkpt lat="43.1379" lon="5.92939">
        <ele>120</ele>
        <time>2016-07-30T07:37:37.017Z</time>
      </trkpt>
      <trkpt lat="43.13788" lon="5.92933">
        <ele>120</ele>
        <time>2016-07-30T07:37:38.017Z</time>
      </trkpt>
      <trkpt lat="43.13785" lon="5.92928">
        <ele>120</ele>
        <time>2016-07-30T07:37:39.017Z</time>
      </trkpt>
      <trkpt lat="43.13782" lon="5.92922">
        <ele>120</ele>
        <time>2016-07-30T07:37:40.017Z</time>
      </trkpt>
      <trkpt lat="43.13779" lon="5.92916">
        <ele>120</ele>
        <time>2016-07-30T07:37:41.017Z</time>
      </trkpt>
      <trkpt lat="43.13777" lon="5.92911">
        <ele>120</ele>
        <time>2016-07-30T07:37:42.017Z</time>
      </trkpt>
      <trkpt lat="43.13774" lon="5.92905">
        <ele>120</ele>
        <time>2016-07-30T07:37:43.017Z</time>
      </trkpt>
      <trkpt lat="43.13771" lon="5.929">
        <ele>120</ele>
        <time>2016-07-30T07:37:44.017Z</time>
      </trkpt>
      <trkpt lat="43.13768" lon="5.92895">
        <ele>121</ele>
        <time>2016-07-30T07:37:45.017Z</time>
      </trkpt>
      <trkpt lat="43.13765" lon="5.92891">
        <ele>121</ele>
        <time>2016-07-30T07:37:46.017Z</time>
      </trkpt>
      <trkpt lat="43.13762" lon="5.92886">
        <ele>122</ele>
        <time>2016-07-30T07:37:47.017Z</time>
      </trkpt>
      <trkpt lat="43.13759" lon="5.92882">
        <ele>122</ele>
        <time>2016-07-30T07:37:48.017Z</time>
      </trkpt>
      <trkpt lat="43.13756" lon="5.92877">
        <ele>123</ele>
        <time>2016-07-30T07:37:49.017Z</time>
      </trkpt>
      <trkpt lat="43.13753" lon="5.92873">
        <ele>123</ele>
        <time>2016-07-30T07:37:50.017Z</time>
      </trkpt>
      <trkpt lat="43.1375" lon="5.92869">
        <ele>122</ele>
        <time>2016-07-30T07:37:51.017Z</time>
      </trkpt>
      <trkpt lat="43.13746" lon="5.92865">
        <ele>122</ele>
        <time>2016-07-30T07:37:52.017Z</time>
      </trkpt>
      <trkpt lat="43.13743" lon="5.9286">
        <ele>122</ele>
        <time>2016-07-30T07:37:53.017Z</time>
      </trkpt>
      <trkpt lat="43.13739" lon="5.92855">
        <ele>121</ele>
        <time>2016-07-30T07:37:54.017Z</time>
      </trkpt>
      <trkpt lat="43.13735" lon="5.9285">
        <ele>121</ele>
        <time>2016-07-30T07:37:55.017Z</time>
      </trkpt>
      <trkpt lat="43.13731" lon="5.92844">
        <ele>121</ele>
        <time>2016-07-30T07:37:56.017Z</time>
      </trkpt>
      <trkpt lat="43.13728" lon="5.92839">
        <ele>121</ele>
        <time>2016-07-30T07:37:57.017Z</time>
      </trkpt>
      <trkpt lat="43.13726" lon="5.92833">
        <ele>123</ele>
        <time>2016-07-30T07:37:58.017Z</time>
      </trkpt>
      <trkpt lat="43.13726" lon="5.92827">
        <ele>124</ele>
        <time>2016-07-30T07:37:59.017Z</time>
      </trkpt>
      <trkpt lat="43.13726" lon="5.92821">
        <ele>124</ele>
        <time>2016-07-30T07:38:00.017Z</time>
      </trkpt>
      <trkpt lat="43.13727" lon="5.92816">
        <ele>124</ele>
        <time>2016-07-30T07:38:01.017Z</time>
      </trkpt>
      <trkpt lat="43.13727" lon="5.92812">
        <ele>124</ele>
        <time>2016-07-30T07:38:02.017Z</time>
      </trkpt>
      <trkpt lat="43.13729" lon="5.92808">
        <ele>124</ele>
        <time>2016-07-30T07:38:03.017Z</time>
      </trkpt>
      <trkpt lat="43.1373" lon="5.92804">
        <ele>124</ele>
        <time>2016-07-30T07:38:04.017Z</time>
      </trkpt>
      <trkpt lat="43.13732" lon="5.92801">
        <ele>125</ele>
        <time>2016-07-30T07:38:05.017Z</time>
      </trkpt>
      <trkpt lat="43.13734" lon="5.92798">
        <ele>125</ele>
        <time>2016-07-30T07:38:06.017Z</time>
      </trkpt>
      <trkpt lat="43.13737" lon="5.92796">
        <ele>126</ele>
        <time>2016-07-30T07:38:07.017Z</time>
      </trkpt>
      <trkpt lat="43.1374" lon="5.92793">
        <ele>126</ele>
        <time>2016-07-30T07:38:08.017Z</time>
      </trkpt>
      <trkpt lat="43.13743" lon="5.92792">
        <ele>127</ele>
        <time>2016-07-30T07:38:09.017Z</time>
      </trkpt>
      <trkpt lat="43.13746" lon="5.9279">
        <ele>128</ele>
        <time>2016-07-30T07:38:10.017Z</time>
      </trkpt>
      <trkpt lat="43.13749" lon="5.92788">
        <ele>128</ele>
        <time>2016-07-30T07:38:11.017Z</time>
      </trkpt>
      <trkpt lat="43.13752" lon="5.92787">
        <ele>130</ele>
        <time>2016-07-30T07:38:12.017Z</time>
      </trkpt>
      <trkpt lat="43.13756" lon="5.92786">
        <ele>131</ele>
        <time>2016-07-30T07:38:13.017Z</time>
      </trkpt>
      <trkpt lat="43.13759" lon="5.92785">
        <ele>132</ele>
        <time>2016-07-30T07:38:14.017Z</time>
      </trkpt>
      <trkpt lat="43.13762" lon="5.92784">
        <ele>132</ele>
        <time>2016-07-30T07:38:15.017Z</time>
      </trkpt>
      <trkpt lat="43.13765" lon="5.92783">
        <ele>133</ele>
        <time>2016-07-30T07:38:16.017Z</time>
      </trkpt>
      <trkpt lat="43.13768" lon="5.92782">
        <ele>134</ele>
        <time>2016-07-30T07:38:17.017Z</time>
      </trkpt>
      <trkpt lat="43.13771" lon="5.92782">
        <ele>134</ele>
        <time>2016-07-30T07:38:18.017Z</time>
      </trkpt>
      <trkpt lat="43.13774" lon="5.92781">
        <ele>135</ele>
        <time>2016-07-30T07:38:19.017Z</time>
      </trkpt>
      <trkpt lat="43.13776" lon="5.9278">
        <ele>136</ele>
        <time>2016-07-30T07:38:20.017Z</time>
      </trkpt>
      <trkpt lat="43.13779" lon="5.9278">
        <ele>136</ele>
        <time>2016-07-30T07:38:21.017Z</time>
      </trkpt>
      <trkpt lat="43.13781" lon="5.92779">
        <ele>136</ele>
        <time>2016-07-30T07:38:22.017Z</time>
      </trkpt>
      <trkpt lat="43.13784" lon="5.92778">
        <ele>137</ele>
        <time>2016-07-30T07:38:23.017Z</time>
      </trkpt>
      <trkpt lat="43.13786" lon="5.92777">
        <ele>137</ele>
        <time>2016-07-30T07:38:24.017Z</time>
      </trkpt>
      <trkpt lat="43.13789" lon="5.92776">
        <ele>138</ele>
        <time>2016-07-30T07:38:25.017Z</time>
      </trkpt>
      <trkpt lat="43.13791" lon="5.92775">
        <ele>138</ele>
        <time>2016-07-30T07:38:26.017Z</time>
      </trkpt>
      <trkpt lat="43.13793" lon="5.92775">
        <ele>138</ele>
        <time>2016-07-30T07:38:27.017Z</time>
      </trkpt>
      <trkpt lat="43.13796" lon="5.92774">
        <ele>139</ele>
        <time>2016-07-30T07:38:28.017Z</time>
      </trkpt>
      <trkpt lat="43.13798" lon="5.92773">
        <ele>140</ele>
        <time>2016-07-30T07:38:29.017Z</time>
      </trkpt>
      <trkpt lat="43.138" lon="5.92772">
        <ele>140</ele>
        <time>2016-07-30T07:38:30.017Z</time>
      </trkpt>
      <trkpt lat="43.13802" lon="5.92771">
        <ele>140</ele>
        <time>2016-07-30T07:38:31.017Z</time>
      </trkpt>
      <trkpt lat="43.13804" lon="5.9277">
        <ele>140</ele>
        <time>2016-07-30T07:38:32.017Z</time>
      </trkpt>
      <trkpt lat="43.13806" lon="5.92768">
        <ele>140</ele>
        <time>2016-07-30T07:38:33.017Z</time>
      </trkpt>
      <trkpt lat="43.13808" lon="5.92767">
        <ele>141</ele>
        <time>2016-07-30T07:38:34.017Z</time>
      </trkpt>
      <trkpt lat="43.1381" lon="5.92767">
        <ele>140</ele>
        <time>2016-07-30T07:38:35.017Z</time>
      </trkpt>
      <trkpt lat="43.13811" lon="5.92766">
        <ele>141</ele>
        <time>2016-07-30T07:38:36.017Z</time>
      </trkpt>
      <trkpt lat="43.13813" lon="5.92765">
        <ele>141</ele>
        <time>2016-07-30T07:38:37.017Z</time>
      </trkpt>
      <trkpt lat="43.13815" lon="5.92764">
        <ele>142</ele>
        <time>2016-07-30T07:38:38.017Z</time>
      </trkpt>
      <trkpt lat="43.13817" lon="5.92763">
        <ele>142</ele>
        <time>2016-07-30T07:38:39.017Z</time>
      </trkpt>
      <trkpt lat="43.13819" lon="5.92762">
        <ele>142</ele>
        <time>2016-07-30T07:38:40.017Z</time>
      </trkpt>
      <trkpt lat="43.13821" lon="5.92762">
        <ele>143</ele>
        <time>2016-07-30T07:38:41.017Z</time>
      </trkpt>
      <trkpt lat="43.13823" lon="5.92762">
        <ele>143</ele>
        <time>2016-07-30T07:38:42.017Z</time>
      </trkpt>
      <trkpt lat="43.13825" lon="5.92763">
        <ele>144</ele>
        <time>2016-07-30T07:38:43.017Z</time>
      </trkpt>
      <trkpt lat="43.13827" lon="5.92763">
        <ele>144</ele>
        <time>2016-07-30T07:38:44.017Z</time>
      </trkpt>
      <trkpt lat="43.13829" lon="5.92764">
        <ele>145</ele>
        <time>2016-07-30T07:38:45.017Z</time>
      </trkpt>
      <trkpt lat="43.13831" lon="5.92764">
        <ele>145</ele>
        <time>2016-07-30T07:38:46.017Z</time>
      </trkpt>
      <trkpt lat="43.13834" lon="5.92763">
        <ele>145</ele>
        <time>2016-07-30T07:38:47.017Z</time>
      </trkpt>
      <trkpt lat="43.13836" lon="5.92762">
        <ele>146</ele>
        <time>2016-07-30T07:38:48.017Z</time>
      </trkpt>
      <trkpt lat="43.13839" lon="5.9276">
        <ele>146</ele>
        <time>2016-07-30T07:38:49.017Z</time>
      </trkpt>
      <trkpt lat="43.13842" lon="5.92759">
        <ele>146</ele>
        <time>2016-07-30T07:38:50.017Z</time>
      </trkpt>
      <trkpt lat="43.13845" lon="5.92758">
        <ele>146</ele>
        <time>2016-07-30T07:38:51.017Z</time>
      </trkpt>
      <trkpt lat="43.13848" lon="5.92758">
        <ele>146</ele>
        <time>2016-07-30T07:38:52.017Z</time>
      </trkpt>
      <trkpt lat="43.13852" lon="5.92756">
        <ele>146</ele>
        <time>2016-07-30T07:38:53.017Z</time>
      </trkpt>
      <trkpt lat="43.13855" lon="5.92755">
        <ele>147</ele>
        <time>2016-07-30T07:38:54.017Z</time>
      </trkpt>
      <trkpt lat="43.13859" lon="5.92754">
        <ele>147</ele>
        <time>2016-07-30T07:38:55.017Z</time>
      </trkpt>
      <trkpt lat="43.13863" lon="5.92752">
        <ele>147</ele>
        <time>2016-07-30T07:38:56.017Z</time>
      </trkpt>
      <trkpt lat="43.13867" lon="5.9275">
        <ele>147</ele>
        <time>2016-07-30T07:38:57.017Z</time>
      </trkpt>
      <trkpt lat="43.13871" lon="5.92749">
        <ele>147</ele>
        <time>2016-07-30T07:38:58.017Z</time>
      </trkpt>
      <trkpt lat="43.13875" lon="5.92747">
        <ele>147</ele>
        <time>2016-07-30T07:38:59.017Z</time>
      </trkpt>
      <trkpt lat="43.13879" lon="5.92745">
        <ele>147</ele>
        <time>2016-07-30T07:39:00.017Z</time>
      </trkpt>
      <trkpt lat="43.13884" lon="5.92744">
        <ele>147</ele>
        <time>2016-07-30T07:39:01.017Z</time>
      </trkpt>
      <trkpt lat="43.13889" lon="5.92743">
        <ele>147</ele>
        <time>2016-07-30T07:39:02.017Z</time>
      </trkpt>
      <trkpt lat="43.13894" lon="5.92741">
        <ele>146</ele>
        <time>2016-07-30T07:39:03.017Z</time>
      </trkpt>
      <trkpt lat="43.139" lon="5.92739">
        <ele>146</ele>
        <time>2016-07-30T07:39:04.017Z</time>
      </trkpt>
      <trkpt lat="43.13905" lon="5.92737">
        <ele>145</ele>
        <time>2016-07-30T07:39:05.017Z</time>
      </trkpt>
      <trkpt lat="43.13912" lon="5.92735">
        <ele>146</ele>
        <time>2016-07-30T07:39:06.017Z</time>
      </trkpt>
      <trkpt lat="43.13918" lon="5.92733">
        <ele>145</ele>
        <time>2016-07-30T07:39:07.017Z</time>
      </trkpt>
      <trkpt lat="43.13925" lon="5.9273">
        <ele>145</ele>
        <time>2016-07-30T07:39:08.017Z</time>
      </trkpt>
      <trkpt lat="43.13931" lon="5.92727">
        <ele>144</ele>
        <time>2016-07-30T07:39:09.017Z</time>
      </trkpt>
      <trkpt lat="43.13939" lon="5.92725">
        <ele>143</ele>
        <time>2016-07-30T07:39:10.017Z</time>
      </trkpt>
      <trkpt lat="43.13946" lon="5.92723">
        <ele>143</ele>
        <time>2016-07-30T07:39:11.017Z</time>
      </trkpt>
      <trkpt lat="43.13954" lon="5.92723">
        <ele>142</ele>
        <time>2016-07-30T07:39:12.017Z</time>
      </trkpt>
      <trkpt lat="43.13963" lon="5.92725">
        <ele>140</ele>
        <time>2016-07-30T07:39:13.017Z</time>
      </trkpt>
      <trkpt lat="43.13971" lon="5.92728">
        <ele>140</ele>
        <time>2016-07-30T07:39:14.017Z</time>
      </trkpt>
      <trkpt lat="43.1398" lon="5.92733">
        <ele>139</ele>
        <time>2016-07-30T07:39:15.017Z</time>
      </trkpt>
      <trkpt lat="43.13989" lon="5.92737">
        <ele>140</ele>
        <time>2016-07-30T07:39:16.017Z</time>
      </trkpt>
      <trkpt lat="43.13999" lon="5.9274">
        <ele>140</ele>
        <time>2016-07-30T07:39:17.017Z</time>
      </trkpt>
      <trkpt lat="43.14009" lon="5.92743">
        <ele>141</ele>
        <time>2016-07-30T07:39:18.017Z</time>
      </trkpt>
      <trkpt lat="43.14018" lon="5.92745">
        <ele>140</ele>
        <time>2016-07-30T07:39:19.017Z</time>
      </trkpt>
      <trkpt lat="43.14028" lon="5.92747">
        <ele>139</ele>
        <time>2016-07-30T07:39:20.017Z</time>
      </trkpt>
      <trkpt lat="43.14038" lon="5.92748">
        <ele>138</ele>
        <time>2016-07-30T07:39:21.017Z</time>
      </trkpt>
      <trkpt lat="43.14048" lon="5.92749">
        <ele>139</ele>
        <time>2016-07-30T07:39:22.017Z</time>
      </trkpt>
      <trkpt lat="43.14058" lon="5.92749">
        <ele>138</ele>
        <time>2016-07-30T07:39:23.017Z</time>
      </trkpt>
      <trkpt lat="43.14067" lon="5.92749">
        <ele>138</ele>
        <time>2016-07-30T07:39:24.017Z</time>
      </trkpt>
      <trkpt lat="43.14075" lon="5.92748">
        <ele>139</ele>
        <time>2016-07-30T07:39:25.017Z</time>
      </trkpt>
      <trkpt lat="43.14079" lon="5.92737">
        <ele>141</ele>
        <time>2016-07-30T07:39:26.017Z</time>
      </trkpt>
      <trkpt lat="43.1408" lon="5.9272">
        <ele>141</ele>
        <time>2016-07-30T07:39:27.017Z</time>
      </trkpt>
      <trkpt lat="43.14079" lon="5.92701">
        <ele>141</ele>
        <time>2016-07-30T07:39:28.017Z</time>
      </trkpt>
      <trkpt lat="43.14079" lon="5.92688">
        <ele>143</ele>
        <time>2016-07-30T07:39:29.017Z</time>
      </trkpt>
      <trkpt lat="43.14078" lon="5.92677">
        <ele>144</ele>
        <time>2016-07-30T07:39:30.017Z</time>
      </trkpt>
      <trkpt lat="43.14076" lon="5.92666">
        <ele>150</ele>
        <time>2016-07-30T07:39:31.017Z</time>
      </trkpt>
      <trkpt lat="43.14073" lon="5.92653">
        <ele>156</ele>
        <time>2016-07-30T07:39:32.017Z</time>
      </trkpt>
      <trkpt lat="43.14069" lon="5.9264">
        <ele>157</ele>
        <time>2016-07-30T07:39:33.017Z</time>
      </trkpt>
      <trkpt lat="43.14064" lon="5.92631">
        <ele>161</ele>
        <time>2016-07-30T07:39:34.017Z</time>
      </trkpt>
      <trkpt lat="43.14059" lon="5.92623">
        <ele>163</ele>
        <time>2016-07-30T07:39:35.017Z</time>
      </trkpt>
      <trkpt lat="43.14052" lon="5.92617">
        <ele>166</ele>
        <time>2016-07-30T07:39:36.017Z</time>
      </trkpt>
      <trkpt lat="43.14047" lon="5.9261">
        <ele>169</ele>
        <time>2016-07-30T07:39:37.017Z</time>
      </trkpt>
      <trkpt lat="43.14041" lon="5.92605">
        <ele>168</ele>
        <time>2016-07-30T07:39:38.017Z</time>
      </trkpt>
      <trkpt lat="43.14037" lon="5.926">
        <ele>167</ele>
        <time>2016-07-30T07:39:39.017Z</time>
      </trkpt>
      <trkpt lat="43.14033" lon="5.92595">
        <ele>166</ele>
        <time>2016-07-30T07:39:40.017Z</time>
      </trkpt>
      <trkpt lat="43.14029" lon="5.9259">
        <ele>166</ele>
        <time>2016-07-30T07:39:41.017Z</time>
      </trkpt>
      <trkpt lat="43.14025" lon="5.92585">
        <ele>164</ele>
        <time>2016-07-30T07:39:42.017Z</time>
      </trkpt>
      <trkpt lat="43.14022" lon="5.92581">
        <ele>163</ele>
        <time>2016-07-30T07:39:43.017Z</time>
      </trkpt>
      <trkpt lat="43.14018" lon="5.92577">
        <ele>163</ele>
        <time>2016-07-30T07:39:44.017Z</time>
      </trkpt>
      <trkpt lat="43.14013" lon="5.92574">
        <ele>161</ele>
        <time>2016-07-30T07:39:45.017Z</time>
      </trkpt>
      <trkpt lat="43.14009" lon="5.92572">
        <ele>160</ele>
        <time>2016-07-30T07:39:46.017Z</time>
      </trkpt>
      <trkpt lat="43.14006" lon="5.92569">
        <ele>160</ele>
        <time>2016-07-30T07:39:47.017Z</time>
      </trkpt>
      <trkpt lat="43.14003" lon="5.92566">
        <ele>160</ele>
        <time>2016-07-30T07:39:48.017Z</time>
      </trkpt>
      <trkpt lat="43.14" lon="5.92562">
        <ele>159</ele>
        <time>2016-07-30T07:39:49.017Z</time>
      </trkpt>
      <trkpt lat="43.13998" lon="5.92558">
        <ele>158</ele>
        <time>2016-07-30T07:39:50.017Z</time>
      </trkpt>
      <trkpt lat="43.13995" lon="5.92553">
        <ele>157</ele>
        <time>2016-07-30T07:39:51.017Z</time>
      </trkpt>
      <trkpt lat="43.13992" lon="5.92548">
        <ele>157</ele>
        <time>2016-07-30T07:39:52.017Z</time>
      </trkpt>
      <trkpt lat="43.1399" lon="5.92544">
        <ele>156</ele>
        <time>2016-07-30T07:39:53.017Z</time>
      </trkpt>
      <trkpt lat="43.13987" lon="5.92539">
        <ele>156</ele>
        <time>2016-07-30T07:39:54.017Z</time>
      </trkpt>
      <trkpt lat="43.13984" lon="5.92534">
        <ele>155</ele>
        <time>2016-07-30T07:39:55.017Z</time>
      </trkpt>
      <trkpt lat="43.13982" lon="5.92529">
        <ele>155</ele>
        <time>2016-07-30T07:39:56.017Z</time>
      </trkpt>
      <trkpt lat="43.1398" lon="5.92523">
        <ele>155</ele>
        <time>2016-07-30T07:39:57.017Z</time>
      </trkpt>
      <trkpt lat="43.13977" lon="5.92517">
        <ele>154</ele>
        <time>2016-07-30T07:39:58.017Z</time>
      </trkpt>
      <trkpt lat="43.13975" lon="5.92512">
        <ele>154</ele>
        <time>2016-07-30T07:39:59.017Z</time>
      </trkpt>
      <trkpt lat="43.13973" lon="5.92506">
        <ele>154</ele>
        <time>2016-07-30T07:40:00.017Z</time>
      </trkpt>
      <trkpt lat="43.1397" lon="5.92501">
        <ele>153</ele>
        <time>2016-07-30T07:40:01.017Z</time>
      </trkpt>
      <trkpt lat="43.13968" lon="5.92495">
        <ele>152</ele>
        <time>2016-07-30T07:40:02.017Z</time>
      </trkpt>
      <trkpt lat="43.13966" lon="5.92488">
        <ele>151</ele>
        <time>2016-07-30T07:40:03.017Z</time>
      </trkpt>
      <trkpt lat="43.13963" lon="5.92482">
        <ele>151</ele>
        <time>2016-07-30T07:40:04.017Z</time>
      </trkpt>
      <trkpt lat="43.13961" lon="5.92476">
        <ele>150</ele>
        <time>2016-07-30T07:40:05.017Z</time>
      </trkpt>
      <trkpt lat="43.13958" lon="5.9247">
        <ele>150</ele>
        <time>2016-07-30T07:40:06.017Z</time>
      </trkpt>
      <trkpt lat="43.13956" lon="5.92464">
        <ele>150</ele>
        <time>2016-07-30T07:40:07.017Z</time>
      </trkpt>
      <trkpt lat="43.13954" lon="5.92458">
        <ele>150</ele>
        <time>2016-07-30T07:40:08.017Z</time>
      </trkpt>
      <trkpt lat="43.13952" lon="5.92453">
        <ele>150</ele>
        <time>2016-07-30T07:40:09.017Z</time>
      </trkpt>
      <trkpt lat="43.13951" lon="5.92447">
        <ele>151</ele>
        <time>2016-07-30T07:40:10.017Z</time>
      </trkpt>
      <trkpt lat="43.1395" lon="5.92442">
        <ele>150</ele>
        <time>2016-07-30T07:40:11.017Z</time>
      </trkpt>
      <trkpt lat="43.13949" lon="5.92437">
        <ele>150</ele>
        <time>2016-07-30T07:40:12.017Z</time>
      </trkpt>
      <trkpt lat="43.13948" lon="5.92433">
        <ele>150</ele>
        <time>2016-07-30T07:40:13.017Z</time>
      </trkpt>
      <trkpt lat="43.13948" lon="5.92428">
        <ele>150</ele>
        <time>2016-07-30T07:40:14.017Z</time>
      </trkpt>
      <trkpt lat="43.13948" lon="5.92424">
        <ele>150</ele>
        <time>2016-07-30T07:40:15.017Z</time>
      </trkpt>
      <trkpt lat="43.13948" lon="5.92419">
        <ele>150</ele>
        <time>2016-07-30T07:40:16.017Z</time>
      </trkpt>
      <trkpt lat="43.13949" lon="5.92414">
        <ele>150</ele>
        <time>2016-07-30T07:40:17.017Z</time>
      </trkpt>
      <trkpt lat="43.13949" lon="5.9241">
        <ele>150</ele>
        <time>2016-07-30T07:40:18.017Z</time>
      </trkpt>
      <trkpt lat="43.13949" lon="5.92405">
        <ele>150</ele>
        <time>2016-07-30T07:40:19.017Z</time>
      </trkpt>
      <trkpt lat="43.13949" lon="5.924">
        <ele>150</ele>
        <time>2016-07-30T07:40:20.017Z</time>
      </trkpt>
      <trkpt lat="43.1395" lon="5.92395">
        <ele>150</ele>
        <time>2016-07-30T07:40:21.017Z</time>
      </trkpt>
      <trkpt lat="43.13951" lon="5.9239">
        <ele>150</ele>
        <time>2016-07-30T07:40:22.017Z</time>
      </trkpt>
      <trkpt lat="43.13952" lon="5.92385">
        <ele>150</ele>
        <time>2016-07-30T07:40:23.017Z</time>
      </trkpt>
      <trkpt lat="43.13953" lon="5.92381">
        <ele>150</ele>
        <time>2016-07-30T07:40:24.017Z</time>
      </trkpt>
      <trkpt lat="43.13955" lon="5.92376">
        <ele>150</ele>
        <time>2016-07-30T07:40:25.017Z</time>
      </trkpt>
      <trkpt lat="43.13957" lon="5.92371">
        <ele>150</ele>
        <time>2016-07-30T07:40:26.017Z</time>
      </trkpt>
      <trkpt lat="43.13959" lon="5.92367">
        <ele>150</ele>
        <time>2016-07-30T07:40:27.017Z</time>
      </trkpt>
      <trkpt lat="43.13961" lon="5.92362">
        <ele>149</ele>
        <time>2016-07-30T07:40:28.017Z</time>
      </trkpt>
      <trkpt lat="43.13963" lon="5.92358">
        <ele>149</ele>
        <time>2016-07-30T07:40:29.017Z</time>
      </trkpt>
      <trkpt lat="43.13965" lon="5.92354">
        <ele>149</ele>
        <time>2016-07-30T07:40:30.017Z</time>
      </trkpt>
      <trkpt lat="43.13967" lon="5.9235">
        <ele>148</ele>
        <time>2016-07-30T07:40:31.017Z</time>
      </trkpt>
      <trkpt lat="43.13969" lon="5.92347">
        <ele>148</ele>
        <time>2016-07-30T07:40:32.017Z</time>
      </trkpt>
      <trkpt lat="43.13972" lon="5.92345">
        <ele>148</ele>
        <time>2016-07-30T07:40:33.017Z</time>
      </trkpt>
      <trkpt lat="43.13975" lon="5.92343">
        <ele>147</ele>
        <time>2016-07-30T07:40:34.017Z</time>
      </trkpt>
      <trkpt lat="43.13978" lon="5.9234">
        <ele>147</ele>
        <time>2016-07-30T07:40:35.017Z</time>
      </trkpt>
      <trkpt lat="43.13981" lon="5.92339">
        <ele>147</ele>
        <time>2016-07-30T07:40:36.017Z</time>
      </trkpt>
      <trkpt lat="43.13984" lon="5.92337">
        <ele>146</ele>
        <time>2016-07-30T07:40:37.017Z</time>
      </trkpt>
      <trkpt lat="43.13988" lon="5.92337">
        <ele>146</ele>
        <time>2016-07-30T07:40:38.017Z</time>
      </trkpt>
      <trkpt lat="43.13993" lon="5.92337">
        <ele>145</ele>
        <time>2016-07-30T07:40:39.017Z</time>
      </trkpt>
      <trkpt lat="43.13998" lon="5.92338">
        <ele>145</ele>
        <time>2016-07-30T07:40:40.017Z</time>
      </trkpt>
      <trkpt lat="43.14004" lon="5.9234">
        <ele>145</ele>
        <time>2016-07-30T07:40:41.017Z</time>
      </trkpt>
      <trkpt lat="43.1401" lon="5.92342">
        <ele>144</ele>
        <time>2016-07-30T07:40:42.017Z</time>
      </trkpt>
      <trkpt lat="43.14015" lon="5.92344">
        <ele>143</ele>
        <time>2016-07-30T07:40:43.017Z</time>
      </trkpt>
      <trkpt lat="43.14021" lon="5.92347">
        <ele>142</ele>
        <time>2016-07-30T07:40:44.017Z</time>
      </trkpt>
      <trkpt lat="43.14027" lon="5.9235">
        <ele>142</ele>
        <time>2016-07-30T07:40:45.017Z</time>
      </trkpt>
      <trkpt lat="43.14033" lon="5.92353">
        <ele>142</ele>
        <time>2016-07-30T07:40:46.017Z</time>
      </trkpt>
      <trkpt lat="43.14039" lon="5.92357">
        <ele>141</ele>
        <time>2016-07-30T07:40:47.017Z</time>
      </trkpt>
      <trkpt lat="43.14046" lon="5.92361">
        <ele>140</ele>
        <time>2016-07-30T07:40:48.017Z</time>
      </trkpt>
      <trkpt lat="43.14053" lon="5.92365">
        <ele>139</ele>
        <time>2016-07-30T07:40:49.017Z</time>
      </trkpt>
      <trkpt lat="43.14061" lon="5.92368">
        <ele>140</ele>
        <time>2016-07-30T07:40:50.017Z</time>
      </trkpt>
      <trkpt lat="43.14069" lon="5.9237">
        <ele>141</ele>
        <time>2016-07-30T07:40:51.017Z</time>
      </trkpt>
      <trkpt lat="43.14077" lon="5.9237">
        <ele>142</ele>
        <time>2016-07-30T07:40:52.017Z</time>
      </trkpt>
      <trkpt lat="43.14085" lon="5.92367">
        <ele>140</ele>
        <time>2016-07-30T07:40:53.017Z</time>
      </trkpt>
      <trkpt lat="43.14093" lon="5.92362">
        <ele>139</ele>
        <time>2016-07-30T07:40:54.017Z</time>
      </trkpt>
      <trkpt lat="43.14102" lon="5.92359">
        <ele>139</ele>
        <time>2016-07-30T07:40:55.017Z</time>
      </trkpt>
      <trkpt lat="43.14111" lon="5.92356">
        <ele>136</ele>
        <time>2016-07-30T07:40:56.017Z</time>
      </trkpt>
      <trkpt lat="43.1412" lon="5.92352">
        <ele>133</ele>
        <time>2016-07-30T07:40:57.017Z</time>
      </trkpt>
      <trkpt lat="43.14129" lon="5.92349">
        <ele>130</ele>
        <time>2016-07-30T07:40:58.017Z</time>
      </trkpt>
      <trkpt lat="43.14136" lon="5.92346">
        <ele>126</ele>
        <time>2016-07-30T07:40:59.017Z</time>
      </trkpt>
      <trkpt lat="43.14143" lon="5.92343">
        <ele>122</ele>
        <time>2016-07-30T07:41:00.017Z</time>
      </trkpt>
      <trkpt lat="43.14149" lon="5.92337">
        <ele>117</ele>
        <time>2016-07-30T07:41:01.017Z</time>
      </trkpt>
      <trkpt lat="43.14154" lon="5.92328">
        <ele>112</ele>
        <time>2016-07-30T07:41:02.017Z</time>
      </trkpt>
      <trkpt lat="43.1416" lon="5.92316">
        <ele>111</ele>
        <time>2016-07-30T07:41:03.017Z</time>
      </trkpt>
      <trkpt lat="43.14166" lon="5.92304">
        <ele>109</ele>
        <time>2016-07-30T07:41:04.017Z</time>
      </trkpt>
      <trkpt lat="43.14173" lon="5.92293">
        <ele>106</ele>
        <time>2016-07-30T07:41:05.017Z</time>
      </trkpt>
      <trkpt lat="43.14181" lon="5.92281">
        <ele>104</ele>
        <time>2016-07-30T07:41:06.017Z</time>
      </trkpt>
      <trkpt lat="43.14189" lon="5.92268">
        <ele>103</ele>
        <time>2016-07-30T07:41:07.017Z</time>
      </trkpt>
      <trkpt lat="43.14199" lon="5.92256">
        <ele>103</ele>
        <time>2016-07-30T07:41:08.017Z</time>
      </trkpt>
      <trkpt lat="43.1421" lon="5.92246">
        <ele>102</ele>
        <time>2016-07-30T07:41:09.017Z</time>
      </trkpt>
      <trkpt lat="43.14221" lon="5.9224">
        <ele>101</ele>
        <time>2016-07-30T07:41:10.017Z</time>
      </trkpt>
      <trkpt lat="43.14231" lon="5.92236">
        <ele>100</ele>
        <time>2016-07-30T07:41:11.017Z</time>
      </trkpt>
      <trkpt lat="43.14241" lon="5.92232">
        <ele>101</ele>
        <time>2016-07-30T07:41:12.017Z</time>
      </trkpt>
      <trkpt lat="43.14249" lon="5.92225">
        <ele>101</ele>
        <time>2016-07-30T07:41:13.017Z</time>
      </trkpt>
      <trkpt lat="43.14256" lon="5.92217">
        <ele>101</ele>
        <time>2016-07-30T07:41:14.017Z</time>
      </trkpt>
      <trkpt lat="43.14263" lon="5.92209">
        <ele>100</ele>
        <time>2016-07-30T07:41:15.017Z</time>
      </trkpt>
      <trkpt lat="43.14269" lon="5.922">
        <ele>100</ele>
        <time>2016-07-30T07:41:16.017Z</time>
      </trkpt>
      <trkpt lat="43.14275" lon="5.92193">
        <ele>99</ele>
        <time>2016-07-30T07:41:17.017Z</time>
      </trkpt>
      <trkpt lat="43.14281" lon="5.92184">
        <ele>98</ele>
        <time>2016-07-30T07:41:18.017Z</time>
      </trkpt>
      <trkpt lat="43.14286" lon="5.92176">
        <ele>97</ele>
        <time>2016-07-30T07:41:19.017Z</time>
      </trkpt>
      <trkpt lat="43.14289" lon="5.92167">
        <ele>95</ele>
        <time>2016-07-30T07:41:20.017Z</time>
      </trkpt>
      <trkpt lat="43.14291" lon="5.92158">
        <ele>94</ele>
        <time>2016-07-30T07:41:21.017Z</time>
      </trkpt>
      <trkpt lat="43.14286" lon="5.92149">
        <ele>97</ele>
        <time>2016-07-30T07:41:22.017Z</time>
      </trkpt>
      <trkpt lat="43.14277" lon="5.92139">
        <ele>99</ele>
        <time>2016-07-30T07:41:23.017Z</time>
      </trkpt>
      <trkpt lat="43.14265" lon="5.92128">
        <ele>104</ele>
        <time>2016-07-30T07:41:24.017Z</time>
      </trkpt>
      <trkpt lat="43.14258" lon="5.92119">
        <ele>107</ele>
        <time>2016-07-30T07:41:25.017Z</time>
      </trkpt>
      <trkpt lat="43.14251" lon="5.92111">
        <ele>108</ele>
        <time>2016-07-30T07:41:26.017Z</time>
      </trkpt>
      <trkpt lat="43.14245" lon="5.92105">
        <ele>110</ele>
        <time>2016-07-30T07:41:27.017Z</time>
      </trkpt>
      <trkpt lat="43.1424" lon="5.921">
        <ele>110</ele>
        <time>2016-07-30T07:41:28.017Z</time>
      </trkpt>
      <trkpt lat="43.14235" lon="5.92096">
        <ele>111</ele>
        <time>2016-07-30T07:41:29.017Z</time>
      </trkpt>
      <trkpt lat="43.1423" lon="5.92093">
        <ele>113</ele>
        <time>2016-07-30T07:41:30.017Z</time>
      </trkpt>
      <trkpt lat="43.14225" lon="5.92091">
        <ele>116</ele>
        <time>2016-07-30T07:41:31.017Z</time>
      </trkpt>
      <trkpt lat="43.14219" lon="5.92088">
        <ele>119</ele>
        <time>2016-07-30T07:41:32.017Z</time>
      </trkpt>
      <trkpt lat="43.14214" lon="5.92086">
        <ele>121</ele>
        <time>2016-07-30T07:41:33.017Z</time>
      </trkpt>
      <trkpt lat="43.14209" lon="5.92083">
        <ele>121</ele>
        <time>2016-07-30T07:41:34.017Z</time>
      </trkpt>
      <trkpt lat="43.14204" lon="5.9208">
        <ele>124</ele>
        <time>2016-07-30T07:41:35.017Z</time>
      </trkpt>
      <trkpt lat="43.14199" lon="5.92078">
        <ele>126</ele>
        <time>2016-07-30T07:41:36.017Z</time>
      </trkpt>
      <trkpt lat="43.14195" lon="5.92074">
        <ele>125</ele>
        <time>2016-07-30T07:41:37.017Z</time>
      </trkpt>
      <trkpt lat="43.1419" lon="5.92071">
        <ele>126</ele>
        <time>2016-07-30T07:41:38.017Z</time>
      </trkpt>
      <trkpt lat="43.14186" lon="5.92067">
        <ele>126</ele>
        <time>2016-07-30T07:41:39.017Z</time>
      </trkpt>
      <trkpt lat="43.14182" lon="5.92063">
        <ele>126</ele>
        <time>2016-07-30T07:41:40.017Z</time>
      </trkpt>
      <trkpt lat="43.14179" lon="5.92059">
        <ele>126</ele>
        <time>2016-07-30T07:41:41.017Z</time>
      </trkpt>
      <trkpt lat="43.14176" lon="5.92055">
        <ele>125</ele>
        <time>2016-07-30T07:41:42.017Z</time>
      </trkpt>
      <trkpt lat="43.14173" lon="5.92051">
        <ele>125</ele>
        <time>2016-07-30T07:41:43.017Z</time>
      </trkpt>
      <trkpt lat="43.14171" lon="5.92046">
        <ele>125</ele>
        <time>2016-07-30T07:41:44.017Z</time>
      </trkpt>
      <trkpt lat="43.1417" lon="5.92042">
        <ele>125</ele>
        <time>2016-07-30T07:41:45.017Z</time>
      </trkpt>
      <trkpt lat="43.14168" lon="5.92038">
        <ele>125</ele>
        <time>2016-07-30T07:41:46.017Z</time>
      </trkpt>
      <trkpt lat="43.14168" lon="5.92034">
        <ele>125</ele>
        <time>2016-07-30T07:41:47.017Z</time>
      </trkpt>
      <trkpt lat="43.14167" lon="5.9203">
        <ele>125</ele>
        <time>2016-07-30T07:41:48.017Z</time>
      </trkpt>
      <trkpt lat="43.14167" lon="5.92026">
        <ele>125</ele>
        <time>2016-07-30T07:41:49.017Z</time>
      </trkpt>
      <trkpt lat="43.14167" lon="5.92021">
        <ele>125</ele>
        <time>2016-07-30T07:41:50.017Z</time>
      </trkpt>
      <trkpt lat="43.14167" lon="5.92017">
        <ele>124</ele>
        <time>2016-07-30T07:41:51.017Z</time>
      </trkpt>
      <trkpt lat="43.14168" lon="5.92013">
        <ele>124</ele>
        <time>2016-07-30T07:41:52.017Z</time>
      </trkpt>
      <trkpt lat="43.14169" lon="5.92008">
        <ele>124</ele>
        <time>2016-07-30T07:41:53.017Z</time>
      </trkpt>
      <trkpt lat="43.14171" lon="5.92004">
        <ele>124</ele>
        <time>2016-07-30T07:41:54.017Z</time>
      </trkpt>
      <trkpt lat="43.14173" lon="5.92">
        <ele>124</ele>
        <time>2016-07-30T07:41:55.017Z</time>
      </trkpt>
      <trkpt lat="43.14175" lon="5.91996">
        <ele>124</ele>
        <time>2016-07-30T07:41:56.017Z</time>
      </trkpt>
      <trkpt lat="43.14178" lon="5.91992">
        <ele>124</ele>
        <time>2016-07-30T07:41:57.017Z</time>
      </trkpt>
      <trkpt lat="43.14181" lon="5.91988">
        <ele>124</ele>
        <time>2016-07-30T07:41:58.017Z</time>
      </trkpt>
      <trkpt lat="43.14184" lon="5.91985">
        <ele>124</ele>
        <time>2016-07-30T07:41:59.017Z</time>
      </trkpt>
      <trkpt lat="43.14187" lon="5.91982">
        <ele>124</ele>
        <time>2016-07-30T07:42:00.017Z</time>
      </trkpt>
      <trkpt lat="43.14191" lon="5.91979">
        <ele>124</ele>
        <time>2016-07-30T07:42:01.017Z</time>
      </trkpt>
      <trkpt lat="43.14194" lon="5.91976">
        <ele>124</ele>
        <time>2016-07-30T07:42:02.017Z</time>
      </trkpt>
      <trkpt lat="43.14198" lon="5.91974">
        <ele>124</ele>
        <time>2016-07-30T07:42:03.017Z</time>
      </trkpt>
      <trkpt lat="43.14202" lon="5.91972">
        <ele>124</ele>
        <time>2016-07-30T07:42:04.017Z</time>
      </trkpt>
      <trkpt lat="43.14206" lon="5.9197">
        <ele>124</ele>
        <time>2016-07-30T07:42:05.017Z</time>
      </trkpt>
      <trkpt lat="43.1421" lon="5.91968">
        <ele>124</ele>
        <time>2016-07-30T07:42:06.017Z</time>
      </trkpt>
      <trkpt lat="43.14213" lon="5.91967">
        <ele>124</ele>
        <time>2016-07-30T07:42:07.017Z</time>
      </trkpt>
      <trkpt lat="43.14217" lon="5.91967">
        <ele>125</ele>
        <time>2016-07-30T07:42:08.017Z</time>
      </trkpt>
      <trkpt lat="43.14221" lon="5.91967">
        <ele>125</ele>
        <time>2016-07-30T07:42:09.017Z</time>
      </trkpt>
      <trkpt lat="43.14225" lon="5.91967">
        <ele>125</ele>
        <time>2016-07-30T07:42:10.017Z</time>
      </trkpt>
      <trkpt lat="43.14229" lon="5.91968">
        <ele>126</ele>
        <time>2016-07-30T07:42:11.017Z</time>
      </trkpt>
      <trkpt lat="43.14234" lon="5.9197">
        <ele>126</ele>
        <time>2016-07-30T07:42:12.017Z</time>
      </trkpt>
      <trkpt lat="43.14238" lon="5.91972">
        <ele>126</ele>
        <time>2016-07-30T07:42:13.017Z</time>
      </trkpt>
      <trkpt lat="43.14242" lon="5.91974">
        <ele>126</ele>
        <time>2016-07-30T07:42:14.017Z</time>
      </trkpt>
      <trkpt lat="43.14246" lon="5.91976">
        <ele>126</ele>
        <time>2016-07-30T07:42:15.017Z</time>
      </trkpt>
      <trkpt lat="43.14249" lon="5.91978">
        <ele>126</ele>
        <time>2016-07-30T07:42:16.017Z</time>
      </trkpt>
      <trkpt lat="43.14253" lon="5.91981">
        <ele>127</ele>
        <time>2016-07-30T07:42:17.017Z</time>
      </trkpt>
      <trkpt lat="43.14257" lon="5.91984">
        <ele>127</ele>
        <time>2016-07-30T07:42:18.017Z</time>
      </trkpt>
      <trkpt lat="43.14261" lon="5.91987">
        <ele>127</ele>
        <time>2016-07-30T07:42:19.017Z</time>
      </trkpt>
      <trkpt lat="43.14265" lon="5.91991">
        <ele>127</ele>
        <time>2016-07-30T07:42:20.017Z</time>
      </trkpt>
      <trkpt lat="43.14268" lon="5.91994">
        <ele>128</ele>
        <time>2016-07-30T07:42:21.017Z</time>
      </trkpt>
      <trkpt lat="43.14272" lon="5.91998">
        <ele>128</ele>
        <time>2016-07-30T07:42:22.017Z</time>
      </trkpt>
      <trkpt lat="43.14276" lon="5.92001">
        <ele>128</ele>
        <time>2016-07-30T07:42:23.017Z</time>
      </trkpt>
      <trkpt lat="43.14279" lon="5.92005">
        <ele>128</ele>
        <time>2016-07-30T07:42:24.017Z</time>
      </trkpt>
      <trkpt lat="43.14283" lon="5.92009">
        <ele>128</ele>
        <time>2016-07-30T07:42:25.017Z</time>
      </trkpt>
      <trkpt lat="43.14286" lon="5.92014">
        <ele>129</ele>
        <time>2016-07-30T07:42:26.017Z</time>
      </trkpt>
      <trkpt lat="43.14289" lon="5.92018">
        <ele>129</ele>
        <time>2016-07-30T07:42:27.017Z</time>
      </trkpt>
      <trkpt lat="43.14292" lon="5.92023">
        <ele>129</ele>
        <time>2016-07-30T07:42:28.017Z</time>
      </trkpt>
      <trkpt lat="43.14295" lon="5.92027">
        <ele>129</ele>
        <time>2016-07-30T07:42:29.017Z</time>
      </trkpt>
      <trkpt lat="43.14298" lon="5.92031">
        <ele>129</ele>
        <time>2016-07-30T07:42:30.017Z</time>
      </trkpt>
      <trkpt lat="43.14302" lon="5.92034">
        <ele>129</ele>
        <time>2016-07-30T07:42:31.017Z</time>
      </trkpt>
      <trkpt lat="43.14306" lon="5.92036">
        <ele>130</ele>
        <time>2016-07-30T07:42:32.017Z</time>
      </trkpt>
      <trkpt lat="43.1431" lon="5.92037">
        <ele>130</ele>
        <time>2016-07-30T07:42:33.017Z</time>
      </trkpt>
      <trkpt lat="43.14314" lon="5.92037">
        <ele>130</ele>
        <time>2016-07-30T07:42:34.017Z</time>
      </trkpt>
      <trkpt lat="43.14318" lon="5.92038">
        <ele>129</ele>
        <time>2016-07-30T07:42:35.017Z</time>
      </trkpt>
      <trkpt lat="43.14322" lon="5.92039">
        <ele>130</ele>
        <time>2016-07-30T07:42:36.017Z</time>
      </trkpt>
      <trkpt lat="43.14326" lon="5.92041">
        <ele>130</ele>
        <time>2016-07-30T07:42:37.017Z</time>
      </trkpt>
      <trkpt lat="43.14329" lon="5.92043">
        <ele>130</ele>
        <time>2016-07-30T07:42:38.017Z</time>
      </trkpt>
      <trkpt lat="43.14333" lon="5.92044">
        <ele>130</ele>
        <time>2016-07-30T07:42:39.017Z</time>
      </trkpt>
      <trkpt lat="43.14336" lon="5.92045">
        <ele>130</ele>
        <time>2016-07-30T07:42:40.017Z</time>
      </trkpt>
      <trkpt lat="43.14339" lon="5.92046">
        <ele>129</ele>
        <time>2016-07-30T07:42:41.017Z</time>
      </trkpt>
      <trkpt lat="43.14342" lon="5.92047">
        <ele>130</ele>
        <time>2016-07-30T07:42:42.017Z</time>
      </trkpt>
      <trkpt lat="43.14346" lon="5.92047">
        <ele>130</ele>
        <time>2016-07-30T07:42:43.017Z</time>
      </trkpt>
      <trkpt lat="43.14349" lon="5.92047">
        <ele>130</ele>
        <time>2016-07-30T07:42:44.017Z</time>
      </trkpt>
      <trkpt lat="43.14352" lon="5.92047">
        <ele>130</ele>
        <time>2016-07-30T07:42:45.017Z</time>
      </trkpt>
      <trkpt lat="43.14355" lon="5.92046">
        <ele>130</ele>
        <time>2016-07-30T07:42:46.017Z</time>
      </trkpt>
      <trkpt lat="43.14358" lon="5.92045">
        <ele>130</ele>
        <time>2016-07-30T07:42:47.017Z</time>
      </trkpt>
      <trkpt lat="43.1436" lon="5.92044">
        <ele>130</ele>
        <time>2016-07-30T07:42:48.017Z</time>
      </trkpt>
      <trkpt lat="43.14362" lon="5.92042">
        <ele>130</ele>
        <time>2016-07-30T07:42:49.017Z</time>
      </trkpt>
      <trkpt lat="43.14365" lon="5.92041">
        <ele>130</ele>
        <time>2016-07-30T07:42:50.017Z</time>
      </trkpt>
      <trkpt lat="43.14367" lon="5.92039">
        <ele>131</ele>
        <time>2016-07-30T07:42:51.017Z</time>
      </trkpt>
      <trkpt lat="43.1437" lon="5.92036">
        <ele>132</ele>
        <time>2016-07-30T07:42:52.017Z</time>
      </trkpt>
      <trkpt lat="43.14372" lon="5.92034">
        <ele>132</ele>
        <time>2016-07-30T07:42:53.017Z</time>
      </trkpt>
      <trkpt lat="43.14375" lon="5.92032">
        <ele>132</ele>
        <time>2016-07-30T07:42:54.017Z</time>
      </trkpt>
      <trkpt lat="43.14378" lon="5.9203">
        <ele>132</ele>
        <time>2016-07-30T07:42:55.017Z</time>
      </trkpt>
      <trkpt lat="43.1438" lon="5.92028">
        <ele>132</ele>
        <time>2016-07-30T07:42:56.017Z</time>
      </trkpt>
      <trkpt lat="43.14383" lon="5.92027">
        <ele>132</ele>
        <time>2016-07-30T07:42:57.017Z</time>
      </trkpt>
      <trkpt lat="43.14386" lon="5.92025">
        <ele>133</ele>
        <time>2016-07-30T07:42:58.017Z</time>
      </trkpt>
      <trkpt lat="43.14389" lon="5.92023">
        <ele>133</ele>
        <time>2016-07-30T07:42:59.017Z</time>
      </trkpt>
      <trkpt lat="43.14391" lon="5.92022">
        <ele>133</ele>
        <time>2016-07-30T07:43:00.017Z</time>
      </trkpt>
      <trkpt lat="43.14394" lon="5.9202">
        <ele>133</ele>
        <time>2016-07-30T07:43:01.017Z</time>
      </trkpt>
      <trkpt lat="43.14397" lon="5.92019">
        <ele>133</ele>
        <time>2016-07-30T07:43:02.017Z</time>
      </trkpt>
      <trkpt lat="43.144" lon="5.92017">
        <ele>133</ele>
        <time>2016-07-30T07:43:03.017Z</time>
      </trkpt>
      <trkpt lat="43.14402" lon="5.92015">
        <ele>132</ele>
        <time>2016-07-30T07:43:04.017Z</time>
      </trkpt>
      <trkpt lat="43.14404" lon="5.92012">
        <ele>133</ele>
        <time>2016-07-30T07:43:05.017Z</time>
      </trkpt>
      <trkpt lat="43.14406" lon="5.92009">
        <ele>133</ele>
        <time>2016-07-30T07:43:06.017Z</time>
      </trkpt>
      <trkpt lat="43.14407" lon="5.92005">
        <ele>133</ele>
        <time>2016-07-30T07:43:07.017Z</time>
      </trkpt>
      <trkpt lat="43.14408" lon="5.92001">
        <ele>133</ele>
        <time>2016-07-30T07:43:08.017Z</time>
      </trkpt>
      <trkpt lat="43.1441" lon="5.91998">
        <ele>132</ele>
        <time>2016-07-30T07:43:09.017Z</time>
      </trkpt>
      <trkpt lat="43.14411" lon="5.91994">
        <ele>132</ele>
        <time>2016-07-30T07:43:10.017Z</time>
      </trkpt>
      <trkpt lat="43.14412" lon="5.91991">
        <ele>132</ele>
        <time>2016-07-30T07:43:11.017Z</time>
      </trkpt>
      <trkpt lat="43.14413" lon="5.91987">
        <ele>132</ele>
        <time>2016-07-30T07:43:12.017Z</time>
      </trkpt>
      <trkpt lat="43.14413" lon="5.91983">
        <ele>135</ele>
        <time>2016-07-30T07:43:13.017Z</time>
      </trkpt>
      <trkpt lat="43.14414" lon="5.91979">
        <ele>134</ele>
        <time>2016-07-30T07:43:14.017Z</time>
      </trkpt>
      <trkpt lat="43.14414" lon="5.91975">
        <ele>135</ele>
        <time>2016-07-30T07:43:15.017Z</time>
      </trkpt>
      <trkpt lat="43.14413" lon="5.9197">
        <ele>136</ele>
        <time>2016-07-30T07:43:16.017Z</time>
      </trkpt>
      <trkpt lat="43.14413" lon="5.91966">
        <ele>136</ele>
        <time>2016-07-30T07:43:17.017Z</time>
      </trkpt>
      <trkpt lat="43.14412" lon="5.91962">
        <ele>137</ele>
        <time>2016-07-30T07:43:18.017Z</time>
      </trkpt>
      <trkpt lat="43.14412" lon="5.91958">
        <ele>137</ele>
        <time>2016-07-30T07:43:19.017Z</time>
      </trkpt>
      <trkpt lat="43.14412" lon="5.91954">
        <ele>137</ele>
        <time>2016-07-30T07:43:20.017Z</time>
      </trkpt>
      <trkpt lat="43.14411" lon="5.9195">
        <ele>137</ele>
        <time>2016-07-30T07:43:21.017Z</time>
      </trkpt>
      <trkpt lat="43.14411" lon="5.91946">
        <ele>137</ele>
        <time>2016-07-30T07:43:22.017Z</time>
      </trkpt>
      <trkpt lat="43.14411" lon="5.91943">
        <ele>138</ele>
        <time>2016-07-30T07:43:23.017Z</time>
      </trkpt>
      <trkpt lat="43.1441" lon="5.91939">
        <ele>138</ele>
        <time>2016-07-30T07:43:24.017Z</time>
      </trkpt>
      <trkpt lat="43.1441" lon="5.91935">
        <ele>138</ele>
        <time>2016-07-30T07:43:25.017Z</time>
      </trkpt>
      <trkpt lat="43.1441" lon="5.91932">
        <ele>139</ele>
        <time>2016-07-30T07:43:26.017Z</time>
      </trkpt>
      <trkpt lat="43.14409" lon="5.91928">
        <ele>139</ele>
        <time>2016-07-30T07:43:27.017Z</time>
      </trkpt>
      <trkpt lat="43.14409" lon="5.91925">
        <ele>139</ele>
        <time>2016-07-30T07:43:28.017Z</time>
      </trkpt>
      <trkpt lat="43.14409" lon="5.91922">
        <ele>140</ele>
        <time>2016-07-30T07:43:29.017Z</time>
      </trkpt>
      <trkpt lat="43.14409" lon="5.91918">
        <ele>140</ele>
        <time>2016-07-30T07:43:30.017Z</time>
      </trkpt>
      <trkpt lat="43.14408" lon="5.91914">
        <ele>140</ele>
        <time>2016-07-30T07:43:31.017Z</time>
      </trkpt>
      <trkpt lat="43.14408" lon="5.9191">
        <ele>140</ele>
        <time>2016-07-30T07:43:32.017Z</time>
      </trkpt>
      <trkpt lat="43.14408" lon="5.91905">
        <ele>141</ele>
        <time>2016-07-30T07:43:33.017Z</time>
      </trkpt>
      <trkpt lat="43.14408" lon="5.919">
        <ele>141</ele>
        <time>2016-07-30T07:43:34.017Z</time>
      </trkpt>
      <trkpt lat="43.14408" lon="5.91895">
        <ele>142</ele>
        <time>2016-07-30T07:43:35.017Z</time>
      </trkpt>
      <trkpt lat="43.14408" lon="5.9189">
        <ele>142</ele>
        <time>2016-07-30T07:43:36.017Z</time>
      </trkpt>
      <trkpt lat="43.14408" lon="5.91885">
        <ele>143</ele>
        <time>2016-07-30T07:43:37.017Z</time>
      </trkpt>
      <trkpt lat="43.14409" lon="5.91881">
        <ele>143</ele>
        <time>2016-07-30T07:43:38.017Z</time>
      </trkpt>
      <trkpt lat="43.14409" lon="5.91876">
        <ele>144</ele>
        <time>2016-07-30T07:43:39.017Z</time>
      </trkpt>
      <trkpt lat="43.14409" lon="5.91872">
        <ele>144</ele>
        <time>2016-07-30T07:43:40.017Z</time>
      </trkpt>
      <trkpt lat="43.14408" lon="5.91868">
        <ele>144</ele>
        <time>2016-07-30T07:43:41.017Z</time>
      </trkpt>
      <trkpt lat="43.14408" lon="5.91865">
        <ele>145</ele>
        <time>2016-07-30T07:43:42.017Z</time>
      </trkpt>
      <trkpt lat="43.14408" lon="5.91861">
        <ele>145</ele>
        <time>2016-07-30T07:43:43.017Z</time>
      </trkpt>
      <trkpt lat="43.14408" lon="5.91858">
        <ele>145</ele>
        <time>2016-07-30T07:43:44.017Z</time>
      </trkpt>
      <trkpt lat="43.14408" lon="5.91855">
        <ele>146</ele>
        <time>2016-07-30T07:43:45.017Z</time>
      </trkpt>
      <trkpt lat="43.14408" lon="5.91852">
        <ele>146</ele>
        <time>2016-07-30T07:43:46.017Z</time>
      </trkpt>
      <trkpt lat="43.14409" lon="5.91849">
        <ele>146</ele>
        <time>2016-07-30T07:43:47.017Z</time>
      </trkpt>
      <trkpt lat="43.14409" lon="5.91846">
        <ele>146</ele>
        <time>2016-07-30T07:43:48.017Z</time>
      </trkpt>
      <trkpt lat="43.14409" lon="5.91843">
        <ele>147</ele>
        <time>2016-07-30T07:43:49.017Z</time>
      </trkpt>
      <trkpt lat="43.14409" lon="5.9184">
        <ele>147</ele>
        <time>2016-07-30T07:43:50.017Z</time>
      </trkpt>
      <trkpt lat="43.14409" lon="5.91837">
        <ele>147</ele>
        <time>2016-07-30T07:43:51.017Z</time>
      </trkpt>
      <trkpt lat="43.14409" lon="5.91834">
        <ele>148</ele>
        <time>2016-07-30T07:43:52.017Z</time>
      </trkpt>
      <trkpt lat="43.14409" lon="5.91831">
        <ele>148</ele>
        <time>2016-07-30T07:43:53.017Z</time>
      </trkpt>
      <trkpt lat="43.14409" lon="5.91828">
        <ele>148</ele>
        <time>2016-07-30T07:43:54.017Z</time>
      </trkpt>
      <trkpt lat="43.14409" lon="5.91825">
        <ele>148</ele>
        <time>2016-07-30T07:43:55.017Z</time>
      </trkpt>
      <trkpt lat="43.14409" lon="5.91822">
        <ele>148</ele>
        <time>2016-07-30T07:43:56.017Z</time>
      </trkpt>
      <trkpt lat="43.14409" lon="5.91819">
        <ele>149</ele>
        <time>2016-07-30T07:43:57.017Z</time>
      </trkpt>
      <trkpt lat="43.14409" lon="5.91817">
        <ele>149</ele>
        <time>2016-07-30T07:43:58.017Z</time>
      </trkpt>
      <trkpt lat="43.14409" lon="5.91814">
        <ele>149</ele>
        <time>2016-07-30T07:43:59.017Z</time>
      </trkpt>
      <trkpt lat="43.1441" lon="5.91811">
        <ele>149</ele>
        <time>2016-07-30T07:44:00.017Z</time>
      </trkpt>
      <trkpt lat="43.1441" lon="5.91808">
        <ele>149</ele>
        <time>2016-07-30T07:44:01.017Z</time>
      </trkpt>
      <trkpt lat="43.1441" lon="5.91805">
        <ele>149</ele>
        <time>2016-07-30T07:44:02.017Z</time>
      </trkpt>
      <trkpt lat="43.1441" lon="5.91802">
        <ele>149</ele>
        <time>2016-07-30T07:44:03.017Z</time>
      </trkpt>
      <trkpt lat="43.1441" lon="5.918">
        <ele>149</ele>
        <time>2016-07-30T07:44:04.017Z</time>
      </trkpt>
      <trkpt lat="43.1441" lon="5.91797">
        <ele>149</ele>
        <time>2016-07-30T07:44:05.017Z</time>
      </trkpt>
      <trkpt lat="43.1441" lon="5.91794">
        <ele>150</ele>
        <time>2016-07-30T07:44:06.017Z</time>
      </trkpt>
      <trkpt lat="43.1441" lon="5.91792">
        <ele>150</ele>
        <time>2016-07-30T07:44:07.017Z</time>
      </trkpt>
      <trkpt lat="43.14411" lon="5.91789">
        <ele>150</ele>
        <time>2016-07-30T07:44:08.017Z</time>
      </trkpt>
      <trkpt lat="43.14411" lon="5.91786">
        <ele>150</ele>
        <time>2016-07-30T07:44:09.017Z</time>
      </trkpt>
      <trkpt lat="43.14411" lon="5.91783">
        <ele>151</ele>
        <time>2016-07-30T07:44:10.017Z</time>
      </trkpt>
      <trkpt lat="43.14412" lon="5.91781">
        <ele>152</ele>
        <time>2016-07-30T07:44:11.017Z</time>
      </trkpt>
      <trkpt lat="43.14413" lon="5.91778">
        <ele>152</ele>
        <time>2016-07-30T07:44:12.017Z</time>
      </trkpt>
      <trkpt lat="43.14414" lon="5.91776">
        <ele>152</ele>
        <time>2016-07-30T07:44:13.017Z</time>
      </trkpt>
      <trkpt lat="43.14415" lon="5.91773">
        <ele>152</ele>
        <time>2016-07-30T07:44:14.017Z</time>
      </trkpt>
      <trkpt lat="43.14416" lon="5.91771">
        <ele>152</ele>
        <time>2016-07-30T07:44:15.017Z</time>
      </trkpt>
      <trkpt lat="43.14417" lon="5.91769">
        <ele>152</ele>
        <time>2016-07-30T07:44:16.017Z</time>
      </trkpt>
      <trkpt lat="43.14418" lon="5.91767">
        <ele>153</ele>
        <time>2016-07-30T07:44:17.017Z</time>
      </trkpt>
      <trkpt lat="43.14419" lon="5.91765">
        <ele>153</ele>
        <time>2016-07-30T07:44:18.017Z</time>
      </trkpt>
      <trkpt lat="43.1442" lon="5.91763">
        <ele>153</ele>
        <time>2016-07-30T07:44:19.017Z</time>
      </trkpt>
      <trkpt lat="43.14422" lon="5.91761">
        <ele>154</ele>
        <time>2016-07-30T07:44:20.017Z</time>
      </trkpt>
      <trkpt lat="43.14423" lon="5.91759">
        <ele>154</ele>
        <time>2016-07-30T07:44:21.017Z</time>
      </trkpt>
      <trkpt lat="43.14425" lon="5.91758">
        <ele>154</ele>
        <time>2016-07-30T07:44:22.017Z</time>
      </trkpt>
      <trkpt lat="43.14427" lon="5.91757">
        <ele>154</ele>
        <time>2016-07-30T07:44:23.017Z</time>
      </trkpt>
      <trkpt lat="43.14428" lon="5.91756">
        <ele>154</ele>
        <time>2016-07-30T07:44:24.017Z</time>
      </trkpt>
      <trkpt lat="43.1443" lon="5.91755">
        <ele>153</ele>
        <time>2016-07-30T07:44:25.017Z</time>
      </trkpt>
      <trkpt lat="43.14432" lon="5.91753">
        <ele>154</ele>
        <time>2016-07-30T07:44:26.017Z</time>
      </trkpt>
      <trkpt lat="43.14433" lon="5.91753">
        <ele>154</ele>
        <time>2016-07-30T07:44:27.017Z</time>
      </trkpt>
      <trkpt lat="43.14435" lon="5.91752">
        <ele>155</ele>
        <time>2016-07-30T07:44:28.017Z</time>
      </trkpt>
      <trkpt lat="43.14437" lon="5.91752">
        <ele>155</ele>
        <time>2016-07-30T07:44:29.017Z</time>
      </trkpt>
      <trkpt lat="43.14439" lon="5.91751">
        <ele>155</ele>
        <time>2016-07-30T07:44:30.017Z</time>
      </trkpt>
      <trkpt lat="43.14441" lon="5.91751">
        <ele>155</ele>
        <time>2016-07-30T07:44:31.017Z</time>
      </trkpt>
      <trkpt lat="43.14443" lon="5.9175">
        <ele>156</ele>
        <time>2016-07-30T07:44:32.017Z</time>
      </trkpt>
      <trkpt lat="43.14445" lon="5.91749">
        <ele>156</ele>
        <time>2016-07-30T07:44:33.017Z</time>
      </trkpt>
      <trkpt lat="43.14447" lon="5.91749">
        <ele>156</ele>
        <time>2016-07-30T07:44:34.017Z</time>
      </trkpt>
      <trkpt lat="43.14449" lon="5.91748">
        <ele>157</ele>
        <time>2016-07-30T07:44:35.017Z</time>
      </trkpt>
      <trkpt lat="43.14451" lon="5.91747">
        <ele>157</ele>
        <time>2016-07-30T07:44:36.017Z</time>
      </trkpt>
      <trkpt lat="43.14453" lon="5.91746">
        <ele>158</ele>
        <time>2016-07-30T07:44:37.017Z</time>
      </trkpt>
      <trkpt lat="43.14454" lon="5.91745">
        <ele>158</ele>
        <time>2016-07-30T07:44:38.017Z</time>
      </trkpt>
      <trkpt lat="43.14456" lon="5.91745">
        <ele>158</ele>
        <time>2016-07-30T07:44:39.017Z</time>
      </trkpt>
      <trkpt lat="43.14458" lon="5.91744">
        <ele>159</ele>
        <time>2016-07-30T07:44:40.017Z</time>
      </trkpt>
      <trkpt lat="43.14459" lon="5.91743">
        <ele>159</ele>
        <time>2016-07-30T07:44:41.017Z</time>
      </trkpt>
      <trkpt lat="43.14461" lon="5.91743">
        <ele>159</ele>
        <time>2016-07-30T07:44:42.017Z</time>
      </trkpt>
      <trkpt lat="43.14463" lon="5.91743">
        <ele>160</ele>
        <time>2016-07-30T07:44:43.017Z</time>
      </trkpt>
      <trkpt lat="43.14465" lon="5.91743">
        <ele>161</ele>
        <time>2016-07-30T07:44:44.017Z</time>
      </trkpt>
      <trkpt lat="43.14467" lon="5.91744">
        <ele>161</ele>
        <time>2016-07-30T07:44:45.017Z</time>
      </trkpt>
      <trkpt lat="43.14468" lon="5.91744">
        <ele>162</ele>
        <time>2016-07-30T07:44:46.017Z</time>
      </trkpt>
      <trkpt lat="43.1447" lon="5.91745">
        <ele>163</ele>
        <time>2016-07-30T07:44:47.017Z</time>
      </trkpt>
      <trkpt lat="43.14472" lon="5.91747">
        <ele>164</ele>
        <time>2016-07-30T07:44:48.017Z</time>
      </trkpt>
      <trkpt lat="43.14474" lon="5.91749">
        <ele>162</ele>
        <time>2016-07-30T07:44:49.017Z</time>
      </trkpt>
      <trkpt lat="43.14475" lon="5.91752">
        <ele>162</ele>
        <time>2016-07-30T07:44:50.017Z</time>
      </trkpt>
      <trkpt lat="43.14475" lon="5.91755">
        <ele>162</ele>
        <time>2016-07-30T07:44:51.017Z</time>
      </trkpt>
      <trkpt lat="43.14474" lon="5.91758">
        <ele>163</ele>
        <time>2016-07-30T07:44:52.017Z</time>
      </trkpt>
      <trkpt lat="43.14474" lon="5.91761">
        <ele>163</ele>
        <time>2016-07-30T07:44:53.017Z</time>
      </trkpt>
      <trkpt lat="43.14473" lon="5.91763">
        <ele>163</ele>
        <time>2016-07-30T07:44:54.017Z</time>
      </trkpt>
      <trkpt lat="43.14472" lon="5.91766">
        <ele>163</ele>
        <time>2016-07-30T07:44:55.017Z</time>
      </trkpt>
      <trkpt lat="43.14471" lon="5.91768">
        <ele>163</ele>
        <time>2016-07-30T07:44:56.017Z</time>
      </trkpt>
      <trkpt lat="43.1447" lon="5.91771">
        <ele>163</ele>
        <time>2016-07-30T07:44:57.017Z</time>
      </trkpt>
      <trkpt lat="43.14469" lon="5.91773">
        <ele>163</ele>
        <time>2016-07-30T07:44:58.017Z</time>
      </trkpt>
      <trkpt lat="43.14467" lon="5.91775">
        <ele>163</ele>
        <time>2016-07-30T07:44:59.017Z</time>
      </trkpt>
      <trkpt lat="43.14466" lon="5.91777">
        <ele>164</ele>
        <time>2016-07-30T07:45:00.017Z</time>
      </trkpt>
      <trkpt lat="43.14464" lon="5.91779">
        <ele>164</ele>
        <time>2016-07-30T07:45:01.017Z</time>
      </trkpt>
      <trkpt lat="43.14463" lon="5.9178">
        <ele>164</ele>
        <time>2016-07-30T07:45:02.017Z</time>
      </trkpt>
      <trkpt lat="43.14462" lon="5.91783">
        <ele>164</ele>
        <time>2016-07-30T07:45:03.017Z</time>
      </trkpt>
      <trkpt lat="43.14461" lon="5.91785">
        <ele>165</ele>
        <time>2016-07-30T07:45:04.017Z</time>
      </trkpt>
      <trkpt lat="43.14459" lon="5.91787">
        <ele>165</ele>
        <time>2016-07-30T07:45:05.017Z</time>
      </trkpt>
      <trkpt lat="43.14458" lon="5.91789">
        <ele>164</ele>
        <time>2016-07-30T07:45:06.017Z</time>
      </trkpt>
      <trkpt lat="43.14457" lon="5.91792">
        <ele>164</ele>
        <time>2016-07-30T07:45:07.017Z</time>
      </trkpt>
      <trkpt lat="43.14457" lon="5.91794">
        <ele>163</ele>
        <time>2016-07-30T07:45:08.017Z</time>
      </trkpt>
      <trkpt lat="43.14456" lon="5.91797">
        <ele>163</ele>
        <time>2016-07-30T07:45:09.017Z</time>
      </trkpt>
      <trkpt lat="43.14455" lon="5.918">
        <ele>163</ele>
        <time>2016-07-30T07:45:10.017Z</time>
      </trkpt>
      <trkpt lat="43.14455" lon="5.91802">
        <ele>163</ele>
        <time>2016-07-30T07:45:11.017Z</time>
      </trkpt>
      <trkpt lat="43.14454" lon="5.91805">
        <ele>163</ele>
        <time>2016-07-30T07:45:12.017Z</time>
      </trkpt>
      <trkpt lat="43.14454" lon="5.91807">
        <ele>163</ele>
        <time>2016-07-30T07:45:13.017Z</time>
      </trkpt>
      <trkpt lat="43.14454" lon="5.9181">
        <ele>163</ele>
        <time>2016-07-30T07:45:14.017Z</time>
      </trkpt>
      <trkpt lat="43.14454" lon="5.91813">
        <ele>164</ele>
        <time>2016-07-30T07:45:15.017Z</time>
      </trkpt>
      <trkpt lat="43.14454" lon="5.91816">
        <ele>165</ele>
        <time>2016-07-30T07:45:16.017Z</time>
      </trkpt>
      <trkpt lat="43.14454" lon="5.91819">
        <ele>165</ele>
        <time>2016-07-30T07:45:17.017Z</time>
      </trkpt>
      <trkpt lat="43.14454" lon="5.91821">
        <ele>165</ele>
        <time>2016-07-30T07:45:18.017Z</time>
      </trkpt>
      <trkpt lat="43.14455" lon="5.91824">
        <ele>165</ele>
        <time>2016-07-30T07:45:19.017Z</time>
      </trkpt>
      <trkpt lat="43.14455" lon="5.91827">
        <ele>165</ele>
        <time>2016-07-30T07:45:20.017Z</time>
      </trkpt>
      <trkpt lat="43.14456" lon="5.91829">
        <ele>165</ele>
        <time>2016-07-30T07:45:21.017Z</time>
      </trkpt>
      <trkpt lat="43.14456" lon="5.91832">
        <ele>165</ele>
        <time>2016-07-30T07:45:22.017Z</time>
      </trkpt>
      <trkpt lat="43.14456" lon="5.91835">
        <ele>166</ele>
        <time>2016-07-30T07:45:23.017Z</time>
      </trkpt>
      <trkpt lat="43.14457" lon="5.91837">
        <ele>166</ele>
        <time>2016-07-30T07:45:24.017Z</time>
      </trkpt>
      <trkpt lat="43.14457" lon="5.9184">
        <ele>166</ele>
        <time>2016-07-30T07:45:25.017Z</time>
      </trkpt>
      <trkpt lat="43.14457" lon="5.91843">
        <ele>167</ele>
        <time>2016-07-30T07:45:26.017Z</time>
      </trkpt>
      <trkpt lat="43.14457" lon="5.91845">
        <ele>167</ele>
        <time>2016-07-30T07:45:27.017Z</time>
      </trkpt>
      <trkpt lat="43.14458" lon="5.91848">
        <ele>167</ele>
        <time>2016-07-30T07:45:28.017Z</time>
      </trkpt>
      <trkpt lat="43.14458" lon="5.9185">
        <ele>168</ele>
        <time>2016-07-30T07:45:29.017Z</time>
      </trkpt>
      <trkpt lat="43.14458" lon="5.91853">
        <ele>169</ele>
        <time>2016-07-30T07:45:30.017Z</time>
      </trkpt>
      <trkpt lat="43.14459" lon="5.91855">
        <ele>169</ele>
        <time>2016-07-30T07:45:31.017Z</time>
      </trkpt>
      <trkpt lat="43.1446" lon="5.91858">
        <ele>170</ele>
        <time>2016-07-30T07:45:32.017Z</time>
      </trkpt>
      <trkpt lat="43.14461" lon="5.91861">
        <ele>170</ele>
        <time>2016-07-30T07:45:33.017Z</time>
      </trkpt>
      <trkpt lat="43.14461" lon="5.91864">
        <ele>172</ele>
        <time>2016-07-30T07:45:34.017Z</time>
      </trkpt>
      <trkpt lat="43.14462" lon="5.91867">
        <ele>172</ele>
        <time>2016-07-30T07:45:35.017Z</time>
      </trkpt>
      <trkpt lat="43.14463" lon="5.9187">
        <ele>172</ele>
        <time>2016-07-30T07:45:36.017Z</time>
      </trkpt>
      <trkpt lat="43.14463" lon="5.91873">
        <ele>173</ele>
        <time>2016-07-30T07:45:37.017Z</time>
      </trkpt>
      <trkpt lat="43.14464" lon="5.91876">
        <ele>174</ele>
        <time>2016-07-30T07:45:38.017Z</time>
      </trkpt>
      <trkpt lat="43.14465" lon="5.91879">
        <ele>174</ele>
        <time>2016-07-30T07:45:39.017Z</time>
      </trkpt>
      <trkpt lat="43.14465" lon="5.91882">
        <ele>175</ele>
        <time>2016-07-30T07:45:40.017Z</time>
      </trkpt>
      <trkpt lat="43.14466" lon="5.91885">
        <ele>175</ele>
        <time>2016-07-30T07:45:41.017Z</time>
      </trkpt>
      <trkpt lat="43.14466" lon="5.91887">
        <ele>175</ele>
        <time>2016-07-30T07:45:42.017Z</time>
      </trkpt>
      <trkpt lat="43.14467" lon="5.9189">
        <ele>175</ele>
        <time>2016-07-30T07:45:43.017Z</time>
      </trkpt>
      <trkpt lat="43.14467" lon="5.91893">
        <ele>175</ele>
        <time>2016-07-30T07:45:44.017Z</time>
      </trkpt>
      <trkpt lat="43.14468" lon="5.91896">
        <ele>176</ele>
        <time>2016-07-30T07:45:45.017Z</time>
      </trkpt>
      <trkpt lat="43.14469" lon="5.91898">
        <ele>175</ele>
        <time>2016-07-30T07:45:46.017Z</time>
      </trkpt>
      <trkpt lat="43.14469" lon="5.91901">
        <ele>175</ele>
        <time>2016-07-30T07:45:47.017Z</time>
      </trkpt>
      <trkpt lat="43.1447" lon="5.91903">
        <ele>174</ele>
        <time>2016-07-30T07:45:48.017Z</time>
      </trkpt>
      <trkpt lat="43.1447" lon="5.91906">
        <ele>174</ele>
        <time>2016-07-30T07:45:49.017Z</time>
      </trkpt>
      <trkpt lat="43.1447" lon="5.91908">
        <ele>175</ele>
        <time>2016-07-30T07:45:50.017Z</time>
      </trkpt>
      <trkpt lat="43.14471" lon="5.91911">
        <ele>176</ele>
        <time>2016-07-30T07:45:51.017Z</time>
      </trkpt>
      <trkpt lat="43.14471" lon="5.91914">
        <ele>176</ele>
        <time>2016-07-30T07:45:52.017Z</time>
      </trkpt>
      <trkpt lat="43.14471" lon="5.91917">
        <ele>176</ele>
        <time>2016-07-30T07:45:53.017Z</time>
      </trkpt>
      <trkpt lat="43.14472" lon="5.91919">
        <ele>177</ele>
        <time>2016-07-30T07:45:54.017Z</time>
      </trkpt>
      <trkpt lat="43.14473" lon="5.91922">
        <ele>177</ele>
        <time>2016-07-30T07:45:55.017Z</time>
      </trkpt>
      <trkpt lat="43.14474" lon="5.91925">
        <ele>178</ele>
        <time>2016-07-30T07:45:56.017Z</time>
      </trkpt>
      <trkpt lat="43.14474" lon="5.91927">
        <ele>178</ele>
        <time>2016-07-30T07:45:57.017Z</time>
      </trkpt>
      <trkpt lat="43.14475" lon="5.9193">
        <ele>178</ele>
        <time>2016-07-30T07:45:58.017Z</time>
      </trkpt>
      <trkpt lat="43.14475" lon="5.91932">
        <ele>179</ele>
        <time>2016-07-30T07:45:59.017Z</time>
      </trkpt>
      <trkpt lat="43.14476" lon="5.91935">
        <ele>180</ele>
        <time>2016-07-30T07:46:00.017Z</time>
      </trkpt>
      <trkpt lat="43.14477" lon="5.91937">
        <ele>180</ele>
        <time>2016-07-30T07:46:01.017Z</time>
      </trkpt>
      <trkpt lat="43.14478" lon="5.9194">
        <ele>180</ele>
        <time>2016-07-30T07:46:02.017Z</time>
      </trkpt>
      <trkpt lat="43.14479" lon="5.91942">
        <ele>180</ele>
        <time>2016-07-30T07:46:03.017Z</time>
      </trkpt>
      <trkpt lat="43.1448" lon="5.91945">
        <ele>180</ele>
        <time>2016-07-30T07:46:04.017Z</time>
      </trkpt>
      <trkpt lat="43.1448" lon="5.91948">
        <ele>180</ele>
        <time>2016-07-30T07:46:05.017Z</time>
      </trkpt>
      <trkpt lat="43.14481" lon="5.9195">
        <ele>180</ele>
        <time>2016-07-30T07:46:06.017Z</time>
      </trkpt>
      <trkpt lat="43.14482" lon="5.91953">
        <ele>181</ele>
        <time>2016-07-30T07:46:07.017Z</time>
      </trkpt>
      <trkpt lat="43.14483" lon="5.91956">
        <ele>180</ele>
        <time>2016-07-30T07:46:08.017Z</time>
      </trkpt>
      <trkpt lat="43.14483" lon="5.91959">
        <ele>180</ele>
        <time>2016-07-30T07:46:09.017Z</time>
      </trkpt>
      <trkpt lat="43.14484" lon="5.91962">
        <ele>180</ele>
        <time>2016-07-30T07:46:10.017Z</time>
      </trkpt>
      <trkpt lat="43.14484" lon="5.91964">
        <ele>180</ele>
        <time>2016-07-30T07:46:11.017Z</time>
      </trkpt>
      <trkpt lat="43.14485" lon="5.91967">
        <ele>181</ele>
        <time>2016-07-30T07:46:12.017Z</time>
      </trkpt>
      <trkpt lat="43.14485" lon="5.9197">
        <ele>181</ele>
        <time>2016-07-30T07:46:13.017Z</time>
      </trkpt>
      <trkpt lat="43.14485" lon="5.91972">
        <ele>181</ele>
        <time>2016-07-30T07:46:14.017Z</time>
      </trkpt>
      <trkpt lat="43.14485" lon="5.91975">
        <ele>181</ele>
        <time>2016-07-30T07:46:15.017Z</time>
      </trkpt>
      <trkpt lat="43.14485" lon="5.91978">
        <ele>181</ele>
        <time>2016-07-30T07:46:16.017Z</time>
      </trkpt>
      <trkpt lat="43.14485" lon="5.9198">
        <ele>181</ele>
        <time>2016-07-30T07:46:17.017Z</time>
      </trkpt>
      <trkpt lat="43.14485" lon="5.91983">
        <ele>181</ele>
        <time>2016-07-30T07:46:18.017Z</time>
      </trkpt>
      <trkpt lat="43.14485" lon="5.91986">
        <ele>181</ele>
        <time>2016-07-30T07:46:19.017Z</time>
      </trkpt>
      <trkpt lat="43.14485" lon="5.91988">
        <ele>182</ele>
        <time>2016-07-30T07:46:20.017Z</time>
      </trkpt>
      <trkpt lat="43.14485" lon="5.91991">
        <ele>182</ele>
        <time>2016-07-30T07:46:21.017Z</time>
      </trkpt>
      <trkpt lat="43.14486" lon="5.91993">
        <ele>182</ele>
        <time>2016-07-30T07:46:22.017Z</time>
      </trkpt>
      <trkpt lat="43.14486" lon="5.91996">
        <ele>183</ele>
        <time>2016-07-30T07:46:23.017Z</time>
      </trkpt>
      <trkpt lat="43.14486" lon="5.91998">
        <ele>183</ele>
        <time>2016-07-30T07:46:24.017Z</time>
      </trkpt>
      <trkpt lat="43.14486" lon="5.92">
        <ele>184</ele>
        <time>2016-07-30T07:46:25.017Z</time>
      </trkpt>
      <trkpt lat="43.14487" lon="5.92002">
        <ele>185</ele>
        <time>2016-07-30T07:46:26.017Z</time>
      </trkpt>
      <trkpt lat="43.14487" lon="5.92005">
        <ele>184</ele>
        <time>2016-07-30T07:46:27.017Z</time>
      </trkpt>
      <trkpt lat="43.14488" lon="5.92008">
        <ele>184</ele>
        <time>2016-07-30T07:46:28.017Z</time>
      </trkpt>
      <trkpt lat="43.14488" lon="5.92011">
        <ele>184</ele>
        <time>2016-07-30T07:46:29.017Z</time>
      </trkpt>
      <trkpt lat="43.14489" lon="5.92014">
        <ele>184</ele>
        <time>2016-07-30T07:46:30.017Z</time>
      </trkpt>
      <trkpt lat="43.1449" lon="5.92017">
        <ele>185</ele>
        <time>2016-07-30T07:46:31.017Z</time>
      </trkpt>
      <trkpt lat="43.1449" lon="5.9202">
        <ele>185</ele>
        <time>2016-07-30T07:46:32.017Z</time>
      </trkpt>
      <trkpt lat="43.1449" lon="5.92023">
        <ele>185</ele>
        <time>2016-07-30T07:46:33.017Z</time>
      </trkpt>
      <trkpt lat="43.1449" lon="5.92025">
        <ele>185</ele>
        <time>2016-07-30T07:46:34.017Z</time>
      </trkpt>
      <trkpt lat="43.14489" lon="5.92028">
        <ele>185</ele>
        <time>2016-07-30T07:46:35.017Z</time>
      </trkpt>
      <trkpt lat="43.14489" lon="5.92031">
        <ele>186</ele>
        <time>2016-07-30T07:46:36.017Z</time>
      </trkpt>
      <trkpt lat="43.14489" lon="5.92034">
        <ele>186</ele>
        <time>2016-07-30T07:46:37.017Z</time>
      </trkpt>
      <trkpt lat="43.14488" lon="5.92036">
        <ele>186</ele>
        <time>2016-07-30T07:46:38.017Z</time>
      </trkpt>
      <trkpt lat="43.14488" lon="5.92039">
        <ele>186</ele>
        <time>2016-07-30T07:46:39.017Z</time>
      </trkpt>
      <trkpt lat="43.14487" lon="5.92041">
        <ele>187</ele>
        <time>2016-07-30T07:46:40.017Z</time>
      </trkpt>
      <trkpt lat="43.14486" lon="5.92043">
        <ele>187</ele>
        <time>2016-07-30T07:46:41.017Z</time>
      </trkpt>
      <trkpt lat="43.14485" lon="5.92045">
        <ele>187</ele>
        <time>2016-07-30T07:46:42.017Z</time>
      </trkpt>
      <trkpt lat="43.14484" lon="5.92048">
        <ele>187</ele>
        <time>2016-07-30T07:46:43.017Z</time>
      </trkpt>
      <trkpt lat="43.14483" lon="5.9205">
        <ele>186</ele>
        <time>2016-07-30T07:46:44.017Z</time>
      </trkpt>
      <trkpt lat="43.14482" lon="5.92052">
        <ele>186</ele>
        <time>2016-07-30T07:46:45.017Z</time>
      </trkpt>
      <trkpt lat="43.14481" lon="5.92054">
        <ele>187</ele>
        <time>2016-07-30T07:46:46.017Z</time>
      </trkpt>
      <trkpt lat="43.1448" lon="5.92057">
        <ele>186</ele>
        <time>2016-07-30T07:46:47.017Z</time>
      </trkpt>
      <trkpt lat="43.14479" lon="5.92059">
        <ele>187</ele>
        <time>2016-07-30T07:46:48.017Z</time>
      </trkpt>
      <trkpt lat="43.14479" lon="5.92061">
        <ele>186</ele>
        <time>2016-07-30T07:46:49.017Z</time>
      </trkpt>
      <trkpt lat="43.14478" lon="5.92063">
        <ele>186</ele>
        <time>2016-07-30T07:46:50.017Z</time>
      </trkpt>
      <trkpt lat="43.14477" lon="5.92066">
        <ele>186</ele>
        <time>2016-07-30T07:46:51.017Z</time>
      </trkpt>
      <trkpt lat="43.14476" lon="5.92068">
        <ele>187</ele>
        <time>2016-07-30T07:46:52.017Z</time>
      </trkpt>
      <trkpt lat="43.14476" lon="5.9207">
        <ele>187</ele>
        <time>2016-07-30T07:46:53.017Z</time>
      </trkpt>
      <trkpt lat="43.14475" lon="5.92072">
        <ele>187</ele>
        <time>2016-07-30T07:46:54.017Z</time>
      </trkpt>
      <trkpt lat="43.14474" lon="5.92075">
        <ele>188</ele>
        <time>2016-07-30T07:46:55.017Z</time>
      </trkpt>
      <trkpt lat="43.14473" lon="5.92077">
        <ele>188</ele>
        <time>2016-07-30T07:46:56.017Z</time>
      </trkpt>
      <trkpt lat="43.14473" lon="5.92079">
        <ele>189</ele>
        <time>2016-07-30T07:46:57.017Z</time>
      </trkpt>
      <trkpt lat="43.14472" lon="5.92082">
        <ele>189</ele>
        <time>2016-07-30T07:46:58.017Z</time>
      </trkpt>
      <trkpt lat="43.14471" lon="5.92084">
        <ele>189</ele>
        <time>2016-07-30T07:46:59.017Z</time>
      </trkpt>
      <trkpt lat="43.14471" lon="5.92086">
        <ele>189</ele>
        <time>2016-07-30T07:47:00.017Z</time>
      </trkpt>
      <trkpt lat="43.1447" lon="5.92089">
        <ele>189</ele>
        <time>2016-07-30T07:47:01.017Z</time>
      </trkpt>
      <trkpt lat="43.14469" lon="5.92091">
        <ele>189</ele>
        <time>2016-07-30T07:47:02.017Z</time>
      </trkpt>
      <trkpt lat="43.14469" lon="5.92094">
        <ele>189</ele>
        <time>2016-07-30T07:47:03.017Z</time>
      </trkpt>
      <trkpt lat="43.14468" lon="5.92096">
        <ele>189</ele>
        <time>2016-07-30T07:47:04.017Z</time>
      </trkpt>
      <trkpt lat="43.14467" lon="5.92099">
        <ele>189</ele>
        <time>2016-07-30T07:47:05.017Z</time>
      </trkpt>
      <trkpt lat="43.14467" lon="5.92101">
        <ele>189</ele>
        <time>2016-07-30T07:47:06.017Z</time>
      </trkpt>
      <trkpt lat="43.14466" lon="5.92104">
        <ele>189</ele>
        <time>2016-07-30T07:47:07.017Z</time>
      </trkpt>
      <trkpt lat="43.14466" lon="5.92107">
        <ele>188</ele>
        <time>2016-07-30T07:47:08.017Z</time>
      </trkpt>
      <trkpt lat="43.14466" lon="5.9211">
        <ele>188</ele>
        <time>2016-07-30T07:47:09.017Z</time>
      </trkpt>
      <trkpt lat="43.14465" lon="5.92112">
        <ele>188</ele>
        <time>2016-07-30T07:47:10.017Z</time>
      </trkpt>
      <trkpt lat="43.14465" lon="5.92115">
        <ele>188</ele>
        <time>2016-07-30T07:47:11.017Z</time>
      </trkpt>
      <trkpt lat="43.14465" lon="5.92118">
        <ele>189</ele>
        <time>2016-07-30T07:47:12.017Z</time>
      </trkpt>
      <trkpt lat="43.14465" lon="5.92121">
        <ele>189</ele>
        <time>2016-07-30T07:47:13.017Z</time>
      </trkpt>
      <trkpt lat="43.14465" lon="5.92123">
        <ele>189</ele>
        <time>2016-07-30T07:47:14.017Z</time>
      </trkpt>
      <trkpt lat="43.14464" lon="5.92126">
        <ele>190</ele>
        <time>2016-07-30T07:47:15.017Z</time>
      </trkpt>
      <trkpt lat="43.14464" lon="5.92129">
        <ele>189</ele>
        <time>2016-07-30T07:47:16.017Z</time>
      </trkpt>
      <trkpt lat="43.14464" lon="5.92131">
        <ele>189</ele>
        <time>2016-07-30T07:47:17.017Z</time>
      </trkpt>
      <trkpt lat="43.14464" lon="5.92134">
        <ele>189</ele>
        <time>2016-07-30T07:47:18.017Z</time>
      </trkpt>
      <trkpt lat="43.14464" lon="5.92137">
        <ele>189</ele>
        <time>2016-07-30T07:47:19.017Z</time>
      </trkpt>
      <trkpt lat="43.14464" lon="5.92139">
        <ele>189</ele>
        <time>2016-07-30T07:47:20.017Z</time>
      </trkpt>
      <trkpt lat="43.14465" lon="5.92142">
        <ele>189</ele>
        <time>2016-07-30T07:47:21.017Z</time>
      </trkpt>
      <trkpt lat="43.14465" lon="5.92145">
        <ele>190</ele>
        <time>2016-07-30T07:47:22.017Z</time>
      </trkpt>
      <trkpt lat="43.14465" lon="5.92148">
        <ele>190</ele>
        <time>2016-07-30T07:47:23.017Z</time>
      </trkpt>
      <trkpt lat="43.14465" lon="5.92151">
        <ele>190</ele>
        <time>2016-07-30T07:47:24.017Z</time>
      </trkpt>
      <trkpt lat="43.14466" lon="5.92154">
        <ele>190</ele>
        <time>2016-07-30T07:47:25.017Z</time>
      </trkpt>
      <trkpt lat="43.14466" lon="5.92157">
        <ele>190</ele>
        <time>2016-07-30T07:47:26.017Z</time>
      </trkpt>
      <trkpt lat="43.14467" lon="5.9216">
        <ele>190</ele>
        <time>2016-07-30T07:47:27.017Z</time>
      </trkpt>
      <trkpt lat="43.14468" lon="5.92163">
        <ele>190</ele>
        <time>2016-07-30T07:47:28.017Z</time>
      </trkpt>
      <trkpt lat="43.14469" lon="5.92166">
        <ele>190</ele>
        <time>2016-07-30T07:47:29.017Z</time>
      </trkpt>
      <trkpt lat="43.1447" lon="5.92168">
        <ele>190</ele>
        <time>2016-07-30T07:47:30.017Z</time>
      </trkpt>
      <trkpt lat="43.14471" lon="5.92171">
        <ele>190</ele>
        <time>2016-07-30T07:47:31.017Z</time>
      </trkpt>
      <trkpt lat="43.14472" lon="5.92174">
        <ele>191</ele>
        <time>2016-07-30T07:47:32.017Z</time>
      </trkpt>
      <trkpt lat="43.14473" lon="5.92176">
        <ele>191</ele>
        <time>2016-07-30T07:47:33.017Z</time>
      </trkpt>
      <trkpt lat="43.14474" lon="5.92178">
        <ele>191</ele>
        <time>2016-07-30T07:47:34.017Z</time>
      </trkpt>
      <trkpt lat="43.14475" lon="5.9218">
        <ele>191</ele>
        <time>2016-07-30T07:47:35.017Z</time>
      </trkpt>
      <trkpt lat="43.14476" lon="5.92182">
        <ele>192</ele>
        <time>2016-07-30T07:47:36.017Z</time>
      </trkpt>
      <trkpt lat="43.14477" lon="5.92185">
        <ele>192</ele>
        <time>2016-07-30T07:47:37.017Z</time>
      </trkpt>
      <trkpt lat="43.14478" lon="5.92187">
        <ele>193</ele>
        <time>2016-07-30T07:47:38.017Z</time>
      </trkpt>
      <trkpt lat="43.14479" lon="5.92189">
        <ele>193</ele>
        <time>2016-07-30T07:47:39.017Z</time>
      </trkpt>
      <trkpt lat="43.1448" lon="5.9219">
        <ele>195</ele>
        <time>2016-07-30T07:47:40.017Z</time>
      </trkpt>
      <trkpt lat="43.14482" lon="5.92192">
        <ele>196</ele>
        <time>2016-07-30T07:47:41.017Z</time>
      </trkpt>
      <trkpt lat="43.14484" lon="5.92194">
        <ele>197</ele>
        <time>2016-07-30T07:47:42.017Z</time>
      </trkpt>
      <trkpt lat="43.14485" lon="5.92196">
        <ele>197</ele>
        <time>2016-07-30T07:47:43.017Z</time>
      </trkpt>
      <trkpt lat="43.14487" lon="5.92197">
        <ele>199</ele>
        <time>2016-07-30T07:47:44.017Z</time>
      </trkpt>
      <trkpt lat="43.14488" lon="5.92199">
        <ele>199</ele>
        <time>2016-07-30T07:47:45.017Z</time>
      </trkpt>
      <trkpt lat="43.1449" lon="5.922">
        <ele>200</ele>
        <time>2016-07-30T07:47:46.017Z</time>
      </trkpt>
      <trkpt lat="43.14491" lon="5.92202">
        <ele>201</ele>
        <time>2016-07-30T07:47:47.017Z</time>
      </trkpt>
      <trkpt lat="43.14493" lon="5.92204">
        <ele>202</ele>
        <time>2016-07-30T07:47:48.017Z</time>
      </trkpt>
      <trkpt lat="43.14495" lon="5.92205">
        <ele>203</ele>
        <time>2016-07-30T07:47:49.017Z</time>
      </trkpt>
      <trkpt lat="43.14496" lon="5.92207">
        <ele>204</ele>
        <time>2016-07-30T07:47:50.017Z</time>
      </trkpt>
      <trkpt lat="43.14498" lon="5.92209">
        <ele>206</ele>
        <time>2016-07-30T07:47:51.017Z</time>
      </trkpt>
      <trkpt lat="43.145" lon="5.9221">
        <ele>206</ele>
        <time>2016-07-30T07:47:52.017Z</time>
      </trkpt>
      <trkpt lat="43.14502" lon="5.92212">
        <ele>207</ele>
        <time>2016-07-30T07:47:53.017Z</time>
      </trkpt>
      <trkpt lat="43.14503" lon="5.92214">
        <ele>207</ele>
        <time>2016-07-30T07:47:54.017Z</time>
      </trkpt>
      <trkpt lat="43.14505" lon="5.92216">
        <ele>206</ele>
        <time>2016-07-30T07:47:55.017Z</time>
      </trkpt>
      <trkpt lat="43.14506" lon="5.92217">
        <ele>207</ele>
        <time>2016-07-30T07:47:56.017Z</time>
      </trkpt>
      <trkpt lat="43.14508" lon="5.92219">
        <ele>207</ele>
        <time>2016-07-30T07:47:57.017Z</time>
      </trkpt>
      <trkpt lat="43.14509" lon="5.92221">
        <ele>207</ele>
        <time>2016-07-30T07:47:58.017Z</time>
      </trkpt>
      <trkpt lat="43.14511" lon="5.92223">
        <ele>207</ele>
        <time>2016-07-30T07:47:59.017Z</time>
      </trkpt>
      <trkpt lat="43.14512" lon="5.92225">
        <ele>206</ele>
        <time>2016-07-30T07:48:00.017Z</time>
      </trkpt>
      <trkpt lat="43.14514" lon="5.92226">
        <ele>206</ele>
        <time>2016-07-30T07:48:01.017Z</time>
      </trkpt>
      <trkpt lat="43.14515" lon="5.92228">
        <ele>206</ele>
        <time>2016-07-30T07:48:02.017Z</time>
      </trkpt>
      <trkpt lat="43.14517" lon="5.9223">
        <ele>206</ele>
        <time>2016-07-30T07:48:03.017Z</time>
      </trkpt>
      <trkpt lat="43.14518" lon="5.92232">
        <ele>206</ele>
        <time>2016-07-30T07:48:04.017Z</time>
      </trkpt>
      <trkpt lat="43.14519" lon="5.92234">
        <ele>206</ele>
        <time>2016-07-30T07:48:05.017Z</time>
      </trkpt>
      <trkpt lat="43.14521" lon="5.92236">
        <ele>207</ele>
        <time>2016-07-30T07:48:06.017Z</time>
      </trkpt>
      <trkpt lat="43.14522" lon="5.92238">
        <ele>207</ele>
        <time>2016-07-30T07:48:07.017Z</time>
      </trkpt>
      <trkpt lat="43.14524" lon="5.9224">
        <ele>207</ele>
        <time>2016-07-30T07:48:08.017Z</time>
      </trkpt>
      <trkpt lat="43.14525" lon="5.92242">
        <ele>207</ele>
        <time>2016-07-30T07:48:09.017Z</time>
      </trkpt>
      <trkpt lat="43.14526" lon="5.92243">
        <ele>207</ele>
        <time>2016-07-30T07:48:10.017Z</time>
      </trkpt>
      <trkpt lat="43.14528" lon="5.92245">
        <ele>207</ele>
        <time>2016-07-30T07:48:11.017Z</time>
      </trkpt>
      <trkpt lat="43.14529" lon="5.92248">
        <ele>207</ele>
        <time>2016-07-30T07:48:12.017Z</time>
      </trkpt>
      <trkpt lat="43.14531" lon="5.9225">
        <ele>208</ele>
        <time>2016-07-30T07:48:13.017Z</time>
      </trkpt>
      <trkpt lat="43.14532" lon="5.92253">
        <ele>208</ele>
        <time>2016-07-30T07:48:14.017Z</time>
      </trkpt>
      <trkpt lat="43.14534" lon="5.92255">
        <ele>208</ele>
        <time>2016-07-30T07:48:15.017Z</time>
      </trkpt>
      <trkpt lat="43.14536" lon="5.92258">
        <ele>209</ele>
        <time>2016-07-30T07:48:16.017Z</time>
      </trkpt>
      <trkpt lat="43.14538" lon="5.92262">
        <ele>209</ele>
        <time>2016-07-30T07:48:17.017Z</time>
      </trkpt>
      <trkpt lat="43.1454" lon="5.92265">
        <ele>210</ele>
        <time>2016-07-30T07:48:18.017Z</time>
      </trkpt>
      <trkpt lat="43.14542" lon="5.92268">
        <ele>210</ele>
        <time>2016-07-30T07:48:19.017Z</time>
      </trkpt>
      <trkpt lat="43.14543" lon="5.92271">
        <ele>210</ele>
        <time>2016-07-30T07:48:20.017Z</time>
      </trkpt>
      <trkpt lat="43.14545" lon="5.92274">
        <ele>210</ele>
        <time>2016-07-30T07:48:21.017Z</time>
      </trkpt>
      <trkpt lat="43.14547" lon="5.92277">
        <ele>210</ele>
        <time>2016-07-30T07:48:22.017Z</time>
      </trkpt>
      <trkpt lat="43.14549" lon="5.92281">
        <ele>210</ele>
        <time>2016-07-30T07:48:23.017Z</time>
      </trkpt>
      <trkpt lat="43.1455" lon="5.92284">
        <ele>210</ele>
        <time>2016-07-30T07:48:24.017Z</time>
      </trkpt>
      <trkpt lat="43.14552" lon="5.92287">
        <ele>210</ele>
        <time>2016-07-30T07:48:25.017Z</time>
      </trkpt>
      <trkpt lat="43.14554" lon="5.9229">
        <ele>210</ele>
        <time>2016-07-30T07:48:26.017Z</time>
      </trkpt>
      <trkpt lat="43.14555" lon="5.92293">
        <ele>210</ele>
        <time>2016-07-30T07:48:27.017Z</time>
      </trkpt>
      <trkpt lat="43.14557" lon="5.92295">
        <ele>210</ele>
        <time>2016-07-30T07:48:28.017Z</time>
      </trkpt>
      <trkpt lat="43.14558" lon="5.92298">
        <ele>210</ele>
        <time>2016-07-30T07:48:29.017Z</time>
      </trkpt>
      <trkpt lat="43.14559" lon="5.92301">
        <ele>210</ele>
        <time>2016-07-30T07:48:30.017Z</time>
      </trkpt>
      <trkpt lat="43.14561" lon="5.92304">
        <ele>210</ele>
        <time>2016-07-30T07:48:31.017Z</time>
      </trkpt>
      <trkpt lat="43.14561" lon="5.92307">
        <ele>210</ele>
        <time>2016-07-30T07:48:32.017Z</time>
      </trkpt>
      <trkpt lat="43.14562" lon="5.9231">
        <ele>210</ele>
        <time>2016-07-30T07:48:33.017Z</time>
      </trkpt>
      <trkpt lat="43.14562" lon="5.92314">
        <ele>211</ele>
        <time>2016-07-30T07:48:34.017Z</time>
      </trkpt>
      <trkpt lat="43.14561" lon="5.92317">
        <ele>212</ele>
        <time>2016-07-30T07:48:35.017Z</time>
      </trkpt>
      <trkpt lat="43.14559" lon="5.9232">
        <ele>211</ele>
        <time>2016-07-30T07:48:36.017Z</time>
      </trkpt>
      <trkpt lat="43.14556" lon="5.92323">
        <ele>211</ele>
        <time>2016-07-30T07:48:37.017Z</time>
      </trkpt>
      <trkpt lat="43.14554" lon="5.92325">
        <ele>211</ele>
        <time>2016-07-30T07:48:38.017Z</time>
      </trkpt>
      <trkpt lat="43.14551" lon="5.92327">
        <ele>211</ele>
        <time>2016-07-30T07:48:39.017Z</time>
      </trkpt>
      <trkpt lat="43.14549" lon="5.92329">
        <ele>211</ele>
        <time>2016-07-30T07:48:40.017Z</time>
      </trkpt>
      <trkpt lat="43.14547" lon="5.92332">
        <ele>211</ele>
        <time>2016-07-30T07:48:41.017Z</time>
      </trkpt>
      <trkpt lat="43.14545" lon="5.92334">
        <ele>211</ele>
        <time>2016-07-30T07:48:42.017Z</time>
      </trkpt>
      <trkpt lat="43.14543" lon="5.92338">
        <ele>211</ele>
        <time>2016-07-30T07:48:43.017Z</time>
      </trkpt>
      <trkpt lat="43.14541" lon="5.92341">
        <ele>211</ele>
        <time>2016-07-30T07:48:44.017Z</time>
      </trkpt>
      <trkpt lat="43.14539" lon="5.92345">
        <ele>212</ele>
        <time>2016-07-30T07:48:45.017Z</time>
      </trkpt>
      <trkpt lat="43.14538" lon="5.92349">
        <ele>212</ele>
        <time>2016-07-30T07:48:46.017Z</time>
      </trkpt>
      <trkpt lat="43.14536" lon="5.92352">
        <ele>212</ele>
        <time>2016-07-30T07:48:47.017Z</time>
      </trkpt>
      <trkpt lat="43.14534" lon="5.92356">
        <ele>212</ele>
        <time>2016-07-30T07:48:48.017Z</time>
      </trkpt>
      <trkpt lat="43.14532" lon="5.9236">
        <ele>212</ele>
        <time>2016-07-30T07:48:49.017Z</time>
      </trkpt>
      <trkpt lat="43.1453" lon="5.92364">
        <ele>213</ele>
        <time>2016-07-30T07:48:50.017Z</time>
      </trkpt>
      <trkpt lat="43.14528" lon="5.92367">
        <ele>213</ele>
        <time>2016-07-30T07:48:51.017Z</time>
      </trkpt>
      <trkpt lat="43.14525" lon="5.9237">
        <ele>213</ele>
        <time>2016-07-30T07:48:52.017Z</time>
      </trkpt>
      <trkpt lat="43.14522" lon="5.92373">
        <ele>213</ele>
        <time>2016-07-30T07:48:53.017Z</time>
      </trkpt>
      <trkpt lat="43.14519" lon="5.92376">
        <ele>213</ele>
        <time>2016-07-30T07:48:54.017Z</time>
      </trkpt>
      <trkpt lat="43.14515" lon="5.92379">
        <ele>213</ele>
        <time>2016-07-30T07:48:55.017Z</time>
      </trkpt>
      <trkpt lat="43.14512" lon="5.92382">
        <ele>213</ele>
        <time>2016-07-30T07:48:56.017Z</time>
      </trkpt>
      <trkpt lat="43.14509" lon="5.92384">
        <ele>214</ele>
        <time>2016-07-30T07:48:57.017Z</time>
      </trkpt>
      <trkpt lat="43.14506" lon="5.92388">
        <ele>215</ele>
        <time>2016-07-30T07:48:58.017Z</time>
      </trkpt>
      <trkpt lat="43.14503" lon="5.92391">
        <ele>215</ele>
        <time>2016-07-30T07:48:59.017Z</time>
      </trkpt>
      <trkpt lat="43.14501" lon="5.92395">
        <ele>215</ele>
        <time>2016-07-30T07:49:00.017Z</time>
      </trkpt>
      <trkpt lat="43.14498" lon="5.92399">
        <ele>215</ele>
        <time>2016-07-30T07:49:01.017Z</time>
      </trkpt>
      <trkpt lat="43.14495" lon="5.92402">
        <ele>215</ele>
        <time>2016-07-30T07:49:02.017Z</time>
      </trkpt>
      <trkpt lat="43.14493" lon="5.92407">
        <ele>215</ele>
        <time>2016-07-30T07:49:03.017Z</time>
      </trkpt>
      <trkpt lat="43.14491" lon="5.92411">
        <ele>214</ele>
        <time>2016-07-30T07:49:04.017Z</time>
      </trkpt>
      <trkpt lat="43.14489" lon="5.92415">
        <ele>214</ele>
        <time>2016-07-30T07:49:05.017Z</time>
      </trkpt>
      <trkpt lat="43.14487" lon="5.9242">
        <ele>215</ele>
        <time>2016-07-30T07:49:06.017Z</time>
      </trkpt>
      <trkpt lat="43.14485" lon="5.92424">
        <ele>215</ele>
        <time>2016-07-30T07:49:07.017Z</time>
      </trkpt>
      <trkpt lat="43.14484" lon="5.92429">
        <ele>215</ele>
        <time>2016-07-30T07:49:08.017Z</time>
      </trkpt>
      <trkpt lat="43.14482" lon="5.92433">
        <ele>215</ele>
        <time>2016-07-30T07:49:09.017Z</time>
      </trkpt>
      <trkpt lat="43.14481" lon="5.92437">
        <ele>215</ele>
        <time>2016-07-30T07:49:10.017Z</time>
      </trkpt>
      <trkpt lat="43.1448" lon="5.92441">
        <ele>216</ele>
        <time>2016-07-30T07:49:11.017Z</time>
      </trkpt>
      <trkpt lat="43.14479" lon="5.92445">
        <ele>216</ele>
        <time>2016-07-30T07:49:12.017Z</time>
      </trkpt>
      <trkpt lat="43.14478" lon="5.9245">
        <ele>216</ele>
        <time>2016-07-30T07:49:13.017Z</time>
      </trkpt>
      <trkpt lat="43.14477" lon="5.92454">
        <ele>216</ele>
        <time>2016-07-30T07:49:14.017Z</time>
      </trkpt>
      <trkpt lat="43.14477" lon="5.92458">
        <ele>216</ele>
        <time>2016-07-30T07:49:15.017Z</time>
      </trkpt>
      <trkpt lat="43.14476" lon="5.92462">
        <ele>217</ele>
        <time>2016-07-30T07:49:16.017Z</time>
      </trkpt>
      <trkpt lat="43.14476" lon="5.92466">
        <ele>216</ele>
        <time>2016-07-30T07:49:17.017Z</time>
      </trkpt>
      <trkpt lat="43.14476" lon="5.9247">
        <ele>217</ele>
        <time>2016-07-30T07:49:18.017Z</time>
      </trkpt>
      <trkpt lat="43.14476" lon="5.92473">
        <ele>217</ele>
        <time>2016-07-30T07:49:19.017Z</time>
      </trkpt>
      <trkpt lat="43.14477" lon="5.92477">
        <ele>217</ele>
        <time>2016-07-30T07:49:20.017Z</time>
      </trkpt>
      <trkpt lat="43.14477" lon="5.92481">
        <ele>218</ele>
        <time>2016-07-30T07:49:21.017Z</time>
      </trkpt>
      <trkpt lat="43.14477" lon="5.92484">
        <ele>218</ele>
        <time>2016-07-30T07:49:22.017Z</time>
      </trkpt>
      <trkpt lat="43.14477" lon="5.92488">
        <ele>218</ele>
        <time>2016-07-30T07:49:23.017Z</time>
      </trkpt>
      <trkpt lat="43.14477" lon="5.92491">
        <ele>219</ele>
        <time>2016-07-30T07:49:24.017Z</time>
      </trkpt>
      <trkpt lat="43.14478" lon="5.92495">
        <ele>219</ele>
        <time>2016-07-30T07:49:25.017Z</time>
      </trkpt>
      <trkpt lat="43.14478" lon="5.92498">
        <ele>219</ele>
        <time>2016-07-30T07:49:26.017Z</time>
      </trkpt>
      <trkpt lat="43.14479" lon="5.92501">
        <ele>220</ele>
        <time>2016-07-30T07:49:27.017Z</time>
      </trkpt>
      <trkpt lat="43.1448" lon="5.92504">
        <ele>221</ele>
        <time>2016-07-30T07:49:28.017Z</time>
      </trkpt>
      <trkpt lat="43.14481" lon="5.92507">
        <ele>221</ele>
        <time>2016-07-30T07:49:29.017Z</time>
      </trkpt>
      <trkpt lat="43.14481" lon="5.9251">
        <ele>222</ele>
        <time>2016-07-30T07:49:30.017Z</time>
      </trkpt>
      <trkpt lat="43.14482" lon="5.92513">
        <ele>222</ele>
        <time>2016-07-30T07:49:31.017Z</time>
      </trkpt>
      <trkpt lat="43.14482" lon="5.92516">
        <ele>222</ele>
        <time>2016-07-30T07:49:32.017Z</time>
      </trkpt>
      <trkpt lat="43.14483" lon="5.92519">
        <ele>222</ele>
        <time>2016-07-30T07:49:33.017Z</time>
      </trkpt>
      <trkpt lat="43.14483" lon="5.92522">
        <ele>221</ele>
        <time>2016-07-30T07:49:34.017Z</time>
      </trkpt>
      <trkpt lat="43.14485" lon="5.92525">
        <ele>220</ele>
        <time>2016-07-30T07:49:35.017Z</time>
      </trkpt>
      <trkpt lat="43.14486" lon="5.92529">
        <ele>221</ele>
        <time>2016-07-30T07:49:36.017Z</time>
      </trkpt>
      <trkpt lat="43.14487" lon="5.92532">
        <ele>222</ele>
        <time>2016-07-30T07:49:37.017Z</time>
      </trkpt>
      <trkpt lat="43.14487" lon="5.92535">
        <ele>222</ele>
        <time>2016-07-30T07:49:38.017Z</time>
      </trkpt>
      <trkpt lat="43.14488" lon="5.92538">
        <ele>222</ele>
        <time>2016-07-30T07:49:39.017Z</time>
      </trkpt>
      <trkpt lat="43.14488" lon="5.9254">
        <ele>222</ele>
        <time>2016-07-30T07:49:40.017Z</time>
      </trkpt>
      <trkpt lat="43.14488" lon="5.92543">
        <ele>222</ele>
        <time>2016-07-30T07:49:41.017Z</time>
      </trkpt>
      <trkpt lat="43.14488" lon="5.92546">
        <ele>223</ele>
        <time>2016-07-30T07:49:42.017Z</time>
      </trkpt>
      <trkpt lat="43.14488" lon="5.92549">
        <ele>222</ele>
        <time>2016-07-30T07:49:43.017Z</time>
      </trkpt>
      <trkpt lat="43.14487" lon="5.92552">
        <ele>223</ele>
        <time>2016-07-30T07:49:44.017Z</time>
      </trkpt>
      <trkpt lat="43.14486" lon="5.92554">
        <ele>223</ele>
        <time>2016-07-30T07:49:45.017Z</time>
      </trkpt>
      <trkpt lat="43.14484" lon="5.92556">
        <ele>224</ele>
        <time>2016-07-30T07:49:46.017Z</time>
      </trkpt>
      <trkpt lat="43.14482" lon="5.92557">
        <ele>224</ele>
        <time>2016-07-30T07:49:47.017Z</time>
      </trkpt>
      <trkpt lat="43.1448" lon="5.92558">
        <ele>223</ele>
        <time>2016-07-30T07:49:48.017Z</time>
      </trkpt>
      <trkpt lat="43.14477" lon="5.92558">
        <ele>224</ele>
        <time>2016-07-30T07:49:49.017Z</time>
      </trkpt>
      <trkpt lat="43.14475" lon="5.92558">
        <ele>223</ele>
        <time>2016-07-30T07:49:50.017Z</time>
      </trkpt>
      <trkpt lat="43.14473" lon="5.92557">
        <ele>224</ele>
        <time>2016-07-30T07:49:51.017Z</time>
      </trkpt>
      <trkpt lat="43.14471" lon="5.92556">
        <ele>224</ele>
        <time>2016-07-30T07:49:52.017Z</time>
      </trkpt>
      <trkpt lat="43.14469" lon="5.92555">
        <ele>223</ele>
        <time>2016-07-30T07:49:53.017Z</time>
      </trkpt>
      <trkpt lat="43.14467" lon="5.92554">
        <ele>223</ele>
        <time>2016-07-30T07:49:54.017Z</time>
      </trkpt>
      <trkpt lat="43.14465" lon="5.92553">
        <ele>223</ele>
        <time>2016-07-30T07:49:55.017Z</time>
      </trkpt>
      <trkpt lat="43.14463" lon="5.92552">
        <ele>224</ele>
        <time>2016-07-30T07:49:56.017Z</time>
      </trkpt>
      <trkpt lat="43.14461" lon="5.92551">
        <ele>224</ele>
        <time>2016-07-30T07:49:57.017Z</time>
      </trkpt>
      <trkpt lat="43.14459" lon="5.92551">
        <ele>224</ele>
        <time>2016-07-30T07:49:58.017Z</time>
      </trkpt>
      <trkpt lat="43.14456" lon="5.92551">
        <ele>223</ele>
        <time>2016-07-30T07:49:59.017Z</time>
      </trkpt>
      <trkpt lat="43.14454" lon="5.92551">
        <ele>223</ele>
        <time>2016-07-30T07:50:00.017Z</time>
      </trkpt>
      <trkpt lat="43.14452" lon="5.92551">
        <ele>224</ele>
        <time>2016-07-30T07:50:01.017Z</time>
      </trkpt>
      <trkpt lat="43.1445" lon="5.92552">
        <ele>223</ele>
        <time>2016-07-30T07:50:02.017Z</time>
      </trkpt>
      <trkpt lat="43.14449" lon="5.92553">
        <ele>222</ele>
        <time>2016-07-30T07:50:03.017Z</time>
      </trkpt>
      <trkpt lat="43.14447" lon="5.92554">
        <ele>223</ele>
        <time>2016-07-30T07:50:04.017Z</time>
      </trkpt>
      <trkpt lat="43.14446" lon="5.92555">
        <ele>223</ele>
        <time>2016-07-30T07:50:05.017Z</time>
      </trkpt>
      <trkpt lat="43.14444" lon="5.92557">
        <ele>223</ele>
        <time>2016-07-30T07:50:06.017Z</time>
      </trkpt>
      <trkpt lat="43.14443" lon="5.92558">
        <ele>223</ele>
        <time>2016-07-30T07:50:07.017Z</time>
      </trkpt>
      <trkpt lat="43.14441" lon="5.9256">
        <ele>224</ele>
        <time>2016-07-30T07:50:08.017Z</time>
      </trkpt>
      <trkpt lat="43.1444" lon="5.92561">
        <ele>224</ele>
        <time>2016-07-30T07:50:09.017Z</time>
      </trkpt>
      <trkpt lat="43.14438" lon="5.92563">
        <ele>224</ele>
        <time>2016-07-30T07:50:10.017Z</time>
      </trkpt>
      <trkpt lat="43.14437" lon="5.92565">
        <ele>225</ele>
        <time>2016-07-30T07:50:11.017Z</time>
      </trkpt>
      <trkpt lat="43.14435" lon="5.92566">
        <ele>225</ele>
        <time>2016-07-30T07:50:12.017Z</time>
      </trkpt>
      <trkpt lat="43.14434" lon="5.92568">
        <ele>225</ele>
        <time>2016-07-30T07:50:13.017Z</time>
      </trkpt>
      <trkpt lat="43.14433" lon="5.92569">
        <ele>225</ele>
        <time>2016-07-30T07:50:14.017Z</time>
      </trkpt>
      <trkpt lat="43.14431" lon="5.9257">
        <ele>225</ele>
        <time>2016-07-30T07:50:15.017Z</time>
      </trkpt>
      <trkpt lat="43.1443" lon="5.92571">
        <ele>225</ele>
        <time>2016-07-30T07:50:16.017Z</time>
      </trkpt>
      <trkpt lat="43.14429" lon="5.92572">
        <ele>225</ele>
        <time>2016-07-30T07:50:17.017Z</time>
      </trkpt>
      <trkpt lat="43.14427" lon="5.92573">
        <ele>225</ele>
        <time>2016-07-30T07:50:18.017Z</time>
      </trkpt>
      <trkpt lat="43.14426" lon="5.92574">
        <ele>225</ele>
        <time>2016-07-30T07:50:19.017Z</time>
      </trkpt>
      <trkpt lat="43.14425" lon="5.92575">
        <ele>225</ele>
        <time>2016-07-30T07:50:20.017Z</time>
      </trkpt>
      <trkpt lat="43.14424" lon="5.92576">
        <ele>224</ele>
        <time>2016-07-30T07:50:21.017Z</time>
      </trkpt>
      <trkpt lat="43.14423" lon="5.92577">
        <ele>224</ele>
        <time>2016-07-30T07:50:22.017Z</time>
      </trkpt>
      <trkpt lat="43.14421" lon="5.92578">
        <ele>224</ele>
        <time>2016-07-30T07:50:23.017Z</time>
      </trkpt>
      <trkpt lat="43.1442" lon="5.92579">
        <ele>224</ele>
        <time>2016-07-30T07:50:24.017Z</time>
      </trkpt>
      <trkpt lat="43.14418" lon="5.9258">
        <ele>224</ele>
        <time>2016-07-30T07:50:25.017Z</time>
      </trkpt>
      <trkpt lat="43.14417" lon="5.92581">
        <ele>224</ele>
        <time>2016-07-30T07:50:26.017Z</time>
      </trkpt>
      <trkpt lat="43.14415" lon="5.92582">
        <ele>224</ele>
        <time>2016-07-30T07:50:27.017Z</time>
      </trkpt>
      <trkpt lat="43.14414" lon="5.92583">
        <ele>224</ele>
        <time>2016-07-30T07:50:28.017Z</time>
      </trkpt>
      <trkpt lat="43.14412" lon="5.92584">
        <ele>225</ele>
        <time>2016-07-30T07:50:29.017Z</time>
      </trkpt>
      <trkpt lat="43.14411" lon="5.92585">
        <ele>225</ele>
        <time>2016-07-30T07:50:30.017Z</time>
      </trkpt>
      <trkpt lat="43.1441" lon="5.92586">
        <ele>226</ele>
        <time>2016-07-30T07:50:31.017Z</time>
      </trkpt>
      <trkpt lat="43.14408" lon="5.92587">
        <ele>226</ele>
        <time>2016-07-30T07:50:32.017Z</time>
      </trkpt>
      <trkpt lat="43.14407" lon="5.92588">
        <ele>227</ele>
        <time>2016-07-30T07:50:33.017Z</time>
      </trkpt>
      <trkpt lat="43.14406" lon="5.9259">
        <ele>228</ele>
        <time>2016-07-30T07:50:34.017Z</time>
      </trkpt>
      <trkpt lat="43.14404" lon="5.92591">
        <ele>229</ele>
        <time>2016-07-30T07:50:35.017Z</time>
      </trkpt>
      <trkpt lat="43.14403" lon="5.92592">
        <ele>230</ele>
        <time>2016-07-30T07:50:36.017Z</time>
      </trkpt>
      <trkpt lat="43.14402" lon="5.92593">
        <ele>229</ele>
        <time>2016-07-30T07:50:37.017Z</time>
      </trkpt>
      <trkpt lat="43.14401" lon="5.92594">
        <ele>230</ele>
        <time>2016-07-30T07:50:38.017Z</time>
      </trkpt>
      <trkpt lat="43.14399" lon="5.92595">
        <ele>230</ele>
        <time>2016-07-30T07:50:39.017Z</time>
      </trkpt>
      <trkpt lat="43.14398" lon="5.92595">
        <ele>230</ele>
        <time>2016-07-30T07:50:40.017Z</time>
      </trkpt>
      <trkpt lat="43.14397" lon="5.92596">
        <ele>230</ele>
        <time>2016-07-30T07:50:41.017Z</time>
      </trkpt>
      <trkpt lat="43.14395" lon="5.92597">
        <ele>230</ele>
        <time>2016-07-30T07:50:42.017Z</time>
      </trkpt>
      <trkpt lat="43.14394" lon="5.92598">
        <ele>230</ele>
        <time>2016-07-30T07:50:43.017Z</time>
      </trkpt>
      <trkpt lat="43.14393" lon="5.92598">
        <ele>230</ele>
        <time>2016-07-30T07:50:44.017Z</time>
      </trkpt>
      <trkpt lat="43.14391" lon="5.92599">
        <ele>230</ele>
        <time>2016-07-30T07:50:45.017Z</time>
      </trkpt>
      <trkpt lat="43.14389" lon="5.92599">
        <ele>231</ele>
        <time>2016-07-30T07:50:46.017Z</time>
      </trkpt>
      <trkpt lat="43.14388" lon="5.926">
        <ele>231</ele>
        <time>2016-07-30T07:50:47.017Z</time>
      </trkpt>
      <trkpt lat="43.14386" lon="5.926">
        <ele>232</ele>
        <time>2016-07-30T07:50:48.017Z</time>
      </trkpt>
      <trkpt lat="43.14385" lon="5.92601">
        <ele>232</ele>
        <time>2016-07-30T07:50:49.017Z</time>
      </trkpt>
      <trkpt lat="43.14383" lon="5.92601">
        <ele>232</ele>
        <time>2016-07-30T07:50:50.017Z</time>
      </trkpt>
      <trkpt lat="43.14382" lon="5.92602">
        <ele>233</ele>
        <time>2016-07-30T07:50:51.017Z</time>
      </trkpt>
      <trkpt lat="43.1438" lon="5.92602">
        <ele>234</ele>
        <time>2016-07-30T07:50:52.017Z</time>
      </trkpt>
      <trkpt lat="43.14378" lon="5.92603">
        <ele>234</ele>
        <time>2016-07-30T07:50:53.017Z</time>
      </trkpt>
      <trkpt lat="43.14377" lon="5.92603">
        <ele>235</ele>
        <time>2016-07-30T07:50:54.017Z</time>
      </trkpt>
      <trkpt lat="43.14375" lon="5.92604">
        <ele>235</ele>
        <time>2016-07-30T07:50:55.017Z</time>
      </trkpt>
      <trkpt lat="43.14373" lon="5.92604">
        <ele>236</ele>
        <time>2016-07-30T07:50:56.017Z</time>
      </trkpt>
      <trkpt lat="43.14372" lon="5.92605">
        <ele>237</ele>
        <time>2016-07-30T07:50:57.017Z</time>
      </trkpt>
      <trkpt lat="43.1437" lon="5.92605">
        <ele>238</ele>
        <time>2016-07-30T07:50:58.017Z</time>
      </trkpt>
      <trkpt lat="43.14368" lon="5.92606">
        <ele>239</ele>
        <time>2016-07-30T07:50:59.017Z</time>
      </trkpt>
      <trkpt lat="43.14366" lon="5.92607">
        <ele>239</ele>
        <time>2016-07-30T07:51:00.017Z</time>
      </trkpt>
      <trkpt lat="43.14365" lon="5.92607">
        <ele>239</ele>
        <time>2016-07-30T07:51:01.017Z</time>
      </trkpt>
      <trkpt lat="43.14363" lon="5.92608">
        <ele>239</ele>
        <time>2016-07-30T07:51:02.017Z</time>
      </trkpt>
      <trkpt lat="43.14361" lon="5.92609">
        <ele>238</ele>
        <time>2016-07-30T07:51:03.017Z</time>
      </trkpt>
      <trkpt lat="43.14359" lon="5.9261">
        <ele>238</ele>
        <time>2016-07-30T07:51:04.017Z</time>
      </trkpt>
      <trkpt lat="43.14357" lon="5.92611">
        <ele>239</ele>
        <time>2016-07-30T07:51:05.017Z</time>
      </trkpt>
      <trkpt lat="43.14355" lon="5.92612">
        <ele>239</ele>
        <time>2016-07-30T07:51:06.017Z</time>
      </trkpt>
      <trkpt lat="43.14353" lon="5.92613">
        <ele>239</ele>
        <time>2016-07-30T07:51:07.017Z</time>
      </trkpt>
      <trkpt lat="43.14351" lon="5.92613">
        <ele>240</ele>
        <time>2016-07-30T07:51:08.017Z</time>
      </trkpt>
      <trkpt lat="43.14349" lon="5.92614">
        <ele>240</ele>
        <time>2016-07-30T07:51:09.017Z</time>
      </trkpt>
      <trkpt lat="43.14347" lon="5.92615">
        <ele>240</ele>
        <time>2016-07-30T07:51:10.017Z</time>
      </trkpt>
      <trkpt lat="43.14346" lon="5.92616">
        <ele>240</ele>
        <time>2016-07-30T07:51:11.017Z</time>
      </trkpt>
      <trkpt lat="43.14344" lon="5.92616">
        <ele>240</ele>
        <time>2016-07-30T07:51:12.017Z</time>
      </trkpt>
      <trkpt lat="43.14342" lon="5.92617">
        <ele>239</ele>
        <time>2016-07-30T07:51:13.017Z</time>
      </trkpt>
      <trkpt lat="43.14341" lon="5.92618">
        <ele>239</ele>
        <time>2016-07-30T07:51:14.017Z</time>
      </trkpt>
      <trkpt lat="43.14339" lon="5.92619">
        <ele>239</ele>
        <time>2016-07-30T07:51:15.017Z</time>
      </trkpt>
      <trkpt lat="43.14337" lon="5.9262">
        <ele>239</ele>
        <time>2016-07-30T07:51:16.017Z</time>
      </trkpt>
      <trkpt lat="43.14335" lon="5.9262">
        <ele>239</ele>
        <time>2016-07-30T07:51:17.017Z</time>
      </trkpt>
      <trkpt lat="43.14333" lon="5.92621">
        <ele>239</ele>
        <time>2016-07-30T07:51:18.017Z</time>
      </trkpt>
      <trkpt lat="43.14331" lon="5.92622">
        <ele>238</ele>
        <time>2016-07-30T07:51:19.017Z</time>
      </trkpt>
      <trkpt lat="43.14329" lon="5.92623">
        <ele>238</ele>
        <time>2016-07-30T07:51:20.017Z</time>
      </trkpt>
      <trkpt lat="43.14328" lon="5.92623">
        <ele>238</ele>
        <time>2016-07-30T07:51:21.017Z</time>
      </trkpt>
      <trkpt lat="43.14326" lon="5.92624">
        <ele>238</ele>
        <time>2016-07-30T07:51:22.017Z</time>
      </trkpt>
      <trkpt lat="43.14324" lon="5.92624">
        <ele>237</ele>
        <time>2016-07-30T07:51:23.017Z</time>
      </trkpt>
      <trkpt lat="43.14322" lon="5.92625">
        <ele>237</ele>
        <time>2016-07-30T07:51:24.017Z</time>
      </trkpt>
      <trkpt lat="43.14321" lon="5.92626">
        <ele>237</ele>
        <time>2016-07-30T07:51:25.017Z</time>
      </trkpt>
      <trkpt lat="43.14319" lon="5.92626">
        <ele>237</ele>
        <time>2016-07-30T07:51:26.017Z</time>
      </trkpt>
      <trkpt lat="43.14318" lon="5.92627">
        <ele>237</ele>
        <time>2016-07-30T07:51:27.017Z</time>
      </trkpt>
      <trkpt lat="43.14316" lon="5.92628">
        <ele>237</ele>
        <time>2016-07-30T07:51:28.017Z</time>
      </trkpt>
      <trkpt lat="43.14314" lon="5.92629">
        <ele>237</ele>
        <time>2016-07-30T07:51:29.017Z</time>
      </trkpt>
      <trkpt lat="43.14312" lon="5.9263">
        <ele>237</ele>
        <time>2016-07-30T07:51:30.017Z</time>
      </trkpt>
      <trkpt lat="43.1431" lon="5.9263">
        <ele>237</ele>
        <time>2016-07-30T07:51:31.017Z</time>
      </trkpt>
      <trkpt lat="43.14308" lon="5.92631">
        <ele>237</ele>
        <time>2016-07-30T07:51:32.017Z</time>
      </trkpt>
      <trkpt lat="43.14306" lon="5.92631">
        <ele>237</ele>
        <time>2016-07-30T07:51:33.017Z</time>
      </trkpt>
      <trkpt lat="43.14304" lon="5.92631">
        <ele>237</ele>
        <time>2016-07-30T07:51:34.017Z</time>
      </trkpt>
      <trkpt lat="43.14302" lon="5.92632">
        <ele>237</ele>
        <time>2016-07-30T07:51:35.017Z</time>
      </trkpt>
      <trkpt lat="43.143" lon="5.92632">
        <ele>237</ele>
        <time>2016-07-30T07:51:36.017Z</time>
      </trkpt>
      <trkpt lat="43.14298" lon="5.92632">
        <ele>237</ele>
        <time>2016-07-30T07:51:37.017Z</time>
      </trkpt>
      <trkpt lat="43.14295" lon="5.92631">
        <ele>237</ele>
        <time>2016-07-30T07:51:38.017Z</time>
      </trkpt>
      <trkpt lat="43.14293" lon="5.92631">
        <ele>237</ele>
        <time>2016-07-30T07:51:39.017Z</time>
      </trkpt>
      <trkpt lat="43.14291" lon="5.92632">
        <ele>237</ele>
        <time>2016-07-30T07:51:40.017Z</time>
      </trkpt>
      <trkpt lat="43.14289" lon="5.92632">
        <ele>236</ele>
        <time>2016-07-30T07:51:41.017Z</time>
      </trkpt>
      <trkpt lat="43.14287" lon="5.92632">
        <ele>236</ele>
        <time>2016-07-30T07:51:42.017Z</time>
      </trkpt>
      <trkpt lat="43.14285" lon="5.92632">
        <ele>236</ele>
        <time>2016-07-30T07:51:43.017Z</time>
      </trkpt>
      <trkpt lat="43.14283" lon="5.92632">
        <ele>236</ele>
        <time>2016-07-30T07:51:44.017Z</time>
      </trkpt>
      <trkpt lat="43.14281" lon="5.92632">
        <ele>236</ele>
        <time>2016-07-30T07:51:45.017Z</time>
      </trkpt>
      <trkpt lat="43.14279" lon="5.92633">
        <ele>236</ele>
        <time>2016-07-30T07:51:46.017Z</time>
      </trkpt>
      <trkpt lat="43.14277" lon="5.92633">
        <ele>236</ele>
        <time>2016-07-30T07:51:47.017Z</time>
      </trkpt>
      <trkpt lat="43.14275" lon="5.92634">
        <ele>236</ele>
        <time>2016-07-30T07:51:48.017Z</time>
      </trkpt>
      <trkpt lat="43.14273" lon="5.92636">
        <ele>236</ele>
        <time>2016-07-30T07:51:49.017Z</time>
      </trkpt>
      <trkpt lat="43.14271" lon="5.92639">
        <ele>238</ele>
        <time>2016-07-30T07:51:50.017Z</time>
      </trkpt>
      <trkpt lat="43.1427" lon="5.92641">
        <ele>239</ele>
        <time>2016-07-30T07:51:51.017Z</time>
      </trkpt>
      <trkpt lat="43.14269" lon="5.92644">
        <ele>242</ele>
        <time>2016-07-30T07:51:52.017Z</time>
      </trkpt>
      <trkpt lat="43.14268" lon="5.92647">
        <ele>241</ele>
        <time>2016-07-30T07:51:53.017Z</time>
      </trkpt>
      <trkpt lat="43.14269" lon="5.9265">
        <ele>240</ele>
        <time>2016-07-30T07:51:54.017Z</time>
      </trkpt>
      <trkpt lat="43.1427" lon="5.92652">
        <ele>241</ele>
        <time>2016-07-30T07:51:55.017Z</time>
      </trkpt>
      <trkpt lat="43.14272" lon="5.92654">
        <ele>240</ele>
        <time>2016-07-30T07:51:56.017Z</time>
      </trkpt>
      <trkpt lat="43.14275" lon="5.92656">
        <ele>240</ele>
        <time>2016-07-30T07:51:57.017Z</time>
      </trkpt>
      <trkpt lat="43.14278" lon="5.92656">
        <ele>241</ele>
        <time>2016-07-30T07:51:58.017Z</time>
      </trkpt>
      <trkpt lat="43.1428" lon="5.92657">
        <ele>241</ele>
        <time>2016-07-30T07:51:59.017Z</time>
      </trkpt>
      <trkpt lat="43.14282" lon="5.92656">
        <ele>241</ele>
        <time>2016-07-30T07:52:00.017Z</time>
      </trkpt>
      <trkpt lat="43.14285" lon="5.92655">
        <ele>241</ele>
        <time>2016-07-30T07:52:01.017Z</time>
      </trkpt>
      <trkpt lat="43.14287" lon="5.92654">
        <ele>241</ele>
        <time>2016-07-30T07:52:02.017Z</time>
      </trkpt>
      <trkpt lat="43.14289" lon="5.92652">
        <ele>242</ele>
        <time>2016-07-30T07:52:03.017Z</time>
      </trkpt>
      <trkpt lat="43.14292" lon="5.92651">
        <ele>242</ele>
        <time>2016-07-30T07:52:04.017Z</time>
      </trkpt>
      <trkpt lat="43.14294" lon="5.92651">
        <ele>244</ele>
        <time>2016-07-30T07:52:05.017Z</time>
      </trkpt>
      <trkpt lat="43.14296" lon="5.92651">
        <ele>245</ele>
        <time>2016-07-30T07:52:06.017Z</time>
      </trkpt>
      <trkpt lat="43.14298" lon="5.92651">
        <ele>246</ele>
        <time>2016-07-30T07:52:07.017Z</time>
      </trkpt>
      <trkpt lat="43.143" lon="5.92651">
        <ele>246</ele>
        <time>2016-07-30T07:52:08.017Z</time>
      </trkpt>
      <trkpt lat="43.14302" lon="5.92651">
        <ele>247</ele>
        <time>2016-07-30T07:52:09.017Z</time>
      </trkpt>
      <trkpt lat="43.14304" lon="5.92651">
        <ele>247</ele>
        <time>2016-07-30T07:52:10.017Z</time>
      </trkpt>
      <trkpt lat="43.14306" lon="5.92651">
        <ele>248</ele>
        <time>2016-07-30T07:52:11.017Z</time>
      </trkpt>
      <trkpt lat="43.14308" lon="5.92651">
        <ele>248</ele>
        <time>2016-07-30T07:52:12.017Z</time>
      </trkpt>
      <trkpt lat="43.1431" lon="5.92651">
        <ele>248</ele>
        <time>2016-07-30T07:52:13.017Z</time>
      </trkpt>
      <trkpt lat="43.14311" lon="5.92651">
        <ele>248</ele>
        <time>2016-07-30T07:52:14.017Z</time>
      </trkpt>
      <trkpt lat="43.14313" lon="5.92652">
        <ele>247</ele>
        <time>2016-07-30T07:52:15.017Z</time>
      </trkpt>
      <trkpt lat="43.14315" lon="5.92652">
        <ele>247</ele>
        <time>2016-07-30T07:52:16.017Z</time>
      </trkpt>
      <trkpt lat="43.14317" lon="5.92652">
        <ele>247</ele>
        <time>2016-07-30T07:52:17.017Z</time>
      </trkpt>
      <trkpt lat="43.14319" lon="5.92653">
        <ele>248</ele>
        <time>2016-07-30T07:52:18.017Z</time>
      </trkpt>
      <trkpt lat="43.14321" lon="5.92653">
        <ele>248</ele>
        <time>2016-07-30T07:52:19.017Z</time>
      </trkpt>
      <trkpt lat="43.14323" lon="5.92654">
        <ele>248</ele>
        <time>2016-07-30T07:52:20.017Z</time>
      </trkpt>
      <trkpt lat="43.14325" lon="5.92654">
        <ele>248</ele>
        <time>2016-07-30T07:52:21.017Z</time>
      </trkpt>
      <trkpt lat="43.14327" lon="5.92655">
        <ele>248</ele>
        <time>2016-07-30T07:52:22.017Z</time>
      </trkpt>
      <trkpt lat="43.14329" lon="5.92655">
        <ele>248</ele>
        <time>2016-07-30T07:52:23.017Z</time>
      </trkpt>
      <trkpt lat="43.14331" lon="5.92656">
        <ele>248</ele>
        <time>2016-07-30T07:52:24.017Z</time>
      </trkpt>
      <trkpt lat="43.14333" lon="5.92656">
        <ele>248</ele>
        <time>2016-07-30T07:52:25.017Z</time>
      </trkpt>
      <trkpt lat="43.14335" lon="5.92656">
        <ele>247</ele>
        <time>2016-07-30T07:52:26.017Z</time>
      </trkpt>
      <trkpt lat="43.14337" lon="5.92657">
        <ele>248</ele>
        <time>2016-07-30T07:52:27.017Z</time>
      </trkpt>
      <trkpt lat="43.14339" lon="5.92657">
        <ele>247</ele>
        <time>2016-07-30T07:52:28.017Z</time>
      </trkpt>
      <trkpt lat="43.14341" lon="5.92657">
        <ele>247</ele>
        <time>2016-07-30T07:52:29.017Z</time>
      </trkpt>
      <trkpt lat="43.14342" lon="5.92658">
        <ele>247</ele>
        <time>2016-07-30T07:52:30.017Z</time>
      </trkpt>
      <trkpt lat="43.14344" lon="5.92658">
        <ele>248</ele>
        <time>2016-07-30T07:52:31.017Z</time>
      </trkpt>
      <trkpt lat="43.14346" lon="5.92659">
        <ele>249</ele>
        <time>2016-07-30T07:52:32.017Z</time>
      </trkpt>
      <trkpt lat="43.14348" lon="5.92659">
        <ele>249</ele>
        <time>2016-07-30T07:52:33.017Z</time>
      </trkpt>
      <trkpt lat="43.1435" lon="5.9266">
        <ele>249</ele>
        <time>2016-07-30T07:52:34.017Z</time>
      </trkpt>
      <trkpt lat="43.14352" lon="5.9266">
        <ele>249</ele>
        <time>2016-07-30T07:52:35.017Z</time>
      </trkpt>
      <trkpt lat="43.14354" lon="5.92661">
        <ele>249</ele>
        <time>2016-07-30T07:52:36.017Z</time>
      </trkpt>
      <trkpt lat="43.14356" lon="5.92661">
        <ele>249</ele>
        <time>2016-07-30T07:52:37.017Z</time>
      </trkpt>
      <trkpt lat="43.14358" lon="5.92662">
        <ele>249</ele>
        <time>2016-07-30T07:52:38.017Z</time>
      </trkpt>
      <trkpt lat="43.14359" lon="5.92662">
        <ele>250</ele>
        <time>2016-07-30T07:52:39.017Z</time>
      </trkpt>
      <trkpt lat="43.14361" lon="5.92662">
        <ele>250</ele>
        <time>2016-07-30T07:52:40.017Z</time>
      </trkpt>
      <trkpt lat="43.14363" lon="5.92663">
        <ele>250</ele>
        <time>2016-07-30T07:52:41.017Z</time>
      </trkpt>
      <trkpt lat="43.14364" lon="5.92663">
        <ele>250</ele>
        <time>2016-07-30T07:52:42.017Z</time>
      </trkpt>
      <trkpt lat="43.14366" lon="5.92663">
        <ele>251</ele>
        <time>2016-07-30T07:52:43.017Z</time>
      </trkpt>
      <trkpt lat="43.14368" lon="5.92663">
        <ele>251</ele>
        <time>2016-07-30T07:52:44.017Z</time>
      </trkpt>
      <trkpt lat="43.14369" lon="5.92663">
        <ele>251</ele>
        <time>2016-07-30T07:52:45.017Z</time>
      </trkpt>
      <trkpt lat="43.14371" lon="5.92663">
        <ele>251</ele>
        <time>2016-07-30T07:52:46.017Z</time>
      </trkpt>
      <trkpt lat="43.14372" lon="5.92663">
        <ele>251</ele>
        <time>2016-07-30T07:52:47.017Z</time>
      </trkpt>
      <trkpt lat="43.14374" lon="5.92663">
        <ele>251</ele>
        <time>2016-07-30T07:52:48.017Z</time>
      </trkpt>
      <trkpt lat="43.14376" lon="5.92663">
        <ele>251</ele>
        <time>2016-07-30T07:52:49.017Z</time>
      </trkpt>
      <trkpt lat="43.14377" lon="5.92663">
        <ele>251</ele>
        <time>2016-07-30T07:52:50.017Z</time>
      </trkpt>
      <trkpt lat="43.14379" lon="5.92664">
        <ele>251</ele>
        <time>2016-07-30T07:52:51.017Z</time>
      </trkpt>
      <trkpt lat="43.14381" lon="5.92664">
        <ele>252</ele>
        <time>2016-07-30T07:52:52.017Z</time>
      </trkpt>
      <trkpt lat="43.14382" lon="5.92664">
        <ele>251</ele>
        <time>2016-07-30T07:52:53.017Z</time>
      </trkpt>
      <trkpt lat="43.14384" lon="5.92664">
        <ele>252</ele>
        <time>2016-07-30T07:52:54.017Z</time>
      </trkpt>
      <trkpt lat="43.14386" lon="5.92664">
        <ele>252</ele>
        <time>2016-07-30T07:52:55.017Z</time>
      </trkpt>
      <trkpt lat="43.14388" lon="5.92665">
        <ele>252</ele>
        <time>2016-07-30T07:52:56.017Z</time>
      </trkpt>
      <trkpt lat="43.1439" lon="5.92665">
        <ele>252</ele>
        <time>2016-07-30T07:52:57.017Z</time>
      </trkpt>
      <trkpt lat="43.14392" lon="5.92665">
        <ele>252</ele>
        <time>2016-07-30T07:52:58.017Z</time>
      </trkpt>
      <trkpt lat="43.14394" lon="5.92665">
        <ele>252</ele>
        <time>2016-07-30T07:52:59.017Z</time>
      </trkpt>
      <trkpt lat="43.14395" lon="5.92665">
        <ele>253</ele>
        <time>2016-07-30T07:53:00.017Z</time>
      </trkpt>
      <trkpt lat="43.14397" lon="5.92665">
        <ele>253</ele>
        <time>2016-07-30T07:53:01.017Z</time>
      </trkpt>
      <trkpt lat="43.14399" lon="5.92665">
        <ele>253</ele>
        <time>2016-07-30T07:53:02.017Z</time>
      </trkpt>
      <trkpt lat="43.14401" lon="5.92665">
        <ele>253</ele>
        <time>2016-07-30T07:53:03.017Z</time>
      </trkpt>
      <trkpt lat="43.14402" lon="5.92666">
        <ele>253</ele>
        <time>2016-07-30T07:53:04.017Z</time>
      </trkpt>
      <trkpt lat="43.14404" lon="5.92667">
        <ele>253</ele>
        <time>2016-07-30T07:53:05.017Z</time>
      </trkpt>
      <trkpt lat="43.14406" lon="5.92667">
        <ele>253</ele>
        <time>2016-07-30T07:53:06.017Z</time>
      </trkpt>
      <trkpt lat="43.14407" lon="5.92668">
        <ele>253</ele>
        <time>2016-07-30T07:53:07.017Z</time>
      </trkpt>
      <trkpt lat="43.14409" lon="5.92668">
        <ele>254</ele>
        <time>2016-07-30T07:53:08.017Z</time>
      </trkpt>
      <trkpt lat="43.14411" lon="5.92668">
        <ele>253</ele>
        <time>2016-07-30T07:53:09.017Z</time>
      </trkpt>
      <trkpt lat="43.14412" lon="5.92668">
        <ele>254</ele>
        <time>2016-07-30T07:53:10.017Z</time>
      </trkpt>
      <trkpt lat="43.14414" lon="5.92668">
        <ele>254</ele>
        <time>2016-07-30T07:53:11.017Z</time>
      </trkpt>
      <trkpt lat="43.14416" lon="5.92668">
        <ele>254</ele>
        <time>2016-07-30T07:53:12.017Z</time>
      </trkpt>
      <trkpt lat="43.14418" lon="5.92668">
        <ele>254</ele>
        <time>2016-07-30T07:53:13.017Z</time>
      </trkpt>
      <trkpt lat="43.14419" lon="5.92668">
        <ele>255</ele>
        <time>2016-07-30T07:53:14.017Z</time>
      </trkpt>
      <trkpt lat="43.14421" lon="5.92668">
        <ele>255</ele>
        <time>2016-07-30T07:53:15.017Z</time>
      </trkpt>
      <trkpt lat="43.14423" lon="5.92668">
        <ele>255</ele>
        <time>2016-07-30T07:53:16.017Z</time>
      </trkpt>
      <trkpt lat="43.14425" lon="5.92668">
        <ele>256</ele>
        <time>2016-07-30T07:53:17.017Z</time>
      </trkpt>
      <trkpt lat="43.14426" lon="5.92667">
        <ele>256</ele>
        <time>2016-07-30T07:53:18.017Z</time>
      </trkpt>
      <trkpt lat="43.14428" lon="5.92666">
        <ele>256</ele>
        <time>2016-07-30T07:53:19.017Z</time>
      </trkpt>
      <trkpt lat="43.14429" lon="5.92666">
        <ele>257</ele>
        <time>2016-07-30T07:53:20.017Z</time>
      </trkpt>
      <trkpt lat="43.14431" lon="5.92665">
        <ele>257</ele>
        <time>2016-07-30T07:53:21.017Z</time>
      </trkpt>
      <trkpt lat="43.14433" lon="5.92665">
        <ele>258</ele>
        <time>2016-07-30T07:53:22.017Z</time>
      </trkpt>
      <trkpt lat="43.14434" lon="5.92665">
        <ele>258</ele>
        <time>2016-07-30T07:53:23.017Z</time>
      </trkpt>
      <trkpt lat="43.14436" lon="5.92666">
        <ele>258</ele>
        <time>2016-07-30T07:53:24.017Z</time>
      </trkpt>
      <trkpt lat="43.14438" lon="5.92666">
        <ele>258</ele>
        <time>2016-07-30T07:53:25.017Z</time>
      </trkpt>
      <trkpt lat="43.14439" lon="5.92666">
        <ele>258</ele>
        <time>2016-07-30T07:53:26.017Z</time>
      </trkpt>
      <trkpt lat="43.14441" lon="5.92666">
        <ele>258</ele>
        <time>2016-07-30T07:53:27.017Z</time>
      </trkpt>
      <trkpt lat="43.14443" lon="5.92666">
        <ele>258</ele>
        <time>2016-07-30T07:53:28.017Z</time>
      </trkpt>
      <trkpt lat="43.14445" lon="5.92666">
        <ele>258</ele>
        <time>2016-07-30T07:53:29.017Z</time>
      </trkpt>
      <trkpt lat="43.14446" lon="5.92665">
        <ele>259</ele>
        <time>2016-07-30T07:53:30.017Z</time>
      </trkpt>
      <trkpt lat="43.14448" lon="5.92665">
        <ele>259</ele>
        <time>2016-07-30T07:53:31.017Z</time>
      </trkpt>
      <trkpt lat="43.1445" lon="5.92665">
        <ele>259</ele>
        <time>2016-07-30T07:53:32.017Z</time>
      </trkpt>
      <trkpt lat="43.14452" lon="5.92665">
        <ele>260</ele>
        <time>2016-07-30T07:53:33.017Z</time>
      </trkpt>
      <trkpt lat="43.14453" lon="5.92665">
        <ele>260</ele>
        <time>2016-07-30T07:53:34.017Z</time>
      </trkpt>
      <trkpt lat="43.14455" lon="5.92665">
        <ele>260</ele>
        <time>2016-07-30T07:53:35.017Z</time>
      </trkpt>
      <trkpt lat="43.14457" lon="5.92665">
        <ele>261</ele>
        <time>2016-07-30T07:53:36.017Z</time>
      </trkpt>
      <trkpt lat="43.14459" lon="5.92665">
        <ele>261</ele>
        <time>2016-07-30T07:53:37.017Z</time>
      </trkpt>
      <trkpt lat="43.1446" lon="5.92665">
        <ele>261</ele>
        <time>2016-07-30T07:53:38.017Z</time>
      </trkpt>
      <trkpt lat="43.14462" lon="5.92666">
        <ele>261</ele>
        <time>2016-07-30T07:53:39.017Z</time>
      </trkpt>
      <trkpt lat="43.14464" lon="5.92666">
        <ele>262</ele>
        <time>2016-07-30T07:53:40.017Z</time>
      </trkpt>
      <trkpt lat="43.14465" lon="5.92666">
        <ele>262</ele>
        <time>2016-07-30T07:53:41.017Z</time>
      </trkpt>
      <trkpt lat="43.14467" lon="5.92666">
        <ele>262</ele>
        <time>2016-07-30T07:53:42.017Z</time>
      </trkpt>
      <trkpt lat="43.14469" lon="5.92666">
        <ele>263</ele>
        <time>2016-07-30T07:53:43.017Z</time>
      </trkpt>
      <trkpt lat="43.14471" lon="5.92666">
        <ele>263</ele>
        <time>2016-07-30T07:53:44.017Z</time>
      </trkpt>
      <trkpt lat="43.14472" lon="5.92666">
        <ele>263</ele>
        <time>2016-07-30T07:53:45.017Z</time>
      </trkpt>
      <trkpt lat="43.14474" lon="5.92665">
        <ele>264</ele>
        <time>2016-07-30T07:53:46.017Z</time>
      </trkpt>
      <trkpt lat="43.14476" lon="5.92665">
        <ele>264</ele>
        <time>2016-07-30T07:53:47.017Z</time>
      </trkpt>
      <trkpt lat="43.14477" lon="5.92665">
        <ele>264</ele>
        <time>2016-07-30T07:53:48.017Z</time>
      </trkpt>
      <trkpt lat="43.14479" lon="5.92665">
        <ele>265</ele>
        <time>2016-07-30T07:53:49.017Z</time>
      </trkpt>
      <trkpt lat="43.14481" lon="5.92665">
        <ele>265</ele>
        <time>2016-07-30T07:53:50.017Z</time>
      </trkpt>
      <trkpt lat="43.14482" lon="5.92665">
        <ele>265</ele>
        <time>2016-07-30T07:53:51.017Z</time>
      </trkpt>
      <trkpt lat="43.14484" lon="5.92665">
        <ele>266</ele>
        <time>2016-07-30T07:53:52.017Z</time>
      </trkpt>
      <trkpt lat="43.14485" lon="5.92665">
        <ele>266</ele>
        <time>2016-07-30T07:53:53.017Z</time>
      </trkpt>
      <trkpt lat="43.14487" lon="5.92665">
        <ele>266</ele>
        <time>2016-07-30T07:53:54.017Z</time>
      </trkpt>
      <trkpt lat="43.14489" lon="5.92665">
        <ele>267</ele>
        <time>2016-07-30T07:53:55.017Z</time>
      </trkpt>
      <trkpt lat="43.14491" lon="5.92664">
        <ele>267</ele>
        <time>2016-07-30T07:53:56.017Z</time>
      </trkpt>
      <trkpt lat="43.14492" lon="5.92664">
        <ele>268</ele>
        <time>2016-07-30T07:53:57.017Z</time>
      </trkpt>
      <trkpt lat="43.14494" lon="5.92664">
        <ele>268</ele>
        <time>2016-07-30T07:53:58.017Z</time>
      </trkpt>
      <trkpt lat="43.14496" lon="5.92664">
        <ele>268</ele>
        <time>2016-07-30T07:53:59.017Z</time>
      </trkpt>
      <trkpt lat="43.14498" lon="5.92663">
        <ele>268</ele>
        <time>2016-07-30T07:54:00.017Z</time>
      </trkpt>
      <trkpt lat="43.145" lon="5.92663">
        <ele>268</ele>
        <time>2016-07-30T07:54:01.017Z</time>
      </trkpt>
      <trkpt lat="43.14502" lon="5.92662">
        <ele>268</ele>
        <time>2016-07-30T07:54:02.017Z</time>
      </trkpt>
      <trkpt lat="43.14504" lon="5.92662">
        <ele>268</ele>
        <time>2016-07-30T07:54:03.017Z</time>
      </trkpt>
      <trkpt lat="43.14506" lon="5.92662">
        <ele>269</ele>
        <time>2016-07-30T07:54:04.017Z</time>
      </trkpt>
      <trkpt lat="43.14508" lon="5.92662">
        <ele>269</ele>
        <time>2016-07-30T07:54:05.017Z</time>
      </trkpt>
      <trkpt lat="43.14511" lon="5.92663">
        <ele>269</ele>
        <time>2016-07-30T07:54:06.017Z</time>
      </trkpt>
      <trkpt lat="43.14513" lon="5.92663">
        <ele>269</ele>
        <time>2016-07-30T07:54:07.017Z</time>
      </trkpt>
      <trkpt lat="43.14515" lon="5.92663">
        <ele>269</ele>
        <time>2016-07-30T07:54:08.017Z</time>
      </trkpt>
      <trkpt lat="43.14517" lon="5.92663">
        <ele>269</ele>
        <time>2016-07-30T07:54:09.017Z</time>
      </trkpt>
      <trkpt lat="43.14519" lon="5.92664">
        <ele>269</ele>
        <time>2016-07-30T07:54:10.017Z</time>
      </trkpt>
      <trkpt lat="43.14521" lon="5.92664">
        <ele>269</ele>
        <time>2016-07-30T07:54:11.017Z</time>
      </trkpt>
      <trkpt lat="43.14523" lon="5.92665">
        <ele>270</ele>
        <time>2016-07-30T07:54:12.017Z</time>
      </trkpt>
      <trkpt lat="43.14525" lon="5.92665">
        <ele>270</ele>
        <time>2016-07-30T07:54:13.017Z</time>
      </trkpt>
      <trkpt lat="43.14527" lon="5.92666">
        <ele>271</ele>
        <time>2016-07-30T07:54:14.017Z</time>
      </trkpt>
      <trkpt lat="43.14529" lon="5.92666">
        <ele>271</ele>
        <time>2016-07-30T07:54:15.017Z</time>
      </trkpt>
      <trkpt lat="43.14532" lon="5.92667">
        <ele>271</ele>
        <time>2016-07-30T07:54:16.017Z</time>
      </trkpt>
      <trkpt lat="43.14534" lon="5.92667">
        <ele>272</ele>
        <time>2016-07-30T07:54:17.017Z</time>
      </trkpt>
      <trkpt lat="43.14536" lon="5.92667">
        <ele>272</ele>
        <time>2016-07-30T07:54:18.017Z</time>
      </trkpt>
      <trkpt lat="43.14538" lon="5.92667">
        <ele>272</ele>
        <time>2016-07-30T07:54:19.017Z</time>
      </trkpt>
      <trkpt lat="43.1454" lon="5.92667">
        <ele>272</ele>
        <time>2016-07-30T07:54:20.017Z</time>
      </trkpt>
      <trkpt lat="43.14542" lon="5.92668">
        <ele>273</ele>
        <time>2016-07-30T07:54:21.017Z</time>
      </trkpt>
      <trkpt lat="43.14544" lon="5.92668">
        <ele>273</ele>
        <time>2016-07-30T07:54:22.017Z</time>
      </trkpt>
      <trkpt lat="43.14546" lon="5.92669">
        <ele>273</ele>
        <time>2016-07-30T07:54:23.017Z</time>
      </trkpt>
      <trkpt lat="43.14549" lon="5.9267">
        <ele>273</ele>
        <time>2016-07-30T07:54:24.017Z</time>
      </trkpt>
      <trkpt lat="43.1455" lon="5.9267">
        <ele>274</ele>
        <time>2016-07-30T07:54:25.017Z</time>
      </trkpt>
      <trkpt lat="43.14552" lon="5.92671">
        <ele>274</ele>
        <time>2016-07-30T07:54:26.017Z</time>
      </trkpt>
      <trkpt lat="43.14554" lon="5.92672">
        <ele>274</ele>
        <time>2016-07-30T07:54:27.017Z</time>
      </trkpt>
      <trkpt lat="43.14556" lon="5.92672">
        <ele>275</ele>
        <time>2016-07-30T07:54:28.017Z</time>
      </trkpt>
      <trkpt lat="43.14558" lon="5.92673">
        <ele>275</ele>
        <time>2016-07-30T07:54:29.017Z</time>
      </trkpt>
      <trkpt lat="43.1456" lon="5.92673">
        <ele>276</ele>
        <time>2016-07-30T07:54:30.017Z</time>
      </trkpt>
      <trkpt lat="43.14561" lon="5.92674">
        <ele>276</ele>
        <time>2016-07-30T07:54:31.017Z</time>
      </trkpt>
      <trkpt lat="43.14563" lon="5.92675">
        <ele>276</ele>
        <time>2016-07-30T07:54:32.017Z</time>
      </trkpt>
      <trkpt lat="43.14565" lon="5.92675">
        <ele>277</ele>
        <time>2016-07-30T07:54:33.017Z</time>
      </trkpt>
      <trkpt lat="43.14567" lon="5.92675">
        <ele>277</ele>
        <time>2016-07-30T07:54:34.017Z</time>
      </trkpt>
      <trkpt lat="43.14569" lon="5.92676">
        <ele>277</ele>
        <time>2016-07-30T07:54:35.017Z</time>
      </trkpt>
      <trkpt lat="43.14571" lon="5.92676">
        <ele>278</ele>
        <time>2016-07-30T07:54:36.017Z</time>
      </trkpt>
      <trkpt lat="43.14572" lon="5.92677">
        <ele>278</ele>
        <time>2016-07-30T07:54:37.017Z</time>
      </trkpt>
      <trkpt lat="43.14574" lon="5.92677">
        <ele>278</ele>
        <time>2016-07-30T07:54:38.017Z</time>
      </trkpt>
      <trkpt lat="43.14576" lon="5.92678">
        <ele>279</ele>
        <time>2016-07-30T07:54:39.017Z</time>
      </trkpt>
      <trkpt lat="43.14578" lon="5.92678">
        <ele>279</ele>
        <time>2016-07-30T07:54:40.017Z</time>
      </trkpt>
      <trkpt lat="43.14579" lon="5.92679">
        <ele>279</ele>
        <time>2016-07-30T07:54:41.017Z</time>
      </trkpt>
      <trkpt lat="43.14581" lon="5.92679">
        <ele>280</ele>
        <time>2016-07-30T07:54:42.017Z</time>
      </trkpt>
      <trkpt lat="43.14582" lon="5.9268">
        <ele>280</ele>
        <time>2016-07-30T07:54:43.017Z</time>
      </trkpt>
      <trkpt lat="43.14584" lon="5.92681">
        <ele>280</ele>
        <time>2016-07-30T07:54:44.017Z</time>
      </trkpt>
      <trkpt lat="43.14586" lon="5.92681">
        <ele>280</ele>
        <time>2016-07-30T07:54:45.017Z</time>
      </trkpt>
      <trkpt lat="43.14587" lon="5.92682">
        <ele>280</ele>
        <time>2016-07-30T07:54:46.017Z</time>
      </trkpt>
      <trkpt lat="43.14589" lon="5.92683">
        <ele>280</ele>
        <time>2016-07-30T07:54:47.017Z</time>
      </trkpt>
      <trkpt lat="43.14591" lon="5.92684">
        <ele>280</ele>
        <time>2016-07-30T07:54:48.017Z</time>
      </trkpt>
      <trkpt lat="43.14593" lon="5.92684">
        <ele>280</ele>
        <time>2016-07-30T07:54:49.017Z</time>
      </trkpt>
      <trkpt lat="43.14594" lon="5.92685">
        <ele>280</ele>
        <time>2016-07-30T07:54:50.017Z</time>
      </trkpt>
      <trkpt lat="43.14596" lon="5.92686">
        <ele>281</ele>
        <time>2016-07-30T07:54:51.017Z</time>
      </trkpt>
      <trkpt lat="43.14597" lon="5.92686">
        <ele>281</ele>
        <time>2016-07-30T07:54:52.017Z</time>
      </trkpt>
      <trkpt lat="43.14599" lon="5.92686">
        <ele>282</ele>
        <time>2016-07-30T07:54:53.017Z</time>
      </trkpt>
      <trkpt lat="43.14601" lon="5.92687">
        <ele>282</ele>
        <time>2016-07-30T07:54:54.017Z</time>
      </trkpt>
      <trkpt lat="43.14602" lon="5.92687">
        <ele>282</ele>
        <time>2016-07-30T07:54:55.017Z</time>
      </trkpt>
      <trkpt lat="43.14604" lon="5.92687">
        <ele>282</ele>
        <time>2016-07-30T07:54:56.017Z</time>
      </trkpt>
      <trkpt lat="43.14606" lon="5.92686">
        <ele>282</ele>
        <time>2016-07-30T07:54:57.017Z</time>
      </trkpt>
      <trkpt lat="43.14608" lon="5.92686">
        <ele>283</ele>
        <time>2016-07-30T07:54:58.017Z</time>
      </trkpt>
      <trkpt lat="43.1461" lon="5.92685">
        <ele>283</ele>
        <time>2016-07-30T07:54:59.017Z</time>
      </trkpt>
      <trkpt lat="43.14611" lon="5.92683">
        <ele>283</ele>
        <time>2016-07-30T07:55:00.017Z</time>
      </trkpt>
      <trkpt lat="43.14613" lon="5.92681">
        <ele>283</ele>
        <time>2016-07-30T07:55:01.017Z</time>
      </trkpt>
      <trkpt lat="43.14614" lon="5.92679">
        <ele>283</ele>
        <time>2016-07-30T07:55:02.017Z</time>
      </trkpt>
      <trkpt lat="43.14615" lon="5.92677">
        <ele>283</ele>
        <time>2016-07-30T07:55:03.017Z</time>
      </trkpt>
      <trkpt lat="43.14616" lon="5.92675">
        <ele>285</ele>
        <time>2016-07-30T07:55:04.017Z</time>
      </trkpt>
      <trkpt lat="43.14617" lon="5.92672">
        <ele>286</ele>
        <time>2016-07-30T07:55:05.017Z</time>
      </trkpt>
      <trkpt lat="43.14617" lon="5.92668">
        <ele>285</ele>
        <time>2016-07-30T07:55:06.017Z</time>
      </trkpt>
      <trkpt lat="43.14617" lon="5.92665">
        <ele>286</ele>
        <time>2016-07-30T07:55:07.017Z</time>
      </trkpt>
      <trkpt lat="43.14617" lon="5.92662">
        <ele>286</ele>
        <time>2016-07-30T07:55:08.017Z</time>
      </trkpt>
      <trkpt lat="43.14617" lon="5.92659">
        <ele>286</ele>
        <time>2016-07-30T07:55:09.017Z</time>
      </trkpt>
      <trkpt lat="43.14616" lon="5.92656">
        <ele>287</ele>
        <time>2016-07-30T07:55:10.017Z</time>
      </trkpt>
      <trkpt lat="43.14616" lon="5.92653">
        <ele>286</ele>
        <time>2016-07-30T07:55:11.017Z</time>
      </trkpt>
      <trkpt lat="43.14615" lon="5.9265">
        <ele>286</ele>
        <time>2016-07-30T07:55:12.017Z</time>
      </trkpt>
      <trkpt lat="43.14615" lon="5.92647">
        <ele>285</ele>
        <time>2016-07-30T07:55:13.017Z</time>
      </trkpt>
      <trkpt lat="43.14615" lon="5.92645">
        <ele>286</ele>
        <time>2016-07-30T07:55:14.017Z</time>
      </trkpt>
      <trkpt lat="43.14614" lon="5.92642">
        <ele>286</ele>
        <time>2016-07-30T07:55:15.017Z</time>
      </trkpt>
      <trkpt lat="43.14613" lon="5.92639">
        <ele>286</ele>
        <time>2016-07-30T07:55:16.017Z</time>
      </trkpt>
      <trkpt lat="43.14613" lon="5.92636">
        <ele>286</ele>
        <time>2016-07-30T07:55:17.017Z</time>
      </trkpt>
      <trkpt lat="43.14612" lon="5.92634">
        <ele>286</ele>
        <time>2016-07-30T07:55:18.017Z</time>
      </trkpt>
      <trkpt lat="43.14612" lon="5.92631">
        <ele>287</ele>
        <time>2016-07-30T07:55:19.017Z</time>
      </trkpt>
      <trkpt lat="43.14611" lon="5.92628">
        <ele>287</ele>
        <time>2016-07-30T07:55:20.017Z</time>
      </trkpt>
      <trkpt lat="43.14611" lon="5.92625">
        <ele>287</ele>
        <time>2016-07-30T07:55:21.017Z</time>
      </trkpt>
      <trkpt lat="43.1461" lon="5.92623">
        <ele>287</ele>
        <time>2016-07-30T07:55:22.017Z</time>
      </trkpt>
      <trkpt lat="43.1461" lon="5.9262">
        <ele>288</ele>
        <time>2016-07-30T07:55:23.017Z</time>
      </trkpt>
      <trkpt lat="43.1461" lon="5.92617">
        <ele>288</ele>
        <time>2016-07-30T07:55:24.017Z</time>
      </trkpt>
      <trkpt lat="43.1461" lon="5.92615">
        <ele>288</ele>
        <time>2016-07-30T07:55:25.017Z</time>
      </trkpt>
      <trkpt lat="43.1461" lon="5.92612">
        <ele>288</ele>
        <time>2016-07-30T07:55:26.017Z</time>
      </trkpt>
      <trkpt lat="43.1461" lon="5.9261">
        <ele>288</ele>
        <time>2016-07-30T07:55:27.017Z</time>
      </trkpt>
      <trkpt lat="43.14609" lon="5.92607">
        <ele>289</ele>
        <time>2016-07-30T07:55:28.017Z</time>
      </trkpt>
      <trkpt lat="43.14609" lon="5.92604">
        <ele>289</ele>
        <time>2016-07-30T07:55:29.017Z</time>
      </trkpt>
      <trkpt lat="43.14609" lon="5.92602">
        <ele>290</ele>
        <time>2016-07-30T07:55:30.017Z</time>
      </trkpt>
      <trkpt lat="43.14609" lon="5.92599">
        <ele>290</ele>
        <time>2016-07-30T07:55:31.017Z</time>
      </trkpt>
      <trkpt lat="43.14609" lon="5.92596">
        <ele>290</ele>
        <time>2016-07-30T07:55:32.017Z</time>
      </trkpt>
      <trkpt lat="43.14609" lon="5.92594">
        <ele>290</ele>
        <time>2016-07-30T07:55:33.017Z</time>
      </trkpt>
      <trkpt lat="43.1461" lon="5.92591">
        <ele>291</ele>
        <time>2016-07-30T07:55:34.017Z</time>
      </trkpt>
      <trkpt lat="43.1461" lon="5.92589">
        <ele>291</ele>
        <time>2016-07-30T07:55:35.017Z</time>
      </trkpt>
      <trkpt lat="43.1461" lon="5.92586">
        <ele>291</ele>
        <time>2016-07-30T07:55:36.017Z</time>
      </trkpt>
      <trkpt lat="43.14611" lon="5.92584">
        <ele>291</ele>
        <time>2016-07-30T07:55:37.017Z</time>
      </trkpt>
      <trkpt lat="43.14611" lon="5.92581">
        <ele>291</ele>
        <time>2016-07-30T07:55:38.017Z</time>
      </trkpt>
      <trkpt lat="43.14611" lon="5.92579">
        <ele>292</ele>
        <time>2016-07-30T07:55:39.017Z</time>
      </trkpt>
      <trkpt lat="43.14611" lon="5.92576">
        <ele>292</ele>
        <time>2016-07-30T07:55:40.017Z</time>
      </trkpt>
      <trkpt lat="43.14611" lon="5.92574">
        <ele>292</ele>
        <time>2016-07-30T07:55:41.017Z</time>
      </trkpt>
      <trkpt lat="43.14612" lon="5.92571">
        <ele>293</ele>
        <time>2016-07-30T07:55:42.017Z</time>
      </trkpt>
      <trkpt lat="43.14612" lon="5.92568">
        <ele>293</ele>
        <time>2016-07-30T07:55:43.017Z</time>
      </trkpt>
      <trkpt lat="43.14613" lon="5.92565">
        <ele>293</ele>
        <time>2016-07-30T07:55:44.017Z</time>
      </trkpt>
      <trkpt lat="43.14613" lon="5.92563">
        <ele>293</ele>
        <time>2016-07-30T07:55:45.017Z</time>
      </trkpt>
      <trkpt lat="43.14614" lon="5.9256">
        <ele>293</ele>
        <time>2016-07-30T07:55:46.017Z</time>
      </trkpt>
      <trkpt lat="43.14615" lon="5.92558">
        <ele>293</ele>
        <time>2016-07-30T07:55:47.017Z</time>
      </trkpt>
      <trkpt lat="43.14616" lon="5.92555">
        <ele>294</ele>
        <time>2016-07-30T07:55:48.017Z</time>
      </trkpt>
      <trkpt lat="43.14616" lon="5.92552">
        <ele>294</ele>
        <time>2016-07-30T07:55:49.017Z</time>
      </trkpt>
      <trkpt lat="43.14617" lon="5.9255">
        <ele>295</ele>
        <time>2016-07-30T07:55:50.017Z</time>
      </trkpt>
      <trkpt lat="43.14617" lon="5.92547">
        <ele>295</ele>
        <time>2016-07-30T07:55:51.017Z</time>
      </trkpt>
      <trkpt lat="43.14618" lon="5.92545">
        <ele>295</ele>
        <time>2016-07-30T07:55:52.017Z</time>
      </trkpt>
      <trkpt lat="43.14619" lon="5.92542">
        <ele>295</ele>
        <time>2016-07-30T07:55:53.017Z</time>
      </trkpt>
      <trkpt lat="43.14619" lon="5.92539">
        <ele>296</ele>
        <time>2016-07-30T07:55:54.017Z</time>
      </trkpt>
      <trkpt lat="43.1462" lon="5.92537">
        <ele>296</ele>
        <time>2016-07-30T07:55:55.017Z</time>
      </trkpt>
      <trkpt lat="43.14621" lon="5.92535">
        <ele>296</ele>
        <time>2016-07-30T07:55:56.017Z</time>
      </trkpt>
      <trkpt lat="43.14622" lon="5.92532">
        <ele>296</ele>
        <time>2016-07-30T07:55:57.017Z</time>
      </trkpt>
      <trkpt lat="43.14623" lon="5.9253">
        <ele>296</ele>
        <time>2016-07-30T07:55:58.017Z</time>
      </trkpt>
      <trkpt lat="43.14623" lon="5.92527">
        <ele>297</ele>
        <time>2016-07-30T07:55:59.017Z</time>
      </trkpt>
      <trkpt lat="43.14624" lon="5.92525">
        <ele>297</ele>
        <time>2016-07-30T07:56:00.017Z</time>
      </trkpt>
      <trkpt lat="43.14625" lon="5.92522">
        <ele>297</ele>
        <time>2016-07-30T07:56:01.017Z</time>
      </trkpt>
      <trkpt lat="43.14626" lon="5.9252">
        <ele>298</ele>
        <time>2016-07-30T07:56:02.017Z</time>
      </trkpt>
      <trkpt lat="43.14627" lon="5.92518">
        <ele>298</ele>
        <time>2016-07-30T07:56:03.017Z</time>
      </trkpt>
      <trkpt lat="43.14628" lon="5.92515">
        <ele>299</ele>
        <time>2016-07-30T07:56:04.017Z</time>
      </trkpt>
      <trkpt lat="43.14629" lon="5.92513">
        <ele>299</ele>
        <time>2016-07-30T07:56:05.017Z</time>
      </trkpt>
      <trkpt lat="43.1463" lon="5.92511">
        <ele>299</ele>
        <time>2016-07-30T07:56:06.017Z</time>
      </trkpt>
      <trkpt lat="43.14632" lon="5.9251">
        <ele>300</ele>
        <time>2016-07-30T07:56:07.017Z</time>
      </trkpt>
      <trkpt lat="43.14633" lon="5.92509">
        <ele>300</ele>
        <time>2016-07-30T07:56:08.017Z</time>
      </trkpt>
      <trkpt lat="43.14635" lon="5.92508">
        <ele>300</ele>
        <time>2016-07-30T07:56:09.017Z</time>
      </trkpt>
      <trkpt lat="43.14637" lon="5.92507">
        <ele>301</ele>
        <time>2016-07-30T07:56:10.017Z</time>
      </trkpt>
      <trkpt lat="43.14639" lon="5.92506">
        <ele>301</ele>
        <time>2016-07-30T07:56:11.017Z</time>
      </trkpt>
      <trkpt lat="43.1464" lon="5.92505">
        <ele>301</ele>
        <time>2016-07-30T07:56:12.017Z</time>
      </trkpt>
      <trkpt lat="43.14642" lon="5.92504">
        <ele>301</ele>
        <time>2016-07-30T07:56:13.017Z</time>
      </trkpt>
      <trkpt lat="43.14644" lon="5.92504">
        <ele>302</ele>
        <time>2016-07-30T07:56:14.017Z</time>
      </trkpt>
      <trkpt lat="43.14646" lon="5.92504">
        <ele>302</ele>
        <time>2016-07-30T07:56:15.017Z</time>
      </trkpt>
      <trkpt lat="43.14648" lon="5.92504">
        <ele>302</ele>
        <time>2016-07-30T07:56:16.017Z</time>
      </trkpt>
      <trkpt lat="43.14651" lon="5.92505">
        <ele>301</ele>
        <time>2016-07-30T07:56:17.017Z</time>
      </trkpt>
      <trkpt lat="43.14653" lon="5.92506">
        <ele>301</ele>
        <time>2016-07-30T07:56:18.017Z</time>
      </trkpt>
      <trkpt lat="43.14655" lon="5.92507">
        <ele>301</ele>
        <time>2016-07-30T07:56:19.017Z</time>
      </trkpt>
      <trkpt lat="43.14657" lon="5.92507">
        <ele>301</ele>
        <time>2016-07-30T07:56:20.017Z</time>
      </trkpt>
      <trkpt lat="43.14659" lon="5.92508">
        <ele>302</ele>
        <time>2016-07-30T07:56:21.017Z</time>
      </trkpt>
      <trkpt lat="43.14661" lon="5.92509">
        <ele>303</ele>
        <time>2016-07-30T07:56:22.017Z</time>
      </trkpt>
      <trkpt lat="43.14663" lon="5.9251">
        <ele>302</ele>
        <time>2016-07-30T07:56:23.017Z</time>
      </trkpt>
      <trkpt lat="43.14665" lon="5.92511">
        <ele>303</ele>
        <time>2016-07-30T07:56:24.017Z</time>
      </trkpt>
      <trkpt lat="43.14668" lon="5.92511">
        <ele>303</ele>
        <time>2016-07-30T07:56:25.017Z</time>
      </trkpt>
      <trkpt lat="43.1467" lon="5.92511">
        <ele>303</ele>
        <time>2016-07-30T07:56:26.017Z</time>
      </trkpt>
      <trkpt lat="43.14673" lon="5.92511">
        <ele>303</ele>
        <time>2016-07-30T07:56:27.017Z</time>
      </trkpt>
      <trkpt lat="43.14675" lon="5.9251">
        <ele>304</ele>
        <time>2016-07-30T07:56:28.017Z</time>
      </trkpt>
      <trkpt lat="43.14677" lon="5.92508">
        <ele>304</ele>
        <time>2016-07-30T07:56:29.017Z</time>
      </trkpt>
      <trkpt lat="43.14679" lon="5.92506">
        <ele>305</ele>
        <time>2016-07-30T07:56:30.017Z</time>
      </trkpt>
      <trkpt lat="43.1468" lon="5.92503">
        <ele>305</ele>
        <time>2016-07-30T07:56:31.017Z</time>
      </trkpt>
      <trkpt lat="43.14681" lon="5.925">
        <ele>306</ele>
        <time>2016-07-30T07:56:32.017Z</time>
      </trkpt>
      <trkpt lat="43.14682" lon="5.92497">
        <ele>306</ele>
        <time>2016-07-30T07:56:33.017Z</time>
      </trkpt>
      <trkpt lat="43.14683" lon="5.92494">
        <ele>306</ele>
        <time>2016-07-30T07:56:34.017Z</time>
      </trkpt>
      <trkpt lat="43.14684" lon="5.92492">
        <ele>307</ele>
        <time>2016-07-30T07:56:35.017Z</time>
      </trkpt>
      <trkpt lat="43.14684" lon="5.92489">
        <ele>307</ele>
        <time>2016-07-30T07:56:36.017Z</time>
      </trkpt>
      <trkpt lat="43.14684" lon="5.92486">
        <ele>307</ele>
        <time>2016-07-30T07:56:37.017Z</time>
      </trkpt>
      <trkpt lat="43.14684" lon="5.92484">
        <ele>307</ele>
        <time>2016-07-30T07:56:38.017Z</time>
      </trkpt>
      <trkpt lat="43.14685" lon="5.92481">
        <ele>307</ele>
        <time>2016-07-30T07:56:39.017Z</time>
      </trkpt>
      <trkpt lat="43.14685" lon="5.92479">
        <ele>307</ele>
        <time>2016-07-30T07:56:40.017Z</time>
      </trkpt>
      <trkpt lat="43.14686" lon="5.92476">
        <ele>307</ele>
        <time>2016-07-30T07:56:41.017Z</time>
      </trkpt>
      <trkpt lat="43.14686" lon="5.92473">
        <ele>307</ele>
        <time>2016-07-30T07:56:42.017Z</time>
      </trkpt>
      <trkpt lat="43.14687" lon="5.92471">
        <ele>308</ele>
        <time>2016-07-30T07:56:43.017Z</time>
      </trkpt>
      <trkpt lat="43.14688" lon="5.92468">
        <ele>308</ele>
        <time>2016-07-30T07:56:44.017Z</time>
      </trkpt>
      <trkpt lat="43.14688" lon="5.92465">
        <ele>308</ele>
        <time>2016-07-30T07:56:45.017Z</time>
      </trkpt>
      <trkpt lat="43.14689" lon="5.92463">
        <ele>308</ele>
        <time>2016-07-30T07:56:46.017Z</time>
      </trkpt>
      <trkpt lat="43.1469" lon="5.9246">
        <ele>308</ele>
        <time>2016-07-30T07:56:47.017Z</time>
      </trkpt>
      <trkpt lat="43.14691" lon="5.92457">
        <ele>309</ele>
        <time>2016-07-30T07:56:48.017Z</time>
      </trkpt>
      <trkpt lat="43.14693" lon="5.92455">
        <ele>310</ele>
        <time>2016-07-30T07:56:49.017Z</time>
      </trkpt>
      <trkpt lat="43.14694" lon="5.92453">
        <ele>310</ele>
        <time>2016-07-30T07:56:50.017Z</time>
      </trkpt>
      <trkpt lat="43.14696" lon="5.9245">
        <ele>310</ele>
        <time>2016-07-30T07:56:51.017Z</time>
      </trkpt>
      <trkpt lat="43.14698" lon="5.92448">
        <ele>310</ele>
        <time>2016-07-30T07:56:52.017Z</time>
      </trkpt>
      <trkpt lat="43.147" lon="5.92446">
        <ele>310</ele>
        <time>2016-07-30T07:56:53.017Z</time>
      </trkpt>
      <trkpt lat="43.14702" lon="5.92444">
        <ele>310</ele>
        <time>2016-07-30T07:56:54.017Z</time>
      </trkpt>
      <trkpt lat="43.14704" lon="5.92442">
        <ele>311</ele>
        <time>2016-07-30T07:56:55.017Z</time>
      </trkpt>
      <trkpt lat="43.14706" lon="5.9244">
        <ele>311</ele>
        <time>2016-07-30T07:56:56.017Z</time>
      </trkpt>
      <trkpt lat="43.14708" lon="5.92438">
        <ele>311</ele>
        <time>2016-07-30T07:56:57.017Z</time>
      </trkpt>
      <trkpt lat="43.1471" lon="5.92436">
        <ele>311</ele>
        <time>2016-07-30T07:56:58.017Z</time>
      </trkpt>
      <trkpt lat="43.14713" lon="5.92434">
        <ele>311</ele>
        <time>2016-07-30T07:56:59.017Z</time>
      </trkpt>
      <trkpt lat="43.14715" lon="5.92433">
        <ele>311</ele>
        <time>2016-07-30T07:57:00.017Z</time>
      </trkpt>
      <trkpt lat="43.14718" lon="5.92431">
        <ele>312</ele>
        <time>2016-07-30T07:57:01.017Z</time>
      </trkpt>
      <trkpt lat="43.1472" lon="5.92429">
        <ele>312</ele>
        <time>2016-07-30T07:57:02.017Z</time>
      </trkpt>
      <trkpt lat="43.14723" lon="5.92427">
        <ele>312</ele>
        <time>2016-07-30T07:57:03.017Z</time>
      </trkpt>
      <trkpt lat="43.14725" lon="5.92425">
        <ele>312</ele>
        <time>2016-07-30T07:57:04.017Z</time>
      </trkpt>
      <trkpt lat="43.14727" lon="5.92423">
        <ele>312</ele>
        <time>2016-07-30T07:57:05.017Z</time>
      </trkpt>
      <trkpt lat="43.1473" lon="5.92421">
        <ele>311</ele>
        <time>2016-07-30T07:57:06.017Z</time>
      </trkpt>
      <trkpt lat="43.14732" lon="5.92418">
        <ele>312</ele>
        <time>2016-07-30T07:57:07.017Z</time>
      </trkpt>
      <trkpt lat="43.14734" lon="5.92415">
        <ele>312</ele>
        <time>2016-07-30T07:57:08.017Z</time>
      </trkpt>
      <trkpt lat="43.14735" lon="5.92411">
        <ele>311</ele>
        <time>2016-07-30T07:57:09.017Z</time>
      </trkpt>
      <trkpt lat="43.14737" lon="5.92407">
        <ele>312</ele>
        <time>2016-07-30T07:57:10.017Z</time>
      </trkpt>
      <trkpt lat="43.14738" lon="5.92404">
        <ele>312</ele>
        <time>2016-07-30T07:57:11.017Z</time>
      </trkpt>
      <trkpt lat="43.14739" lon="5.924">
        <ele>311</ele>
        <time>2016-07-30T07:57:12.017Z</time>
      </trkpt>
      <trkpt lat="43.14741" lon="5.92397">
        <ele>311</ele>
        <time>2016-07-30T07:57:13.017Z</time>
      </trkpt>
      <trkpt lat="43.14742" lon="5.92393">
        <ele>311</ele>
        <time>2016-07-30T07:57:14.017Z</time>
      </trkpt>
      <trkpt lat="43.14743" lon="5.92389">
        <ele>311</ele>
        <time>2016-07-30T07:57:15.017Z</time>
      </trkpt>
      <trkpt lat="43.14743" lon="5.92385">
        <ele>311</ele>
        <time>2016-07-30T07:57:16.017Z</time>
      </trkpt>
      <trkpt lat="43.14744" lon="5.92381">
        <ele>311</ele>
        <time>2016-07-30T07:57:17.017Z</time>
      </trkpt>
      <trkpt lat="43.14744" lon="5.92377">
        <ele>311</ele>
        <time>2016-07-30T07:57:18.017Z</time>
      </trkpt>
      <trkpt lat="43.14744" lon="5.92373">
        <ele>312</ele>
        <time>2016-07-30T07:57:19.017Z</time>
      </trkpt>
      <trkpt lat="43.14743" lon="5.92369">
        <ele>312</ele>
        <time>2016-07-30T07:57:20.017Z</time>
      </trkpt>
      <trkpt lat="43.14743" lon="5.92365">
        <ele>312</ele>
        <time>2016-07-30T07:57:21.017Z</time>
      </trkpt>
      <trkpt lat="43.14743" lon="5.92362">
        <ele>312</ele>
        <time>2016-07-30T07:57:22.017Z</time>
      </trkpt>
      <trkpt lat="43.14743" lon="5.92358">
        <ele>313</ele>
        <time>2016-07-30T07:57:23.017Z</time>
      </trkpt>
      <trkpt lat="43.14743" lon="5.92354">
        <ele>313</ele>
        <time>2016-07-30T07:57:24.017Z</time>
      </trkpt>
      <trkpt lat="43.14743" lon="5.92351">
        <ele>313</ele>
        <time>2016-07-30T07:57:25.017Z</time>
      </trkpt>
      <trkpt lat="43.14743" lon="5.92348">
        <ele>313</ele>
        <time>2016-07-30T07:57:26.017Z</time>
      </trkpt>
      <trkpt lat="43.14742" lon="5.92345">
        <ele>313</ele>
        <time>2016-07-30T07:57:27.017Z</time>
      </trkpt>
      <trkpt lat="43.14742" lon="5.92341">
        <ele>314</ele>
        <time>2016-07-30T07:57:28.017Z</time>
      </trkpt>
      <trkpt lat="43.14742" lon="5.92338">
        <ele>313</ele>
        <time>2016-07-30T07:57:29.017Z</time>
      </trkpt>
      <trkpt lat="43.14741" lon="5.92335">
        <ele>313</ele>
        <time>2016-07-30T07:57:30.017Z</time>
      </trkpt>
      <trkpt lat="43.14741" lon="5.92331">
        <ele>313</ele>
        <time>2016-07-30T07:57:31.017Z</time>
      </trkpt>
      <trkpt lat="43.14741" lon="5.92328">
        <ele>313</ele>
        <time>2016-07-30T07:57:32.017Z</time>
      </trkpt>
      <trkpt lat="43.14741" lon="5.92325">
        <ele>314</ele>
        <time>2016-07-30T07:57:33.017Z</time>
      </trkpt>
      <trkpt lat="43.1474" lon="5.92321">
        <ele>314</ele>
        <time>2016-07-30T07:57:34.017Z</time>
      </trkpt>
      <trkpt lat="43.1474" lon="5.92318">
        <ele>315</ele>
        <time>2016-07-30T07:57:35.017Z</time>
      </trkpt>
      <trkpt lat="43.1474" lon="5.92315">
        <ele>315</ele>
        <time>2016-07-30T07:57:36.017Z</time>
      </trkpt>
      <trkpt lat="43.1474" lon="5.92312">
        <ele>315</ele>
        <time>2016-07-30T07:57:37.017Z</time>
      </trkpt>
      <trkpt lat="43.14739" lon="5.92309">
        <ele>316</ele>
        <time>2016-07-30T07:57:38.017Z</time>
      </trkpt>
      <trkpt lat="43.14739" lon="5.92306">
        <ele>316</ele>
        <time>2016-07-30T07:57:39.017Z</time>
      </trkpt>
      <trkpt lat="43.14738" lon="5.92303">
        <ele>316</ele>
        <time>2016-07-30T07:57:40.017Z</time>
      </trkpt>
      <trkpt lat="43.14738" lon="5.923">
        <ele>317</ele>
        <time>2016-07-30T07:57:41.017Z</time>
      </trkpt>
      <trkpt lat="43.14737" lon="5.92297">
        <ele>318</ele>
        <time>2016-07-30T07:57:42.017Z</time>
      </trkpt>
      <trkpt lat="43.14737" lon="5.92295">
        <ele>318</ele>
        <time>2016-07-30T07:57:43.017Z</time>
      </trkpt>
      <trkpt lat="43.14736" lon="5.92292">
        <ele>318</ele>
        <time>2016-07-30T07:57:44.017Z</time>
      </trkpt>
      <trkpt lat="43.14736" lon="5.92289">
        <ele>319</ele>
        <time>2016-07-30T07:57:45.017Z</time>
      </trkpt>
      <trkpt lat="43.14735" lon="5.92286">
        <ele>319</ele>
        <time>2016-07-30T07:57:46.017Z</time>
      </trkpt>
      <trkpt lat="43.14735" lon="5.92283">
        <ele>319</ele>
        <time>2016-07-30T07:57:47.017Z</time>
      </trkpt>
      <trkpt lat="43.14734" lon="5.92281">
        <ele>319</ele>
        <time>2016-07-30T07:57:48.017Z</time>
      </trkpt>
      <trkpt lat="43.14734" lon="5.92278">
        <ele>319</ele>
        <time>2016-07-30T07:57:49.017Z</time>
      </trkpt>
      <trkpt lat="43.14734" lon="5.92275">
        <ele>320</ele>
        <time>2016-07-30T07:57:50.017Z</time>
      </trkpt>
      <trkpt lat="43.14734" lon="5.92272">
        <ele>320</ele>
        <time>2016-07-30T07:57:51.017Z</time>
      </trkpt>
      <trkpt lat="43.14734" lon="5.9227">
        <ele>320</ele>
        <time>2016-07-30T07:57:52.017Z</time>
      </trkpt>
      <trkpt lat="43.14734" lon="5.92267">
        <ele>321</ele>
        <time>2016-07-30T07:57:53.017Z</time>
      </trkpt>
      <trkpt lat="43.14733" lon="5.92264">
        <ele>321</ele>
        <time>2016-07-30T07:57:54.017Z</time>
      </trkpt>
      <trkpt lat="43.14733" lon="5.92261">
        <ele>321</ele>
        <time>2016-07-30T07:57:55.017Z</time>
      </trkpt>
      <trkpt lat="43.14733" lon="5.92259">
        <ele>321</ele>
        <time>2016-07-30T07:57:56.017Z</time>
      </trkpt>
      <trkpt lat="43.14734" lon="5.92256">
        <ele>321</ele>
        <time>2016-07-30T07:57:57.017Z</time>
      </trkpt>
      <trkpt lat="43.14734" lon="5.92253">
        <ele>321</ele>
        <time>2016-07-30T07:57:58.017Z</time>
      </trkpt>
      <trkpt lat="43.14735" lon="5.9225">
        <ele>321</ele>
        <time>2016-07-30T07:57:59.017Z</time>
      </trkpt>
      <trkpt lat="43.14736" lon="5.92247">
        <ele>321</ele>
        <time>2016-07-30T07:58:00.017Z</time>
      </trkpt>
      <trkpt lat="43.14736" lon="5.92244">
        <ele>322</ele>
        <time>2016-07-30T07:58:01.017Z</time>
      </trkpt>
      <trkpt lat="43.14737" lon="5.92241">
        <ele>322</ele>
        <time>2016-07-30T07:58:02.017Z</time>
      </trkpt>
      <trkpt lat="43.14738" lon="5.92239">
        <ele>322</ele>
        <time>2016-07-30T07:58:03.017Z</time>
      </trkpt>
      <trkpt lat="43.14739" lon="5.92236">
        <ele>322</ele>
        <time>2016-07-30T07:58:04.017Z</time>
      </trkpt>
      <trkpt lat="43.1474" lon="5.92233">
        <ele>322</ele>
        <time>2016-07-30T07:58:05.017Z</time>
      </trkpt>
      <trkpt lat="43.14741" lon="5.92231">
        <ele>322</ele>
        <time>2016-07-30T07:58:06.017Z</time>
      </trkpt>
      <trkpt lat="43.14741" lon="5.92228">
        <ele>323</ele>
        <time>2016-07-30T07:58:07.017Z</time>
      </trkpt>
      <trkpt lat="43.14742" lon="5.92225">
        <ele>322</ele>
        <time>2016-07-30T07:58:08.017Z</time>
      </trkpt>
      <trkpt lat="43.14743" lon="5.92222">
        <ele>323</ele>
        <time>2016-07-30T07:58:09.017Z</time>
      </trkpt>
      <trkpt lat="43.14744" lon="5.9222">
        <ele>323</ele>
        <time>2016-07-30T07:58:10.017Z</time>
      </trkpt>
      <trkpt lat="43.14744" lon="5.92217">
        <ele>323</ele>
        <time>2016-07-30T07:58:11.017Z</time>
      </trkpt>
      <trkpt lat="43.14745" lon="5.92215">
        <ele>324</ele>
        <time>2016-07-30T07:58:12.017Z</time>
      </trkpt>
      <trkpt lat="43.14746" lon="5.92212">
        <ele>324</ele>
        <time>2016-07-30T07:58:13.017Z</time>
      </trkpt>
      <trkpt lat="43.14746" lon="5.9221">
        <ele>324</ele>
        <time>2016-07-30T07:58:14.017Z</time>
      </trkpt>
      <trkpt lat="43.14747" lon="5.92207">
        <ele>324</ele>
        <time>2016-07-30T07:58:15.017Z</time>
      </trkpt>
      <trkpt lat="43.14748" lon="5.92205">
        <ele>324</ele>
        <time>2016-07-30T07:58:16.017Z</time>
      </trkpt>
      <trkpt lat="43.14749" lon="5.92202">
        <ele>324</ele>
        <time>2016-07-30T07:58:17.017Z</time>
      </trkpt>
      <trkpt lat="43.1475" lon="5.92199">
        <ele>324</ele>
        <time>2016-07-30T07:58:18.017Z</time>
      </trkpt>
      <trkpt lat="43.1475" lon="5.92197">
        <ele>325</ele>
        <time>2016-07-30T07:58:19.017Z</time>
      </trkpt>
      <trkpt lat="43.14751" lon="5.92194">
        <ele>325</ele>
        <time>2016-07-30T07:58:20.017Z</time>
      </trkpt>
      <trkpt lat="43.14752" lon="5.92191">
        <ele>325</ele>
        <time>2016-07-30T07:58:21.017Z</time>
      </trkpt>
      <trkpt lat="43.14753" lon="5.92188">
        <ele>326</ele>
        <time>2016-07-30T07:58:22.017Z</time>
      </trkpt>
      <trkpt lat="43.14754" lon="5.92186">
        <ele>325</ele>
        <time>2016-07-30T07:58:23.017Z</time>
      </trkpt>
      <trkpt lat="43.14755" lon="5.92183">
        <ele>326</ele>
        <time>2016-07-30T07:58:24.017Z</time>
      </trkpt>
      <trkpt lat="43.14756" lon="5.9218">
        <ele>326</ele>
        <time>2016-07-30T07:58:25.017Z</time>
      </trkpt>
      <trkpt lat="43.14757" lon="5.92178">
        <ele>327</ele>
        <time>2016-07-30T07:58:26.017Z</time>
      </trkpt>
      <trkpt lat="43.14758" lon="5.92175">
        <ele>328</ele>
        <time>2016-07-30T07:58:27.017Z</time>
      </trkpt>
      <trkpt lat="43.1476" lon="5.92173">
        <ele>329</ele>
        <time>2016-07-30T07:58:28.017Z</time>
      </trkpt>
      <trkpt lat="43.14762" lon="5.92171">
        <ele>328</ele>
        <time>2016-07-30T07:58:29.017Z</time>
      </trkpt>
      <trkpt lat="43.14763" lon="5.92169">
        <ele>328</ele>
        <time>2016-07-30T07:58:30.017Z</time>
      </trkpt>
      <trkpt lat="43.14765" lon="5.92167">
        <ele>329</ele>
        <time>2016-07-30T07:58:31.017Z</time>
      </trkpt>
      <trkpt lat="43.14767" lon="5.92165">
        <ele>328</ele>
        <time>2016-07-30T07:58:32.017Z</time>
      </trkpt>
      <trkpt lat="43.14769" lon="5.92163">
        <ele>328</ele>
        <time>2016-07-30T07:58:33.017Z</time>
      </trkpt>
      <trkpt lat="43.14771" lon="5.92161">
        <ele>328</ele>
        <time>2016-07-30T07:58:34.017Z</time>
      </trkpt>
      <trkpt lat="43.14772" lon="5.92159">
        <ele>328</ele>
        <time>2016-07-30T07:58:35.017Z</time>
      </trkpt>
      <trkpt lat="43.14774" lon="5.92158">
        <ele>328</ele>
        <time>2016-07-30T07:58:36.017Z</time>
      </trkpt>
      <trkpt lat="43.14776" lon="5.92156">
        <ele>328</ele>
        <time>2016-07-30T07:58:37.017Z</time>
      </trkpt>
      <trkpt lat="43.14778" lon="5.92154">
        <ele>328</ele>
        <time>2016-07-30T07:58:38.017Z</time>
      </trkpt>
      <trkpt lat="43.14779" lon="5.92153">
        <ele>328</ele>
        <time>2016-07-30T07:58:39.017Z</time>
      </trkpt>
      <trkpt lat="43.14781" lon="5.92151">
        <ele>327</ele>
        <time>2016-07-30T07:58:40.017Z</time>
      </trkpt>
      <trkpt lat="43.14783" lon="5.9215">
        <ele>327</ele>
        <time>2016-07-30T07:58:41.017Z</time>
      </trkpt>
      <trkpt lat="43.14784" lon="5.92149">
        <ele>327</ele>
        <time>2016-07-30T07:58:42.017Z</time>
      </trkpt>
      <trkpt lat="43.14786" lon="5.92147">
        <ele>327</ele>
        <time>2016-07-30T07:58:43.017Z</time>
      </trkpt>
      <trkpt lat="43.14787" lon="5.92146">
        <ele>327</ele>
        <time>2016-07-30T07:58:44.017Z</time>
      </trkpt>
      <trkpt lat="43.14788" lon="5.92144">
        <ele>327</ele>
        <time>2016-07-30T07:58:45.017Z</time>
      </trkpt>
      <trkpt lat="43.1479" lon="5.92143">
        <ele>327</ele>
        <time>2016-07-30T07:58:46.017Z</time>
      </trkpt>
      <trkpt lat="43.14792" lon="5.92141">
        <ele>327</ele>
        <time>2016-07-30T07:58:47.017Z</time>
      </trkpt>
      <trkpt lat="43.14793" lon="5.9214">
        <ele>327</ele>
        <time>2016-07-30T07:58:48.017Z</time>
      </trkpt>
      <trkpt lat="43.14795" lon="5.92139">
        <ele>326</ele>
        <time>2016-07-30T07:58:49.017Z</time>
      </trkpt>
      <trkpt lat="43.14797" lon="5.92138">
        <ele>326</ele>
        <time>2016-07-30T07:58:50.017Z</time>
      </trkpt>
      <trkpt lat="43.14798" lon="5.92137">
        <ele>326</ele>
        <time>2016-07-30T07:58:51.017Z</time>
      </trkpt>
      <trkpt lat="43.148" lon="5.92135">
        <ele>326</ele>
        <time>2016-07-30T07:58:52.017Z</time>
      </trkpt>
      <trkpt lat="43.14802" lon="5.92134">
        <ele>326</ele>
        <time>2016-07-30T07:58:53.017Z</time>
      </trkpt>
      <trkpt lat="43.14804" lon="5.92135">
        <ele>327</ele>
        <time>2016-07-30T07:58:54.017Z</time>
      </trkpt>
      <trkpt lat="43.14806" lon="5.92136">
        <ele>327</ele>
        <time>2016-07-30T07:58:55.017Z</time>
      </trkpt>
      <trkpt lat="43.14807" lon="5.92138">
        <ele>327</ele>
        <time>2016-07-30T07:58:56.017Z</time>
      </trkpt>
      <trkpt lat="43.14809" lon="5.92139">
        <ele>327</ele>
        <time>2016-07-30T07:58:57.017Z</time>
      </trkpt>
      <trkpt lat="43.1481" lon="5.92141">
        <ele>327</ele>
        <time>2016-07-30T07:58:58.017Z</time>
      </trkpt>
      <trkpt lat="43.14811" lon="5.92143">
        <ele>327</ele>
        <time>2016-07-30T07:58:59.017Z</time>
      </trkpt>
      <trkpt lat="43.14812" lon="5.92146">
        <ele>327</ele>
        <time>2016-07-30T07:59:00.017Z</time>
      </trkpt>
      <trkpt lat="43.14812" lon="5.92148">
        <ele>327</ele>
        <time>2016-07-30T07:59:01.017Z</time>
      </trkpt>
      <trkpt lat="43.14812" lon="5.92151">
        <ele>326</ele>
        <time>2016-07-30T07:59:02.017Z</time>
      </trkpt>
      <trkpt lat="43.14811" lon="5.92153">
        <ele>327</ele>
        <time>2016-07-30T07:59:03.017Z</time>
      </trkpt>
      <trkpt lat="43.1481" lon="5.92155">
        <ele>326</ele>
        <time>2016-07-30T07:59:04.017Z</time>
      </trkpt>
      <trkpt lat="43.14809" lon="5.92157">
        <ele>326</ele>
        <time>2016-07-30T07:59:05.017Z</time>
      </trkpt>
      <trkpt lat="43.14808" lon="5.92158">
        <ele>326</ele>
        <time>2016-07-30T07:59:06.017Z</time>
      </trkpt>
      <trkpt lat="43.14807" lon="5.92159">
        <ele>326</ele>
        <time>2016-07-30T07:59:07.017Z</time>
      </trkpt>
      <trkpt lat="43.14806" lon="5.92161">
        <ele>326</ele>
        <time>2016-07-30T07:59:08.017Z</time>
      </trkpt>
      <trkpt lat="43.14805" lon="5.92162">
        <ele>326</ele>
        <time>2016-07-30T07:59:09.017Z</time>
      </trkpt>
      <trkpt lat="43.14803" lon="5.92164">
        <ele>326</ele>
        <time>2016-07-30T07:59:10.017Z</time>
      </trkpt>
      <trkpt lat="43.14802" lon="5.92165">
        <ele>326</ele>
        <time>2016-07-30T07:59:11.017Z</time>
      </trkpt>
      <trkpt lat="43.14801" lon="5.92166">
        <ele>326</ele>
        <time>2016-07-30T07:59:12.017Z</time>
      </trkpt>
      <trkpt lat="43.14799" lon="5.92167">
        <ele>326</ele>
        <time>2016-07-30T07:59:13.017Z</time>
      </trkpt>
      <trkpt lat="43.14798" lon="5.92168">
        <ele>326</ele>
        <time>2016-07-30T07:59:14.017Z</time>
      </trkpt>
      <trkpt lat="43.14797" lon="5.92169">
        <ele>326</ele>
        <time>2016-07-30T07:59:15.017Z</time>
      </trkpt>
      <trkpt lat="43.14796" lon="5.9217">
        <ele>326</ele>
        <time>2016-07-30T07:59:16.017Z</time>
      </trkpt>
      <trkpt lat="43.14795" lon="5.92171">
        <ele>326</ele>
        <time>2016-07-30T07:59:17.017Z</time>
      </trkpt>
      <trkpt lat="43.14794" lon="5.92173">
        <ele>326</ele>
        <time>2016-07-30T07:59:18.017Z</time>
      </trkpt>
      <trkpt lat="43.14793" lon="5.92174">
        <ele>326</ele>
        <time>2016-07-30T07:59:19.017Z</time>
      </trkpt>
      <trkpt lat="43.14791" lon="5.92176">
        <ele>326</ele>
        <time>2016-07-30T07:59:20.017Z</time>
      </trkpt>
      <trkpt lat="43.1479" lon="5.92178">
        <ele>327</ele>
        <time>2016-07-30T07:59:21.017Z</time>
      </trkpt>
      <trkpt lat="43.14789" lon="5.9218">
        <ele>329</ele>
        <time>2016-07-30T07:59:22.017Z</time>
      </trkpt>
      <trkpt lat="43.14788" lon="5.92183">
        <ele>330</ele>
        <time>2016-07-30T07:59:23.017Z</time>
      </trkpt>
      <trkpt lat="43.14787" lon="5.92186">
        <ele>331</ele>
        <time>2016-07-30T07:59:24.017Z</time>
      </trkpt>
      <trkpt lat="43.14786" lon="5.92189">
        <ele>331</ele>
        <time>2016-07-30T07:59:25.017Z</time>
      </trkpt>
      <trkpt lat="43.14786" lon="5.92192">
        <ele>331</ele>
        <time>2016-07-30T07:59:26.017Z</time>
      </trkpt>
      <trkpt lat="43.14786" lon="5.92194">
        <ele>331</ele>
        <time>2016-07-30T07:59:27.017Z</time>
      </trkpt>
      <trkpt lat="43.14785" lon="5.92197">
        <ele>331</ele>
        <time>2016-07-30T07:59:28.017Z</time>
      </trkpt>
      <trkpt lat="43.14785" lon="5.92201">
        <ele>332</ele>
        <time>2016-07-30T07:59:29.017Z</time>
      </trkpt>
      <trkpt lat="43.14785" lon="5.92204">
        <ele>333</ele>
        <time>2016-07-30T07:59:30.017Z</time>
      </trkpt>
      <trkpt lat="43.14785" lon="5.92207">
        <ele>333</ele>
        <time>2016-07-30T07:59:31.017Z</time>
      </trkpt>
      <trkpt lat="43.14785" lon="5.9221">
        <ele>334</ele>
        <time>2016-07-30T07:59:32.017Z</time>
      </trkpt>
      <trkpt lat="43.14785" lon="5.92213">
        <ele>335</ele>
        <time>2016-07-30T07:59:33.017Z</time>
      </trkpt>
      <trkpt lat="43.14785" lon="5.92216">
        <ele>335</ele>
        <time>2016-07-30T07:59:34.017Z</time>
      </trkpt>
      <trkpt lat="43.14785" lon="5.92218">
        <ele>335</ele>
        <time>2016-07-30T07:59:35.017Z</time>
      </trkpt>
      <trkpt lat="43.14785" lon="5.92221">
        <ele>336</ele>
        <time>2016-07-30T07:59:36.017Z</time>
      </trkpt>
      <trkpt lat="43.14785" lon="5.92224">
        <ele>336</ele>
        <time>2016-07-30T07:59:37.017Z</time>
      </trkpt>
      <trkpt lat="43.14785" lon="5.92227">
        <ele>336</ele>
        <time>2016-07-30T07:59:38.017Z</time>
      </trkpt>
      <trkpt lat="43.14785" lon="5.9223">
        <ele>336</ele>
        <time>2016-07-30T07:59:39.017Z</time>
      </trkpt>
      <trkpt lat="43.14785" lon="5.92233">
        <ele>337</ele>
        <time>2016-07-30T07:59:40.017Z</time>
      </trkpt>
      <trkpt lat="43.14785" lon="5.92236">
        <ele>337</ele>
        <time>2016-07-30T07:59:41.017Z</time>
      </trkpt>
      <trkpt lat="43.14785" lon="5.92239">
        <ele>337</ele>
        <time>2016-07-30T07:59:42.017Z</time>
      </trkpt>
      <trkpt lat="43.14785" lon="5.92241">
        <ele>337</ele>
        <time>2016-07-30T07:59:43.017Z</time>
      </trkpt>
      <trkpt lat="43.14784" lon="5.92244">
        <ele>338</ele>
        <time>2016-07-30T07:59:44.017Z</time>
      </trkpt>
      <trkpt lat="43.14784" lon="5.92246">
        <ele>337</ele>
        <time>2016-07-30T07:59:45.017Z</time>
      </trkpt>
      <trkpt lat="43.14784" lon="5.92249">
        <ele>337</ele>
        <time>2016-07-30T07:59:46.017Z</time>
      </trkpt>
      <trkpt lat="43.14784" lon="5.92252">
        <ele>337</ele>
        <time>2016-07-30T07:59:47.017Z</time>
      </trkpt>
      <trkpt lat="43.14785" lon="5.92254">
        <ele>337</ele>
        <time>2016-07-30T07:59:48.017Z</time>
      </trkpt>
      <trkpt lat="43.14785" lon="5.92256">
        <ele>337</ele>
        <time>2016-07-30T07:59:49.017Z</time>
      </trkpt>
      <trkpt lat="43.14785" lon="5.92259">
        <ele>338</ele>
        <time>2016-07-30T07:59:50.017Z</time>
      </trkpt>
      <trkpt lat="43.14785" lon="5.92261">
        <ele>338</ele>
        <time>2016-07-30T07:59:51.017Z</time>
      </trkpt>
      <trkpt lat="43.14785" lon="5.92263">
        <ele>338</ele>
        <time>2016-07-30T07:59:52.017Z</time>
      </trkpt>
      <trkpt lat="43.14785" lon="5.92265">
        <ele>338</ele>
        <time>2016-07-30T07:59:53.017Z</time>
      </trkpt>
      <trkpt lat="43.14785" lon="5.92268">
        <ele>339</ele>
        <time>2016-07-30T07:59:54.017Z</time>
      </trkpt>
      <trkpt lat="43.14785" lon="5.9227">
        <ele>339</ele>
        <time>2016-07-30T07:59:55.017Z</time>
      </trkpt>
      <trkpt lat="43.14785" lon="5.92272">
        <ele>339</ele>
        <time>2016-07-30T07:59:56.017Z</time>
      </trkpt>
      <trkpt lat="43.14786" lon="5.92274">
        <ele>339</ele>
        <time>2016-07-30T07:59:57.017Z</time>
      </trkpt>
      <trkpt lat="43.14786" lon="5.92277">
        <ele>339</ele>
        <time>2016-07-30T07:59:58.017Z</time>
      </trkpt>
      <trkpt lat="43.14786" lon="5.92279">
        <ele>340</ele>
        <time>2016-07-30T07:59:59.017Z</time>
      </trkpt>
      <trkpt lat="43.14787" lon="5.92281">
        <ele>340</ele>
        <time>2016-07-30T08:00:00.017Z</time>
      </trkpt>
      <trkpt lat="43.14787" lon="5.92284">
        <ele>340</ele>
        <time>2016-07-30T08:00:01.017Z</time>
      </trkpt>
      <trkpt lat="43.14788" lon="5.92286">
        <ele>341</ele>
        <time>2016-07-30T08:00:02.017Z</time>
      </trkpt>
      <trkpt lat="43.14788" lon="5.92288">
        <ele>341</ele>
        <time>2016-07-30T08:00:03.017Z</time>
      </trkpt>
      <trkpt lat="43.14789" lon="5.9229">
        <ele>341</ele>
        <time>2016-07-30T08:00:04.017Z</time>
      </trkpt>
      <trkpt lat="43.14789" lon="5.92292">
        <ele>341</ele>
        <time>2016-07-30T08:00:05.017Z</time>
      </trkpt>
      <trkpt lat="43.14789" lon="5.92294">
        <ele>341</ele>
        <time>2016-07-30T08:00:06.017Z</time>
      </trkpt>
      <trkpt lat="43.1479" lon="5.92297">
        <ele>341</ele>
        <time>2016-07-30T08:00:07.017Z</time>
      </trkpt>
      <trkpt lat="43.1479" lon="5.92299">
        <ele>341</ele>
        <time>2016-07-30T08:00:08.017Z</time>
      </trkpt>
      <trkpt lat="43.14791" lon="5.92301">
        <ele>342</ele>
        <time>2016-07-30T08:00:09.017Z</time>
      </trkpt>
      <trkpt lat="43.14791" lon="5.92303">
        <ele>342</ele>
        <time>2016-07-30T08:00:10.017Z</time>
      </trkpt>
      <trkpt lat="43.14792" lon="5.92305">
        <ele>342</ele>
        <time>2016-07-30T08:00:11.017Z</time>
      </trkpt>
      <trkpt lat="43.14793" lon="5.92308">
        <ele>342</ele>
        <time>2016-07-30T08:00:12.017Z</time>
      </trkpt>
      <trkpt lat="43.14794" lon="5.9231">
        <ele>343</ele>
        <time>2016-07-30T08:00:13.017Z</time>
      </trkpt>
      <trkpt lat="43.14794" lon="5.92312">
        <ele>343</ele>
        <time>2016-07-30T08:00:14.017Z</time>
      </trkpt>
      <trkpt lat="43.14795" lon="5.92314">
        <ele>343</ele>
        <time>2016-07-30T08:00:15.017Z</time>
      </trkpt>
      <trkpt lat="43.14795" lon="5.92316">
        <ele>343</ele>
        <time>2016-07-30T08:00:16.017Z</time>
      </trkpt>
      <trkpt lat="43.14796" lon="5.92318">
        <ele>344</ele>
        <time>2016-07-30T08:00:17.017Z</time>
      </trkpt>
      <trkpt lat="43.14796" lon="5.9232">
        <ele>344</ele>
        <time>2016-07-30T08:00:18.017Z</time>
      </trkpt>
      <trkpt lat="43.14797" lon="5.92322">
        <ele>344</ele>
        <time>2016-07-30T08:00:19.017Z</time>
      </trkpt>
      <trkpt lat="43.14797" lon="5.92324">
        <ele>344</ele>
        <time>2016-07-30T08:00:20.017Z</time>
      </trkpt>
      <trkpt lat="43.14797" lon="5.92326">
        <ele>345</ele>
        <time>2016-07-30T08:00:21.017Z</time>
      </trkpt>
      <trkpt lat="43.14798" lon="5.92328">
        <ele>344</ele>
        <time>2016-07-30T08:00:22.017Z</time>
      </trkpt>
      <trkpt lat="43.14798" lon="5.9233">
        <ele>345</ele>
        <time>2016-07-30T08:00:23.017Z</time>
      </trkpt>
      <trkpt lat="43.14798" lon="5.92333">
        <ele>345</ele>
        <time>2016-07-30T08:00:24.017Z</time>
      </trkpt>
      <trkpt lat="43.14799" lon="5.92335">
        <ele>345</ele>
        <time>2016-07-30T08:00:25.017Z</time>
      </trkpt>
      <trkpt lat="43.14799" lon="5.92337">
        <ele>345</ele>
        <time>2016-07-30T08:00:26.017Z</time>
      </trkpt>
      <trkpt lat="43.148" lon="5.92338">
        <ele>346</ele>
        <time>2016-07-30T08:00:27.017Z</time>
      </trkpt>
      <trkpt lat="43.148" lon="5.9234">
        <ele>346</ele>
        <time>2016-07-30T08:00:28.017Z</time>
      </trkpt>
      <trkpt lat="43.14801" lon="5.92342">
        <ele>346</ele>
        <time>2016-07-30T08:00:29.017Z</time>
      </trkpt>
      <trkpt lat="43.14801" lon="5.92345">
        <ele>346</ele>
        <time>2016-07-30T08:00:30.017Z</time>
      </trkpt>
      <trkpt lat="43.14801" lon="5.92347">
        <ele>346</ele>
        <time>2016-07-30T08:00:31.017Z</time>
      </trkpt>
      <trkpt lat="43.14802" lon="5.92349">
        <ele>346</ele>
        <time>2016-07-30T08:00:32.017Z</time>
      </trkpt>
      <trkpt lat="43.14802" lon="5.92352">
        <ele>347</ele>
        <time>2016-07-30T08:00:33.017Z</time>
      </trkpt>
      <trkpt lat="43.14802" lon="5.92354">
        <ele>347</ele>
        <time>2016-07-30T08:00:34.017Z</time>
      </trkpt>
      <trkpt lat="43.14803" lon="5.92356">
        <ele>347</ele>
        <time>2016-07-30T08:00:35.017Z</time>
      </trkpt>
      <trkpt lat="43.14803" lon="5.92359">
        <ele>347</ele>
        <time>2016-07-30T08:00:36.017Z</time>
      </trkpt>
      <trkpt lat="43.14803" lon="5.92361">
        <ele>347</ele>
        <time>2016-07-30T08:00:37.017Z</time>
      </trkpt>
      <trkpt lat="43.14804" lon="5.92363">
        <ele>348</ele>
        <time>2016-07-30T08:00:38.017Z</time>
      </trkpt>
      <trkpt lat="43.14804" lon="5.92366">
        <ele>348</ele>
        <time>2016-07-30T08:00:39.017Z</time>
      </trkpt>
      <trkpt lat="43.14804" lon="5.92368">
        <ele>348</ele>
        <time>2016-07-30T08:00:40.017Z</time>
      </trkpt>
      <trkpt lat="43.14804" lon="5.9237">
        <ele>348</ele>
        <time>2016-07-30T08:00:41.017Z</time>
      </trkpt>
      <trkpt lat="43.14804" lon="5.92372">
        <ele>349</ele>
        <time>2016-07-30T08:00:42.017Z</time>
      </trkpt>
      <trkpt lat="43.14805" lon="5.92375">
        <ele>349</ele>
        <time>2016-07-30T08:00:43.017Z</time>
      </trkpt>
      <trkpt lat="43.14805" lon="5.92377">
        <ele>349</ele>
        <time>2016-07-30T08:00:44.017Z</time>
      </trkpt>
      <trkpt lat="43.14805" lon="5.92379">
        <ele>349</ele>
        <time>2016-07-30T08:00:45.017Z</time>
      </trkpt>
      <trkpt lat="43.14805" lon="5.92382">
        <ele>349</ele>
        <time>2016-07-30T08:00:46.017Z</time>
      </trkpt>
      <trkpt lat="43.14805" lon="5.92384">
        <ele>350</ele>
        <time>2016-07-30T08:00:47.017Z</time>
      </trkpt>
      <trkpt lat="43.14805" lon="5.92387">
        <ele>350</ele>
        <time>2016-07-30T08:00:48.017Z</time>
      </trkpt>
      <trkpt lat="43.14806" lon="5.92389">
        <ele>350</ele>
        <time>2016-07-30T08:00:49.017Z</time>
      </trkpt>
      <trkpt lat="43.14806" lon="5.92391">
        <ele>351</ele>
        <time>2016-07-30T08:00:50.017Z</time>
      </trkpt>
      <trkpt lat="43.14805" lon="5.92394">
        <ele>351</ele>
        <time>2016-07-30T08:00:51.017Z</time>
      </trkpt>
      <trkpt lat="43.14805" lon="5.92396">
        <ele>351</ele>
        <time>2016-07-30T08:00:52.017Z</time>
      </trkpt>
      <trkpt lat="43.14805" lon="5.92399">
        <ele>351</ele>
        <time>2016-07-30T08:00:53.017Z</time>
      </trkpt>
      <trkpt lat="43.14805" lon="5.92401">
        <ele>351</ele>
        <time>2016-07-30T08:00:54.017Z</time>
      </trkpt>
      <trkpt lat="43.14805" lon="5.92403">
        <ele>351</ele>
        <time>2016-07-30T08:00:55.017Z</time>
      </trkpt>
      <trkpt lat="43.14805" lon="5.92405">
        <ele>351</ele>
        <time>2016-07-30T08:00:56.017Z</time>
      </trkpt>
      <trkpt lat="43.14805" lon="5.92408">
        <ele>352</ele>
        <time>2016-07-30T08:00:57.017Z</time>
      </trkpt>
      <trkpt lat="43.14805" lon="5.9241">
        <ele>352</ele>
        <time>2016-07-30T08:00:58.017Z</time>
      </trkpt>
      <trkpt lat="43.14805" lon="5.92412">
        <ele>352</ele>
        <time>2016-07-30T08:00:59.017Z</time>
      </trkpt>
      <trkpt lat="43.14806" lon="5.92414">
        <ele>353</ele>
        <time>2016-07-30T08:01:00.017Z</time>
      </trkpt>
      <trkpt lat="43.14806" lon="5.92416">
        <ele>353</ele>
        <time>2016-07-30T08:01:01.017Z</time>
      </trkpt>
      <trkpt lat="43.14805" lon="5.92418">
        <ele>353</ele>
        <time>2016-07-30T08:01:02.017Z</time>
      </trkpt>
      <trkpt lat="43.14805" lon="5.9242">
        <ele>353</ele>
        <time>2016-07-30T08:01:03.017Z</time>
      </trkpt>
      <trkpt lat="43.14805" lon="5.92422">
        <ele>354</ele>
        <time>2016-07-30T08:01:04.017Z</time>
      </trkpt>
      <trkpt lat="43.14805" lon="5.92424">
        <ele>354</ele>
        <time>2016-07-30T08:01:05.017Z</time>
      </trkpt>
      <trkpt lat="43.14805" lon="5.92427">
        <ele>354</ele>
        <time>2016-07-30T08:01:06.017Z</time>
      </trkpt>
      <trkpt lat="43.14805" lon="5.92429">
        <ele>354</ele>
        <time>2016-07-30T08:01:07.017Z</time>
      </trkpt>
      <trkpt lat="43.14805" lon="5.92431">
        <ele>355</ele>
        <time>2016-07-30T08:01:08.017Z</time>
      </trkpt>
      <trkpt lat="43.14805" lon="5.92433">
        <ele>355</ele>
        <time>2016-07-30T08:01:09.017Z</time>
      </trkpt>
      <trkpt lat="43.14804" lon="5.92436">
        <ele>355</ele>
        <time>2016-07-30T08:01:10.017Z</time>
      </trkpt>
      <trkpt lat="43.14804" lon="5.92438">
        <ele>355</ele>
        <time>2016-07-30T08:01:11.017Z</time>
      </trkpt>
      <trkpt lat="43.14804" lon="5.9244">
        <ele>355</ele>
        <time>2016-07-30T08:01:12.017Z</time>
      </trkpt>
      <trkpt lat="43.14803" lon="5.92442">
        <ele>356</ele>
        <time>2016-07-30T08:01:13.017Z</time>
      </trkpt>
      <trkpt lat="43.14802" lon="5.92444">
        <ele>356</ele>
        <time>2016-07-30T08:01:14.017Z</time>
      </trkpt>
      <trkpt lat="43.14801" lon="5.92446">
        <ele>356</ele>
        <time>2016-07-30T08:01:15.017Z</time>
      </trkpt>
      <trkpt lat="43.148" lon="5.92448">
        <ele>356</ele>
        <time>2016-07-30T08:01:16.017Z</time>
      </trkpt>
      <trkpt lat="43.14799" lon="5.9245">
        <ele>356</ele>
        <time>2016-07-30T08:01:17.017Z</time>
      </trkpt>
      <trkpt lat="43.14797" lon="5.92452">
        <ele>357</ele>
        <time>2016-07-30T08:01:18.017Z</time>
      </trkpt>
      <trkpt lat="43.14796" lon="5.92454">
        <ele>357</ele>
        <time>2016-07-30T08:01:19.017Z</time>
      </trkpt>
      <trkpt lat="43.14795" lon="5.92456">
        <ele>357</ele>
        <time>2016-07-30T08:01:20.017Z</time>
      </trkpt>
      <trkpt lat="43.14794" lon="5.92458">
        <ele>357</ele>
        <time>2016-07-30T08:01:21.017Z</time>
      </trkpt>
      <trkpt lat="43.14793" lon="5.92459">
        <ele>357</ele>
        <time>2016-07-30T08:01:22.017Z</time>
      </trkpt>
      <trkpt lat="43.14791" lon="5.92461">
        <ele>357</ele>
        <time>2016-07-30T08:01:23.017Z</time>
      </trkpt>
      <trkpt lat="43.1479" lon="5.92462">
        <ele>357</ele>
        <time>2016-07-30T08:01:24.017Z</time>
      </trkpt>
      <trkpt lat="43.14788" lon="5.92464">
        <ele>358</ele>
        <time>2016-07-30T08:01:25.017Z</time>
      </trkpt>
      <trkpt lat="43.14787" lon="5.92465">
        <ele>358</ele>
        <time>2016-07-30T08:01:26.017Z</time>
      </trkpt>
      <trkpt lat="43.14785" lon="5.92467">
        <ele>358</ele>
        <time>2016-07-30T08:01:27.017Z</time>
      </trkpt>
      <trkpt lat="43.14784" lon="5.92468">
        <ele>359</ele>
        <time>2016-07-30T08:01:28.017Z</time>
      </trkpt>
      <trkpt lat="43.14782" lon="5.9247">
        <ele>359</ele>
        <time>2016-07-30T08:01:29.017Z</time>
      </trkpt>
      <trkpt lat="43.14781" lon="5.92471">
        <ele>359</ele>
        <time>2016-07-30T08:01:30.017Z</time>
      </trkpt>
      <trkpt lat="43.14779" lon="5.92473">
        <ele>360</ele>
        <time>2016-07-30T08:01:31.017Z</time>
      </trkpt>
      <trkpt lat="43.14777" lon="5.92474">
        <ele>360</ele>
        <time>2016-07-30T08:01:32.017Z</time>
      </trkpt>
      <trkpt lat="43.14776" lon="5.92476">
        <ele>360</ele>
        <time>2016-07-30T08:01:33.017Z</time>
      </trkpt>
      <trkpt lat="43.14774" lon="5.92477">
        <ele>360</ele>
        <time>2016-07-30T08:01:34.017Z</time>
      </trkpt>
      <trkpt lat="43.14773" lon="5.92479">
        <ele>360</ele>
        <time>2016-07-30T08:01:35.017Z</time>
      </trkpt>
      <trkpt lat="43.14772" lon="5.9248">
        <ele>361</ele>
        <time>2016-07-30T08:01:36.017Z</time>
      </trkpt>
      <trkpt lat="43.1477" lon="5.92482">
        <ele>361</ele>
        <time>2016-07-30T08:01:37.017Z</time>
      </trkpt>
      <trkpt lat="43.14769" lon="5.92484">
        <ele>361</ele>
        <time>2016-07-30T08:01:38.017Z</time>
      </trkpt>
      <trkpt lat="43.14768" lon="5.92485">
        <ele>362</ele>
        <time>2016-07-30T08:01:39.017Z</time>
      </trkpt>
      <trkpt lat="43.14767" lon="5.92487">
        <ele>361</ele>
        <time>2016-07-30T08:01:40.017Z</time>
      </trkpt>
      <trkpt lat="43.14766" lon="5.92489">
        <ele>361</ele>
        <time>2016-07-30T08:01:41.017Z</time>
      </trkpt>
      <trkpt lat="43.14765" lon="5.92491">
        <ele>360</ele>
        <time>2016-07-30T08:01:42.017Z</time>
      </trkpt>
      <trkpt lat="43.14765" lon="5.92493">
        <ele>359</ele>
        <time>2016-07-30T08:01:43.017Z</time>
      </trkpt>
      <trkpt lat="43.14764" lon="5.92496">
        <ele>359</ele>
        <time>2016-07-30T08:01:44.017Z</time>
      </trkpt>
      <trkpt lat="43.14764" lon="5.92498">
        <ele>360</ele>
        <time>2016-07-30T08:01:45.017Z</time>
      </trkpt>
      <trkpt lat="43.14763" lon="5.92501">
        <ele>361</ele>
        <time>2016-07-30T08:01:46.017Z</time>
      </trkpt>
      <trkpt lat="43.14762" lon="5.92503">
        <ele>362</ele>
        <time>2016-07-30T08:01:47.017Z</time>
      </trkpt>
      <trkpt lat="43.14762" lon="5.92505">
        <ele>362</ele>
        <time>2016-07-30T08:01:48.017Z</time>
      </trkpt>
      <trkpt lat="43.14761" lon="5.92508">
        <ele>362</ele>
        <time>2016-07-30T08:01:49.017Z</time>
      </trkpt>
      <trkpt lat="43.14761" lon="5.9251">
        <ele>362</ele>
        <time>2016-07-30T08:01:50.017Z</time>
      </trkpt>
      <trkpt lat="43.1476" lon="5.92512">
        <ele>363</ele>
        <time>2016-07-30T08:01:51.017Z</time>
      </trkpt>
      <trkpt lat="43.1476" lon="5.92515">
        <ele>364</ele>
        <time>2016-07-30T08:01:52.017Z</time>
      </trkpt>
      <trkpt lat="43.14759" lon="5.92517">
        <ele>364</ele>
        <time>2016-07-30T08:01:53.017Z</time>
      </trkpt>
      <trkpt lat="43.14759" lon="5.9252">
        <ele>364</ele>
        <time>2016-07-30T08:01:54.017Z</time>
      </trkpt>
      <trkpt lat="43.14758" lon="5.92522">
        <ele>364</ele>
        <time>2016-07-30T08:01:55.017Z</time>
      </trkpt>
      <trkpt lat="43.14758" lon="5.92525">
        <ele>365</ele>
        <time>2016-07-30T08:01:56.017Z</time>
      </trkpt>
      <trkpt lat="43.14758" lon="5.92528">
        <ele>365</ele>
        <time>2016-07-30T08:01:57.017Z</time>
      </trkpt>
      <trkpt lat="43.14758" lon="5.92531">
        <ele>365</ele>
        <time>2016-07-30T08:01:58.017Z</time>
      </trkpt>
      <trkpt lat="43.14758" lon="5.92533">
        <ele>366</ele>
        <time>2016-07-30T08:01:59.017Z</time>
      </trkpt>
      <trkpt lat="43.14757" lon="5.92536">
        <ele>366</ele>
        <time>2016-07-30T08:02:00.017Z</time>
      </trkpt>
      <trkpt lat="43.14757" lon="5.92539">
        <ele>366</ele>
        <time>2016-07-30T08:02:01.017Z</time>
      </trkpt>
      <trkpt lat="43.14757" lon="5.92542">
        <ele>367</ele>
        <time>2016-07-30T08:02:02.017Z</time>
      </trkpt>
      <trkpt lat="43.14756" lon="5.92544">
        <ele>367</ele>
        <time>2016-07-30T08:02:03.017Z</time>
      </trkpt>
      <trkpt lat="43.14756" lon="5.92547">
        <ele>367</ele>
        <time>2016-07-30T08:02:04.017Z</time>
      </trkpt>
      <trkpt lat="43.14755" lon="5.92549">
        <ele>367</ele>
        <time>2016-07-30T08:02:05.017Z</time>
      </trkpt>
      <trkpt lat="43.14755" lon="5.92551">
        <ele>367</ele>
        <time>2016-07-30T08:02:06.017Z</time>
      </trkpt>
      <trkpt lat="43.14755" lon="5.92554">
        <ele>367</ele>
        <time>2016-07-30T08:02:07.017Z</time>
      </trkpt>
      <trkpt lat="43.14754" lon="5.92556">
        <ele>367</ele>
        <time>2016-07-30T08:02:08.017Z</time>
      </trkpt>
      <trkpt lat="43.14754" lon="5.92559">
        <ele>368</ele>
        <time>2016-07-30T08:02:09.017Z</time>
      </trkpt>
      <trkpt lat="43.14753" lon="5.92561">
        <ele>368</ele>
        <time>2016-07-30T08:02:10.017Z</time>
      </trkpt>
      <trkpt lat="43.14752" lon="5.92563">
        <ele>367</ele>
        <time>2016-07-30T08:02:11.017Z</time>
      </trkpt>
      <trkpt lat="43.14752" lon="5.92566">
        <ele>368</ele>
        <time>2016-07-30T08:02:12.017Z</time>
      </trkpt>
      <trkpt lat="43.14751" lon="5.92568">
        <ele>368</ele>
        <time>2016-07-30T08:02:13.017Z</time>
      </trkpt>
      <trkpt lat="43.14751" lon="5.9257">
        <ele>369</ele>
        <time>2016-07-30T08:02:14.017Z</time>
      </trkpt>
      <trkpt lat="43.1475" lon="5.92572">
        <ele>369</ele>
        <time>2016-07-30T08:02:15.017Z</time>
      </trkpt>
      <trkpt lat="43.1475" lon="5.92575">
        <ele>369</ele>
        <time>2016-07-30T08:02:16.017Z</time>
      </trkpt>
      <trkpt lat="43.1475" lon="5.92577">
        <ele>369</ele>
        <time>2016-07-30T08:02:17.017Z</time>
      </trkpt>
      <trkpt lat="43.14749" lon="5.9258">
        <ele>370</ele>
        <time>2016-07-30T08:02:18.017Z</time>
      </trkpt>
      <trkpt lat="43.14749" lon="5.92582">
        <ele>370</ele>
        <time>2016-07-30T08:02:19.017Z</time>
      </trkpt>
      <trkpt lat="43.14749" lon="5.92585">
        <ele>370</ele>
        <time>2016-07-30T08:02:20.017Z</time>
      </trkpt>
      <trkpt lat="43.14748" lon="5.92587">
        <ele>370</ele>
        <time>2016-07-30T08:02:21.017Z</time>
      </trkpt>
      <trkpt lat="43.14748" lon="5.92589">
        <ele>370</ele>
        <time>2016-07-30T08:02:22.017Z</time>
      </trkpt>
      <trkpt lat="43.14748" lon="5.92592">
        <ele>370</ele>
        <time>2016-07-30T08:02:23.017Z</time>
      </trkpt>
      <trkpt lat="43.14749" lon="5.92594">
        <ele>370</ele>
        <time>2016-07-30T08:02:24.017Z</time>
      </trkpt>
      <trkpt lat="43.14749" lon="5.92597">
        <ele>371</ele>
        <time>2016-07-30T08:02:25.017Z</time>
      </trkpt>
      <trkpt lat="43.14749" lon="5.92599">
        <ele>371</ele>
        <time>2016-07-30T08:02:26.017Z</time>
      </trkpt>
      <trkpt lat="43.14749" lon="5.92602">
        <ele>371</ele>
        <time>2016-07-30T08:02:27.017Z</time>
      </trkpt>
      <trkpt lat="43.1475" lon="5.92604">
        <ele>371</ele>
        <time>2016-07-30T08:02:28.017Z</time>
      </trkpt>
      <trkpt lat="43.1475" lon="5.92607">
        <ele>372</ele>
        <time>2016-07-30T08:02:29.017Z</time>
      </trkpt>
      <trkpt lat="43.14751" lon="5.92609">
        <ele>372</ele>
        <time>2016-07-30T08:02:30.017Z</time>
      </trkpt>
      <trkpt lat="43.14751" lon="5.92612">
        <ele>372</ele>
        <time>2016-07-30T08:02:31.017Z</time>
      </trkpt>
      <trkpt lat="43.14752" lon="5.92614">
        <ele>372</ele>
        <time>2016-07-30T08:02:32.017Z</time>
      </trkpt>
      <trkpt lat="43.14752" lon="5.92616">
        <ele>372</ele>
        <time>2016-07-30T08:02:33.017Z</time>
      </trkpt>
      <trkpt lat="43.14753" lon="5.92618">
        <ele>372</ele>
        <time>2016-07-30T08:02:34.017Z</time>
      </trkpt>
      <trkpt lat="43.14753" lon="5.92621">
        <ele>372</ele>
        <time>2016-07-30T08:02:35.017Z</time>
      </trkpt>
      <trkpt lat="43.14754" lon="5.92623">
        <ele>373</ele>
        <time>2016-07-30T08:02:36.017Z</time>
      </trkpt>
      <trkpt lat="43.14755" lon="5.92625">
        <ele>373</ele>
        <time>2016-07-30T08:02:37.017Z</time>
      </trkpt>
      <trkpt lat="43.14755" lon="5.92627">
        <ele>374</ele>
        <time>2016-07-30T08:02:38.017Z</time>
      </trkpt>
      <trkpt lat="43.14756" lon="5.9263">
        <ele>374</ele>
        <time>2016-07-30T08:02:39.017Z</time>
      </trkpt>
      <trkpt lat="43.14756" lon="5.92632">
        <ele>374</ele>
        <time>2016-07-30T08:02:40.017Z</time>
      </trkpt>
      <trkpt lat="43.14757" lon="5.92634">
        <ele>374</ele>
        <time>2016-07-30T08:02:41.017Z</time>
      </trkpt>
      <trkpt lat="43.14757" lon="5.92636">
        <ele>374</ele>
        <time>2016-07-30T08:02:42.017Z</time>
      </trkpt>
      <trkpt lat="43.14758" lon="5.92639">
        <ele>375</ele>
        <time>2016-07-30T08:02:43.017Z</time>
      </trkpt>
      <trkpt lat="43.14758" lon="5.92641">
        <ele>375</ele>
        <time>2016-07-30T08:02:44.017Z</time>
      </trkpt>
      <trkpt lat="43.14759" lon="5.92644">
        <ele>375</ele>
        <time>2016-07-30T08:02:45.017Z</time>
      </trkpt>
      <trkpt lat="43.14759" lon="5.92646">
        <ele>376</ele>
        <time>2016-07-30T08:02:46.017Z</time>
      </trkpt>
      <trkpt lat="43.14759" lon="5.92648">
        <ele>376</ele>
        <time>2016-07-30T08:02:47.017Z</time>
      </trkpt>
      <trkpt lat="43.1476" lon="5.92651">
        <ele>376</ele>
        <time>2016-07-30T08:02:48.017Z</time>
      </trkpt>
      <trkpt lat="43.1476" lon="5.92653">
        <ele>376</ele>
        <time>2016-07-30T08:02:49.017Z</time>
      </trkpt>
      <trkpt lat="43.14761" lon="5.92655">
        <ele>376</ele>
        <time>2016-07-30T08:02:50.017Z</time>
      </trkpt>
      <trkpt lat="43.14761" lon="5.92658">
        <ele>376</ele>
        <time>2016-07-30T08:02:51.017Z</time>
      </trkpt>
      <trkpt lat="43.14762" lon="5.9266">
        <ele>376</ele>
        <time>2016-07-30T08:02:52.017Z</time>
      </trkpt>
      <trkpt lat="43.14762" lon="5.92662">
        <ele>376</ele>
        <time>2016-07-30T08:02:53.017Z</time>
      </trkpt>
      <trkpt lat="43.14762" lon="5.92665">
        <ele>377</ele>
        <time>2016-07-30T08:02:54.017Z</time>
      </trkpt>
      <trkpt lat="43.14763" lon="5.92667">
        <ele>377</ele>
        <time>2016-07-30T08:02:55.017Z</time>
      </trkpt>
      <trkpt lat="43.14763" lon="5.92669">
        <ele>377</ele>
        <time>2016-07-30T08:02:56.017Z</time>
      </trkpt>
      <trkpt lat="43.14764" lon="5.92671">
        <ele>377</ele>
        <time>2016-07-30T08:02:57.017Z</time>
      </trkpt>
      <trkpt lat="43.14764" lon="5.92674">
        <ele>377</ele>
        <time>2016-07-30T08:02:58.017Z</time>
      </trkpt>
      <trkpt lat="43.14765" lon="5.92676">
        <ele>377</ele>
        <time>2016-07-30T08:02:59.017Z</time>
      </trkpt>
      <trkpt lat="43.14765" lon="5.92679">
        <ele>377</ele>
        <time>2016-07-30T08:03:00.017Z</time>
      </trkpt>
      <trkpt lat="43.14765" lon="5.92681">
        <ele>377</ele>
        <time>2016-07-30T08:03:01.017Z</time>
      </trkpt>
      <trkpt lat="43.14766" lon="5.92683">
        <ele>377</ele>
        <time>2016-07-30T08:03:02.017Z</time>
      </trkpt>
      <trkpt lat="43.14766" lon="5.92686">
        <ele>378</ele>
        <time>2016-07-30T08:03:03.017Z</time>
      </trkpt>
      <trkpt lat="43.14766" lon="5.92688">
        <ele>378</ele>
        <time>2016-07-30T08:03:04.017Z</time>
      </trkpt>
      <trkpt lat="43.14767" lon="5.9269">
        <ele>378</ele>
        <time>2016-07-30T08:03:05.017Z</time>
      </trkpt>
      <trkpt lat="43.14767" lon="5.92693">
        <ele>378</ele>
        <time>2016-07-30T08:03:06.017Z</time>
      </trkpt>
      <trkpt lat="43.14767" lon="5.92695">
        <ele>379</ele>
        <time>2016-07-30T08:03:07.017Z</time>
      </trkpt>
      <trkpt lat="43.14768" lon="5.92698">
        <ele>379</ele>
        <time>2016-07-30T08:03:08.017Z</time>
      </trkpt>
      <trkpt lat="43.14768" lon="5.92701">
        <ele>379</ele>
        <time>2016-07-30T08:03:09.017Z</time>
      </trkpt>
      <trkpt lat="43.14767" lon="5.92704">
        <ele>379</ele>
        <time>2016-07-30T08:03:10.017Z</time>
      </trkpt>
      <trkpt lat="43.14767" lon="5.92707">
        <ele>379</ele>
        <time>2016-07-30T08:03:11.017Z</time>
      </trkpt>
      <trkpt lat="43.14767" lon="5.92709">
        <ele>380</ele>
        <time>2016-07-30T08:03:12.017Z</time>
      </trkpt>
      <trkpt lat="43.14767" lon="5.92712">
        <ele>380</ele>
        <time>2016-07-30T08:03:13.017Z</time>
      </trkpt>
      <trkpt lat="43.14767" lon="5.92715">
        <ele>380</ele>
        <time>2016-07-30T08:03:14.017Z</time>
      </trkpt>
      <trkpt lat="43.14767" lon="5.92718">
        <ele>380</ele>
        <time>2016-07-30T08:03:15.017Z</time>
      </trkpt>
      <trkpt lat="43.14766" lon="5.9272">
        <ele>381</ele>
        <time>2016-07-30T08:03:16.017Z</time>
      </trkpt>
      <trkpt lat="43.14766" lon="5.92723">
        <ele>381</ele>
        <time>2016-07-30T08:03:17.017Z</time>
      </trkpt>
      <trkpt lat="43.14766" lon="5.92725">
        <ele>381</ele>
        <time>2016-07-30T08:03:18.017Z</time>
      </trkpt>
      <trkpt lat="43.14766" lon="5.92728">
        <ele>382</ele>
        <time>2016-07-30T08:03:19.017Z</time>
      </trkpt>
      <trkpt lat="43.14766" lon="5.9273">
        <ele>382</ele>
        <time>2016-07-30T08:03:20.017Z</time>
      </trkpt>
      <trkpt lat="43.14766" lon="5.92733">
        <ele>382</ele>
        <time>2016-07-30T08:03:21.017Z</time>
      </trkpt>
      <trkpt lat="43.14766" lon="5.92735">
        <ele>382</ele>
        <time>2016-07-30T08:03:22.017Z</time>
      </trkpt>
      <trkpt lat="43.14766" lon="5.92738">
        <ele>382</ele>
        <time>2016-07-30T08:03:23.017Z</time>
      </trkpt>
      <trkpt lat="43.14766" lon="5.92741">
        <ele>383</ele>
        <time>2016-07-30T08:03:24.017Z</time>
      </trkpt>
      <trkpt lat="43.14766" lon="5.92743">
        <ele>383</ele>
        <time>2016-07-30T08:03:25.017Z</time>
      </trkpt>
      <trkpt lat="43.14767" lon="5.92746">
        <ele>383</ele>
        <time>2016-07-30T08:03:26.017Z</time>
      </trkpt>
      <trkpt lat="43.14767" lon="5.92748">
        <ele>384</ele>
        <time>2016-07-30T08:03:27.017Z</time>
      </trkpt>
      <trkpt lat="43.14768" lon="5.92751">
        <ele>384</ele>
        <time>2016-07-30T08:03:28.017Z</time>
      </trkpt>
      <trkpt lat="43.14768" lon="5.92753">
        <ele>384</ele>
        <time>2016-07-30T08:03:29.017Z</time>
      </trkpt>
      <trkpt lat="43.14769" lon="5.92757">
        <ele>384</ele>
        <time>2016-07-30T08:03:30.017Z</time>
      </trkpt>
      <trkpt lat="43.1477" lon="5.9276">
        <ele>384</ele>
        <time>2016-07-30T08:03:31.017Z</time>
      </trkpt>
      <trkpt lat="43.1477" lon="5.92763">
        <ele>384</ele>
        <time>2016-07-30T08:03:32.017Z</time>
      </trkpt>
      <trkpt lat="43.1477" lon="5.92767">
        <ele>385</ele>
        <time>2016-07-30T08:03:33.017Z</time>
      </trkpt>
      <trkpt lat="43.14769" lon="5.9277">
        <ele>385</ele>
        <time>2016-07-30T08:03:34.017Z</time>
      </trkpt>
      <trkpt lat="43.14768" lon="5.92773">
        <ele>385</ele>
        <time>2016-07-30T08:03:35.017Z</time>
      </trkpt>
      <trkpt lat="43.14766" lon="5.92776">
        <ele>386</ele>
        <time>2016-07-30T08:03:36.017Z</time>
      </trkpt>
      <trkpt lat="43.14765" lon="5.92779">
        <ele>386</ele>
        <time>2016-07-30T08:03:37.017Z</time>
      </trkpt>
      <trkpt lat="43.14764" lon="5.92782">
        <ele>385</ele>
        <time>2016-07-30T08:03:38.017Z</time>
      </trkpt>
      <trkpt lat="43.14762" lon="5.92786">
        <ele>385</ele>
        <time>2016-07-30T08:03:39.017Z</time>
      </trkpt>
      <trkpt lat="43.14761" lon="5.92789">
        <ele>386</ele>
        <time>2016-07-30T08:03:40.017Z</time>
      </trkpt>
      <trkpt lat="43.14759" lon="5.92792">
        <ele>386</ele>
        <time>2016-07-30T08:03:41.017Z</time>
      </trkpt>
      <trkpt lat="43.14757" lon="5.92794">
        <ele>386</ele>
        <time>2016-07-30T08:03:42.017Z</time>
      </trkpt>
      <trkpt lat="43.14756" lon="5.92797">
        <ele>386</ele>
        <time>2016-07-30T08:03:43.017Z</time>
      </trkpt>
      <trkpt lat="43.14754" lon="5.928">
        <ele>386</ele>
        <time>2016-07-30T08:03:44.017Z</time>
      </trkpt>
      <trkpt lat="43.14752" lon="5.92802">
        <ele>386</ele>
        <time>2016-07-30T08:03:45.017Z</time>
      </trkpt>
      <trkpt lat="43.14751" lon="5.92805">
        <ele>386</ele>
        <time>2016-07-30T08:03:46.017Z</time>
      </trkpt>
      <trkpt lat="43.14749" lon="5.92808">
        <ele>386</ele>
        <time>2016-07-30T08:03:47.017Z</time>
      </trkpt>
      <trkpt lat="43.14748" lon="5.92811">
        <ele>387</ele>
        <time>2016-07-30T08:03:48.017Z</time>
      </trkpt>
      <trkpt lat="43.14747" lon="5.92813">
        <ele>387</ele>
        <time>2016-07-30T08:03:49.017Z</time>
      </trkpt>
      <trkpt lat="43.14745" lon="5.92816">
        <ele>387</ele>
        <time>2016-07-30T08:03:50.017Z</time>
      </trkpt>
      <trkpt lat="43.14744" lon="5.92819">
        <ele>387</ele>
        <time>2016-07-30T08:03:51.017Z</time>
      </trkpt>
      <trkpt lat="43.14743" lon="5.92822">
        <ele>388</ele>
        <time>2016-07-30T08:03:52.017Z</time>
      </trkpt>
      <trkpt lat="43.14743" lon="5.92825">
        <ele>388</ele>
        <time>2016-07-30T08:03:53.017Z</time>
      </trkpt>
      <trkpt lat="43.14742" lon="5.92828">
        <ele>388</ele>
        <time>2016-07-30T08:03:54.017Z</time>
      </trkpt>
      <trkpt lat="43.14741" lon="5.9283">
        <ele>389</ele>
        <time>2016-07-30T08:03:55.017Z</time>
      </trkpt>
      <trkpt lat="43.1474" lon="5.92833">
        <ele>389</ele>
        <time>2016-07-30T08:03:56.017Z</time>
      </trkpt>
      <trkpt lat="43.1474" lon="5.92835">
        <ele>389</ele>
        <time>2016-07-30T08:03:57.017Z</time>
      </trkpt>
      <trkpt lat="43.14739" lon="5.92838">
        <ele>389</ele>
        <time>2016-07-30T08:03:58.017Z</time>
      </trkpt>
      <trkpt lat="43.14739" lon="5.92841">
        <ele>389</ele>
        <time>2016-07-30T08:03:59.017Z</time>
      </trkpt>
      <trkpt lat="43.14738" lon="5.92844">
        <ele>389</ele>
        <time>2016-07-30T08:04:00.017Z</time>
      </trkpt>
      <trkpt lat="43.14738" lon="5.92846">
        <ele>390</ele>
        <time>2016-07-30T08:04:01.017Z</time>
      </trkpt>
      <trkpt lat="43.14737" lon="5.92849">
        <ele>390</ele>
        <time>2016-07-30T08:04:02.017Z</time>
      </trkpt>
      <trkpt lat="43.14736" lon="5.92852">
        <ele>390</ele>
        <time>2016-07-30T08:04:03.017Z</time>
      </trkpt>
      <trkpt lat="43.14735" lon="5.92855">
        <ele>390</ele>
        <time>2016-07-30T08:04:04.017Z</time>
      </trkpt>
      <trkpt lat="43.14735" lon="5.92857">
        <ele>390</ele>
        <time>2016-07-30T08:04:05.017Z</time>
      </trkpt>
      <trkpt lat="43.14734" lon="5.9286">
        <ele>390</ele>
        <time>2016-07-30T08:04:06.017Z</time>
      </trkpt>
      <trkpt lat="43.14733" lon="5.92862">
        <ele>390</ele>
        <time>2016-07-30T08:04:07.017Z</time>
      </trkpt>
      <trkpt lat="43.14732" lon="5.92865">
        <ele>391</ele>
        <time>2016-07-30T08:04:08.017Z</time>
      </trkpt>
      <trkpt lat="43.14731" lon="5.92867">
        <ele>391</ele>
        <time>2016-07-30T08:04:09.017Z</time>
      </trkpt>
      <trkpt lat="43.1473" lon="5.92869">
        <ele>391</ele>
        <time>2016-07-30T08:04:10.017Z</time>
      </trkpt>
      <trkpt lat="43.14729" lon="5.92871">
        <ele>391</ele>
        <time>2016-07-30T08:04:11.017Z</time>
      </trkpt>
      <trkpt lat="43.14728" lon="5.92873">
        <ele>391</ele>
        <time>2016-07-30T08:04:12.017Z</time>
      </trkpt>
      <trkpt lat="43.14727" lon="5.92875">
        <ele>392</ele>
        <time>2016-07-30T08:04:13.017Z</time>
      </trkpt>
      <trkpt lat="43.14726" lon="5.92877">
        <ele>392</ele>
        <time>2016-07-30T08:04:14.017Z</time>
      </trkpt>
      <trkpt lat="43.14724" lon="5.92879">
        <ele>392</ele>
        <time>2016-07-30T08:04:15.017Z</time>
      </trkpt>
      <trkpt lat="43.14723" lon="5.92881">
        <ele>392</ele>
        <time>2016-07-30T08:04:16.017Z</time>
      </trkpt>
      <trkpt lat="43.14722" lon="5.92883">
        <ele>392</ele>
        <time>2016-07-30T08:04:17.017Z</time>
      </trkpt>
      <trkpt lat="43.14721" lon="5.92885">
        <ele>392</ele>
        <time>2016-07-30T08:04:18.017Z</time>
      </trkpt>
      <trkpt lat="43.1472" lon="5.92887">
        <ele>392</ele>
        <time>2016-07-30T08:04:19.017Z</time>
      </trkpt>
      <trkpt lat="43.14719" lon="5.92889">
        <ele>393</ele>
        <time>2016-07-30T08:04:20.017Z</time>
      </trkpt>
      <trkpt lat="43.14718" lon="5.92891">
        <ele>393</ele>
        <time>2016-07-30T08:04:21.017Z</time>
      </trkpt>
      <trkpt lat="43.14717" lon="5.92893">
        <ele>393</ele>
        <time>2016-07-30T08:04:22.017Z</time>
      </trkpt>
      <trkpt lat="43.14715" lon="5.92895">
        <ele>393</ele>
        <time>2016-07-30T08:04:23.017Z</time>
      </trkpt>
      <trkpt lat="43.14714" lon="5.92896">
        <ele>394</ele>
        <time>2016-07-30T08:04:24.017Z</time>
      </trkpt>
      <trkpt lat="43.14713" lon="5.92898">
        <ele>394</ele>
        <time>2016-07-30T08:04:25.017Z</time>
      </trkpt>
      <trkpt lat="43.14711" lon="5.929">
        <ele>394</ele>
        <time>2016-07-30T08:04:26.017Z</time>
      </trkpt>
      <trkpt lat="43.1471" lon="5.92902">
        <ele>394</ele>
        <time>2016-07-30T08:04:27.017Z</time>
      </trkpt>
      <trkpt lat="43.14708" lon="5.92904">
        <ele>394</ele>
        <time>2016-07-30T08:04:28.017Z</time>
      </trkpt>
      <trkpt lat="43.14707" lon="5.92906">
        <ele>394</ele>
        <time>2016-07-30T08:04:29.017Z</time>
      </trkpt>
      <trkpt lat="43.14705" lon="5.92908">
        <ele>394</ele>
        <time>2016-07-30T08:04:30.017Z</time>
      </trkpt>
      <trkpt lat="43.14704" lon="5.9291">
        <ele>394</ele>
        <time>2016-07-30T08:04:31.017Z</time>
      </trkpt>
      <trkpt lat="43.14702" lon="5.92912">
        <ele>395</ele>
        <time>2016-07-30T08:04:32.017Z</time>
      </trkpt>
      <trkpt lat="43.147" lon="5.92913">
        <ele>395</ele>
        <time>2016-07-30T08:04:33.017Z</time>
      </trkpt>
      <trkpt lat="43.14699" lon="5.92915">
        <ele>395</ele>
        <time>2016-07-30T08:04:34.017Z</time>
      </trkpt>
      <trkpt lat="43.14697" lon="5.92917">
        <ele>395</ele>
        <time>2016-07-30T08:04:35.017Z</time>
      </trkpt>
      <trkpt lat="43.14696" lon="5.92919">
        <ele>395</ele>
        <time>2016-07-30T08:04:36.017Z</time>
      </trkpt>
      <trkpt lat="43.14694" lon="5.92921">
        <ele>395</ele>
        <time>2016-07-30T08:04:37.017Z</time>
      </trkpt>
      <trkpt lat="43.14692" lon="5.92923">
        <ele>395</ele>
        <time>2016-07-30T08:04:38.017Z</time>
      </trkpt>
      <trkpt lat="43.1469" lon="5.92925">
        <ele>395</ele>
        <time>2016-07-30T08:04:39.017Z</time>
      </trkpt>
      <trkpt lat="43.14688" lon="5.92926">
        <ele>395</ele>
        <time>2016-07-30T08:04:40.017Z</time>
      </trkpt>
      <trkpt lat="43.14686" lon="5.92928">
        <ele>395</ele>
        <time>2016-07-30T08:04:41.017Z</time>
      </trkpt>
      <trkpt lat="43.14684" lon="5.9293">
        <ele>395</ele>
        <time>2016-07-30T08:04:42.017Z</time>
      </trkpt>
      <trkpt lat="43.14683" lon="5.92932">
        <ele>394</ele>
        <time>2016-07-30T08:04:43.017Z</time>
      </trkpt>
      <trkpt lat="43.14681" lon="5.92934">
        <ele>394</ele>
        <time>2016-07-30T08:04:44.017Z</time>
      </trkpt>
      <trkpt lat="43.14679" lon="5.92936">
        <ele>394</ele>
        <time>2016-07-30T08:04:45.017Z</time>
      </trkpt>
      <trkpt lat="43.14678" lon="5.92938">
        <ele>392</ele>
        <time>2016-07-30T08:04:46.017Z</time>
      </trkpt>
      <trkpt lat="43.14677" lon="5.92941">
        <ele>391</ele>
        <time>2016-07-30T08:04:47.017Z</time>
      </trkpt>
      <trkpt lat="43.14677" lon="5.92944">
        <ele>391</ele>
        <time>2016-07-30T08:04:48.017Z</time>
      </trkpt>
      <trkpt lat="43.14677" lon="5.92947">
        <ele>392</ele>
        <time>2016-07-30T08:04:49.017Z</time>
      </trkpt>
      <trkpt lat="43.14678" lon="5.92951">
        <ele>392</ele>
        <time>2016-07-30T08:04:50.017Z</time>
      </trkpt>
      <trkpt lat="43.14679" lon="5.92953">
        <ele>393</ele>
        <time>2016-07-30T08:04:51.017Z</time>
      </trkpt>
      <trkpt lat="43.14681" lon="5.92955">
        <ele>393</ele>
        <time>2016-07-30T08:04:52.017Z</time>
      </trkpt>
      <trkpt lat="43.14684" lon="5.92956">
        <ele>393</ele>
        <time>2016-07-30T08:04:53.017Z</time>
      </trkpt>
      <trkpt lat="43.14686" lon="5.92956">
        <ele>393</ele>
        <time>2016-07-30T08:04:54.017Z</time>
      </trkpt>
      <trkpt lat="43.14688" lon="5.92955">
        <ele>393</ele>
        <time>2016-07-30T08:04:55.017Z</time>
      </trkpt>
      <trkpt lat="43.1469" lon="5.92954">
        <ele>394</ele>
        <time>2016-07-30T08:04:56.017Z</time>
      </trkpt>
      <trkpt lat="43.14692" lon="5.92951">
        <ele>394</ele>
        <time>2016-07-30T08:04:57.017Z</time>
      </trkpt>
      <trkpt lat="43.14693" lon="5.92949">
        <ele>394</ele>
        <time>2016-07-30T08:04:58.017Z</time>
      </trkpt>
      <trkpt lat="43.14694" lon="5.92946">
        <ele>395</ele>
        <time>2016-07-30T08:04:59.017Z</time>
      </trkpt>
      <trkpt lat="43.14695" lon="5.92944">
        <ele>395</ele>
        <time>2016-07-30T08:05:00.017Z</time>
      </trkpt>
      <trkpt lat="43.14696" lon="5.92942">
        <ele>396</ele>
        <time>2016-07-30T08:05:01.017Z</time>
      </trkpt>
      <trkpt lat="43.14697" lon="5.9294">
        <ele>397</ele>
        <time>2016-07-30T08:05:02.017Z</time>
      </trkpt>
      <trkpt lat="43.14699" lon="5.92937">
        <ele>397</ele>
        <time>2016-07-30T08:05:03.017Z</time>
      </trkpt>
      <trkpt lat="43.147" lon="5.92935">
        <ele>397</ele>
        <time>2016-07-30T08:05:04.017Z</time>
      </trkpt>
      <trkpt lat="43.14702" lon="5.92933">
        <ele>398</ele>
        <time>2016-07-30T08:05:05.017Z</time>
      </trkpt>
      <trkpt lat="43.14704" lon="5.92931">
        <ele>398</ele>
        <time>2016-07-30T08:05:06.017Z</time>
      </trkpt>
      <trkpt lat="43.14705" lon="5.92929">
        <ele>398</ele>
        <time>2016-07-30T08:05:07.017Z</time>
      </trkpt>
      <trkpt lat="43.14707" lon="5.92927">
        <ele>399</ele>
        <time>2016-07-30T08:05:08.017Z</time>
      </trkpt>
      <trkpt lat="43.14709" lon="5.92926">
        <ele>399</ele>
        <time>2016-07-30T08:05:09.017Z</time>
      </trkpt>
      <trkpt lat="43.1471" lon="5.92924">
        <ele>399</ele>
        <time>2016-07-30T08:05:10.017Z</time>
      </trkpt>
      <trkpt lat="43.14712" lon="5.92922">
        <ele>400</ele>
        <time>2016-07-30T08:05:11.017Z</time>
      </trkpt>
      <trkpt lat="43.14714" lon="5.9292">
        <ele>400</ele>
        <time>2016-07-30T08:05:12.017Z</time>
      </trkpt>
      <trkpt lat="43.14715" lon="5.92919">
        <ele>400</ele>
        <time>2016-07-30T08:05:13.017Z</time>
      </trkpt>
      <trkpt lat="43.14717" lon="5.92917">
        <ele>401</ele>
        <time>2016-07-30T08:05:14.017Z</time>
      </trkpt>
      <trkpt lat="43.14719" lon="5.92915">
        <ele>401</ele>
        <time>2016-07-30T08:05:15.017Z</time>
      </trkpt>
      <trkpt lat="43.14721" lon="5.92914">
        <ele>401</ele>
        <time>2016-07-30T08:05:16.017Z</time>
      </trkpt>
      <trkpt lat="43.14722" lon="5.92912">
        <ele>402</ele>
        <time>2016-07-30T08:05:17.017Z</time>
      </trkpt>
      <trkpt lat="43.14724" lon="5.9291">
        <ele>402</ele>
        <time>2016-07-30T08:05:18.017Z</time>
      </trkpt>
      <trkpt lat="43.14725" lon="5.92909">
        <ele>402</ele>
        <time>2016-07-30T08:05:19.017Z</time>
      </trkpt>
      <trkpt lat="43.14727" lon="5.92907">
        <ele>402</ele>
        <time>2016-07-30T08:05:20.017Z</time>
      </trkpt>
      <trkpt lat="43.14728" lon="5.92905">
        <ele>403</ele>
        <time>2016-07-30T08:05:21.017Z</time>
      </trkpt>
      <trkpt lat="43.1473" lon="5.92904">
        <ele>403</ele>
        <time>2016-07-30T08:05:22.017Z</time>
      </trkpt>
      <trkpt lat="43.14731" lon="5.92902">
        <ele>403</ele>
        <time>2016-07-30T08:05:23.017Z</time>
      </trkpt>
      <trkpt lat="43.14733" lon="5.929">
        <ele>403</ele>
        <time>2016-07-30T08:05:24.017Z</time>
      </trkpt>
      <trkpt lat="43.14735" lon="5.92899">
        <ele>404</ele>
        <time>2016-07-30T08:05:25.017Z</time>
      </trkpt>
      <trkpt lat="43.14736" lon="5.92897">
        <ele>404</ele>
        <time>2016-07-30T08:05:26.017Z</time>
      </trkpt>
      <trkpt lat="43.14738" lon="5.92896">
        <ele>404</ele>
        <time>2016-07-30T08:05:27.017Z</time>
      </trkpt>
      <trkpt lat="43.14739" lon="5.92894">
        <ele>405</ele>
        <time>2016-07-30T08:05:28.017Z</time>
      </trkpt>
      <trkpt lat="43.14741" lon="5.92893">
        <ele>405</ele>
        <time>2016-07-30T08:05:29.017Z</time>
      </trkpt>
      <trkpt lat="43.14742" lon="5.92891">
        <ele>405</ele>
        <time>2016-07-30T08:05:30.017Z</time>
      </trkpt>
      <trkpt lat="43.14744" lon="5.9289">
        <ele>405</ele>
        <time>2016-07-30T08:05:31.017Z</time>
      </trkpt>
      <trkpt lat="43.14745" lon="5.92888">
        <ele>406</ele>
        <time>2016-07-30T08:05:32.017Z</time>
      </trkpt>
      <trkpt lat="43.14747" lon="5.92887">
        <ele>406</ele>
        <time>2016-07-30T08:05:33.017Z</time>
      </trkpt>
      <trkpt lat="43.14748" lon="5.92885">
        <ele>406</ele>
        <time>2016-07-30T08:05:34.017Z</time>
      </trkpt>
      <trkpt lat="43.1475" lon="5.92884">
        <ele>406</ele>
        <time>2016-07-30T08:05:35.017Z</time>
      </trkpt>
      <trkpt lat="43.14752" lon="5.92882">
        <ele>407</ele>
        <time>2016-07-30T08:05:36.017Z</time>
      </trkpt>
      <trkpt lat="43.14753" lon="5.92881">
        <ele>407</ele>
        <time>2016-07-30T08:05:37.017Z</time>
      </trkpt>
      <trkpt lat="43.14755" lon="5.92879">
        <ele>408</ele>
        <time>2016-07-30T08:05:38.017Z</time>
      </trkpt>
      <trkpt lat="43.14757" lon="5.92878">
        <ele>408</ele>
        <time>2016-07-30T08:05:39.017Z</time>
      </trkpt>
      <trkpt lat="43.14759" lon="5.92876">
        <ele>408</ele>
        <time>2016-07-30T08:05:40.017Z</time>
      </trkpt>
      <trkpt lat="43.1476" lon="5.92874">
        <ele>409</ele>
        <time>2016-07-30T08:05:41.017Z</time>
      </trkpt>
      <trkpt lat="43.14762" lon="5.92873">
        <ele>409</ele>
        <time>2016-07-30T08:05:42.017Z</time>
      </trkpt>
      <trkpt lat="43.14764" lon="5.92871">
        <ele>409</ele>
        <time>2016-07-30T08:05:43.017Z</time>
      </trkpt>
      <trkpt lat="43.14766" lon="5.92869">
        <ele>409</ele>
        <time>2016-07-30T08:05:44.017Z</time>
      </trkpt>
      <trkpt lat="43.14768" lon="5.92868">
        <ele>409</ele>
        <time>2016-07-30T08:05:45.017Z</time>
      </trkpt>
      <trkpt lat="43.14769" lon="5.92866">
        <ele>410</ele>
        <time>2016-07-30T08:05:46.017Z</time>
      </trkpt>
      <trkpt lat="43.14771" lon="5.92865">
        <ele>410</ele>
        <time>2016-07-30T08:05:47.017Z</time>
      </trkpt>
      <trkpt lat="43.14773" lon="5.92864">
        <ele>410</ele>
        <time>2016-07-30T08:05:48.017Z</time>
      </trkpt>
      <trkpt lat="43.14774" lon="5.92862">
        <ele>410</ele>
        <time>2016-07-30T08:05:49.017Z</time>
      </trkpt>
      <trkpt lat="43.14776" lon="5.92861">
        <ele>411</ele>
        <time>2016-07-30T08:05:50.017Z</time>
      </trkpt>
      <trkpt lat="43.14777" lon="5.9286">
        <ele>411</ele>
        <time>2016-07-30T08:05:51.017Z</time>
      </trkpt>
      <trkpt lat="43.14778" lon="5.92858">
        <ele>411</ele>
        <time>2016-07-30T08:05:52.017Z</time>
      </trkpt>
      <trkpt lat="43.1478" lon="5.92857">
        <ele>411</ele>
        <time>2016-07-30T08:05:53.017Z</time>
      </trkpt>
      <trkpt lat="43.14781" lon="5.92856">
        <ele>411</ele>
        <time>2016-07-30T08:05:54.017Z</time>
      </trkpt>
      <trkpt lat="43.14783" lon="5.92854">
        <ele>412</ele>
        <time>2016-07-30T08:05:55.017Z</time>
      </trkpt>
      <trkpt lat="43.14784" lon="5.92853">
        <ele>412</ele>
        <time>2016-07-30T08:05:56.017Z</time>
      </trkpt>
      <trkpt lat="43.14786" lon="5.92852">
        <ele>412</ele>
        <time>2016-07-30T08:05:57.017Z</time>
      </trkpt>
      <trkpt lat="43.14788" lon="5.9285">
        <ele>412</ele>
        <time>2016-07-30T08:05:58.017Z</time>
      </trkpt>
      <trkpt lat="43.14789" lon="5.92849">
        <ele>413</ele>
        <time>2016-07-30T08:05:59.017Z</time>
      </trkpt>
      <trkpt lat="43.14791" lon="5.92847">
        <ele>413</ele>
        <time>2016-07-30T08:06:00.017Z</time>
      </trkpt>
      <trkpt lat="43.14792" lon="5.92845">
        <ele>413</ele>
        <time>2016-07-30T08:06:01.017Z</time>
      </trkpt>
      <trkpt lat="43.14793" lon="5.92844">
        <ele>413</ele>
        <time>2016-07-30T08:06:02.017Z</time>
      </trkpt>
      <trkpt lat="43.14794" lon="5.92842">
        <ele>413</ele>
        <time>2016-07-30T08:06:03.017Z</time>
      </trkpt>
      <trkpt lat="43.14795" lon="5.9284">
        <ele>414</ele>
        <time>2016-07-30T08:06:04.017Z</time>
      </trkpt>
      <trkpt lat="43.14797" lon="5.92838">
        <ele>414</ele>
        <time>2016-07-30T08:06:05.017Z</time>
      </trkpt>
      <trkpt lat="43.14798" lon="5.92836">
        <ele>414</ele>
        <time>2016-07-30T08:06:06.017Z</time>
      </trkpt>
      <trkpt lat="43.14799" lon="5.92833">
        <ele>415</ele>
        <time>2016-07-30T08:06:07.017Z</time>
      </trkpt>
      <trkpt lat="43.148" lon="5.92831">
        <ele>415</ele>
        <time>2016-07-30T08:06:08.017Z</time>
      </trkpt>
      <trkpt lat="43.14801" lon="5.92829">
        <ele>415</ele>
        <time>2016-07-30T08:06:09.017Z</time>
      </trkpt>
      <trkpt lat="43.14802" lon="5.92827">
        <ele>415</ele>
        <time>2016-07-30T08:06:10.017Z</time>
      </trkpt>
      <trkpt lat="43.14802" lon="5.92825">
        <ele>415</ele>
        <time>2016-07-30T08:06:11.017Z</time>
      </trkpt>
      <trkpt lat="43.14803" lon="5.92822">
        <ele>415</ele>
        <time>2016-07-30T08:06:12.017Z</time>
      </trkpt>
      <trkpt lat="43.14804" lon="5.9282">
        <ele>416</ele>
        <time>2016-07-30T08:06:13.017Z</time>
      </trkpt>
      <trkpt lat="43.14805" lon="5.92818">
        <ele>416</ele>
        <time>2016-07-30T08:06:14.017Z</time>
      </trkpt>
      <trkpt lat="43.14806" lon="5.92816">
        <ele>416</ele>
        <time>2016-07-30T08:06:15.017Z</time>
      </trkpt>
      <trkpt lat="43.14807" lon="5.92814">
        <ele>417</ele>
        <time>2016-07-30T08:06:16.017Z</time>
      </trkpt>
      <trkpt lat="43.14808" lon="5.92812">
        <ele>417</ele>
        <time>2016-07-30T08:06:17.017Z</time>
      </trkpt>
      <trkpt lat="43.14809" lon="5.9281">
        <ele>417</ele>
        <time>2016-07-30T08:06:18.017Z</time>
      </trkpt>
      <trkpt lat="43.1481" lon="5.92807">
        <ele>418</ele>
        <time>2016-07-30T08:06:19.017Z</time>
      </trkpt>
      <trkpt lat="43.14811" lon="5.92805">
        <ele>418</ele>
        <time>2016-07-30T08:06:20.017Z</time>
      </trkpt>
      <trkpt lat="43.14811" lon="5.92803">
        <ele>418</ele>
        <time>2016-07-30T08:06:21.017Z</time>
      </trkpt>
      <trkpt lat="43.14812" lon="5.92801">
        <ele>418</ele>
        <time>2016-07-30T08:06:22.017Z</time>
      </trkpt>
      <trkpt lat="43.14813" lon="5.92798">
        <ele>418</ele>
        <time>2016-07-30T08:06:23.017Z</time>
      </trkpt>
      <trkpt lat="43.14814" lon="5.92796">
        <ele>418</ele>
        <time>2016-07-30T08:06:24.017Z</time>
      </trkpt>
      <trkpt lat="43.14815" lon="5.92794">
        <ele>419</ele>
        <time>2016-07-30T08:06:25.017Z</time>
      </trkpt>
      <trkpt lat="43.14815" lon="5.92792">
        <ele>419</ele>
        <time>2016-07-30T08:06:26.017Z</time>
      </trkpt>
      <trkpt lat="43.14816" lon="5.9279">
        <ele>419</ele>
        <time>2016-07-30T08:06:27.017Z</time>
      </trkpt>
      <trkpt lat="43.14817" lon="5.92788">
        <ele>419</ele>
        <time>2016-07-30T08:06:28.017Z</time>
      </trkpt>
      <trkpt lat="43.14818" lon="5.92785">
        <ele>420</ele>
        <time>2016-07-30T08:06:29.017Z</time>
      </trkpt>
      <trkpt lat="43.14819" lon="5.92783">
        <ele>420</ele>
        <time>2016-07-30T08:06:30.017Z</time>
      </trkpt>
      <trkpt lat="43.1482" lon="5.92781">
        <ele>420</ele>
        <time>2016-07-30T08:06:31.017Z</time>
      </trkpt>
      <trkpt lat="43.1482" lon="5.92779">
        <ele>421</ele>
        <time>2016-07-30T08:06:32.017Z</time>
      </trkpt>
      <trkpt lat="43.14821" lon="5.92777">
        <ele>421</ele>
        <time>2016-07-30T08:06:33.017Z</time>
      </trkpt>
      <trkpt lat="43.14822" lon="5.92775">
        <ele>421</ele>
        <time>2016-07-30T08:06:34.017Z</time>
      </trkpt>
      <trkpt lat="43.14822" lon="5.92772">
        <ele>421</ele>
        <time>2016-07-30T08:06:35.017Z</time>
      </trkpt>
      <trkpt lat="43.14823" lon="5.9277">
        <ele>421</ele>
        <time>2016-07-30T08:06:36.017Z</time>
      </trkpt>
      <trkpt lat="43.14824" lon="5.92768">
        <ele>422</ele>
        <time>2016-07-30T08:06:37.017Z</time>
      </trkpt>
      <trkpt lat="43.14824" lon="5.92766">
        <ele>422</ele>
        <time>2016-07-30T08:06:38.017Z</time>
      </trkpt>
      <trkpt lat="43.14825" lon="5.92763">
        <ele>422</ele>
        <time>2016-07-30T08:06:39.017Z</time>
      </trkpt>
      <trkpt lat="43.14826" lon="5.92761">
        <ele>422</ele>
        <time>2016-07-30T08:06:40.017Z</time>
      </trkpt>
      <trkpt lat="43.14826" lon="5.92758">
        <ele>422</ele>
        <time>2016-07-30T08:06:41.017Z</time>
      </trkpt>
      <trkpt lat="43.14827" lon="5.92756">
        <ele>423</ele>
        <time>2016-07-30T08:06:42.017Z</time>
      </trkpt>
      <trkpt lat="43.14827" lon="5.92754">
        <ele>423</ele>
        <time>2016-07-30T08:06:43.017Z</time>
      </trkpt>
      <trkpt lat="43.14828" lon="5.92751">
        <ele>424</ele>
        <time>2016-07-30T08:06:44.017Z</time>
      </trkpt>
      <trkpt lat="43.14828" lon="5.92749">
        <ele>424</ele>
        <time>2016-07-30T08:06:45.017Z</time>
      </trkpt>
      <trkpt lat="43.14828" lon="5.92747">
        <ele>425</ele>
        <time>2016-07-30T08:06:46.017Z</time>
      </trkpt>
      <trkpt lat="43.14829" lon="5.92744">
        <ele>425</ele>
        <time>2016-07-30T08:06:47.017Z</time>
      </trkpt>
      <trkpt lat="43.14829" lon="5.92742">
        <ele>425</ele>
        <time>2016-07-30T08:06:48.017Z</time>
      </trkpt>
      <trkpt lat="43.1483" lon="5.9274">
        <ele>426</ele>
        <time>2016-07-30T08:06:49.017Z</time>
      </trkpt>
      <trkpt lat="43.1483" lon="5.92737">
        <ele>426</ele>
        <time>2016-07-30T08:06:50.017Z</time>
      </trkpt>
      <trkpt lat="43.1483" lon="5.92735">
        <ele>426</ele>
        <time>2016-07-30T08:06:51.017Z</time>
      </trkpt>
      <trkpt lat="43.14831" lon="5.92732">
        <ele>426</ele>
        <time>2016-07-30T08:06:52.017Z</time>
      </trkpt>
      <trkpt lat="43.14831" lon="5.9273">
        <ele>426</ele>
        <time>2016-07-30T08:06:53.017Z</time>
      </trkpt>
      <trkpt lat="43.14832" lon="5.92727">
        <ele>426</ele>
        <time>2016-07-30T08:06:54.017Z</time>
      </trkpt>
      <trkpt lat="43.14832" lon="5.92725">
        <ele>427</ele>
        <time>2016-07-30T08:06:55.017Z</time>
      </trkpt>
      <trkpt lat="43.14832" lon="5.92722">
        <ele>427</ele>
        <time>2016-07-30T08:06:56.017Z</time>
      </trkpt>
      <trkpt lat="43.14832" lon="5.9272">
        <ele>427</ele>
        <time>2016-07-30T08:06:57.017Z</time>
      </trkpt>
      <trkpt lat="43.14833" lon="5.92717">
        <ele>427</ele>
        <time>2016-07-30T08:06:58.017Z</time>
      </trkpt>
      <trkpt lat="43.14833" lon="5.92714">
        <ele>428</ele>
        <time>2016-07-30T08:06:59.017Z</time>
      </trkpt>
      <trkpt lat="43.14834" lon="5.92712">
        <ele>428</ele>
        <time>2016-07-30T08:07:00.017Z</time>
      </trkpt>
      <trkpt lat="43.14834" lon="5.92709">
        <ele>428</ele>
        <time>2016-07-30T08:07:01.017Z</time>
      </trkpt>
      <trkpt lat="43.14834" lon="5.92706">
        <ele>428</ele>
        <time>2016-07-30T08:07:02.017Z</time>
      </trkpt>
      <trkpt lat="43.14834" lon="5.92704">
        <ele>428</ele>
        <time>2016-07-30T08:07:03.017Z</time>
      </trkpt>
      <trkpt lat="43.14835" lon="5.92701">
        <ele>428</ele>
        <time>2016-07-30T08:07:04.017Z</time>
      </trkpt>
      <trkpt lat="43.14835" lon="5.92698">
        <ele>429</ele>
        <time>2016-07-30T08:07:05.017Z</time>
      </trkpt>
      <trkpt lat="43.14835" lon="5.92696">
        <ele>429</ele>
        <time>2016-07-30T08:07:06.017Z</time>
      </trkpt>
      <trkpt lat="43.14835" lon="5.92693">
        <ele>429</ele>
        <time>2016-07-30T08:07:07.017Z</time>
      </trkpt>
      <trkpt lat="43.14835" lon="5.9269">
        <ele>429</ele>
        <time>2016-07-30T08:07:08.017Z</time>
      </trkpt>
      <trkpt lat="43.14835" lon="5.92688">
        <ele>430</ele>
        <time>2016-07-30T08:07:09.017Z</time>
      </trkpt>
      <trkpt lat="43.14836" lon="5.92685">
        <ele>429</ele>
        <time>2016-07-30T08:07:10.017Z</time>
      </trkpt>
      <trkpt lat="43.14836" lon="5.92682">
        <ele>430</ele>
        <time>2016-07-30T08:07:11.017Z</time>
      </trkpt>
      <trkpt lat="43.14836" lon="5.9268">
        <ele>430</ele>
        <time>2016-07-30T08:07:12.017Z</time>
      </trkpt>
      <trkpt lat="43.14837" lon="5.92677">
        <ele>430</ele>
        <time>2016-07-30T08:07:13.017Z</time>
      </trkpt>
      <trkpt lat="43.14837" lon="5.92675">
        <ele>430</ele>
        <time>2016-07-30T08:07:14.017Z</time>
      </trkpt>
      <trkpt lat="43.14837" lon="5.92672">
        <ele>431</ele>
        <time>2016-07-30T08:07:15.017Z</time>
      </trkpt>
      <trkpt lat="43.14837" lon="5.92669">
        <ele>431</ele>
        <time>2016-07-30T08:07:16.017Z</time>
      </trkpt>
      <trkpt lat="43.14838" lon="5.92667">
        <ele>431</ele>
        <time>2016-07-30T08:07:17.017Z</time>
      </trkpt>
      <trkpt lat="43.14838" lon="5.92664">
        <ele>431</ele>
        <time>2016-07-30T08:07:18.017Z</time>
      </trkpt>
      <trkpt lat="43.14838" lon="5.92662">
        <ele>431</ele>
        <time>2016-07-30T08:07:19.017Z</time>
      </trkpt>
      <trkpt lat="43.14838" lon="5.92659">
        <ele>431</ele>
        <time>2016-07-30T08:07:20.017Z</time>
      </trkpt>
      <trkpt lat="43.14838" lon="5.92657">
        <ele>431</ele>
        <time>2016-07-30T08:07:21.017Z</time>
      </trkpt>
      <trkpt lat="43.14838" lon="5.92654">
        <ele>431</ele>
        <time>2016-07-30T08:07:22.017Z</time>
      </trkpt>
      <trkpt lat="43.14838" lon="5.92651">
        <ele>431</ele>
        <time>2016-07-30T08:07:23.017Z</time>
      </trkpt>
      <trkpt lat="43.14838" lon="5.92649">
        <ele>432</ele>
        <time>2016-07-30T08:07:24.017Z</time>
      </trkpt>
      <trkpt lat="43.14838" lon="5.92646">
        <ele>431</ele>
        <time>2016-07-30T08:07:25.017Z</time>
      </trkpt>
      <trkpt lat="43.14838" lon="5.92644">
        <ele>431</ele>
        <time>2016-07-30T08:07:26.017Z</time>
      </trkpt>
      <trkpt lat="43.14837" lon="5.92641">
        <ele>431</ele>
        <time>2016-07-30T08:07:27.017Z</time>
      </trkpt>
      <trkpt lat="43.14837" lon="5.92639">
        <ele>431</ele>
        <time>2016-07-30T08:07:28.017Z</time>
      </trkpt>
      <trkpt lat="43.14836" lon="5.92636">
        <ele>431</ele>
        <time>2016-07-30T08:07:29.017Z</time>
      </trkpt>
      <trkpt lat="43.14836" lon="5.92634">
        <ele>431</ele>
        <time>2016-07-30T08:07:30.017Z</time>
      </trkpt>
      <trkpt lat="43.14835" lon="5.92631">
        <ele>431</ele>
        <time>2016-07-30T08:07:31.017Z</time>
      </trkpt>
      <trkpt lat="43.14834" lon="5.92629">
        <ele>431</ele>
        <time>2016-07-30T08:07:32.017Z</time>
      </trkpt>
      <trkpt lat="43.14833" lon="5.92627">
        <ele>432</ele>
        <time>2016-07-30T08:07:33.017Z</time>
      </trkpt>
      <trkpt lat="43.14833" lon="5.92625">
        <ele>432</ele>
        <time>2016-07-30T08:07:34.017Z</time>
      </trkpt>
      <trkpt lat="43.14832" lon="5.92622">
        <ele>432</ele>
        <time>2016-07-30T08:07:35.017Z</time>
      </trkpt>
      <trkpt lat="43.14831" lon="5.9262">
        <ele>432</ele>
        <time>2016-07-30T08:07:36.017Z</time>
      </trkpt>
      <trkpt lat="43.1483" lon="5.92618">
        <ele>432</ele>
        <time>2016-07-30T08:07:37.017Z</time>
      </trkpt>
      <trkpt lat="43.14829" lon="5.92615">
        <ele>432</ele>
        <time>2016-07-30T08:07:38.017Z</time>
      </trkpt>
      <trkpt lat="43.14828" lon="5.92613">
        <ele>432</ele>
        <time>2016-07-30T08:07:39.017Z</time>
      </trkpt>
      <trkpt lat="43.14828" lon="5.9261">
        <ele>433</ele>
        <time>2016-07-30T08:07:40.017Z</time>
      </trkpt>
      <trkpt lat="43.14827" lon="5.92608">
        <ele>433</ele>
        <time>2016-07-30T08:07:41.017Z</time>
      </trkpt>
      <trkpt lat="43.14826" lon="5.92605">
        <ele>434</ele>
        <time>2016-07-30T08:07:42.017Z</time>
      </trkpt>
      <trkpt lat="43.14826" lon="5.92603">
        <ele>434</ele>
        <time>2016-07-30T08:07:43.017Z</time>
      </trkpt>
      <trkpt lat="43.14826" lon="5.926">
        <ele>434</ele>
        <time>2016-07-30T08:07:44.017Z</time>
      </trkpt>
      <trkpt lat="43.14826" lon="5.92598">
        <ele>433</ele>
        <time>2016-07-30T08:07:45.017Z</time>
      </trkpt>
      <trkpt lat="43.14827" lon="5.92595">
        <ele>433</ele>
        <time>2016-07-30T08:07:46.017Z</time>
      </trkpt>
      <trkpt lat="43.14829" lon="5.92593">
        <ele>433</ele>
        <time>2016-07-30T08:07:47.017Z</time>
      </trkpt>
      <trkpt lat="43.14831" lon="5.92592">
        <ele>432</ele>
        <time>2016-07-30T08:07:48.017Z</time>
      </trkpt>
      <trkpt lat="43.14832" lon="5.92591">
        <ele>432</ele>
        <time>2016-07-30T08:07:49.017Z</time>
      </trkpt>
      <trkpt lat="43.14834" lon="5.9259">
        <ele>432</ele>
        <time>2016-07-30T08:07:50.017Z</time>
      </trkpt>
      <trkpt lat="43.14836" lon="5.92589">
        <ele>432</ele>
        <time>2016-07-30T08:07:51.017Z</time>
      </trkpt>
      <trkpt lat="43.14838" lon="5.92589">
        <ele>431</ele>
        <time>2016-07-30T08:07:52.017Z</time>
      </trkpt>
      <trkpt lat="43.1484" lon="5.92589">
        <ele>431</ele>
        <time>2016-07-30T08:07:53.017Z</time>
      </trkpt>
      <trkpt lat="43.14842" lon="5.92589">
        <ele>431</ele>
        <time>2016-07-30T08:07:54.017Z</time>
      </trkpt>
      <trkpt lat="43.14844" lon="5.9259">
        <ele>431</ele>
        <time>2016-07-30T08:07:55.017Z</time>
      </trkpt>
      <trkpt lat="43.14846" lon="5.9259">
        <ele>431</ele>
        <time>2016-07-30T08:07:56.017Z</time>
      </trkpt>
      <trkpt lat="43.14848" lon="5.9259">
        <ele>431</ele>
        <time>2016-07-30T08:07:57.017Z</time>
      </trkpt>
      <trkpt lat="43.14849" lon="5.9259">
        <ele>432</ele>
        <time>2016-07-30T08:07:58.017Z</time>
      </trkpt>
      <trkpt lat="43.14851" lon="5.92591">
        <ele>432</ele>
        <time>2016-07-30T08:07:59.017Z</time>
      </trkpt>
      <trkpt lat="43.14853" lon="5.92591">
        <ele>432</ele>
        <time>2016-07-30T08:08:00.017Z</time>
      </trkpt>
      <trkpt lat="43.14855" lon="5.9259">
        <ele>432</ele>
        <time>2016-07-30T08:08:01.017Z</time>
      </trkpt>
      <trkpt lat="43.14857" lon="5.9259">
        <ele>432</ele>
        <time>2016-07-30T08:08:02.017Z</time>
      </trkpt>
      <trkpt lat="43.14859" lon="5.9259">
        <ele>432</ele>
        <time>2016-07-30T08:08:03.017Z</time>
      </trkpt>
      <trkpt lat="43.1486" lon="5.92589">
        <ele>432</ele>
        <time>2016-07-30T08:08:04.017Z</time>
      </trkpt>
      <trkpt lat="43.14862" lon="5.92589">
        <ele>432</ele>
        <time>2016-07-30T08:08:05.017Z</time>
      </trkpt>
      <trkpt lat="43.14864" lon="5.92588">
        <ele>432</ele>
        <time>2016-07-30T08:08:06.017Z</time>
      </trkpt>
      <trkpt lat="43.14865" lon="5.92587">
        <ele>432</ele>
        <time>2016-07-30T08:08:07.017Z</time>
      </trkpt>
      <trkpt lat="43.14867" lon="5.92586">
        <ele>432</ele>
        <time>2016-07-30T08:08:08.017Z</time>
      </trkpt>
      <trkpt lat="43.14868" lon="5.92585">
        <ele>432</ele>
        <time>2016-07-30T08:08:09.017Z</time>
      </trkpt>
      <trkpt lat="43.1487" lon="5.92584">
        <ele>433</ele>
        <time>2016-07-30T08:08:10.017Z</time>
      </trkpt>
      <trkpt lat="43.14872" lon="5.92582">
        <ele>433</ele>
        <time>2016-07-30T08:08:11.017Z</time>
      </trkpt>
      <trkpt lat="43.14873" lon="5.92581">
        <ele>433</ele>
        <time>2016-07-30T08:08:12.017Z</time>
      </trkpt>
      <trkpt lat="43.14874" lon="5.92579">
        <ele>434</ele>
        <time>2016-07-30T08:08:13.017Z</time>
      </trkpt>
      <trkpt lat="43.14876" lon="5.92578">
        <ele>434</ele>
        <time>2016-07-30T08:08:14.017Z</time>
      </trkpt>
      <trkpt lat="43.14877" lon="5.92576">
        <ele>434</ele>
        <time>2016-07-30T08:08:15.017Z</time>
      </trkpt>
      <trkpt lat="43.14879" lon="5.92575">
        <ele>435</ele>
        <time>2016-07-30T08:08:16.017Z</time>
      </trkpt>
      <trkpt lat="43.1488" lon="5.92573">
        <ele>435</ele>
        <time>2016-07-30T08:08:17.017Z</time>
      </trkpt>
      <trkpt lat="43.14882" lon="5.92572">
        <ele>435</ele>
        <time>2016-07-30T08:08:18.017Z</time>
      </trkpt>
      <trkpt lat="43.14884" lon="5.92571">
        <ele>435</ele>
        <time>2016-07-30T08:08:19.017Z</time>
      </trkpt>
      <trkpt lat="43.14885" lon="5.92569">
        <ele>436</ele>
        <time>2016-07-30T08:08:20.017Z</time>
      </trkpt>
      <trkpt lat="43.14887" lon="5.92568">
        <ele>436</ele>
        <time>2016-07-30T08:08:21.017Z</time>
      </trkpt>
      <trkpt lat="43.14888" lon="5.92566">
        <ele>436</ele>
        <time>2016-07-30T08:08:22.017Z</time>
      </trkpt>
      <trkpt lat="43.1489" lon="5.92565">
        <ele>436</ele>
        <time>2016-07-30T08:08:23.017Z</time>
      </trkpt>
      <trkpt lat="43.14891" lon="5.92563">
        <ele>436</ele>
        <time>2016-07-30T08:08:24.017Z</time>
      </trkpt>
      <trkpt lat="43.14893" lon="5.92562">
        <ele>437</ele>
        <time>2016-07-30T08:08:25.017Z</time>
      </trkpt>
      <trkpt lat="43.14894" lon="5.9256">
        <ele>437</ele>
        <time>2016-07-30T08:08:26.017Z</time>
      </trkpt>
      <trkpt lat="43.14896" lon="5.92559">
        <ele>437</ele>
        <time>2016-07-30T08:08:27.017Z</time>
      </trkpt>
      <trkpt lat="43.14897" lon="5.92557">
        <ele>438</ele>
        <time>2016-07-30T08:08:28.017Z</time>
      </trkpt>
      <trkpt lat="43.14899" lon="5.92556">
        <ele>438</ele>
        <time>2016-07-30T08:08:29.017Z</time>
      </trkpt>
      <trkpt lat="43.149" lon="5.92555">
        <ele>438</ele>
        <time>2016-07-30T08:08:30.017Z</time>
      </trkpt>
      <trkpt lat="43.14902" lon="5.92553">
        <ele>438</ele>
        <time>2016-07-30T08:08:31.017Z</time>
      </trkpt>
      <trkpt lat="43.14903" lon="5.92552">
        <ele>438</ele>
        <time>2016-07-30T08:08:32.017Z</time>
      </trkpt>
      <trkpt lat="43.14905" lon="5.9255">
        <ele>438</ele>
        <time>2016-07-30T08:08:33.017Z</time>
      </trkpt>
      <trkpt lat="43.14906" lon="5.92549">
        <ele>439</ele>
        <time>2016-07-30T08:08:34.017Z</time>
      </trkpt>
      <trkpt lat="43.14908" lon="5.92547">
        <ele>439</ele>
        <time>2016-07-30T08:08:35.017Z</time>
      </trkpt>
      <trkpt lat="43.14909" lon="5.92546">
        <ele>439</ele>
        <time>2016-07-30T08:08:36.017Z</time>
      </trkpt>
      <trkpt lat="43.14911" lon="5.92544">
        <ele>439</ele>
        <time>2016-07-30T08:08:37.017Z</time>
      </trkpt>
      <trkpt lat="43.14913" lon="5.92543">
        <ele>440</ele>
        <time>2016-07-30T08:08:38.017Z</time>
      </trkpt>
      <trkpt lat="43.14915" lon="5.92541">
        <ele>440</ele>
        <time>2016-07-30T08:08:39.017Z</time>
      </trkpt>
      <trkpt lat="43.14916" lon="5.92539">
        <ele>440</ele>
        <time>2016-07-30T08:08:40.017Z</time>
      </trkpt>
      <trkpt lat="43.14918" lon="5.92538">
        <ele>440</ele>
        <time>2016-07-30T08:08:41.017Z</time>
      </trkpt>
      <trkpt lat="43.1492" lon="5.92535">
        <ele>440</ele>
        <time>2016-07-30T08:08:42.017Z</time>
      </trkpt>
      <trkpt lat="43.14921" lon="5.92533">
        <ele>441</ele>
        <time>2016-07-30T08:08:43.017Z</time>
      </trkpt>
      <trkpt lat="43.14923" lon="5.92531">
        <ele>441</ele>
        <time>2016-07-30T08:08:44.017Z</time>
      </trkpt>
      <trkpt lat="43.14924" lon="5.92529">
        <ele>441</ele>
        <time>2016-07-30T08:08:45.017Z</time>
      </trkpt>
      <trkpt lat="43.14926" lon="5.92527">
        <ele>442</ele>
        <time>2016-07-30T08:08:46.017Z</time>
      </trkpt>
      <trkpt lat="43.14927" lon="5.92524">
        <ele>442</ele>
        <time>2016-07-30T08:08:47.017Z</time>
      </trkpt>
      <trkpt lat="43.14929" lon="5.92522">
        <ele>442</ele>
        <time>2016-07-30T08:08:48.017Z</time>
      </trkpt>
      <trkpt lat="43.1493" lon="5.9252">
        <ele>442</ele>
        <time>2016-07-30T08:08:49.017Z</time>
      </trkpt>
      <trkpt lat="43.14932" lon="5.92518">
        <ele>442</ele>
        <time>2016-07-30T08:08:50.017Z</time>
      </trkpt>
      <trkpt lat="43.14934" lon="5.92515">
        <ele>442</ele>
        <time>2016-07-30T08:08:51.017Z</time>
      </trkpt>
      <trkpt lat="43.14935" lon="5.92512">
        <ele>442</ele>
        <time>2016-07-30T08:08:52.017Z</time>
      </trkpt>
      <trkpt lat="43.14937" lon="5.92509">
        <ele>442</ele>
        <time>2016-07-30T08:08:53.017Z</time>
      </trkpt>
      <trkpt lat="43.14938" lon="5.92506">
        <ele>442</ele>
        <time>2016-07-30T08:08:54.017Z</time>
      </trkpt>
      <trkpt lat="43.1494" lon="5.92502">
        <ele>443</ele>
        <time>2016-07-30T08:08:55.017Z</time>
      </trkpt>
      <trkpt lat="43.14942" lon="5.92499">
        <ele>443</ele>
        <time>2016-07-30T08:08:56.017Z</time>
      </trkpt>
      <trkpt lat="43.14944" lon="5.92496">
        <ele>443</ele>
        <time>2016-07-30T08:08:57.017Z</time>
      </trkpt>
      <trkpt lat="43.14946" lon="5.92494">
        <ele>442</ele>
        <time>2016-07-30T08:08:58.017Z</time>
      </trkpt>
      <trkpt lat="43.14949" lon="5.92493">
        <ele>441</ele>
        <time>2016-07-30T08:08:59.017Z</time>
      </trkpt>
      <trkpt lat="43.14952" lon="5.92493">
        <ele>442</ele>
        <time>2016-07-30T08:09:00.017Z</time>
      </trkpt>
      <trkpt lat="43.14955" lon="5.92493">
        <ele>442</ele>
        <time>2016-07-30T08:09:01.017Z</time>
      </trkpt>
      <trkpt lat="43.14957" lon="5.92495">
        <ele>442</ele>
        <time>2016-07-30T08:09:02.017Z</time>
      </trkpt>
      <trkpt lat="43.14958" lon="5.92499">
        <ele>441</ele>
        <time>2016-07-30T08:09:03.017Z</time>
      </trkpt>
      <trkpt lat="43.14958" lon="5.92503">
        <ele>440</ele>
        <time>2016-07-30T08:09:04.017Z</time>
      </trkpt>
      <trkpt lat="43.14957" lon="5.92507">
        <ele>439</ele>
        <time>2016-07-30T08:09:05.017Z</time>
      </trkpt>
      <trkpt lat="43.14956" lon="5.9251">
        <ele>439</ele>
        <time>2016-07-30T08:09:06.017Z</time>
      </trkpt>
      <trkpt lat="43.14955" lon="5.92513">
        <ele>439</ele>
        <time>2016-07-30T08:09:07.017Z</time>
      </trkpt>
      <trkpt lat="43.14954" lon="5.92516">
        <ele>439</ele>
        <time>2016-07-30T08:09:08.017Z</time>
      </trkpt>
      <trkpt lat="43.14952" lon="5.92518">
        <ele>439</ele>
        <time>2016-07-30T08:09:09.017Z</time>
      </trkpt>
      <trkpt lat="43.1495" lon="5.92521">
        <ele>440</ele>
        <time>2016-07-30T08:09:10.017Z</time>
      </trkpt>
      <trkpt lat="43.14948" lon="5.92523">
        <ele>440</ele>
        <time>2016-07-30T08:09:11.017Z</time>
      </trkpt>
      <trkpt lat="43.14946" lon="5.92526">
        <ele>441</ele>
        <time>2016-07-30T08:09:12.017Z</time>
      </trkpt>
      <trkpt lat="43.14945" lon="5.92528">
        <ele>441</ele>
        <time>2016-07-30T08:09:13.017Z</time>
      </trkpt>
      <trkpt lat="43.14943" lon="5.92531">
        <ele>442</ele>
        <time>2016-07-30T08:09:14.017Z</time>
      </trkpt>
      <trkpt lat="43.14941" lon="5.92534">
        <ele>443</ele>
        <time>2016-07-30T08:09:15.017Z</time>
      </trkpt>
      <trkpt lat="43.1494" lon="5.92536">
        <ele>444</ele>
        <time>2016-07-30T08:09:16.017Z</time>
      </trkpt>
      <trkpt lat="43.14938" lon="5.92539">
        <ele>444</ele>
        <time>2016-07-30T08:09:17.017Z</time>
      </trkpt>
      <trkpt lat="43.14937" lon="5.92542">
        <ele>445</ele>
        <time>2016-07-30T08:09:18.017Z</time>
      </trkpt>
      <trkpt lat="43.14935" lon="5.92544">
        <ele>445</ele>
        <time>2016-07-30T08:09:19.017Z</time>
      </trkpt>
      <trkpt lat="43.14933" lon="5.92547">
        <ele>446</ele>
        <time>2016-07-30T08:09:20.017Z</time>
      </trkpt>
      <trkpt lat="43.14932" lon="5.9255">
        <ele>446</ele>
        <time>2016-07-30T08:09:21.017Z</time>
      </trkpt>
      <trkpt lat="43.1493" lon="5.92552">
        <ele>447</ele>
        <time>2016-07-30T08:09:22.017Z</time>
      </trkpt>
      <trkpt lat="43.14929" lon="5.92555">
        <ele>447</ele>
        <time>2016-07-30T08:09:23.017Z</time>
      </trkpt>
      <trkpt lat="43.14927" lon="5.92557">
        <ele>447</ele>
        <time>2016-07-30T08:09:24.017Z</time>
      </trkpt>
      <trkpt lat="43.14925" lon="5.9256">
        <ele>448</ele>
        <time>2016-07-30T08:09:25.017Z</time>
      </trkpt>
      <trkpt lat="43.14924" lon="5.92562">
        <ele>448</ele>
        <time>2016-07-30T08:09:26.017Z</time>
      </trkpt>
      <trkpt lat="43.14922" lon="5.92565">
        <ele>448</ele>
        <time>2016-07-30T08:09:27.017Z</time>
      </trkpt>
      <trkpt lat="43.14921" lon="5.92568">
        <ele>449</ele>
        <time>2016-07-30T08:09:28.017Z</time>
      </trkpt>
      <trkpt lat="43.14919" lon="5.9257">
        <ele>449</ele>
        <time>2016-07-30T08:09:29.017Z</time>
      </trkpt>
      <trkpt lat="43.14918" lon="5.92573">
        <ele>450</ele>
        <time>2016-07-30T08:09:30.017Z</time>
      </trkpt>
      <trkpt lat="43.14916" lon="5.92575">
        <ele>450</ele>
        <time>2016-07-30T08:09:31.017Z</time>
      </trkpt>
      <trkpt lat="43.14914" lon="5.92578">
        <ele>450</ele>
        <time>2016-07-30T08:09:32.017Z</time>
      </trkpt>
      <trkpt lat="43.14913" lon="5.9258">
        <ele>451</ele>
        <time>2016-07-30T08:09:33.017Z</time>
      </trkpt>
      <trkpt lat="43.14911" lon="5.92583">
        <ele>451</ele>
        <time>2016-07-30T08:09:34.017Z</time>
      </trkpt>
      <trkpt lat="43.1491" lon="5.92586">
        <ele>451</ele>
        <time>2016-07-30T08:09:35.017Z</time>
      </trkpt>
      <trkpt lat="43.14908" lon="5.92588">
        <ele>451</ele>
        <time>2016-07-30T08:09:36.017Z</time>
      </trkpt>
      <trkpt lat="43.14907" lon="5.92591">
        <ele>451</ele>
        <time>2016-07-30T08:09:37.017Z</time>
      </trkpt>
      <trkpt lat="43.14905" lon="5.92593">
        <ele>451</ele>
        <time>2016-07-30T08:09:38.017Z</time>
      </trkpt>
      <trkpt lat="43.14904" lon="5.92596">
        <ele>452</ele>
        <time>2016-07-30T08:09:39.017Z</time>
      </trkpt>
      <trkpt lat="43.14903" lon="5.92599">
        <ele>452</ele>
        <time>2016-07-30T08:09:40.017Z</time>
      </trkpt>
      <trkpt lat="43.14901" lon="5.92601">
        <ele>453</ele>
        <time>2016-07-30T08:09:41.017Z</time>
      </trkpt>
      <trkpt lat="43.149" lon="5.92604">
        <ele>453</ele>
        <time>2016-07-30T08:09:42.017Z</time>
      </trkpt>
      <trkpt lat="43.14899" lon="5.92607">
        <ele>453</ele>
        <time>2016-07-30T08:09:43.017Z</time>
      </trkpt>
      <trkpt lat="43.14898" lon="5.9261">
        <ele>454</ele>
        <time>2016-07-30T08:09:44.017Z</time>
      </trkpt>
      <trkpt lat="43.14897" lon="5.92612">
        <ele>454</ele>
        <time>2016-07-30T08:09:45.017Z</time>
      </trkpt>
      <trkpt lat="43.14896" lon="5.92615">
        <ele>454</ele>
        <time>2016-07-30T08:09:46.017Z</time>
      </trkpt>
      <trkpt lat="43.14894" lon="5.92618">
        <ele>455</ele>
        <time>2016-07-30T08:09:47.017Z</time>
      </trkpt>
      <trkpt lat="43.14893" lon="5.92621">
        <ele>455</ele>
        <time>2016-07-30T08:09:48.017Z</time>
      </trkpt>
      <trkpt lat="43.14892" lon="5.92624">
        <ele>455</ele>
        <time>2016-07-30T08:09:49.017Z</time>
      </trkpt>
      <trkpt lat="43.14891" lon="5.92628">
        <ele>455</ele>
        <time>2016-07-30T08:09:50.017Z</time>
      </trkpt>
      <trkpt lat="43.1489" lon="5.92631">
        <ele>456</ele>
        <time>2016-07-30T08:09:51.017Z</time>
      </trkpt>
      <trkpt lat="43.14889" lon="5.92634">
        <ele>456</ele>
        <time>2016-07-30T08:09:52.017Z</time>
      </trkpt>
      <trkpt lat="43.14889" lon="5.92638">
        <ele>457</ele>
        <time>2016-07-30T08:09:53.017Z</time>
      </trkpt>
      <trkpt lat="43.14888" lon="5.92641">
        <ele>457</ele>
        <time>2016-07-30T08:09:54.017Z</time>
      </trkpt>
      <trkpt lat="43.14888" lon="5.92644">
        <ele>458</ele>
        <time>2016-07-30T08:09:55.017Z</time>
      </trkpt>
      <trkpt lat="43.14888" lon="5.92647">
        <ele>458</ele>
        <time>2016-07-30T08:09:56.017Z</time>
      </trkpt>
      <trkpt lat="43.14888" lon="5.9265">
        <ele>458</ele>
        <time>2016-07-30T08:09:57.017Z</time>
      </trkpt>
      <trkpt lat="43.14888" lon="5.92654">
        <ele>459</ele>
        <time>2016-07-30T08:09:58.017Z</time>
      </trkpt>
      <trkpt lat="43.14888" lon="5.92657">
        <ele>459</ele>
        <time>2016-07-30T08:09:59.017Z</time>
      </trkpt>
      <trkpt lat="43.14889" lon="5.9266">
        <ele>459</ele>
        <time>2016-07-30T08:10:00.017Z</time>
      </trkpt>
      <trkpt lat="43.1489" lon="5.92663">
        <ele>459</ele>
        <time>2016-07-30T08:10:01.017Z</time>
      </trkpt>
      <trkpt lat="43.14891" lon="5.92666">
        <ele>459</ele>
        <time>2016-07-30T08:10:02.017Z</time>
      </trkpt>
      <trkpt lat="43.14892" lon="5.92669">
        <ele>459</ele>
        <time>2016-07-30T08:10:03.017Z</time>
      </trkpt>
      <trkpt lat="43.14893" lon="5.92672">
        <ele>460</ele>
        <time>2016-07-30T08:10:04.017Z</time>
      </trkpt>
      <trkpt lat="43.14894" lon="5.92674">
        <ele>460</ele>
        <time>2016-07-30T08:10:05.017Z</time>
      </trkpt>
      <trkpt lat="43.14895" lon="5.92677">
        <ele>460</ele>
        <time>2016-07-30T08:10:06.017Z</time>
      </trkpt>
      <trkpt lat="43.14896" lon="5.92679">
        <ele>461</ele>
        <time>2016-07-30T08:10:07.017Z</time>
      </trkpt>
      <trkpt lat="43.14898" lon="5.92681">
        <ele>461</ele>
        <time>2016-07-30T08:10:08.017Z</time>
      </trkpt>
      <trkpt lat="43.14899" lon="5.92683">
        <ele>462</ele>
        <time>2016-07-30T08:10:09.017Z</time>
      </trkpt>
      <trkpt lat="43.14901" lon="5.92685">
        <ele>462</ele>
        <time>2016-07-30T08:10:10.017Z</time>
      </trkpt>
      <trkpt lat="43.14902" lon="5.92686">
        <ele>462</ele>
        <time>2016-07-30T08:10:11.017Z</time>
      </trkpt>
      <trkpt lat="43.14904" lon="5.92688">
        <ele>463</ele>
        <time>2016-07-30T08:10:12.017Z</time>
      </trkpt>
      <trkpt lat="43.14906" lon="5.92689">
        <ele>464</ele>
        <time>2016-07-30T08:10:13.017Z</time>
      </trkpt>
      <trkpt lat="43.14907" lon="5.9269">
        <ele>464</ele>
        <time>2016-07-30T08:10:14.017Z</time>
      </trkpt>
      <trkpt lat="43.14909" lon="5.92692">
        <ele>464</ele>
        <time>2016-07-30T08:10:15.017Z</time>
      </trkpt>
      <trkpt lat="43.14911" lon="5.92693">
        <ele>464</ele>
        <time>2016-07-30T08:10:16.017Z</time>
      </trkpt>
      <trkpt lat="43.14913" lon="5.92695">
        <ele>465</ele>
        <time>2016-07-30T08:10:17.017Z</time>
      </trkpt>
      <trkpt lat="43.14915" lon="5.92696">
        <ele>465</ele>
        <time>2016-07-30T08:10:18.017Z</time>
      </trkpt>
      <trkpt lat="43.14917" lon="5.92697">
        <ele>465</ele>
        <time>2016-07-30T08:10:19.017Z</time>
      </trkpt>
      <trkpt lat="43.14918" lon="5.92699">
        <ele>465</ele>
        <time>2016-07-30T08:10:20.017Z</time>
      </trkpt>
      <trkpt lat="43.1492" lon="5.927">
        <ele>465</ele>
        <time>2016-07-30T08:10:21.017Z</time>
      </trkpt>
      <trkpt lat="43.14922" lon="5.92702">
        <ele>465</ele>
        <time>2016-07-30T08:10:22.017Z</time>
      </trkpt>
      <trkpt lat="43.14923" lon="5.92704">
        <ele>465</ele>
        <time>2016-07-30T08:10:23.017Z</time>
      </trkpt>
      <trkpt lat="43.14925" lon="5.92706">
        <ele>466</ele>
        <time>2016-07-30T08:10:24.017Z</time>
      </trkpt>
      <trkpt lat="43.14926" lon="5.92708">
        <ele>466</ele>
        <time>2016-07-30T08:10:25.017Z</time>
      </trkpt>
      <trkpt lat="43.14927" lon="5.9271">
        <ele>466</ele>
        <time>2016-07-30T08:10:26.017Z</time>
      </trkpt>
      <trkpt lat="43.14929" lon="5.92712">
        <ele>466</ele>
        <time>2016-07-30T08:10:27.017Z</time>
      </trkpt>
      <trkpt lat="43.1493" lon="5.92715">
        <ele>466</ele>
        <time>2016-07-30T08:10:28.017Z</time>
      </trkpt>
      <trkpt lat="43.1493" lon="5.92717">
        <ele>467</ele>
        <time>2016-07-30T08:10:29.017Z</time>
      </trkpt>
      <trkpt lat="43.14931" lon="5.9272">
        <ele>467</ele>
        <time>2016-07-30T08:10:30.017Z</time>
      </trkpt>
      <trkpt lat="43.14931" lon="5.92722">
        <ele>467</ele>
        <time>2016-07-30T08:10:31.017Z</time>
      </trkpt>
      <trkpt lat="43.14931" lon="5.92725">
        <ele>467</ele>
        <time>2016-07-30T08:10:32.017Z</time>
      </trkpt>
      <trkpt lat="43.14931" lon="5.92727">
        <ele>466</ele>
        <time>2016-07-30T08:10:33.017Z</time>
      </trkpt>
      <trkpt lat="43.14931" lon="5.9273">
        <ele>467</ele>
        <time>2016-07-30T08:10:34.017Z</time>
      </trkpt>
      <trkpt lat="43.14931" lon="5.92732">
        <ele>467</ele>
        <time>2016-07-30T08:10:35.017Z</time>
      </trkpt>
      <trkpt lat="43.1493" lon="5.92735">
        <ele>467</ele>
        <time>2016-07-30T08:10:36.017Z</time>
      </trkpt>
      <trkpt lat="43.1493" lon="5.92738">
        <ele>468</ele>
        <time>2016-07-30T08:10:37.017Z</time>
      </trkpt>
      <trkpt lat="43.1493" lon="5.9274">
        <ele>468</ele>
        <time>2016-07-30T08:10:38.017Z</time>
      </trkpt>
      <trkpt lat="43.14929" lon="5.92743">
        <ele>468</ele>
        <time>2016-07-30T08:10:39.017Z</time>
      </trkpt>
      <trkpt lat="43.14929" lon="5.92745">
        <ele>468</ele>
        <time>2016-07-30T08:10:40.017Z</time>
      </trkpt>
      <trkpt lat="43.14929" lon="5.92748">
        <ele>469</ele>
        <time>2016-07-30T08:10:41.017Z</time>
      </trkpt>
      <trkpt lat="43.14929" lon="5.92751">
        <ele>469</ele>
        <time>2016-07-30T08:10:42.017Z</time>
      </trkpt>
      <trkpt lat="43.14928" lon="5.92754">
        <ele>468</ele>
        <time>2016-07-30T08:10:43.017Z</time>
      </trkpt>
      <trkpt lat="43.14928" lon="5.92757">
        <ele>468</ele>
        <time>2016-07-30T08:10:44.017Z</time>
      </trkpt>
      <trkpt lat="43.14928" lon="5.92759">
        <ele>468</ele>
        <time>2016-07-30T08:10:45.017Z</time>
      </trkpt>
      <trkpt lat="43.14928" lon="5.92762">
        <ele>468</ele>
        <time>2016-07-30T08:10:46.017Z</time>
      </trkpt>
      <trkpt lat="43.14927" lon="5.92765">
        <ele>469</ele>
        <time>2016-07-30T08:10:47.017Z</time>
      </trkpt>
      <trkpt lat="43.14927" lon="5.92768">
        <ele>469</ele>
        <time>2016-07-30T08:10:48.017Z</time>
      </trkpt>
      <trkpt lat="43.14927" lon="5.9277">
        <ele>469</ele>
        <time>2016-07-30T08:10:49.017Z</time>
      </trkpt>
      <trkpt lat="43.14926" lon="5.92773">
        <ele>469</ele>
        <time>2016-07-30T08:10:50.017Z</time>
      </trkpt>
      <trkpt lat="43.14926" lon="5.92775">
        <ele>469</ele>
        <time>2016-07-30T08:10:51.017Z</time>
      </trkpt>
      <trkpt lat="43.14926" lon="5.92778">
        <ele>469</ele>
        <time>2016-07-30T08:10:52.017Z</time>
      </trkpt>
      <trkpt lat="43.14925" lon="5.92781">
        <ele>470</ele>
        <time>2016-07-30T08:10:53.017Z</time>
      </trkpt>
      <trkpt lat="43.14925" lon="5.92784">
        <ele>470</ele>
        <time>2016-07-30T08:10:54.017Z</time>
      </trkpt>
      <trkpt lat="43.14925" lon="5.92786">
        <ele>470</ele>
        <time>2016-07-30T08:10:55.017Z</time>
      </trkpt>
      <trkpt lat="43.14925" lon="5.92789">
        <ele>471</ele>
        <time>2016-07-30T08:10:56.017Z</time>
      </trkpt>
      <trkpt lat="43.14925" lon="5.92791">
        <ele>471</ele>
        <time>2016-07-30T08:10:57.017Z</time>
      </trkpt>
      <trkpt lat="43.14924" lon="5.92794">
        <ele>471</ele>
        <time>2016-07-30T08:10:58.017Z</time>
      </trkpt>
      <trkpt lat="43.14924" lon="5.92797">
        <ele>471</ele>
        <time>2016-07-30T08:10:59.017Z</time>
      </trkpt>
      <trkpt lat="43.14924" lon="5.92799">
        <ele>472</ele>
        <time>2016-07-30T08:11:00.017Z</time>
      </trkpt>
      <trkpt lat="43.14924" lon="5.92802">
        <ele>472</ele>
        <time>2016-07-30T08:11:01.017Z</time>
      </trkpt>
      <trkpt lat="43.14924" lon="5.92805">
        <ele>472</ele>
        <time>2016-07-30T08:11:02.017Z</time>
      </trkpt>
      <trkpt lat="43.14924" lon="5.92807">
        <ele>473</ele>
        <time>2016-07-30T08:11:03.017Z</time>
      </trkpt>
      <trkpt lat="43.14924" lon="5.9281">
        <ele>473</ele>
        <time>2016-07-30T08:11:04.017Z</time>
      </trkpt>
      <trkpt lat="43.14924" lon="5.92812">
        <ele>474</ele>
        <time>2016-07-30T08:11:05.017Z</time>
      </trkpt>
      <trkpt lat="43.14924" lon="5.92815">
        <ele>474</ele>
        <time>2016-07-30T08:11:06.017Z</time>
      </trkpt>
      <trkpt lat="43.14924" lon="5.92817">
        <ele>474</ele>
        <time>2016-07-30T08:11:07.017Z</time>
      </trkpt>
      <trkpt lat="43.14924" lon="5.9282">
        <ele>475</ele>
        <time>2016-07-30T08:11:08.017Z</time>
      </trkpt>
      <trkpt lat="43.14925" lon="5.92822">
        <ele>475</ele>
        <time>2016-07-30T08:11:09.017Z</time>
      </trkpt>
      <trkpt lat="43.14925" lon="5.92825">
        <ele>475</ele>
        <time>2016-07-30T08:11:10.017Z</time>
      </trkpt>
      <trkpt lat="43.14925" lon="5.92827">
        <ele>475</ele>
        <time>2016-07-30T08:11:11.017Z</time>
      </trkpt>
      <trkpt lat="43.14925" lon="5.9283">
        <ele>475</ele>
        <time>2016-07-30T08:11:12.017Z</time>
      </trkpt>
      <trkpt lat="43.14925" lon="5.92832">
        <ele>476</ele>
        <time>2016-07-30T08:11:13.017Z</time>
      </trkpt>
      <trkpt lat="43.14925" lon="5.92835">
        <ele>476</ele>
        <time>2016-07-30T08:11:14.017Z</time>
      </trkpt>
      <trkpt lat="43.14925" lon="5.92838">
        <ele>476</ele>
        <time>2016-07-30T08:11:15.017Z</time>
      </trkpt>
      <trkpt lat="43.14925" lon="5.9284">
        <ele>477</ele>
        <time>2016-07-30T08:11:16.017Z</time>
      </trkpt>
      <trkpt lat="43.14925" lon="5.92843">
        <ele>477</ele>
        <time>2016-07-30T08:11:17.017Z</time>
      </trkpt>
      <trkpt lat="43.14926" lon="5.92845">
        <ele>477</ele>
        <time>2016-07-30T08:11:18.017Z</time>
      </trkpt>
      <trkpt lat="43.14926" lon="5.92848">
        <ele>477</ele>
        <time>2016-07-30T08:11:19.017Z</time>
      </trkpt>
      <trkpt lat="43.14926" lon="5.9285">
        <ele>478</ele>
        <time>2016-07-30T08:11:20.017Z</time>
      </trkpt>
      <trkpt lat="43.14927" lon="5.92852">
        <ele>478</ele>
        <time>2016-07-30T08:11:21.017Z</time>
      </trkpt>
      <trkpt lat="43.14927" lon="5.92855">
        <ele>478</ele>
        <time>2016-07-30T08:11:22.017Z</time>
      </trkpt>
      <trkpt lat="43.14927" lon="5.92857">
        <ele>479</ele>
        <time>2016-07-30T08:11:23.017Z</time>
      </trkpt>
      <trkpt lat="43.14927" lon="5.92859">
        <ele>478</ele>
        <time>2016-07-30T08:11:24.017Z</time>
      </trkpt>
      <trkpt lat="43.14928" lon="5.92861">
        <ele>478</ele>
        <time>2016-07-30T08:11:25.017Z</time>
      </trkpt>
      <trkpt lat="43.14928" lon="5.92863">
        <ele>479</ele>
        <time>2016-07-30T08:11:26.017Z</time>
      </trkpt>
      <trkpt lat="43.14928" lon="5.92866">
        <ele>479</ele>
        <time>2016-07-30T08:11:27.017Z</time>
      </trkpt>
      <trkpt lat="43.14929" lon="5.92868">
        <ele>479</ele>
        <time>2016-07-30T08:11:28.017Z</time>
      </trkpt>
      <trkpt lat="43.14929" lon="5.9287">
        <ele>479</ele>
        <time>2016-07-30T08:11:29.017Z</time>
      </trkpt>
      <trkpt lat="43.14929" lon="5.92872">
        <ele>480</ele>
        <time>2016-07-30T08:11:30.017Z</time>
      </trkpt>
      <trkpt lat="43.1493" lon="5.92874">
        <ele>480</ele>
        <time>2016-07-30T08:11:31.017Z</time>
      </trkpt>
      <trkpt lat="43.1493" lon="5.92877">
        <ele>480</ele>
        <time>2016-07-30T08:11:32.017Z</time>
      </trkpt>
      <trkpt lat="43.14931" lon="5.92879">
        <ele>481</ele>
        <time>2016-07-30T08:11:33.017Z</time>
      </trkpt>
      <trkpt lat="43.14931" lon="5.92881">
        <ele>480</ele>
        <time>2016-07-30T08:11:34.017Z</time>
      </trkpt>
      <trkpt lat="43.14931" lon="5.92883">
        <ele>481</ele>
        <time>2016-07-30T08:11:35.017Z</time>
      </trkpt>
      <trkpt lat="43.14932" lon="5.92885">
        <ele>481</ele>
        <time>2016-07-30T08:11:36.017Z</time>
      </trkpt>
      <trkpt lat="43.14933" lon="5.92888">
        <ele>481</ele>
        <time>2016-07-30T08:11:37.017Z</time>
      </trkpt>
      <trkpt lat="43.14933" lon="5.9289">
        <ele>481</ele>
        <time>2016-07-30T08:11:38.017Z</time>
      </trkpt>
      <trkpt lat="43.14934" lon="5.92892">
        <ele>481</ele>
        <time>2016-07-30T08:11:39.017Z</time>
      </trkpt>
      <trkpt lat="43.14934" lon="5.92894">
        <ele>481</ele>
        <time>2016-07-30T08:11:40.017Z</time>
      </trkpt>
      <trkpt lat="43.14935" lon="5.92896">
        <ele>481</ele>
        <time>2016-07-30T08:11:41.017Z</time>
      </trkpt>
      <trkpt lat="43.14935" lon="5.92898">
        <ele>481</ele>
        <time>2016-07-30T08:11:42.017Z</time>
      </trkpt>
      <trkpt lat="43.14936" lon="5.929">
        <ele>481</ele>
        <time>2016-07-30T08:11:43.017Z</time>
      </trkpt>
      <trkpt lat="43.14936" lon="5.92902">
        <ele>481</ele>
        <time>2016-07-30T08:11:44.017Z</time>
      </trkpt>
      <trkpt lat="43.14937" lon="5.92904">
        <ele>481</ele>
        <time>2016-07-30T08:11:45.017Z</time>
      </trkpt>
      <trkpt lat="43.14937" lon="5.92906">
        <ele>481</ele>
        <time>2016-07-30T08:11:46.017Z</time>
      </trkpt>
      <trkpt lat="43.14938" lon="5.92908">
        <ele>481</ele>
        <time>2016-07-30T08:11:47.017Z</time>
      </trkpt>
      <trkpt lat="43.14938" lon="5.9291">
        <ele>482</ele>
        <time>2016-07-30T08:11:48.017Z</time>
      </trkpt>
      <trkpt lat="43.14938" lon="5.92912">
        <ele>482</ele>
        <time>2016-07-30T08:11:49.017Z</time>
      </trkpt>
      <trkpt lat="43.14939" lon="5.92914">
        <ele>482</ele>
        <time>2016-07-30T08:11:50.017Z</time>
      </trkpt>
      <trkpt lat="43.14939" lon="5.92916">
        <ele>482</ele>
        <time>2016-07-30T08:11:51.017Z</time>
      </trkpt>
      <trkpt lat="43.14939" lon="5.92918">
        <ele>483</ele>
        <time>2016-07-30T08:11:52.017Z</time>
      </trkpt>
      <trkpt lat="43.14939" lon="5.9292">
        <ele>483</ele>
        <time>2016-07-30T08:11:53.017Z</time>
      </trkpt>
      <trkpt lat="43.14939" lon="5.92922">
        <ele>483</ele>
        <time>2016-07-30T08:11:54.017Z</time>
      </trkpt>
      <trkpt lat="43.1494" lon="5.92924">
        <ele>483</ele>
        <time>2016-07-30T08:11:55.017Z</time>
      </trkpt>
      <trkpt lat="43.1494" lon="5.92926">
        <ele>484</ele>
        <time>2016-07-30T08:11:56.017Z</time>
      </trkpt>
      <trkpt lat="43.1494" lon="5.92928">
        <ele>484</ele>
        <time>2016-07-30T08:11:57.017Z</time>
      </trkpt>
      <trkpt lat="43.1494" lon="5.9293">
        <ele>484</ele>
        <time>2016-07-30T08:11:58.017Z</time>
      </trkpt>
      <trkpt lat="43.1494" lon="5.92932">
        <ele>484</ele>
        <time>2016-07-30T08:11:59.017Z</time>
      </trkpt>
      <trkpt lat="43.14941" lon="5.92934">
        <ele>484</ele>
        <time>2016-07-30T08:12:00.017Z</time>
      </trkpt>
      <trkpt lat="43.14941" lon="5.92936">
        <ele>484</ele>
        <time>2016-07-30T08:12:01.017Z</time>
      </trkpt>
      <trkpt lat="43.14941" lon="5.92939">
        <ele>485</ele>
        <time>2016-07-30T08:12:02.017Z</time>
      </trkpt>
      <trkpt lat="43.14941" lon="5.92941">
        <ele>485</ele>
        <time>2016-07-30T08:12:03.017Z</time>
      </trkpt>
      <trkpt lat="43.14941" lon="5.92943">
        <ele>485</ele>
        <time>2016-07-30T08:12:04.017Z</time>
      </trkpt>
      <trkpt lat="43.14942" lon="5.92945">
        <ele>485</ele>
        <time>2016-07-30T08:12:05.017Z</time>
      </trkpt>
      <trkpt lat="43.14942" lon="5.92947">
        <ele>485</ele>
        <time>2016-07-30T08:12:06.017Z</time>
      </trkpt>
      <trkpt lat="43.14942" lon="5.92949">
        <ele>485</ele>
        <time>2016-07-30T08:12:07.017Z</time>
      </trkpt>
      <trkpt lat="43.14942" lon="5.92951">
        <ele>485</ele>
        <time>2016-07-30T08:12:08.017Z</time>
      </trkpt>
      <trkpt lat="43.14943" lon="5.92953">
        <ele>485</ele>
        <time>2016-07-30T08:12:09.017Z</time>
      </trkpt>
      <trkpt lat="43.14943" lon="5.92956">
        <ele>485</ele>
        <time>2016-07-30T08:12:10.017Z</time>
      </trkpt>
      <trkpt lat="43.14943" lon="5.92958">
        <ele>485</ele>
        <time>2016-07-30T08:12:11.017Z</time>
      </trkpt>
      <trkpt lat="43.14944" lon="5.9296">
        <ele>485</ele>
        <time>2016-07-30T08:12:12.017Z</time>
      </trkpt>
      <trkpt lat="43.14944" lon="5.92963">
        <ele>486</ele>
        <time>2016-07-30T08:12:13.017Z</time>
      </trkpt>
      <trkpt lat="43.14944" lon="5.92965">
        <ele>486</ele>
        <time>2016-07-30T08:12:14.017Z</time>
      </trkpt>
      <trkpt lat="43.14944" lon="5.92968">
        <ele>486</ele>
        <time>2016-07-30T08:12:15.017Z</time>
      </trkpt>
      <trkpt lat="43.14944" lon="5.92971">
        <ele>486</ele>
        <time>2016-07-30T08:12:16.017Z</time>
      </trkpt>
      <trkpt lat="43.14944" lon="5.92973">
        <ele>486</ele>
        <time>2016-07-30T08:12:17.017Z</time>
      </trkpt>
      <trkpt lat="43.14944" lon="5.92976">
        <ele>486</ele>
        <time>2016-07-30T08:12:18.017Z</time>
      </trkpt>
      <trkpt lat="43.14944" lon="5.92978">
        <ele>486</ele>
        <time>2016-07-30T08:12:19.017Z</time>
      </trkpt>
      <trkpt lat="43.14944" lon="5.92981">
        <ele>486</ele>
        <time>2016-07-30T08:12:20.017Z</time>
      </trkpt>
      <trkpt lat="43.14944" lon="5.92983">
        <ele>486</ele>
        <time>2016-07-30T08:12:21.017Z</time>
      </trkpt>
      <trkpt lat="43.14944" lon="5.92985">
        <ele>487</ele>
        <time>2016-07-30T08:12:22.017Z</time>
      </trkpt>
      <trkpt lat="43.14944" lon="5.92988">
        <ele>487</ele>
        <time>2016-07-30T08:12:23.017Z</time>
      </trkpt>
      <trkpt lat="43.14944" lon="5.9299">
        <ele>487</ele>
        <time>2016-07-30T08:12:24.017Z</time>
      </trkpt>
      <trkpt lat="43.14945" lon="5.92993">
        <ele>487</ele>
        <time>2016-07-30T08:12:25.017Z</time>
      </trkpt>
      <trkpt lat="43.14945" lon="5.92995">
        <ele>487</ele>
        <time>2016-07-30T08:12:26.017Z</time>
      </trkpt>
      <trkpt lat="43.14945" lon="5.92997">
        <ele>488</ele>
        <time>2016-07-30T08:12:27.017Z</time>
      </trkpt>
      <trkpt lat="43.14945" lon="5.93">
        <ele>488</ele>
        <time>2016-07-30T08:12:28.017Z</time>
      </trkpt>
      <trkpt lat="43.14945" lon="5.93002">
        <ele>488</ele>
        <time>2016-07-30T08:12:29.017Z</time>
      </trkpt>
      <trkpt lat="43.14945" lon="5.93004">
        <ele>488</ele>
        <time>2016-07-30T08:12:30.017Z</time>
      </trkpt>
      <trkpt lat="43.14945" lon="5.93007">
        <ele>488</ele>
        <time>2016-07-30T08:12:31.017Z</time>
      </trkpt>
      <trkpt lat="43.14946" lon="5.93009">
        <ele>488</ele>
        <time>2016-07-30T08:12:32.017Z</time>
      </trkpt>
      <trkpt lat="43.14945" lon="5.93011">
        <ele>488</ele>
        <time>2016-07-30T08:12:33.017Z</time>
      </trkpt>
      <trkpt lat="43.14946" lon="5.93013">
        <ele>488</ele>
        <time>2016-07-30T08:12:34.017Z</time>
      </trkpt>
      <trkpt lat="43.14946" lon="5.93015">
        <ele>489</ele>
        <time>2016-07-30T08:12:35.017Z</time>
      </trkpt>
      <trkpt lat="43.14946" lon="5.93017">
        <ele>489</ele>
        <time>2016-07-30T08:12:36.017Z</time>
      </trkpt>
      <trkpt lat="43.14947" lon="5.93019">
        <ele>489</ele>
        <time>2016-07-30T08:12:37.017Z</time>
      </trkpt>
      <trkpt lat="43.14948" lon="5.93022">
        <ele>489</ele>
        <time>2016-07-30T08:12:38.017Z</time>
      </trkpt>
      <trkpt lat="43.14949" lon="5.93024">
        <ele>489</ele>
        <time>2016-07-30T08:12:39.017Z</time>
      </trkpt>
      <trkpt lat="43.1495" lon="5.93026">
        <ele>490</ele>
        <time>2016-07-30T08:12:40.017Z</time>
      </trkpt>
      <trkpt lat="43.14951" lon="5.93028">
        <ele>490</ele>
        <time>2016-07-30T08:12:41.017Z</time>
      </trkpt>
      <trkpt lat="43.14952" lon="5.93029">
        <ele>491</ele>
        <time>2016-07-30T08:12:42.017Z</time>
      </trkpt>
      <trkpt lat="43.14953" lon="5.9303">
        <ele>491</ele>
        <time>2016-07-30T08:12:43.017Z</time>
      </trkpt>
      <trkpt lat="43.14954" lon="5.93031">
        <ele>492</ele>
        <time>2016-07-30T08:12:44.017Z</time>
      </trkpt>
      <trkpt lat="43.14955" lon="5.93031">
        <ele>492</ele>
        <time>2016-07-30T08:12:45.017Z</time>
      </trkpt>
      <trkpt lat="43.14957" lon="5.93031">
        <ele>493</ele>
        <time>2016-07-30T08:12:46.017Z</time>
      </trkpt>
      <trkpt lat="43.14959" lon="5.93031">
        <ele>493</ele>
        <time>2016-07-30T08:12:47.017Z</time>
      </trkpt>
      <trkpt lat="43.14961" lon="5.93031">
        <ele>494</ele>
        <time>2016-07-30T08:12:48.017Z</time>
      </trkpt>
      <trkpt lat="43.14963" lon="5.93031">
        <ele>494</ele>
        <time>2016-07-30T08:12:49.017Z</time>
      </trkpt>
      <trkpt lat="43.14964" lon="5.9303">
        <ele>494</ele>
        <time>2016-07-30T08:12:50.017Z</time>
      </trkpt>
      <trkpt lat="43.14966" lon="5.93029">
        <ele>495</ele>
        <time>2016-07-30T08:12:51.017Z</time>
      </trkpt>
      <trkpt lat="43.14968" lon="5.93028">
        <ele>495</ele>
        <time>2016-07-30T08:12:52.017Z</time>
      </trkpt>
      <trkpt lat="43.14969" lon="5.93028">
        <ele>495</ele>
        <time>2016-07-30T08:12:53.017Z</time>
      </trkpt>
      <trkpt lat="43.14971" lon="5.93027">
        <ele>496</ele>
        <time>2016-07-30T08:12:54.017Z</time>
      </trkpt>
      <trkpt lat="43.14972" lon="5.93026">
        <ele>496</ele>
        <time>2016-07-30T08:12:55.017Z</time>
      </trkpt>
      <trkpt lat="43.14974" lon="5.93025">
        <ele>496</ele>
        <time>2016-07-30T08:12:56.017Z</time>
      </trkpt>
      <trkpt lat="43.14975" lon="5.93024">
        <ele>497</ele>
        <time>2016-07-30T08:12:57.017Z</time>
      </trkpt>
      <trkpt lat="43.14977" lon="5.93023">
        <ele>497</ele>
        <time>2016-07-30T08:12:58.017Z</time>
      </trkpt>
      <trkpt lat="43.14978" lon="5.93023">
        <ele>497</ele>
        <time>2016-07-30T08:12:59.017Z</time>
      </trkpt>
      <trkpt lat="43.1498" lon="5.93022">
        <ele>498</ele>
        <time>2016-07-30T08:13:00.017Z</time>
      </trkpt>
      <trkpt lat="43.14981" lon="5.93021">
        <ele>498</ele>
        <time>2016-07-30T08:13:01.017Z</time>
      </trkpt>
      <trkpt lat="43.14982" lon="5.93021">
        <ele>500</ele>
        <time>2016-07-30T08:13:02.017Z</time>
      </trkpt>
      <trkpt lat="43.14984" lon="5.93021">
        <ele>501</ele>
        <time>2016-07-30T08:13:03.017Z</time>
      </trkpt>
      <trkpt lat="43.14985" lon="5.93021">
        <ele>502</ele>
        <time>2016-07-30T08:13:04.017Z</time>
      </trkpt>
      <trkpt lat="43.14986" lon="5.93021">
        <ele>502</ele>
        <time>2016-07-30T08:13:05.017Z</time>
      </trkpt>
      <trkpt lat="43.14988" lon="5.9302">
        <ele>502</ele>
        <time>2016-07-30T08:13:06.017Z</time>
      </trkpt>
      <trkpt lat="43.1499" lon="5.9302">
        <ele>502</ele>
        <time>2016-07-30T08:13:07.017Z</time>
      </trkpt>
      <trkpt lat="43.14992" lon="5.93019">
        <ele>502</ele>
        <time>2016-07-30T08:13:08.017Z</time>
      </trkpt>
      <trkpt lat="43.14994" lon="5.93019">
        <ele>502</ele>
        <time>2016-07-30T08:13:09.017Z</time>
      </trkpt>
      <trkpt lat="43.14996" lon="5.93019">
        <ele>501</ele>
        <time>2016-07-30T08:13:10.017Z</time>
      </trkpt>
      <trkpt lat="43.14998" lon="5.93018">
        <ele>501</ele>
        <time>2016-07-30T08:13:11.017Z</time>
      </trkpt>
      <trkpt lat="43.14999" lon="5.93019">
        <ele>501</ele>
        <time>2016-07-30T08:13:12.017Z</time>
      </trkpt>
      <trkpt lat="43.15001" lon="5.93018">
        <ele>500</ele>
        <time>2016-07-30T08:13:13.017Z</time>
      </trkpt>
      <trkpt lat="43.15003" lon="5.93019">
        <ele>500</ele>
        <time>2016-07-30T08:13:14.017Z</time>
      </trkpt>
      <trkpt lat="43.15005" lon="5.93019">
        <ele>500</ele>
        <time>2016-07-30T08:13:15.017Z</time>
      </trkpt>
      <trkpt lat="43.15007" lon="5.93019">
        <ele>500</ele>
        <time>2016-07-30T08:13:16.017Z</time>
      </trkpt>
      <trkpt lat="43.15009" lon="5.93019">
        <ele>500</ele>
        <time>2016-07-30T08:13:17.017Z</time>
      </trkpt>
      <trkpt lat="43.15011" lon="5.9302">
        <ele>500</ele>
        <time>2016-07-30T08:13:18.017Z</time>
      </trkpt>
      <trkpt lat="43.15012" lon="5.93021">
        <ele>501</ele>
        <time>2016-07-30T08:13:19.017Z</time>
      </trkpt>
      <trkpt lat="43.15014" lon="5.93021">
        <ele>501</ele>
        <time>2016-07-30T08:13:20.017Z</time>
      </trkpt>
      <trkpt lat="43.15016" lon="5.93022">
        <ele>501</ele>
        <time>2016-07-30T08:13:21.017Z</time>
      </trkpt>
      <trkpt lat="43.15017" lon="5.93023">
        <ele>501</ele>
        <time>2016-07-30T08:13:22.017Z</time>
      </trkpt>
      <trkpt lat="43.15019" lon="5.93024">
        <ele>501</ele>
        <time>2016-07-30T08:13:23.017Z</time>
      </trkpt>
      <trkpt lat="43.1502" lon="5.93025">
        <ele>501</ele>
        <time>2016-07-30T08:13:24.017Z</time>
      </trkpt>
      <trkpt lat="43.15022" lon="5.93025">
        <ele>502</ele>
        <time>2016-07-30T08:13:25.017Z</time>
      </trkpt>
      <trkpt lat="43.15023" lon="5.93026">
        <ele>501</ele>
        <time>2016-07-30T08:13:26.017Z</time>
      </trkpt>
      <trkpt lat="43.15025" lon="5.93027">
        <ele>500</ele>
        <time>2016-07-30T08:13:27.017Z</time>
      </trkpt>
      <trkpt lat="43.15028" lon="5.93027">
        <ele>500</ele>
        <time>2016-07-30T08:13:28.017Z</time>
      </trkpt>
      <trkpt lat="43.1503" lon="5.93028">
        <ele>501</ele>
        <time>2016-07-30T08:13:29.017Z</time>
      </trkpt>
      <trkpt lat="43.15032" lon="5.93029">
        <ele>501</ele>
        <time>2016-07-30T08:13:30.017Z</time>
      </trkpt>
      <trkpt lat="43.15034" lon="5.9303">
        <ele>502</ele>
        <time>2016-07-30T08:13:31.017Z</time>
      </trkpt>
      <trkpt lat="43.15036" lon="5.9303">
        <ele>503</ele>
        <time>2016-07-30T08:13:32.017Z</time>
      </trkpt>
      <trkpt lat="43.15038" lon="5.93032">
        <ele>503</ele>
        <time>2016-07-30T08:13:33.017Z</time>
      </trkpt>
      <trkpt lat="43.1504" lon="5.93033">
        <ele>504</ele>
        <time>2016-07-30T08:13:34.017Z</time>
      </trkpt>
      <trkpt lat="43.15042" lon="5.93034">
        <ele>504</ele>
        <time>2016-07-30T08:13:35.017Z</time>
      </trkpt>
      <trkpt lat="43.15043" lon="5.93036">
        <ele>504</ele>
        <time>2016-07-30T08:13:36.017Z</time>
      </trkpt>
      <trkpt lat="43.15044" lon="5.93037">
        <ele>504</ele>
        <time>2016-07-30T08:13:37.017Z</time>
      </trkpt>
      <trkpt lat="43.15044" lon="5.93037">
        <ele>505</ele>
        <time>2016-07-30T08:13:38.017Z</time>
      </trkpt>
      <trkpt lat="43.15045" lon="5.93038">
        <ele>505</ele>
        <time>2016-07-30T08:13:39.017Z</time>
      </trkpt>
      <trkpt lat="43.15046" lon="5.93038">
        <ele>505</ele>
        <time>2016-07-30T08:13:40.017Z</time>
      </trkpt>
      <trkpt lat="43.15047" lon="5.93039">
        <ele>505</ele>
        <time>2016-07-30T08:13:41.017Z</time>
      </trkpt>
      <trkpt lat="43.15047" lon="5.93039">
        <ele>506</ele>
        <time>2016-07-30T08:13:42.017Z</time>
      </trkpt>
      <trkpt lat="43.15048" lon="5.93039">
        <ele>506</ele>
        <time>2016-07-30T08:13:43.017Z</time>
      </trkpt>
      <trkpt lat="43.15049" lon="5.93038">
        <ele>506</ele>
        <time>2016-07-30T08:13:44.017Z</time>
      </trkpt>
      <trkpt lat="43.1505" lon="5.93038">
        <ele>506</ele>
        <time>2016-07-30T08:13:45.017Z</time>
      </trkpt>
      <trkpt lat="43.15051" lon="5.93038">
        <ele>506</ele>
        <time>2016-07-30T08:13:46.017Z</time>
      </trkpt>
      <trkpt lat="43.15052" lon="5.93037">
        <ele>506</ele>
        <time>2016-07-30T08:13:47.017Z</time>
      </trkpt>
      <trkpt lat="43.15053" lon="5.93037">
        <ele>506</ele>
        <time>2016-07-30T08:13:48.017Z</time>
      </trkpt>
      <trkpt lat="43.15053" lon="5.93037">
        <ele>506</ele>
        <time>2016-07-30T08:13:49.017Z</time>
      </trkpt>
      <trkpt lat="43.15054" lon="5.93037">
        <ele>506</ele>
        <time>2016-07-30T08:13:50.017Z</time>
      </trkpt>
      <trkpt lat="43.15054" lon="5.93037">
        <ele>506</ele>
        <time>2016-07-30T08:13:51.017Z</time>
      </trkpt>
      <trkpt lat="43.15054" lon="5.93037">
        <ele>506</ele>
        <time>2016-07-30T08:13:52.017Z</time>
      </trkpt>
      <trkpt lat="43.15054" lon="5.93037">
        <ele>507</ele>
        <time>2016-07-30T08:13:53.017Z</time>
      </trkpt>
      <trkpt lat="43.15054" lon="5.93037">
        <ele>507</ele>
        <time>2016-07-30T08:13:54.017Z</time>
      </trkpt>
      <trkpt lat="43.15054" lon="5.93037">
        <ele>507</ele>
        <time>2016-07-30T08:13:55.017Z</time>
      </trkpt>
      <trkpt lat="43.15054" lon="5.93037">
        <ele>507</ele>
        <time>2016-07-30T08:13:56.017Z</time>
      </trkpt>
      <trkpt lat="43.15054" lon="5.93037">
        <ele>506</ele>
        <time>2016-07-30T08:13:57.017Z</time>
      </trkpt>
      <trkpt lat="43.15058" lon="5.93041">
        <ele>502</ele>
        <time>2016-07-30T08:13:58.009Z</time>
      </trkpt>
      <trkpt lat="43.15058" lon="5.93042">
        <ele>503</ele>
        <time>2016-07-30T08:13:59.009Z</time>
      </trkpt>
      <trkpt lat="43.15058" lon="5.93043">
        <ele>502</ele>
        <time>2016-07-30T08:14:00.009Z</time>
      </trkpt>
      <trkpt lat="43.15057" lon="5.93043">
        <ele>502</ele>
        <time>2016-07-30T08:14:01.009Z</time>
      </trkpt>
      <trkpt lat="43.15056" lon="5.93043">
        <ele>502</ele>
        <time>2016-07-30T08:14:02.009Z</time>
      </trkpt>
      <trkpt lat="43.15055" lon="5.93043">
        <ele>502</ele>
        <time>2016-07-30T08:14:03.009Z</time>
      </trkpt>
      <trkpt lat="43.15054" lon="5.93043">
        <ele>502</ele>
        <time>2016-07-30T08:14:04.009Z</time>
      </trkpt>
      <trkpt lat="43.15053" lon="5.93043">
        <ele>502</ele>
        <time>2016-07-30T08:14:05.009Z</time>
      </trkpt>
      <trkpt lat="43.15053" lon="5.93043">
        <ele>502</ele>
        <time>2016-07-30T08:14:06.009Z</time>
      </trkpt>
      <trkpt lat="43.15053" lon="5.93043">
        <ele>502</ele>
        <time>2016-07-30T08:14:07.009Z</time>
      </trkpt>
      <trkpt lat="43.15053" lon="5.93042">
        <ele>502</ele>
        <time>2016-07-30T08:14:08.009Z</time>
      </trkpt>
      <trkpt lat="43.15052" lon="5.93042">
        <ele>503</ele>
        <time>2016-07-30T08:14:09.009Z</time>
      </trkpt>
      <trkpt lat="43.15052" lon="5.93042">
        <ele>502</ele>
        <time>2016-07-30T08:14:10.009Z</time>
      </trkpt>
      <trkpt lat="43.15052" lon="5.93042">
        <ele>502</ele>
        <time>2016-07-30T08:14:11.009Z</time>
      </trkpt>
      <trkpt lat="43.15052" lon="5.93042">
        <ele>502</ele>
        <time>2016-07-30T08:14:12.009Z</time>
      </trkpt>
      <trkpt lat="43.15052" lon="5.93042">
        <ele>503</ele>
        <time>2016-07-30T08:14:13.009Z</time>
      </trkpt>
      <trkpt lat="43.15051" lon="5.93042">
        <ele>503</ele>
        <time>2016-07-30T08:14:14.009Z</time>
      </trkpt>
      <trkpt lat="43.15051" lon="5.93042">
        <ele>503</ele>
        <time>2016-07-30T08:14:15.009Z</time>
      </trkpt>
      <trkpt lat="43.15052" lon="5.93042">
        <ele>502</ele>
        <time>2016-07-30T08:14:16.009Z</time>
      </trkpt>
      <trkpt lat="43.15052" lon="5.93042">
        <ele>502</ele>
        <time>2016-07-30T08:14:17.009Z</time>
      </trkpt>
      <trkpt lat="43.15051" lon="5.93042">
        <ele>502</ele>
        <time>2016-07-30T08:14:18.009Z</time>
      </trkpt>
      <trkpt lat="43.15053" lon="5.9304">
        <ele>497</ele>
        <time>2016-07-30T08:14:19.017Z</time>
      </trkpt>
      <trkpt lat="43.15052" lon="5.9304">
        <ele>496</ele>
        <time>2016-07-30T08:14:20.017Z</time>
      </trkpt>
      <trkpt lat="43.15052" lon="5.9304">
        <ele>498</ele>
        <time>2016-07-30T08:14:21.017Z</time>
      </trkpt>
      <trkpt lat="43.15052" lon="5.93039">
        <ele>498</ele>
        <time>2016-07-30T08:14:22.017Z</time>
      </trkpt>
      <trkpt lat="43.15052" lon="5.93039">
        <ele>498</ele>
        <time>2016-07-30T08:14:23.017Z</time>
      </trkpt>
      <trkpt lat="43.15052" lon="5.93039">
        <ele>497</ele>
        <time>2016-07-30T08:14:24.017Z</time>
      </trkpt>
      <trkpt lat="43.15052" lon="5.93038">
        <ele>497</ele>
        <time>2016-07-30T08:14:25.017Z</time>
      </trkpt>
      <trkpt lat="43.15051" lon="5.93038">
        <ele>498</ele>
        <time>2016-07-30T08:14:26.017Z</time>
      </trkpt>
      <trkpt lat="43.15051" lon="5.93039">
        <ele>498</ele>
        <time>2016-07-30T08:14:27.017Z</time>
      </trkpt>
      <trkpt lat="43.15051" lon="5.93039">
        <ele>499</ele>
        <time>2016-07-30T08:14:28.017Z</time>
      </trkpt>
      <trkpt lat="43.15046" lon="5.93048">
        <ele>501</ele>
        <time>2016-07-30T08:14:29.025Z</time>
      </trkpt>
      <trkpt lat="43.15045" lon="5.93048">
        <ele>502</ele>
        <time>2016-07-30T08:14:30.025Z</time>
      </trkpt>
      <trkpt lat="43.15044" lon="5.93049">
        <ele>502</ele>
        <time>2016-07-30T08:14:31.025Z</time>
      </trkpt>
      <trkpt lat="43.15043" lon="5.9305">
        <ele>502</ele>
        <time>2016-07-30T08:14:32.025Z</time>
      </trkpt>
      <trkpt lat="43.15043" lon="5.93052">
        <ele>502</ele>
        <time>2016-07-30T08:14:33.025Z</time>
      </trkpt>
      <trkpt lat="43.15044" lon="5.93053">
        <ele>500</ele>
        <time>2016-07-30T08:14:34.025Z</time>
      </trkpt>
      <trkpt lat="43.15046" lon="5.93055">
        <ele>499</ele>
        <time>2016-07-30T08:14:35.025Z</time>
      </trkpt>
      <trkpt lat="43.15047" lon="5.93056">
        <ele>499</ele>
        <time>2016-07-30T08:14:36.025Z</time>
      </trkpt>
      <trkpt lat="43.15048" lon="5.93058">
        <ele>498</ele>
        <time>2016-07-30T08:14:37.025Z</time>
      </trkpt>
      <trkpt lat="43.1505" lon="5.9306">
        <ele>497</ele>
        <time>2016-07-30T08:14:38.025Z</time>
      </trkpt>
      <trkpt lat="43.15051" lon="5.93063">
        <ele>496</ele>
        <time>2016-07-30T08:14:39.025Z</time>
      </trkpt>
      <trkpt lat="43.15053" lon="5.93066">
        <ele>496</ele>
        <time>2016-07-30T08:14:40.025Z</time>
      </trkpt>
      <trkpt lat="43.15055" lon="5.93069">
        <ele>496</ele>
        <time>2016-07-30T08:14:41.025Z</time>
      </trkpt>
      <trkpt lat="43.15058" lon="5.93072">
        <ele>496</ele>
        <time>2016-07-30T08:14:42.025Z</time>
      </trkpt>
      <trkpt lat="43.1506" lon="5.93075">
        <ele>496</ele>
        <time>2016-07-30T08:14:43.025Z</time>
      </trkpt>
      <trkpt lat="43.15061" lon="5.93079">
        <ele>496</ele>
        <time>2016-07-30T08:14:44.025Z</time>
      </trkpt>
      <trkpt lat="43.15062" lon="5.93083">
        <ele>496</ele>
        <time>2016-07-30T08:14:45.025Z</time>
      </trkpt>
      <trkpt lat="43.15064" lon="5.93087">
        <ele>496</ele>
        <time>2016-07-30T08:14:46.025Z</time>
      </trkpt>
      <trkpt lat="43.15065" lon="5.93091">
        <ele>495</ele>
        <time>2016-07-30T08:14:47.025Z</time>
      </trkpt>
      <trkpt lat="43.15066" lon="5.93095">
        <ele>495</ele>
        <time>2016-07-30T08:14:48.025Z</time>
      </trkpt>
      <trkpt lat="43.15067" lon="5.93098">
        <ele>495</ele>
        <time>2016-07-30T08:14:49.025Z</time>
      </trkpt>
      <trkpt lat="43.15068" lon="5.931">
        <ele>494</ele>
        <time>2016-07-30T08:14:50.025Z</time>
      </trkpt>
      <trkpt lat="43.15069" lon="5.93102">
        <ele>494</ele>
        <time>2016-07-30T08:14:51.025Z</time>
      </trkpt>
      <trkpt lat="43.1507" lon="5.93103">
        <ele>494</ele>
        <time>2016-07-30T08:14:52.025Z</time>
      </trkpt>
      <trkpt lat="43.1507" lon="5.93105">
        <ele>494</ele>
        <time>2016-07-30T08:14:53.025Z</time>
      </trkpt>
      <trkpt lat="43.1507" lon="5.93107">
        <ele>495</ele>
        <time>2016-07-30T08:14:54.025Z</time>
      </trkpt>
      <trkpt lat="43.15071" lon="5.93108">
        <ele>495</ele>
        <time>2016-07-30T08:14:55.025Z</time>
      </trkpt>
      <trkpt lat="43.15071" lon="5.9311">
        <ele>494</ele>
        <time>2016-07-30T08:14:56.025Z</time>
      </trkpt>
      <trkpt lat="43.15071" lon="5.93111">
        <ele>496</ele>
        <time>2016-07-30T08:14:57.025Z</time>
      </trkpt>
      <trkpt lat="43.15071" lon="5.93113">
        <ele>497</ele>
        <time>2016-07-30T08:14:58.025Z</time>
      </trkpt>
      <trkpt lat="43.15071" lon="5.93115">
        <ele>497</ele>
        <time>2016-07-30T08:14:59.025Z</time>
      </trkpt>
      <trkpt lat="43.15071" lon="5.93117">
        <ele>498</ele>
        <time>2016-07-30T08:15:00.025Z</time>
      </trkpt>
      <trkpt lat="43.15071" lon="5.93119">
        <ele>498</ele>
        <time>2016-07-30T08:15:01.025Z</time>
      </trkpt>
      <trkpt lat="43.1507" lon="5.93121">
        <ele>499</ele>
        <time>2016-07-30T08:15:02.025Z</time>
      </trkpt>
      <trkpt lat="43.1507" lon="5.93123">
        <ele>500</ele>
        <time>2016-07-30T08:15:03.025Z</time>
      </trkpt>
      <trkpt lat="43.15069" lon="5.93126">
        <ele>498</ele>
        <time>2016-07-30T08:15:04.025Z</time>
      </trkpt>
      <trkpt lat="43.15069" lon="5.9313">
        <ele>497</ele>
        <time>2016-07-30T08:15:05.025Z</time>
      </trkpt>
      <trkpt lat="43.15069" lon="5.93135">
        <ele>494</ele>
        <time>2016-07-30T08:15:06.025Z</time>
      </trkpt>
      <trkpt lat="43.15069" lon="5.93141">
        <ele>491</ele>
        <time>2016-07-30T08:15:07.025Z</time>
      </trkpt>
      <trkpt lat="43.15068" lon="5.93146">
        <ele>491</ele>
        <time>2016-07-30T08:15:08.025Z</time>
      </trkpt>
      <trkpt lat="43.15067" lon="5.9315">
        <ele>491</ele>
        <time>2016-07-30T08:15:09.025Z</time>
      </trkpt>
      <trkpt lat="43.15066" lon="5.93155">
        <ele>491</ele>
        <time>2016-07-30T08:15:10.025Z</time>
      </trkpt>
      <trkpt lat="43.15065" lon="5.93159">
        <ele>491</ele>
        <time>2016-07-30T08:15:11.025Z</time>
      </trkpt>
      <trkpt lat="43.15064" lon="5.93164">
        <ele>491</ele>
        <time>2016-07-30T08:15:12.025Z</time>
      </trkpt>
      <trkpt lat="43.15063" lon="5.93169">
        <ele>492</ele>
        <time>2016-07-30T08:15:13.025Z</time>
      </trkpt>
      <trkpt lat="43.15062" lon="5.93174">
        <ele>492</ele>
        <time>2016-07-30T08:15:14.025Z</time>
      </trkpt>
      <trkpt lat="43.15062" lon="5.93179">
        <ele>492</ele>
        <time>2016-07-30T08:15:15.025Z</time>
      </trkpt>
      <trkpt lat="43.15062" lon="5.93185">
        <ele>493</ele>
        <time>2016-07-30T08:15:16.025Z</time>
      </trkpt>
      <trkpt lat="43.15063" lon="5.93192">
        <ele>494</ele>
        <time>2016-07-30T08:15:17.025Z</time>
      </trkpt>
      <trkpt lat="43.15063" lon="5.93198">
        <ele>494</ele>
        <time>2016-07-30T08:15:18.025Z</time>
      </trkpt>
      <trkpt lat="43.15064" lon="5.93203">
        <ele>494</ele>
        <time>2016-07-30T08:15:19.025Z</time>
      </trkpt>
      <trkpt lat="43.15064" lon="5.93209">
        <ele>494</ele>
        <time>2016-07-30T08:15:20.025Z</time>
      </trkpt>
      <trkpt lat="43.15064" lon="5.93214">
        <ele>495</ele>
        <time>2016-07-30T08:15:21.025Z</time>
      </trkpt>
      <trkpt lat="43.15064" lon="5.93221">
        <ele>495</ele>
        <time>2016-07-30T08:15:22.025Z</time>
      </trkpt>
      <trkpt lat="43.15065" lon="5.93227">
        <ele>497</ele>
        <time>2016-07-30T08:15:23.025Z</time>
      </trkpt>
      <trkpt lat="43.15065" lon="5.93234">
        <ele>496</ele>
        <time>2016-07-30T08:15:24.025Z</time>
      </trkpt>
      <trkpt lat="43.15065" lon="5.93241">
        <ele>496</ele>
        <time>2016-07-30T08:15:25.025Z</time>
      </trkpt>
      <trkpt lat="43.15065" lon="5.93247">
        <ele>496</ele>
        <time>2016-07-30T08:15:26.025Z</time>
      </trkpt>
      <trkpt lat="43.15065" lon="5.93252">
        <ele>496</ele>
        <time>2016-07-30T08:15:27.025Z</time>
      </trkpt>
      <trkpt lat="43.15066" lon="5.93258">
        <ele>496</ele>
        <time>2016-07-30T08:15:28.025Z</time>
      </trkpt>
      <trkpt lat="43.15067" lon="5.93264">
        <ele>493</ele>
        <time>2016-07-30T08:15:29.025Z</time>
      </trkpt>
      <trkpt lat="43.15068" lon="5.9327">
        <ele>491</ele>
        <time>2016-07-30T08:15:30.025Z</time>
      </trkpt>
      <trkpt lat="43.1507" lon="5.93276">
        <ele>489</ele>
        <time>2016-07-30T08:15:31.025Z</time>
      </trkpt>
      <trkpt lat="43.15073" lon="5.93282">
        <ele>488</ele>
        <time>2016-07-30T08:15:32.025Z</time>
      </trkpt>
      <trkpt lat="43.15076" lon="5.93288">
        <ele>486</ele>
        <time>2016-07-30T08:15:33.025Z</time>
      </trkpt>
      <trkpt lat="43.15078" lon="5.93295">
        <ele>486</ele>
        <time>2016-07-30T08:15:34.025Z</time>
      </trkpt>
      <trkpt lat="43.15081" lon="5.93301">
        <ele>486</ele>
        <time>2016-07-30T08:15:35.025Z</time>
      </trkpt>
      <trkpt lat="43.15083" lon="5.93307">
        <ele>486</ele>
        <time>2016-07-30T08:15:36.025Z</time>
      </trkpt>
      <trkpt lat="43.15085" lon="5.93313">
        <ele>486</ele>
        <time>2016-07-30T08:15:37.025Z</time>
      </trkpt>
      <trkpt lat="43.15087" lon="5.93318">
        <ele>485</ele>
        <time>2016-07-30T08:15:38.025Z</time>
      </trkpt>
      <trkpt lat="43.1509" lon="5.93324">
        <ele>484</ele>
        <time>2016-07-30T08:15:39.025Z</time>
      </trkpt>
      <trkpt lat="43.15092" lon="5.93329">
        <ele>484</ele>
        <time>2016-07-30T08:15:40.025Z</time>
      </trkpt>
      <trkpt lat="43.15095" lon="5.93334">
        <ele>483</ele>
        <time>2016-07-30T08:15:41.025Z</time>
      </trkpt>
      <trkpt lat="43.15098" lon="5.93339">
        <ele>484</ele>
        <time>2016-07-30T08:15:42.025Z</time>
      </trkpt>
      <trkpt lat="43.15101" lon="5.93343">
        <ele>484</ele>
        <time>2016-07-30T08:15:43.025Z</time>
      </trkpt>
      <trkpt lat="43.15104" lon="5.93348">
        <ele>485</ele>
        <time>2016-07-30T08:15:44.025Z</time>
      </trkpt>
      <trkpt lat="43.15108" lon="5.93352">
        <ele>485</ele>
        <time>2016-07-30T08:15:45.025Z</time>
      </trkpt>
      <trkpt lat="43.15111" lon="5.93355">
        <ele>486</ele>
        <time>2016-07-30T08:15:46.025Z</time>
      </trkpt>
      <trkpt lat="43.15115" lon="5.93359">
        <ele>488</ele>
        <time>2016-07-30T08:15:47.025Z</time>
      </trkpt>
      <trkpt lat="43.1512" lon="5.93361">
        <ele>489</ele>
        <time>2016-07-30T08:15:48.025Z</time>
      </trkpt>
      <trkpt lat="43.15124" lon="5.93364">
        <ele>489</ele>
        <time>2016-07-30T08:15:49.025Z</time>
      </trkpt>
      <trkpt lat="43.15128" lon="5.93367">
        <ele>490</ele>
        <time>2016-07-30T08:15:50.025Z</time>
      </trkpt>
      <trkpt lat="43.15133" lon="5.9337">
        <ele>490</ele>
        <time>2016-07-30T08:15:51.025Z</time>
      </trkpt>
      <trkpt lat="43.15137" lon="5.93373">
        <ele>489</ele>
        <time>2016-07-30T08:15:52.025Z</time>
      </trkpt>
      <trkpt lat="43.15141" lon="5.93377">
        <ele>490</ele>
        <time>2016-07-30T08:15:53.025Z</time>
      </trkpt>
      <trkpt lat="43.15145" lon="5.93382">
        <ele>490</ele>
        <time>2016-07-30T08:15:54.025Z</time>
      </trkpt>
      <trkpt lat="43.15148" lon="5.93387">
        <ele>490</ele>
        <time>2016-07-30T08:15:55.025Z</time>
      </trkpt>
      <trkpt lat="43.15151" lon="5.93392">
        <ele>491</ele>
        <time>2016-07-30T08:15:56.025Z</time>
      </trkpt>
      <trkpt lat="43.15154" lon="5.93397">
        <ele>491</ele>
        <time>2016-07-30T08:15:57.025Z</time>
      </trkpt>
      <trkpt lat="43.15158" lon="5.93403">
        <ele>491</ele>
        <time>2016-07-30T08:15:58.025Z</time>
      </trkpt>
      <trkpt lat="43.15161" lon="5.93408">
        <ele>491</ele>
        <time>2016-07-30T08:15:59.025Z</time>
      </trkpt>
      <trkpt lat="43.15163" lon="5.93414">
        <ele>490</ele>
        <time>2016-07-30T08:16:00.025Z</time>
      </trkpt>
      <trkpt lat="43.15166" lon="5.93419">
        <ele>491</ele>
        <time>2016-07-30T08:16:01.025Z</time>
      </trkpt>
      <trkpt lat="43.15169" lon="5.93425">
        <ele>491</ele>
        <time>2016-07-30T08:16:02.025Z</time>
      </trkpt>
      <trkpt lat="43.15171" lon="5.93431">
        <ele>491</ele>
        <time>2016-07-30T08:16:03.025Z</time>
      </trkpt>
      <trkpt lat="43.15173" lon="5.93437">
        <ele>491</ele>
        <time>2016-07-30T08:16:04.025Z</time>
      </trkpt>
      <trkpt lat="43.15175" lon="5.93443">
        <ele>491</ele>
        <time>2016-07-30T08:16:05.025Z</time>
      </trkpt>
      <trkpt lat="43.15177" lon="5.93449">
        <ele>490</ele>
        <time>2016-07-30T08:16:06.025Z</time>
      </trkpt>
      <trkpt lat="43.15178" lon="5.93455">
        <ele>490</ele>
        <time>2016-07-30T08:16:07.025Z</time>
      </trkpt>
      <trkpt lat="43.1518" lon="5.93461">
        <ele>489</ele>
        <time>2016-07-30T08:16:08.025Z</time>
      </trkpt>
      <trkpt lat="43.15181" lon="5.93468">
        <ele>488</ele>
        <time>2016-07-30T08:16:09.025Z</time>
      </trkpt>
      <trkpt lat="43.15183" lon="5.93474">
        <ele>488</ele>
        <time>2016-07-30T08:16:10.025Z</time>
      </trkpt>
      <trkpt lat="43.15185" lon="5.9348">
        <ele>487</ele>
        <time>2016-07-30T08:16:11.025Z</time>
      </trkpt>
      <trkpt lat="43.15186" lon="5.93487">
        <ele>487</ele>
        <time>2016-07-30T08:16:12.025Z</time>
      </trkpt>
      <trkpt lat="43.15187" lon="5.93494">
        <ele>488</ele>
        <time>2016-07-30T08:16:13.025Z</time>
      </trkpt>
      <trkpt lat="43.15189" lon="5.93502">
        <ele>487</ele>
        <time>2016-07-30T08:16:14.025Z</time>
      </trkpt>
      <trkpt lat="43.15191" lon="5.93508">
        <ele>487</ele>
        <time>2016-07-30T08:16:15.025Z</time>
      </trkpt>
      <trkpt lat="43.15193" lon="5.93515">
        <ele>486</ele>
        <time>2016-07-30T08:16:16.025Z</time>
      </trkpt>
      <trkpt lat="43.15194" lon="5.93522">
        <ele>486</ele>
        <time>2016-07-30T08:16:17.025Z</time>
      </trkpt>
      <trkpt lat="43.15196" lon="5.93529">
        <ele>486</ele>
        <time>2016-07-30T08:16:18.025Z</time>
      </trkpt>
      <trkpt lat="43.15198" lon="5.93536">
        <ele>485</ele>
        <time>2016-07-30T08:16:19.025Z</time>
      </trkpt>
      <trkpt lat="43.15199" lon="5.93542">
        <ele>485</ele>
        <time>2016-07-30T08:16:20.025Z</time>
      </trkpt>
      <trkpt lat="43.15201" lon="5.93549">
        <ele>485</ele>
        <time>2016-07-30T08:16:21.025Z</time>
      </trkpt>
      <trkpt lat="43.15203" lon="5.93556">
        <ele>484</ele>
        <time>2016-07-30T08:16:22.025Z</time>
      </trkpt>
      <trkpt lat="43.15205" lon="5.93563">
        <ele>484</ele>
        <time>2016-07-30T08:16:23.025Z</time>
      </trkpt>
      <trkpt lat="43.15207" lon="5.9357">
        <ele>484</ele>
        <time>2016-07-30T08:16:24.025Z</time>
      </trkpt>
      <trkpt lat="43.15208" lon="5.93576">
        <ele>483</ele>
        <time>2016-07-30T08:16:25.025Z</time>
      </trkpt>
      <trkpt lat="43.1521" lon="5.93583">
        <ele>484</ele>
        <time>2016-07-30T08:16:26.025Z</time>
      </trkpt>
      <trkpt lat="43.15213" lon="5.9359">
        <ele>484</ele>
        <time>2016-07-30T08:16:27.025Z</time>
      </trkpt>
      <trkpt lat="43.15215" lon="5.93597">
        <ele>484</ele>
        <time>2016-07-30T08:16:28.025Z</time>
      </trkpt>
      <trkpt lat="43.15217" lon="5.93603">
        <ele>484</ele>
        <time>2016-07-30T08:16:29.025Z</time>
      </trkpt>
      <trkpt lat="43.15219" lon="5.9361">
        <ele>484</ele>
        <time>2016-07-30T08:16:30.025Z</time>
      </trkpt>
      <trkpt lat="43.15222" lon="5.93616">
        <ele>484</ele>
        <time>2016-07-30T08:16:31.025Z</time>
      </trkpt>
      <trkpt lat="43.15224" lon="5.93623">
        <ele>485</ele>
        <time>2016-07-30T08:16:32.025Z</time>
      </trkpt>
      <trkpt lat="43.15226" lon="5.9363">
        <ele>486</ele>
        <time>2016-07-30T08:16:33.025Z</time>
      </trkpt>
      <trkpt lat="43.15228" lon="5.93637">
        <ele>486</ele>
        <time>2016-07-30T08:16:34.025Z</time>
      </trkpt>
      <trkpt lat="43.1523" lon="5.93644">
        <ele>486</ele>
        <time>2016-07-30T08:16:35.025Z</time>
      </trkpt>
      <trkpt lat="43.15231" lon="5.93651">
        <ele>486</ele>
        <time>2016-07-30T08:16:36.025Z</time>
      </trkpt>
      <trkpt lat="43.15232" lon="5.93658">
        <ele>485</ele>
        <time>2016-07-30T08:16:37.025Z</time>
      </trkpt>
      <trkpt lat="43.15233" lon="5.93665">
        <ele>485</ele>
        <time>2016-07-30T08:16:38.025Z</time>
      </trkpt>
      <trkpt lat="43.15233" lon="5.93673">
        <ele>484</ele>
        <time>2016-07-30T08:16:39.025Z</time>
      </trkpt>
      <trkpt lat="43.15234" lon="5.9368">
        <ele>483</ele>
        <time>2016-07-30T08:16:40.025Z</time>
      </trkpt>
      <trkpt lat="43.15233" lon="5.93688">
        <ele>482</ele>
        <time>2016-07-30T08:16:41.025Z</time>
      </trkpt>
      <trkpt lat="43.15233" lon="5.93695">
        <ele>481</ele>
        <time>2016-07-30T08:16:42.025Z</time>
      </trkpt>
      <trkpt lat="43.15232" lon="5.93701">
        <ele>480</ele>
        <time>2016-07-30T08:16:43.025Z</time>
      </trkpt>
      <trkpt lat="43.15231" lon="5.93708">
        <ele>480</ele>
        <time>2016-07-30T08:16:44.025Z</time>
      </trkpt>
      <trkpt lat="43.1523" lon="5.93715">
        <ele>479</ele>
        <time>2016-07-30T08:16:45.025Z</time>
      </trkpt>
      <trkpt lat="43.1523" lon="5.93722">
        <ele>479</ele>
        <time>2016-07-30T08:16:46.025Z</time>
      </trkpt>
      <trkpt lat="43.15229" lon="5.93729">
        <ele>478</ele>
        <time>2016-07-30T08:16:47.025Z</time>
      </trkpt>
      <trkpt lat="43.15228" lon="5.93736">
        <ele>478</ele>
        <time>2016-07-30T08:16:48.025Z</time>
      </trkpt>
      <trkpt lat="43.15228" lon="5.93743">
        <ele>476</ele>
        <time>2016-07-30T08:16:49.025Z</time>
      </trkpt>
      <trkpt lat="43.15227" lon="5.9375">
        <ele>475</ele>
        <time>2016-07-30T08:16:50.025Z</time>
      </trkpt>
      <trkpt lat="43.15226" lon="5.93756">
        <ele>475</ele>
        <time>2016-07-30T08:16:51.025Z</time>
      </trkpt>
      <trkpt lat="43.15226" lon="5.93763">
        <ele>474</ele>
        <time>2016-07-30T08:16:52.025Z</time>
      </trkpt>
      <trkpt lat="43.15225" lon="5.9377">
        <ele>474</ele>
        <time>2016-07-30T08:16:53.025Z</time>
      </trkpt>
      <trkpt lat="43.15225" lon="5.93777">
        <ele>474</ele>
        <time>2016-07-30T08:16:54.025Z</time>
      </trkpt>
      <trkpt lat="43.15224" lon="5.93784">
        <ele>474</ele>
        <time>2016-07-30T08:16:55.025Z</time>
      </trkpt>
      <trkpt lat="43.15224" lon="5.93791">
        <ele>473</ele>
        <time>2016-07-30T08:16:56.025Z</time>
      </trkpt>
      <trkpt lat="43.15224" lon="5.93798">
        <ele>473</ele>
        <time>2016-07-30T08:16:57.025Z</time>
      </trkpt>
      <trkpt lat="43.15224" lon="5.93804">
        <ele>473</ele>
        <time>2016-07-30T08:16:58.025Z</time>
      </trkpt>
      <trkpt lat="43.15224" lon="5.93811">
        <ele>472</ele>
        <time>2016-07-30T08:16:59.025Z</time>
      </trkpt>
      <trkpt lat="43.15224" lon="5.93818">
        <ele>472</ele>
        <time>2016-07-30T08:17:00.025Z</time>
      </trkpt>
      <trkpt lat="43.15224" lon="5.93825">
        <ele>471</ele>
        <time>2016-07-30T08:17:01.025Z</time>
      </trkpt>
      <trkpt lat="43.15225" lon="5.93832">
        <ele>471</ele>
        <time>2016-07-30T08:17:02.025Z</time>
      </trkpt>
      <trkpt lat="43.15226" lon="5.93839">
        <ele>470</ele>
        <time>2016-07-30T08:17:03.025Z</time>
      </trkpt>
      <trkpt lat="43.15227" lon="5.93847">
        <ele>472</ele>
        <time>2016-07-30T08:17:04.025Z</time>
      </trkpt>
      <trkpt lat="43.15228" lon="5.93854">
        <ele>472</ele>
        <time>2016-07-30T08:17:05.025Z</time>
      </trkpt>
      <trkpt lat="43.1523" lon="5.9386">
        <ele>473</ele>
        <time>2016-07-30T08:17:06.025Z</time>
      </trkpt>
      <trkpt lat="43.15231" lon="5.93867">
        <ele>474</ele>
        <time>2016-07-30T08:17:07.025Z</time>
      </trkpt>
      <trkpt lat="43.15233" lon="5.93874">
        <ele>474</ele>
        <time>2016-07-30T08:17:08.025Z</time>
      </trkpt>
      <trkpt lat="43.15235" lon="5.9388">
        <ele>474</ele>
        <time>2016-07-30T08:17:09.025Z</time>
      </trkpt>
      <trkpt lat="43.15237" lon="5.93886">
        <ele>475</ele>
        <time>2016-07-30T08:17:10.025Z</time>
      </trkpt>
      <trkpt lat="43.15239" lon="5.93893">
        <ele>476</ele>
        <time>2016-07-30T08:17:11.025Z</time>
      </trkpt>
      <trkpt lat="43.15241" lon="5.93899">
        <ele>477</ele>
        <time>2016-07-30T08:17:12.025Z</time>
      </trkpt>
      <trkpt lat="43.15244" lon="5.93905">
        <ele>478</ele>
        <time>2016-07-30T08:17:13.025Z</time>
      </trkpt>
      <trkpt lat="43.15246" lon="5.93911">
        <ele>479</ele>
        <time>2016-07-30T08:17:14.025Z</time>
      </trkpt>
      <trkpt lat="43.15247" lon="5.93917">
        <ele>480</ele>
        <time>2016-07-30T08:17:15.025Z</time>
      </trkpt>
      <trkpt lat="43.15248" lon="5.93924">
        <ele>480</ele>
        <time>2016-07-30T08:17:16.025Z</time>
      </trkpt>
      <trkpt lat="43.1525" lon="5.9393">
        <ele>480</ele>
        <time>2016-07-30T08:17:17.025Z</time>
      </trkpt>
      <trkpt lat="43.15252" lon="5.93936">
        <ele>480</ele>
        <time>2016-07-30T08:17:18.025Z</time>
      </trkpt>
      <trkpt lat="43.15253" lon="5.93943">
        <ele>480</ele>
        <time>2016-07-30T08:17:19.025Z</time>
      </trkpt>
      <trkpt lat="43.15254" lon="5.93949">
        <ele>481</ele>
        <time>2016-07-30T08:17:20.025Z</time>
      </trkpt>
      <trkpt lat="43.15254" lon="5.93955">
        <ele>478</ele>
        <time>2016-07-30T08:17:21.025Z</time>
      </trkpt>
      <trkpt lat="43.15252" lon="5.93961">
        <ele>475</ele>
        <time>2016-07-30T08:17:22.025Z</time>
      </trkpt>
      <trkpt lat="43.15249" lon="5.93966">
        <ele>473</ele>
        <time>2016-07-30T08:17:23.025Z</time>
      </trkpt>
      <trkpt lat="43.15245" lon="5.93969">
        <ele>472</ele>
        <time>2016-07-30T08:17:24.025Z</time>
      </trkpt>
      <trkpt lat="43.1524" lon="5.93971">
        <ele>474</ele>
        <time>2016-07-30T08:17:25.025Z</time>
      </trkpt>
      <trkpt lat="43.15235" lon="5.93972">
        <ele>475</ele>
        <time>2016-07-30T08:17:26.025Z</time>
      </trkpt>
      <trkpt lat="43.1523" lon="5.93972">
        <ele>476</ele>
        <time>2016-07-30T08:17:27.025Z</time>
      </trkpt>
      <trkpt lat="43.15225" lon="5.93973">
        <ele>476</ele>
        <time>2016-07-30T08:17:28.025Z</time>
      </trkpt>
      <trkpt lat="43.1522" lon="5.93974">
        <ele>476</ele>
        <time>2016-07-30T08:17:29.025Z</time>
      </trkpt>
      <trkpt lat="43.15215" lon="5.93974">
        <ele>476</ele>
        <time>2016-07-30T08:17:30.025Z</time>
      </trkpt>
      <trkpt lat="43.1521" lon="5.93975">
        <ele>475</ele>
        <time>2016-07-30T08:17:31.025Z</time>
      </trkpt>
      <trkpt lat="43.15205" lon="5.93976">
        <ele>475</ele>
        <time>2016-07-30T08:17:32.025Z</time>
      </trkpt>
      <trkpt lat="43.152" lon="5.93978">
        <ele>475</ele>
        <time>2016-07-30T08:17:33.025Z</time>
      </trkpt>
      <trkpt lat="43.15196" lon="5.93979">
        <ele>476</ele>
        <time>2016-07-30T08:17:34.025Z</time>
      </trkpt>
      <trkpt lat="43.15191" lon="5.93981">
        <ele>477</ele>
        <time>2016-07-30T08:17:35.025Z</time>
      </trkpt>
      <trkpt lat="43.15187" lon="5.93983">
        <ele>476</ele>
        <time>2016-07-30T08:17:36.025Z</time>
      </trkpt>
      <trkpt lat="43.15183" lon="5.93985">
        <ele>477</ele>
        <time>2016-07-30T08:17:37.025Z</time>
      </trkpt>
      <trkpt lat="43.15178" lon="5.93986">
        <ele>478</ele>
        <time>2016-07-30T08:17:38.025Z</time>
      </trkpt>
      <trkpt lat="43.15174" lon="5.93988">
        <ele>478</ele>
        <time>2016-07-30T08:17:39.025Z</time>
      </trkpt>
      <trkpt lat="43.1517" lon="5.93989">
        <ele>478</ele>
        <time>2016-07-30T08:17:40.025Z</time>
      </trkpt>
      <trkpt lat="43.15166" lon="5.9399">
        <ele>478</ele>
        <time>2016-07-30T08:17:41.025Z</time>
      </trkpt>
      <trkpt lat="43.15161" lon="5.93991">
        <ele>478</ele>
        <time>2016-07-30T08:17:42.025Z</time>
      </trkpt>
      <trkpt lat="43.15157" lon="5.93992">
        <ele>478</ele>
        <time>2016-07-30T08:17:43.025Z</time>
      </trkpt>
      <trkpt lat="43.15153" lon="5.93993">
        <ele>478</ele>
        <time>2016-07-30T08:17:44.025Z</time>
      </trkpt>
      <trkpt lat="43.15149" lon="5.93994">
        <ele>478</ele>
        <time>2016-07-30T08:17:45.025Z</time>
      </trkpt>
      <trkpt lat="43.15145" lon="5.93995">
        <ele>477</ele>
        <time>2016-07-30T08:17:46.025Z</time>
      </trkpt>
      <trkpt lat="43.15141" lon="5.93996">
        <ele>478</ele>
        <time>2016-07-30T08:17:47.025Z</time>
      </trkpt>
      <trkpt lat="43.15137" lon="5.93996">
        <ele>478</ele>
        <time>2016-07-30T08:17:48.025Z</time>
      </trkpt>
      <trkpt lat="43.15133" lon="5.93997">
        <ele>478</ele>
        <time>2016-07-30T08:17:49.025Z</time>
      </trkpt>
      <trkpt lat="43.15129" lon="5.93998">
        <ele>478</ele>
        <time>2016-07-30T08:17:50.025Z</time>
      </trkpt>
      <trkpt lat="43.15125" lon="5.93999">
        <ele>478</ele>
        <time>2016-07-30T08:17:51.025Z</time>
      </trkpt>
      <trkpt lat="43.15121" lon="5.94">
        <ele>479</ele>
        <time>2016-07-30T08:17:52.025Z</time>
      </trkpt>
      <trkpt lat="43.15116" lon="5.94001">
        <ele>478</ele>
        <time>2016-07-30T08:17:53.025Z</time>
      </trkpt>
      <trkpt lat="43.15112" lon="5.94001">
        <ele>478</ele>
        <time>2016-07-30T08:17:54.025Z</time>
      </trkpt>
      <trkpt lat="43.15108" lon="5.94002">
        <ele>478</ele>
        <time>2016-07-30T08:17:55.025Z</time>
      </trkpt>
      <trkpt lat="43.15103" lon="5.94003">
        <ele>479</ele>
        <time>2016-07-30T08:17:56.025Z</time>
      </trkpt>
      <trkpt lat="43.15099" lon="5.94004">
        <ele>479</ele>
        <time>2016-07-30T08:17:57.025Z</time>
      </trkpt>
      <trkpt lat="43.15095" lon="5.94004">
        <ele>480</ele>
        <time>2016-07-30T08:17:58.025Z</time>
      </trkpt>
      <trkpt lat="43.1509" lon="5.94005">
        <ele>479</ele>
        <time>2016-07-30T08:17:59.025Z</time>
      </trkpt>
      <trkpt lat="43.15086" lon="5.94005">
        <ele>480</ele>
        <time>2016-07-30T08:18:00.025Z</time>
      </trkpt>
      <trkpt lat="43.15082" lon="5.94005">
        <ele>481</ele>
        <time>2016-07-30T08:18:01.025Z</time>
      </trkpt>
      <trkpt lat="43.15077" lon="5.94005">
        <ele>483</ele>
        <time>2016-07-30T08:18:02.025Z</time>
      </trkpt>
      <trkpt lat="43.15073" lon="5.94006">
        <ele>484</ele>
        <time>2016-07-30T08:18:03.025Z</time>
      </trkpt>
      <trkpt lat="43.15068" lon="5.94006">
        <ele>485</ele>
        <time>2016-07-30T08:18:04.025Z</time>
      </trkpt>
      <trkpt lat="43.15064" lon="5.94006">
        <ele>486</ele>
        <time>2016-07-30T08:18:05.025Z</time>
      </trkpt>
      <trkpt lat="43.1506" lon="5.94006">
        <ele>486</ele>
        <time>2016-07-30T08:18:06.025Z</time>
      </trkpt>
      <trkpt lat="43.15055" lon="5.94006">
        <ele>488</ele>
        <time>2016-07-30T08:18:07.025Z</time>
      </trkpt>
      <trkpt lat="43.15051" lon="5.94007">
        <ele>488</ele>
        <time>2016-07-30T08:18:08.025Z</time>
      </trkpt>
      <trkpt lat="43.15046" lon="5.94007">
        <ele>488</ele>
        <time>2016-07-30T08:18:09.025Z</time>
      </trkpt>
      <trkpt lat="43.15042" lon="5.94009">
        <ele>487</ele>
        <time>2016-07-30T08:18:10.025Z</time>
      </trkpt>
      <trkpt lat="43.15038" lon="5.94011">
        <ele>488</ele>
        <time>2016-07-30T08:18:11.025Z</time>
      </trkpt>
      <trkpt lat="43.15034" lon="5.94013">
        <ele>489</ele>
        <time>2016-07-30T08:18:12.025Z</time>
      </trkpt>
      <trkpt lat="43.1503" lon="5.94017">
        <ele>490</ele>
        <time>2016-07-30T08:18:13.025Z</time>
      </trkpt>
      <trkpt lat="43.15026" lon="5.94022">
        <ele>490</ele>
        <time>2016-07-30T08:18:14.025Z</time>
      </trkpt>
      <trkpt lat="43.15023" lon="5.94026">
        <ele>489</ele>
        <time>2016-07-30T08:18:15.025Z</time>
      </trkpt>
      <trkpt lat="43.1502" lon="5.94031">
        <ele>489</ele>
        <time>2016-07-30T08:18:16.025Z</time>
      </trkpt>
      <trkpt lat="43.15016" lon="5.94036">
        <ele>491</ele>
        <time>2016-07-30T08:18:17.025Z</time>
      </trkpt>
      <trkpt lat="43.15013" lon="5.94041">
        <ele>492</ele>
        <time>2016-07-30T08:18:18.025Z</time>
      </trkpt>
      <trkpt lat="43.1501" lon="5.94046">
        <ele>493</ele>
        <time>2016-07-30T08:18:19.025Z</time>
      </trkpt>
      <trkpt lat="43.15007" lon="5.94051">
        <ele>494</ele>
        <time>2016-07-30T08:18:20.025Z</time>
      </trkpt>
      <trkpt lat="43.15005" lon="5.94057">
        <ele>494</ele>
        <time>2016-07-30T08:18:21.025Z</time>
      </trkpt>
      <trkpt lat="43.15003" lon="5.94063">
        <ele>495</ele>
        <time>2016-07-30T08:18:22.025Z</time>
      </trkpt>
      <trkpt lat="43.15002" lon="5.94069">
        <ele>495</ele>
        <time>2016-07-30T08:18:23.025Z</time>
      </trkpt>
      <trkpt lat="43.15001" lon="5.94076">
        <ele>495</ele>
        <time>2016-07-30T08:18:24.025Z</time>
      </trkpt>
      <trkpt lat="43.15001" lon="5.94083">
        <ele>494</ele>
        <time>2016-07-30T08:18:25.025Z</time>
      </trkpt>
      <trkpt lat="43.15001" lon="5.9409">
        <ele>495</ele>
        <time>2016-07-30T08:18:26.025Z</time>
      </trkpt>
      <trkpt lat="43.15001" lon="5.94097">
        <ele>496</ele>
        <time>2016-07-30T08:18:27.025Z</time>
      </trkpt>
      <trkpt lat="43.15003" lon="5.94104">
        <ele>497</ele>
        <time>2016-07-30T08:18:28.025Z</time>
      </trkpt>
      <trkpt lat="43.15004" lon="5.94111">
        <ele>497</ele>
        <time>2016-07-30T08:18:29.025Z</time>
      </trkpt>
      <trkpt lat="43.15006" lon="5.94118">
        <ele>497</ele>
        <time>2016-07-30T08:18:30.025Z</time>
      </trkpt>
      <trkpt lat="43.15007" lon="5.94124">
        <ele>498</ele>
        <time>2016-07-30T08:18:31.025Z</time>
      </trkpt>
      <trkpt lat="43.15008" lon="5.94131">
        <ele>498</ele>
        <time>2016-07-30T08:18:32.025Z</time>
      </trkpt>
      <trkpt lat="43.15008" lon="5.94138">
        <ele>498</ele>
        <time>2016-07-30T08:18:33.025Z</time>
      </trkpt>
      <trkpt lat="43.15008" lon="5.94146">
        <ele>498</ele>
        <time>2016-07-30T08:18:34.025Z</time>
      </trkpt>
      <trkpt lat="43.15009" lon="5.94153">
        <ele>498</ele>
        <time>2016-07-30T08:18:35.025Z</time>
      </trkpt>
      <trkpt lat="43.15009" lon="5.94161">
        <ele>498</ele>
        <time>2016-07-30T08:18:36.025Z</time>
      </trkpt>
      <trkpt lat="43.15009" lon="5.94168">
        <ele>498</ele>
        <time>2016-07-30T08:18:37.025Z</time>
      </trkpt>
      <trkpt lat="43.1501" lon="5.94176">
        <ele>497</ele>
        <time>2016-07-30T08:18:38.025Z</time>
      </trkpt>
      <trkpt lat="43.1501" lon="5.94184">
        <ele>497</ele>
        <time>2016-07-30T08:18:39.025Z</time>
      </trkpt>
      <trkpt lat="43.15011" lon="5.94191">
        <ele>497</ele>
        <time>2016-07-30T08:18:40.025Z</time>
      </trkpt>
      <trkpt lat="43.15011" lon="5.94199">
        <ele>497</ele>
        <time>2016-07-30T08:18:41.025Z</time>
      </trkpt>
      <trkpt lat="43.15012" lon="5.94207">
        <ele>497</ele>
        <time>2016-07-30T08:18:42.025Z</time>
      </trkpt>
      <trkpt lat="43.15013" lon="5.94214">
        <ele>497</ele>
        <time>2016-07-30T08:18:43.025Z</time>
      </trkpt>
      <trkpt lat="43.15013" lon="5.94221">
        <ele>497</ele>
        <time>2016-07-30T08:18:44.025Z</time>
      </trkpt>
      <trkpt lat="43.15014" lon="5.94228">
        <ele>497</ele>
        <time>2016-07-30T08:18:45.025Z</time>
      </trkpt>
      <trkpt lat="43.15015" lon="5.94235">
        <ele>497</ele>
        <time>2016-07-30T08:18:46.025Z</time>
      </trkpt>
      <trkpt lat="43.15016" lon="5.94242">
        <ele>498</ele>
        <time>2016-07-30T08:18:47.025Z</time>
      </trkpt>
      <trkpt lat="43.15019" lon="5.9425">
        <ele>498</ele>
        <time>2016-07-30T08:18:48.025Z</time>
      </trkpt>
      <trkpt lat="43.15022" lon="5.94257">
        <ele>498</ele>
        <time>2016-07-30T08:18:49.025Z</time>
      </trkpt>
      <trkpt lat="43.15024" lon="5.94264">
        <ele>498</ele>
        <time>2016-07-30T08:18:50.025Z</time>
      </trkpt>
      <trkpt lat="43.15027" lon="5.94271">
        <ele>498</ele>
        <time>2016-07-30T08:18:51.025Z</time>
      </trkpt>
      <trkpt lat="43.15029" lon="5.94278">
        <ele>498</ele>
        <time>2016-07-30T08:18:52.025Z</time>
      </trkpt>
      <trkpt lat="43.15031" lon="5.94285">
        <ele>499</ele>
        <time>2016-07-30T08:18:53.025Z</time>
      </trkpt>
      <trkpt lat="43.15033" lon="5.94292">
        <ele>499</ele>
        <time>2016-07-30T08:18:54.025Z</time>
      </trkpt>
      <trkpt lat="43.15035" lon="5.94299">
        <ele>498</ele>
        <time>2016-07-30T08:18:55.025Z</time>
      </trkpt>
      <trkpt lat="43.15037" lon="5.94306">
        <ele>498</ele>
        <time>2016-07-30T08:18:56.025Z</time>
      </trkpt>
      <trkpt lat="43.15039" lon="5.94313">
        <ele>498</ele>
        <time>2016-07-30T08:18:57.025Z</time>
      </trkpt>
      <trkpt lat="43.15041" lon="5.9432">
        <ele>499</ele>
        <time>2016-07-30T08:18:58.025Z</time>
      </trkpt>
      <trkpt lat="43.15044" lon="5.94327">
        <ele>499</ele>
        <time>2016-07-30T08:18:59.025Z</time>
      </trkpt>
      <trkpt lat="43.15046" lon="5.94334">
        <ele>499</ele>
        <time>2016-07-30T08:19:00.025Z</time>
      </trkpt>
      <trkpt lat="43.15048" lon="5.94341">
        <ele>499</ele>
        <time>2016-07-30T08:19:01.025Z</time>
      </trkpt>
      <trkpt lat="43.1505" lon="5.94348">
        <ele>499</ele>
        <time>2016-07-30T08:19:02.025Z</time>
      </trkpt>
      <trkpt lat="43.15052" lon="5.94355">
        <ele>499</ele>
        <time>2016-07-30T08:19:03.025Z</time>
      </trkpt>
      <trkpt lat="43.15054" lon="5.94362">
        <ele>500</ele>
        <time>2016-07-30T08:19:04.025Z</time>
      </trkpt>
      <trkpt lat="43.15056" lon="5.94369">
        <ele>500</ele>
        <time>2016-07-30T08:19:05.025Z</time>
      </trkpt>
      <trkpt lat="43.15058" lon="5.94376">
        <ele>500</ele>
        <time>2016-07-30T08:19:06.025Z</time>
      </trkpt>
      <trkpt lat="43.1506" lon="5.94382">
        <ele>500</ele>
        <time>2016-07-30T08:19:07.025Z</time>
      </trkpt>
      <trkpt lat="43.15063" lon="5.94389">
        <ele>501</ele>
        <time>2016-07-30T08:19:08.025Z</time>
      </trkpt>
      <trkpt lat="43.15065" lon="5.94395">
        <ele>501</ele>
        <time>2016-07-30T08:19:09.025Z</time>
      </trkpt>
      <trkpt lat="43.15067" lon="5.94401">
        <ele>501</ele>
        <time>2016-07-30T08:19:10.025Z</time>
      </trkpt>
      <trkpt lat="43.1507" lon="5.94408">
        <ele>500</ele>
        <time>2016-07-30T08:19:11.025Z</time>
      </trkpt>
      <trkpt lat="43.15072" lon="5.94414">
        <ele>500</ele>
        <time>2016-07-30T08:19:12.025Z</time>
      </trkpt>
      <trkpt lat="43.15075" lon="5.9442">
        <ele>499</ele>
        <time>2016-07-30T08:19:13.025Z</time>
      </trkpt>
      <trkpt lat="43.15077" lon="5.94427">
        <ele>500</ele>
        <time>2016-07-30T08:19:14.025Z</time>
      </trkpt>
      <trkpt lat="43.15079" lon="5.94433">
        <ele>500</ele>
        <time>2016-07-30T08:19:15.025Z</time>
      </trkpt>
      <trkpt lat="43.15082" lon="5.9444">
        <ele>500</ele>
        <time>2016-07-30T08:19:16.025Z</time>
      </trkpt>
      <trkpt lat="43.15084" lon="5.94447">
        <ele>501</ele>
        <time>2016-07-30T08:19:17.025Z</time>
      </trkpt>
      <trkpt lat="43.15086" lon="5.94454">
        <ele>501</ele>
        <time>2016-07-30T08:19:18.025Z</time>
      </trkpt>
      <trkpt lat="43.15088" lon="5.9446">
        <ele>501</ele>
        <time>2016-07-30T08:19:19.025Z</time>
      </trkpt>
      <trkpt lat="43.1509" lon="5.94467">
        <ele>501</ele>
        <time>2016-07-30T08:19:20.025Z</time>
      </trkpt>
      <trkpt lat="43.15092" lon="5.94474">
        <ele>501</ele>
        <time>2016-07-30T08:19:21.025Z</time>
      </trkpt>
      <trkpt lat="43.15094" lon="5.9448">
        <ele>501</ele>
        <time>2016-07-30T08:19:22.025Z</time>
      </trkpt>
      <trkpt lat="43.15096" lon="5.94486">
        <ele>501</ele>
        <time>2016-07-30T08:19:23.025Z</time>
      </trkpt>
      <trkpt lat="43.15097" lon="5.94492">
        <ele>501</ele>
        <time>2016-07-30T08:19:24.025Z</time>
      </trkpt>
      <trkpt lat="43.15099" lon="5.94499">
        <ele>500</ele>
        <time>2016-07-30T08:19:25.025Z</time>
      </trkpt>
      <trkpt lat="43.15099" lon="5.94506">
        <ele>499</ele>
        <time>2016-07-30T08:19:26.025Z</time>
      </trkpt>
      <trkpt lat="43.15098" lon="5.94512">
        <ele>498</ele>
        <time>2016-07-30T08:19:27.025Z</time>
      </trkpt>
      <trkpt lat="43.15096" lon="5.94518">
        <ele>496</ele>
        <time>2016-07-30T08:19:28.025Z</time>
      </trkpt>
      <trkpt lat="43.15093" lon="5.94523">
        <ele>495</ele>
        <time>2016-07-30T08:19:29.025Z</time>
      </trkpt>
      <trkpt lat="43.15089" lon="5.94525">
        <ele>489</ele>
        <time>2016-07-30T08:19:30.025Z</time>
      </trkpt>
      <trkpt lat="43.15084" lon="5.94525">
        <ele>487</ele>
        <time>2016-07-30T08:19:31.025Z</time>
      </trkpt>
      <trkpt lat="43.15078" lon="5.94523">
        <ele>487</ele>
        <time>2016-07-30T08:19:32.025Z</time>
      </trkpt>
      <trkpt lat="43.15072" lon="5.94521">
        <ele>487</ele>
        <time>2016-07-30T08:19:33.025Z</time>
      </trkpt>
      <trkpt lat="43.15066" lon="5.94519">
        <ele>488</ele>
        <time>2016-07-30T08:19:34.025Z</time>
      </trkpt>
      <trkpt lat="43.1506" lon="5.94516">
        <ele>488</ele>
        <time>2016-07-30T08:19:35.025Z</time>
      </trkpt>
      <trkpt lat="43.15054" lon="5.94513">
        <ele>489</ele>
        <time>2016-07-30T08:19:36.025Z</time>
      </trkpt>
      <trkpt lat="43.15047" lon="5.94509">
        <ele>489</ele>
        <time>2016-07-30T08:19:37.025Z</time>
      </trkpt>
      <trkpt lat="43.15041" lon="5.94505">
        <ele>489</ele>
        <time>2016-07-30T08:19:38.025Z</time>
      </trkpt>
      <trkpt lat="43.15036" lon="5.94501">
        <ele>489</ele>
        <time>2016-07-30T08:19:39.025Z</time>
      </trkpt>
      <trkpt lat="43.1503" lon="5.94497">
        <ele>488</ele>
        <time>2016-07-30T08:19:40.025Z</time>
      </trkpt>
      <trkpt lat="43.15025" lon="5.94493">
        <ele>488</ele>
        <time>2016-07-30T08:19:41.025Z</time>
      </trkpt>
      <trkpt lat="43.15019" lon="5.94488">
        <ele>489</ele>
        <time>2016-07-30T08:19:42.025Z</time>
      </trkpt>
      <trkpt lat="43.15014" lon="5.94483">
        <ele>488</ele>
        <time>2016-07-30T08:19:43.025Z</time>
      </trkpt>
      <trkpt lat="43.15008" lon="5.94478">
        <ele>488</ele>
        <time>2016-07-30T08:19:44.025Z</time>
      </trkpt>
      <trkpt lat="43.15001" lon="5.94474">
        <ele>488</ele>
        <time>2016-07-30T08:19:45.025Z</time>
      </trkpt>
      <trkpt lat="43.14994" lon="5.94471">
        <ele>487</ele>
        <time>2016-07-30T08:19:46.025Z</time>
      </trkpt>
      <trkpt lat="43.14987" lon="5.94468">
        <ele>486</ele>
        <time>2016-07-30T08:19:47.025Z</time>
      </trkpt>
      <trkpt lat="43.1498" lon="5.94466">
        <ele>485</ele>
        <time>2016-07-30T08:19:48.025Z</time>
      </trkpt>
      <trkpt lat="43.14973" lon="5.94465">
        <ele>485</ele>
        <time>2016-07-30T08:19:49.025Z</time>
      </trkpt>
      <trkpt lat="43.14967" lon="5.94465">
        <ele>485</ele>
        <time>2016-07-30T08:19:50.025Z</time>
      </trkpt>
      <trkpt lat="43.1496" lon="5.94466">
        <ele>482</ele>
        <time>2016-07-30T08:19:51.025Z</time>
      </trkpt>
      <trkpt lat="43.14954" lon="5.94468">
        <ele>481</ele>
        <time>2016-07-30T08:19:52.025Z</time>
      </trkpt>
      <trkpt lat="43.14947" lon="5.94471">
        <ele>481</ele>
        <time>2016-07-30T08:19:53.025Z</time>
      </trkpt>
      <trkpt lat="43.14942" lon="5.94476">
        <ele>479</ele>
        <time>2016-07-30T08:19:54.025Z</time>
      </trkpt>
      <trkpt lat="43.14939" lon="5.94483">
        <ele>481</ele>
        <time>2016-07-30T08:19:55.025Z</time>
      </trkpt>
      <trkpt lat="43.14938" lon="5.94492">
        <ele>488</ele>
        <time>2016-07-30T08:19:56.025Z</time>
      </trkpt>
      <trkpt lat="43.14939" lon="5.94503">
        <ele>482</ele>
        <time>2016-07-30T08:19:57.025Z</time>
      </trkpt>
      <trkpt lat="43.1494" lon="5.94513">
        <ele>482</ele>
        <time>2016-07-30T08:19:58.025Z</time>
      </trkpt>
      <trkpt lat="43.14942" lon="5.94522">
        <ele>485</ele>
        <time>2016-07-30T08:19:59.025Z</time>
      </trkpt>
      <trkpt lat="43.14944" lon="5.94529">
        <ele>486</ele>
        <time>2016-07-30T08:20:00.025Z</time>
      </trkpt>
      <trkpt lat="43.14946" lon="5.94537">
        <ele>488</ele>
        <time>2016-07-30T08:20:01.025Z</time>
      </trkpt>
      <trkpt lat="43.14948" lon="5.94545">
        <ele>488</ele>
        <time>2016-07-30T08:20:02.025Z</time>
      </trkpt>
      <trkpt lat="43.1495" lon="5.94552">
        <ele>489</ele>
        <time>2016-07-30T08:20:03.025Z</time>
      </trkpt>
      <trkpt lat="43.14953" lon="5.94559">
        <ele>490</ele>
        <time>2016-07-30T08:20:04.025Z</time>
      </trkpt>
      <trkpt lat="43.14955" lon="5.94565">
        <ele>491</ele>
        <time>2016-07-30T08:20:05.025Z</time>
      </trkpt>
      <trkpt lat="43.14957" lon="5.94572">
        <ele>491</ele>
        <time>2016-07-30T08:20:06.025Z</time>
      </trkpt>
      <trkpt lat="43.14959" lon="5.94578">
        <ele>492</ele>
        <time>2016-07-30T08:20:07.025Z</time>
      </trkpt>
      <trkpt lat="43.14961" lon="5.94584">
        <ele>493</ele>
        <time>2016-07-30T08:20:08.025Z</time>
      </trkpt>
      <trkpt lat="43.14963" lon="5.94589">
        <ele>494</ele>
        <time>2016-07-30T08:20:09.025Z</time>
      </trkpt>
      <trkpt lat="43.14965" lon="5.94595">
        <ele>495</ele>
        <time>2016-07-30T08:20:10.025Z</time>
      </trkpt>
      <trkpt lat="43.14967" lon="5.94601">
        <ele>496</ele>
        <time>2016-07-30T08:20:11.025Z</time>
      </trkpt>
      <trkpt lat="43.14968" lon="5.94606">
        <ele>496</ele>
        <time>2016-07-30T08:20:12.025Z</time>
      </trkpt>
      <trkpt lat="43.14967" lon="5.94612">
        <ele>495</ele>
        <time>2016-07-30T08:20:13.025Z</time>
      </trkpt>
      <trkpt lat="43.14965" lon="5.94618">
        <ele>495</ele>
        <time>2016-07-30T08:20:14.025Z</time>
      </trkpt>
      <trkpt lat="43.14961" lon="5.94623">
        <ele>493</ele>
        <time>2016-07-30T08:20:15.025Z</time>
      </trkpt>
      <trkpt lat="43.14957" lon="5.94628">
        <ele>491</ele>
        <time>2016-07-30T08:20:16.025Z</time>
      </trkpt>
      <trkpt lat="43.14953" lon="5.94631">
        <ele>492</ele>
        <time>2016-07-30T08:20:17.025Z</time>
      </trkpt>
      <trkpt lat="43.14948" lon="5.94633">
        <ele>492</ele>
        <time>2016-07-30T08:20:18.025Z</time>
      </trkpt>
      <trkpt lat="43.14943" lon="5.94634">
        <ele>492</ele>
        <time>2016-07-30T08:20:19.025Z</time>
      </trkpt>
      <trkpt lat="43.14939" lon="5.94636">
        <ele>492</ele>
        <time>2016-07-30T08:20:20.025Z</time>
      </trkpt>
      <trkpt lat="43.14934" lon="5.94638">
        <ele>491</ele>
        <time>2016-07-30T08:20:21.025Z</time>
      </trkpt>
      <trkpt lat="43.1493" lon="5.94639">
        <ele>491</ele>
        <time>2016-07-30T08:20:22.025Z</time>
      </trkpt>
      <trkpt lat="43.14925" lon="5.9464">
        <ele>490</ele>
        <time>2016-07-30T08:20:23.025Z</time>
      </trkpt>
      <trkpt lat="43.14921" lon="5.94641">
        <ele>489</ele>
        <time>2016-07-30T08:20:24.025Z</time>
      </trkpt>
      <trkpt lat="43.14917" lon="5.94642">
        <ele>488</ele>
        <time>2016-07-30T08:20:25.025Z</time>
      </trkpt>
      <trkpt lat="43.14912" lon="5.94643">
        <ele>488</ele>
        <time>2016-07-30T08:20:26.025Z</time>
      </trkpt>
      <trkpt lat="43.14908" lon="5.94644">
        <ele>488</ele>
        <time>2016-07-30T08:20:27.025Z</time>
      </trkpt>
      <trkpt lat="43.14903" lon="5.94645">
        <ele>488</ele>
        <time>2016-07-30T08:20:28.025Z</time>
      </trkpt>
      <trkpt lat="43.14898" lon="5.94647">
        <ele>488</ele>
        <time>2016-07-30T08:20:29.025Z</time>
      </trkpt>
      <trkpt lat="43.14894" lon="5.94647">
        <ele>487</ele>
        <time>2016-07-30T08:20:30.025Z</time>
      </trkpt>
      <trkpt lat="43.14889" lon="5.94648">
        <ele>486</ele>
        <time>2016-07-30T08:20:31.025Z</time>
      </trkpt>
      <trkpt lat="43.14885" lon="5.94649">
        <ele>486</ele>
        <time>2016-07-30T08:20:32.025Z</time>
      </trkpt>
      <trkpt lat="43.1488" lon="5.94649">
        <ele>485</ele>
        <time>2016-07-30T08:20:33.025Z</time>
      </trkpt>
      <trkpt lat="43.14876" lon="5.9465">
        <ele>485</ele>
        <time>2016-07-30T08:20:34.025Z</time>
      </trkpt>
      <trkpt lat="43.14872" lon="5.94651">
        <ele>485</ele>
        <time>2016-07-30T08:20:35.025Z</time>
      </trkpt>
      <trkpt lat="43.14868" lon="5.94652">
        <ele>484</ele>
        <time>2016-07-30T08:20:36.025Z</time>
      </trkpt>
      <trkpt lat="43.14864" lon="5.94653">
        <ele>484</ele>
        <time>2016-07-30T08:20:37.025Z</time>
      </trkpt>
      <trkpt lat="43.1486" lon="5.94654">
        <ele>484</ele>
        <time>2016-07-30T08:20:38.025Z</time>
      </trkpt>
      <trkpt lat="43.14856" lon="5.94655">
        <ele>484</ele>
        <time>2016-07-30T08:20:39.025Z</time>
      </trkpt>
      <trkpt lat="43.14852" lon="5.94656">
        <ele>484</ele>
        <time>2016-07-30T08:20:40.025Z</time>
      </trkpt>
      <trkpt lat="43.14849" lon="5.94658">
        <ele>484</ele>
        <time>2016-07-30T08:20:41.025Z</time>
      </trkpt>
      <trkpt lat="43.14845" lon="5.9466">
        <ele>484</ele>
        <time>2016-07-30T08:20:42.025Z</time>
      </trkpt>
      <trkpt lat="43.14841" lon="5.94661">
        <ele>482</ele>
        <time>2016-07-30T08:20:43.025Z</time>
      </trkpt>
      <trkpt lat="43.14838" lon="5.94662">
        <ele>482</ele>
        <time>2016-07-30T08:20:44.025Z</time>
      </trkpt>
      <trkpt lat="43.14834" lon="5.94664">
        <ele>483</ele>
        <time>2016-07-30T08:20:45.025Z</time>
      </trkpt>
      <trkpt lat="43.14831" lon="5.94667">
        <ele>483</ele>
        <time>2016-07-30T08:20:46.025Z</time>
      </trkpt>
      <trkpt lat="43.14827" lon="5.9467">
        <ele>483</ele>
        <time>2016-07-30T08:20:47.025Z</time>
      </trkpt>
      <trkpt lat="43.14824" lon="5.94673">
        <ele>483</ele>
        <time>2016-07-30T08:20:48.025Z</time>
      </trkpt>
      <trkpt lat="43.14821" lon="5.94677">
        <ele>482</ele>
        <time>2016-07-30T08:20:49.025Z</time>
      </trkpt>
      <trkpt lat="43.14817" lon="5.94681">
        <ele>481</ele>
        <time>2016-07-30T08:20:50.025Z</time>
      </trkpt>
      <trkpt lat="43.14815" lon="5.94685">
        <ele>480</ele>
        <time>2016-07-30T08:20:51.025Z</time>
      </trkpt>
      <trkpt lat="43.14813" lon="5.94689">
        <ele>479</ele>
        <time>2016-07-30T08:20:52.025Z</time>
      </trkpt>
      <trkpt lat="43.14812" lon="5.94694">
        <ele>481</ele>
        <time>2016-07-30T08:20:53.025Z</time>
      </trkpt>
      <trkpt lat="43.1481" lon="5.94699">
        <ele>481</ele>
        <time>2016-07-30T08:20:54.025Z</time>
      </trkpt>
      <trkpt lat="43.14809" lon="5.94705">
        <ele>484</ele>
        <time>2016-07-30T08:20:55.025Z</time>
      </trkpt>
      <trkpt lat="43.14809" lon="5.94711">
        <ele>485</ele>
        <time>2016-07-30T08:20:56.025Z</time>
      </trkpt>
      <trkpt lat="43.14809" lon="5.94717">
        <ele>486</ele>
        <time>2016-07-30T08:20:57.025Z</time>
      </trkpt>
      <trkpt lat="43.1481" lon="5.94723">
        <ele>488</ele>
        <time>2016-07-30T08:20:58.025Z</time>
      </trkpt>
      <trkpt lat="43.14811" lon="5.94729">
        <ele>490</ele>
        <time>2016-07-30T08:20:59.025Z</time>
      </trkpt>
      <trkpt lat="43.14811" lon="5.94735">
        <ele>492</ele>
        <time>2016-07-30T08:21:00.025Z</time>
      </trkpt>
      <trkpt lat="43.14812" lon="5.9474">
        <ele>493</ele>
        <time>2016-07-30T08:21:01.025Z</time>
      </trkpt>
      <trkpt lat="43.14812" lon="5.94745">
        <ele>496</ele>
        <time>2016-07-30T08:21:02.025Z</time>
      </trkpt>
      <trkpt lat="43.14812" lon="5.94751">
        <ele>498</ele>
        <time>2016-07-30T08:21:03.025Z</time>
      </trkpt>
      <trkpt lat="43.14812" lon="5.94756">
        <ele>501</ele>
        <time>2016-07-30T08:21:04.025Z</time>
      </trkpt>
      <trkpt lat="43.14811" lon="5.94761">
        <ele>503</ele>
        <time>2016-07-30T08:21:05.025Z</time>
      </trkpt>
      <trkpt lat="43.14811" lon="5.94767">
        <ele>504</ele>
        <time>2016-07-30T08:21:06.025Z</time>
      </trkpt>
      <trkpt lat="43.14811" lon="5.94772">
        <ele>505</ele>
        <time>2016-07-30T08:21:07.025Z</time>
      </trkpt>
      <trkpt lat="43.1481" lon="5.94777">
        <ele>505</ele>
        <time>2016-07-30T08:21:08.025Z</time>
      </trkpt>
      <trkpt lat="43.1481" lon="5.94782">
        <ele>506</ele>
        <time>2016-07-30T08:21:09.025Z</time>
      </trkpt>
      <trkpt lat="43.1481" lon="5.94787">
        <ele>507</ele>
        <time>2016-07-30T08:21:10.025Z</time>
      </trkpt>
      <trkpt lat="43.1481" lon="5.94791">
        <ele>507</ele>
        <time>2016-07-30T08:21:11.025Z</time>
      </trkpt>
      <trkpt lat="43.1481" lon="5.94796">
        <ele>507</ele>
        <time>2016-07-30T08:21:12.025Z</time>
      </trkpt>
      <trkpt lat="43.14809" lon="5.94801">
        <ele>508</ele>
        <time>2016-07-30T08:21:13.025Z</time>
      </trkpt>
      <trkpt lat="43.14808" lon="5.94806">
        <ele>509</ele>
        <time>2016-07-30T08:21:14.025Z</time>
      </trkpt>
      <trkpt lat="43.14807" lon="5.94812">
        <ele>510</ele>
        <time>2016-07-30T08:21:15.025Z</time>
      </trkpt>
      <trkpt lat="43.14806" lon="5.94817">
        <ele>510</ele>
        <time>2016-07-30T08:21:16.025Z</time>
      </trkpt>
      <trkpt lat="43.14805" lon="5.94821">
        <ele>510</ele>
        <time>2016-07-30T08:21:17.025Z</time>
      </trkpt>
      <trkpt lat="43.14803" lon="5.94826">
        <ele>510</ele>
        <time>2016-07-30T08:21:18.025Z</time>
      </trkpt>
      <trkpt lat="43.14801" lon="5.9483">
        <ele>509</ele>
        <time>2016-07-30T08:21:19.025Z</time>
      </trkpt>
      <trkpt lat="43.148" lon="5.94835">
        <ele>509</ele>
        <time>2016-07-30T08:21:20.025Z</time>
      </trkpt>
      <trkpt lat="43.14798" lon="5.94838">
        <ele>509</ele>
        <time>2016-07-30T08:21:21.025Z</time>
      </trkpt>
      <trkpt lat="43.14796" lon="5.94842">
        <ele>510</ele>
        <time>2016-07-30T08:21:22.025Z</time>
      </trkpt>
      <trkpt lat="43.14794" lon="5.94846">
        <ele>511</ele>
        <time>2016-07-30T08:21:23.025Z</time>
      </trkpt>
      <trkpt lat="43.14792" lon="5.94851">
        <ele>511</ele>
        <time>2016-07-30T08:21:24.025Z</time>
      </trkpt>
      <trkpt lat="43.1479" lon="5.94855">
        <ele>512</ele>
        <time>2016-07-30T08:21:25.025Z</time>
      </trkpt>
      <trkpt lat="43.14788" lon="5.94859">
        <ele>512</ele>
        <time>2016-07-30T08:21:26.025Z</time>
      </trkpt>
      <trkpt lat="43.14787" lon="5.94864">
        <ele>513</ele>
        <time>2016-07-30T08:21:27.025Z</time>
      </trkpt>
      <trkpt lat="43.14785" lon="5.94868">
        <ele>513</ele>
        <time>2016-07-30T08:21:28.025Z</time>
      </trkpt>
      <trkpt lat="43.14784" lon="5.94873">
        <ele>513</ele>
        <time>2016-07-30T08:21:29.025Z</time>
      </trkpt>
      <trkpt lat="43.14783" lon="5.94878">
        <ele>513</ele>
        <time>2016-07-30T08:21:30.025Z</time>
      </trkpt>
      <trkpt lat="43.14782" lon="5.94883">
        <ele>514</ele>
        <time>2016-07-30T08:21:31.025Z</time>
      </trkpt>
      <trkpt lat="43.14781" lon="5.94889">
        <ele>515</ele>
        <time>2016-07-30T08:21:32.025Z</time>
      </trkpt>
      <trkpt lat="43.1478" lon="5.94893">
        <ele>515</ele>
        <time>2016-07-30T08:21:33.025Z</time>
      </trkpt>
      <trkpt lat="43.14779" lon="5.94898">
        <ele>516</ele>
        <time>2016-07-30T08:21:34.025Z</time>
      </trkpt>
      <trkpt lat="43.14779" lon="5.94903">
        <ele>517</ele>
        <time>2016-07-30T08:21:35.025Z</time>
      </trkpt>
      <trkpt lat="43.14778" lon="5.94908">
        <ele>518</ele>
        <time>2016-07-30T08:21:36.025Z</time>
      </trkpt>
      <trkpt lat="43.14778" lon="5.94913">
        <ele>518</ele>
        <time>2016-07-30T08:21:37.025Z</time>
      </trkpt>
      <trkpt lat="43.14778" lon="5.94918">
        <ele>519</ele>
        <time>2016-07-30T08:21:38.025Z</time>
      </trkpt>
      <trkpt lat="43.14777" lon="5.94923">
        <ele>520</ele>
        <time>2016-07-30T08:21:39.025Z</time>
      </trkpt>
      <trkpt lat="43.14777" lon="5.94927">
        <ele>520</ele>
        <time>2016-07-30T08:21:40.025Z</time>
      </trkpt>
      <trkpt lat="43.14777" lon="5.94932">
        <ele>520</ele>
        <time>2016-07-30T08:21:41.025Z</time>
      </trkpt>
      <trkpt lat="43.14777" lon="5.94937">
        <ele>520</ele>
        <time>2016-07-30T08:21:42.025Z</time>
      </trkpt>
      <trkpt lat="43.14778" lon="5.94941">
        <ele>520</ele>
        <time>2016-07-30T08:21:43.025Z</time>
      </trkpt>
      <trkpt lat="43.14779" lon="5.94946">
        <ele>520</ele>
        <time>2016-07-30T08:21:44.025Z</time>
      </trkpt>
      <trkpt lat="43.1478" lon="5.9495">
        <ele>521</ele>
        <time>2016-07-30T08:21:45.025Z</time>
      </trkpt>
      <trkpt lat="43.14782" lon="5.94954">
        <ele>522</ele>
        <time>2016-07-30T08:21:46.025Z</time>
      </trkpt>
      <trkpt lat="43.14783" lon="5.94958">
        <ele>523</ele>
        <time>2016-07-30T08:21:47.025Z</time>
      </trkpt>
      <trkpt lat="43.14785" lon="5.94962">
        <ele>523</ele>
        <time>2016-07-30T08:21:48.025Z</time>
      </trkpt>
      <trkpt lat="43.14786" lon="5.94966">
        <ele>523</ele>
        <time>2016-07-30T08:21:49.025Z</time>
      </trkpt>
      <trkpt lat="43.14788" lon="5.94969">
        <ele>524</ele>
        <time>2016-07-30T08:21:50.025Z</time>
      </trkpt>
      <trkpt lat="43.1479" lon="5.94973">
        <ele>524</ele>
        <time>2016-07-30T08:21:51.025Z</time>
      </trkpt>
      <trkpt lat="43.14791" lon="5.94977">
        <ele>524</ele>
        <time>2016-07-30T08:21:52.025Z</time>
      </trkpt>
      <trkpt lat="43.14793" lon="5.94981">
        <ele>524</ele>
        <time>2016-07-30T08:21:53.025Z</time>
      </trkpt>
      <trkpt lat="43.14794" lon="5.94985">
        <ele>524</ele>
        <time>2016-07-30T08:21:54.025Z</time>
      </trkpt>
      <trkpt lat="43.14795" lon="5.94989">
        <ele>524</ele>
        <time>2016-07-30T08:21:55.025Z</time>
      </trkpt>
      <trkpt lat="43.14796" lon="5.94993">
        <ele>525</ele>
        <time>2016-07-30T08:21:56.025Z</time>
      </trkpt>
      <trkpt lat="43.14797" lon="5.94997">
        <ele>525</ele>
        <time>2016-07-30T08:21:57.025Z</time>
      </trkpt>
      <trkpt lat="43.14798" lon="5.95001">
        <ele>525</ele>
        <time>2016-07-30T08:21:58.025Z</time>
      </trkpt>
      <trkpt lat="43.14799" lon="5.95005">
        <ele>525</ele>
        <time>2016-07-30T08:21:59.025Z</time>
      </trkpt>
      <trkpt lat="43.148" lon="5.9501">
        <ele>525</ele>
        <time>2016-07-30T08:22:00.025Z</time>
      </trkpt>
      <trkpt lat="43.148" lon="5.95014">
        <ele>525</ele>
        <time>2016-07-30T08:22:01.025Z</time>
      </trkpt>
      <trkpt lat="43.14801" lon="5.95019">
        <ele>526</ele>
        <time>2016-07-30T08:22:02.025Z</time>
      </trkpt>
      <trkpt lat="43.14801" lon="5.95023">
        <ele>525</ele>
        <time>2016-07-30T08:22:03.025Z</time>
      </trkpt>
      <trkpt lat="43.14801" lon="5.95028">
        <ele>526</ele>
        <time>2016-07-30T08:22:04.025Z</time>
      </trkpt>
      <trkpt lat="43.14802" lon="5.95032">
        <ele>526</ele>
        <time>2016-07-30T08:22:05.025Z</time>
      </trkpt>
      <trkpt lat="43.14802" lon="5.95037">
        <ele>526</ele>
        <time>2016-07-30T08:22:06.025Z</time>
      </trkpt>
      <trkpt lat="43.14803" lon="5.95041">
        <ele>526</ele>
        <time>2016-07-30T08:22:07.025Z</time>
      </trkpt>
      <trkpt lat="43.14803" lon="5.95046">
        <ele>526</ele>
        <time>2016-07-30T08:22:08.025Z</time>
      </trkpt>
      <trkpt lat="43.14804" lon="5.9505">
        <ele>526</ele>
        <time>2016-07-30T08:22:09.025Z</time>
      </trkpt>
      <trkpt lat="43.14804" lon="5.95055">
        <ele>527</ele>
        <time>2016-07-30T08:22:10.025Z</time>
      </trkpt>
      <trkpt lat="43.14804" lon="5.9506">
        <ele>526</ele>
        <time>2016-07-30T08:22:11.025Z</time>
      </trkpt>
      <trkpt lat="43.14805" lon="5.95064">
        <ele>526</ele>
        <time>2016-07-30T08:22:12.025Z</time>
      </trkpt>
      <trkpt lat="43.14806" lon="5.95069">
        <ele>526</ele>
        <time>2016-07-30T08:22:13.025Z</time>
      </trkpt>
      <trkpt lat="43.14806" lon="5.95074">
        <ele>526</ele>
        <time>2016-07-30T08:22:14.025Z</time>
      </trkpt>
      <trkpt lat="43.14807" lon="5.95079">
        <ele>527</ele>
        <time>2016-07-30T08:22:15.025Z</time>
      </trkpt>
      <trkpt lat="43.14809" lon="5.95084">
        <ele>527</ele>
        <time>2016-07-30T08:22:16.025Z</time>
      </trkpt>
      <trkpt lat="43.1481" lon="5.9509">
        <ele>527</ele>
        <time>2016-07-30T08:22:17.025Z</time>
      </trkpt>
      <trkpt lat="43.14811" lon="5.95095">
        <ele>527</ele>
        <time>2016-07-30T08:22:18.025Z</time>
      </trkpt>
      <trkpt lat="43.14813" lon="5.95101">
        <ele>527</ele>
        <time>2016-07-30T08:22:19.025Z</time>
      </trkpt>
      <trkpt lat="43.14814" lon="5.95107">
        <ele>527</ele>
        <time>2016-07-30T08:22:20.025Z</time>
      </trkpt>
      <trkpt lat="43.14815" lon="5.95113">
        <ele>528</ele>
        <time>2016-07-30T08:22:21.025Z</time>
      </trkpt>
      <trkpt lat="43.14815" lon="5.9512">
        <ele>528</ele>
        <time>2016-07-30T08:22:22.025Z</time>
      </trkpt>
      <trkpt lat="43.14815" lon="5.95127">
        <ele>527</ele>
        <time>2016-07-30T08:22:23.025Z</time>
      </trkpt>
      <trkpt lat="43.14815" lon="5.95134">
        <ele>527</ele>
        <time>2016-07-30T08:22:24.025Z</time>
      </trkpt>
      <trkpt lat="43.14815" lon="5.95141">
        <ele>527</ele>
        <time>2016-07-30T08:22:25.025Z</time>
      </trkpt>
      <trkpt lat="43.14815" lon="5.95148">
        <ele>527</ele>
        <time>2016-07-30T08:22:26.025Z</time>
      </trkpt>
      <trkpt lat="43.14814" lon="5.95156">
        <ele>527</ele>
        <time>2016-07-30T08:22:27.025Z</time>
      </trkpt>
      <trkpt lat="43.14814" lon="5.95164">
        <ele>527</ele>
        <time>2016-07-30T08:22:28.025Z</time>
      </trkpt>
      <trkpt lat="43.14814" lon="5.95171">
        <ele>527</ele>
        <time>2016-07-30T08:22:29.025Z</time>
      </trkpt>
      <trkpt lat="43.14813" lon="5.95179">
        <ele>527</ele>
        <time>2016-07-30T08:22:30.025Z</time>
      </trkpt>
      <trkpt lat="43.14813" lon="5.95187">
        <ele>527</ele>
        <time>2016-07-30T08:22:31.025Z</time>
      </trkpt>
      <trkpt lat="43.14813" lon="5.95195">
        <ele>527</ele>
        <time>2016-07-30T08:22:32.025Z</time>
      </trkpt>
      <trkpt lat="43.14813" lon="5.95203">
        <ele>527</ele>
        <time>2016-07-30T08:22:33.025Z</time>
      </trkpt>
      <trkpt lat="43.14813" lon="5.95211">
        <ele>527</ele>
        <time>2016-07-30T08:22:34.025Z</time>
      </trkpt>
      <trkpt lat="43.14813" lon="5.95219">
        <ele>527</ele>
        <time>2016-07-30T08:22:35.025Z</time>
      </trkpt>
      <trkpt lat="43.14813" lon="5.95227">
        <ele>527</ele>
        <time>2016-07-30T08:22:36.025Z</time>
      </trkpt>
      <trkpt lat="43.14813" lon="5.95235">
        <ele>527</ele>
        <time>2016-07-30T08:22:37.025Z</time>
      </trkpt>
      <trkpt lat="43.14812" lon="5.95243">
        <ele>527</ele>
        <time>2016-07-30T08:22:38.025Z</time>
      </trkpt>
      <trkpt lat="43.14813" lon="5.95251">
        <ele>527</ele>
        <time>2016-07-30T08:22:39.025Z</time>
      </trkpt>
      <trkpt lat="43.14813" lon="5.95259">
        <ele>527</ele>
        <time>2016-07-30T08:22:40.025Z</time>
      </trkpt>
      <trkpt lat="43.14813" lon="5.95267">
        <ele>527</ele>
        <time>2016-07-30T08:22:41.025Z</time>
      </trkpt>
      <trkpt lat="43.14813" lon="5.95276">
        <ele>527</ele>
        <time>2016-07-30T08:22:42.025Z</time>
      </trkpt>
      <trkpt lat="43.14813" lon="5.95284">
        <ele>527</ele>
        <time>2016-07-30T08:22:43.025Z</time>
      </trkpt>
      <trkpt lat="43.14813" lon="5.95292">
        <ele>528</ele>
        <time>2016-07-30T08:22:44.025Z</time>
      </trkpt>
      <trkpt lat="43.14812" lon="5.95301">
        <ele>527</ele>
        <time>2016-07-30T08:22:45.025Z</time>
      </trkpt>
      <trkpt lat="43.14811" lon="5.95309">
        <ele>527</ele>
        <time>2016-07-30T08:22:46.025Z</time>
      </trkpt>
      <trkpt lat="43.14811" lon="5.95318">
        <ele>526</ele>
        <time>2016-07-30T08:22:47.025Z</time>
      </trkpt>
      <trkpt lat="43.1481" lon="5.95328">
        <ele>526</ele>
        <time>2016-07-30T08:22:48.025Z</time>
      </trkpt>
      <trkpt lat="43.14809" lon="5.95337">
        <ele>525</ele>
        <time>2016-07-30T08:22:49.025Z</time>
      </trkpt>
      <trkpt lat="43.14807" lon="5.95347">
        <ele>524</ele>
        <time>2016-07-30T08:22:50.025Z</time>
      </trkpt>
      <trkpt lat="43.14806" lon="5.95357">
        <ele>523</ele>
        <time>2016-07-30T08:22:51.025Z</time>
      </trkpt>
      <trkpt lat="43.14804" lon="5.95368">
        <ele>522</ele>
        <time>2016-07-30T08:22:52.025Z</time>
      </trkpt>
      <trkpt lat="43.14803" lon="5.95379">
        <ele>522</ele>
        <time>2016-07-30T08:22:53.025Z</time>
      </trkpt>
      <trkpt lat="43.14801" lon="5.9539">
        <ele>521</ele>
        <time>2016-07-30T08:22:54.025Z</time>
      </trkpt>
      <trkpt lat="43.148" lon="5.95401">
        <ele>520</ele>
        <time>2016-07-30T08:22:55.025Z</time>
      </trkpt>
      <trkpt lat="43.14798" lon="5.95411">
        <ele>521</ele>
        <time>2016-07-30T08:22:56.025Z</time>
      </trkpt>
      <trkpt lat="43.14795" lon="5.95422">
        <ele>522</ele>
        <time>2016-07-30T08:22:57.025Z</time>
      </trkpt>
      <trkpt lat="43.14793" lon="5.95432">
        <ele>522</ele>
        <time>2016-07-30T08:22:58.025Z</time>
      </trkpt>
      <trkpt lat="43.1479" lon="5.95442">
        <ele>522</ele>
        <time>2016-07-30T08:22:59.025Z</time>
      </trkpt>
      <trkpt lat="43.14787" lon="5.95451">
        <ele>522</ele>
        <time>2016-07-30T08:23:00.025Z</time>
      </trkpt>
      <trkpt lat="43.14784" lon="5.9546">
        <ele>522</ele>
        <time>2016-07-30T08:23:01.025Z</time>
      </trkpt>
      <trkpt lat="43.14782" lon="5.95469">
        <ele>522</ele>
        <time>2016-07-30T08:23:02.025Z</time>
      </trkpt>
      <trkpt lat="43.14779" lon="5.95478">
        <ele>522</ele>
        <time>2016-07-30T08:23:03.025Z</time>
      </trkpt>
      <trkpt lat="43.14777" lon="5.95486">
        <ele>522</ele>
        <time>2016-07-30T08:23:04.025Z</time>
      </trkpt>
      <trkpt lat="43.14774" lon="5.95495">
        <ele>523</ele>
        <time>2016-07-30T08:23:05.025Z</time>
      </trkpt>
      <trkpt lat="43.14771" lon="5.95503">
        <ele>524</ele>
        <time>2016-07-30T08:23:06.025Z</time>
      </trkpt>
      <trkpt lat="43.14768" lon="5.95512">
        <ele>525</ele>
        <time>2016-07-30T08:23:07.025Z</time>
      </trkpt>
      <trkpt lat="43.14765" lon="5.9552">
        <ele>524</ele>
        <time>2016-07-30T08:23:08.025Z</time>
      </trkpt>
      <trkpt lat="43.14762" lon="5.95529">
        <ele>524</ele>
        <time>2016-07-30T08:23:09.025Z</time>
      </trkpt>
      <trkpt lat="43.1476" lon="5.95537">
        <ele>524</ele>
        <time>2016-07-30T08:23:10.025Z</time>
      </trkpt>
      <trkpt lat="43.14757" lon="5.95546">
        <ele>525</ele>
        <time>2016-07-30T08:23:11.025Z</time>
      </trkpt>
      <trkpt lat="43.14754" lon="5.95554">
        <ele>525</ele>
        <time>2016-07-30T08:23:12.025Z</time>
      </trkpt>
      <trkpt lat="43.14752" lon="5.95563">
        <ele>525</ele>
        <time>2016-07-30T08:23:13.025Z</time>
      </trkpt>
      <trkpt lat="43.14749" lon="5.95571">
        <ele>526</ele>
        <time>2016-07-30T08:23:14.025Z</time>
      </trkpt>
      <trkpt lat="43.14747" lon="5.95579">
        <ele>525</ele>
        <time>2016-07-30T08:23:15.025Z</time>
      </trkpt>
      <trkpt lat="43.14744" lon="5.95586">
        <ele>526</ele>
        <time>2016-07-30T08:23:16.025Z</time>
      </trkpt>
      <trkpt lat="43.14742" lon="5.95594">
        <ele>526</ele>
        <time>2016-07-30T08:23:17.025Z</time>
      </trkpt>
      <trkpt lat="43.14739" lon="5.95601">
        <ele>526</ele>
        <time>2016-07-30T08:23:18.025Z</time>
      </trkpt>
      <trkpt lat="43.14737" lon="5.95608">
        <ele>526</ele>
        <time>2016-07-30T08:23:19.025Z</time>
      </trkpt>
      <trkpt lat="43.14734" lon="5.95614">
        <ele>526</ele>
        <time>2016-07-30T08:23:20.025Z</time>
      </trkpt>
      <trkpt lat="43.14732" lon="5.95621">
        <ele>526</ele>
        <time>2016-07-30T08:23:21.025Z</time>
      </trkpt>
      <trkpt lat="43.14729" lon="5.95627">
        <ele>526</ele>
        <time>2016-07-30T08:23:22.025Z</time>
      </trkpt>
      <trkpt lat="43.14727" lon="5.95634">
        <ele>527</ele>
        <time>2016-07-30T08:23:23.025Z</time>
      </trkpt>
      <trkpt lat="43.14724" lon="5.9564">
        <ele>527</ele>
        <time>2016-07-30T08:23:24.025Z</time>
      </trkpt>
      <trkpt lat="43.14722" lon="5.95647">
        <ele>527</ele>
        <time>2016-07-30T08:23:25.025Z</time>
      </trkpt>
      <trkpt lat="43.1472" lon="5.95653">
        <ele>528</ele>
        <time>2016-07-30T08:23:26.025Z</time>
      </trkpt>
      <trkpt lat="43.14717" lon="5.9566">
        <ele>528</ele>
        <time>2016-07-30T08:23:27.025Z</time>
      </trkpt>
      <trkpt lat="43.14715" lon="5.95666">
        <ele>528</ele>
        <time>2016-07-30T08:23:28.025Z</time>
      </trkpt>
      <trkpt lat="43.14712" lon="5.95673">
        <ele>528</ele>
        <time>2016-07-30T08:23:29.025Z</time>
      </trkpt>
      <trkpt lat="43.1471" lon="5.95679">
        <ele>528</ele>
        <time>2016-07-30T08:23:30.025Z</time>
      </trkpt>
      <trkpt lat="43.14708" lon="5.95686">
        <ele>528</ele>
        <time>2016-07-30T08:23:31.025Z</time>
      </trkpt>
      <trkpt lat="43.14705" lon="5.95692">
        <ele>528</ele>
        <time>2016-07-30T08:23:32.025Z</time>
      </trkpt>
      <trkpt lat="43.14703" lon="5.95698">
        <ele>529</ele>
        <time>2016-07-30T08:23:33.025Z</time>
      </trkpt>
      <trkpt lat="43.14701" lon="5.95704">
        <ele>529</ele>
        <time>2016-07-30T08:23:34.025Z</time>
      </trkpt>
      <trkpt lat="43.14699" lon="5.9571">
        <ele>529</ele>
        <time>2016-07-30T08:23:35.025Z</time>
      </trkpt>
      <trkpt lat="43.14698" lon="5.95715">
        <ele>529</ele>
        <time>2016-07-30T08:23:36.025Z</time>
      </trkpt>
      <trkpt lat="43.14696" lon="5.95721">
        <ele>530</ele>
        <time>2016-07-30T08:23:37.025Z</time>
      </trkpt>
      <trkpt lat="43.14694" lon="5.95726">
        <ele>530</ele>
        <time>2016-07-30T08:23:38.025Z</time>
      </trkpt>
      <trkpt lat="43.14692" lon="5.95731">
        <ele>531</ele>
        <time>2016-07-30T08:23:39.025Z</time>
      </trkpt>
      <trkpt lat="43.14691" lon="5.95736">
        <ele>531</ele>
        <time>2016-07-30T08:23:40.025Z</time>
      </trkpt>
      <trkpt lat="43.14689" lon="5.95741">
        <ele>532</ele>
        <time>2016-07-30T08:23:41.025Z</time>
      </trkpt>
      <trkpt lat="43.14687" lon="5.95747">
        <ele>533</ele>
        <time>2016-07-30T08:23:42.025Z</time>
      </trkpt>
      <trkpt lat="43.14685" lon="5.95752">
        <ele>534</ele>
        <time>2016-07-30T08:23:43.025Z</time>
      </trkpt>
      <trkpt lat="43.14684" lon="5.95757">
        <ele>534</ele>
        <time>2016-07-30T08:23:44.025Z</time>
      </trkpt>
      <trkpt lat="43.14682" lon="5.95762">
        <ele>535</ele>
        <time>2016-07-30T08:23:45.025Z</time>
      </trkpt>
      <trkpt lat="43.14681" lon="5.95766">
        <ele>535</ele>
        <time>2016-07-30T08:23:46.025Z</time>
      </trkpt>
      <trkpt lat="43.14679" lon="5.95771">
        <ele>536</ele>
        <time>2016-07-30T08:23:47.025Z</time>
      </trkpt>
      <trkpt lat="43.14678" lon="5.95775">
        <ele>536</ele>
        <time>2016-07-30T08:23:48.025Z</time>
      </trkpt>
      <trkpt lat="43.14676" lon="5.95779">
        <ele>536</ele>
        <time>2016-07-30T08:23:49.025Z</time>
      </trkpt>
      <trkpt lat="43.14675" lon="5.95783">
        <ele>537</ele>
        <time>2016-07-30T08:23:50.025Z</time>
      </trkpt>
      <trkpt lat="43.14674" lon="5.95787">
        <ele>537</ele>
        <time>2016-07-30T08:23:51.025Z</time>
      </trkpt>
      <trkpt lat="43.14672" lon="5.95792">
        <ele>538</ele>
        <time>2016-07-30T08:23:52.025Z</time>
      </trkpt>
      <trkpt lat="43.14671" lon="5.95796">
        <ele>538</ele>
        <time>2016-07-30T08:23:53.025Z</time>
      </trkpt>
      <trkpt lat="43.14669" lon="5.958">
        <ele>537</ele>
        <time>2016-07-30T08:23:54.025Z</time>
      </trkpt>
      <trkpt lat="43.14668" lon="5.95805">
        <ele>537</ele>
        <time>2016-07-30T08:23:55.025Z</time>
      </trkpt>
      <trkpt lat="43.14666" lon="5.95809">
        <ele>537</ele>
        <time>2016-07-30T08:23:56.025Z</time>
      </trkpt>
      <trkpt lat="43.14665" lon="5.95814">
        <ele>536</ele>
        <time>2016-07-30T08:23:57.025Z</time>
      </trkpt>
      <trkpt lat="43.14664" lon="5.95819">
        <ele>536</ele>
        <time>2016-07-30T08:23:58.025Z</time>
      </trkpt>
      <trkpt lat="43.14662" lon="5.95823">
        <ele>536</ele>
        <time>2016-07-30T08:23:59.025Z</time>
      </trkpt>
      <trkpt lat="43.1466" lon="5.95828">
        <ele>537</ele>
        <time>2016-07-30T08:24:00.025Z</time>
      </trkpt>
      <trkpt lat="43.14659" lon="5.95833">
        <ele>537</ele>
        <time>2016-07-30T08:24:01.025Z</time>
      </trkpt>
      <trkpt lat="43.14658" lon="5.95838">
        <ele>538</ele>
        <time>2016-07-30T08:24:02.025Z</time>
      </trkpt>
      <trkpt lat="43.14657" lon="5.95842">
        <ele>539</ele>
        <time>2016-07-30T08:24:03.025Z</time>
      </trkpt>
      <trkpt lat="43.14656" lon="5.95847">
        <ele>539</ele>
        <time>2016-07-30T08:24:04.025Z</time>
      </trkpt>
      <trkpt lat="43.14655" lon="5.95851">
        <ele>540</ele>
        <time>2016-07-30T08:24:05.025Z</time>
      </trkpt>
      <trkpt lat="43.14654" lon="5.95855">
        <ele>540</ele>
        <time>2016-07-30T08:24:06.025Z</time>
      </trkpt>
      <trkpt lat="43.14653" lon="5.95858">
        <ele>541</ele>
        <time>2016-07-30T08:24:07.025Z</time>
      </trkpt>
      <trkpt lat="43.14652" lon="5.95862">
        <ele>541</ele>
        <time>2016-07-30T08:24:08.025Z</time>
      </trkpt>
      <trkpt lat="43.14651" lon="5.95866">
        <ele>541</ele>
        <time>2016-07-30T08:24:09.025Z</time>
      </trkpt>
      <trkpt lat="43.14649" lon="5.95869">
        <ele>541</ele>
        <time>2016-07-30T08:24:10.025Z</time>
      </trkpt>
      <trkpt lat="43.14648" lon="5.95873">
        <ele>541</ele>
        <time>2016-07-30T08:24:11.025Z</time>
      </trkpt>
      <trkpt lat="43.14647" lon="5.95877">
        <ele>541</ele>
        <time>2016-07-30T08:24:12.025Z</time>
      </trkpt>
      <trkpt lat="43.14645" lon="5.9588">
        <ele>541</ele>
        <time>2016-07-30T08:24:13.025Z</time>
      </trkpt>
      <trkpt lat="43.14644" lon="5.95884">
        <ele>542</ele>
        <time>2016-07-30T08:24:14.025Z</time>
      </trkpt>
      <trkpt lat="43.14643" lon="5.95888">
        <ele>542</ele>
        <time>2016-07-30T08:24:15.025Z</time>
      </trkpt>
      <trkpt lat="43.14641" lon="5.95891">
        <ele>543</ele>
        <time>2016-07-30T08:24:16.025Z</time>
      </trkpt>
      <trkpt lat="43.1464" lon="5.95895">
        <ele>543</ele>
        <time>2016-07-30T08:24:17.025Z</time>
      </trkpt>
      <trkpt lat="43.14639" lon="5.95898">
        <ele>544</ele>
        <time>2016-07-30T08:24:18.025Z</time>
      </trkpt>
      <trkpt lat="43.14638" lon="5.95902">
        <ele>544</ele>
        <time>2016-07-30T08:24:19.025Z</time>
      </trkpt>
      <trkpt lat="43.14636" lon="5.95905">
        <ele>544</ele>
        <time>2016-07-30T08:24:20.025Z</time>
      </trkpt>
      <trkpt lat="43.14635" lon="5.95908">
        <ele>544</ele>
        <time>2016-07-30T08:24:21.025Z</time>
      </trkpt>
      <trkpt lat="43.14634" lon="5.95911">
        <ele>544</ele>
        <time>2016-07-30T08:24:22.025Z</time>
      </trkpt>
      <trkpt lat="43.14632" lon="5.95913">
        <ele>544</ele>
        <time>2016-07-30T08:24:23.025Z</time>
      </trkpt>
      <trkpt lat="43.14631" lon="5.95916">
        <ele>544</ele>
        <time>2016-07-30T08:24:24.025Z</time>
      </trkpt>
      <trkpt lat="43.14629" lon="5.95919">
        <ele>544</ele>
        <time>2016-07-30T08:24:25.025Z</time>
      </trkpt>
      <trkpt lat="43.14628" lon="5.95922">
        <ele>544</ele>
        <time>2016-07-30T08:24:26.025Z</time>
      </trkpt>
      <trkpt lat="43.14627" lon="5.95925">
        <ele>544</ele>
        <time>2016-07-30T08:24:27.025Z</time>
      </trkpt>
      <trkpt lat="43.14626" lon="5.95928">
        <ele>544</ele>
        <time>2016-07-30T08:24:28.025Z</time>
      </trkpt>
      <trkpt lat="43.14625" lon="5.95931">
        <ele>544</ele>
        <time>2016-07-30T08:24:29.025Z</time>
      </trkpt>
      <trkpt lat="43.14623" lon="5.95934">
        <ele>544</ele>
        <time>2016-07-30T08:24:30.025Z</time>
      </trkpt>
      <trkpt lat="43.14622" lon="5.95937">
        <ele>545</ele>
        <time>2016-07-30T08:24:31.025Z</time>
      </trkpt>
      <trkpt lat="43.1462" lon="5.9594">
        <ele>545</ele>
        <time>2016-07-30T08:24:32.025Z</time>
      </trkpt>
      <trkpt lat="43.14618" lon="5.95943">
        <ele>545</ele>
        <time>2016-07-30T08:24:33.025Z</time>
      </trkpt>
      <trkpt lat="43.14616" lon="5.95946">
        <ele>545</ele>
        <time>2016-07-30T08:24:34.025Z</time>
      </trkpt>
      <trkpt lat="43.14614" lon="5.95949">
        <ele>545</ele>
        <time>2016-07-30T08:24:35.025Z</time>
      </trkpt>
      <trkpt lat="43.14612" lon="5.95952">
        <ele>545</ele>
        <time>2016-07-30T08:24:36.025Z</time>
      </trkpt>
      <trkpt lat="43.14609" lon="5.95955">
        <ele>545</ele>
        <time>2016-07-30T08:24:37.025Z</time>
      </trkpt>
      <trkpt lat="43.14607" lon="5.95958">
        <ele>545</ele>
        <time>2016-07-30T08:24:38.025Z</time>
      </trkpt>
      <trkpt lat="43.14604" lon="5.95961">
        <ele>545</ele>
        <time>2016-07-30T08:24:39.025Z</time>
      </trkpt>
      <trkpt lat="43.14601" lon="5.95963">
        <ele>545</ele>
        <time>2016-07-30T08:24:40.025Z</time>
      </trkpt>
      <trkpt lat="43.14598" lon="5.95965">
        <ele>545</ele>
        <time>2016-07-30T08:24:41.025Z</time>
      </trkpt>
      <trkpt lat="43.14595" lon="5.95966">
        <ele>545</ele>
        <time>2016-07-30T08:24:42.025Z</time>
      </trkpt>
      <trkpt lat="43.14592" lon="5.95966">
        <ele>544</ele>
        <time>2016-07-30T08:24:43.025Z</time>
      </trkpt>
      <trkpt lat="43.14588" lon="5.95966">
        <ele>544</ele>
        <time>2016-07-30T08:24:44.025Z</time>
      </trkpt>
      <trkpt lat="43.14585" lon="5.95967">
        <ele>543</ele>
        <time>2016-07-30T08:24:45.025Z</time>
      </trkpt>
      <trkpt lat="43.14581" lon="5.95968">
        <ele>543</ele>
        <time>2016-07-30T08:24:46.025Z</time>
      </trkpt>
      <trkpt lat="43.14578" lon="5.9597">
        <ele>542</ele>
        <time>2016-07-30T08:24:47.025Z</time>
      </trkpt>
      <trkpt lat="43.14574" lon="5.95971">
        <ele>542</ele>
        <time>2016-07-30T08:24:48.025Z</time>
      </trkpt>
      <trkpt lat="43.14571" lon="5.95973">
        <ele>542</ele>
        <time>2016-07-30T08:24:49.025Z</time>
      </trkpt>
      <trkpt lat="43.14567" lon="5.95974">
        <ele>542</ele>
        <time>2016-07-30T08:24:50.025Z</time>
      </trkpt>
      <trkpt lat="43.14564" lon="5.95976">
        <ele>543</ele>
        <time>2016-07-30T08:24:51.025Z</time>
      </trkpt>
      <trkpt lat="43.1456" lon="5.95977">
        <ele>543</ele>
        <time>2016-07-30T08:24:52.025Z</time>
      </trkpt>
      <trkpt lat="43.14557" lon="5.95978">
        <ele>542</ele>
        <time>2016-07-30T08:24:53.025Z</time>
      </trkpt>
      <trkpt lat="43.14553" lon="5.95979">
        <ele>542</ele>
        <time>2016-07-30T08:24:54.025Z</time>
      </trkpt>
      <trkpt lat="43.1455" lon="5.9598">
        <ele>543</ele>
        <time>2016-07-30T08:24:55.025Z</time>
      </trkpt>
      <trkpt lat="43.14546" lon="5.95981">
        <ele>543</ele>
        <time>2016-07-30T08:24:56.025Z</time>
      </trkpt>
      <trkpt lat="43.14543" lon="5.95982">
        <ele>543</ele>
        <time>2016-07-30T08:24:57.025Z</time>
      </trkpt>
      <trkpt lat="43.14539" lon="5.95983">
        <ele>543</ele>
        <time>2016-07-30T08:24:58.025Z</time>
      </trkpt>
      <trkpt lat="43.14535" lon="5.95984">
        <ele>542</ele>
        <time>2016-07-30T08:24:59.025Z</time>
      </trkpt>
      <trkpt lat="43.14531" lon="5.95986">
        <ele>542</ele>
        <time>2016-07-30T08:25:00.025Z</time>
      </trkpt>
      <trkpt lat="43.14527" lon="5.95988">
        <ele>541</ele>
        <time>2016-07-30T08:25:01.025Z</time>
      </trkpt>
      <trkpt lat="43.14523" lon="5.9599">
        <ele>541</ele>
        <time>2016-07-30T08:25:02.025Z</time>
      </trkpt>
      <trkpt lat="43.14519" lon="5.95993">
        <ele>538</ele>
        <time>2016-07-30T08:25:03.025Z</time>
      </trkpt>
      <trkpt lat="43.14513" lon="5.95996">
        <ele>536</ele>
        <time>2016-07-30T08:25:04.025Z</time>
      </trkpt>
      <trkpt lat="43.14507" lon="5.95999">
        <ele>537</ele>
        <time>2016-07-30T08:25:05.025Z</time>
      </trkpt>
      <trkpt lat="43.14501" lon="5.95998">
        <ele>539</ele>
        <time>2016-07-30T08:25:06.025Z</time>
      </trkpt>
      <trkpt lat="43.14496" lon="5.95995">
        <ele>541</ele>
        <time>2016-07-30T08:25:07.025Z</time>
      </trkpt>
      <trkpt lat="43.14491" lon="5.95989">
        <ele>536</ele>
        <time>2016-07-30T08:25:08.025Z</time>
      </trkpt>
      <trkpt lat="43.14488" lon="5.95981">
        <ele>529</ele>
        <time>2016-07-30T08:25:09.025Z</time>
      </trkpt>
      <trkpt lat="43.14485" lon="5.95972">
        <ele>528</ele>
        <time>2016-07-30T08:25:10.025Z</time>
      </trkpt>
      <trkpt lat="43.14483" lon="5.95963">
        <ele>527</ele>
        <time>2016-07-30T08:25:11.025Z</time>
      </trkpt>
      <trkpt lat="43.14482" lon="5.95953">
        <ele>524</ele>
        <time>2016-07-30T08:25:12.025Z</time>
      </trkpt>
      <trkpt lat="43.14481" lon="5.95941">
        <ele>522</ele>
        <time>2016-07-30T08:25:13.025Z</time>
      </trkpt>
      <trkpt lat="43.14481" lon="5.95927">
        <ele>520</ele>
        <time>2016-07-30T08:25:14.025Z</time>
      </trkpt>
      <trkpt lat="43.14481" lon="5.95913">
        <ele>520</ele>
        <time>2016-07-30T08:25:15.025Z</time>
      </trkpt>
      <trkpt lat="43.14481" lon="5.95897">
        <ele>519</ele>
        <time>2016-07-30T08:25:16.025Z</time>
      </trkpt>
      <trkpt lat="43.14481" lon="5.95881">
        <ele>519</ele>
        <time>2016-07-30T08:25:17.025Z</time>
      </trkpt>
      <trkpt lat="43.14481" lon="5.95864">
        <ele>518</ele>
        <time>2016-07-30T08:25:18.025Z</time>
      </trkpt>
      <trkpt lat="43.14481" lon="5.95849">
        <ele>516</ele>
        <time>2016-07-30T08:25:19.025Z</time>
      </trkpt>
      <trkpt lat="43.14482" lon="5.95833">
        <ele>515</ele>
        <time>2016-07-30T08:25:20.025Z</time>
      </trkpt>
      <trkpt lat="43.14482" lon="5.95819">
        <ele>512</ele>
        <time>2016-07-30T08:25:21.025Z</time>
      </trkpt>
      <trkpt lat="43.14482" lon="5.95807">
        <ele>512</ele>
        <time>2016-07-30T08:25:22.025Z</time>
      </trkpt>
      <trkpt lat="43.1448" lon="5.95797">
        <ele>510</ele>
        <time>2016-07-30T08:25:23.025Z</time>
      </trkpt>
      <trkpt lat="43.14477" lon="5.9579">
        <ele>507</ele>
        <time>2016-07-30T08:25:24.025Z</time>
      </trkpt>
      <trkpt lat="43.14474" lon="5.95786">
        <ele>502</ele>
        <time>2016-07-30T08:25:25.025Z</time>
      </trkpt>
      <trkpt lat="43.14469" lon="5.95783">
        <ele>491</ele>
        <time>2016-07-30T08:25:26.025Z</time>
      </trkpt>
      <trkpt lat="43.14465" lon="5.95783">
        <ele>487</ele>
        <time>2016-07-30T08:25:27.025Z</time>
      </trkpt>
      <trkpt lat="43.14459" lon="5.95788">
        <ele>482</ele>
        <time>2016-07-30T08:25:28.025Z</time>
      </trkpt>
      <trkpt lat="43.14454" lon="5.95796">
        <ele>482</ele>
        <time>2016-07-30T08:25:29.025Z</time>
      </trkpt>
      <trkpt lat="43.14449" lon="5.95808">
        <ele>483</ele>
        <time>2016-07-30T08:25:30.025Z</time>
      </trkpt>
      <trkpt lat="43.14443" lon="5.95821">
        <ele>481</ele>
        <time>2016-07-30T08:25:31.025Z</time>
      </trkpt>
      <trkpt lat="43.14437" lon="5.95837">
        <ele>479</ele>
        <time>2016-07-30T08:25:32.025Z</time>
      </trkpt>
      <trkpt lat="43.14432" lon="5.95853">
        <ele>478</ele>
        <time>2016-07-30T08:25:33.025Z</time>
      </trkpt>
      <trkpt lat="43.14427" lon="5.95868">
        <ele>478</ele>
        <time>2016-07-30T08:25:34.025Z</time>
      </trkpt>
      <trkpt lat="43.14423" lon="5.95883">
        <ele>477</ele>
        <time>2016-07-30T08:25:35.025Z</time>
      </trkpt>
      <trkpt lat="43.14419" lon="5.95898">
        <ele>474</ele>
        <time>2016-07-30T08:25:36.025Z</time>
      </trkpt>
      <trkpt lat="43.14415" lon="5.95914">
        <ele>469</ele>
        <time>2016-07-30T08:25:37.025Z</time>
      </trkpt>
      <trkpt lat="43.14411" lon="5.95931">
        <ele>469</ele>
        <time>2016-07-30T08:25:38.025Z</time>
      </trkpt>
      <trkpt lat="43.14407" lon="5.95946">
        <ele>468</ele>
        <time>2016-07-30T08:25:39.025Z</time>
      </trkpt>
      <trkpt lat="43.14403" lon="5.95957">
        <ele>474</ele>
        <time>2016-07-30T08:25:40.025Z</time>
      </trkpt>
      <trkpt lat="43.144" lon="5.95966">
        <ele>474</ele>
        <time>2016-07-30T08:25:41.025Z</time>
      </trkpt>
      <trkpt lat="43.14395" lon="5.95972">
        <ele>471</ele>
        <time>2016-07-30T08:25:42.025Z</time>
      </trkpt>
      <trkpt lat="43.14392" lon="5.95972">
        <ele>463</ele>
        <time>2016-07-30T08:25:43.025Z</time>
      </trkpt>
      <trkpt lat="43.14391" lon="5.95968">
        <ele>464</ele>
        <time>2016-07-30T08:25:44.025Z</time>
      </trkpt>
      <trkpt lat="43.14393" lon="5.9596">
        <ele>464</ele>
        <time>2016-07-30T08:25:45.025Z</time>
      </trkpt>
      <trkpt lat="43.14395" lon="5.95952">
        <ele>468</ele>
        <time>2016-07-30T08:25:46.025Z</time>
      </trkpt>
      <trkpt lat="43.14396" lon="5.95943">
        <ele>470</ele>
        <time>2016-07-30T08:25:47.025Z</time>
      </trkpt>
      <trkpt lat="43.14398" lon="5.95933">
        <ele>469</ele>
        <time>2016-07-30T08:25:48.025Z</time>
      </trkpt>
      <trkpt lat="43.144" lon="5.95922">
        <ele>468</ele>
        <time>2016-07-30T08:25:49.025Z</time>
      </trkpt>
      <trkpt lat="43.14402" lon="5.95912">
        <ele>468</ele>
        <time>2016-07-30T08:25:50.025Z</time>
      </trkpt>
      <trkpt lat="43.14403" lon="5.95903">
        <ele>468</ele>
        <time>2016-07-30T08:25:51.025Z</time>
      </trkpt>
      <trkpt lat="43.14403" lon="5.95896">
        <ele>467</ele>
        <time>2016-07-30T08:25:52.025Z</time>
      </trkpt>
      <trkpt lat="43.144" lon="5.95892">
        <ele>465</ele>
        <time>2016-07-30T08:25:53.025Z</time>
      </trkpt>
      <trkpt lat="43.14396" lon="5.95893">
        <ele>463</ele>
        <time>2016-07-30T08:25:54.025Z</time>
      </trkpt>
      <trkpt lat="43.14393" lon="5.95895">
        <ele>462</ele>
        <time>2016-07-30T08:25:55.025Z</time>
      </trkpt>
      <trkpt lat="43.14391" lon="5.959">
        <ele>459</ele>
        <time>2016-07-30T08:25:56.025Z</time>
      </trkpt>
      <trkpt lat="43.14391" lon="5.95906">
        <ele>457</ele>
        <time>2016-07-30T08:25:57.025Z</time>
      </trkpt>
      <trkpt lat="43.14389" lon="5.95915">
        <ele>458</ele>
        <time>2016-07-30T08:25:58.025Z</time>
      </trkpt>
      <trkpt lat="43.14388" lon="5.95925">
        <ele>458</ele>
        <time>2016-07-30T08:25:59.025Z</time>
      </trkpt>
      <trkpt lat="43.14387" lon="5.95937">
        <ele>458</ele>
        <time>2016-07-30T08:26:00.025Z</time>
      </trkpt>
      <trkpt lat="43.14385" lon="5.95945">
        <ele>458</ele>
        <time>2016-07-30T08:26:01.025Z</time>
      </trkpt>
      <trkpt lat="43.14382" lon="5.95947">
        <ele>462</ele>
        <time>2016-07-30T08:26:02.025Z</time>
      </trkpt>
      <trkpt lat="43.1438" lon="5.95944">
        <ele>462</ele>
        <time>2016-07-30T08:26:03.025Z</time>
      </trkpt>
      <trkpt lat="43.14378" lon="5.95938">
        <ele>464</ele>
        <time>2016-07-30T08:26:04.025Z</time>
      </trkpt>
      <trkpt lat="43.14379" lon="5.95931">
        <ele>466</ele>
        <time>2016-07-30T08:26:05.025Z</time>
      </trkpt>
      <trkpt lat="43.1438" lon="5.95922">
        <ele>467</ele>
        <time>2016-07-30T08:26:06.025Z</time>
      </trkpt>
      <trkpt lat="43.1438" lon="5.95913">
        <ele>467</ele>
        <time>2016-07-30T08:26:07.025Z</time>
      </trkpt>
      <trkpt lat="43.14381" lon="5.95903">
        <ele>467</ele>
        <time>2016-07-30T08:26:08.025Z</time>
      </trkpt>
      <trkpt lat="43.14382" lon="5.95892">
        <ele>466</ele>
        <time>2016-07-30T08:26:09.025Z</time>
      </trkpt>
      <trkpt lat="43.14381" lon="5.95881">
        <ele>466</ele>
        <time>2016-07-30T08:26:10.025Z</time>
      </trkpt>
      <trkpt lat="43.1438" lon="5.95868">
        <ele>464</ele>
        <time>2016-07-30T08:26:11.025Z</time>
      </trkpt>
      <trkpt lat="43.14379" lon="5.95854">
        <ele>464</ele>
        <time>2016-07-30T08:26:12.025Z</time>
      </trkpt>
      <trkpt lat="43.14378" lon="5.95839">
        <ele>463</ele>
        <time>2016-07-30T08:26:13.025Z</time>
      </trkpt>
      <trkpt lat="43.14377" lon="5.95824">
        <ele>463</ele>
        <time>2016-07-30T08:26:14.025Z</time>
      </trkpt>
      <trkpt lat="43.14375" lon="5.95809">
        <ele>462</ele>
        <time>2016-07-30T08:26:15.025Z</time>
      </trkpt>
      <trkpt lat="43.14374" lon="5.95793">
        <ele>462</ele>
        <time>2016-07-30T08:26:16.025Z</time>
      </trkpt>
      <trkpt lat="43.14373" lon="5.95779">
        <ele>461</ele>
        <time>2016-07-30T08:26:17.025Z</time>
      </trkpt>
      <trkpt lat="43.14373" lon="5.95768">
        <ele>460</ele>
        <time>2016-07-30T08:26:18.025Z</time>
      </trkpt>
      <trkpt lat="43.14371" lon="5.9576">
        <ele>459</ele>
        <time>2016-07-30T08:26:19.025Z</time>
      </trkpt>
      <trkpt lat="43.14368" lon="5.95757">
        <ele>461</ele>
        <time>2016-07-30T08:26:20.025Z</time>
      </trkpt>
      <trkpt lat="43.14364" lon="5.95758">
        <ele>460</ele>
        <time>2016-07-30T08:26:21.025Z</time>
      </trkpt>
      <trkpt lat="43.14361" lon="5.95762">
        <ele>459</ele>
        <time>2016-07-30T08:26:22.025Z</time>
      </trkpt>
      <trkpt lat="43.14359" lon="5.9577">
        <ele>461</ele>
        <time>2016-07-30T08:26:23.025Z</time>
      </trkpt>
      <trkpt lat="43.14356" lon="5.95781">
        <ele>461</ele>
        <time>2016-07-30T08:26:24.025Z</time>
      </trkpt>
      <trkpt lat="43.14355" lon="5.95793">
        <ele>459</ele>
        <time>2016-07-30T08:26:25.025Z</time>
      </trkpt>
      <trkpt lat="43.14353" lon="5.95805">
        <ele>459</ele>
        <time>2016-07-30T08:26:26.025Z</time>
      </trkpt>
      <trkpt lat="43.14351" lon="5.95818">
        <ele>458</ele>
        <time>2016-07-30T08:26:27.025Z</time>
      </trkpt>
      <trkpt lat="43.14348" lon="5.95831">
        <ele>458</ele>
        <time>2016-07-30T08:26:28.025Z</time>
      </trkpt>
      <trkpt lat="43.14345" lon="5.95844">
        <ele>457</ele>
        <time>2016-07-30T08:26:29.025Z</time>
      </trkpt>
      <trkpt lat="43.14341" lon="5.95859">
        <ele>456</ele>
        <time>2016-07-30T08:26:30.025Z</time>
      </trkpt>
      <trkpt lat="43.14337" lon="5.95874">
        <ele>456</ele>
        <time>2016-07-30T08:26:31.025Z</time>
      </trkpt>
      <trkpt lat="43.14333" lon="5.95889">
        <ele>456</ele>
        <time>2016-07-30T08:26:32.025Z</time>
      </trkpt>
      <trkpt lat="43.14329" lon="5.95903">
        <ele>456</ele>
        <time>2016-07-30T08:26:33.025Z</time>
      </trkpt>
      <trkpt lat="43.14328" lon="5.95914">
        <ele>456</ele>
        <time>2016-07-30T08:26:34.025Z</time>
      </trkpt>
      <trkpt lat="43.14326" lon="5.95923">
        <ele>456</ele>
        <time>2016-07-30T08:26:35.025Z</time>
      </trkpt>
      <trkpt lat="43.14323" lon="5.95927">
        <ele>456</ele>
        <time>2016-07-30T08:26:36.025Z</time>
      </trkpt>
      <trkpt lat="43.1432" lon="5.95927">
        <ele>458</ele>
        <time>2016-07-30T08:26:37.025Z</time>
      </trkpt>
      <trkpt lat="43.14319" lon="5.95922">
        <ele>458</ele>
        <time>2016-07-30T08:26:38.025Z</time>
      </trkpt>
      <trkpt lat="43.14319" lon="5.95914">
        <ele>457</ele>
        <time>2016-07-30T08:26:39.025Z</time>
      </trkpt>
      <trkpt lat="43.1432" lon="5.95905">
        <ele>457</ele>
        <time>2016-07-30T08:26:40.025Z</time>
      </trkpt>
      <trkpt lat="43.14321" lon="5.95896">
        <ele>457</ele>
        <time>2016-07-30T08:26:41.025Z</time>
      </trkpt>
      <trkpt lat="43.14321" lon="5.95887">
        <ele>457</ele>
        <time>2016-07-30T08:26:42.025Z</time>
      </trkpt>
      <trkpt lat="43.1432" lon="5.95876">
        <ele>458</ele>
        <time>2016-07-30T08:26:43.025Z</time>
      </trkpt>
      <trkpt lat="43.14318" lon="5.95865">
        <ele>458</ele>
        <time>2016-07-30T08:26:44.025Z</time>
      </trkpt>
      <trkpt lat="43.14316" lon="5.95853">
        <ele>457</ele>
        <time>2016-07-30T08:26:45.025Z</time>
      </trkpt>
      <trkpt lat="43.14314" lon="5.9584">
        <ele>457</ele>
        <time>2016-07-30T08:26:46.025Z</time>
      </trkpt>
      <trkpt lat="43.14313" lon="5.95826">
        <ele>456</ele>
        <time>2016-07-30T08:26:47.025Z</time>
      </trkpt>
      <trkpt lat="43.14311" lon="5.95812">
        <ele>456</ele>
        <time>2016-07-30T08:26:48.025Z</time>
      </trkpt>
      <trkpt lat="43.14309" lon="5.95798">
        <ele>455</ele>
        <time>2016-07-30T08:26:49.025Z</time>
      </trkpt>
      <trkpt lat="43.14308" lon="5.95783">
        <ele>454</ele>
        <time>2016-07-30T08:26:50.025Z</time>
      </trkpt>
      <trkpt lat="43.14306" lon="5.95768">
        <ele>454</ele>
        <time>2016-07-30T08:26:51.025Z</time>
      </trkpt>
      <trkpt lat="43.14305" lon="5.95755">
        <ele>454</ele>
        <time>2016-07-30T08:26:52.025Z</time>
      </trkpt>
      <trkpt lat="43.14304" lon="5.95743">
        <ele>453</ele>
        <time>2016-07-30T08:26:53.025Z</time>
      </trkpt>
      <trkpt lat="43.14303" lon="5.95734">
        <ele>452</ele>
        <time>2016-07-30T08:26:54.025Z</time>
      </trkpt>
      <trkpt lat="43.14299" lon="5.95727">
        <ele>451</ele>
        <time>2016-07-30T08:26:55.025Z</time>
      </trkpt>
      <trkpt lat="43.14292" lon="5.95723">
        <ele>450</ele>
        <time>2016-07-30T08:26:56.025Z</time>
      </trkpt>
      <trkpt lat="43.14286" lon="5.95724">
        <ele>449</ele>
        <time>2016-07-30T08:26:57.025Z</time>
      </trkpt>
      <trkpt lat="43.14281" lon="5.95728">
        <ele>448</ele>
        <time>2016-07-30T08:26:58.025Z</time>
      </trkpt>
      <trkpt lat="43.14277" lon="5.95736">
        <ele>447</ele>
        <time>2016-07-30T08:26:59.025Z</time>
      </trkpt>
      <trkpt lat="43.14276" lon="5.95745">
        <ele>446</ele>
        <time>2016-07-30T08:27:00.025Z</time>
      </trkpt>
      <trkpt lat="43.14276" lon="5.95754">
        <ele>444</ele>
        <time>2016-07-30T08:27:01.025Z</time>
      </trkpt>
      <trkpt lat="43.14276" lon="5.95765">
        <ele>442</ele>
        <time>2016-07-30T08:27:02.025Z</time>
      </trkpt>
      <trkpt lat="43.14274" lon="5.95776">
        <ele>441</ele>
        <time>2016-07-30T08:27:03.025Z</time>
      </trkpt>
      <trkpt lat="43.14271" lon="5.95788">
        <ele>441</ele>
        <time>2016-07-30T08:27:04.025Z</time>
      </trkpt>
      <trkpt lat="43.14268" lon="5.95801">
        <ele>440</ele>
        <time>2016-07-30T08:27:05.025Z</time>
      </trkpt>
      <trkpt lat="43.14266" lon="5.95815">
        <ele>439</ele>
        <time>2016-07-30T08:27:06.025Z</time>
      </trkpt>
      <trkpt lat="43.14263" lon="5.95829">
        <ele>438</ele>
        <time>2016-07-30T08:27:07.025Z</time>
      </trkpt>
      <trkpt lat="43.1426" lon="5.95843">
        <ele>438</ele>
        <time>2016-07-30T08:27:08.025Z</time>
      </trkpt>
      <trkpt lat="43.14258" lon="5.95857">
        <ele>437</ele>
        <time>2016-07-30T08:27:09.025Z</time>
      </trkpt>
      <trkpt lat="43.14256" lon="5.95869">
        <ele>436</ele>
        <time>2016-07-30T08:27:10.025Z</time>
      </trkpt>
      <trkpt lat="43.14254" lon="5.95878">
        <ele>435</ele>
        <time>2016-07-30T08:27:11.025Z</time>
      </trkpt>
      <trkpt lat="43.14252" lon="5.95885">
        <ele>433</ele>
        <time>2016-07-30T08:27:12.025Z</time>
      </trkpt>
      <trkpt lat="43.1425" lon="5.95889">
        <ele>433</ele>
        <time>2016-07-30T08:27:13.025Z</time>
      </trkpt>
      <trkpt lat="43.14247" lon="5.95888">
        <ele>432</ele>
        <time>2016-07-30T08:27:14.025Z</time>
      </trkpt>
      <trkpt lat="43.14246" lon="5.95885">
        <ele>430</ele>
        <time>2016-07-30T08:27:15.025Z</time>
      </trkpt>
      <trkpt lat="43.14244" lon="5.9588">
        <ele>430</ele>
        <time>2016-07-30T08:27:16.025Z</time>
      </trkpt>
      <trkpt lat="43.14243" lon="5.95874">
        <ele>430</ele>
        <time>2016-07-30T08:27:17.025Z</time>
      </trkpt>
      <trkpt lat="43.14243" lon="5.95867">
        <ele>428</ele>
        <time>2016-07-30T08:27:18.025Z</time>
      </trkpt>
      <trkpt lat="43.14242" lon="5.95858">
        <ele>427</ele>
        <time>2016-07-30T08:27:19.025Z</time>
      </trkpt>
      <trkpt lat="43.14241" lon="5.95847">
        <ele>426</ele>
        <time>2016-07-30T08:27:20.025Z</time>
      </trkpt>
      <trkpt lat="43.14239" lon="5.95835">
        <ele>425</ele>
        <time>2016-07-30T08:27:21.025Z</time>
      </trkpt>
      <trkpt lat="43.14236" lon="5.95822">
        <ele>424</ele>
        <time>2016-07-30T08:27:22.025Z</time>
      </trkpt>
      <trkpt lat="43.14234" lon="5.95809">
        <ele>423</ele>
        <time>2016-07-30T08:27:23.025Z</time>
      </trkpt>
      <trkpt lat="43.14232" lon="5.95796">
        <ele>421</ele>
        <time>2016-07-30T08:27:24.025Z</time>
      </trkpt>
      <trkpt lat="43.1423" lon="5.95783">
        <ele>420</ele>
        <time>2016-07-30T08:27:25.025Z</time>
      </trkpt>
      <trkpt lat="43.14228" lon="5.9577">
        <ele>419</ele>
        <time>2016-07-30T08:27:26.025Z</time>
      </trkpt>
      <trkpt lat="43.14226" lon="5.9576">
        <ele>419</ele>
        <time>2016-07-30T08:27:27.025Z</time>
      </trkpt>
      <trkpt lat="43.14222" lon="5.95753">
        <ele>419</ele>
        <time>2016-07-30T08:27:28.025Z</time>
      </trkpt>
      <trkpt lat="43.1422" lon="5.95748">
        <ele>419</ele>
        <time>2016-07-30T08:27:29.025Z</time>
      </trkpt>
      <trkpt lat="43.14218" lon="5.95745">
        <ele>413</ele>
        <time>2016-07-30T08:27:30.025Z</time>
      </trkpt>
      <trkpt lat="43.14216" lon="5.95742">
        <ele>409</ele>
        <time>2016-07-30T08:27:31.025Z</time>
      </trkpt>
      <trkpt lat="43.14213" lon="5.9574">
        <ele>405</ele>
        <time>2016-07-30T08:27:32.025Z</time>
      </trkpt>
      <trkpt lat="43.14209" lon="5.95741">
        <ele>406</ele>
        <time>2016-07-30T08:27:33.025Z</time>
      </trkpt>
      <trkpt lat="43.14203" lon="5.95742">
        <ele>407</ele>
        <time>2016-07-30T08:27:34.025Z</time>
      </trkpt>
      <trkpt lat="43.14198" lon="5.95745">
        <ele>408</ele>
        <time>2016-07-30T08:27:35.025Z</time>
      </trkpt>
      <trkpt lat="43.14195" lon="5.95753">
        <ele>407</ele>
        <time>2016-07-30T08:27:36.025Z</time>
      </trkpt>
      <trkpt lat="43.14193" lon="5.95762">
        <ele>407</ele>
        <time>2016-07-30T08:27:37.025Z</time>
      </trkpt>
      <trkpt lat="43.1419" lon="5.95773">
        <ele>405</ele>
        <time>2016-07-30T08:27:38.025Z</time>
      </trkpt>
      <trkpt lat="43.14186" lon="5.95782">
        <ele>401</ele>
        <time>2016-07-30T08:27:39.025Z</time>
      </trkpt>
      <trkpt lat="43.14182" lon="5.9579">
        <ele>397</ele>
        <time>2016-07-30T08:27:40.025Z</time>
      </trkpt>
      <trkpt lat="43.14175" lon="5.95794">
        <ele>399</ele>
        <time>2016-07-30T08:27:41.025Z</time>
      </trkpt>
      <trkpt lat="43.14169" lon="5.95794">
        <ele>399</ele>
        <time>2016-07-30T08:27:42.025Z</time>
      </trkpt>
      <trkpt lat="43.14163" lon="5.95793">
        <ele>400</ele>
        <time>2016-07-30T08:27:43.025Z</time>
      </trkpt>
      <trkpt lat="43.14159" lon="5.95791">
        <ele>400</ele>
        <time>2016-07-30T08:27:44.025Z</time>
      </trkpt>
      <trkpt lat="43.14155" lon="5.95787">
        <ele>400</ele>
        <time>2016-07-30T08:27:45.025Z</time>
      </trkpt>
      <trkpt lat="43.14149" lon="5.95783">
        <ele>399</ele>
        <time>2016-07-30T08:27:46.025Z</time>
      </trkpt>
      <trkpt lat="43.14144" lon="5.95776">
        <ele>390</ele>
        <time>2016-07-30T08:27:47.025Z</time>
      </trkpt>
      <trkpt lat="43.1414" lon="5.95768">
        <ele>387</ele>
        <time>2016-07-30T08:27:48.025Z</time>
      </trkpt>
      <trkpt lat="43.14137" lon="5.95757">
        <ele>385</ele>
        <time>2016-07-30T08:27:49.025Z</time>
      </trkpt>
      <trkpt lat="43.14135" lon="5.95745">
        <ele>384</ele>
        <time>2016-07-30T08:27:50.025Z</time>
      </trkpt>
      <trkpt lat="43.14135" lon="5.95732">
        <ele>384</ele>
        <time>2016-07-30T08:27:51.025Z</time>
      </trkpt>
      <trkpt lat="43.14135" lon="5.95719">
        <ele>385</ele>
        <time>2016-07-30T08:27:52.025Z</time>
      </trkpt>
      <trkpt lat="43.14135" lon="5.95705">
        <ele>385</ele>
        <time>2016-07-30T08:27:53.025Z</time>
      </trkpt>
      <trkpt lat="43.14136" lon="5.95691">
        <ele>384</ele>
        <time>2016-07-30T08:27:54.025Z</time>
      </trkpt>
      <trkpt lat="43.14136" lon="5.95675">
        <ele>385</ele>
        <time>2016-07-30T08:27:55.025Z</time>
      </trkpt>
      <trkpt lat="43.14137" lon="5.9566">
        <ele>386</ele>
        <time>2016-07-30T08:27:56.025Z</time>
      </trkpt>
      <trkpt lat="43.14137" lon="5.95644">
        <ele>385</ele>
        <time>2016-07-30T08:27:57.025Z</time>
      </trkpt>
      <trkpt lat="43.14137" lon="5.95628">
        <ele>384</ele>
        <time>2016-07-30T08:27:58.025Z</time>
      </trkpt>
      <trkpt lat="43.14137" lon="5.95612">
        <ele>384</ele>
        <time>2016-07-30T08:27:59.025Z</time>
      </trkpt>
      <trkpt lat="43.14136" lon="5.95597">
        <ele>383</ele>
        <time>2016-07-30T08:28:00.025Z</time>
      </trkpt>
      <trkpt lat="43.14136" lon="5.95582">
        <ele>382</ele>
        <time>2016-07-30T08:28:01.025Z</time>
      </trkpt>
      <trkpt lat="43.14137" lon="5.95567">
        <ele>381</ele>
        <time>2016-07-30T08:28:02.025Z</time>
      </trkpt>
      <trkpt lat="43.14138" lon="5.95552">
        <ele>380</ele>
        <time>2016-07-30T08:28:03.025Z</time>
      </trkpt>
      <trkpt lat="43.14141" lon="5.95538">
        <ele>379</ele>
        <time>2016-07-30T08:28:04.025Z</time>
      </trkpt>
      <trkpt lat="43.14143" lon="5.95525">
        <ele>377</ele>
        <time>2016-07-30T08:28:05.025Z</time>
      </trkpt>
      <trkpt lat="43.14146" lon="5.95512">
        <ele>376</ele>
        <time>2016-07-30T08:28:06.025Z</time>
      </trkpt>
      <trkpt lat="43.14148" lon="5.95499">
        <ele>375</ele>
        <time>2016-07-30T08:28:07.025Z</time>
      </trkpt>
      <trkpt lat="43.1415" lon="5.95486">
        <ele>373</ele>
        <time>2016-07-30T08:28:08.025Z</time>
      </trkpt>
      <trkpt lat="43.14151" lon="5.95472">
        <ele>371</ele>
        <time>2016-07-30T08:28:09.025Z</time>
      </trkpt>
      <trkpt lat="43.14152" lon="5.95457">
        <ele>370</ele>
        <time>2016-07-30T08:28:10.025Z</time>
      </trkpt>
      <trkpt lat="43.14155" lon="5.95441">
        <ele>372</ele>
        <time>2016-07-30T08:28:11.025Z</time>
      </trkpt>
      <trkpt lat="43.14157" lon="5.95425">
        <ele>372</ele>
        <time>2016-07-30T08:28:12.025Z</time>
      </trkpt>
      <trkpt lat="43.1416" lon="5.9541">
        <ele>371</ele>
        <time>2016-07-30T08:28:13.025Z</time>
      </trkpt>
      <trkpt lat="43.14161" lon="5.95395">
        <ele>368</ele>
        <time>2016-07-30T08:28:14.025Z</time>
      </trkpt>
      <trkpt lat="43.14159" lon="5.95379">
        <ele>367</ele>
        <time>2016-07-30T08:28:15.025Z</time>
      </trkpt>
      <trkpt lat="43.14155" lon="5.95364">
        <ele>366</ele>
        <time>2016-07-30T08:28:16.025Z</time>
      </trkpt>
      <trkpt lat="43.1415" lon="5.95351">
        <ele>365</ele>
        <time>2016-07-30T08:28:17.025Z</time>
      </trkpt>
      <trkpt lat="43.14144" lon="5.95339">
        <ele>364</ele>
        <time>2016-07-30T08:28:18.025Z</time>
      </trkpt>
      <trkpt lat="43.14138" lon="5.95328">
        <ele>365</ele>
        <time>2016-07-30T08:28:19.025Z</time>
      </trkpt>
      <trkpt lat="43.14133" lon="5.95318">
        <ele>364</ele>
        <time>2016-07-30T08:28:20.025Z</time>
      </trkpt>
      <trkpt lat="43.14129" lon="5.95308">
        <ele>366</ele>
        <time>2016-07-30T08:28:21.025Z</time>
      </trkpt>
      <trkpt lat="43.14125" lon="5.95298">
        <ele>366</ele>
        <time>2016-07-30T08:28:22.025Z</time>
      </trkpt>
      <trkpt lat="43.1412" lon="5.95288">
        <ele>367</ele>
        <time>2016-07-30T08:28:23.025Z</time>
      </trkpt>
      <trkpt lat="43.14116" lon="5.95279">
        <ele>367</ele>
        <time>2016-07-30T08:28:24.025Z</time>
      </trkpt>
      <trkpt lat="43.14111" lon="5.9527">
        <ele>369</ele>
        <time>2016-07-30T08:28:25.025Z</time>
      </trkpt>
      <trkpt lat="43.14107" lon="5.95261">
        <ele>369</ele>
        <time>2016-07-30T08:28:26.025Z</time>
      </trkpt>
      <trkpt lat="43.14103" lon="5.95253">
        <ele>370</ele>
        <time>2016-07-30T08:28:27.025Z</time>
      </trkpt>
      <trkpt lat="43.14099" lon="5.95244">
        <ele>371</ele>
        <time>2016-07-30T08:28:28.025Z</time>
      </trkpt>
      <trkpt lat="43.14096" lon="5.95236">
        <ele>372</ele>
        <time>2016-07-30T08:28:29.025Z</time>
      </trkpt>
      <trkpt lat="43.14094" lon="5.95227">
        <ele>372</ele>
        <time>2016-07-30T08:28:30.025Z</time>
      </trkpt>
      <trkpt lat="43.14092" lon="5.95218">
        <ele>372</ele>
        <time>2016-07-30T08:28:31.025Z</time>
      </trkpt>
      <trkpt lat="43.14091" lon="5.95209">
        <ele>372</ele>
        <time>2016-07-30T08:28:32.025Z</time>
      </trkpt>
      <trkpt lat="43.14089" lon="5.95199">
        <ele>372</ele>
        <time>2016-07-30T08:28:33.025Z</time>
      </trkpt>
      <trkpt lat="43.14088" lon="5.9519">
        <ele>372</ele>
        <time>2016-07-30T08:28:34.025Z</time>
      </trkpt>
      <trkpt lat="43.14087" lon="5.9518">
        <ele>372</ele>
        <time>2016-07-30T08:28:35.025Z</time>
      </trkpt>
      <trkpt lat="43.14086" lon="5.95169">
        <ele>371</ele>
        <time>2016-07-30T08:28:36.025Z</time>
      </trkpt>
      <trkpt lat="43.14085" lon="5.95157">
        <ele>372</ele>
        <time>2016-07-30T08:28:37.025Z</time>
      </trkpt>
      <trkpt lat="43.14083" lon="5.95145">
        <ele>371</ele>
        <time>2016-07-30T08:28:38.025Z</time>
      </trkpt>
      <trkpt lat="43.1408" lon="5.95135">
        <ele>371</ele>
        <time>2016-07-30T08:28:39.025Z</time>
      </trkpt>
      <trkpt lat="43.14075" lon="5.95126">
        <ele>370</ele>
        <time>2016-07-30T08:28:40.025Z</time>
      </trkpt>
      <trkpt lat="43.14068" lon="5.95117">
        <ele>369</ele>
        <time>2016-07-30T08:28:41.025Z</time>
      </trkpt>
      <trkpt lat="43.1406" lon="5.95108">
        <ele>368</ele>
        <time>2016-07-30T08:28:42.025Z</time>
      </trkpt>
      <trkpt lat="43.14052" lon="5.95097">
        <ele>368</ele>
        <time>2016-07-30T08:28:43.025Z</time>
      </trkpt>
      <trkpt lat="43.14046" lon="5.95085">
        <ele>367</ele>
        <time>2016-07-30T08:28:44.025Z</time>
      </trkpt>
      <trkpt lat="43.14041" lon="5.95072">
        <ele>366</ele>
        <time>2016-07-30T08:28:45.025Z</time>
      </trkpt>
      <trkpt lat="43.14038" lon="5.95058">
        <ele>366</ele>
        <time>2016-07-30T08:28:46.025Z</time>
      </trkpt>
      <trkpt lat="43.14036" lon="5.95043">
        <ele>365</ele>
        <time>2016-07-30T08:28:47.025Z</time>
      </trkpt>
      <trkpt lat="43.14036" lon="5.95028">
        <ele>364</ele>
        <time>2016-07-30T08:28:48.025Z</time>
      </trkpt>
      <trkpt lat="43.14038" lon="5.95015">
        <ele>364</ele>
        <time>2016-07-30T08:28:49.025Z</time>
      </trkpt>
      <trkpt lat="43.14041" lon="5.95002">
        <ele>363</ele>
        <time>2016-07-30T08:28:50.025Z</time>
      </trkpt>
      <trkpt lat="43.14047" lon="5.9499">
        <ele>363</ele>
        <time>2016-07-30T08:28:51.025Z</time>
      </trkpt>
      <trkpt lat="43.14053" lon="5.94978">
        <ele>362</ele>
        <time>2016-07-30T08:28:52.025Z</time>
      </trkpt>
      <trkpt lat="43.14059" lon="5.94966">
        <ele>361</ele>
        <time>2016-07-30T08:28:53.025Z</time>
      </trkpt>
      <trkpt lat="43.14065" lon="5.94953">
        <ele>359</ele>
        <time>2016-07-30T08:28:54.025Z</time>
      </trkpt>
      <trkpt lat="43.14069" lon="5.94939">
        <ele>358</ele>
        <time>2016-07-30T08:28:55.025Z</time>
      </trkpt>
      <trkpt lat="43.14072" lon="5.94923">
        <ele>357</ele>
        <time>2016-07-30T08:28:56.025Z</time>
      </trkpt>
      <trkpt lat="43.14073" lon="5.94907">
        <ele>356</ele>
        <time>2016-07-30T08:28:57.025Z</time>
      </trkpt>
      <trkpt lat="43.14076" lon="5.94891">
        <ele>354</ele>
        <time>2016-07-30T08:28:58.025Z</time>
      </trkpt>
      <trkpt lat="43.1408" lon="5.94876">
        <ele>353</ele>
        <time>2016-07-30T08:28:59.025Z</time>
      </trkpt>
      <trkpt lat="43.14087" lon="5.94861">
        <ele>352</ele>
        <time>2016-07-30T08:29:00.025Z</time>
      </trkpt>
      <trkpt lat="43.14094" lon="5.94849">
        <ele>350</ele>
        <time>2016-07-30T08:29:01.025Z</time>
      </trkpt>
      <trkpt lat="43.14102" lon="5.94837">
        <ele>349</ele>
        <time>2016-07-30T08:29:02.025Z</time>
      </trkpt>
      <trkpt lat="43.14109" lon="5.94826">
        <ele>348</ele>
        <time>2016-07-30T08:29:03.025Z</time>
      </trkpt>
      <trkpt lat="43.14115" lon="5.94814">
        <ele>347</ele>
        <time>2016-07-30T08:29:04.025Z</time>
      </trkpt>
      <trkpt lat="43.14119" lon="5.94801">
        <ele>346</ele>
        <time>2016-07-30T08:29:05.025Z</time>
      </trkpt>
      <trkpt lat="43.14121" lon="5.94786">
        <ele>344</ele>
        <time>2016-07-30T08:29:06.025Z</time>
      </trkpt>
      <trkpt lat="43.14123" lon="5.9477">
        <ele>343</ele>
        <time>2016-07-30T08:29:07.025Z</time>
      </trkpt>
      <trkpt lat="43.14126" lon="5.94754">
        <ele>342</ele>
        <time>2016-07-30T08:29:08.025Z</time>
      </trkpt>
      <trkpt lat="43.1413" lon="5.94738">
        <ele>342</ele>
        <time>2016-07-30T08:29:09.025Z</time>
      </trkpt>
      <trkpt lat="43.14134" lon="5.94725">
        <ele>340</ele>
        <time>2016-07-30T08:29:10.025Z</time>
      </trkpt>
      <trkpt lat="43.14138" lon="5.94712">
        <ele>340</ele>
        <time>2016-07-30T08:29:11.025Z</time>
      </trkpt>
      <trkpt lat="43.1414" lon="5.94699">
        <ele>339</ele>
        <time>2016-07-30T08:29:12.025Z</time>
      </trkpt>
      <trkpt lat="43.14139" lon="5.94684">
        <ele>338</ele>
        <time>2016-07-30T08:29:13.025Z</time>
      </trkpt>
      <trkpt lat="43.14136" lon="5.94669">
        <ele>338</ele>
        <time>2016-07-30T08:29:14.025Z</time>
      </trkpt>
      <trkpt lat="43.14131" lon="5.94655">
        <ele>337</ele>
        <time>2016-07-30T08:29:15.025Z</time>
      </trkpt>
      <trkpt lat="43.14125" lon="5.94641">
        <ele>335</ele>
        <time>2016-07-30T08:29:16.025Z</time>
      </trkpt>
      <trkpt lat="43.14119" lon="5.94627">
        <ele>334</ele>
        <time>2016-07-30T08:29:17.025Z</time>
      </trkpt>
      <trkpt lat="43.14114" lon="5.94614">
        <ele>332</ele>
        <time>2016-07-30T08:29:18.025Z</time>
      </trkpt>
      <trkpt lat="43.14106" lon="5.94602">
        <ele>328</ele>
        <time>2016-07-30T08:29:19.025Z</time>
      </trkpt>
      <trkpt lat="43.14096" lon="5.94593">
        <ele>327</ele>
        <time>2016-07-30T08:29:20.025Z</time>
      </trkpt>
      <trkpt lat="43.14086" lon="5.94586">
        <ele>325</ele>
        <time>2016-07-30T08:29:21.025Z</time>
      </trkpt>
      <trkpt lat="43.14077" lon="5.94578">
        <ele>324</ele>
        <time>2016-07-30T08:29:22.025Z</time>
      </trkpt>
      <trkpt lat="43.14067" lon="5.94573">
        <ele>322</ele>
        <time>2016-07-30T08:29:23.025Z</time>
      </trkpt>
      <trkpt lat="43.14056" lon="5.9457">
        <ele>321</ele>
        <time>2016-07-30T08:29:24.025Z</time>
      </trkpt>
      <trkpt lat="43.14044" lon="5.94568">
        <ele>319</ele>
        <time>2016-07-30T08:29:25.025Z</time>
      </trkpt>
      <trkpt lat="43.14034" lon="5.94564">
        <ele>317</ele>
        <time>2016-07-30T08:29:26.025Z</time>
      </trkpt>
      <trkpt lat="43.14023" lon="5.94559">
        <ele>315</ele>
        <time>2016-07-30T08:29:27.025Z</time>
      </trkpt>
      <trkpt lat="43.14012" lon="5.94556">
        <ele>313</ele>
        <time>2016-07-30T08:29:28.025Z</time>
      </trkpt>
      <trkpt lat="43.14003" lon="5.94554">
        <ele>311</ele>
        <time>2016-07-30T08:29:29.025Z</time>
      </trkpt>
      <trkpt lat="43.13996" lon="5.94552">
        <ele>308</ele>
        <time>2016-07-30T08:29:30.025Z</time>
      </trkpt>
      <trkpt lat="43.13992" lon="5.94549">
        <ele>306</ele>
        <time>2016-07-30T08:29:31.025Z</time>
      </trkpt>
      <trkpt lat="43.1399" lon="5.94542">
        <ele>295</ele>
        <time>2016-07-30T08:29:32.025Z</time>
      </trkpt>
      <trkpt lat="43.13989" lon="5.94533">
        <ele>295</ele>
        <time>2016-07-30T08:29:33.025Z</time>
      </trkpt>
      <trkpt lat="43.13989" lon="5.94524">
        <ele>295</ele>
        <time>2016-07-30T08:29:34.025Z</time>
      </trkpt>
      <trkpt lat="43.13988" lon="5.94517">
        <ele>296</ele>
        <time>2016-07-30T08:29:35.025Z</time>
      </trkpt>
      <trkpt lat="43.13987" lon="5.9451">
        <ele>297</ele>
        <time>2016-07-30T08:29:36.025Z</time>
      </trkpt>
      <trkpt lat="43.13986" lon="5.94504">
        <ele>297</ele>
        <time>2016-07-30T08:29:37.025Z</time>
      </trkpt>
      <trkpt lat="43.13986" lon="5.94498">
        <ele>296</ele>
        <time>2016-07-30T08:29:38.025Z</time>
      </trkpt>
      <trkpt lat="43.13987" lon="5.94493">
        <ele>295</ele>
        <time>2016-07-30T08:29:39.025Z</time>
      </trkpt>
      <trkpt lat="43.13987" lon="5.9449">
        <ele>297</ele>
        <time>2016-07-30T08:29:40.025Z</time>
      </trkpt>
      <trkpt lat="43.13987" lon="5.94488">
        <ele>301</ele>
        <time>2016-07-30T08:29:41.025Z</time>
      </trkpt>
      <trkpt lat="43.13986" lon="5.94488">
        <ele>303</ele>
        <time>2016-07-30T08:29:42.025Z</time>
      </trkpt>
      <trkpt lat="43.13986" lon="5.94489">
        <ele>305</ele>
        <time>2016-07-30T08:29:43.025Z</time>
      </trkpt>
      <trkpt lat="43.13986" lon="5.94491">
        <ele>307</ele>
        <time>2016-07-30T08:29:44.025Z</time>
      </trkpt>
      <trkpt lat="43.13986" lon="5.94492">
        <ele>308</ele>
        <time>2016-07-30T08:29:45.025Z</time>
      </trkpt>
      <trkpt lat="43.13986" lon="5.94493">
        <ele>308</ele>
        <time>2016-07-30T08:29:46.025Z</time>
      </trkpt>
      <trkpt lat="43.13986" lon="5.94493">
        <ele>308</ele>
        <time>2016-07-30T08:29:47.025Z</time>
      </trkpt>
      <trkpt lat="43.13986" lon="5.94493">
        <ele>309</ele>
        <time>2016-07-30T08:29:48.025Z</time>
      </trkpt>
      <trkpt lat="43.13986" lon="5.94493">
        <ele>308</ele>
        <time>2016-07-30T08:29:49.025Z</time>
      </trkpt>
      <trkpt lat="43.13987" lon="5.94493">
        <ele>308</ele>
        <time>2016-07-30T08:29:50.025Z</time>
      </trkpt>
      <trkpt lat="43.13987" lon="5.94493">
        <ele>308</ele>
        <time>2016-07-30T08:29:51.025Z</time>
      </trkpt>
      <trkpt lat="43.13991" lon="5.94482">
        <ele>308</ele>
        <time>2016-07-30T08:29:52.029Z</time>
      </trkpt>
      <trkpt lat="43.13992" lon="5.94476">
        <ele>308</ele>
        <time>2016-07-30T08:29:53.029Z</time>
      </trkpt>
      <trkpt lat="43.13994" lon="5.9447">
        <ele>308</ele>
        <time>2016-07-30T08:29:54.029Z</time>
      </trkpt>
      <trkpt lat="43.13996" lon="5.94464">
        <ele>307</ele>
        <time>2016-07-30T08:29:55.029Z</time>
      </trkpt>
      <trkpt lat="43.13998" lon="5.94457">
        <ele>304</ele>
        <time>2016-07-30T08:29:56.029Z</time>
      </trkpt>
      <trkpt lat="43.14001" lon="5.94447">
        <ele>304</ele>
        <time>2016-07-30T08:29:57.029Z</time>
      </trkpt>
      <trkpt lat="43.14003" lon="5.94437">
        <ele>304</ele>
        <time>2016-07-30T08:29:58.029Z</time>
      </trkpt>
      <trkpt lat="43.14005" lon="5.94426">
        <ele>304</ele>
        <time>2016-07-30T08:29:59.029Z</time>
      </trkpt>
      <trkpt lat="43.14005" lon="5.94414">
        <ele>302</ele>
        <time>2016-07-30T08:30:00.029Z</time>
      </trkpt>
      <trkpt lat="43.14004" lon="5.94401">
        <ele>300</ele>
        <time>2016-07-30T08:30:01.029Z</time>
      </trkpt>
      <trkpt lat="43.14003" lon="5.94387">
        <ele>299</ele>
        <time>2016-07-30T08:30:02.029Z</time>
      </trkpt>
      <trkpt lat="43.14003" lon="5.94373">
        <ele>299</ele>
        <time>2016-07-30T08:30:03.029Z</time>
      </trkpt>
      <trkpt lat="43.14002" lon="5.94358">
        <ele>297</ele>
        <time>2016-07-30T08:30:04.029Z</time>
      </trkpt>
      <trkpt lat="43.14002" lon="5.94344">
        <ele>296</ele>
        <time>2016-07-30T08:30:05.029Z</time>
      </trkpt>
      <trkpt lat="43.14002" lon="5.94329">
        <ele>295</ele>
        <time>2016-07-30T08:30:06.029Z</time>
      </trkpt>
      <trkpt lat="43.14" lon="5.94314">
        <ele>294</ele>
        <time>2016-07-30T08:30:07.029Z</time>
      </trkpt>
      <trkpt lat="43.13996" lon="5.94299">
        <ele>293</ele>
        <time>2016-07-30T08:30:08.029Z</time>
      </trkpt>
      <trkpt lat="43.13991" lon="5.94283">
        <ele>292</ele>
        <time>2016-07-30T08:30:09.029Z</time>
      </trkpt>
      <trkpt lat="43.13987" lon="5.94268">
        <ele>291</ele>
        <time>2016-07-30T08:30:10.029Z</time>
      </trkpt>
      <trkpt lat="43.13983" lon="5.94253">
        <ele>289</ele>
        <time>2016-07-30T08:30:11.029Z</time>
      </trkpt>
      <trkpt lat="43.13979" lon="5.94239">
        <ele>286</ele>
        <time>2016-07-30T08:30:12.029Z</time>
      </trkpt>
      <trkpt lat="43.13976" lon="5.94227">
        <ele>283</ele>
        <time>2016-07-30T08:30:13.029Z</time>
      </trkpt>
      <trkpt lat="43.13972" lon="5.94216">
        <ele>277</ele>
        <time>2016-07-30T08:30:14.029Z</time>
      </trkpt>
      <trkpt lat="43.13966" lon="5.94207">
        <ele>272</ele>
        <time>2016-07-30T08:30:15.029Z</time>
      </trkpt>
      <trkpt lat="43.13959" lon="5.94197">
        <ele>269</ele>
        <time>2016-07-30T08:30:16.029Z</time>
      </trkpt>
      <trkpt lat="43.13952" lon="5.94187">
        <ele>266</ele>
        <time>2016-07-30T08:30:17.029Z</time>
      </trkpt>
      <trkpt lat="43.13946" lon="5.94175">
        <ele>264</ele>
        <time>2016-07-30T08:30:18.029Z</time>
      </trkpt>
      <trkpt lat="43.13939" lon="5.94165">
        <ele>262</ele>
        <time>2016-07-30T08:30:19.029Z</time>
      </trkpt>
      <trkpt lat="43.13934" lon="5.94155">
        <ele>258</ele>
        <time>2016-07-30T08:30:20.029Z</time>
      </trkpt>
      <trkpt lat="43.1393" lon="5.94146">
        <ele>255</ele>
        <time>2016-07-30T08:30:21.029Z</time>
      </trkpt>
      <trkpt lat="43.13926" lon="5.94138">
        <ele>251</ele>
        <time>2016-07-30T08:30:22.029Z</time>
      </trkpt>
      <trkpt lat="43.13923" lon="5.9413">
        <ele>247</ele>
        <time>2016-07-30T08:30:23.029Z</time>
      </trkpt>
      <trkpt lat="43.13918" lon="5.94126">
        <ele>247</ele>
        <time>2016-07-30T08:30:24.029Z</time>
      </trkpt>
      <trkpt lat="43.13914" lon="5.94125">
        <ele>249</ele>
        <time>2016-07-30T08:30:25.029Z</time>
      </trkpt>
      <trkpt lat="43.13912" lon="5.94129">
        <ele>246</ele>
        <time>2016-07-30T08:30:26.029Z</time>
      </trkpt>
      <trkpt lat="43.13912" lon="5.94133">
        <ele>244</ele>
        <time>2016-07-30T08:30:27.029Z</time>
      </trkpt>
      <trkpt lat="43.13914" lon="5.94139">
        <ele>245</ele>
        <time>2016-07-30T08:30:28.029Z</time>
      </trkpt>
      <trkpt lat="43.13915" lon="5.94144">
        <ele>248</ele>
        <time>2016-07-30T08:30:29.029Z</time>
      </trkpt>
      <trkpt lat="43.13916" lon="5.9415">
        <ele>252</ele>
        <time>2016-07-30T08:30:30.029Z</time>
      </trkpt>
      <trkpt lat="43.13918" lon="5.94157">
        <ele>254</ele>
        <time>2016-07-30T08:30:31.029Z</time>
      </trkpt>
      <trkpt lat="43.13923" lon="5.94168">
        <ele>251</ele>
        <time>2016-07-30T08:30:32.029Z</time>
      </trkpt>
      <trkpt lat="43.13928" lon="5.9418">
        <ele>254</ele>
        <time>2016-07-30T08:30:33.029Z</time>
      </trkpt>
      <trkpt lat="43.13933" lon="5.94192">
        <ele>255</ele>
        <time>2016-07-30T08:30:34.029Z</time>
      </trkpt>
      <trkpt lat="43.13937" lon="5.94203">
        <ele>254</ele>
        <time>2016-07-30T08:30:35.029Z</time>
      </trkpt>
      <trkpt lat="43.13943" lon="5.94214">
        <ele>252</ele>
        <time>2016-07-30T08:30:36.029Z</time>
      </trkpt>
      <trkpt lat="43.13949" lon="5.94225">
        <ele>250</ele>
        <time>2016-07-30T08:30:37.029Z</time>
      </trkpt>
      <trkpt lat="43.13953" lon="5.94237">
        <ele>246</ele>
        <time>2016-07-30T08:30:38.029Z</time>
      </trkpt>
      <trkpt lat="43.13957" lon="5.94249">
        <ele>242</ele>
        <time>2016-07-30T08:30:39.029Z</time>
      </trkpt>
      <trkpt lat="43.13961" lon="5.94263">
        <ele>243</ele>
        <time>2016-07-30T08:30:40.029Z</time>
      </trkpt>
      <trkpt lat="43.13963" lon="5.9428">
        <ele>244</ele>
        <time>2016-07-30T08:30:41.029Z</time>
      </trkpt>
      <trkpt lat="43.13964" lon="5.94298">
        <ele>245</ele>
        <time>2016-07-30T08:30:42.029Z</time>
      </trkpt>
      <trkpt lat="43.13965" lon="5.94315">
        <ele>244</ele>
        <time>2016-07-30T08:30:43.029Z</time>
      </trkpt>
      <trkpt lat="43.13965" lon="5.94329">
        <ele>243</ele>
        <time>2016-07-30T08:30:44.029Z</time>
      </trkpt>
      <trkpt lat="43.13967" lon="5.94341">
        <ele>243</ele>
        <time>2016-07-30T08:30:45.029Z</time>
      </trkpt>
      <trkpt lat="43.13968" lon="5.94352">
        <ele>242</ele>
        <time>2016-07-30T08:30:46.029Z</time>
      </trkpt>
      <trkpt lat="43.13971" lon="5.94363">
        <ele>241</ele>
        <time>2016-07-30T08:30:47.029Z</time>
      </trkpt>
      <trkpt lat="43.13975" lon="5.94373">
        <ele>241</ele>
        <time>2016-07-30T08:30:48.029Z</time>
      </trkpt>
      <trkpt lat="43.13978" lon="5.94383">
        <ele>238</ele>
        <time>2016-07-30T08:30:49.029Z</time>
      </trkpt>
      <trkpt lat="43.13979" lon="5.94395">
        <ele>238</ele>
        <time>2016-07-30T08:30:50.029Z</time>
      </trkpt>
      <trkpt lat="43.1398" lon="5.94406">
        <ele>237</ele>
        <time>2016-07-30T08:30:51.029Z</time>
      </trkpt>
      <trkpt lat="43.13981" lon="5.94418">
        <ele>237</ele>
        <time>2016-07-30T08:30:52.029Z</time>
      </trkpt>
      <trkpt lat="43.13981" lon="5.94428">
        <ele>240</ele>
        <time>2016-07-30T08:30:53.029Z</time>
      </trkpt>
      <trkpt lat="43.13976" lon="5.94437">
        <ele>240</ele>
        <time>2016-07-30T08:30:54.029Z</time>
      </trkpt>
      <trkpt lat="43.1397" lon="5.94429">
        <ele>242</ele>
        <time>2016-07-30T08:30:55.029Z</time>
      </trkpt>
      <trkpt lat="43.13966" lon="5.94413">
        <ele>249</ele>
        <time>2016-07-30T08:30:56.029Z</time>
      </trkpt>
      <trkpt lat="43.13964" lon="5.94395">
        <ele>249</ele>
        <time>2016-07-30T08:30:57.029Z</time>
      </trkpt>
      <trkpt lat="43.13964" lon="5.94387">
        <ele>247</ele>
        <time>2016-07-30T08:30:58.029Z</time>
      </trkpt>
      <trkpt lat="43.13962" lon="5.94383">
        <ele>244</ele>
        <time>2016-07-30T08:30:59.029Z</time>
      </trkpt>
      <trkpt lat="43.13959" lon="5.9438">
        <ele>240</ele>
        <time>2016-07-30T08:31:00.029Z</time>
      </trkpt>
      <trkpt lat="43.13954" lon="5.94379">
        <ele>237</ele>
        <time>2016-07-30T08:31:01.029Z</time>
      </trkpt>
      <trkpt lat="43.13947" lon="5.94376">
        <ele>237</ele>
        <time>2016-07-30T08:31:02.029Z</time>
      </trkpt>
      <trkpt lat="43.1394" lon="5.94371">
        <ele>237</ele>
        <time>2016-07-30T08:31:03.029Z</time>
      </trkpt>
      <trkpt lat="43.13933" lon="5.94365">
        <ele>236</ele>
        <time>2016-07-30T08:31:04.029Z</time>
      </trkpt>
      <trkpt lat="43.13926" lon="5.94359">
        <ele>234</ele>
        <time>2016-07-30T08:31:05.029Z</time>
      </trkpt>
      <trkpt lat="43.13921" lon="5.94354">
        <ele>232</ele>
        <time>2016-07-30T08:31:06.029Z</time>
      </trkpt>
      <trkpt lat="43.13913" lon="5.94352">
        <ele>224</ele>
        <time>2016-07-30T08:31:07.029Z</time>
      </trkpt>
      <trkpt lat="43.13901" lon="5.94353">
        <ele>211</ele>
        <time>2016-07-30T08:31:08.029Z</time>
      </trkpt>
      <trkpt lat="43.13887" lon="5.94356">
        <ele>206</ele>
        <time>2016-07-30T08:31:09.029Z</time>
      </trkpt>
      <trkpt lat="43.13874" lon="5.94356">
        <ele>202</ele>
        <time>2016-07-30T08:31:10.029Z</time>
      </trkpt>
      <trkpt lat="43.13864" lon="5.94355">
        <ele>199</ele>
        <time>2016-07-30T08:31:11.029Z</time>
      </trkpt>
      <trkpt lat="43.13853" lon="5.94356">
        <ele>199</ele>
        <time>2016-07-30T08:31:12.029Z</time>
      </trkpt>
      <trkpt lat="43.13843" lon="5.94359">
        <ele>200</ele>
        <time>2016-07-30T08:31:13.029Z</time>
      </trkpt>
      <trkpt lat="43.13833" lon="5.94364">
        <ele>200</ele>
        <time>2016-07-30T08:31:14.029Z</time>
      </trkpt>
      <trkpt lat="43.13823" lon="5.94369">
        <ele>200</ele>
        <time>2016-07-30T08:31:15.029Z</time>
      </trkpt>
      <trkpt lat="43.13815" lon="5.94372">
        <ele>202</ele>
        <time>2016-07-30T08:31:16.029Z</time>
      </trkpt>
      <trkpt lat="43.13808" lon="5.94373">
        <ele>203</ele>
        <time>2016-07-30T08:31:17.029Z</time>
      </trkpt>
      <trkpt lat="43.13804" lon="5.94372">
        <ele>196</ele>
        <time>2016-07-30T08:31:18.029Z</time>
      </trkpt>
      <trkpt lat="43.13802" lon="5.94371">
        <ele>189</ele>
        <time>2016-07-30T08:31:19.029Z</time>
      </trkpt>
      <trkpt lat="43.13803" lon="5.94369">
        <ele>184</ele>
        <time>2016-07-30T08:31:20.029Z</time>
      </trkpt>
      <trkpt lat="43.13806" lon="5.94369">
        <ele>187</ele>
        <time>2016-07-30T08:31:21.029Z</time>
      </trkpt>
      <trkpt lat="43.13809" lon="5.94368">
        <ele>189</ele>
        <time>2016-07-30T08:31:22.029Z</time>
      </trkpt>
      <trkpt lat="43.13813" lon="5.94367">
        <ele>188</ele>
        <time>2016-07-30T08:31:23.029Z</time>
      </trkpt>
      <trkpt lat="43.13817" lon="5.94363">
        <ele>188</ele>
        <time>2016-07-30T08:31:24.029Z</time>
      </trkpt>
      <trkpt lat="43.13823" lon="5.94359">
        <ele>187</ele>
        <time>2016-07-30T08:31:25.029Z</time>
      </trkpt>
      <trkpt lat="43.13829" lon="5.94355">
        <ele>189</ele>
        <time>2016-07-30T08:31:26.029Z</time>
      </trkpt>
      <trkpt lat="43.13837" lon="5.94351">
        <ele>188</ele>
        <time>2016-07-30T08:31:27.029Z</time>
      </trkpt>
      <trkpt lat="43.13846" lon="5.94348">
        <ele>187</ele>
        <time>2016-07-30T08:31:28.029Z</time>
      </trkpt>
      <trkpt lat="43.13855" lon="5.94345">
        <ele>187</ele>
        <time>2016-07-30T08:31:29.029Z</time>
      </trkpt>
      <trkpt lat="43.13864" lon="5.94342">
        <ele>185</ele>
        <time>2016-07-30T08:31:30.029Z</time>
      </trkpt>
      <trkpt lat="43.13872" lon="5.94339">
        <ele>183</ele>
        <time>2016-07-30T08:31:31.029Z</time>
      </trkpt>
      <trkpt lat="43.13879" lon="5.94336">
        <ele>181</ele>
        <time>2016-07-30T08:31:32.029Z</time>
      </trkpt>
      <trkpt lat="43.13887" lon="5.94334">
        <ele>180</ele>
        <time>2016-07-30T08:31:33.029Z</time>
      </trkpt>
      <trkpt lat="43.13894" lon="5.94331">
        <ele>178</ele>
        <time>2016-07-30T08:31:34.029Z</time>
      </trkpt>
      <trkpt lat="43.13901" lon="5.94328">
        <ele>180</ele>
        <time>2016-07-30T08:31:35.029Z</time>
      </trkpt>
      <trkpt lat="43.13907" lon="5.94321">
        <ele>183</ele>
        <time>2016-07-30T08:31:36.029Z</time>
      </trkpt>
      <trkpt lat="43.13912" lon="5.94312">
        <ele>182</ele>
        <time>2016-07-30T08:31:37.029Z</time>
      </trkpt>
      <trkpt lat="43.13915" lon="5.94304">
        <ele>182</ele>
        <time>2016-07-30T08:31:38.029Z</time>
      </trkpt>
      <trkpt lat="43.13917" lon="5.94296">
        <ele>183</ele>
        <time>2016-07-30T08:31:39.029Z</time>
      </trkpt>
      <trkpt lat="43.13916" lon="5.94285">
        <ele>184</ele>
        <time>2016-07-30T08:31:40.029Z</time>
      </trkpt>
      <trkpt lat="43.13916" lon="5.94285">
        <ele>179</ele>
        <time>2016-07-30T08:31:42.029Z</time>
      </trkpt>
      <trkpt lat="43.13916" lon="5.94285">
        <ele>172</ele>
        <time>2016-07-30T08:31:43.029Z</time>
      </trkpt>
      <trkpt lat="43.13911" lon="5.94273">
        <ele>171</ele>
        <time>2016-07-30T08:31:44.029Z</time>
      </trkpt>
      <trkpt lat="43.13899" lon="5.94261">
        <ele>168</ele>
        <time>2016-07-30T08:31:45.029Z</time>
      </trkpt>
      <trkpt lat="43.13883" lon="5.94251">
        <ele>162</ele>
        <time>2016-07-30T08:31:46.029Z</time>
      </trkpt>
      <trkpt lat="43.13867" lon="5.94241">
        <ele>163</ele>
        <time>2016-07-30T08:31:47.029Z</time>
      </trkpt>
      <trkpt lat="43.13857" lon="5.9423">
        <ele>165</ele>
        <time>2016-07-30T08:31:48.029Z</time>
      </trkpt>
      <trkpt lat="43.1385" lon="5.94217">
        <ele>165</ele>
        <time>2016-07-30T08:31:49.029Z</time>
      </trkpt>
      <trkpt lat="43.13843" lon="5.94204">
        <ele>161</ele>
        <time>2016-07-30T08:31:50.029Z</time>
      </trkpt>
      <trkpt lat="43.13836" lon="5.94191">
        <ele>163</ele>
        <time>2016-07-30T08:31:51.029Z</time>
      </trkpt>
      <trkpt lat="43.13829" lon="5.94178">
        <ele>164</ele>
        <time>2016-07-30T08:31:52.029Z</time>
      </trkpt>
      <trkpt lat="43.13822" lon="5.94166">
        <ele>166</ele>
        <time>2016-07-30T08:31:53.029Z</time>
      </trkpt>
      <trkpt lat="43.13815" lon="5.94154">
        <ele>165</ele>
        <time>2016-07-30T08:31:54.029Z</time>
      </trkpt>
      <trkpt lat="43.1381" lon="5.94141">
        <ele>174</ele>
        <time>2016-07-30T08:31:55.029Z</time>
      </trkpt>
      <trkpt lat="43.13807" lon="5.94127">
        <ele>176</ele>
        <time>2016-07-30T08:31:56.029Z</time>
      </trkpt>
      <trkpt lat="43.13804" lon="5.94113">
        <ele>176</ele>
        <time>2016-07-30T08:31:57.029Z</time>
      </trkpt>
      <trkpt lat="43.13803" lon="5.94099">
        <ele>176</ele>
        <time>2016-07-30T08:31:58.029Z</time>
      </trkpt>
      <trkpt lat="43.13801" lon="5.94085">
        <ele>176</ele>
        <time>2016-07-30T08:31:59.029Z</time>
      </trkpt>
      <trkpt lat="43.13799" lon="5.94072">
        <ele>176</ele>
        <time>2016-07-30T08:32:00.029Z</time>
      </trkpt>
      <trkpt lat="43.13796" lon="5.94061">
        <ele>176</ele>
        <time>2016-07-30T08:32:01.029Z</time>
      </trkpt>
      <trkpt lat="43.13793" lon="5.94052">
        <ele>174</ele>
        <time>2016-07-30T08:32:02.029Z</time>
      </trkpt>
      <trkpt lat="43.13789" lon="5.94044">
        <ele>175</ele>
        <time>2016-07-30T08:32:03.029Z</time>
      </trkpt>
      <trkpt lat="43.13787" lon="5.94036">
        <ele>175</ele>
        <time>2016-07-30T08:32:04.029Z</time>
      </trkpt>
      <trkpt lat="43.13784" lon="5.94029">
        <ele>176</ele>
        <time>2016-07-30T08:32:05.029Z</time>
      </trkpt>
      <trkpt lat="43.13781" lon="5.94021">
        <ele>177</ele>
        <time>2016-07-30T08:32:06.029Z</time>
      </trkpt>
      <trkpt lat="43.1378" lon="5.94013">
        <ele>177</ele>
        <time>2016-07-30T08:32:07.029Z</time>
      </trkpt>
      <trkpt lat="43.13778" lon="5.94006">
        <ele>177</ele>
        <time>2016-07-30T08:32:08.029Z</time>
      </trkpt>
      <trkpt lat="43.13778" lon="5.94">
        <ele>178</ele>
        <time>2016-07-30T08:32:09.029Z</time>
      </trkpt>
      <trkpt lat="43.1378" lon="5.93994">
        <ele>177</ele>
        <time>2016-07-30T08:32:10.029Z</time>
      </trkpt>
      <trkpt lat="43.13783" lon="5.93989">
        <ele>177</ele>
        <time>2016-07-30T08:32:11.029Z</time>
      </trkpt>
      <trkpt lat="43.13788" lon="5.93985">
        <ele>177</ele>
        <time>2016-07-30T08:32:12.029Z</time>
      </trkpt>
      <trkpt lat="43.13792" lon="5.93981">
        <ele>179</ele>
        <time>2016-07-30T08:32:13.029Z</time>
      </trkpt>
      <trkpt lat="43.13795" lon="5.93977">
        <ele>179</ele>
        <time>2016-07-30T08:32:14.029Z</time>
      </trkpt>
      <trkpt lat="43.13798" lon="5.93972">
        <ele>179</ele>
        <time>2016-07-30T08:32:15.029Z</time>
      </trkpt>
      <trkpt lat="43.13802" lon="5.93968">
        <ele>178</ele>
        <time>2016-07-30T08:32:16.029Z</time>
      </trkpt>
      <trkpt lat="43.13805" lon="5.93963">
        <ele>178</ele>
        <time>2016-07-30T08:32:17.029Z</time>
      </trkpt>
      <trkpt lat="43.13809" lon="5.93958">
        <ele>178</ele>
        <time>2016-07-30T08:32:18.029Z</time>
      </trkpt>
      <trkpt lat="43.13812" lon="5.93953">
        <ele>178</ele>
        <time>2016-07-30T08:32:19.029Z</time>
      </trkpt>
      <trkpt lat="43.13816" lon="5.93947">
        <ele>177</ele>
        <time>2016-07-30T08:32:20.029Z</time>
      </trkpt>
      <trkpt lat="43.13819" lon="5.93942">
        <ele>177</ele>
        <time>2016-07-30T08:32:21.029Z</time>
      </trkpt>
      <trkpt lat="43.13824" lon="5.93937">
        <ele>175</ele>
        <time>2016-07-30T08:32:22.029Z</time>
      </trkpt>
      <trkpt lat="43.13829" lon="5.9393">
        <ele>174</ele>
        <time>2016-07-30T08:32:23.029Z</time>
      </trkpt>
      <trkpt lat="43.13834" lon="5.93922">
        <ele>174</ele>
        <time>2016-07-30T08:32:24.029Z</time>
      </trkpt>
      <trkpt lat="43.1384" lon="5.93913">
        <ele>173</ele>
        <time>2016-07-30T08:32:25.029Z</time>
      </trkpt>
      <trkpt lat="43.13847" lon="5.93907">
        <ele>175</ele>
        <time>2016-07-30T08:32:26.029Z</time>
      </trkpt>
      <trkpt lat="43.13854" lon="5.93901">
        <ele>175</ele>
        <time>2016-07-30T08:32:27.029Z</time>
      </trkpt>
      <trkpt lat="43.13862" lon="5.93896">
        <ele>175</ele>
        <time>2016-07-30T08:32:28.029Z</time>
      </trkpt>
      <trkpt lat="43.1387" lon="5.93891">
        <ele>176</ele>
        <time>2016-07-30T08:32:29.029Z</time>
      </trkpt>
      <trkpt lat="43.13879" lon="5.93886">
        <ele>176</ele>
        <time>2016-07-30T08:32:30.029Z</time>
      </trkpt>
      <trkpt lat="43.13887" lon="5.93881">
        <ele>175</ele>
        <time>2016-07-30T08:32:31.029Z</time>
      </trkpt>
      <trkpt lat="43.13897" lon="5.93878">
        <ele>175</ele>
        <time>2016-07-30T08:32:32.029Z</time>
      </trkpt>
      <trkpt lat="43.13907" lon="5.93876">
        <ele>176</ele>
        <time>2016-07-30T08:32:33.029Z</time>
      </trkpt>
      <trkpt lat="43.13917" lon="5.93874">
        <ele>176</ele>
        <time>2016-07-30T08:32:34.029Z</time>
      </trkpt>
      <trkpt lat="43.13927" lon="5.93873">
        <ele>176</ele>
        <time>2016-07-30T08:32:35.029Z</time>
      </trkpt>
      <trkpt lat="43.13937" lon="5.93871">
        <ele>177</ele>
        <time>2016-07-30T08:32:36.029Z</time>
      </trkpt>
      <trkpt lat="43.13946" lon="5.93868">
        <ele>177</ele>
        <time>2016-07-30T08:32:37.029Z</time>
      </trkpt>
      <trkpt lat="43.13954" lon="5.93864">
        <ele>179</ele>
        <time>2016-07-30T08:32:38.029Z</time>
      </trkpt>
      <trkpt lat="43.13958" lon="5.93856">
        <ele>183</ele>
        <time>2016-07-30T08:32:39.029Z</time>
      </trkpt>
      <trkpt lat="43.1396" lon="5.93847">
        <ele>189</ele>
        <time>2016-07-30T08:32:40.029Z</time>
      </trkpt>
      <trkpt lat="43.1396" lon="5.93839">
        <ele>183</ele>
        <time>2016-07-30T08:32:41.029Z</time>
      </trkpt>
      <trkpt lat="43.13956" lon="5.93834">
        <ele>173</ele>
        <time>2016-07-30T08:32:42.029Z</time>
      </trkpt>
      <trkpt lat="43.13949" lon="5.93832">
        <ele>166</ele>
        <time>2016-07-30T08:32:43.029Z</time>
      </trkpt>
      <trkpt lat="43.13938" lon="5.93831">
        <ele>159</ele>
        <time>2016-07-30T08:32:44.029Z</time>
      </trkpt>
      <trkpt lat="43.13928" lon="5.93829">
        <ele>151</ele>
        <time>2016-07-30T08:32:45.029Z</time>
      </trkpt>
      <trkpt lat="43.13917" lon="5.93828">
        <ele>143</ele>
        <time>2016-07-30T08:32:46.029Z</time>
      </trkpt>
      <trkpt lat="43.13907" lon="5.93824">
        <ele>139</ele>
        <time>2016-07-30T08:32:47.029Z</time>
      </trkpt>
      <trkpt lat="43.13897" lon="5.93819">
        <ele>136</ele>
        <time>2016-07-30T08:32:48.029Z</time>
      </trkpt>
      <trkpt lat="43.13888" lon="5.93813">
        <ele>135</ele>
        <time>2016-07-30T08:32:49.029Z</time>
      </trkpt>
      <trkpt lat="43.13879" lon="5.93806">
        <ele>133</ele>
        <time>2016-07-30T08:32:50.029Z</time>
      </trkpt>
      <trkpt lat="43.1387" lon="5.93798">
        <ele>132</ele>
        <time>2016-07-30T08:32:51.029Z</time>
      </trkpt>
      <trkpt lat="43.13861" lon="5.93789">
        <ele>132</ele>
        <time>2016-07-30T08:32:52.029Z</time>
      </trkpt>
      <trkpt lat="43.13851" lon="5.9378">
        <ele>130</ele>
        <time>2016-07-30T08:32:53.029Z</time>
      </trkpt>
      <trkpt lat="43.13842" lon="5.93771">
        <ele>130</ele>
        <time>2016-07-30T08:32:54.029Z</time>
      </trkpt>
      <trkpt lat="43.13832" lon="5.93764">
        <ele>130</ele>
        <time>2016-07-30T08:32:55.029Z</time>
      </trkpt>
      <trkpt lat="43.13821" lon="5.93757">
        <ele>129</ele>
        <time>2016-07-30T08:32:56.029Z</time>
      </trkpt>
      <trkpt lat="43.13812" lon="5.93752">
        <ele>126</ele>
        <time>2016-07-30T08:32:57.029Z</time>
      </trkpt>
      <trkpt lat="43.13803" lon="5.93747">
        <ele>126</ele>
        <time>2016-07-30T08:32:58.029Z</time>
      </trkpt>
      <trkpt lat="43.13794" lon="5.93743">
        <ele>124</ele>
        <time>2016-07-30T08:32:59.029Z</time>
      </trkpt>
      <trkpt lat="43.13787" lon="5.9374">
        <ele>125</ele>
        <time>2016-07-30T08:33:00.029Z</time>
      </trkpt>
      <trkpt lat="43.13781" lon="5.93736">
        <ele>126</ele>
        <time>2016-07-30T08:33:01.029Z</time>
      </trkpt>
      <trkpt lat="43.13776" lon="5.93732">
        <ele>127</ele>
        <time>2016-07-30T08:33:02.029Z</time>
      </trkpt>
      <trkpt lat="43.13772" lon="5.93728">
        <ele>127</ele>
        <time>2016-07-30T08:33:03.029Z</time>
      </trkpt>
      <trkpt lat="43.13769" lon="5.93724">
        <ele>126</ele>
        <time>2016-07-30T08:33:04.029Z</time>
      </trkpt>
      <trkpt lat="43.13766" lon="5.93721">
        <ele>127</ele>
        <time>2016-07-30T08:33:05.029Z</time>
      </trkpt>
      <trkpt lat="43.13764" lon="5.93721">
        <ele>130</ele>
        <time>2016-07-30T08:33:06.029Z</time>
      </trkpt>
      <trkpt lat="43.1376" lon="5.93724">
        <ele>140</ele>
        <time>2016-07-30T08:33:07.029Z</time>
      </trkpt>
      <trkpt lat="43.13757" lon="5.93727">
        <ele>142</ele>
        <time>2016-07-30T08:33:08.029Z</time>
      </trkpt>
      <trkpt lat="43.13754" lon="5.93732">
        <ele>146</ele>
        <time>2016-07-30T08:33:09.029Z</time>
      </trkpt>
      <trkpt lat="43.13753" lon="5.93737">
        <ele>147</ele>
        <time>2016-07-30T08:33:10.029Z</time>
      </trkpt>
      <trkpt lat="43.13753" lon="5.93741">
        <ele>144</ele>
        <time>2016-07-30T08:33:11.029Z</time>
      </trkpt>
      <trkpt lat="43.13756" lon="5.93745">
        <ele>143</ele>
        <time>2016-07-30T08:33:12.029Z</time>
      </trkpt>
      <trkpt lat="43.1376" lon="5.93749">
        <ele>143</ele>
        <time>2016-07-30T08:33:13.029Z</time>
      </trkpt>
      <trkpt lat="43.13764" lon="5.93753">
        <ele>142</ele>
        <time>2016-07-30T08:33:14.029Z</time>
      </trkpt>
      <trkpt lat="43.13769" lon="5.93757">
        <ele>141</ele>
        <time>2016-07-30T08:33:15.029Z</time>
      </trkpt>
      <trkpt lat="43.13775" lon="5.93762">
        <ele>139</ele>
        <time>2016-07-30T08:33:16.029Z</time>
      </trkpt>
      <trkpt lat="43.13779" lon="5.93771">
        <ele>137</ele>
        <time>2016-07-30T08:33:17.029Z</time>
      </trkpt>
      <trkpt lat="43.13782" lon="5.93782">
        <ele>134</ele>
        <time>2016-07-30T08:33:18.029Z</time>
      </trkpt>
      <trkpt lat="43.13785" lon="5.93795">
        <ele>133</ele>
        <time>2016-07-30T08:33:19.029Z</time>
      </trkpt>
      <trkpt lat="43.13785" lon="5.93806">
        <ele>131</ele>
        <time>2016-07-30T08:33:20.029Z</time>
      </trkpt>
      <trkpt lat="43.13784" lon="5.93816">
        <ele>129</ele>
        <time>2016-07-30T08:33:21.029Z</time>
      </trkpt>
      <trkpt lat="43.13782" lon="5.93827">
        <ele>127</ele>
        <time>2016-07-30T08:33:22.029Z</time>
      </trkpt>
      <trkpt lat="43.13779" lon="5.93836">
        <ele>128</ele>
        <time>2016-07-30T08:33:23.029Z</time>
      </trkpt>
      <trkpt lat="43.13775" lon="5.93843">
        <ele>126</ele>
        <time>2016-07-30T08:33:24.029Z</time>
      </trkpt>
      <trkpt lat="43.13769" lon="5.93847">
        <ele>126</ele>
        <time>2016-07-30T08:33:25.029Z</time>
      </trkpt>
      <trkpt lat="43.13762" lon="5.9385">
        <ele>124</ele>
        <time>2016-07-30T08:33:26.029Z</time>
      </trkpt>
      <trkpt lat="43.13754" lon="5.93854">
        <ele>124</ele>
        <time>2016-07-30T08:33:27.029Z</time>
      </trkpt>
      <trkpt lat="43.13747" lon="5.93857">
        <ele>123</ele>
        <time>2016-07-30T08:33:28.029Z</time>
      </trkpt>
      <trkpt lat="43.1374" lon="5.9386">
        <ele>123</ele>
        <time>2016-07-30T08:33:29.029Z</time>
      </trkpt>
      <trkpt lat="43.13732" lon="5.93862">
        <ele>124</ele>
        <time>2016-07-30T08:33:30.029Z</time>
      </trkpt>
      <trkpt lat="43.13724" lon="5.93864">
        <ele>125</ele>
        <time>2016-07-30T08:33:31.029Z</time>
      </trkpt>
      <trkpt lat="43.13715" lon="5.93865">
        <ele>125</ele>
        <time>2016-07-30T08:33:32.029Z</time>
      </trkpt>
      <trkpt lat="43.13708" lon="5.93867">
        <ele>124</ele>
        <time>2016-07-30T08:33:33.029Z</time>
      </trkpt>
      <trkpt lat="43.137" lon="5.93869">
        <ele>125</ele>
        <time>2016-07-30T08:33:34.029Z</time>
      </trkpt>
      <trkpt lat="43.13692" lon="5.93871">
        <ele>125</ele>
        <time>2016-07-30T08:33:35.029Z</time>
      </trkpt>
      <trkpt lat="43.13684" lon="5.93873">
        <ele>126</ele>
        <time>2016-07-30T08:33:36.029Z</time>
      </trkpt>
      <trkpt lat="43.13677" lon="5.93875">
        <ele>126</ele>
        <time>2016-07-30T08:33:37.029Z</time>
      </trkpt>
      <trkpt lat="43.13669" lon="5.93877">
        <ele>126</ele>
        <time>2016-07-30T08:33:38.029Z</time>
      </trkpt>
      <trkpt lat="43.13662" lon="5.9388">
        <ele>125</ele>
        <time>2016-07-30T08:33:39.029Z</time>
      </trkpt>
      <trkpt lat="43.13656" lon="5.93885">
        <ele>124</ele>
        <time>2016-07-30T08:33:40.029Z</time>
      </trkpt>
      <trkpt lat="43.1365" lon="5.93891">
        <ele>122</ele>
        <time>2016-07-30T08:33:41.029Z</time>
      </trkpt>
      <trkpt lat="43.13644" lon="5.93897">
        <ele>121</ele>
        <time>2016-07-30T08:33:42.029Z</time>
      </trkpt>
      <trkpt lat="43.1364" lon="5.93905">
        <ele>122</ele>
        <time>2016-07-30T08:33:43.029Z</time>
      </trkpt>
      <trkpt lat="43.13636" lon="5.93914">
        <ele>122</ele>
        <time>2016-07-30T08:33:44.029Z</time>
      </trkpt>
      <trkpt lat="43.13633" lon="5.93923">
        <ele>122</ele>
        <time>2016-07-30T08:33:45.029Z</time>
      </trkpt>
      <trkpt lat="43.1363" lon="5.93932">
        <ele>122</ele>
        <time>2016-07-30T08:33:46.029Z</time>
      </trkpt>
      <trkpt lat="43.13629" lon="5.93943">
        <ele>122</ele>
        <time>2016-07-30T08:33:47.029Z</time>
      </trkpt>
      <trkpt lat="43.13628" lon="5.93954">
        <ele>122</ele>
        <time>2016-07-30T08:33:48.029Z</time>
      </trkpt>
      <trkpt lat="43.13628" lon="5.93966">
        <ele>123</ele>
        <time>2016-07-30T08:33:49.029Z</time>
      </trkpt>
      <trkpt lat="43.13628" lon="5.93978">
        <ele>123</ele>
        <time>2016-07-30T08:33:50.029Z</time>
      </trkpt>
      <trkpt lat="43.13629" lon="5.9399">
        <ele>124</ele>
        <time>2016-07-30T08:33:51.029Z</time>
      </trkpt>
      <trkpt lat="43.13631" lon="5.94002">
        <ele>124</ele>
        <time>2016-07-30T08:33:52.029Z</time>
      </trkpt>
      <trkpt lat="43.13633" lon="5.94013">
        <ele>123</ele>
        <time>2016-07-30T08:33:53.029Z</time>
      </trkpt>
      <trkpt lat="43.13636" lon="5.94025">
        <ele>123</ele>
        <time>2016-07-30T08:33:54.029Z</time>
      </trkpt>
      <trkpt lat="43.13641" lon="5.94035">
        <ele>121</ele>
        <time>2016-07-30T08:33:55.029Z</time>
      </trkpt>
      <trkpt lat="43.13645" lon="5.94044">
        <ele>121</ele>
        <time>2016-07-30T08:33:56.029Z</time>
      </trkpt>
      <trkpt lat="43.1365" lon="5.9405">
        <ele>121</ele>
        <time>2016-07-30T08:33:57.029Z</time>
      </trkpt>
      <trkpt lat="43.13653" lon="5.94055">
        <ele>124</ele>
        <time>2016-07-30T08:33:58.029Z</time>
      </trkpt>
      <trkpt lat="43.13656" lon="5.94058">
        <ele>126</ele>
        <time>2016-07-30T08:33:59.029Z</time>
      </trkpt>
      <trkpt lat="43.13659" lon="5.94061">
        <ele>128</ele>
        <time>2016-07-30T08:34:00.029Z</time>
      </trkpt>
      <trkpt lat="43.1366" lon="5.94063">
        <ele>130</ele>
        <time>2016-07-30T08:34:01.029Z</time>
      </trkpt>
      <trkpt lat="43.13661" lon="5.94066">
        <ele>130</ele>
        <time>2016-07-30T08:34:02.029Z</time>
      </trkpt>
      <trkpt lat="43.13662" lon="5.9407">
        <ele>131</ele>
        <time>2016-07-30T08:34:03.029Z</time>
      </trkpt>
      <trkpt lat="43.13664" lon="5.94074">
        <ele>132</ele>
        <time>2016-07-30T08:34:04.029Z</time>
      </trkpt>
      <trkpt lat="43.13666" lon="5.94078">
        <ele>133</ele>
        <time>2016-07-30T08:34:05.029Z</time>
      </trkpt>
      <trkpt lat="43.13668" lon="5.94082">
        <ele>133</ele>
        <time>2016-07-30T08:34:06.029Z</time>
      </trkpt>
      <trkpt lat="43.1367" lon="5.94087">
        <ele>134</ele>
        <time>2016-07-30T08:34:07.029Z</time>
      </trkpt>
      <trkpt lat="43.13671" lon="5.94091">
        <ele>134</ele>
        <time>2016-07-30T08:34:08.029Z</time>
      </trkpt>
      <trkpt lat="43.13673" lon="5.94096">
        <ele>136</ele>
        <time>2016-07-30T08:34:09.029Z</time>
      </trkpt>
      <trkpt lat="43.13674" lon="5.941">
        <ele>136</ele>
        <time>2016-07-30T08:34:10.029Z</time>
      </trkpt>
      <trkpt lat="43.13675" lon="5.94105">
        <ele>136</ele>
        <time>2016-07-30T08:34:11.029Z</time>
      </trkpt>
      <trkpt lat="43.13676" lon="5.9411">
        <ele>137</ele>
        <time>2016-07-30T08:34:12.029Z</time>
      </trkpt>
      <trkpt lat="43.13678" lon="5.94115">
        <ele>136</ele>
        <time>2016-07-30T08:34:13.029Z</time>
      </trkpt>
      <trkpt lat="43.13679" lon="5.9412">
        <ele>136</ele>
        <time>2016-07-30T08:34:14.029Z</time>
      </trkpt>
      <trkpt lat="43.13681" lon="5.94124">
        <ele>135</ele>
        <time>2016-07-30T08:34:15.029Z</time>
      </trkpt>
      <trkpt lat="43.13682" lon="5.94129">
        <ele>135</ele>
        <time>2016-07-30T08:34:16.029Z</time>
      </trkpt>
      <trkpt lat="43.13682" lon="5.94133">
        <ele>136</ele>
        <time>2016-07-30T08:34:17.029Z</time>
      </trkpt>
      <trkpt lat="43.13681" lon="5.94136">
        <ele>135</ele>
        <time>2016-07-30T08:34:18.029Z</time>
      </trkpt>
      <trkpt lat="43.1368" lon="5.94138">
        <ele>135</ele>
        <time>2016-07-30T08:34:19.029Z</time>
      </trkpt>
      <trkpt lat="43.13679" lon="5.94139">
        <ele>135</ele>
        <time>2016-07-30T08:34:20.029Z</time>
      </trkpt>
      <trkpt lat="43.13678" lon="5.9414">
        <ele>134</ele>
        <time>2016-07-30T08:34:21.029Z</time>
      </trkpt>
      <trkpt lat="43.13677" lon="5.94141">
        <ele>134</ele>
        <time>2016-07-30T08:34:22.029Z</time>
      </trkpt>
      <trkpt lat="43.13676" lon="5.94141">
        <ele>133</ele>
        <time>2016-07-30T08:34:23.029Z</time>
      </trkpt>
      <trkpt lat="43.13673" lon="5.9414">
        <ele>135</ele>
        <time>2016-07-30T08:34:24.029Z</time>
      </trkpt>
      <trkpt lat="43.13669" lon="5.9414">
        <ele>136</ele>
        <time>2016-07-30T08:34:25.029Z</time>
      </trkpt>
      <trkpt lat="43.13664" lon="5.9414">
        <ele>136</ele>
        <time>2016-07-30T08:34:26.029Z</time>
      </trkpt>
      <trkpt lat="43.13661" lon="5.94138">
        <ele>137</ele>
        <time>2016-07-30T08:34:27.029Z</time>
      </trkpt>
      <trkpt lat="43.13657" lon="5.94137">
        <ele>138</ele>
        <time>2016-07-30T08:34:28.029Z</time>
      </trkpt>
      <trkpt lat="43.13652" lon="5.94136">
        <ele>139</ele>
        <time>2016-07-30T08:34:29.029Z</time>
      </trkpt>
      <trkpt lat="43.13646" lon="5.94135">
        <ele>140</ele>
        <time>2016-07-30T08:34:30.029Z</time>
      </trkpt>
      <trkpt lat="43.1364" lon="5.94135">
        <ele>140</ele>
        <time>2016-07-30T08:34:31.029Z</time>
      </trkpt>
      <trkpt lat="43.13634" lon="5.94135">
        <ele>139</ele>
        <time>2016-07-30T08:34:32.029Z</time>
      </trkpt>
      <trkpt lat="43.13628" lon="5.94135">
        <ele>135</ele>
        <time>2016-07-30T08:34:33.029Z</time>
      </trkpt>
      <trkpt lat="43.13621" lon="5.94136">
        <ele>133</ele>
        <time>2016-07-30T08:34:34.029Z</time>
      </trkpt>
      <trkpt lat="43.13615" lon="5.94137">
        <ele>132</ele>
        <time>2016-07-30T08:34:35.029Z</time>
      </trkpt>
      <trkpt lat="43.1361" lon="5.94139">
        <ele>131</ele>
        <time>2016-07-30T08:34:36.029Z</time>
      </trkpt>
      <trkpt lat="43.13605" lon="5.94141">
        <ele>130</ele>
        <time>2016-07-30T08:34:37.029Z</time>
      </trkpt>
      <trkpt lat="43.13601" lon="5.94143">
        <ele>129</ele>
        <time>2016-07-30T08:34:38.029Z</time>
      </trkpt>
      <trkpt lat="43.13597" lon="5.94146">
        <ele>128</ele>
        <time>2016-07-30T08:34:39.029Z</time>
      </trkpt>
      <trkpt lat="43.13593" lon="5.9415">
        <ele>128</ele>
        <time>2016-07-30T08:34:40.029Z</time>
      </trkpt>
      <trkpt lat="43.1359" lon="5.94154">
        <ele>127</ele>
        <time>2016-07-30T08:34:41.029Z</time>
      </trkpt>
      <trkpt lat="43.13586" lon="5.94158">
        <ele>126</ele>
        <time>2016-07-30T08:34:42.029Z</time>
      </trkpt>
      <trkpt lat="43.13583" lon="5.94162">
        <ele>125</ele>
        <time>2016-07-30T08:34:43.029Z</time>
      </trkpt>
      <trkpt lat="43.1358" lon="5.94166">
        <ele>124</ele>
        <time>2016-07-30T08:34:44.029Z</time>
      </trkpt>
      <trkpt lat="43.13577" lon="5.94171">
        <ele>124</ele>
        <time>2016-07-30T08:34:45.029Z</time>
      </trkpt>
      <trkpt lat="43.13574" lon="5.94175">
        <ele>123</ele>
        <time>2016-07-30T08:34:46.029Z</time>
      </trkpt>
      <trkpt lat="43.1357" lon="5.9418">
        <ele>123</ele>
        <time>2016-07-30T08:34:47.029Z</time>
      </trkpt>
      <trkpt lat="43.13567" lon="5.94184">
        <ele>122</ele>
        <time>2016-07-30T08:34:48.029Z</time>
      </trkpt>
      <trkpt lat="43.13564" lon="5.94188">
        <ele>122</ele>
        <time>2016-07-30T08:34:49.029Z</time>
      </trkpt>
      <trkpt lat="43.13561" lon="5.94192">
        <ele>121</ele>
        <time>2016-07-30T08:34:50.029Z</time>
      </trkpt>
      <trkpt lat="43.13557" lon="5.94197">
        <ele>121</ele>
        <time>2016-07-30T08:34:51.029Z</time>
      </trkpt>
      <trkpt lat="43.13554" lon="5.94201">
        <ele>121</ele>
        <time>2016-07-30T08:34:52.029Z</time>
      </trkpt>
      <trkpt lat="43.1355" lon="5.94206">
        <ele>124</ele>
        <time>2016-07-30T08:34:53.029Z</time>
      </trkpt>
      <trkpt lat="43.13546" lon="5.94212">
        <ele>125</ele>
        <time>2016-07-30T08:34:54.029Z</time>
      </trkpt>
      <trkpt lat="43.13542" lon="5.94217">
        <ele>125</ele>
        <time>2016-07-30T08:34:55.029Z</time>
      </trkpt>
      <trkpt lat="43.13538" lon="5.94223">
        <ele>126</ele>
        <time>2016-07-30T08:34:56.029Z</time>
      </trkpt>
      <trkpt lat="43.13534" lon="5.94228">
        <ele>126</ele>
        <time>2016-07-30T08:34:57.029Z</time>
      </trkpt>
      <trkpt lat="43.1353" lon="5.94234">
        <ele>126</ele>
        <time>2016-07-30T08:34:58.029Z</time>
      </trkpt>
      <trkpt lat="43.13526" lon="5.9424">
        <ele>127</ele>
        <time>2016-07-30T08:34:59.029Z</time>
      </trkpt>
      <trkpt lat="43.13523" lon="5.94247">
        <ele>128</ele>
        <time>2016-07-30T08:35:00.029Z</time>
      </trkpt>
      <trkpt lat="43.13521" lon="5.94254">
        <ele>128</ele>
        <time>2016-07-30T08:35:01.029Z</time>
      </trkpt>
      <trkpt lat="43.13518" lon="5.94262">
        <ele>128</ele>
        <time>2016-07-30T08:35:02.029Z</time>
      </trkpt>
      <trkpt lat="43.13515" lon="5.94269">
        <ele>128</ele>
        <time>2016-07-30T08:35:03.029Z</time>
      </trkpt>
      <trkpt lat="43.13513" lon="5.94277">
        <ele>128</ele>
        <time>2016-07-30T08:35:04.029Z</time>
      </trkpt>
      <trkpt lat="43.1351" lon="5.94284">
        <ele>128</ele>
        <time>2016-07-30T08:35:05.029Z</time>
      </trkpt>
      <trkpt lat="43.13507" lon="5.94291">
        <ele>128</ele>
        <time>2016-07-30T08:35:06.029Z</time>
      </trkpt>
      <trkpt lat="43.13504" lon="5.94299">
        <ele>129</ele>
        <time>2016-07-30T08:35:07.029Z</time>
      </trkpt>
      <trkpt lat="43.13502" lon="5.94306">
        <ele>129</ele>
        <time>2016-07-30T08:35:08.029Z</time>
      </trkpt>
      <trkpt lat="43.13499" lon="5.94314">
        <ele>129</ele>
        <time>2016-07-30T08:35:09.029Z</time>
      </trkpt>
      <trkpt lat="43.13496" lon="5.94321">
        <ele>129</ele>
        <time>2016-07-30T08:35:10.029Z</time>
      </trkpt>
      <trkpt lat="43.13493" lon="5.94329">
        <ele>130</ele>
        <time>2016-07-30T08:35:11.029Z</time>
      </trkpt>
      <trkpt lat="43.13491" lon="5.94337">
        <ele>130</ele>
        <time>2016-07-30T08:35:12.029Z</time>
      </trkpt>
      <trkpt lat="43.13488" lon="5.94344">
        <ele>130</ele>
        <time>2016-07-30T08:35:13.029Z</time>
      </trkpt>
      <trkpt lat="43.13486" lon="5.94352">
        <ele>130</ele>
        <time>2016-07-30T08:35:14.029Z</time>
      </trkpt>
      <trkpt lat="43.13484" lon="5.9436">
        <ele>130</ele>
        <time>2016-07-30T08:35:15.029Z</time>
      </trkpt>
      <trkpt lat="43.13482" lon="5.94368">
        <ele>130</ele>
        <time>2016-07-30T08:35:16.029Z</time>
      </trkpt>
      <trkpt lat="43.1348" lon="5.94376">
        <ele>130</ele>
        <time>2016-07-30T08:35:17.029Z</time>
      </trkpt>
      <trkpt lat="43.13479" lon="5.94384">
        <ele>131</ele>
        <time>2016-07-30T08:35:18.029Z</time>
      </trkpt>
      <trkpt lat="43.13478" lon="5.94393">
        <ele>131</ele>
        <time>2016-07-30T08:35:19.029Z</time>
      </trkpt>
      <trkpt lat="43.13476" lon="5.94401">
        <ele>131</ele>
        <time>2016-07-30T08:35:20.029Z</time>
      </trkpt>
      <trkpt lat="43.13475" lon="5.94409">
        <ele>131</ele>
        <time>2016-07-30T08:35:21.029Z</time>
      </trkpt>
      <trkpt lat="43.13473" lon="5.94417">
        <ele>131</ele>
        <time>2016-07-30T08:35:22.029Z</time>
      </trkpt>
      <trkpt lat="43.13472" lon="5.94425">
        <ele>131</ele>
        <time>2016-07-30T08:35:23.029Z</time>
      </trkpt>
      <trkpt lat="43.1347" lon="5.94433">
        <ele>131</ele>
        <time>2016-07-30T08:35:24.029Z</time>
      </trkpt>
      <trkpt lat="43.13469" lon="5.9444">
        <ele>131</ele>
        <time>2016-07-30T08:35:25.029Z</time>
      </trkpt>
      <trkpt lat="43.13467" lon="5.94448">
        <ele>131</ele>
        <time>2016-07-30T08:35:26.029Z</time>
      </trkpt>
      <trkpt lat="43.13466" lon="5.94456">
        <ele>131</ele>
        <time>2016-07-30T08:35:27.029Z</time>
      </trkpt>
      <trkpt lat="43.13464" lon="5.94464">
        <ele>131</ele>
        <time>2016-07-30T08:35:28.029Z</time>
      </trkpt>
      <trkpt lat="43.13463" lon="5.94472">
        <ele>131</ele>
        <time>2016-07-30T08:35:29.029Z</time>
      </trkpt>
      <trkpt lat="43.13461" lon="5.94479">
        <ele>131</ele>
        <time>2016-07-30T08:35:30.029Z</time>
      </trkpt>
      <trkpt lat="43.1346" lon="5.94487">
        <ele>132</ele>
        <time>2016-07-30T08:35:31.029Z</time>
      </trkpt>
      <trkpt lat="43.13458" lon="5.94495">
        <ele>132</ele>
        <time>2016-07-30T08:35:32.029Z</time>
      </trkpt>
      <trkpt lat="43.13457" lon="5.94503">
        <ele>132</ele>
        <time>2016-07-30T08:35:33.029Z</time>
      </trkpt>
      <trkpt lat="43.13456" lon="5.94511">
        <ele>132</ele>
        <time>2016-07-30T08:35:34.029Z</time>
      </trkpt>
      <trkpt lat="43.13454" lon="5.94519">
        <ele>133</ele>
        <time>2016-07-30T08:35:35.029Z</time>
      </trkpt>
      <trkpt lat="43.13453" lon="5.94528">
        <ele>133</ele>
        <time>2016-07-30T08:35:36.029Z</time>
      </trkpt>
      <trkpt lat="43.13452" lon="5.94536">
        <ele>133</ele>
        <time>2016-07-30T08:35:37.029Z</time>
      </trkpt>
      <trkpt lat="43.13451" lon="5.94545">
        <ele>133</ele>
        <time>2016-07-30T08:35:38.029Z</time>
      </trkpt>
      <trkpt lat="43.1345" lon="5.94553">
        <ele>133</ele>
        <time>2016-07-30T08:35:39.029Z</time>
      </trkpt>
      <trkpt lat="43.13449" lon="5.94561">
        <ele>133</ele>
        <time>2016-07-30T08:35:40.029Z</time>
      </trkpt>
      <trkpt lat="43.13448" lon="5.9457">
        <ele>133</ele>
        <time>2016-07-30T08:35:41.029Z</time>
      </trkpt>
      <trkpt lat="43.13447" lon="5.94578">
        <ele>133</ele>
        <time>2016-07-30T08:35:42.029Z</time>
      </trkpt>
      <trkpt lat="43.13446" lon="5.94586">
        <ele>133</ele>
        <time>2016-07-30T08:35:43.029Z</time>
      </trkpt>
      <trkpt lat="43.13445" lon="5.94595">
        <ele>134</ele>
        <time>2016-07-30T08:35:44.029Z</time>
      </trkpt>
      <trkpt lat="43.13443" lon="5.94604">
        <ele>134</ele>
        <time>2016-07-30T08:35:45.029Z</time>
      </trkpt>
      <trkpt lat="43.13442" lon="5.94613">
        <ele>134</ele>
        <time>2016-07-30T08:35:46.029Z</time>
      </trkpt>
      <trkpt lat="43.13441" lon="5.94621">
        <ele>134</ele>
        <time>2016-07-30T08:35:47.029Z</time>
      </trkpt>
      <trkpt lat="43.1344" lon="5.9463">
        <ele>134</ele>
        <time>2016-07-30T08:35:48.029Z</time>
      </trkpt>
      <trkpt lat="43.13439" lon="5.94639">
        <ele>134</ele>
        <time>2016-07-30T08:35:49.029Z</time>
      </trkpt>
      <trkpt lat="43.13437" lon="5.94648">
        <ele>134</ele>
        <time>2016-07-30T08:35:50.029Z</time>
      </trkpt>
      <trkpt lat="43.13436" lon="5.94657">
        <ele>135</ele>
        <time>2016-07-30T08:35:51.029Z</time>
      </trkpt>
      <trkpt lat="43.13434" lon="5.94665">
        <ele>135</ele>
        <time>2016-07-30T08:35:52.029Z</time>
      </trkpt>
      <trkpt lat="43.13433" lon="5.94674">
        <ele>135</ele>
        <time>2016-07-30T08:35:53.029Z</time>
      </trkpt>
      <trkpt lat="43.13431" lon="5.94683">
        <ele>135</ele>
        <time>2016-07-30T08:35:54.029Z</time>
      </trkpt>
      <trkpt lat="43.1343" lon="5.94691">
        <ele>135</ele>
        <time>2016-07-30T08:35:55.029Z</time>
      </trkpt>
      <trkpt lat="43.13429" lon="5.947">
        <ele>136</ele>
        <time>2016-07-30T08:35:56.029Z</time>
      </trkpt>
      <trkpt lat="43.13427" lon="5.94708">
        <ele>136</ele>
        <time>2016-07-30T08:35:57.029Z</time>
      </trkpt>
      <trkpt lat="43.13426" lon="5.94716">
        <ele>136</ele>
        <time>2016-07-30T08:35:58.029Z</time>
      </trkpt>
      <trkpt lat="43.13424" lon="5.94725">
        <ele>136</ele>
        <time>2016-07-30T08:35:59.029Z</time>
      </trkpt>
      <trkpt lat="43.13423" lon="5.94733">
        <ele>136</ele>
        <time>2016-07-30T08:36:00.029Z</time>
      </trkpt>
      <trkpt lat="43.13422" lon="5.94741">
        <ele>136</ele>
        <time>2016-07-30T08:36:01.029Z</time>
      </trkpt>
      <trkpt lat="43.1342" lon="5.9475">
        <ele>136</ele>
        <time>2016-07-30T08:36:02.029Z</time>
      </trkpt>
      <trkpt lat="43.13419" lon="5.94758">
        <ele>136</ele>
        <time>2016-07-30T08:36:03.029Z</time>
      </trkpt>
      <trkpt lat="43.13417" lon="5.94766">
        <ele>136</ele>
        <time>2016-07-30T08:36:04.029Z</time>
      </trkpt>
      <trkpt lat="43.13416" lon="5.94774">
        <ele>137</ele>
        <time>2016-07-30T08:36:05.029Z</time>
      </trkpt>
      <trkpt lat="43.13414" lon="5.94783">
        <ele>137</ele>
        <time>2016-07-30T08:36:06.029Z</time>
      </trkpt>
      <trkpt lat="43.13413" lon="5.94791">
        <ele>137</ele>
        <time>2016-07-30T08:36:07.029Z</time>
      </trkpt>
      <trkpt lat="43.13411" lon="5.94799">
        <ele>137</ele>
        <time>2016-07-30T08:36:08.029Z</time>
      </trkpt>
      <trkpt lat="43.1341" lon="5.94807">
        <ele>137</ele>
        <time>2016-07-30T08:36:09.029Z</time>
      </trkpt>
      <trkpt lat="43.13408" lon="5.94814">
        <ele>138</ele>
        <time>2016-07-30T08:36:10.029Z</time>
      </trkpt>
      <trkpt lat="43.13407" lon="5.94822">
        <ele>138</ele>
        <time>2016-07-30T08:36:11.029Z</time>
      </trkpt>
      <trkpt lat="43.13406" lon="5.9483">
        <ele>137</ele>
        <time>2016-07-30T08:36:12.029Z</time>
      </trkpt>
      <trkpt lat="43.13404" lon="5.94838">
        <ele>138</ele>
        <time>2016-07-30T08:36:13.029Z</time>
      </trkpt>
      <trkpt lat="43.13403" lon="5.94846">
        <ele>139</ele>
        <time>2016-07-30T08:36:14.029Z</time>
      </trkpt>
      <trkpt lat="43.13401" lon="5.94853">
        <ele>139</ele>
        <time>2016-07-30T08:36:15.029Z</time>
      </trkpt>
      <trkpt lat="43.13398" lon="5.9486">
        <ele>137</ele>
        <time>2016-07-30T08:36:16.029Z</time>
      </trkpt>
      <trkpt lat="43.13393" lon="5.94867">
        <ele>136</ele>
        <time>2016-07-30T08:36:17.029Z</time>
      </trkpt>
      <trkpt lat="43.13388" lon="5.94872">
        <ele>135</ele>
        <time>2016-07-30T08:36:18.029Z</time>
      </trkpt>
      <trkpt lat="43.13382" lon="5.94877">
        <ele>135</ele>
        <time>2016-07-30T08:36:19.029Z</time>
      </trkpt>
      <trkpt lat="43.13377" lon="5.94883">
        <ele>134</ele>
        <time>2016-07-30T08:36:20.029Z</time>
      </trkpt>
      <trkpt lat="43.13372" lon="5.94888">
        <ele>133</ele>
        <time>2016-07-30T08:36:21.029Z</time>
      </trkpt>
      <trkpt lat="43.13366" lon="5.94893">
        <ele>132</ele>
        <time>2016-07-30T08:36:22.029Z</time>
      </trkpt>
      <trkpt lat="43.1336" lon="5.94898">
        <ele>133</ele>
        <time>2016-07-30T08:36:23.029Z</time>
      </trkpt>
      <trkpt lat="43.13353" lon="5.94903">
        <ele>131</ele>
        <time>2016-07-30T08:36:24.029Z</time>
      </trkpt>
      <trkpt lat="43.13346" lon="5.94909">
        <ele>131</ele>
        <time>2016-07-30T08:36:25.029Z</time>
      </trkpt>
      <trkpt lat="43.13339" lon="5.94917">
        <ele>131</ele>
        <time>2016-07-30T08:36:26.029Z</time>
      </trkpt>
      <trkpt lat="43.13333" lon="5.94925">
        <ele>130</ele>
        <time>2016-07-30T08:36:27.029Z</time>
      </trkpt>
      <trkpt lat="43.13326" lon="5.94936">
        <ele>131</ele>
        <time>2016-07-30T08:36:28.029Z</time>
      </trkpt>
      <trkpt lat="43.13321" lon="5.94947">
        <ele>129</ele>
        <time>2016-07-30T08:36:29.029Z</time>
      </trkpt>
      <trkpt lat="43.13316" lon="5.94961">
        <ele>128</ele>
        <time>2016-07-30T08:36:30.029Z</time>
      </trkpt>
      <trkpt lat="43.13311" lon="5.94974">
        <ele>127</ele>
        <time>2016-07-30T08:36:31.029Z</time>
      </trkpt>
      <trkpt lat="43.13307" lon="5.94989">
        <ele>125</ele>
        <time>2016-07-30T08:36:32.029Z</time>
      </trkpt>
      <trkpt lat="43.13303" lon="5.95004">
        <ele>124</ele>
        <time>2016-07-30T08:36:33.029Z</time>
      </trkpt>
      <trkpt lat="43.13299" lon="5.95019">
        <ele>122</ele>
        <time>2016-07-30T08:36:34.029Z</time>
      </trkpt>
      <trkpt lat="43.13294" lon="5.95034">
        <ele>120</ele>
        <time>2016-07-30T08:36:35.029Z</time>
      </trkpt>
      <trkpt lat="43.1329" lon="5.95048">
        <ele>119</ele>
        <time>2016-07-30T08:36:36.029Z</time>
      </trkpt>
      <trkpt lat="43.13286" lon="5.95061">
        <ele>117</ele>
        <time>2016-07-30T08:36:37.029Z</time>
      </trkpt>
      <trkpt lat="43.13282" lon="5.95072">
        <ele>117</ele>
        <time>2016-07-30T08:36:38.029Z</time>
      </trkpt>
      <trkpt lat="43.13279" lon="5.95082">
        <ele>116</ele>
        <time>2016-07-30T08:36:39.029Z</time>
      </trkpt>
      <trkpt lat="43.13276" lon="5.95091">
        <ele>115</ele>
        <time>2016-07-30T08:36:40.029Z</time>
      </trkpt>
      <trkpt lat="43.13272" lon="5.951">
        <ele>114</ele>
        <time>2016-07-30T08:36:41.029Z</time>
      </trkpt>
      <trkpt lat="43.13269" lon="5.95109">
        <ele>113</ele>
        <time>2016-07-30T08:36:42.029Z</time>
      </trkpt>
      <trkpt lat="43.13265" lon="5.95118">
        <ele>113</ele>
        <time>2016-07-30T08:36:43.029Z</time>
      </trkpt>
      <trkpt lat="43.13262" lon="5.95127">
        <ele>112</ele>
        <time>2016-07-30T08:36:44.029Z</time>
      </trkpt>
      <trkpt lat="43.13258" lon="5.95135">
        <ele>111</ele>
        <time>2016-07-30T08:36:45.029Z</time>
      </trkpt>
      <trkpt lat="43.13255" lon="5.95143">
        <ele>111</ele>
        <time>2016-07-30T08:36:46.029Z</time>
      </trkpt>
      <trkpt lat="43.13251" lon="5.95151">
        <ele>110</ele>
        <time>2016-07-30T08:36:47.029Z</time>
      </trkpt>
      <trkpt lat="43.13249" lon="5.95159">
        <ele>109</ele>
        <time>2016-07-30T08:36:48.029Z</time>
      </trkpt>
      <trkpt lat="43.13247" lon="5.95169">
        <ele>109</ele>
        <time>2016-07-30T08:36:49.029Z</time>
      </trkpt>
      <trkpt lat="43.13246" lon="5.95179">
        <ele>109</ele>
        <time>2016-07-30T08:36:50.029Z</time>
      </trkpt>
      <trkpt lat="43.13246" lon="5.95189">
        <ele>110</ele>
        <time>2016-07-30T08:36:51.029Z</time>
      </trkpt>
      <trkpt lat="43.13248" lon="5.952">
        <ele>111</ele>
        <time>2016-07-30T08:36:52.029Z</time>
      </trkpt>
      <trkpt lat="43.13252" lon="5.95211">
        <ele>113</ele>
        <time>2016-07-30T08:36:53.029Z</time>
      </trkpt>
      <trkpt lat="43.13256" lon="5.95222">
        <ele>114</ele>
        <time>2016-07-30T08:36:54.029Z</time>
      </trkpt>
      <trkpt lat="43.13261" lon="5.95231">
        <ele>113</ele>
        <time>2016-07-30T08:36:55.029Z</time>
      </trkpt>
      <trkpt lat="43.13266" lon="5.9524">
        <ele>113</ele>
        <time>2016-07-30T08:36:56.029Z</time>
      </trkpt>
      <trkpt lat="43.13272" lon="5.95249">
        <ele>113</ele>
        <time>2016-07-30T08:36:57.029Z</time>
      </trkpt>
      <trkpt lat="43.13278" lon="5.95257">
        <ele>113</ele>
        <time>2016-07-30T08:36:58.029Z</time>
      </trkpt>
      <trkpt lat="43.13283" lon="5.95264">
        <ele>113</ele>
        <time>2016-07-30T08:36:59.029Z</time>
      </trkpt>
      <trkpt lat="43.13289" lon="5.95272">
        <ele>113</ele>
        <time>2016-07-30T08:37:00.029Z</time>
      </trkpt>
      <trkpt lat="43.13294" lon="5.9528">
        <ele>112</ele>
        <time>2016-07-30T08:37:01.029Z</time>
      </trkpt>
      <trkpt lat="43.13299" lon="5.95289">
        <ele>112</ele>
        <time>2016-07-30T08:37:02.029Z</time>
      </trkpt>
      <trkpt lat="43.13303" lon="5.95299">
        <ele>112</ele>
        <time>2016-07-30T08:37:03.029Z</time>
      </trkpt>
      <trkpt lat="43.13307" lon="5.95309">
        <ele>112</ele>
        <time>2016-07-30T08:37:04.029Z</time>
      </trkpt>
      <trkpt lat="43.13311" lon="5.95319">
        <ele>111</ele>
        <time>2016-07-30T08:37:05.029Z</time>
      </trkpt>
      <trkpt lat="43.13315" lon="5.95329">
        <ele>111</ele>
        <time>2016-07-30T08:37:06.029Z</time>
      </trkpt>
      <trkpt lat="43.13319" lon="5.95339">
        <ele>111</ele>
        <time>2016-07-30T08:37:07.029Z</time>
      </trkpt>
      <trkpt lat="43.13324" lon="5.95349">
        <ele>110</ele>
        <time>2016-07-30T08:37:08.029Z</time>
      </trkpt>
      <trkpt lat="43.13328" lon="5.95358">
        <ele>111</ele>
        <time>2016-07-30T08:37:09.029Z</time>
      </trkpt>
      <trkpt lat="43.13333" lon="5.95368">
        <ele>111</ele>
        <time>2016-07-30T08:37:10.029Z</time>
      </trkpt>
      <trkpt lat="43.13336" lon="5.95378">
        <ele>111</ele>
        <time>2016-07-30T08:37:11.029Z</time>
      </trkpt>
      <trkpt lat="43.13338" lon="5.95389">
        <ele>113</ele>
        <time>2016-07-30T08:37:12.029Z</time>
      </trkpt>
      <trkpt lat="43.13338" lon="5.954">
        <ele>113</ele>
        <time>2016-07-30T08:37:13.029Z</time>
      </trkpt>
      <trkpt lat="43.13337" lon="5.9541">
        <ele>113</ele>
        <time>2016-07-30T08:37:14.029Z</time>
      </trkpt>
      <trkpt lat="43.13336" lon="5.9542">
        <ele>111</ele>
        <time>2016-07-30T08:37:15.029Z</time>
      </trkpt>
      <trkpt lat="43.13333" lon="5.95428">
        <ele>111</ele>
        <time>2016-07-30T08:37:16.029Z</time>
      </trkpt>
      <trkpt lat="43.13328" lon="5.95435">
        <ele>111</ele>
        <time>2016-07-30T08:37:17.029Z</time>
      </trkpt>
      <trkpt lat="43.13323" lon="5.9544">
        <ele>110</ele>
        <time>2016-07-30T08:37:18.029Z</time>
      </trkpt>
      <trkpt lat="43.13317" lon="5.95445">
        <ele>109</ele>
        <time>2016-07-30T08:37:19.029Z</time>
      </trkpt>
      <trkpt lat="43.1331" lon="5.95448">
        <ele>109</ele>
        <time>2016-07-30T08:37:20.029Z</time>
      </trkpt>
      <trkpt lat="43.13302" lon="5.95452">
        <ele>109</ele>
        <time>2016-07-30T08:37:21.029Z</time>
      </trkpt>
      <trkpt lat="43.13296" lon="5.95456">
        <ele>110</ele>
        <time>2016-07-30T08:37:22.029Z</time>
      </trkpt>
      <trkpt lat="43.1329" lon="5.9546">
        <ele>111</ele>
        <time>2016-07-30T08:37:23.029Z</time>
      </trkpt>
      <trkpt lat="43.13285" lon="5.95465">
        <ele>111</ele>
        <time>2016-07-30T08:37:24.029Z</time>
      </trkpt>
      <trkpt lat="43.13279" lon="5.95469">
        <ele>111</ele>
        <time>2016-07-30T08:37:25.029Z</time>
      </trkpt>
      <trkpt lat="43.13275" lon="5.95474">
        <ele>111</ele>
        <time>2016-07-30T08:37:26.029Z</time>
      </trkpt>
      <trkpt lat="43.1327" lon="5.95477">
        <ele>111</ele>
        <time>2016-07-30T08:37:27.029Z</time>
      </trkpt>
      <trkpt lat="43.13266" lon="5.95481">
        <ele>111</ele>
        <time>2016-07-30T08:37:28.029Z</time>
      </trkpt>
      <trkpt lat="43.13262" lon="5.95485">
        <ele>111</ele>
        <time>2016-07-30T08:37:29.029Z</time>
      </trkpt>
      <trkpt lat="43.13258" lon="5.9549">
        <ele>111</ele>
        <time>2016-07-30T08:37:30.029Z</time>
      </trkpt>
      <trkpt lat="43.13256" lon="5.95495">
        <ele>112</ele>
        <time>2016-07-30T08:37:31.029Z</time>
      </trkpt>
      <trkpt lat="43.13253" lon="5.95501">
        <ele>111</ele>
        <time>2016-07-30T08:37:32.029Z</time>
      </trkpt>
      <trkpt lat="43.13251" lon="5.95507">
        <ele>111</ele>
        <time>2016-07-30T08:37:33.029Z</time>
      </trkpt>
      <trkpt lat="43.1325" lon="5.95513">
        <ele>111</ele>
        <time>2016-07-30T08:37:34.029Z</time>
      </trkpt>
      <trkpt lat="43.13249" lon="5.95519">
        <ele>111</ele>
        <time>2016-07-30T08:37:35.029Z</time>
      </trkpt>
      <trkpt lat="43.13249" lon="5.95525">
        <ele>112</ele>
        <time>2016-07-30T08:37:36.029Z</time>
      </trkpt>
      <trkpt lat="43.13249" lon="5.95531">
        <ele>113</ele>
        <time>2016-07-30T08:37:37.029Z</time>
      </trkpt>
      <trkpt lat="43.1325" lon="5.95536">
        <ele>113</ele>
        <time>2016-07-30T08:37:38.029Z</time>
      </trkpt>
      <trkpt lat="43.13251" lon="5.95542">
        <ele>114</ele>
        <time>2016-07-30T08:37:39.029Z</time>
      </trkpt>
      <trkpt lat="43.13253" lon="5.95547">
        <ele>114</ele>
        <time>2016-07-30T08:37:40.029Z</time>
      </trkpt>
      <trkpt lat="43.13254" lon="5.95553">
        <ele>115</ele>
        <time>2016-07-30T08:37:41.029Z</time>
      </trkpt>
      <trkpt lat="43.13256" lon="5.95559">
        <ele>115</ele>
        <time>2016-07-30T08:37:42.029Z</time>
      </trkpt>
      <trkpt lat="43.13257" lon="5.95564">
        <ele>116</ele>
        <time>2016-07-30T08:37:43.029Z</time>
      </trkpt>
      <trkpt lat="43.13259" lon="5.9557">
        <ele>117</ele>
        <time>2016-07-30T08:37:44.029Z</time>
      </trkpt>
      <trkpt lat="43.1326" lon="5.95575">
        <ele>117</ele>
        <time>2016-07-30T08:37:45.029Z</time>
      </trkpt>
      <trkpt lat="43.13261" lon="5.95581">
        <ele>118</ele>
        <time>2016-07-30T08:37:46.029Z</time>
      </trkpt>
      <trkpt lat="43.13262" lon="5.95586">
        <ele>118</ele>
        <time>2016-07-30T08:37:47.029Z</time>
      </trkpt>
      <trkpt lat="43.13263" lon="5.95591">
        <ele>119</ele>
        <time>2016-07-30T08:37:48.029Z</time>
      </trkpt>
      <trkpt lat="43.13264" lon="5.95596">
        <ele>119</ele>
        <time>2016-07-30T08:37:49.029Z</time>
      </trkpt>
      <trkpt lat="43.13265" lon="5.95601">
        <ele>120</ele>
        <time>2016-07-30T08:37:50.029Z</time>
      </trkpt>
      <trkpt lat="43.13266" lon="5.95605">
        <ele>121</ele>
        <time>2016-07-30T08:37:51.029Z</time>
      </trkpt>
      <trkpt lat="43.13267" lon="5.95609">
        <ele>121</ele>
        <time>2016-07-30T08:37:52.029Z</time>
      </trkpt>
      <trkpt lat="43.13268" lon="5.95613">
        <ele>122</ele>
        <time>2016-07-30T08:37:53.029Z</time>
      </trkpt>
      <trkpt lat="43.13269" lon="5.95617">
        <ele>122</ele>
        <time>2016-07-30T08:37:54.029Z</time>
      </trkpt>
      <trkpt lat="43.1327" lon="5.95621">
        <ele>123</ele>
        <time>2016-07-30T08:37:55.029Z</time>
      </trkpt>
      <trkpt lat="43.13271" lon="5.95624">
        <ele>123</ele>
        <time>2016-07-30T08:37:56.029Z</time>
      </trkpt>
      <trkpt lat="43.13273" lon="5.95628">
        <ele>124</ele>
        <time>2016-07-30T08:37:57.029Z</time>
      </trkpt>
      <trkpt lat="43.13273" lon="5.95631">
        <ele>124</ele>
        <time>2016-07-30T08:37:58.029Z</time>
      </trkpt>
      <trkpt lat="43.13274" lon="5.95634">
        <ele>125</ele>
        <time>2016-07-30T08:37:59.029Z</time>
      </trkpt>
      <trkpt lat="43.13275" lon="5.95637">
        <ele>125</ele>
        <time>2016-07-30T08:38:00.029Z</time>
      </trkpt>
      <trkpt lat="43.13276" lon="5.9564">
        <ele>126</ele>
        <time>2016-07-30T08:38:01.029Z</time>
      </trkpt>
      <trkpt lat="43.13277" lon="5.95643">
        <ele>126</ele>
        <time>2016-07-30T08:38:02.029Z</time>
      </trkpt>
      <trkpt lat="43.13278" lon="5.95646">
        <ele>126</ele>
        <time>2016-07-30T08:38:03.029Z</time>
      </trkpt>
      <trkpt lat="43.13278" lon="5.95649">
        <ele>127</ele>
        <time>2016-07-30T08:38:04.029Z</time>
      </trkpt>
      <trkpt lat="43.13279" lon="5.95652">
        <ele>127</ele>
        <time>2016-07-30T08:38:05.029Z</time>
      </trkpt>
      <trkpt lat="43.1328" lon="5.95654">
        <ele>127</ele>
        <time>2016-07-30T08:38:06.029Z</time>
      </trkpt>
      <trkpt lat="43.13281" lon="5.95657">
        <ele>127</ele>
        <time>2016-07-30T08:38:07.029Z</time>
      </trkpt>
      <trkpt lat="43.13282" lon="5.95659">
        <ele>128</ele>
        <time>2016-07-30T08:38:08.029Z</time>
      </trkpt>
      <trkpt lat="43.13282" lon="5.95662">
        <ele>128</ele>
        <time>2016-07-30T08:38:09.029Z</time>
      </trkpt>
      <trkpt lat="43.13283" lon="5.95664">
        <ele>128</ele>
        <time>2016-07-30T08:38:10.029Z</time>
      </trkpt>
      <trkpt lat="43.13284" lon="5.95666">
        <ele>128</ele>
        <time>2016-07-30T08:38:11.029Z</time>
      </trkpt>
      <trkpt lat="43.13285" lon="5.95668">
        <ele>129</ele>
        <time>2016-07-30T08:38:12.029Z</time>
      </trkpt>
      <trkpt lat="43.13286" lon="5.9567">
        <ele>129</ele>
        <time>2016-07-30T08:38:13.029Z</time>
      </trkpt>
      <trkpt lat="43.13286" lon="5.95672">
        <ele>129</ele>
        <time>2016-07-30T08:38:14.029Z</time>
      </trkpt>
      <trkpt lat="43.13287" lon="5.95674">
        <ele>130</ele>
        <time>2016-07-30T08:38:15.029Z</time>
      </trkpt>
      <trkpt lat="43.13288" lon="5.95676">
        <ele>130</ele>
        <time>2016-07-30T08:38:16.029Z</time>
      </trkpt>
      <trkpt lat="43.13289" lon="5.95679">
        <ele>130</ele>
        <time>2016-07-30T08:38:17.029Z</time>
      </trkpt>
      <trkpt lat="43.13289" lon="5.95681">
        <ele>131</ele>
        <time>2016-07-30T08:38:18.029Z</time>
      </trkpt>
      <trkpt lat="43.1329" lon="5.95683">
        <ele>131</ele>
        <time>2016-07-30T08:38:19.029Z</time>
      </trkpt>
      <trkpt lat="43.13291" lon="5.95685">
        <ele>131</ele>
        <time>2016-07-30T08:38:20.029Z</time>
      </trkpt>
      <trkpt lat="43.13292" lon="5.95688">
        <ele>131</ele>
        <time>2016-07-30T08:38:21.029Z</time>
      </trkpt>
      <trkpt lat="43.13293" lon="5.9569">
        <ele>132</ele>
        <time>2016-07-30T08:38:22.029Z</time>
      </trkpt>
      <trkpt lat="43.13293" lon="5.95692">
        <ele>132</ele>
        <time>2016-07-30T08:38:23.029Z</time>
      </trkpt>
      <trkpt lat="43.13294" lon="5.95695">
        <ele>132</ele>
        <time>2016-07-30T08:38:24.029Z</time>
      </trkpt>
      <trkpt lat="43.13295" lon="5.95697">
        <ele>133</ele>
        <time>2016-07-30T08:38:25.029Z</time>
      </trkpt>
      <trkpt lat="43.13296" lon="5.95699">
        <ele>133</ele>
        <time>2016-07-30T08:38:26.029Z</time>
      </trkpt>
      <trkpt lat="43.13296" lon="5.95701">
        <ele>133</ele>
        <time>2016-07-30T08:38:27.029Z</time>
      </trkpt>
      <trkpt lat="43.13297" lon="5.95703">
        <ele>133</ele>
        <time>2016-07-30T08:38:28.029Z</time>
      </trkpt>
      <trkpt lat="43.13298" lon="5.95705">
        <ele>133</ele>
        <time>2016-07-30T08:38:29.029Z</time>
      </trkpt>
      <trkpt lat="43.13299" lon="5.95707">
        <ele>134</ele>
        <time>2016-07-30T08:38:30.029Z</time>
      </trkpt>
      <trkpt lat="43.13299" lon="5.95709">
        <ele>134</ele>
        <time>2016-07-30T08:38:31.029Z</time>
      </trkpt>
      <trkpt lat="43.133" lon="5.95711">
        <ele>134</ele>
        <time>2016-07-30T08:38:32.029Z</time>
      </trkpt>
      <trkpt lat="43.13301" lon="5.95713">
        <ele>134</ele>
        <time>2016-07-30T08:38:33.029Z</time>
      </trkpt>
      <trkpt lat="43.13301" lon="5.95715">
        <ele>134</ele>
        <time>2016-07-30T08:38:34.029Z</time>
      </trkpt>
      <trkpt lat="43.13302" lon="5.95717">
        <ele>135</ele>
        <time>2016-07-30T08:38:35.029Z</time>
      </trkpt>
      <trkpt lat="43.13303" lon="5.95719">
        <ele>135</ele>
        <time>2016-07-30T08:38:36.029Z</time>
      </trkpt>
      <trkpt lat="43.13304" lon="5.95721">
        <ele>135</ele>
        <time>2016-07-30T08:38:37.029Z</time>
      </trkpt>
      <trkpt lat="43.13305" lon="5.95723">
        <ele>135</ele>
        <time>2016-07-30T08:38:38.029Z</time>
      </trkpt>
      <trkpt lat="43.13305" lon="5.95725">
        <ele>136</ele>
        <time>2016-07-30T08:38:39.029Z</time>
      </trkpt>
      <trkpt lat="43.13306" lon="5.95726">
        <ele>136</ele>
        <time>2016-07-30T08:38:40.029Z</time>
      </trkpt>
      <trkpt lat="43.13307" lon="5.95728">
        <ele>136</ele>
        <time>2016-07-30T08:38:41.029Z</time>
      </trkpt>
      <trkpt lat="43.13309" lon="5.9573">
        <ele>136</ele>
        <time>2016-07-30T08:38:42.029Z</time>
      </trkpt>
      <trkpt lat="43.1331" lon="5.95731">
        <ele>137</ele>
        <time>2016-07-30T08:38:43.029Z</time>
      </trkpt>
      <trkpt lat="43.13311" lon="5.95733">
        <ele>137</ele>
        <time>2016-07-30T08:38:44.029Z</time>
      </trkpt>
      <trkpt lat="43.13312" lon="5.95735">
        <ele>137</ele>
        <time>2016-07-30T08:38:45.029Z</time>
      </trkpt>
      <trkpt lat="43.13313" lon="5.95736">
        <ele>138</ele>
        <time>2016-07-30T08:38:46.029Z</time>
      </trkpt>
      <trkpt lat="43.13314" lon="5.95738">
        <ele>138</ele>
        <time>2016-07-30T08:38:47.029Z</time>
      </trkpt>
      <trkpt lat="43.13316" lon="5.95739">
        <ele>138</ele>
        <time>2016-07-30T08:38:48.029Z</time>
      </trkpt>
      <trkpt lat="43.13317" lon="5.95741">
        <ele>139</ele>
        <time>2016-07-30T08:38:49.029Z</time>
      </trkpt>
      <trkpt lat="43.13318" lon="5.95742">
        <ele>139</ele>
        <time>2016-07-30T08:38:50.029Z</time>
      </trkpt>
      <trkpt lat="43.13319" lon="5.95744">
        <ele>139</ele>
        <time>2016-07-30T08:38:51.029Z</time>
      </trkpt>
      <trkpt lat="43.13321" lon="5.95745">
        <ele>140</ele>
        <time>2016-07-30T08:38:52.029Z</time>
      </trkpt>
      <trkpt lat="43.13322" lon="5.95746">
        <ele>140</ele>
        <time>2016-07-30T08:38:53.029Z</time>
      </trkpt>
      <trkpt lat="43.13323" lon="5.95748">
        <ele>140</ele>
        <time>2016-07-30T08:38:54.029Z</time>
      </trkpt>
      <trkpt lat="43.13324" lon="5.95749">
        <ele>140</ele>
        <time>2016-07-30T08:38:55.029Z</time>
      </trkpt>
      <trkpt lat="43.13326" lon="5.9575">
        <ele>141</ele>
        <time>2016-07-30T08:38:56.029Z</time>
      </trkpt>
      <trkpt lat="43.13327" lon="5.95752">
        <ele>141</ele>
        <time>2016-07-30T08:38:57.029Z</time>
      </trkpt>
      <trkpt lat="43.13328" lon="5.95753">
        <ele>141</ele>
        <time>2016-07-30T08:38:58.029Z</time>
      </trkpt>
      <trkpt lat="43.13329" lon="5.95755">
        <ele>142</ele>
        <time>2016-07-30T08:38:59.029Z</time>
      </trkpt>
      <trkpt lat="43.13331" lon="5.95756">
        <ele>142</ele>
        <time>2016-07-30T08:39:00.029Z</time>
      </trkpt>
      <trkpt lat="43.13332" lon="5.95758">
        <ele>142</ele>
        <time>2016-07-30T08:39:01.029Z</time>
      </trkpt>
      <trkpt lat="43.13333" lon="5.95759">
        <ele>143</ele>
        <time>2016-07-30T08:39:02.029Z</time>
      </trkpt>
      <trkpt lat="43.13334" lon="5.95761">
        <ele>143</ele>
        <time>2016-07-30T08:39:03.029Z</time>
      </trkpt>
      <trkpt lat="43.13336" lon="5.95762">
        <ele>144</ele>
        <time>2016-07-30T08:39:04.029Z</time>
      </trkpt>
      <trkpt lat="43.13337" lon="5.95764">
        <ele>144</ele>
        <time>2016-07-30T08:39:05.029Z</time>
      </trkpt>
      <trkpt lat="43.13339" lon="5.95765">
        <ele>144</ele>
        <time>2016-07-30T08:39:06.029Z</time>
      </trkpt>
      <trkpt lat="43.13341" lon="5.95767">
        <ele>144</ele>
        <time>2016-07-30T08:39:07.029Z</time>
      </trkpt>
      <trkpt lat="43.13343" lon="5.95769">
        <ele>143</ele>
        <time>2016-07-30T08:39:08.029Z</time>
      </trkpt>
      <trkpt lat="43.13345" lon="5.95772">
        <ele>143</ele>
        <time>2016-07-30T08:39:09.029Z</time>
      </trkpt>
      <trkpt lat="43.13348" lon="5.95775">
        <ele>143</ele>
        <time>2016-07-30T08:39:10.029Z</time>
      </trkpt>
      <trkpt lat="43.1335" lon="5.95778">
        <ele>142</ele>
        <time>2016-07-30T08:39:11.029Z</time>
      </trkpt>
      <trkpt lat="43.13353" lon="5.95781">
        <ele>142</ele>
        <time>2016-07-30T08:39:12.029Z</time>
      </trkpt>
      <trkpt lat="43.13355" lon="5.95784">
        <ele>143</ele>
        <time>2016-07-30T08:39:13.029Z</time>
      </trkpt>
      <trkpt lat="43.13358" lon="5.95786">
        <ele>142</ele>
        <time>2016-07-30T08:39:14.029Z</time>
      </trkpt>
      <trkpt lat="43.13361" lon="5.95789">
        <ele>142</ele>
        <time>2016-07-30T08:39:15.029Z</time>
      </trkpt>
      <trkpt lat="43.13364" lon="5.95792">
        <ele>142</ele>
        <time>2016-07-30T08:39:16.029Z</time>
      </trkpt>
      <trkpt lat="43.13367" lon="5.95795">
        <ele>142</ele>
        <time>2016-07-30T08:39:17.029Z</time>
      </trkpt>
      <trkpt lat="43.13371" lon="5.95797">
        <ele>142</ele>
        <time>2016-07-30T08:39:18.029Z</time>
      </trkpt>
      <trkpt lat="43.13374" lon="5.958">
        <ele>142</ele>
        <time>2016-07-30T08:39:19.029Z</time>
      </trkpt>
      <trkpt lat="43.13378" lon="5.95803">
        <ele>142</ele>
        <time>2016-07-30T08:39:20.029Z</time>
      </trkpt>
      <trkpt lat="43.13382" lon="5.95805">
        <ele>142</ele>
        <time>2016-07-30T08:39:21.029Z</time>
      </trkpt>
      <trkpt lat="43.13385" lon="5.95807">
        <ele>142</ele>
        <time>2016-07-30T08:39:22.029Z</time>
      </trkpt>
      <trkpt lat="43.13389" lon="5.9581">
        <ele>142</ele>
        <time>2016-07-30T08:39:23.029Z</time>
      </trkpt>
      <trkpt lat="43.13393" lon="5.95812">
        <ele>142</ele>
        <time>2016-07-30T08:39:24.029Z</time>
      </trkpt>
      <trkpt lat="43.13397" lon="5.95815">
        <ele>143</ele>
        <time>2016-07-30T08:39:25.029Z</time>
      </trkpt>
      <trkpt lat="43.13401" lon="5.95817">
        <ele>142</ele>
        <time>2016-07-30T08:39:26.029Z</time>
      </trkpt>
      <trkpt lat="43.13405" lon="5.95819">
        <ele>142</ele>
        <time>2016-07-30T08:39:27.029Z</time>
      </trkpt>
      <trkpt lat="43.13409" lon="5.95822">
        <ele>142</ele>
        <time>2016-07-30T08:39:28.029Z</time>
      </trkpt>
      <trkpt lat="43.13413" lon="5.95824">
        <ele>143</ele>
        <time>2016-07-30T08:39:29.029Z</time>
      </trkpt>
      <trkpt lat="43.13417" lon="5.95827">
        <ele>142</ele>
        <time>2016-07-30T08:39:30.029Z</time>
      </trkpt>
      <trkpt lat="43.13421" lon="5.9583">
        <ele>143</ele>
        <time>2016-07-30T08:39:31.029Z</time>
      </trkpt>
      <trkpt lat="43.13426" lon="5.95833">
        <ele>143</ele>
        <time>2016-07-30T08:39:32.029Z</time>
      </trkpt>
      <trkpt lat="43.1343" lon="5.95837">
        <ele>143</ele>
        <time>2016-07-30T08:39:33.029Z</time>
      </trkpt>
      <trkpt lat="43.13434" lon="5.9584">
        <ele>143</ele>
        <time>2016-07-30T08:39:34.029Z</time>
      </trkpt>
      <trkpt lat="43.13438" lon="5.95844">
        <ele>143</ele>
        <time>2016-07-30T08:39:35.029Z</time>
      </trkpt>
      <trkpt lat="43.13442" lon="5.95849">
        <ele>143</ele>
        <time>2016-07-30T08:39:36.029Z</time>
      </trkpt>
      <trkpt lat="43.13445" lon="5.95853">
        <ele>142</ele>
        <time>2016-07-30T08:39:37.029Z</time>
      </trkpt>
      <trkpt lat="43.13449" lon="5.95858">
        <ele>141</ele>
        <time>2016-07-30T08:39:38.029Z</time>
      </trkpt>
      <trkpt lat="43.13451" lon="5.95864">
        <ele>142</ele>
        <time>2016-07-30T08:39:39.029Z</time>
      </trkpt>
      <trkpt lat="43.13454" lon="5.95871">
        <ele>142</ele>
        <time>2016-07-30T08:39:40.029Z</time>
      </trkpt>
      <trkpt lat="43.13455" lon="5.95877">
        <ele>142</ele>
        <time>2016-07-30T08:39:41.029Z</time>
      </trkpt>
      <trkpt lat="43.13457" lon="5.95883">
        <ele>141</ele>
        <time>2016-07-30T08:39:42.029Z</time>
      </trkpt>
      <trkpt lat="43.13458" lon="5.9589">
        <ele>140</ele>
        <time>2016-07-30T08:39:43.029Z</time>
      </trkpt>
      <trkpt lat="43.13459" lon="5.95896">
        <ele>139</ele>
        <time>2016-07-30T08:39:44.029Z</time>
      </trkpt>
      <trkpt lat="43.1346" lon="5.95902">
        <ele>138</ele>
        <time>2016-07-30T08:39:45.029Z</time>
      </trkpt>
      <trkpt lat="43.1346" lon="5.95908">
        <ele>137</ele>
        <time>2016-07-30T08:39:46.029Z</time>
      </trkpt>
      <trkpt lat="43.13461" lon="5.95914">
        <ele>138</ele>
        <time>2016-07-30T08:39:47.029Z</time>
      </trkpt>
      <trkpt lat="43.1346" lon="5.9592">
        <ele>138</ele>
        <time>2016-07-30T08:39:48.029Z</time>
      </trkpt>
      <trkpt lat="43.1346" lon="5.95926">
        <ele>137</ele>
        <time>2016-07-30T08:39:49.029Z</time>
      </trkpt>
      <trkpt lat="43.1346" lon="5.95932">
        <ele>137</ele>
        <time>2016-07-30T08:39:50.029Z</time>
      </trkpt>
      <trkpt lat="43.13459" lon="5.95938">
        <ele>137</ele>
        <time>2016-07-30T08:39:51.029Z</time>
      </trkpt>
      <trkpt lat="43.13457" lon="5.95944">
        <ele>138</ele>
        <time>2016-07-30T08:39:52.029Z</time>
      </trkpt>
      <trkpt lat="43.13455" lon="5.95951">
        <ele>138</ele>
        <time>2016-07-30T08:39:53.029Z</time>
      </trkpt>
      <trkpt lat="43.13453" lon="5.95957">
        <ele>138</ele>
        <time>2016-07-30T08:39:54.029Z</time>
      </trkpt>
      <trkpt lat="43.13452" lon="5.95964">
        <ele>138</ele>
        <time>2016-07-30T08:39:55.029Z</time>
      </trkpt>
      <trkpt lat="43.13452" lon="5.9597">
        <ele>137</ele>
        <time>2016-07-30T08:39:56.029Z</time>
      </trkpt>
      <trkpt lat="43.13451" lon="5.95976">
        <ele>137</ele>
        <time>2016-07-30T08:39:57.029Z</time>
      </trkpt>
      <trkpt lat="43.13451" lon="5.95982">
        <ele>137</ele>
        <time>2016-07-30T08:39:58.029Z</time>
      </trkpt>
      <trkpt lat="43.13451" lon="5.95989">
        <ele>137</ele>
        <time>2016-07-30T08:39:59.029Z</time>
      </trkpt>
      <trkpt lat="43.13451" lon="5.95996">
        <ele>137</ele>
        <time>2016-07-30T08:40:00.029Z</time>
      </trkpt>
      <trkpt lat="43.13451" lon="5.96004">
        <ele>138</ele>
        <time>2016-07-30T08:40:01.029Z</time>
      </trkpt>
      <trkpt lat="43.13452" lon="5.96011">
        <ele>139</ele>
        <time>2016-07-30T08:40:02.029Z</time>
      </trkpt>
      <trkpt lat="43.13452" lon="5.96018">
        <ele>139</ele>
        <time>2016-07-30T08:40:03.029Z</time>
      </trkpt>
      <trkpt lat="43.13453" lon="5.96025">
        <ele>139</ele>
        <time>2016-07-30T08:40:04.029Z</time>
      </trkpt>
      <trkpt lat="43.13453" lon="5.96032">
        <ele>140</ele>
        <time>2016-07-30T08:40:05.029Z</time>
      </trkpt>
      <trkpt lat="43.13454" lon="5.96039">
        <ele>140</ele>
        <time>2016-07-30T08:40:06.029Z</time>
      </trkpt>
      <trkpt lat="43.13455" lon="5.96046">
        <ele>140</ele>
        <time>2016-07-30T08:40:07.029Z</time>
      </trkpt>
      <trkpt lat="43.13456" lon="5.96053">
        <ele>140</ele>
        <time>2016-07-30T08:40:08.029Z</time>
      </trkpt>
      <trkpt lat="43.13458" lon="5.9606">
        <ele>140</ele>
        <time>2016-07-30T08:40:09.029Z</time>
      </trkpt>
      <trkpt lat="43.13459" lon="5.96067">
        <ele>140</ele>
        <time>2016-07-30T08:40:10.029Z</time>
      </trkpt>
      <trkpt lat="43.13461" lon="5.96074">
        <ele>140</ele>
        <time>2016-07-30T08:40:11.029Z</time>
      </trkpt>
      <trkpt lat="43.13462" lon="5.96081">
        <ele>139</ele>
        <time>2016-07-30T08:40:12.029Z</time>
      </trkpt>
      <trkpt lat="43.13464" lon="5.96088">
        <ele>139</ele>
        <time>2016-07-30T08:40:13.029Z</time>
      </trkpt>
      <trkpt lat="43.13466" lon="5.96095">
        <ele>139</ele>
        <time>2016-07-30T08:40:14.029Z</time>
      </trkpt>
      <trkpt lat="43.13469" lon="5.96103">
        <ele>139</ele>
        <time>2016-07-30T08:40:15.029Z</time>
      </trkpt>
      <trkpt lat="43.13471" lon="5.9611">
        <ele>139</ele>
        <time>2016-07-30T08:40:16.029Z</time>
      </trkpt>
      <trkpt lat="43.13473" lon="5.96117">
        <ele>139</ele>
        <time>2016-07-30T08:40:17.029Z</time>
      </trkpt>
      <trkpt lat="43.13475" lon="5.96124">
        <ele>139</ele>
        <time>2016-07-30T08:40:18.029Z</time>
      </trkpt>
      <trkpt lat="43.13477" lon="5.96132">
        <ele>139</ele>
        <time>2016-07-30T08:40:19.029Z</time>
      </trkpt>
      <trkpt lat="43.13479" lon="5.96139">
        <ele>139</ele>
        <time>2016-07-30T08:40:20.029Z</time>
      </trkpt>
      <trkpt lat="43.1348" lon="5.96147">
        <ele>139</ele>
        <time>2016-07-30T08:40:21.029Z</time>
      </trkpt>
      <trkpt lat="43.13482" lon="5.96154">
        <ele>139</ele>
        <time>2016-07-30T08:40:22.029Z</time>
      </trkpt>
      <trkpt lat="43.13483" lon="5.96162">
        <ele>138</ele>
        <time>2016-07-30T08:40:23.029Z</time>
      </trkpt>
      <trkpt lat="43.13484" lon="5.9617">
        <ele>138</ele>
        <time>2016-07-30T08:40:24.029Z</time>
      </trkpt>
      <trkpt lat="43.13485" lon="5.96178">
        <ele>138</ele>
        <time>2016-07-30T08:40:25.029Z</time>
      </trkpt>
      <trkpt lat="43.13487" lon="5.96186">
        <ele>138</ele>
        <time>2016-07-30T08:40:26.029Z</time>
      </trkpt>
      <trkpt lat="43.13488" lon="5.96194">
        <ele>138</ele>
        <time>2016-07-30T08:40:27.029Z</time>
      </trkpt>
      <trkpt lat="43.1349" lon="5.96202">
        <ele>138</ele>
        <time>2016-07-30T08:40:28.029Z</time>
      </trkpt>
      <trkpt lat="43.13492" lon="5.96209">
        <ele>138</ele>
        <time>2016-07-30T08:40:29.029Z</time>
      </trkpt>
      <trkpt lat="43.13494" lon="5.96217">
        <ele>139</ele>
        <time>2016-07-30T08:40:30.029Z</time>
      </trkpt>
      <trkpt lat="43.13496" lon="5.96225">
        <ele>139</ele>
        <time>2016-07-30T08:40:31.029Z</time>
      </trkpt>
      <trkpt lat="43.13499" lon="5.96232">
        <ele>139</ele>
        <time>2016-07-30T08:40:32.029Z</time>
      </trkpt>
      <trkpt lat="43.13501" lon="5.9624">
        <ele>140</ele>
        <time>2016-07-30T08:40:33.029Z</time>
      </trkpt>
      <trkpt lat="43.13503" lon="5.96247">
        <ele>140</ele>
        <time>2016-07-30T08:40:34.029Z</time>
      </trkpt>
      <trkpt lat="43.13506" lon="5.96255">
        <ele>140</ele>
        <time>2016-07-30T08:40:35.029Z</time>
      </trkpt>
      <trkpt lat="43.13508" lon="5.96262">
        <ele>140</ele>
        <time>2016-07-30T08:40:36.029Z</time>
      </trkpt>
      <trkpt lat="43.1351" lon="5.9627">
        <ele>140</ele>
        <time>2016-07-30T08:40:37.029Z</time>
      </trkpt>
      <trkpt lat="43.13513" lon="5.96277">
        <ele>140</ele>
        <time>2016-07-30T08:40:38.029Z</time>
      </trkpt>
      <trkpt lat="43.13515" lon="5.96285">
        <ele>140</ele>
        <time>2016-07-30T08:40:39.029Z</time>
      </trkpt>
      <trkpt lat="43.13517" lon="5.96292">
        <ele>140</ele>
        <time>2016-07-30T08:40:40.029Z</time>
      </trkpt>
      <trkpt lat="43.1352" lon="5.963">
        <ele>140</ele>
        <time>2016-07-30T08:40:41.029Z</time>
      </trkpt>
      <trkpt lat="43.13522" lon="5.96307">
        <ele>140</ele>
        <time>2016-07-30T08:40:42.029Z</time>
      </trkpt>
      <trkpt lat="43.13525" lon="5.96315">
        <ele>140</ele>
        <time>2016-07-30T08:40:43.029Z</time>
      </trkpt>
      <trkpt lat="43.13527" lon="5.96322">
        <ele>140</ele>
        <time>2016-07-30T08:40:44.029Z</time>
      </trkpt>
      <trkpt lat="43.1353" lon="5.9633">
        <ele>140</ele>
        <time>2016-07-30T08:40:45.029Z</time>
      </trkpt>
      <trkpt lat="43.13532" lon="5.96338">
        <ele>140</ele>
        <time>2016-07-30T08:40:46.029Z</time>
      </trkpt>
      <trkpt lat="43.13535" lon="5.96345">
        <ele>141</ele>
        <time>2016-07-30T08:40:47.029Z</time>
      </trkpt>
      <trkpt lat="43.13537" lon="5.96353">
        <ele>140</ele>
        <time>2016-07-30T08:40:48.029Z</time>
      </trkpt>
      <trkpt lat="43.13539" lon="5.96361">
        <ele>140</ele>
        <time>2016-07-30T08:40:49.029Z</time>
      </trkpt>
      <trkpt lat="43.13542" lon="5.96369">
        <ele>140</ele>
        <time>2016-07-30T08:40:50.029Z</time>
      </trkpt>
      <trkpt lat="43.13544" lon="5.96377">
        <ele>140</ele>
        <time>2016-07-30T08:40:51.029Z</time>
      </trkpt>
      <trkpt lat="43.13546" lon="5.96385">
        <ele>141</ele>
        <time>2016-07-30T08:40:52.029Z</time>
      </trkpt>
      <trkpt lat="43.13547" lon="5.96394">
        <ele>140</ele>
        <time>2016-07-30T08:40:53.029Z</time>
      </trkpt>
      <trkpt lat="43.13549" lon="5.96402">
        <ele>139</ele>
        <time>2016-07-30T08:40:54.029Z</time>
      </trkpt>
      <trkpt lat="43.1355" lon="5.9641">
        <ele>139</ele>
        <time>2016-07-30T08:40:55.029Z</time>
      </trkpt>
      <trkpt lat="43.13551" lon="5.96419">
        <ele>139</ele>
        <time>2016-07-30T08:40:56.029Z</time>
      </trkpt>
      <trkpt lat="43.13552" lon="5.96427">
        <ele>139</ele>
        <time>2016-07-30T08:40:57.029Z</time>
      </trkpt>
      <trkpt lat="43.13553" lon="5.96436">
        <ele>139</ele>
        <time>2016-07-30T08:40:58.029Z</time>
      </trkpt>
      <trkpt lat="43.13553" lon="5.96444">
        <ele>139</ele>
        <time>2016-07-30T08:40:59.029Z</time>
      </trkpt>
      <trkpt lat="43.13555" lon="5.96452">
        <ele>139</ele>
        <time>2016-07-30T08:41:00.029Z</time>
      </trkpt>
      <trkpt lat="43.13556" lon="5.96461">
        <ele>140</ele>
        <time>2016-07-30T08:41:01.029Z</time>
      </trkpt>
      <trkpt lat="43.13558" lon="5.96469">
        <ele>139</ele>
        <time>2016-07-30T08:41:02.029Z</time>
      </trkpt>
      <trkpt lat="43.1356" lon="5.96477">
        <ele>139</ele>
        <time>2016-07-30T08:41:03.029Z</time>
      </trkpt>
      <trkpt lat="43.13564" lon="5.96485">
        <ele>139</ele>
        <time>2016-07-30T08:41:04.029Z</time>
      </trkpt>
      <trkpt lat="43.1357" lon="5.9649">
        <ele>141</ele>
        <time>2016-07-30T08:41:05.029Z</time>
      </trkpt>
      <trkpt lat="43.13576" lon="5.96495">
        <ele>141</ele>
        <time>2016-07-30T08:41:06.029Z</time>
      </trkpt>
      <trkpt lat="43.13583" lon="5.96499">
        <ele>142</ele>
        <time>2016-07-30T08:41:07.029Z</time>
      </trkpt>
      <trkpt lat="43.13589" lon="5.96504">
        <ele>142</ele>
        <time>2016-07-30T08:41:08.029Z</time>
      </trkpt>
      <trkpt lat="43.13594" lon="5.96509">
        <ele>142</ele>
        <time>2016-07-30T08:41:09.029Z</time>
      </trkpt>
      <trkpt lat="43.13599" lon="5.96515">
        <ele>142</ele>
        <time>2016-07-30T08:41:10.029Z</time>
      </trkpt>
      <trkpt lat="43.13604" lon="5.96521">
        <ele>141</ele>
        <time>2016-07-30T08:41:11.029Z</time>
      </trkpt>
      <trkpt lat="43.13609" lon="5.96527">
        <ele>141</ele>
        <time>2016-07-30T08:41:12.029Z</time>
      </trkpt>
      <trkpt lat="43.13614" lon="5.96533">
        <ele>141</ele>
        <time>2016-07-30T08:41:13.029Z</time>
      </trkpt>
      <trkpt lat="43.13619" lon="5.9654">
        <ele>142</ele>
        <time>2016-07-30T08:41:14.029Z</time>
      </trkpt>
      <trkpt lat="43.13624" lon="5.96546">
        <ele>142</ele>
        <time>2016-07-30T08:41:15.029Z</time>
      </trkpt>
      <trkpt lat="43.13629" lon="5.96552">
        <ele>142</ele>
        <time>2016-07-30T08:41:16.029Z</time>
      </trkpt>
      <trkpt lat="43.13633" lon="5.96559">
        <ele>142</ele>
        <time>2016-07-30T08:41:17.029Z</time>
      </trkpt>
      <trkpt lat="43.13638" lon="5.96566">
        <ele>142</ele>
        <time>2016-07-30T08:41:18.029Z</time>
      </trkpt>
      <trkpt lat="43.13642" lon="5.96573">
        <ele>142</ele>
        <time>2016-07-30T08:41:19.029Z</time>
      </trkpt>
      <trkpt lat="43.13645" lon="5.96581">
        <ele>142</ele>
        <time>2016-07-30T08:41:20.029Z</time>
      </trkpt>
      <trkpt lat="43.13649" lon="5.9659">
        <ele>142</ele>
        <time>2016-07-30T08:41:21.029Z</time>
      </trkpt>
      <trkpt lat="43.13651" lon="5.96599">
        <ele>141</ele>
        <time>2016-07-30T08:41:22.029Z</time>
      </trkpt>
      <trkpt lat="43.13654" lon="5.96608">
        <ele>141</ele>
        <time>2016-07-30T08:41:23.029Z</time>
      </trkpt>
      <trkpt lat="43.13656" lon="5.96617">
        <ele>141</ele>
        <time>2016-07-30T08:41:24.029Z</time>
      </trkpt>
      <trkpt lat="43.13657" lon="5.96626">
        <ele>141</ele>
        <time>2016-07-30T08:41:25.029Z</time>
      </trkpt>
      <trkpt lat="43.13659" lon="5.96635">
        <ele>141</ele>
        <time>2016-07-30T08:41:26.029Z</time>
      </trkpt>
      <trkpt lat="43.13661" lon="5.96644">
        <ele>141</ele>
        <time>2016-07-30T08:41:27.029Z</time>
      </trkpt>
      <trkpt lat="43.13663" lon="5.96654">
        <ele>141</ele>
        <time>2016-07-30T08:41:28.029Z</time>
      </trkpt>
      <trkpt lat="43.13664" lon="5.96663">
        <ele>141</ele>
        <time>2016-07-30T08:41:29.029Z</time>
      </trkpt>
      <trkpt lat="43.13666" lon="5.96672">
        <ele>141</ele>
        <time>2016-07-30T08:41:30.029Z</time>
      </trkpt>
      <trkpt lat="43.13668" lon="5.96681">
        <ele>140</ele>
        <time>2016-07-30T08:41:31.029Z</time>
      </trkpt>
      <trkpt lat="43.1367" lon="5.96691">
        <ele>140</ele>
        <time>2016-07-30T08:41:32.029Z</time>
      </trkpt>
      <trkpt lat="43.13671" lon="5.967">
        <ele>140</ele>
        <time>2016-07-30T08:41:33.029Z</time>
      </trkpt>
      <trkpt lat="43.13673" lon="5.9671">
        <ele>140</ele>
        <time>2016-07-30T08:41:34.029Z</time>
      </trkpt>
      <trkpt lat="43.13675" lon="5.96719">
        <ele>140</ele>
        <time>2016-07-30T08:41:35.029Z</time>
      </trkpt>
      <trkpt lat="43.13676" lon="5.9673">
        <ele>139</ele>
        <time>2016-07-30T08:41:36.029Z</time>
      </trkpt>
      <trkpt lat="43.13678" lon="5.9674">
        <ele>139</ele>
        <time>2016-07-30T08:41:37.029Z</time>
      </trkpt>
      <trkpt lat="43.1368" lon="5.9675">
        <ele>139</ele>
        <time>2016-07-30T08:41:38.029Z</time>
      </trkpt>
      <trkpt lat="43.13681" lon="5.96761">
        <ele>138</ele>
        <time>2016-07-30T08:41:39.029Z</time>
      </trkpt>
      <trkpt lat="43.13683" lon="5.96772">
        <ele>138</ele>
        <time>2016-07-30T08:41:40.029Z</time>
      </trkpt>
      <trkpt lat="43.13685" lon="5.96783">
        <ele>137</ele>
        <time>2016-07-30T08:41:41.029Z</time>
      </trkpt>
      <trkpt lat="43.13687" lon="5.96794">
        <ele>137</ele>
        <time>2016-07-30T08:41:42.029Z</time>
      </trkpt>
      <trkpt lat="43.13689" lon="5.96806">
        <ele>136</ele>
        <time>2016-07-30T08:41:43.029Z</time>
      </trkpt>
      <trkpt lat="43.1369" lon="5.96818">
        <ele>135</ele>
        <time>2016-07-30T08:41:44.029Z</time>
      </trkpt>
      <trkpt lat="43.13691" lon="5.9683">
        <ele>135</ele>
        <time>2016-07-30T08:41:45.029Z</time>
      </trkpt>
      <trkpt lat="43.13689" lon="5.96843">
        <ele>136</ele>
        <time>2016-07-30T08:41:46.029Z</time>
      </trkpt>
      <trkpt lat="43.13685" lon="5.96856">
        <ele>136</ele>
        <time>2016-07-30T08:41:47.029Z</time>
      </trkpt>
      <trkpt lat="43.13678" lon="5.96868">
        <ele>133</ele>
        <time>2016-07-30T08:41:48.029Z</time>
      </trkpt>
      <trkpt lat="43.13671" lon="5.96878">
        <ele>134</ele>
        <time>2016-07-30T08:41:49.029Z</time>
      </trkpt>
      <trkpt lat="43.13661" lon="5.96885">
        <ele>135</ele>
        <time>2016-07-30T08:41:50.029Z</time>
      </trkpt>
      <trkpt lat="43.13651" lon="5.96893">
        <ele>132</ele>
        <time>2016-07-30T08:41:51.029Z</time>
      </trkpt>
      <trkpt lat="43.13641" lon="5.969">
        <ele>128</ele>
        <time>2016-07-30T08:41:52.029Z</time>
      </trkpt>
      <trkpt lat="43.13629" lon="5.96907">
        <ele>126</ele>
        <time>2016-07-30T08:41:53.029Z</time>
      </trkpt>
      <trkpt lat="43.13618" lon="5.96913">
        <ele>124</ele>
        <time>2016-07-30T08:41:54.029Z</time>
      </trkpt>
      <trkpt lat="43.13607" lon="5.96918">
        <ele>123</ele>
        <time>2016-07-30T08:41:55.029Z</time>
      </trkpt>
      <trkpt lat="43.13596" lon="5.96924">
        <ele>121</ele>
        <time>2016-07-30T08:41:56.029Z</time>
      </trkpt>
      <trkpt lat="43.13585" lon="5.9693">
        <ele>119</ele>
        <time>2016-07-30T08:41:57.029Z</time>
      </trkpt>
      <trkpt lat="43.13574" lon="5.96936">
        <ele>118</ele>
        <time>2016-07-30T08:41:58.029Z</time>
      </trkpt>
      <trkpt lat="43.13564" lon="5.96944">
        <ele>116</ele>
        <time>2016-07-30T08:41:59.029Z</time>
      </trkpt>
      <trkpt lat="43.13555" lon="5.96954">
        <ele>116</ele>
        <time>2016-07-30T08:42:00.029Z</time>
      </trkpt>
      <trkpt lat="43.13545" lon="5.96964">
        <ele>116</ele>
        <time>2016-07-30T08:42:01.029Z</time>
      </trkpt>
      <trkpt lat="43.13536" lon="5.96976">
        <ele>117</ele>
        <time>2016-07-30T08:42:02.029Z</time>
      </trkpt>
      <trkpt lat="43.13527" lon="5.96988">
        <ele>116</ele>
        <time>2016-07-30T08:42:03.029Z</time>
      </trkpt>
      <trkpt lat="43.13519" lon="5.97">
        <ele>115</ele>
        <time>2016-07-30T08:42:04.029Z</time>
      </trkpt>
      <trkpt lat="43.1351" lon="5.97012">
        <ele>114</ele>
        <time>2016-07-30T08:42:05.029Z</time>
      </trkpt>
      <trkpt lat="43.13502" lon="5.97023">
        <ele>113</ele>
        <time>2016-07-30T08:42:06.029Z</time>
      </trkpt>
      <trkpt lat="43.13494" lon="5.97035">
        <ele>112</ele>
        <time>2016-07-30T08:42:07.029Z</time>
      </trkpt>
      <trkpt lat="43.13486" lon="5.97047">
        <ele>111</ele>
        <time>2016-07-30T08:42:08.029Z</time>
      </trkpt>
      <trkpt lat="43.13478" lon="5.97061">
        <ele>110</ele>
        <time>2016-07-30T08:42:09.029Z</time>
      </trkpt>
      <trkpt lat="43.13471" lon="5.97075">
        <ele>111</ele>
        <time>2016-07-30T08:42:10.029Z</time>
      </trkpt>
      <trkpt lat="43.13465" lon="5.9709">
        <ele>110</ele>
        <time>2016-07-30T08:42:11.029Z</time>
      </trkpt>
      <trkpt lat="43.13459" lon="5.97105">
        <ele>109</ele>
        <time>2016-07-30T08:42:12.029Z</time>
      </trkpt>
      <trkpt lat="43.13454" lon="5.97121">
        <ele>106</ele>
        <time>2016-07-30T08:42:13.029Z</time>
      </trkpt>
      <trkpt lat="43.13448" lon="5.97137">
        <ele>103</ele>
        <time>2016-07-30T08:42:14.029Z</time>
      </trkpt>
      <trkpt lat="43.13443" lon="5.97154">
        <ele>99</ele>
        <time>2016-07-30T08:42:15.029Z</time>
      </trkpt>
      <trkpt lat="43.13438" lon="5.97171">
        <ele>97</ele>
        <time>2016-07-30T08:42:16.029Z</time>
      </trkpt>
      <trkpt lat="43.13434" lon="5.97188">
        <ele>95</ele>
        <time>2016-07-30T08:42:17.029Z</time>
      </trkpt>
      <trkpt lat="43.1343" lon="5.97204">
        <ele>94</ele>
        <time>2016-07-30T08:42:18.029Z</time>
      </trkpt>
      <trkpt lat="43.13425" lon="5.9722">
        <ele>93</ele>
        <time>2016-07-30T08:42:19.029Z</time>
      </trkpt>
      <trkpt lat="43.13421" lon="5.97236">
        <ele>92</ele>
        <time>2016-07-30T08:42:20.029Z</time>
      </trkpt>
      <trkpt lat="43.13417" lon="5.97252">
        <ele>92</ele>
        <time>2016-07-30T08:42:21.029Z</time>
      </trkpt>
      <trkpt lat="43.13413" lon="5.97268">
        <ele>91</ele>
        <time>2016-07-30T08:42:22.029Z</time>
      </trkpt>
      <trkpt lat="43.13409" lon="5.97283">
        <ele>90</ele>
        <time>2016-07-30T08:42:23.029Z</time>
      </trkpt>
      <trkpt lat="43.13405" lon="5.97298">
        <ele>89</ele>
        <time>2016-07-30T08:42:24.029Z</time>
      </trkpt>
      <trkpt lat="43.13402" lon="5.97313">
        <ele>88</ele>
        <time>2016-07-30T08:42:25.029Z</time>
      </trkpt>
      <trkpt lat="43.13399" lon="5.97327">
        <ele>88</ele>
        <time>2016-07-30T08:42:26.029Z</time>
      </trkpt>
      <trkpt lat="43.13396" lon="5.97341">
        <ele>87</ele>
        <time>2016-07-30T08:42:27.029Z</time>
      </trkpt>
      <trkpt lat="43.13395" lon="5.97355">
        <ele>85</ele>
        <time>2016-07-30T08:42:28.029Z</time>
      </trkpt>
      <trkpt lat="43.13393" lon="5.97368">
        <ele>84</ele>
        <time>2016-07-30T08:42:29.029Z</time>
      </trkpt>
      <trkpt lat="43.13392" lon="5.97379">
        <ele>84</ele>
        <time>2016-07-30T08:42:30.029Z</time>
      </trkpt>
      <trkpt lat="43.1339" lon="5.97389">
        <ele>84</ele>
        <time>2016-07-30T08:42:31.029Z</time>
      </trkpt>
      <trkpt lat="43.13389" lon="5.974">
        <ele>84</ele>
        <time>2016-07-30T08:42:32.029Z</time>
      </trkpt>
      <trkpt lat="43.13389" lon="5.97411">
        <ele>82</ele>
        <time>2016-07-30T08:42:33.029Z</time>
      </trkpt>
      <trkpt lat="43.13389" lon="5.97422">
        <ele>81</ele>
        <time>2016-07-30T08:42:34.029Z</time>
      </trkpt>
      <trkpt lat="43.13389" lon="5.97433">
        <ele>81</ele>
        <time>2016-07-30T08:42:35.029Z</time>
      </trkpt>
      <trkpt lat="43.13389" lon="5.97445">
        <ele>80</ele>
        <time>2016-07-30T08:42:36.029Z</time>
      </trkpt>
      <trkpt lat="43.13389" lon="5.97457">
        <ele>80</ele>
        <time>2016-07-30T08:42:37.029Z</time>
      </trkpt>
      <trkpt lat="43.13389" lon="5.97468">
        <ele>79</ele>
        <time>2016-07-30T08:42:38.029Z</time>
      </trkpt>
      <trkpt lat="43.13389" lon="5.9748">
        <ele>77</ele>
        <time>2016-07-30T08:42:39.029Z</time>
      </trkpt>
      <trkpt lat="43.13391" lon="5.97491">
        <ele>73</ele>
        <time>2016-07-30T08:42:40.029Z</time>
      </trkpt>
      <trkpt lat="43.13395" lon="5.97503">
        <ele>70</ele>
        <time>2016-07-30T08:42:41.029Z</time>
      </trkpt>
      <trkpt lat="43.134" lon="5.97515">
        <ele>70</ele>
        <time>2016-07-30T08:42:42.029Z</time>
      </trkpt>
      <trkpt lat="43.13405" lon="5.97527">
        <ele>69</ele>
        <time>2016-07-30T08:42:43.029Z</time>
      </trkpt>
      <trkpt lat="43.13409" lon="5.97539">
        <ele>67</ele>
        <time>2016-07-30T08:42:44.029Z</time>
      </trkpt>
      <trkpt lat="43.13415" lon="5.97552">
        <ele>66</ele>
        <time>2016-07-30T08:42:45.029Z</time>
      </trkpt>
      <trkpt lat="43.1342" lon="5.97566">
        <ele>64</ele>
        <time>2016-07-30T08:42:46.029Z</time>
      </trkpt>
      <trkpt lat="43.13427" lon="5.97579">
        <ele>63</ele>
        <time>2016-07-30T08:42:47.029Z</time>
      </trkpt>
      <trkpt lat="43.13433" lon="5.97592">
        <ele>61</ele>
        <time>2016-07-30T08:42:48.029Z</time>
      </trkpt>
      <trkpt lat="43.13441" lon="5.97605">
        <ele>60</ele>
        <time>2016-07-30T08:42:49.029Z</time>
      </trkpt>
      <trkpt lat="43.13448" lon="5.97619">
        <ele>61</ele>
        <time>2016-07-30T08:42:50.029Z</time>
      </trkpt>
      <trkpt lat="43.13456" lon="5.97633">
        <ele>61</ele>
        <time>2016-07-30T08:42:51.029Z</time>
      </trkpt>
      <trkpt lat="43.13464" lon="5.97646">
        <ele>61</ele>
        <time>2016-07-30T08:42:52.029Z</time>
      </trkpt>
      <trkpt lat="43.13472" lon="5.9766">
        <ele>60</ele>
        <time>2016-07-30T08:42:53.029Z</time>
      </trkpt>
      <trkpt lat="43.1348" lon="5.97673">
        <ele>60</ele>
        <time>2016-07-30T08:42:54.029Z</time>
      </trkpt>
      <trkpt lat="43.13488" lon="5.97687">
        <ele>59</ele>
        <time>2016-07-30T08:42:55.029Z</time>
      </trkpt>
      <trkpt lat="43.13496" lon="5.977">
        <ele>59</ele>
        <time>2016-07-30T08:42:56.029Z</time>
      </trkpt>
      <trkpt lat="43.13504" lon="5.97712">
        <ele>59</ele>
        <time>2016-07-30T08:42:57.029Z</time>
      </trkpt>
      <trkpt lat="43.1351" lon="5.97723">
        <ele>59</ele>
        <time>2016-07-30T08:42:58.029Z</time>
      </trkpt>
      <trkpt lat="43.13516" lon="5.97733">
        <ele>59</ele>
        <time>2016-07-30T08:42:59.029Z</time>
      </trkpt>
      <trkpt lat="43.1352" lon="5.9774">
        <ele>58</ele>
        <time>2016-07-30T08:43:00.029Z</time>
      </trkpt>
      <trkpt lat="43.13523" lon="5.97745">
        <ele>57</ele>
        <time>2016-07-30T08:43:01.029Z</time>
      </trkpt>
      <trkpt lat="43.13524" lon="5.97748">
        <ele>56</ele>
        <time>2016-07-30T08:43:02.029Z</time>
      </trkpt>
      <trkpt lat="43.13525" lon="5.97749">
        <ele>56</ele>
        <time>2016-07-30T08:43:03.029Z</time>
      </trkpt>
      <trkpt lat="43.13525" lon="5.9775">
        <ele>57</ele>
        <time>2016-07-30T08:43:04.029Z</time>
      </trkpt>
      <trkpt lat="43.13525" lon="5.9775">
        <ele>58</ele>
        <time>2016-07-30T08:43:05.029Z</time>
      </trkpt>
      <trkpt lat="43.13526" lon="5.9775">
        <ele>58</ele>
        <time>2016-07-30T08:43:06.029Z</time>
      </trkpt>
      <trkpt lat="43.13526" lon="5.97751">
        <ele>58</ele>
        <time>2016-07-30T08:43:07.029Z</time>
      </trkpt>
      <trkpt lat="43.13527" lon="5.97753">
        <ele>58</ele>
        <time>2016-07-30T08:43:08.029Z</time>
      </trkpt>
      <trkpt lat="43.13528" lon="5.97756">
        <ele>58</ele>
        <time>2016-07-30T08:43:09.029Z</time>
      </trkpt>
      <trkpt lat="43.1353" lon="5.9776">
        <ele>58</ele>
        <time>2016-07-30T08:43:10.029Z</time>
      </trkpt>
      <trkpt lat="43.13531" lon="5.97765">
        <ele>59</ele>
        <time>2016-07-30T08:43:11.029Z</time>
      </trkpt>
      <trkpt lat="43.13534" lon="5.97771">
        <ele>59</ele>
        <time>2016-07-30T08:43:12.029Z</time>
      </trkpt>
      <trkpt lat="43.13536" lon="5.97776">
        <ele>59</ele>
        <time>2016-07-30T08:43:13.029Z</time>
      </trkpt>
      <trkpt lat="43.1354" lon="5.97781">
        <ele>58</ele>
        <time>2016-07-30T08:43:14.029Z</time>
      </trkpt>
      <trkpt lat="43.13544" lon="5.97785">
        <ele>58</ele>
        <time>2016-07-30T08:43:15.029Z</time>
      </trkpt>
      <trkpt lat="43.13548" lon="5.97786">
        <ele>57</ele>
        <time>2016-07-30T08:43:16.029Z</time>
      </trkpt>
      <trkpt lat="43.13553" lon="5.97786">
        <ele>56</ele>
        <time>2016-07-30T08:43:17.029Z</time>
      </trkpt>
      <trkpt lat="43.13558" lon="5.97785">
        <ele>55</ele>
        <time>2016-07-30T08:43:18.029Z</time>
      </trkpt>
      <trkpt lat="43.13562" lon="5.97782">
        <ele>58</ele>
        <time>2016-07-30T08:43:19.029Z</time>
      </trkpt>
      <trkpt lat="43.13566" lon="5.97776">
        <ele>59</ele>
        <time>2016-07-30T08:43:20.029Z</time>
      </trkpt>
      <trkpt lat="43.13569" lon="5.97769">
        <ele>60</ele>
        <time>2016-07-30T08:43:21.029Z</time>
      </trkpt>
      <trkpt lat="43.13573" lon="5.97762">
        <ele>61</ele>
        <time>2016-07-30T08:43:22.029Z</time>
      </trkpt>
      <trkpt lat="43.13577" lon="5.97758">
        <ele>62</ele>
        <time>2016-07-30T08:43:23.029Z</time>
      </trkpt>
      <trkpt lat="43.13581" lon="5.97756">
        <ele>64</ele>
        <time>2016-07-30T08:43:24.029Z</time>
      </trkpt>
      <trkpt lat="43.13586" lon="5.97755">
        <ele>63</ele>
        <time>2016-07-30T08:43:25.029Z</time>
      </trkpt>
      <trkpt lat="43.1359" lon="5.97755">
        <ele>64</ele>
        <time>2016-07-30T08:43:26.029Z</time>
      </trkpt>
      <trkpt lat="43.13595" lon="5.97755">
        <ele>64</ele>
        <time>2016-07-30T08:43:27.029Z</time>
      </trkpt>
      <trkpt lat="43.13599" lon="5.97755">
        <ele>64</ele>
        <time>2016-07-30T08:43:28.029Z</time>
      </trkpt>
      <trkpt lat="43.13604" lon="5.97755">
        <ele>64</ele>
        <time>2016-07-30T08:43:29.029Z</time>
      </trkpt>
      <trkpt lat="43.13608" lon="5.97755">
        <ele>64</ele>
        <time>2016-07-30T08:43:30.029Z</time>
      </trkpt>
      <trkpt lat="43.13613" lon="5.97755">
        <ele>64</ele>
        <time>2016-07-30T08:43:31.029Z</time>
      </trkpt>
      <trkpt lat="43.13617" lon="5.97756">
        <ele>64</ele>
        <time>2016-07-30T08:43:32.029Z</time>
      </trkpt>
      <trkpt lat="43.13621" lon="5.97756">
        <ele>64</ele>
        <time>2016-07-30T08:43:33.029Z</time>
      </trkpt>
      <trkpt lat="43.13625" lon="5.97756">
        <ele>64</ele>
        <time>2016-07-30T08:43:34.029Z</time>
      </trkpt>
      <trkpt lat="43.13629" lon="5.97757">
        <ele>64</ele>
        <time>2016-07-30T08:43:35.029Z</time>
      </trkpt>
      <trkpt lat="43.13633" lon="5.97757">
        <ele>64</ele>
        <time>2016-07-30T08:43:36.029Z</time>
      </trkpt>
      <trkpt lat="43.13637" lon="5.97758">
        <ele>64</ele>
        <time>2016-07-30T08:43:37.029Z</time>
      </trkpt>
      <trkpt lat="43.13641" lon="5.97758">
        <ele>65</ele>
        <time>2016-07-30T08:43:38.029Z</time>
      </trkpt>
      <trkpt lat="43.13645" lon="5.97758">
        <ele>65</ele>
        <time>2016-07-30T08:43:39.029Z</time>
      </trkpt>
      <trkpt lat="43.13649" lon="5.97758">
        <ele>65</ele>
        <time>2016-07-30T08:43:40.029Z</time>
      </trkpt>
      <trkpt lat="43.13653" lon="5.97759">
        <ele>65</ele>
        <time>2016-07-30T08:43:41.029Z</time>
      </trkpt>
      <trkpt lat="43.13657" lon="5.9776">
        <ele>64</ele>
        <time>2016-07-30T08:43:42.029Z</time>
      </trkpt>
      <trkpt lat="43.1366" lon="5.97761">
        <ele>65</ele>
        <time>2016-07-30T08:43:43.029Z</time>
      </trkpt>
      <trkpt lat="43.13664" lon="5.97761">
        <ele>65</ele>
        <time>2016-07-30T08:43:44.029Z</time>
      </trkpt>
      <trkpt lat="43.13668" lon="5.97762">
        <ele>65</ele>
        <time>2016-07-30T08:43:45.029Z</time>
      </trkpt>
      <trkpt lat="43.13672" lon="5.97762">
        <ele>65</ele>
        <time>2016-07-30T08:43:46.029Z</time>
      </trkpt>
      <trkpt lat="43.13675" lon="5.97763">
        <ele>65</ele>
        <time>2016-07-30T08:43:47.029Z</time>
      </trkpt>
      <trkpt lat="43.13679" lon="5.97763">
        <ele>67</ele>
        <time>2016-07-30T08:43:48.029Z</time>
      </trkpt>
      <trkpt lat="43.13683" lon="5.97764">
        <ele>67</ele>
        <time>2016-07-30T08:43:49.029Z</time>
      </trkpt>
      <trkpt lat="43.13686" lon="5.97765">
        <ele>68</ele>
        <time>2016-07-30T08:43:50.029Z</time>
      </trkpt>
      <trkpt lat="43.1369" lon="5.97766">
        <ele>68</ele>
        <time>2016-07-30T08:43:51.029Z</time>
      </trkpt>
      <trkpt lat="43.13694" lon="5.97767">
        <ele>68</ele>
        <time>2016-07-30T08:43:52.029Z</time>
      </trkpt>
      <trkpt lat="43.13698" lon="5.97768">
        <ele>68</ele>
        <time>2016-07-30T08:43:53.029Z</time>
      </trkpt>
      <trkpt lat="43.13701" lon="5.97769">
        <ele>68</ele>
        <time>2016-07-30T08:43:54.029Z</time>
      </trkpt>
      <trkpt lat="43.13705" lon="5.97769">
        <ele>68</ele>
        <time>2016-07-30T08:43:55.029Z</time>
      </trkpt>
      <trkpt lat="43.13708" lon="5.9777">
        <ele>69</ele>
        <time>2016-07-30T08:43:56.029Z</time>
      </trkpt>
      <trkpt lat="43.13712" lon="5.97771">
        <ele>69</ele>
        <time>2016-07-30T08:43:57.029Z</time>
      </trkpt>
      <trkpt lat="43.13716" lon="5.97772">
        <ele>69</ele>
        <time>2016-07-30T08:43:58.029Z</time>
      </trkpt>
      <trkpt lat="43.13719" lon="5.97773">
        <ele>69</ele>
        <time>2016-07-30T08:43:59.029Z</time>
      </trkpt>
      <trkpt lat="43.13722" lon="5.97774">
        <ele>69</ele>
        <time>2016-07-30T08:44:00.029Z</time>
      </trkpt>
      <trkpt lat="43.13725" lon="5.97775">
        <ele>69</ele>
        <time>2016-07-30T08:44:01.029Z</time>
      </trkpt>
      <trkpt lat="43.13727" lon="5.97776">
        <ele>70</ele>
        <time>2016-07-30T08:44:02.029Z</time>
      </trkpt>
      <trkpt lat="43.1373" lon="5.97776">
        <ele>71</ele>
        <time>2016-07-30T08:44:03.029Z</time>
      </trkpt>
      <trkpt lat="43.13732" lon="5.97776">
        <ele>72</ele>
        <time>2016-07-30T08:44:04.029Z</time>
      </trkpt>
      <trkpt lat="43.13734" lon="5.97776">
        <ele>72</ele>
        <time>2016-07-30T08:44:05.029Z</time>
      </trkpt>
      <trkpt lat="43.13736" lon="5.97776">
        <ele>72</ele>
        <time>2016-07-30T08:44:06.029Z</time>
      </trkpt>
      <trkpt lat="43.13737" lon="5.97776">
        <ele>72</ele>
        <time>2016-07-30T08:44:07.029Z</time>
      </trkpt>
      <trkpt lat="43.13739" lon="5.97776">
        <ele>73</ele>
        <time>2016-07-30T08:44:08.029Z</time>
      </trkpt>
      <trkpt lat="43.13741" lon="5.97776">
        <ele>73</ele>
        <time>2016-07-30T08:44:09.029Z</time>
      </trkpt>
      <trkpt lat="43.13742" lon="5.97777">
        <ele>73</ele>
        <time>2016-07-30T08:44:10.029Z</time>
      </trkpt>
      <trkpt lat="43.13744" lon="5.97778">
        <ele>73</ele>
        <time>2016-07-30T08:44:11.029Z</time>
      </trkpt>
      <trkpt lat="43.13745" lon="5.97779">
        <ele>73</ele>
        <time>2016-07-30T08:44:12.029Z</time>
      </trkpt>
      <trkpt lat="43.13747" lon="5.9778">
        <ele>73</ele>
        <time>2016-07-30T08:44:13.029Z</time>
      </trkpt>
      <trkpt lat="43.13749" lon="5.97781">
        <ele>73</ele>
        <time>2016-07-30T08:44:14.029Z</time>
      </trkpt>
      <trkpt lat="43.13751" lon="5.97782">
        <ele>72</ele>
        <time>2016-07-30T08:44:15.029Z</time>
      </trkpt>
      <trkpt lat="43.13753" lon="5.97782">
        <ele>72</ele>
        <time>2016-07-30T08:44:16.029Z</time>
      </trkpt>
      <trkpt lat="43.13755" lon="5.97783">
        <ele>72</ele>
        <time>2016-07-30T08:44:17.029Z</time>
      </trkpt>
      <trkpt lat="43.13758" lon="5.97784">
        <ele>72</ele>
        <time>2016-07-30T08:44:18.029Z</time>
      </trkpt>
      <trkpt lat="43.13761" lon="5.97785">
        <ele>73</ele>
        <time>2016-07-30T08:44:19.029Z</time>
      </trkpt>
      <trkpt lat="43.13763" lon="5.97786">
        <ele>73</ele>
        <time>2016-07-30T08:44:20.029Z</time>
      </trkpt>
      <trkpt lat="43.13766" lon="5.97788">
        <ele>73</ele>
        <time>2016-07-30T08:44:21.029Z</time>
      </trkpt>
      <trkpt lat="43.13768" lon="5.97789">
        <ele>73</ele>
        <time>2016-07-30T08:44:22.029Z</time>
      </trkpt>
      <trkpt lat="43.13771" lon="5.9779">
        <ele>74</ele>
        <time>2016-07-30T08:44:23.029Z</time>
      </trkpt>
      <trkpt lat="43.13774" lon="5.97792">
        <ele>74</ele>
        <time>2016-07-30T08:44:24.029Z</time>
      </trkpt>
      <trkpt lat="43.13776" lon="5.97793">
        <ele>74</ele>
        <time>2016-07-30T08:44:25.029Z</time>
      </trkpt>
      <trkpt lat="43.13779" lon="5.97795">
        <ele>74</ele>
        <time>2016-07-30T08:44:26.029Z</time>
      </trkpt>
      <trkpt lat="43.13782" lon="5.97796">
        <ele>74</ele>
        <time>2016-07-30T08:44:27.029Z</time>
      </trkpt>
      <trkpt lat="43.13784" lon="5.97798">
        <ele>74</ele>
        <time>2016-07-30T08:44:28.029Z</time>
      </trkpt>
      <trkpt lat="43.13787" lon="5.978">
        <ele>74</ele>
        <time>2016-07-30T08:44:29.029Z</time>
      </trkpt>
      <trkpt lat="43.1379" lon="5.97801">
        <ele>74</ele>
        <time>2016-07-30T08:44:30.029Z</time>
      </trkpt>
      <trkpt lat="43.13793" lon="5.97803">
        <ele>74</ele>
        <time>2016-07-30T08:44:31.029Z</time>
      </trkpt>
      <trkpt lat="43.13796" lon="5.97805">
        <ele>75</ele>
        <time>2016-07-30T08:44:32.029Z</time>
      </trkpt>
      <trkpt lat="43.13799" lon="5.97807">
        <ele>75</ele>
        <time>2016-07-30T08:44:33.029Z</time>
      </trkpt>
      <trkpt lat="43.13802" lon="5.97808">
        <ele>75</ele>
        <time>2016-07-30T08:44:34.029Z</time>
      </trkpt>
      <trkpt lat="43.13805" lon="5.9781">
        <ele>76</ele>
        <time>2016-07-30T08:44:35.029Z</time>
      </trkpt>
      <trkpt lat="43.13808" lon="5.97812">
        <ele>76</ele>
        <time>2016-07-30T08:44:36.029Z</time>
      </trkpt>
      <trkpt lat="43.13811" lon="5.97814">
        <ele>76</ele>
        <time>2016-07-30T08:44:37.029Z</time>
      </trkpt>
      <trkpt lat="43.13814" lon="5.97816">
        <ele>76</ele>
        <time>2016-07-30T08:44:38.029Z</time>
      </trkpt>
      <trkpt lat="43.13818" lon="5.97818">
        <ele>76</ele>
        <time>2016-07-30T08:44:39.029Z</time>
      </trkpt>
      <trkpt lat="43.13821" lon="5.9782">
        <ele>77</ele>
        <time>2016-07-30T08:44:40.029Z</time>
      </trkpt>
      <trkpt lat="43.13824" lon="5.97822">
        <ele>77</ele>
        <time>2016-07-30T08:44:41.029Z</time>
      </trkpt>
      <trkpt lat="43.13828" lon="5.97824">
        <ele>77</ele>
        <time>2016-07-30T08:44:42.029Z</time>
      </trkpt>
      <trkpt lat="43.13832" lon="5.97826">
        <ele>78</ele>
        <time>2016-07-30T08:44:43.029Z</time>
      </trkpt>
      <trkpt lat="43.13835" lon="5.97828">
        <ele>78</ele>
        <time>2016-07-30T08:44:44.029Z</time>
      </trkpt>
      <trkpt lat="43.13839" lon="5.9783">
        <ele>78</ele>
        <time>2016-07-30T08:44:45.029Z</time>
      </trkpt>
      <trkpt lat="43.13843" lon="5.97832">
        <ele>78</ele>
        <time>2016-07-30T08:44:46.029Z</time>
      </trkpt>
      <trkpt lat="43.13847" lon="5.97834">
        <ele>78</ele>
        <time>2016-07-30T08:44:47.029Z</time>
      </trkpt>
      <trkpt lat="43.13851" lon="5.97836">
        <ele>78</ele>
        <time>2016-07-30T08:44:48.029Z</time>
      </trkpt>
      <trkpt lat="43.13856" lon="5.97837">
        <ele>78</ele>
        <time>2016-07-30T08:44:49.029Z</time>
      </trkpt>
      <trkpt lat="43.1386" lon="5.97839">
        <ele>78</ele>
        <time>2016-07-30T08:44:50.029Z</time>
      </trkpt>
      <trkpt lat="43.13864" lon="5.9784">
        <ele>78</ele>
        <time>2016-07-30T08:44:51.029Z</time>
      </trkpt>
      <trkpt lat="43.13868" lon="5.97842">
        <ele>79</ele>
        <time>2016-07-30T08:44:52.029Z</time>
      </trkpt>
      <trkpt lat="43.13873" lon="5.97843">
        <ele>79</ele>
        <time>2016-07-30T08:44:53.029Z</time>
      </trkpt>
      <trkpt lat="43.13877" lon="5.97844">
        <ele>79</ele>
        <time>2016-07-30T08:44:54.029Z</time>
      </trkpt>
      <trkpt lat="43.13881" lon="5.97845">
        <ele>79</ele>
        <time>2016-07-30T08:44:55.029Z</time>
      </trkpt>
      <trkpt lat="43.13885" lon="5.97846">
        <ele>78</ele>
        <time>2016-07-30T08:44:56.029Z</time>
      </trkpt>
      <trkpt lat="43.1389" lon="5.97847">
        <ele>78</ele>
        <time>2016-07-30T08:44:57.029Z</time>
      </trkpt>
      <trkpt lat="43.13895" lon="5.97848">
        <ele>77</ele>
        <time>2016-07-30T08:44:58.029Z</time>
      </trkpt>
      <trkpt lat="43.13901" lon="5.97849">
        <ele>77</ele>
        <time>2016-07-30T08:44:59.029Z</time>
      </trkpt>
      <trkpt lat="43.13906" lon="5.9785">
        <ele>77</ele>
        <time>2016-07-30T08:45:00.029Z</time>
      </trkpt>
      <trkpt lat="43.13912" lon="5.9785">
        <ele>77</ele>
        <time>2016-07-30T08:45:01.029Z</time>
      </trkpt>
      <trkpt lat="43.13918" lon="5.9785">
        <ele>76</ele>
        <time>2016-07-30T08:45:02.029Z</time>
      </trkpt>
      <trkpt lat="43.13925" lon="5.9785">
        <ele>75</ele>
        <time>2016-07-30T08:45:03.029Z</time>
      </trkpt>
      <trkpt lat="43.13931" lon="5.9785">
        <ele>75</ele>
        <time>2016-07-30T08:45:04.029Z</time>
      </trkpt>
      <trkpt lat="43.13938" lon="5.97849">
        <ele>75</ele>
        <time>2016-07-30T08:45:05.029Z</time>
      </trkpt>
      <trkpt lat="43.13945" lon="5.97849">
        <ele>75</ele>
        <time>2016-07-30T08:45:06.029Z</time>
      </trkpt>
      <trkpt lat="43.13952" lon="5.97849">
        <ele>75</ele>
        <time>2016-07-30T08:45:07.029Z</time>
      </trkpt>
      <trkpt lat="43.13959" lon="5.97849">
        <ele>75</ele>
        <time>2016-07-30T08:45:08.029Z</time>
      </trkpt>
      <trkpt lat="43.13965" lon="5.97851">
        <ele>75</ele>
        <time>2016-07-30T08:45:09.029Z</time>
      </trkpt>
      <trkpt lat="43.13972" lon="5.97853">
        <ele>75</ele>
        <time>2016-07-30T08:45:10.029Z</time>
      </trkpt>
      <trkpt lat="43.13978" lon="5.97855">
        <ele>75</ele>
        <time>2016-07-30T08:45:11.029Z</time>
      </trkpt>
      <trkpt lat="43.13984" lon="5.97857">
        <ele>76</ele>
        <time>2016-07-30T08:45:12.029Z</time>
      </trkpt>
      <trkpt lat="43.1399" lon="5.9786">
        <ele>76</ele>
        <time>2016-07-30T08:45:13.029Z</time>
      </trkpt>
      <trkpt lat="43.13996" lon="5.97862">
        <ele>77</ele>
        <time>2016-07-30T08:45:14.029Z</time>
      </trkpt>
      <trkpt lat="43.14002" lon="5.97865">
        <ele>77</ele>
        <time>2016-07-30T08:45:15.029Z</time>
      </trkpt>
      <trkpt lat="43.14008" lon="5.97868">
        <ele>77</ele>
        <time>2016-07-30T08:45:16.029Z</time>
      </trkpt>
      <trkpt lat="43.14013" lon="5.9787">
        <ele>77</ele>
        <time>2016-07-30T08:45:17.029Z</time>
      </trkpt>
      <trkpt lat="43.14018" lon="5.97873">
        <ele>78</ele>
        <time>2016-07-30T08:45:18.029Z</time>
      </trkpt>
      <trkpt lat="43.14024" lon="5.97876">
        <ele>78</ele>
        <time>2016-07-30T08:45:19.029Z</time>
      </trkpt>
      <trkpt lat="43.14029" lon="5.97878">
        <ele>78</ele>
        <time>2016-07-30T08:45:20.029Z</time>
      </trkpt>
      <trkpt lat="43.14034" lon="5.97881">
        <ele>79</ele>
        <time>2016-07-30T08:45:21.029Z</time>
      </trkpt>
      <trkpt lat="43.1404" lon="5.97883">
        <ele>79</ele>
        <time>2016-07-30T08:45:22.029Z</time>
      </trkpt>
      <trkpt lat="43.14045" lon="5.97885">
        <ele>80</ele>
        <time>2016-07-30T08:45:23.029Z</time>
      </trkpt>
      <trkpt lat="43.1405" lon="5.97888">
        <ele>80</ele>
        <time>2016-07-30T08:45:24.029Z</time>
      </trkpt>
      <trkpt lat="43.14055" lon="5.97891">
        <ele>81</ele>
        <time>2016-07-30T08:45:25.029Z</time>
      </trkpt>
      <trkpt lat="43.1406" lon="5.97893">
        <ele>81</ele>
        <time>2016-07-30T08:45:26.029Z</time>
      </trkpt>
      <trkpt lat="43.14065" lon="5.97896">
        <ele>82</ele>
        <time>2016-07-30T08:45:27.029Z</time>
      </trkpt>
      <trkpt lat="43.1407" lon="5.97898">
        <ele>82</ele>
        <time>2016-07-30T08:45:28.029Z</time>
      </trkpt>
      <trkpt lat="43.14074" lon="5.97901">
        <ele>83</ele>
        <time>2016-07-30T08:45:29.029Z</time>
      </trkpt>
      <trkpt lat="43.14078" lon="5.97903">
        <ele>83</ele>
        <time>2016-07-30T08:45:30.029Z</time>
      </trkpt>
      <trkpt lat="43.14082" lon="5.97906">
        <ele>84</ele>
        <time>2016-07-30T08:45:31.029Z</time>
      </trkpt>
      <trkpt lat="43.14085" lon="5.97909">
        <ele>85</ele>
        <time>2016-07-30T08:45:32.029Z</time>
      </trkpt>
      <trkpt lat="43.14089" lon="5.97912">
        <ele>85</ele>
        <time>2016-07-30T08:45:33.029Z</time>
      </trkpt>
      <trkpt lat="43.14092" lon="5.97915">
        <ele>86</ele>
        <time>2016-07-30T08:45:34.029Z</time>
      </trkpt>
      <trkpt lat="43.14096" lon="5.97917">
        <ele>87</ele>
        <time>2016-07-30T08:45:35.029Z</time>
      </trkpt>
      <trkpt lat="43.14099" lon="5.9792">
        <ele>87</ele>
        <time>2016-07-30T08:45:36.029Z</time>
      </trkpt>
      <trkpt lat="43.14103" lon="5.97923">
        <ele>87</ele>
        <time>2016-07-30T08:45:37.029Z</time>
      </trkpt>
      <trkpt lat="43.14107" lon="5.97925">
        <ele>87</ele>
        <time>2016-07-30T08:45:38.029Z</time>
      </trkpt>
      <trkpt lat="43.14111" lon="5.97928">
        <ele>88</ele>
        <time>2016-07-30T08:45:39.029Z</time>
      </trkpt>
      <trkpt lat="43.14114" lon="5.97931">
        <ele>88</ele>
        <time>2016-07-30T08:45:40.029Z</time>
      </trkpt>
      <trkpt lat="43.14118" lon="5.97933">
        <ele>88</ele>
        <time>2016-07-30T08:45:41.029Z</time>
      </trkpt>
      <trkpt lat="43.14122" lon="5.97936">
        <ele>88</ele>
        <time>2016-07-30T08:45:42.029Z</time>
      </trkpt>
      <trkpt lat="43.14125" lon="5.97938">
        <ele>88</ele>
        <time>2016-07-30T08:45:43.029Z</time>
      </trkpt>
      <trkpt lat="43.14129" lon="5.9794">
        <ele>88</ele>
        <time>2016-07-30T08:45:44.029Z</time>
      </trkpt>
      <trkpt lat="43.14133" lon="5.97942">
        <ele>88</ele>
        <time>2016-07-30T08:45:45.029Z</time>
      </trkpt>
      <trkpt lat="43.14137" lon="5.97944">
        <ele>88</ele>
        <time>2016-07-30T08:45:46.029Z</time>
      </trkpt>
      <trkpt lat="43.14141" lon="5.97946">
        <ele>88</ele>
        <time>2016-07-30T08:45:47.029Z</time>
      </trkpt>
      <trkpt lat="43.14145" lon="5.97947">
        <ele>88</ele>
        <time>2016-07-30T08:45:48.029Z</time>
      </trkpt>
      <trkpt lat="43.14149" lon="5.97949">
        <ele>88</ele>
        <time>2016-07-30T08:45:49.029Z</time>
      </trkpt>
      <trkpt lat="43.14153" lon="5.9795">
        <ele>88</ele>
        <time>2016-07-30T08:45:50.029Z</time>
      </trkpt>
      <trkpt lat="43.14157" lon="5.97951">
        <ele>88</ele>
        <time>2016-07-30T08:45:51.029Z</time>
      </trkpt>
      <trkpt lat="43.14161" lon="5.97951">
        <ele>89</ele>
        <time>2016-07-30T08:45:52.029Z</time>
      </trkpt>
      <trkpt lat="43.14165" lon="5.97952">
        <ele>89</ele>
        <time>2016-07-30T08:45:53.029Z</time>
      </trkpt>
      <trkpt lat="43.14169" lon="5.97953">
        <ele>89</ele>
        <time>2016-07-30T08:45:54.029Z</time>
      </trkpt>
      <trkpt lat="43.14173" lon="5.97954">
        <ele>89</ele>
        <time>2016-07-30T08:45:55.029Z</time>
      </trkpt>
      <trkpt lat="43.14177" lon="5.97955">
        <ele>89</ele>
        <time>2016-07-30T08:45:56.029Z</time>
      </trkpt>
      <trkpt lat="43.14181" lon="5.97956">
        <ele>90</ele>
        <time>2016-07-30T08:45:57.029Z</time>
      </trkpt>
      <trkpt lat="43.14185" lon="5.97957">
        <ele>90</ele>
        <time>2016-07-30T08:45:58.029Z</time>
      </trkpt>
      <trkpt lat="43.14188" lon="5.97957">
        <ele>90</ele>
        <time>2016-07-30T08:45:59.029Z</time>
      </trkpt>
      <trkpt lat="43.14192" lon="5.97958">
        <ele>90</ele>
        <time>2016-07-30T08:46:00.029Z</time>
      </trkpt>
      <trkpt lat="43.14196" lon="5.97958">
        <ele>90</ele>
        <time>2016-07-30T08:46:01.029Z</time>
      </trkpt>
      <trkpt lat="43.142" lon="5.97958">
        <ele>91</ele>
        <time>2016-07-30T08:46:02.029Z</time>
      </trkpt>
      <trkpt lat="43.14204" lon="5.97959">
        <ele>91</ele>
        <time>2016-07-30T08:46:03.029Z</time>
      </trkpt>
      <trkpt lat="43.14207" lon="5.97959">
        <ele>91</ele>
        <time>2016-07-30T08:46:04.029Z</time>
      </trkpt>
      <trkpt lat="43.14211" lon="5.97959">
        <ele>91</ele>
        <time>2016-07-30T08:46:05.029Z</time>
      </trkpt>
      <trkpt lat="43.14215" lon="5.97959">
        <ele>91</ele>
        <time>2016-07-30T08:46:06.029Z</time>
      </trkpt>
      <trkpt lat="43.14218" lon="5.97959">
        <ele>91</ele>
        <time>2016-07-30T08:46:07.029Z</time>
      </trkpt>
      <trkpt lat="43.14222" lon="5.97959">
        <ele>91</ele>
        <time>2016-07-30T08:46:08.029Z</time>
      </trkpt>
      <trkpt lat="43.14225" lon="5.97959">
        <ele>91</ele>
        <time>2016-07-30T08:46:09.029Z</time>
      </trkpt>
      <trkpt lat="43.14229" lon="5.9796">
        <ele>91</ele>
        <time>2016-07-30T08:46:10.029Z</time>
      </trkpt>
      <trkpt lat="43.14232" lon="5.9796">
        <ele>92</ele>
        <time>2016-07-30T08:46:11.029Z</time>
      </trkpt>
      <trkpt lat="43.14236" lon="5.9796">
        <ele>92</ele>
        <time>2016-07-30T08:46:12.029Z</time>
      </trkpt>
      <trkpt lat="43.14239" lon="5.9796">
        <ele>92</ele>
        <time>2016-07-30T08:46:13.029Z</time>
      </trkpt>
      <trkpt lat="43.14243" lon="5.97961">
        <ele>92</ele>
        <time>2016-07-30T08:46:14.029Z</time>
      </trkpt>
      <trkpt lat="43.14246" lon="5.97961">
        <ele>92</ele>
        <time>2016-07-30T08:46:15.029Z</time>
      </trkpt>
      <trkpt lat="43.1425" lon="5.97962">
        <ele>92</ele>
        <time>2016-07-30T08:46:16.029Z</time>
      </trkpt>
      <trkpt lat="43.14253" lon="5.97962">
        <ele>92</ele>
        <time>2016-07-30T08:46:17.029Z</time>
      </trkpt>
      <trkpt lat="43.14256" lon="5.97963">
        <ele>92</ele>
        <time>2016-07-30T08:46:18.029Z</time>
      </trkpt>
      <trkpt lat="43.1426" lon="5.97963">
        <ele>93</ele>
        <time>2016-07-30T08:46:19.029Z</time>
      </trkpt>
      <trkpt lat="43.14263" lon="5.97964">
        <ele>93</ele>
        <time>2016-07-30T08:46:20.029Z</time>
      </trkpt>
      <trkpt lat="43.14267" lon="5.97964">
        <ele>93</ele>
        <time>2016-07-30T08:46:21.029Z</time>
      </trkpt>
      <trkpt lat="43.1427" lon="5.97965">
        <ele>93</ele>
        <time>2016-07-30T08:46:22.029Z</time>
      </trkpt>
      <trkpt lat="43.14273" lon="5.97966">
        <ele>93</ele>
        <time>2016-07-30T08:46:23.029Z</time>
      </trkpt>
      <trkpt lat="43.14277" lon="5.97966">
        <ele>93</ele>
        <time>2016-07-30T08:46:24.029Z</time>
      </trkpt>
      <trkpt lat="43.1428" lon="5.97967">
        <ele>94</ele>
        <time>2016-07-30T08:46:25.029Z</time>
      </trkpt>
      <trkpt lat="43.14283" lon="5.97968">
        <ele>94</ele>
        <time>2016-07-30T08:46:26.029Z</time>
      </trkpt>
      <trkpt lat="43.14286" lon="5.97968">
        <ele>93</ele>
        <time>2016-07-30T08:46:27.029Z</time>
      </trkpt>
      <trkpt lat="43.14289" lon="5.97969">
        <ele>93</ele>
        <time>2016-07-30T08:46:28.029Z</time>
      </trkpt>
      <trkpt lat="43.14292" lon="5.97969">
        <ele>93</ele>
        <time>2016-07-30T08:46:29.029Z</time>
      </trkpt>
      <trkpt lat="43.14295" lon="5.9797">
        <ele>94</ele>
        <time>2016-07-30T08:46:30.029Z</time>
      </trkpt>
      <trkpt lat="43.14298" lon="5.97971">
        <ele>94</ele>
        <time>2016-07-30T08:46:31.029Z</time>
      </trkpt>
      <trkpt lat="43.14301" lon="5.97971">
        <ele>94</ele>
        <time>2016-07-30T08:46:32.029Z</time>
      </trkpt>
      <trkpt lat="43.14304" lon="5.97971">
        <ele>95</ele>
        <time>2016-07-30T08:46:33.029Z</time>
      </trkpt>
      <trkpt lat="43.14307" lon="5.97972">
        <ele>95</ele>
        <time>2016-07-30T08:46:34.029Z</time>
      </trkpt>
      <trkpt lat="43.1431" lon="5.97973">
        <ele>95</ele>
        <time>2016-07-30T08:46:35.029Z</time>
      </trkpt>
      <trkpt lat="43.14313" lon="5.97974">
        <ele>96</ele>
        <time>2016-07-30T08:46:36.029Z</time>
      </trkpt>
      <trkpt lat="43.14316" lon="5.97975">
        <ele>96</ele>
        <time>2016-07-30T08:46:37.029Z</time>
      </trkpt>
      <trkpt lat="43.14319" lon="5.97977">
        <ele>96</ele>
        <time>2016-07-30T08:46:38.029Z</time>
      </trkpt>
      <trkpt lat="43.14322" lon="5.97978">
        <ele>96</ele>
        <time>2016-07-30T08:46:39.029Z</time>
      </trkpt>
      <trkpt lat="43.14325" lon="5.97978">
        <ele>96</ele>
        <time>2016-07-30T08:46:40.029Z</time>
      </trkpt>
      <trkpt lat="43.14328" lon="5.97979">
        <ele>97</ele>
        <time>2016-07-30T08:46:41.029Z</time>
      </trkpt>
      <trkpt lat="43.14331" lon="5.9798">
        <ele>97</ele>
        <time>2016-07-30T08:46:42.029Z</time>
      </trkpt>
      <trkpt lat="43.14333" lon="5.97981">
        <ele>97</ele>
        <time>2016-07-30T08:46:43.029Z</time>
      </trkpt>
      <trkpt lat="43.14336" lon="5.97982">
        <ele>98</ele>
        <time>2016-07-30T08:46:44.029Z</time>
      </trkpt>
      <trkpt lat="43.14339" lon="5.97982">
        <ele>98</ele>
        <time>2016-07-30T08:46:45.029Z</time>
      </trkpt>
      <trkpt lat="43.14342" lon="5.97983">
        <ele>98</ele>
        <time>2016-07-30T08:46:46.029Z</time>
      </trkpt>
      <trkpt lat="43.14345" lon="5.97984">
        <ele>99</ele>
        <time>2016-07-30T08:46:47.029Z</time>
      </trkpt>
      <trkpt lat="43.14347" lon="5.97985">
        <ele>99</ele>
        <time>2016-07-30T08:46:48.029Z</time>
      </trkpt>
      <trkpt lat="43.1435" lon="5.97985">
        <ele>99</ele>
        <time>2016-07-30T08:46:49.029Z</time>
      </trkpt>
      <trkpt lat="43.14352" lon="5.97986">
        <ele>100</ele>
        <time>2016-07-30T08:46:50.029Z</time>
      </trkpt>
      <trkpt lat="43.14355" lon="5.97987">
        <ele>100</ele>
        <time>2016-07-30T08:46:51.029Z</time>
      </trkpt>
      <trkpt lat="43.14358" lon="5.97988">
        <ele>100</ele>
        <time>2016-07-30T08:46:52.029Z</time>
      </trkpt>
      <trkpt lat="43.1436" lon="5.97989">
        <ele>101</ele>
        <time>2016-07-30T08:46:53.029Z</time>
      </trkpt>
      <trkpt lat="43.14362" lon="5.9799">
        <ele>101</ele>
        <time>2016-07-30T08:46:54.029Z</time>
      </trkpt>
      <trkpt lat="43.14365" lon="5.97991">
        <ele>101</ele>
        <time>2016-07-30T08:46:55.029Z</time>
      </trkpt>
      <trkpt lat="43.14367" lon="5.97992">
        <ele>100</ele>
        <time>2016-07-30T08:46:56.029Z</time>
      </trkpt>
      <trkpt lat="43.1437" lon="5.97993">
        <ele>101</ele>
        <time>2016-07-30T08:46:57.029Z</time>
      </trkpt>
      <trkpt lat="43.14372" lon="5.97995">
        <ele>101</ele>
        <time>2016-07-30T08:46:58.029Z</time>
      </trkpt>
      <trkpt lat="43.14375" lon="5.97996">
        <ele>101</ele>
        <time>2016-07-30T08:46:59.029Z</time>
      </trkpt>
      <trkpt lat="43.14377" lon="5.97997">
        <ele>102</ele>
        <time>2016-07-30T08:47:00.029Z</time>
      </trkpt>
      <trkpt lat="43.1438" lon="5.97998">
        <ele>102</ele>
        <time>2016-07-30T08:47:01.029Z</time>
      </trkpt>
      <trkpt lat="43.14383" lon="5.97999">
        <ele>102</ele>
        <time>2016-07-30T08:47:02.029Z</time>
      </trkpt>
      <trkpt lat="43.14385" lon="5.98">
        <ele>103</ele>
        <time>2016-07-30T08:47:03.029Z</time>
      </trkpt>
      <trkpt lat="43.14388" lon="5.98001">
        <ele>103</ele>
        <time>2016-07-30T08:47:04.029Z</time>
      </trkpt>
      <trkpt lat="43.1439" lon="5.98002">
        <ele>103</ele>
        <time>2016-07-30T08:47:05.029Z</time>
      </trkpt>
      <trkpt lat="43.14393" lon="5.98003">
        <ele>103</ele>
        <time>2016-07-30T08:47:06.029Z</time>
      </trkpt>
      <trkpt lat="43.14395" lon="5.98004">
        <ele>103</ele>
        <time>2016-07-30T08:47:07.029Z</time>
      </trkpt>
      <trkpt lat="43.14398" lon="5.98005">
        <ele>103</ele>
        <time>2016-07-30T08:47:08.029Z</time>
      </trkpt>
      <trkpt lat="43.14401" lon="5.98006">
        <ele>103</ele>
        <time>2016-07-30T08:47:09.029Z</time>
      </trkpt>
      <trkpt lat="43.14403" lon="5.98007">
        <ele>103</ele>
        <time>2016-07-30T08:47:10.029Z</time>
      </trkpt>
      <trkpt lat="43.14406" lon="5.98008">
        <ele>104</ele>
        <time>2016-07-30T08:47:11.029Z</time>
      </trkpt>
      <trkpt lat="43.14409" lon="5.98009">
        <ele>104</ele>
        <time>2016-07-30T08:47:12.029Z</time>
      </trkpt>
      <trkpt lat="43.14412" lon="5.9801">
        <ele>104</ele>
        <time>2016-07-30T08:47:13.029Z</time>
      </trkpt>
      <trkpt lat="43.14415" lon="5.98011">
        <ele>104</ele>
        <time>2016-07-30T08:47:14.029Z</time>
      </trkpt>
      <trkpt lat="43.14417" lon="5.98012">
        <ele>104</ele>
        <time>2016-07-30T08:47:15.029Z</time>
      </trkpt>
      <trkpt lat="43.1442" lon="5.98013">
        <ele>104</ele>
        <time>2016-07-30T08:47:16.029Z</time>
      </trkpt>
      <trkpt lat="43.14423" lon="5.98014">
        <ele>104</ele>
        <time>2016-07-30T08:47:17.029Z</time>
      </trkpt>
      <trkpt lat="43.14426" lon="5.98015">
        <ele>104</ele>
        <time>2016-07-30T08:47:18.029Z</time>
      </trkpt>
      <trkpt lat="43.14429" lon="5.98016">
        <ele>104</ele>
        <time>2016-07-30T08:47:19.029Z</time>
      </trkpt>
      <trkpt lat="43.14432" lon="5.98017">
        <ele>105</ele>
        <time>2016-07-30T08:47:20.029Z</time>
      </trkpt>
      <trkpt lat="43.14435" lon="5.98018">
        <ele>105</ele>
        <time>2016-07-30T08:47:21.029Z</time>
      </trkpt>
      <trkpt lat="43.14438" lon="5.98019">
        <ele>105</ele>
        <time>2016-07-30T08:47:22.029Z</time>
      </trkpt>
      <trkpt lat="43.14441" lon="5.9802">
        <ele>105</ele>
        <time>2016-07-30T08:47:23.029Z</time>
      </trkpt>
      <trkpt lat="43.14443" lon="5.9802">
        <ele>106</ele>
        <time>2016-07-30T08:47:24.029Z</time>
      </trkpt>
      <trkpt lat="43.14446" lon="5.9802">
        <ele>106</ele>
        <time>2016-07-30T08:47:25.029Z</time>
      </trkpt>
      <trkpt lat="43.14449" lon="5.9802">
        <ele>106</ele>
        <time>2016-07-30T08:47:26.029Z</time>
      </trkpt>
      <trkpt lat="43.14452" lon="5.9802">
        <ele>106</ele>
        <time>2016-07-30T08:47:27.029Z</time>
      </trkpt>
      <trkpt lat="43.14454" lon="5.9802">
        <ele>106</ele>
        <time>2016-07-30T08:47:28.029Z</time>
      </trkpt>
      <trkpt lat="43.14457" lon="5.9802">
        <ele>106</ele>
        <time>2016-07-30T08:47:29.029Z</time>
      </trkpt>
      <trkpt lat="43.14459" lon="5.98019">
        <ele>106</ele>
        <time>2016-07-30T08:47:30.029Z</time>
      </trkpt>
      <trkpt lat="43.14462" lon="5.98019">
        <ele>106</ele>
        <time>2016-07-30T08:47:31.029Z</time>
      </trkpt>
      <trkpt lat="43.14464" lon="5.98018">
        <ele>105</ele>
        <time>2016-07-30T08:47:32.029Z</time>
      </trkpt>
      <trkpt lat="43.14467" lon="5.98017">
        <ele>106</ele>
        <time>2016-07-30T08:47:33.029Z</time>
      </trkpt>
      <trkpt lat="43.14469" lon="5.98015">
        <ele>107</ele>
        <time>2016-07-30T08:47:34.029Z</time>
      </trkpt>
      <trkpt lat="43.14472" lon="5.98013">
        <ele>107</ele>
        <time>2016-07-30T08:47:35.029Z</time>
      </trkpt>
      <trkpt lat="43.14474" lon="5.98012">
        <ele>107</ele>
        <time>2016-07-30T08:47:36.029Z</time>
      </trkpt>
      <trkpt lat="43.14476" lon="5.9801">
        <ele>107</ele>
        <time>2016-07-30T08:47:37.029Z</time>
      </trkpt>
      <trkpt lat="43.14478" lon="5.98008">
        <ele>107</ele>
        <time>2016-07-30T08:47:38.029Z</time>
      </trkpt>
      <trkpt lat="43.14481" lon="5.98006">
        <ele>107</ele>
        <time>2016-07-30T08:47:39.029Z</time>
      </trkpt>
      <trkpt lat="43.14483" lon="5.98004">
        <ele>107</ele>
        <time>2016-07-30T08:47:40.029Z</time>
      </trkpt>
      <trkpt lat="43.14485" lon="5.98002">
        <ele>107</ele>
        <time>2016-07-30T08:47:41.029Z</time>
      </trkpt>
      <trkpt lat="43.14487" lon="5.98">
        <ele>107</ele>
        <time>2016-07-30T08:47:42.029Z</time>
      </trkpt>
      <trkpt lat="43.1449" lon="5.97998">
        <ele>107</ele>
        <time>2016-07-30T08:47:43.029Z</time>
      </trkpt>
      <trkpt lat="43.14492" lon="5.97996">
        <ele>107</ele>
        <time>2016-07-30T08:47:44.029Z</time>
      </trkpt>
      <trkpt lat="43.14495" lon="5.97994">
        <ele>107</ele>
        <time>2016-07-30T08:47:45.029Z</time>
      </trkpt>
      <trkpt lat="43.14497" lon="5.97991">
        <ele>107</ele>
        <time>2016-07-30T08:47:46.029Z</time>
      </trkpt>
      <trkpt lat="43.145" lon="5.97988">
        <ele>108</ele>
        <time>2016-07-30T08:47:47.029Z</time>
      </trkpt>
      <trkpt lat="43.14503" lon="5.97985">
        <ele>108</ele>
        <time>2016-07-30T08:47:48.029Z</time>
      </trkpt>
      <trkpt lat="43.14505" lon="5.97983">
        <ele>108</ele>
        <time>2016-07-30T08:47:49.029Z</time>
      </trkpt>
      <trkpt lat="43.14508" lon="5.9798">
        <ele>109</ele>
        <time>2016-07-30T08:47:50.029Z</time>
      </trkpt>
      <trkpt lat="43.1451" lon="5.97978">
        <ele>109</ele>
        <time>2016-07-30T08:47:51.029Z</time>
      </trkpt>
      <trkpt lat="43.14513" lon="5.97975">
        <ele>109</ele>
        <time>2016-07-30T08:47:52.029Z</time>
      </trkpt>
      <trkpt lat="43.14515" lon="5.97972">
        <ele>108</ele>
        <time>2016-07-30T08:47:53.029Z</time>
      </trkpt>
      <trkpt lat="43.14518" lon="5.9797">
        <ele>108</ele>
        <time>2016-07-30T08:47:54.029Z</time>
      </trkpt>
      <trkpt lat="43.1452" lon="5.97967">
        <ele>108</ele>
        <time>2016-07-30T08:47:55.029Z</time>
      </trkpt>
      <trkpt lat="43.14523" lon="5.97964">
        <ele>109</ele>
        <time>2016-07-30T08:47:56.029Z</time>
      </trkpt>
      <trkpt lat="43.14525" lon="5.97962">
        <ele>109</ele>
        <time>2016-07-30T08:47:57.029Z</time>
      </trkpt>
      <trkpt lat="43.14527" lon="5.97959">
        <ele>108</ele>
        <time>2016-07-30T08:47:58.029Z</time>
      </trkpt>
      <trkpt lat="43.14529" lon="5.97956">
        <ele>108</ele>
        <time>2016-07-30T08:47:59.029Z</time>
      </trkpt>
      <trkpt lat="43.14531" lon="5.97953">
        <ele>108</ele>
        <time>2016-07-30T08:48:00.029Z</time>
      </trkpt>
      <trkpt lat="43.14533" lon="5.97951">
        <ele>107</ele>
        <time>2016-07-30T08:48:01.029Z</time>
      </trkpt>
      <trkpt lat="43.14535" lon="5.97948">
        <ele>107</ele>
        <time>2016-07-30T08:48:02.029Z</time>
      </trkpt>
      <trkpt lat="43.14537" lon="5.97945">
        <ele>108</ele>
        <time>2016-07-30T08:48:03.029Z</time>
      </trkpt>
      <trkpt lat="43.1454" lon="5.97942">
        <ele>108</ele>
        <time>2016-07-30T08:48:04.029Z</time>
      </trkpt>
      <trkpt lat="43.14542" lon="5.97939">
        <ele>108</ele>
        <time>2016-07-30T08:48:05.029Z</time>
      </trkpt>
      <trkpt lat="43.14544" lon="5.97936">
        <ele>108</ele>
        <time>2016-07-30T08:48:06.029Z</time>
      </trkpt>
      <trkpt lat="43.14547" lon="5.97932">
        <ele>109</ele>
        <time>2016-07-30T08:48:07.029Z</time>
      </trkpt>
      <trkpt lat="43.14549" lon="5.97929">
        <ele>108</ele>
        <time>2016-07-30T08:48:08.029Z</time>
      </trkpt>
      <trkpt lat="43.14551" lon="5.97926">
        <ele>109</ele>
        <time>2016-07-30T08:48:09.029Z</time>
      </trkpt>
      <trkpt lat="43.14554" lon="5.97923">
        <ele>108</ele>
        <time>2016-07-30T08:48:10.029Z</time>
      </trkpt>
      <trkpt lat="43.14556" lon="5.97921">
        <ele>109</ele>
        <time>2016-07-30T08:48:11.029Z</time>
      </trkpt>
      <trkpt lat="43.14558" lon="5.97918">
        <ele>108</ele>
        <time>2016-07-30T08:48:12.029Z</time>
      </trkpt>
      <trkpt lat="43.14561" lon="5.97915">
        <ele>109</ele>
        <time>2016-07-30T08:48:13.029Z</time>
      </trkpt>
      <trkpt lat="43.14563" lon="5.97912">
        <ele>109</ele>
        <time>2016-07-30T08:48:14.029Z</time>
      </trkpt>
      <trkpt lat="43.14566" lon="5.9791">
        <ele>109</ele>
        <time>2016-07-30T08:48:15.029Z</time>
      </trkpt>
      <trkpt lat="43.14568" lon="5.97907">
        <ele>109</ele>
        <time>2016-07-30T08:48:16.029Z</time>
      </trkpt>
      <trkpt lat="43.14571" lon="5.97904">
        <ele>109</ele>
        <time>2016-07-30T08:48:17.029Z</time>
      </trkpt>
      <trkpt lat="43.14573" lon="5.97901">
        <ele>109</ele>
        <time>2016-07-30T08:48:18.029Z</time>
      </trkpt>
      <trkpt lat="43.14576" lon="5.97898">
        <ele>110</ele>
        <time>2016-07-30T08:48:19.029Z</time>
      </trkpt>
      <trkpt lat="43.14579" lon="5.97895">
        <ele>110</ele>
        <time>2016-07-30T08:48:20.029Z</time>
      </trkpt>
      <trkpt lat="43.14581" lon="5.97891">
        <ele>111</ele>
        <time>2016-07-30T08:48:21.029Z</time>
      </trkpt>
      <trkpt lat="43.14584" lon="5.97888">
        <ele>111</ele>
        <time>2016-07-30T08:48:22.029Z</time>
      </trkpt>
      <trkpt lat="43.14587" lon="5.97886">
        <ele>112</ele>
        <time>2016-07-30T08:48:23.029Z</time>
      </trkpt>
      <trkpt lat="43.1459" lon="5.97883">
        <ele>112</ele>
        <time>2016-07-30T08:48:24.029Z</time>
      </trkpt>
      <trkpt lat="43.14593" lon="5.97881">
        <ele>112</ele>
        <time>2016-07-30T08:48:25.029Z</time>
      </trkpt>
      <trkpt lat="43.14597" lon="5.97879">
        <ele>113</ele>
        <time>2016-07-30T08:48:26.029Z</time>
      </trkpt>
      <trkpt lat="43.146" lon="5.97877">
        <ele>113</ele>
        <time>2016-07-30T08:48:27.029Z</time>
      </trkpt>
      <trkpt lat="43.14603" lon="5.97874">
        <ele>113</ele>
        <time>2016-07-30T08:48:28.029Z</time>
      </trkpt>
      <trkpt lat="43.14607" lon="5.97871">
        <ele>113</ele>
        <time>2016-07-30T08:48:29.029Z</time>
      </trkpt>
      <trkpt lat="43.1461" lon="5.97869">
        <ele>113</ele>
        <time>2016-07-30T08:48:30.029Z</time>
      </trkpt>
      <trkpt lat="43.14614" lon="5.97866">
        <ele>113</ele>
        <time>2016-07-30T08:48:31.029Z</time>
      </trkpt>
      <trkpt lat="43.14618" lon="5.97863">
        <ele>114</ele>
        <time>2016-07-30T08:48:32.029Z</time>
      </trkpt>
      <trkpt lat="43.14622" lon="5.97861">
        <ele>114</ele>
        <time>2016-07-30T08:48:33.029Z</time>
      </trkpt>
      <trkpt lat="43.14625" lon="5.97858">
        <ele>115</ele>
        <time>2016-07-30T08:48:34.029Z</time>
      </trkpt>
      <trkpt lat="43.14629" lon="5.97855">
        <ele>115</ele>
        <time>2016-07-30T08:48:35.029Z</time>
      </trkpt>
      <trkpt lat="43.14633" lon="5.97853">
        <ele>116</ele>
        <time>2016-07-30T08:48:36.029Z</time>
      </trkpt>
      <trkpt lat="43.14637" lon="5.9785">
        <ele>116</ele>
        <time>2016-07-30T08:48:37.029Z</time>
      </trkpt>
      <trkpt lat="43.14641" lon="5.97848">
        <ele>117</ele>
        <time>2016-07-30T08:48:38.029Z</time>
      </trkpt>
      <trkpt lat="43.14645" lon="5.97845">
        <ele>118</ele>
        <time>2016-07-30T08:48:39.029Z</time>
      </trkpt>
      <trkpt lat="43.14649" lon="5.97842">
        <ele>118</ele>
        <time>2016-07-30T08:48:40.029Z</time>
      </trkpt>
      <trkpt lat="43.14653" lon="5.97838">
        <ele>118</ele>
        <time>2016-07-30T08:48:41.029Z</time>
      </trkpt>
      <trkpt lat="43.14657" lon="5.97835">
        <ele>118</ele>
        <time>2016-07-30T08:48:42.029Z</time>
      </trkpt>
      <trkpt lat="43.14661" lon="5.97832">
        <ele>119</ele>
        <time>2016-07-30T08:48:43.029Z</time>
      </trkpt>
      <trkpt lat="43.14665" lon="5.97828">
        <ele>118</ele>
        <time>2016-07-30T08:48:44.029Z</time>
      </trkpt>
      <trkpt lat="43.14669" lon="5.97824">
        <ele>118</ele>
        <time>2016-07-30T08:48:45.029Z</time>
      </trkpt>
      <trkpt lat="43.14674" lon="5.9782">
        <ele>118</ele>
        <time>2016-07-30T08:48:46.029Z</time>
      </trkpt>
      <trkpt lat="43.14679" lon="5.97817">
        <ele>117</ele>
        <time>2016-07-30T08:48:47.029Z</time>
      </trkpt>
      <trkpt lat="43.14683" lon="5.97814">
        <ele>117</ele>
        <time>2016-07-30T08:48:48.029Z</time>
      </trkpt>
      <trkpt lat="43.14689" lon="5.97811">
        <ele>116</ele>
        <time>2016-07-30T08:48:49.029Z</time>
      </trkpt>
      <trkpt lat="43.14694" lon="5.97808">
        <ele>116</ele>
        <time>2016-07-30T08:48:50.029Z</time>
      </trkpt>
      <trkpt lat="43.147" lon="5.97806">
        <ele>116</ele>
        <time>2016-07-30T08:48:51.029Z</time>
      </trkpt>
      <trkpt lat="43.14705" lon="5.97805">
        <ele>117</ele>
        <time>2016-07-30T08:48:52.029Z</time>
      </trkpt>
      <trkpt lat="43.14711" lon="5.97807">
        <ele>118</ele>
        <time>2016-07-30T08:48:53.029Z</time>
      </trkpt>
      <trkpt lat="43.14717" lon="5.97811">
        <ele>117</ele>
        <time>2016-07-30T08:48:54.029Z</time>
      </trkpt>
      <trkpt lat="43.14723" lon="5.9782">
        <ele>109</ele>
        <time>2016-07-30T08:48:55.029Z</time>
      </trkpt>
      <trkpt lat="43.14727" lon="5.97829">
        <ele>108</ele>
        <time>2016-07-30T08:48:56.029Z</time>
      </trkpt>
      <trkpt lat="43.14732" lon="5.97839">
        <ele>108</ele>
        <time>2016-07-30T08:48:57.029Z</time>
      </trkpt>
      <trkpt lat="43.14737" lon="5.97845">
        <ele>105</ele>
        <time>2016-07-30T08:48:58.029Z</time>
      </trkpt>
      <trkpt lat="43.14743" lon="5.9785">
        <ele>102</ele>
        <time>2016-07-30T08:48:59.029Z</time>
      </trkpt>
      <trkpt lat="43.14749" lon="5.97852">
        <ele>100</ele>
        <time>2016-07-30T08:49:00.029Z</time>
      </trkpt>
      <trkpt lat="43.14755" lon="5.97851">
        <ele>97</ele>
        <time>2016-07-30T08:49:01.029Z</time>
      </trkpt>
      <trkpt lat="43.14761" lon="5.97848">
        <ele>100</ele>
        <time>2016-07-30T08:49:02.029Z</time>
      </trkpt>
      <trkpt lat="43.14766" lon="5.97842">
        <ele>104</ele>
        <time>2016-07-30T08:49:03.029Z</time>
      </trkpt>
      <trkpt lat="43.1477" lon="5.97833">
        <ele>105</ele>
        <time>2016-07-30T08:49:04.029Z</time>
      </trkpt>
      <trkpt lat="43.14772" lon="5.97824">
        <ele>106</ele>
        <time>2016-07-30T08:49:05.029Z</time>
      </trkpt>
      <trkpt lat="43.14772" lon="5.97815">
        <ele>107</ele>
        <time>2016-07-30T08:49:06.029Z</time>
      </trkpt>
      <trkpt lat="43.14773" lon="5.97807">
        <ele>108</ele>
        <time>2016-07-30T08:49:07.029Z</time>
      </trkpt>
      <trkpt lat="43.14774" lon="5.97799">
        <ele>108</ele>
        <time>2016-07-30T08:49:08.029Z</time>
      </trkpt>
      <trkpt lat="43.14776" lon="5.97792">
        <ele>108</ele>
        <time>2016-07-30T08:49:09.029Z</time>
      </trkpt>
      <trkpt lat="43.14779" lon="5.97786">
        <ele>109</ele>
        <time>2016-07-30T08:49:10.029Z</time>
      </trkpt>
      <trkpt lat="43.14781" lon="5.97779">
        <ele>109</ele>
        <time>2016-07-30T08:49:11.029Z</time>
      </trkpt>
      <trkpt lat="43.14783" lon="5.97773">
        <ele>109</ele>
        <time>2016-07-30T08:49:12.029Z</time>
      </trkpt>
      <trkpt lat="43.14785" lon="5.97767">
        <ele>110</ele>
        <time>2016-07-30T08:49:13.029Z</time>
      </trkpt>
      <trkpt lat="43.14787" lon="5.97761">
        <ele>110</ele>
        <time>2016-07-30T08:49:14.029Z</time>
      </trkpt>
      <trkpt lat="43.14789" lon="5.97755">
        <ele>110</ele>
        <time>2016-07-30T08:49:15.029Z</time>
      </trkpt>
      <trkpt lat="43.14791" lon="5.97749">
        <ele>111</ele>
        <time>2016-07-30T08:49:16.029Z</time>
      </trkpt>
      <trkpt lat="43.14793" lon="5.97743">
        <ele>111</ele>
        <time>2016-07-30T08:49:17.029Z</time>
      </trkpt>
      <trkpt lat="43.14795" lon="5.97737">
        <ele>111</ele>
        <time>2016-07-30T08:49:18.029Z</time>
      </trkpt>
      <trkpt lat="43.14797" lon="5.97731">
        <ele>112</ele>
        <time>2016-07-30T08:49:19.029Z</time>
      </trkpt>
      <trkpt lat="43.14799" lon="5.97726">
        <ele>112</ele>
        <time>2016-07-30T08:49:20.029Z</time>
      </trkpt>
      <trkpt lat="43.14801" lon="5.9772">
        <ele>112</ele>
        <time>2016-07-30T08:49:21.029Z</time>
      </trkpt>
      <trkpt lat="43.14803" lon="5.97714">
        <ele>113</ele>
        <time>2016-07-30T08:49:22.029Z</time>
      </trkpt>
      <trkpt lat="43.14804" lon="5.97709">
        <ele>113</ele>
        <time>2016-07-30T08:49:23.029Z</time>
      </trkpt>
      <trkpt lat="43.14806" lon="5.97703">
        <ele>113</ele>
        <time>2016-07-30T08:49:24.029Z</time>
      </trkpt>
      <trkpt lat="43.14808" lon="5.97698">
        <ele>114</ele>
        <time>2016-07-30T08:49:25.029Z</time>
      </trkpt>
      <trkpt lat="43.1481" lon="5.97693">
        <ele>114</ele>
        <time>2016-07-30T08:49:26.029Z</time>
      </trkpt>
      <trkpt lat="43.14812" lon="5.97688">
        <ele>114</ele>
        <time>2016-07-30T08:49:27.029Z</time>
      </trkpt>
      <trkpt lat="43.14813" lon="5.97683">
        <ele>115</ele>
        <time>2016-07-30T08:49:28.029Z</time>
      </trkpt>
      <trkpt lat="43.14815" lon="5.97678">
        <ele>114</ele>
        <time>2016-07-30T08:49:29.029Z</time>
      </trkpt>
      <trkpt lat="43.14816" lon="5.97673">
        <ele>114</ele>
        <time>2016-07-30T08:49:30.029Z</time>
      </trkpt>
      <trkpt lat="43.14818" lon="5.97669">
        <ele>114</ele>
        <time>2016-07-30T08:49:31.029Z</time>
      </trkpt>
      <trkpt lat="43.1482" lon="5.97664">
        <ele>114</ele>
        <time>2016-07-30T08:49:32.029Z</time>
      </trkpt>
      <trkpt lat="43.14821" lon="5.9766">
        <ele>114</ele>
        <time>2016-07-30T08:49:33.029Z</time>
      </trkpt>
      <trkpt lat="43.14823" lon="5.97655">
        <ele>114</ele>
        <time>2016-07-30T08:49:34.029Z</time>
      </trkpt>
      <trkpt lat="43.14825" lon="5.97651">
        <ele>115</ele>
        <time>2016-07-30T08:49:35.029Z</time>
      </trkpt>
      <trkpt lat="43.14827" lon="5.97647">
        <ele>115</ele>
        <time>2016-07-30T08:49:36.029Z</time>
      </trkpt>
      <trkpt lat="43.14829" lon="5.97642">
        <ele>115</ele>
        <time>2016-07-30T08:49:37.029Z</time>
      </trkpt>
      <trkpt lat="43.14831" lon="5.97638">
        <ele>115</ele>
        <time>2016-07-30T08:49:38.029Z</time>
      </trkpt>
      <trkpt lat="43.14832" lon="5.97634">
        <ele>116</ele>
        <time>2016-07-30T08:49:39.029Z</time>
      </trkpt>
      <trkpt lat="43.14834" lon="5.9763">
        <ele>116</ele>
        <time>2016-07-30T08:49:40.029Z</time>
      </trkpt>
      <trkpt lat="43.14836" lon="5.97626">
        <ele>116</ele>
        <time>2016-07-30T08:49:41.029Z</time>
      </trkpt>
      <trkpt lat="43.14838" lon="5.97622">
        <ele>116</ele>
        <time>2016-07-30T08:49:42.029Z</time>
      </trkpt>
      <trkpt lat="43.14839" lon="5.97618">
        <ele>116</ele>
        <time>2016-07-30T08:49:43.029Z</time>
      </trkpt>
      <trkpt lat="43.14841" lon="5.97614">
        <ele>116</ele>
        <time>2016-07-30T08:49:44.029Z</time>
      </trkpt>
      <trkpt lat="43.14842" lon="5.9761">
        <ele>116</ele>
        <time>2016-07-30T08:49:45.029Z</time>
      </trkpt>
      <trkpt lat="43.14844" lon="5.97606">
        <ele>116</ele>
        <time>2016-07-30T08:49:46.029Z</time>
      </trkpt>
      <trkpt lat="43.14845" lon="5.97602">
        <ele>117</ele>
        <time>2016-07-30T08:49:47.029Z</time>
      </trkpt>
      <trkpt lat="43.14847" lon="5.97597">
        <ele>118</ele>
        <time>2016-07-30T08:49:48.029Z</time>
      </trkpt>
      <trkpt lat="43.14849" lon="5.97592">
        <ele>118</ele>
        <time>2016-07-30T08:49:49.029Z</time>
      </trkpt>
      <trkpt lat="43.1485" lon="5.97588">
        <ele>117</ele>
        <time>2016-07-30T08:49:50.029Z</time>
      </trkpt>
      <trkpt lat="43.14851" lon="5.97584">
        <ele>118</ele>
        <time>2016-07-30T08:49:51.029Z</time>
      </trkpt>
      <trkpt lat="43.14853" lon="5.97579">
        <ele>119</ele>
        <time>2016-07-30T08:49:52.029Z</time>
      </trkpt>
      <trkpt lat="43.14854" lon="5.97574">
        <ele>119</ele>
        <time>2016-07-30T08:49:53.029Z</time>
      </trkpt>
      <trkpt lat="43.14855" lon="5.97569">
        <ele>120</ele>
        <time>2016-07-30T08:49:54.029Z</time>
      </trkpt>
      <trkpt lat="43.14856" lon="5.97565">
        <ele>121</ele>
        <time>2016-07-30T08:49:55.029Z</time>
      </trkpt>
      <trkpt lat="43.14857" lon="5.9756">
        <ele>122</ele>
        <time>2016-07-30T08:49:56.029Z</time>
      </trkpt>
      <trkpt lat="43.14858" lon="5.97556">
        <ele>122</ele>
        <time>2016-07-30T08:49:57.029Z</time>
      </trkpt>
      <trkpt lat="43.14859" lon="5.97551">
        <ele>122</ele>
        <time>2016-07-30T08:49:58.029Z</time>
      </trkpt>
      <trkpt lat="43.1486" lon="5.97547">
        <ele>123</ele>
        <time>2016-07-30T08:49:59.029Z</time>
      </trkpt>
      <trkpt lat="43.14861" lon="5.97543">
        <ele>123</ele>
        <time>2016-07-30T08:50:00.029Z</time>
      </trkpt>
      <trkpt lat="43.14862" lon="5.97539">
        <ele>124</ele>
        <time>2016-07-30T08:50:01.029Z</time>
      </trkpt>
      <trkpt lat="43.14863" lon="5.97535">
        <ele>124</ele>
        <time>2016-07-30T08:50:02.029Z</time>
      </trkpt>
      <trkpt lat="43.14864" lon="5.97531">
        <ele>125</ele>
        <time>2016-07-30T08:50:03.029Z</time>
      </trkpt>
      <trkpt lat="43.14865" lon="5.97527">
        <ele>125</ele>
        <time>2016-07-30T08:50:04.029Z</time>
      </trkpt>
      <trkpt lat="43.14866" lon="5.97523">
        <ele>126</ele>
        <time>2016-07-30T08:50:05.029Z</time>
      </trkpt>
      <trkpt lat="43.14867" lon="5.97519">
        <ele>126</ele>
        <time>2016-07-30T08:50:06.029Z</time>
      </trkpt>
      <trkpt lat="43.14868" lon="5.97515">
        <ele>126</ele>
        <time>2016-07-30T08:50:07.029Z</time>
      </trkpt>
      <trkpt lat="43.14869" lon="5.97511">
        <ele>126</ele>
        <time>2016-07-30T08:50:08.029Z</time>
      </trkpt>
      <trkpt lat="43.1487" lon="5.97508">
        <ele>127</ele>
        <time>2016-07-30T08:50:09.029Z</time>
      </trkpt>
      <trkpt lat="43.14871" lon="5.97504">
        <ele>127</ele>
        <time>2016-07-30T08:50:10.029Z</time>
      </trkpt>
      <trkpt lat="43.14872" lon="5.975">
        <ele>127</ele>
        <time>2016-07-30T08:50:11.029Z</time>
      </trkpt>
      <trkpt lat="43.14872" lon="5.97496">
        <ele>127</ele>
        <time>2016-07-30T08:50:12.029Z</time>
      </trkpt>
      <trkpt lat="43.14873" lon="5.97492">
        <ele>127</ele>
        <time>2016-07-30T08:50:13.029Z</time>
      </trkpt>
      <trkpt lat="43.14874" lon="5.97489">
        <ele>128</ele>
        <time>2016-07-30T08:50:14.029Z</time>
      </trkpt>
      <trkpt lat="43.14875" lon="5.97485">
        <ele>128</ele>
        <time>2016-07-30T08:50:15.029Z</time>
      </trkpt>
      <trkpt lat="43.14875" lon="5.97481">
        <ele>128</ele>
        <time>2016-07-30T08:50:16.029Z</time>
      </trkpt>
      <trkpt lat="43.14876" lon="5.97478">
        <ele>128</ele>
        <time>2016-07-30T08:50:17.029Z</time>
      </trkpt>
      <trkpt lat="43.14877" lon="5.97474">
        <ele>128</ele>
        <time>2016-07-30T08:50:18.029Z</time>
      </trkpt>
      <trkpt lat="43.14878" lon="5.9747">
        <ele>128</ele>
        <time>2016-07-30T08:50:19.029Z</time>
      </trkpt>
      <trkpt lat="43.1488" lon="5.97467">
        <ele>128</ele>
        <time>2016-07-30T08:50:20.029Z</time>
      </trkpt>
      <trkpt lat="43.14881" lon="5.97463">
        <ele>129</ele>
        <time>2016-07-30T08:50:21.029Z</time>
      </trkpt>
      <trkpt lat="43.14882" lon="5.97459">
        <ele>129</ele>
        <time>2016-07-30T08:50:22.029Z</time>
      </trkpt>
      <trkpt lat="43.14883" lon="5.97455">
        <ele>129</ele>
        <time>2016-07-30T08:50:23.029Z</time>
      </trkpt>
      <trkpt lat="43.14884" lon="5.97451">
        <ele>129</ele>
        <time>2016-07-30T08:50:24.029Z</time>
      </trkpt>
      <trkpt lat="43.14885" lon="5.97448">
        <ele>130</ele>
        <time>2016-07-30T08:50:25.029Z</time>
      </trkpt>
      <trkpt lat="43.14886" lon="5.97444">
        <ele>130</ele>
        <time>2016-07-30T08:50:26.029Z</time>
      </trkpt>
      <trkpt lat="43.14888" lon="5.97441">
        <ele>130</ele>
        <time>2016-07-30T08:50:27.029Z</time>
      </trkpt>
      <trkpt lat="43.14889" lon="5.97437">
        <ele>130</ele>
        <time>2016-07-30T08:50:28.029Z</time>
      </trkpt>
      <trkpt lat="43.1489" lon="5.97433">
        <ele>130</ele>
        <time>2016-07-30T08:50:29.029Z</time>
      </trkpt>
      <trkpt lat="43.14892" lon="5.97429">
        <ele>130</ele>
        <time>2016-07-30T08:50:30.029Z</time>
      </trkpt>
      <trkpt lat="43.14893" lon="5.97426">
        <ele>131</ele>
        <time>2016-07-30T08:50:31.029Z</time>
      </trkpt>
      <trkpt lat="43.14894" lon="5.97422">
        <ele>131</ele>
        <time>2016-07-30T08:50:32.029Z</time>
      </trkpt>
      <trkpt lat="43.14896" lon="5.97419">
        <ele>131</ele>
        <time>2016-07-30T08:50:33.029Z</time>
      </trkpt>
      <trkpt lat="43.14897" lon="5.97415">
        <ele>131</ele>
        <time>2016-07-30T08:50:34.029Z</time>
      </trkpt>
      <trkpt lat="43.14898" lon="5.97412">
        <ele>132</ele>
        <time>2016-07-30T08:50:35.029Z</time>
      </trkpt>
      <trkpt lat="43.149" lon="5.97408">
        <ele>132</ele>
        <time>2016-07-30T08:50:36.029Z</time>
      </trkpt>
      <trkpt lat="43.14901" lon="5.97405">
        <ele>132</ele>
        <time>2016-07-30T08:50:37.029Z</time>
      </trkpt>
      <trkpt lat="43.14903" lon="5.97401">
        <ele>132</ele>
        <time>2016-07-30T08:50:38.029Z</time>
      </trkpt>
      <trkpt lat="43.14904" lon="5.97398">
        <ele>133</ele>
        <time>2016-07-30T08:50:39.029Z</time>
      </trkpt>
      <trkpt lat="43.14906" lon="5.97394">
        <ele>133</ele>
        <time>2016-07-30T08:50:40.029Z</time>
      </trkpt>
      <trkpt lat="43.14907" lon="5.97391">
        <ele>133</ele>
        <time>2016-07-30T08:50:41.029Z</time>
      </trkpt>
      <trkpt lat="43.14909" lon="5.97388">
        <ele>132</ele>
        <time>2016-07-30T08:50:42.029Z</time>
      </trkpt>
      <trkpt lat="43.1491" lon="5.97385">
        <ele>133</ele>
        <time>2016-07-30T08:50:43.029Z</time>
      </trkpt>
      <trkpt lat="43.14912" lon="5.97382">
        <ele>133</ele>
        <time>2016-07-30T08:50:44.029Z</time>
      </trkpt>
      <trkpt lat="43.14913" lon="5.97379">
        <ele>133</ele>
        <time>2016-07-30T08:50:45.029Z</time>
      </trkpt>
      <trkpt lat="43.14915" lon="5.97376">
        <ele>133</ele>
        <time>2016-07-30T08:50:46.029Z</time>
      </trkpt>
      <trkpt lat="43.14917" lon="5.97373">
        <ele>133</ele>
        <time>2016-07-30T08:50:47.029Z</time>
      </trkpt>
      <trkpt lat="43.14919" lon="5.9737">
        <ele>133</ele>
        <time>2016-07-30T08:50:48.029Z</time>
      </trkpt>
      <trkpt lat="43.14921" lon="5.97367">
        <ele>133</ele>
        <time>2016-07-30T08:50:49.029Z</time>
      </trkpt>
      <trkpt lat="43.14923" lon="5.97364">
        <ele>134</ele>
        <time>2016-07-30T08:50:50.029Z</time>
      </trkpt>
      <trkpt lat="43.14924" lon="5.97361">
        <ele>134</ele>
        <time>2016-07-30T08:50:51.029Z</time>
      </trkpt>
      <trkpt lat="43.14926" lon="5.97358">
        <ele>135</ele>
        <time>2016-07-30T08:50:52.029Z</time>
      </trkpt>
      <trkpt lat="43.14928" lon="5.97355">
        <ele>135</ele>
        <time>2016-07-30T08:50:53.029Z</time>
      </trkpt>
      <trkpt lat="43.1493" lon="5.97352">
        <ele>135</ele>
        <time>2016-07-30T08:50:54.029Z</time>
      </trkpt>
      <trkpt lat="43.14931" lon="5.9735">
        <ele>136</ele>
        <time>2016-07-30T08:50:55.029Z</time>
      </trkpt>
      <trkpt lat="43.14933" lon="5.97347">
        <ele>136</ele>
        <time>2016-07-30T08:50:56.029Z</time>
      </trkpt>
      <trkpt lat="43.14935" lon="5.97344">
        <ele>137</ele>
        <time>2016-07-30T08:50:57.029Z</time>
      </trkpt>
      <trkpt lat="43.14937" lon="5.97341">
        <ele>138</ele>
        <time>2016-07-30T08:50:58.029Z</time>
      </trkpt>
      <trkpt lat="43.14938" lon="5.97338">
        <ele>138</ele>
        <time>2016-07-30T08:50:59.029Z</time>
      </trkpt>
      <trkpt lat="43.1494" lon="5.97335">
        <ele>138</ele>
        <time>2016-07-30T08:51:00.029Z</time>
      </trkpt>
      <trkpt lat="43.14942" lon="5.97332">
        <ele>138</ele>
        <time>2016-07-30T08:51:01.029Z</time>
      </trkpt>
      <trkpt lat="43.14943" lon="5.9733">
        <ele>139</ele>
        <time>2016-07-30T08:51:02.029Z</time>
      </trkpt>
      <trkpt lat="43.14945" lon="5.97327">
        <ele>139</ele>
        <time>2016-07-30T08:51:03.029Z</time>
      </trkpt>
      <trkpt lat="43.14947" lon="5.97324">
        <ele>139</ele>
        <time>2016-07-30T08:51:04.029Z</time>
      </trkpt>
      <trkpt lat="43.14948" lon="5.97321">
        <ele>139</ele>
        <time>2016-07-30T08:51:05.029Z</time>
      </trkpt>
      <trkpt lat="43.1495" lon="5.97318">
        <ele>139</ele>
        <time>2016-07-30T08:51:06.029Z</time>
      </trkpt>
      <trkpt lat="43.14952" lon="5.97316">
        <ele>139</ele>
        <time>2016-07-30T08:51:07.029Z</time>
      </trkpt>
      <trkpt lat="43.14953" lon="5.97313">
        <ele>139</ele>
        <time>2016-07-30T08:51:08.029Z</time>
      </trkpt>
      <trkpt lat="43.14955" lon="5.97311">
        <ele>139</ele>
        <time>2016-07-30T08:51:09.029Z</time>
      </trkpt>
      <trkpt lat="43.14957" lon="5.97308">
        <ele>139</ele>
        <time>2016-07-30T08:51:10.029Z</time>
      </trkpt>
      <trkpt lat="43.14959" lon="5.97306">
        <ele>140</ele>
        <time>2016-07-30T08:51:11.029Z</time>
      </trkpt>
      <trkpt lat="43.14961" lon="5.97303">
        <ele>140</ele>
        <time>2016-07-30T08:51:12.029Z</time>
      </trkpt>
      <trkpt lat="43.14962" lon="5.973">
        <ele>141</ele>
        <time>2016-07-30T08:51:13.029Z</time>
      </trkpt>
      <trkpt lat="43.14964" lon="5.97297">
        <ele>141</ele>
        <time>2016-07-30T08:51:14.029Z</time>
      </trkpt>
      <trkpt lat="43.14966" lon="5.97295">
        <ele>141</ele>
        <time>2016-07-30T08:51:15.029Z</time>
      </trkpt>
      <trkpt lat="43.14967" lon="5.97292">
        <ele>142</ele>
        <time>2016-07-30T08:51:16.029Z</time>
      </trkpt>
      <trkpt lat="43.14969" lon="5.97289">
        <ele>142</ele>
        <time>2016-07-30T08:51:17.029Z</time>
      </trkpt>
      <trkpt lat="43.14971" lon="5.97287">
        <ele>142</ele>
        <time>2016-07-30T08:51:18.029Z</time>
      </trkpt>
      <trkpt lat="43.14972" lon="5.97284">
        <ele>142</ele>
        <time>2016-07-30T08:51:19.029Z</time>
      </trkpt>
      <trkpt lat="43.14974" lon="5.97282">
        <ele>143</ele>
        <time>2016-07-30T08:51:20.029Z</time>
      </trkpt>
      <trkpt lat="43.14976" lon="5.97279">
        <ele>143</ele>
        <time>2016-07-30T08:51:21.029Z</time>
      </trkpt>
      <trkpt lat="43.14977" lon="5.97276">
        <ele>144</ele>
        <time>2016-07-30T08:51:22.029Z</time>
      </trkpt>
      <trkpt lat="43.14979" lon="5.97273">
        <ele>144</ele>
        <time>2016-07-30T08:51:23.029Z</time>
      </trkpt>
      <trkpt lat="43.14981" lon="5.97271">
        <ele>144</ele>
        <time>2016-07-30T08:51:24.029Z</time>
      </trkpt>
      <trkpt lat="43.14982" lon="5.97268">
        <ele>144</ele>
        <time>2016-07-30T08:51:25.029Z</time>
      </trkpt>
      <trkpt lat="43.14984" lon="5.97266">
        <ele>144</ele>
        <time>2016-07-30T08:51:26.029Z</time>
      </trkpt>
      <trkpt lat="43.14985" lon="5.97263">
        <ele>144</ele>
        <time>2016-07-30T08:51:27.029Z</time>
      </trkpt>
      <trkpt lat="43.14987" lon="5.97261">
        <ele>144</ele>
        <time>2016-07-30T08:51:28.029Z</time>
      </trkpt>
      <trkpt lat="43.14989" lon="5.97259">
        <ele>145</ele>
        <time>2016-07-30T08:51:29.029Z</time>
      </trkpt>
      <trkpt lat="43.1499" lon="5.97256">
        <ele>145</ele>
        <time>2016-07-30T08:51:30.029Z</time>
      </trkpt>
      <trkpt lat="43.14992" lon="5.97254">
        <ele>145</ele>
        <time>2016-07-30T08:51:31.029Z</time>
      </trkpt>
      <trkpt lat="43.14993" lon="5.97251">
        <ele>145</ele>
        <time>2016-07-30T08:51:32.029Z</time>
      </trkpt>
      <trkpt lat="43.14994" lon="5.97249">
        <ele>145</ele>
        <time>2016-07-30T08:51:33.029Z</time>
      </trkpt>
      <trkpt lat="43.14996" lon="5.97247">
        <ele>145</ele>
        <time>2016-07-30T08:51:34.029Z</time>
      </trkpt>
      <trkpt lat="43.14997" lon="5.97244">
        <ele>146</ele>
        <time>2016-07-30T08:51:35.029Z</time>
      </trkpt>
      <trkpt lat="43.14999" lon="5.97242">
        <ele>146</ele>
        <time>2016-07-30T08:51:36.029Z</time>
      </trkpt>
      <trkpt lat="43.15" lon="5.9724">
        <ele>146</ele>
        <time>2016-07-30T08:51:37.029Z</time>
      </trkpt>
      <trkpt lat="43.15001" lon="5.97238">
        <ele>146</ele>
        <time>2016-07-30T08:51:38.029Z</time>
      </trkpt>
      <trkpt lat="43.15003" lon="5.97236">
        <ele>146</ele>
        <time>2016-07-30T08:51:39.029Z</time>
      </trkpt>
      <trkpt lat="43.15004" lon="5.97234">
        <ele>147</ele>
        <time>2016-07-30T08:51:40.029Z</time>
      </trkpt>
      <trkpt lat="43.15005" lon="5.97232">
        <ele>147</ele>
        <time>2016-07-30T08:51:41.029Z</time>
      </trkpt>
      <trkpt lat="43.15006" lon="5.9723">
        <ele>147</ele>
        <time>2016-07-30T08:51:42.029Z</time>
      </trkpt>
      <trkpt lat="43.15007" lon="5.97228">
        <ele>147</ele>
        <time>2016-07-30T08:51:43.029Z</time>
      </trkpt>
      <trkpt lat="43.15008" lon="5.97226">
        <ele>148</ele>
        <time>2016-07-30T08:51:44.029Z</time>
      </trkpt>
      <trkpt lat="43.15009" lon="5.97224">
        <ele>148</ele>
        <time>2016-07-30T08:51:45.029Z</time>
      </trkpt>
      <trkpt lat="43.15011" lon="5.97222">
        <ele>148</ele>
        <time>2016-07-30T08:51:46.029Z</time>
      </trkpt>
      <trkpt lat="43.15012" lon="5.9722">
        <ele>148</ele>
        <time>2016-07-30T08:51:47.029Z</time>
      </trkpt>
      <trkpt lat="43.15013" lon="5.97217">
        <ele>149</ele>
        <time>2016-07-30T08:51:48.029Z</time>
      </trkpt>
      <trkpt lat="43.15014" lon="5.97215">
        <ele>149</ele>
        <time>2016-07-30T08:51:49.029Z</time>
      </trkpt>
      <trkpt lat="43.15015" lon="5.97213">
        <ele>149</ele>
        <time>2016-07-30T08:51:50.029Z</time>
      </trkpt>
      <trkpt lat="43.15016" lon="5.9721">
        <ele>150</ele>
        <time>2016-07-30T08:51:51.029Z</time>
      </trkpt>
      <trkpt lat="43.15017" lon="5.97208">
        <ele>150</ele>
        <time>2016-07-30T08:51:52.029Z</time>
      </trkpt>
      <trkpt lat="43.15017" lon="5.97205">
        <ele>150</ele>
        <time>2016-07-30T08:51:53.029Z</time>
      </trkpt>
      <trkpt lat="43.15018" lon="5.97203">
        <ele>150</ele>
        <time>2016-07-30T08:51:54.029Z</time>
      </trkpt>
      <trkpt lat="43.15019" lon="5.972">
        <ele>150</ele>
        <time>2016-07-30T08:51:55.029Z</time>
      </trkpt>
      <trkpt lat="43.1502" lon="5.97198">
        <ele>150</ele>
        <time>2016-07-30T08:51:56.029Z</time>
      </trkpt>
      <trkpt lat="43.15021" lon="5.97195">
        <ele>151</ele>
        <time>2016-07-30T08:51:57.029Z</time>
      </trkpt>
      <trkpt lat="43.15022" lon="5.97193">
        <ele>151</ele>
        <time>2016-07-30T08:51:58.029Z</time>
      </trkpt>
      <trkpt lat="43.15023" lon="5.9719">
        <ele>151</ele>
        <time>2016-07-30T08:51:59.029Z</time>
      </trkpt>
      <trkpt lat="43.15024" lon="5.97187">
        <ele>151</ele>
        <time>2016-07-30T08:52:00.029Z</time>
      </trkpt>
      <trkpt lat="43.15025" lon="5.97185">
        <ele>151</ele>
        <time>2016-07-30T08:52:01.029Z</time>
      </trkpt>
      <trkpt lat="43.15026" lon="5.97182">
        <ele>151</ele>
        <time>2016-07-30T08:52:02.029Z</time>
      </trkpt>
      <trkpt lat="43.15027" lon="5.97179">
        <ele>151</ele>
        <time>2016-07-30T08:52:03.029Z</time>
      </trkpt>
      <trkpt lat="43.15028" lon="5.97177">
        <ele>152</ele>
        <time>2016-07-30T08:52:04.029Z</time>
      </trkpt>
      <trkpt lat="43.15029" lon="5.97174">
        <ele>152</ele>
        <time>2016-07-30T08:52:05.029Z</time>
      </trkpt>
      <trkpt lat="43.1503" lon="5.97171">
        <ele>152</ele>
        <time>2016-07-30T08:52:06.029Z</time>
      </trkpt>
      <trkpt lat="43.15031" lon="5.97168">
        <ele>153</ele>
        <time>2016-07-30T08:52:07.029Z</time>
      </trkpt>
      <trkpt lat="43.15032" lon="5.97165">
        <ele>153</ele>
        <time>2016-07-30T08:52:08.029Z</time>
      </trkpt>
      <trkpt lat="43.15033" lon="5.97163">
        <ele>152</ele>
        <time>2016-07-30T08:52:09.029Z</time>
      </trkpt>
      <trkpt lat="43.15034" lon="5.9716">
        <ele>153</ele>
        <time>2016-07-30T08:52:10.029Z</time>
      </trkpt>
      <trkpt lat="43.15035" lon="5.97157">
        <ele>153</ele>
        <time>2016-07-30T08:52:11.029Z</time>
      </trkpt>
      <trkpt lat="43.15036" lon="5.97154">
        <ele>153</ele>
        <time>2016-07-30T08:52:12.029Z</time>
      </trkpt>
      <trkpt lat="43.15037" lon="5.97151">
        <ele>153</ele>
        <time>2016-07-30T08:52:13.029Z</time>
      </trkpt>
      <trkpt lat="43.15038" lon="5.97148">
        <ele>153</ele>
        <time>2016-07-30T08:52:14.029Z</time>
      </trkpt>
      <trkpt lat="43.15039" lon="5.97145">
        <ele>153</ele>
        <time>2016-07-30T08:52:15.029Z</time>
      </trkpt>
      <trkpt lat="43.1504" lon="5.97142">
        <ele>153</ele>
        <time>2016-07-30T08:52:16.029Z</time>
      </trkpt>
      <trkpt lat="43.15042" lon="5.97139">
        <ele>153</ele>
        <time>2016-07-30T08:52:17.029Z</time>
      </trkpt>
      <trkpt lat="43.15043" lon="5.97136">
        <ele>153</ele>
        <time>2016-07-30T08:52:18.029Z</time>
      </trkpt>
      <trkpt lat="43.15044" lon="5.97133">
        <ele>154</ele>
        <time>2016-07-30T08:52:19.029Z</time>
      </trkpt>
      <trkpt lat="43.15045" lon="5.9713">
        <ele>154</ele>
        <time>2016-07-30T08:52:20.029Z</time>
      </trkpt>
      <trkpt lat="43.15046" lon="5.97127">
        <ele>154</ele>
        <time>2016-07-30T08:52:21.029Z</time>
      </trkpt>
      <trkpt lat="43.15047" lon="5.97123">
        <ele>154</ele>
        <time>2016-07-30T08:52:22.029Z</time>
      </trkpt>
      <trkpt lat="43.15048" lon="5.9712">
        <ele>154</ele>
        <time>2016-07-30T08:52:23.029Z</time>
      </trkpt>
      <trkpt lat="43.15049" lon="5.97117">
        <ele>154</ele>
        <time>2016-07-30T08:52:24.029Z</time>
      </trkpt>
      <trkpt lat="43.1505" lon="5.97113">
        <ele>154</ele>
        <time>2016-07-30T08:52:25.029Z</time>
      </trkpt>
      <trkpt lat="43.15052" lon="5.9711">
        <ele>155</ele>
        <time>2016-07-30T08:52:26.029Z</time>
      </trkpt>
      <trkpt lat="43.15053" lon="5.97106">
        <ele>155</ele>
        <time>2016-07-30T08:52:27.029Z</time>
      </trkpt>
      <trkpt lat="43.15054" lon="5.97103">
        <ele>154</ele>
        <time>2016-07-30T08:52:28.029Z</time>
      </trkpt>
      <trkpt lat="43.15056" lon="5.97099">
        <ele>154</ele>
        <time>2016-07-30T08:52:29.029Z</time>
      </trkpt>
      <trkpt lat="43.15057" lon="5.97095">
        <ele>155</ele>
        <time>2016-07-30T08:52:30.029Z</time>
      </trkpt>
      <trkpt lat="43.15059" lon="5.97091">
        <ele>154</ele>
        <time>2016-07-30T08:52:31.029Z</time>
      </trkpt>
      <trkpt lat="43.1506" lon="5.97088">
        <ele>154</ele>
        <time>2016-07-30T08:52:32.029Z</time>
      </trkpt>
      <trkpt lat="43.15062" lon="5.97084">
        <ele>154</ele>
        <time>2016-07-30T08:52:33.029Z</time>
      </trkpt>
      <trkpt lat="43.15064" lon="5.9708">
        <ele>155</ele>
        <time>2016-07-30T08:52:34.029Z</time>
      </trkpt>
      <trkpt lat="43.15065" lon="5.97076">
        <ele>154</ele>
        <time>2016-07-30T08:52:35.029Z</time>
      </trkpt>
      <trkpt lat="43.15067" lon="5.97072">
        <ele>154</ele>
        <time>2016-07-30T08:52:36.029Z</time>
      </trkpt>
      <trkpt lat="43.15068" lon="5.97068">
        <ele>154</ele>
        <time>2016-07-30T08:52:37.029Z</time>
      </trkpt>
      <trkpt lat="43.1507" lon="5.97064">
        <ele>154</ele>
        <time>2016-07-30T08:52:38.029Z</time>
      </trkpt>
      <trkpt lat="43.15071" lon="5.9706">
        <ele>154</ele>
        <time>2016-07-30T08:52:39.029Z</time>
      </trkpt>
      <trkpt lat="43.15073" lon="5.97055">
        <ele>154</ele>
        <time>2016-07-30T08:52:40.029Z</time>
      </trkpt>
      <trkpt lat="43.15074" lon="5.97051">
        <ele>154</ele>
        <time>2016-07-30T08:52:41.029Z</time>
      </trkpt>
      <trkpt lat="43.15076" lon="5.97047">
        <ele>154</ele>
        <time>2016-07-30T08:52:42.029Z</time>
      </trkpt>
      <trkpt lat="43.15078" lon="5.97043">
        <ele>154</ele>
        <time>2016-07-30T08:52:43.029Z</time>
      </trkpt>
      <trkpt lat="43.15079" lon="5.97038">
        <ele>155</ele>
        <time>2016-07-30T08:52:44.029Z</time>
      </trkpt>
      <trkpt lat="43.15081" lon="5.97034">
        <ele>155</ele>
        <time>2016-07-30T08:52:45.029Z</time>
      </trkpt>
      <trkpt lat="43.15082" lon="5.9703">
        <ele>155</ele>
        <time>2016-07-30T08:52:46.029Z</time>
      </trkpt>
      <trkpt lat="43.15084" lon="5.97025">
        <ele>155</ele>
        <time>2016-07-30T08:52:47.029Z</time>
      </trkpt>
      <trkpt lat="43.15086" lon="5.97021">
        <ele>155</ele>
        <time>2016-07-30T08:52:48.029Z</time>
      </trkpt>
      <trkpt lat="43.15087" lon="5.97017">
        <ele>156</ele>
        <time>2016-07-30T08:52:49.029Z</time>
      </trkpt>
      <trkpt lat="43.15089" lon="5.97013">
        <ele>156</ele>
        <time>2016-07-30T08:52:50.029Z</time>
      </trkpt>
      <trkpt lat="43.15091" lon="5.97008">
        <ele>156</ele>
        <time>2016-07-30T08:52:51.029Z</time>
      </trkpt>
      <trkpt lat="43.15092" lon="5.97004">
        <ele>156</ele>
        <time>2016-07-30T08:52:52.029Z</time>
      </trkpt>
      <trkpt lat="43.15094" lon="5.97">
        <ele>156</ele>
        <time>2016-07-30T08:52:53.029Z</time>
      </trkpt>
      <trkpt lat="43.15095" lon="5.96996">
        <ele>156</ele>
        <time>2016-07-30T08:52:54.029Z</time>
      </trkpt>
      <trkpt lat="43.15097" lon="5.96991">
        <ele>156</ele>
        <time>2016-07-30T08:52:55.029Z</time>
      </trkpt>
      <trkpt lat="43.15098" lon="5.96987">
        <ele>156</ele>
        <time>2016-07-30T08:52:56.029Z</time>
      </trkpt>
      <trkpt lat="43.151" lon="5.96982">
        <ele>156</ele>
        <time>2016-07-30T08:52:57.029Z</time>
      </trkpt>
      <trkpt lat="43.15101" lon="5.96978">
        <ele>156</ele>
        <time>2016-07-30T08:52:58.029Z</time>
      </trkpt>
      <trkpt lat="43.15103" lon="5.96974">
        <ele>157</ele>
        <time>2016-07-30T08:52:59.029Z</time>
      </trkpt>
      <trkpt lat="43.15104" lon="5.9697">
        <ele>157</ele>
        <time>2016-07-30T08:53:00.029Z</time>
      </trkpt>
      <trkpt lat="43.15105" lon="5.96966">
        <ele>157</ele>
        <time>2016-07-30T08:53:01.029Z</time>
      </trkpt>
      <trkpt lat="43.15107" lon="5.96962">
        <ele>157</ele>
        <time>2016-07-30T08:53:02.029Z</time>
      </trkpt>
      <trkpt lat="43.15108" lon="5.96957">
        <ele>157</ele>
        <time>2016-07-30T08:53:03.029Z</time>
      </trkpt>
      <trkpt lat="43.1511" lon="5.96953">
        <ele>158</ele>
        <time>2016-07-30T08:53:04.029Z</time>
      </trkpt>
      <trkpt lat="43.15111" lon="5.96949">
        <ele>158</ele>
        <time>2016-07-30T08:53:05.029Z</time>
      </trkpt>
      <trkpt lat="43.15112" lon="5.96945">
        <ele>158</ele>
        <time>2016-07-30T08:53:06.029Z</time>
      </trkpt>
      <trkpt lat="43.15114" lon="5.96941">
        <ele>159</ele>
        <time>2016-07-30T08:53:07.029Z</time>
      </trkpt>
      <trkpt lat="43.15115" lon="5.96937">
        <ele>159</ele>
        <time>2016-07-30T08:53:08.029Z</time>
      </trkpt>
      <trkpt lat="43.15117" lon="5.96933">
        <ele>159</ele>
        <time>2016-07-30T08:53:09.029Z</time>
      </trkpt>
      <trkpt lat="43.15119" lon="5.96929">
        <ele>159</ele>
        <time>2016-07-30T08:53:10.029Z</time>
      </trkpt>
      <trkpt lat="43.15121" lon="5.96925">
        <ele>160</ele>
        <time>2016-07-30T08:53:11.029Z</time>
      </trkpt>
      <trkpt lat="43.15122" lon="5.96922">
        <ele>160</ele>
        <time>2016-07-30T08:53:12.029Z</time>
      </trkpt>
      <trkpt lat="43.15125" lon="5.96918">
        <ele>160</ele>
        <time>2016-07-30T08:53:13.029Z</time>
      </trkpt>
      <trkpt lat="43.15127" lon="5.96914">
        <ele>160</ele>
        <time>2016-07-30T08:53:14.029Z</time>
      </trkpt>
      <trkpt lat="43.15129" lon="5.96911">
        <ele>161</ele>
        <time>2016-07-30T08:53:15.029Z</time>
      </trkpt>
      <trkpt lat="43.15131" lon="5.96907">
        <ele>161</ele>
        <time>2016-07-30T08:53:16.029Z</time>
      </trkpt>
      <trkpt lat="43.15134" lon="5.96903">
        <ele>161</ele>
        <time>2016-07-30T08:53:17.029Z</time>
      </trkpt>
      <trkpt lat="43.15136" lon="5.969">
        <ele>161</ele>
        <time>2016-07-30T08:53:18.029Z</time>
      </trkpt>
      <trkpt lat="43.15139" lon="5.96896">
        <ele>161</ele>
        <time>2016-07-30T08:53:19.029Z</time>
      </trkpt>
      <trkpt lat="43.15141" lon="5.96892">
        <ele>161</ele>
        <time>2016-07-30T08:53:20.029Z</time>
      </trkpt>
      <trkpt lat="43.15144" lon="5.96889">
        <ele>161</ele>
        <time>2016-07-30T08:53:21.029Z</time>
      </trkpt>
      <trkpt lat="43.15147" lon="5.96885">
        <ele>161</ele>
        <time>2016-07-30T08:53:22.029Z</time>
      </trkpt>
      <trkpt lat="43.15149" lon="5.96881">
        <ele>161</ele>
        <time>2016-07-30T08:53:23.029Z</time>
      </trkpt>
      <trkpt lat="43.15152" lon="5.96877">
        <ele>161</ele>
        <time>2016-07-30T08:53:24.029Z</time>
      </trkpt>
      <trkpt lat="43.15155" lon="5.96873">
        <ele>161</ele>
        <time>2016-07-30T08:53:25.029Z</time>
      </trkpt>
      <trkpt lat="43.15158" lon="5.9687">
        <ele>162</ele>
        <time>2016-07-30T08:53:26.029Z</time>
      </trkpt>
      <trkpt lat="43.15161" lon="5.96865">
        <ele>162</ele>
        <time>2016-07-30T08:53:27.029Z</time>
      </trkpt>
      <trkpt lat="43.15164" lon="5.96861">
        <ele>162</ele>
        <time>2016-07-30T08:53:28.029Z</time>
      </trkpt>
      <trkpt lat="43.15167" lon="5.96857">
        <ele>162</ele>
        <time>2016-07-30T08:53:29.029Z</time>
      </trkpt>
      <trkpt lat="43.1517" lon="5.96853">
        <ele>162</ele>
        <time>2016-07-30T08:53:30.029Z</time>
      </trkpt>
      <trkpt lat="43.15173" lon="5.96849">
        <ele>162</ele>
        <time>2016-07-30T08:53:31.029Z</time>
      </trkpt>
      <trkpt lat="43.15176" lon="5.96844">
        <ele>162</ele>
        <time>2016-07-30T08:53:32.029Z</time>
      </trkpt>
      <trkpt lat="43.15179" lon="5.9684">
        <ele>162</ele>
        <time>2016-07-30T08:53:33.029Z</time>
      </trkpt>
      <trkpt lat="43.15182" lon="5.96835">
        <ele>162</ele>
        <time>2016-07-30T08:53:34.029Z</time>
      </trkpt>
      <trkpt lat="43.15185" lon="5.96831">
        <ele>162</ele>
        <time>2016-07-30T08:53:35.029Z</time>
      </trkpt>
      <trkpt lat="43.15189" lon="5.96826">
        <ele>162</ele>
        <time>2016-07-30T08:53:36.029Z</time>
      </trkpt>
      <trkpt lat="43.15192" lon="5.96822">
        <ele>162</ele>
        <time>2016-07-30T08:53:37.029Z</time>
      </trkpt>
      <trkpt lat="43.15195" lon="5.96818">
        <ele>162</ele>
        <time>2016-07-30T08:53:38.029Z</time>
      </trkpt>
      <trkpt lat="43.15198" lon="5.96813">
        <ele>162</ele>
        <time>2016-07-30T08:53:39.029Z</time>
      </trkpt>
      <trkpt lat="43.15201" lon="5.96808">
        <ele>162</ele>
        <time>2016-07-30T08:53:40.029Z</time>
      </trkpt>
      <trkpt lat="43.15204" lon="5.96804">
        <ele>162</ele>
        <time>2016-07-30T08:53:41.029Z</time>
      </trkpt>
      <trkpt lat="43.15207" lon="5.96799">
        <ele>162</ele>
        <time>2016-07-30T08:53:42.029Z</time>
      </trkpt>
      <trkpt lat="43.1521" lon="5.96793">
        <ele>162</ele>
        <time>2016-07-30T08:53:43.029Z</time>
      </trkpt>
      <trkpt lat="43.15212" lon="5.96788">
        <ele>162</ele>
        <time>2016-07-30T08:53:44.029Z</time>
      </trkpt>
      <trkpt lat="43.15215" lon="5.96783">
        <ele>163</ele>
        <time>2016-07-30T08:53:45.029Z</time>
      </trkpt>
      <trkpt lat="43.15217" lon="5.96778">
        <ele>163</ele>
        <time>2016-07-30T08:53:46.029Z</time>
      </trkpt>
      <trkpt lat="43.1522" lon="5.96773">
        <ele>163</ele>
        <time>2016-07-30T08:53:47.029Z</time>
      </trkpt>
      <trkpt lat="43.15222" lon="5.96768">
        <ele>163</ele>
        <time>2016-07-30T08:53:48.029Z</time>
      </trkpt>
      <trkpt lat="43.15224" lon="5.96762">
        <ele>163</ele>
        <time>2016-07-30T08:53:49.029Z</time>
      </trkpt>
      <trkpt lat="43.15226" lon="5.96757">
        <ele>164</ele>
        <time>2016-07-30T08:53:50.029Z</time>
      </trkpt>
      <trkpt lat="43.15228" lon="5.96752">
        <ele>164</ele>
        <time>2016-07-30T08:53:51.029Z</time>
      </trkpt>
      <trkpt lat="43.1523" lon="5.96747">
        <ele>164</ele>
        <time>2016-07-30T08:53:52.029Z</time>
      </trkpt>
      <trkpt lat="43.15231" lon="5.96742">
        <ele>164</ele>
        <time>2016-07-30T08:53:53.029Z</time>
      </trkpt>
      <trkpt lat="43.15233" lon="5.96737">
        <ele>164</ele>
        <time>2016-07-30T08:53:54.029Z</time>
      </trkpt>
      <trkpt lat="43.15235" lon="5.96733">
        <ele>164</ele>
        <time>2016-07-30T08:53:55.029Z</time>
      </trkpt>
      <trkpt lat="43.15236" lon="5.96728">
        <ele>164</ele>
        <time>2016-07-30T08:53:56.029Z</time>
      </trkpt>
      <trkpt lat="43.15238" lon="5.96723">
        <ele>165</ele>
        <time>2016-07-30T08:53:57.029Z</time>
      </trkpt>
      <trkpt lat="43.15239" lon="5.96718">
        <ele>165</ele>
        <time>2016-07-30T08:53:58.029Z</time>
      </trkpt>
      <trkpt lat="43.1524" lon="5.96714">
        <ele>165</ele>
        <time>2016-07-30T08:53:59.029Z</time>
      </trkpt>
      <trkpt lat="43.15241" lon="5.96709">
        <ele>166</ele>
        <time>2016-07-30T08:54:00.029Z</time>
      </trkpt>
      <trkpt lat="43.15242" lon="5.96705">
        <ele>166</ele>
        <time>2016-07-30T08:54:01.029Z</time>
      </trkpt>
      <trkpt lat="43.15243" lon="5.96701">
        <ele>166</ele>
        <time>2016-07-30T08:54:02.029Z</time>
      </trkpt>
      <trkpt lat="43.15244" lon="5.96697">
        <ele>166</ele>
        <time>2016-07-30T08:54:03.029Z</time>
      </trkpt>
      <trkpt lat="43.15245" lon="5.96692">
        <ele>166</ele>
        <time>2016-07-30T08:54:04.029Z</time>
      </trkpt>
      <trkpt lat="43.15246" lon="5.96688">
        <ele>167</ele>
        <time>2016-07-30T08:54:05.029Z</time>
      </trkpt>
      <trkpt lat="43.15246" lon="5.96684">
        <ele>167</ele>
        <time>2016-07-30T08:54:06.029Z</time>
      </trkpt>
      <trkpt lat="43.15247" lon="5.9668">
        <ele>167</ele>
        <time>2016-07-30T08:54:07.029Z</time>
      </trkpt>
      <trkpt lat="43.15247" lon="5.96676">
        <ele>167</ele>
        <time>2016-07-30T08:54:08.029Z</time>
      </trkpt>
      <trkpt lat="43.15248" lon="5.96672">
        <ele>167</ele>
        <time>2016-07-30T08:54:09.029Z</time>
      </trkpt>
      <trkpt lat="43.15249" lon="5.96667">
        <ele>167</ele>
        <time>2016-07-30T08:54:10.029Z</time>
      </trkpt>
      <trkpt lat="43.15249" lon="5.96663">
        <ele>167</ele>
        <time>2016-07-30T08:54:11.029Z</time>
      </trkpt>
      <trkpt lat="43.1525" lon="5.96659">
        <ele>167</ele>
        <time>2016-07-30T08:54:12.029Z</time>
      </trkpt>
      <trkpt lat="43.15251" lon="5.96655">
        <ele>167</ele>
        <time>2016-07-30T08:54:13.029Z</time>
      </trkpt>
      <trkpt lat="43.15251" lon="5.9665">
        <ele>167</ele>
        <time>2016-07-30T08:54:14.029Z</time>
      </trkpt>
      <trkpt lat="43.15252" lon="5.96646">
        <ele>167</ele>
        <time>2016-07-30T08:54:15.029Z</time>
      </trkpt>
      <trkpt lat="43.15253" lon="5.96642">
        <ele>167</ele>
        <time>2016-07-30T08:54:16.029Z</time>
      </trkpt>
      <trkpt lat="43.15253" lon="5.96637">
        <ele>167</ele>
        <time>2016-07-30T08:54:17.029Z</time>
      </trkpt>
      <trkpt lat="43.15254" lon="5.96633">
        <ele>167</ele>
        <time>2016-07-30T08:54:18.029Z</time>
      </trkpt>
      <trkpt lat="43.15254" lon="5.96629">
        <ele>168</ele>
        <time>2016-07-30T08:54:19.029Z</time>
      </trkpt>
      <trkpt lat="43.15255" lon="5.96625">
        <ele>168</ele>
        <time>2016-07-30T08:54:20.029Z</time>
      </trkpt>
      <trkpt lat="43.15255" lon="5.96621">
        <ele>168</ele>
        <time>2016-07-30T08:54:21.029Z</time>
      </trkpt>
      <trkpt lat="43.15256" lon="5.96617">
        <ele>168</ele>
        <time>2016-07-30T08:54:22.029Z</time>
      </trkpt>
      <trkpt lat="43.15256" lon="5.96614">
        <ele>169</ele>
        <time>2016-07-30T08:54:23.029Z</time>
      </trkpt>
      <trkpt lat="43.15257" lon="5.9661">
        <ele>169</ele>
        <time>2016-07-30T08:54:24.029Z</time>
      </trkpt>
      <trkpt lat="43.15257" lon="5.96607">
        <ele>169</ele>
        <time>2016-07-30T08:54:25.029Z</time>
      </trkpt>
      <trkpt lat="43.15257" lon="5.96604">
        <ele>169</ele>
        <time>2016-07-30T08:54:26.029Z</time>
      </trkpt>
      <trkpt lat="43.15257" lon="5.96601">
        <ele>170</ele>
        <time>2016-07-30T08:54:27.029Z</time>
      </trkpt>
      <trkpt lat="43.15258" lon="5.96598">
        <ele>170</ele>
        <time>2016-07-30T08:54:28.029Z</time>
      </trkpt>
      <trkpt lat="43.15258" lon="5.96595">
        <ele>170</ele>
        <time>2016-07-30T08:54:29.029Z</time>
      </trkpt>
      <trkpt lat="43.15258" lon="5.96592">
        <ele>170</ele>
        <time>2016-07-30T08:54:30.029Z</time>
      </trkpt>
      <trkpt lat="43.15259" lon="5.96589">
        <ele>171</ele>
        <time>2016-07-30T08:54:31.029Z</time>
      </trkpt>
      <trkpt lat="43.15259" lon="5.96586">
        <ele>171</ele>
        <time>2016-07-30T08:54:32.029Z</time>
      </trkpt>
      <trkpt lat="43.15259" lon="5.96583">
        <ele>172</ele>
        <time>2016-07-30T08:54:33.029Z</time>
      </trkpt>
      <trkpt lat="43.15259" lon="5.96581">
        <ele>172</ele>
        <time>2016-07-30T08:54:34.029Z</time>
      </trkpt>
      <trkpt lat="43.15259" lon="5.96578">
        <ele>172</ele>
        <time>2016-07-30T08:54:35.029Z</time>
      </trkpt>
      <trkpt lat="43.15259" lon="5.96575">
        <ele>172</ele>
        <time>2016-07-30T08:54:36.029Z</time>
      </trkpt>
      <trkpt lat="43.1526" lon="5.96573">
        <ele>172</ele>
        <time>2016-07-30T08:54:37.029Z</time>
      </trkpt>
      <trkpt lat="43.1526" lon="5.9657">
        <ele>173</ele>
        <time>2016-07-30T08:54:38.029Z</time>
      </trkpt>
      <trkpt lat="43.1526" lon="5.96566">
        <ele>174</ele>
        <time>2016-07-30T08:54:39.029Z</time>
      </trkpt>
      <trkpt lat="43.15261" lon="5.96563">
        <ele>174</ele>
        <time>2016-07-30T08:54:40.029Z</time>
      </trkpt>
      <trkpt lat="43.15261" lon="5.9656">
        <ele>175</ele>
        <time>2016-07-30T08:54:41.029Z</time>
      </trkpt>
      <trkpt lat="43.15261" lon="5.96557">
        <ele>176</ele>
        <time>2016-07-30T08:54:42.029Z</time>
      </trkpt>
      <trkpt lat="43.15262" lon="5.96553">
        <ele>176</ele>
        <time>2016-07-30T08:54:43.029Z</time>
      </trkpt>
      <trkpt lat="43.15262" lon="5.9655">
        <ele>177</ele>
        <time>2016-07-30T08:54:44.029Z</time>
      </trkpt>
      <trkpt lat="43.15262" lon="5.96547">
        <ele>177</ele>
        <time>2016-07-30T08:54:45.029Z</time>
      </trkpt>
      <trkpt lat="43.15263" lon="5.96544">
        <ele>177</ele>
        <time>2016-07-30T08:54:46.029Z</time>
      </trkpt>
      <trkpt lat="43.15263" lon="5.96541">
        <ele>178</ele>
        <time>2016-07-30T08:54:47.029Z</time>
      </trkpt>
      <trkpt lat="43.15264" lon="5.96539">
        <ele>178</ele>
        <time>2016-07-30T08:54:48.029Z</time>
      </trkpt>
      <trkpt lat="43.15264" lon="5.96535">
        <ele>179</ele>
        <time>2016-07-30T08:54:49.029Z</time>
      </trkpt>
      <trkpt lat="43.15264" lon="5.96532">
        <ele>179</ele>
        <time>2016-07-30T08:54:50.029Z</time>
      </trkpt>
      <trkpt lat="43.15265" lon="5.96529">
        <ele>180</ele>
        <time>2016-07-30T08:54:51.029Z</time>
      </trkpt>
      <trkpt lat="43.15266" lon="5.96526">
        <ele>180</ele>
        <time>2016-07-30T08:54:52.029Z</time>
      </trkpt>
      <trkpt lat="43.15266" lon="5.96523">
        <ele>180</ele>
        <time>2016-07-30T08:54:53.029Z</time>
      </trkpt>
      <trkpt lat="43.15267" lon="5.96521">
        <ele>180</ele>
        <time>2016-07-30T08:54:54.029Z</time>
      </trkpt>
      <trkpt lat="43.15267" lon="5.96518">
        <ele>181</ele>
        <time>2016-07-30T08:54:55.029Z</time>
      </trkpt>
      <trkpt lat="43.15268" lon="5.96515">
        <ele>181</ele>
        <time>2016-07-30T08:54:56.029Z</time>
      </trkpt>
      <trkpt lat="43.15268" lon="5.96512">
        <ele>181</ele>
        <time>2016-07-30T08:54:57.029Z</time>
      </trkpt>
      <trkpt lat="43.15269" lon="5.96509">
        <ele>181</ele>
        <time>2016-07-30T08:54:58.029Z</time>
      </trkpt>
      <trkpt lat="43.15269" lon="5.96506">
        <ele>181</ele>
        <time>2016-07-30T08:54:59.029Z</time>
      </trkpt>
      <trkpt lat="43.1527" lon="5.96503">
        <ele>182</ele>
        <time>2016-07-30T08:55:00.029Z</time>
      </trkpt>
      <trkpt lat="43.1527" lon="5.965">
        <ele>182</ele>
        <time>2016-07-30T08:55:01.029Z</time>
      </trkpt>
      <trkpt lat="43.15271" lon="5.96497">
        <ele>182</ele>
        <time>2016-07-30T08:55:02.029Z</time>
      </trkpt>
      <trkpt lat="43.15271" lon="5.96495">
        <ele>182</ele>
        <time>2016-07-30T08:55:03.029Z</time>
      </trkpt>
      <trkpt lat="43.15272" lon="5.96492">
        <ele>183</ele>
        <time>2016-07-30T08:55:04.029Z</time>
      </trkpt>
      <trkpt lat="43.15272" lon="5.96489">
        <ele>182</ele>
        <time>2016-07-30T08:55:05.029Z</time>
      </trkpt>
      <trkpt lat="43.15272" lon="5.96486">
        <ele>183</ele>
        <time>2016-07-30T08:55:06.029Z</time>
      </trkpt>
      <trkpt lat="43.15272" lon="5.96484">
        <ele>183</ele>
        <time>2016-07-30T08:55:07.029Z</time>
      </trkpt>
      <trkpt lat="43.15273" lon="5.96481">
        <ele>183</ele>
        <time>2016-07-30T08:55:08.029Z</time>
      </trkpt>
      <trkpt lat="43.15273" lon="5.96479">
        <ele>183</ele>
        <time>2016-07-30T08:55:09.029Z</time>
      </trkpt>
      <trkpt lat="43.15273" lon="5.96476">
        <ele>183</ele>
        <time>2016-07-30T08:55:10.029Z</time>
      </trkpt>
      <trkpt lat="43.15273" lon="5.96474">
        <ele>183</ele>
        <time>2016-07-30T08:55:11.029Z</time>
      </trkpt>
      <trkpt lat="43.15274" lon="5.96471">
        <ele>182</ele>
        <time>2016-07-30T08:55:12.029Z</time>
      </trkpt>
      <trkpt lat="43.15275" lon="5.96468">
        <ele>183</ele>
        <time>2016-07-30T08:55:13.029Z</time>
      </trkpt>
      <trkpt lat="43.15275" lon="5.96465">
        <ele>182</ele>
        <time>2016-07-30T08:55:14.029Z</time>
      </trkpt>
      <trkpt lat="43.15276" lon="5.96463">
        <ele>183</ele>
        <time>2016-07-30T08:55:15.029Z</time>
      </trkpt>
      <trkpt lat="43.15276" lon="5.9646">
        <ele>183</ele>
        <time>2016-07-30T08:55:16.029Z</time>
      </trkpt>
      <trkpt lat="43.15277" lon="5.96457">
        <ele>183</ele>
        <time>2016-07-30T08:55:17.029Z</time>
      </trkpt>
      <trkpt lat="43.15278" lon="5.96454">
        <ele>183</ele>
        <time>2016-07-30T08:55:18.029Z</time>
      </trkpt>
      <trkpt lat="43.15278" lon="5.96451">
        <ele>183</ele>
        <time>2016-07-30T08:55:19.029Z</time>
      </trkpt>
      <trkpt lat="43.15279" lon="5.96448">
        <ele>184</ele>
        <time>2016-07-30T08:55:20.029Z</time>
      </trkpt>
      <trkpt lat="43.1528" lon="5.96446">
        <ele>184</ele>
        <time>2016-07-30T08:55:21.029Z</time>
      </trkpt>
      <trkpt lat="43.1528" lon="5.96443">
        <ele>184</ele>
        <time>2016-07-30T08:55:22.029Z</time>
      </trkpt>
      <trkpt lat="43.15281" lon="5.9644">
        <ele>184</ele>
        <time>2016-07-30T08:55:23.029Z</time>
      </trkpt>
      <trkpt lat="43.15281" lon="5.96437">
        <ele>185</ele>
        <time>2016-07-30T08:55:24.029Z</time>
      </trkpt>
      <trkpt lat="43.15282" lon="5.96435">
        <ele>185</ele>
        <time>2016-07-30T08:55:25.029Z</time>
      </trkpt>
      <trkpt lat="43.15283" lon="5.96432">
        <ele>185</ele>
        <time>2016-07-30T08:55:26.029Z</time>
      </trkpt>
      <trkpt lat="43.15283" lon="5.9643">
        <ele>185</ele>
        <time>2016-07-30T08:55:27.029Z</time>
      </trkpt>
      <trkpt lat="43.15284" lon="5.96427">
        <ele>186</ele>
        <time>2016-07-30T08:55:28.029Z</time>
      </trkpt>
      <trkpt lat="43.15284" lon="5.96425">
        <ele>186</ele>
        <time>2016-07-30T08:55:29.029Z</time>
      </trkpt>
      <trkpt lat="43.15284" lon="5.96423">
        <ele>186</ele>
        <time>2016-07-30T08:55:30.029Z</time>
      </trkpt>
      <trkpt lat="43.15285" lon="5.96421">
        <ele>186</ele>
        <time>2016-07-30T08:55:31.029Z</time>
      </trkpt>
      <trkpt lat="43.15285" lon="5.96418">
        <ele>186</ele>
        <time>2016-07-30T08:55:32.029Z</time>
      </trkpt>
      <trkpt lat="43.15286" lon="5.96416">
        <ele>186</ele>
        <time>2016-07-30T08:55:33.029Z</time>
      </trkpt>
      <trkpt lat="43.15286" lon="5.96414">
        <ele>186</ele>
        <time>2016-07-30T08:55:34.029Z</time>
      </trkpt>
      <trkpt lat="43.15287" lon="5.96411">
        <ele>186</ele>
        <time>2016-07-30T08:55:35.029Z</time>
      </trkpt>
      <trkpt lat="43.15288" lon="5.96409">
        <ele>187</ele>
        <time>2016-07-30T08:55:36.029Z</time>
      </trkpt>
      <trkpt lat="43.1529" lon="5.96407">
        <ele>187</ele>
        <time>2016-07-30T08:55:37.029Z</time>
      </trkpt>
      <trkpt lat="43.15291" lon="5.96404">
        <ele>188</ele>
        <time>2016-07-30T08:55:38.029Z</time>
      </trkpt>
      <trkpt lat="43.15292" lon="5.96402">
        <ele>188</ele>
        <time>2016-07-30T08:55:39.029Z</time>
      </trkpt>
      <trkpt lat="43.15293" lon="5.964">
        <ele>188</ele>
        <time>2016-07-30T08:55:40.029Z</time>
      </trkpt>
      <trkpt lat="43.15294" lon="5.96398">
        <ele>188</ele>
        <time>2016-07-30T08:55:41.029Z</time>
      </trkpt>
      <trkpt lat="43.15295" lon="5.96396">
        <ele>189</ele>
        <time>2016-07-30T08:55:42.029Z</time>
      </trkpt>
      <trkpt lat="43.15296" lon="5.96394">
        <ele>189</ele>
        <time>2016-07-30T08:55:43.029Z</time>
      </trkpt>
      <trkpt lat="43.15297" lon="5.96393">
        <ele>189</ele>
        <time>2016-07-30T08:55:44.029Z</time>
      </trkpt>
      <trkpt lat="43.15299" lon="5.96391">
        <ele>189</ele>
        <time>2016-07-30T08:55:45.029Z</time>
      </trkpt>
      <trkpt lat="43.153" lon="5.96389">
        <ele>188</ele>
        <time>2016-07-30T08:55:46.029Z</time>
      </trkpt>
      <trkpt lat="43.15302" lon="5.96386">
        <ele>188</ele>
        <time>2016-07-30T08:55:47.029Z</time>
      </trkpt>
      <trkpt lat="43.15303" lon="5.96384">
        <ele>187</ele>
        <time>2016-07-30T08:55:48.029Z</time>
      </trkpt>
      <trkpt lat="43.15304" lon="5.96382">
        <ele>187</ele>
        <time>2016-07-30T08:55:49.029Z</time>
      </trkpt>
      <trkpt lat="43.15305" lon="5.96379">
        <ele>186</ele>
        <time>2016-07-30T08:55:50.029Z</time>
      </trkpt>
      <trkpt lat="43.15307" lon="5.96377">
        <ele>186</ele>
        <time>2016-07-30T08:55:51.029Z</time>
      </trkpt>
      <trkpt lat="43.15308" lon="5.96374">
        <ele>186</ele>
        <time>2016-07-30T08:55:52.029Z</time>
      </trkpt>
      <trkpt lat="43.15309" lon="5.96371">
        <ele>185</ele>
        <time>2016-07-30T08:55:53.029Z</time>
      </trkpt>
      <trkpt lat="43.15311" lon="5.96369">
        <ele>185</ele>
        <time>2016-07-30T08:55:54.029Z</time>
      </trkpt>
      <trkpt lat="43.15312" lon="5.96366">
        <ele>185</ele>
        <time>2016-07-30T08:55:55.029Z</time>
      </trkpt>
      <trkpt lat="43.15313" lon="5.96364">
        <ele>185</ele>
        <time>2016-07-30T08:55:56.029Z</time>
      </trkpt>
      <trkpt lat="43.15314" lon="5.96361">
        <ele>184</ele>
        <time>2016-07-30T08:55:57.029Z</time>
      </trkpt>
      <trkpt lat="43.15315" lon="5.96359">
        <ele>184</ele>
        <time>2016-07-30T08:55:58.029Z</time>
      </trkpt>
      <trkpt lat="43.15316" lon="5.96357">
        <ele>184</ele>
        <time>2016-07-30T08:55:59.029Z</time>
      </trkpt>
      <trkpt lat="43.15317" lon="5.96355">
        <ele>183</ele>
        <time>2016-07-30T08:56:00.029Z</time>
      </trkpt>
      <trkpt lat="43.15318" lon="5.96353">
        <ele>183</ele>
        <time>2016-07-30T08:56:01.029Z</time>
      </trkpt>
      <trkpt lat="43.15319" lon="5.96351">
        <ele>183</ele>
        <time>2016-07-30T08:56:02.029Z</time>
      </trkpt>
      <trkpt lat="43.1532" lon="5.96349">
        <ele>184</ele>
        <time>2016-07-30T08:56:03.029Z</time>
      </trkpt>
      <trkpt lat="43.15321" lon="5.96346">
        <ele>184</ele>
        <time>2016-07-30T08:56:04.029Z</time>
      </trkpt>
      <trkpt lat="43.15322" lon="5.96344">
        <ele>184</ele>
        <time>2016-07-30T08:56:05.029Z</time>
      </trkpt>
      <trkpt lat="43.15324" lon="5.96341">
        <ele>184</ele>
        <time>2016-07-30T08:56:06.029Z</time>
      </trkpt>
      <trkpt lat="43.15325" lon="5.96339">
        <ele>184</ele>
        <time>2016-07-30T08:56:07.029Z</time>
      </trkpt>
      <trkpt lat="43.15326" lon="5.96337">
        <ele>185</ele>
        <time>2016-07-30T08:56:08.029Z</time>
      </trkpt>
      <trkpt lat="43.15327" lon="5.96334">
        <ele>185</ele>
        <time>2016-07-30T08:56:09.029Z</time>
      </trkpt>
      <trkpt lat="43.15328" lon="5.96332">
        <ele>185</ele>
        <time>2016-07-30T08:56:10.029Z</time>
      </trkpt>
      <trkpt lat="43.15328" lon="5.9633">
        <ele>185</ele>
        <time>2016-07-30T08:56:11.029Z</time>
      </trkpt>
      <trkpt lat="43.15329" lon="5.96327">
        <ele>186</ele>
        <time>2016-07-30T08:56:12.029Z</time>
      </trkpt>
      <trkpt lat="43.1533" lon="5.96325">
        <ele>186</ele>
        <time>2016-07-30T08:56:13.029Z</time>
      </trkpt>
      <trkpt lat="43.15331" lon="5.96323">
        <ele>186</ele>
        <time>2016-07-30T08:56:14.029Z</time>
      </trkpt>
      <trkpt lat="43.15333" lon="5.96321">
        <ele>187</ele>
        <time>2016-07-30T08:56:15.029Z</time>
      </trkpt>
      <trkpt lat="43.15334" lon="5.96319">
        <ele>187</ele>
        <time>2016-07-30T08:56:16.029Z</time>
      </trkpt>
      <trkpt lat="43.15335" lon="5.96317">
        <ele>187</ele>
        <time>2016-07-30T08:56:17.029Z</time>
      </trkpt>
      <trkpt lat="43.15336" lon="5.96315">
        <ele>187</ele>
        <time>2016-07-30T08:56:18.029Z</time>
      </trkpt>
      <trkpt lat="43.15337" lon="5.96313">
        <ele>188</ele>
        <time>2016-07-30T08:56:19.029Z</time>
      </trkpt>
      <trkpt lat="43.15338" lon="5.96311">
        <ele>188</ele>
        <time>2016-07-30T08:56:20.029Z</time>
      </trkpt>
      <trkpt lat="43.15339" lon="5.96309">
        <ele>188</ele>
        <time>2016-07-30T08:56:21.029Z</time>
      </trkpt>
      <trkpt lat="43.1534" lon="5.96307">
        <ele>188</ele>
        <time>2016-07-30T08:56:22.029Z</time>
      </trkpt>
      <trkpt lat="43.1534" lon="5.96305">
        <ele>189</ele>
        <time>2016-07-30T08:56:23.029Z</time>
      </trkpt>
      <trkpt lat="43.15341" lon="5.96303">
        <ele>189</ele>
        <time>2016-07-30T08:56:24.029Z</time>
      </trkpt>
      <trkpt lat="43.15342" lon="5.96301">
        <ele>189</ele>
        <time>2016-07-30T08:56:25.029Z</time>
      </trkpt>
      <trkpt lat="43.15343" lon="5.96299">
        <ele>190</ele>
        <time>2016-07-30T08:56:26.029Z</time>
      </trkpt>
      <trkpt lat="43.15344" lon="5.96297">
        <ele>190</ele>
        <time>2016-07-30T08:56:27.029Z</time>
      </trkpt>
      <trkpt lat="43.15346" lon="5.96295">
        <ele>190</ele>
        <time>2016-07-30T08:56:28.029Z</time>
      </trkpt>
      <trkpt lat="43.15347" lon="5.96293">
        <ele>190</ele>
        <time>2016-07-30T08:56:29.029Z</time>
      </trkpt>
      <trkpt lat="43.15348" lon="5.96291">
        <ele>191</ele>
        <time>2016-07-30T08:56:30.029Z</time>
      </trkpt>
      <trkpt lat="43.15349" lon="5.96289">
        <ele>191</ele>
        <time>2016-07-30T08:56:31.029Z</time>
      </trkpt>
      <trkpt lat="43.15349" lon="5.96287">
        <ele>192</ele>
        <time>2016-07-30T08:56:32.029Z</time>
      </trkpt>
      <trkpt lat="43.1535" lon="5.96285">
        <ele>192</ele>
        <time>2016-07-30T08:56:33.029Z</time>
      </trkpt>
      <trkpt lat="43.15351" lon="5.96283">
        <ele>192</ele>
        <time>2016-07-30T08:56:34.029Z</time>
      </trkpt>
      <trkpt lat="43.15353" lon="5.96281">
        <ele>193</ele>
        <time>2016-07-30T08:56:35.029Z</time>
      </trkpt>
      <trkpt lat="43.15354" lon="5.9628">
        <ele>194</ele>
        <time>2016-07-30T08:56:36.029Z</time>
      </trkpt>
      <trkpt lat="43.15355" lon="5.96278">
        <ele>194</ele>
        <time>2016-07-30T08:56:37.029Z</time>
      </trkpt>
      <trkpt lat="43.15356" lon="5.96276">
        <ele>195</ele>
        <time>2016-07-30T08:56:38.029Z</time>
      </trkpt>
      <trkpt lat="43.15357" lon="5.96274">
        <ele>195</ele>
        <time>2016-07-30T08:56:39.029Z</time>
      </trkpt>
      <trkpt lat="43.15358" lon="5.96272">
        <ele>196</ele>
        <time>2016-07-30T08:56:40.029Z</time>
      </trkpt>
      <trkpt lat="43.15359" lon="5.9627">
        <ele>196</ele>
        <time>2016-07-30T08:56:41.029Z</time>
      </trkpt>
      <trkpt lat="43.1536" lon="5.96268">
        <ele>196</ele>
        <time>2016-07-30T08:56:42.029Z</time>
      </trkpt>
      <trkpt lat="43.15361" lon="5.96266">
        <ele>196</ele>
        <time>2016-07-30T08:56:43.029Z</time>
      </trkpt>
      <trkpt lat="43.15361" lon="5.96264">
        <ele>196</ele>
        <time>2016-07-30T08:56:44.029Z</time>
      </trkpt>
      <trkpt lat="43.15362" lon="5.96262">
        <ele>196</ele>
        <time>2016-07-30T08:56:45.029Z</time>
      </trkpt>
      <trkpt lat="43.15363" lon="5.9626">
        <ele>196</ele>
        <time>2016-07-30T08:56:46.029Z</time>
      </trkpt>
      <trkpt lat="43.15364" lon="5.96258">
        <ele>196</ele>
        <time>2016-07-30T08:56:47.029Z</time>
      </trkpt>
      <trkpt lat="43.15366" lon="5.96255">
        <ele>196</ele>
        <time>2016-07-30T08:56:48.029Z</time>
      </trkpt>
      <trkpt lat="43.15367" lon="5.96253">
        <ele>196</ele>
        <time>2016-07-30T08:56:49.029Z</time>
      </trkpt>
      <trkpt lat="43.15368" lon="5.9625">
        <ele>196</ele>
        <time>2016-07-30T08:56:50.029Z</time>
      </trkpt>
      <trkpt lat="43.15369" lon="5.96248">
        <ele>196</ele>
        <time>2016-07-30T08:56:51.029Z</time>
      </trkpt>
      <trkpt lat="43.15371" lon="5.96246">
        <ele>196</ele>
        <time>2016-07-30T08:56:52.029Z</time>
      </trkpt>
      <trkpt lat="43.15372" lon="5.96243">
        <ele>196</ele>
        <time>2016-07-30T08:56:53.029Z</time>
      </trkpt>
      <trkpt lat="43.15373" lon="5.96241">
        <ele>196</ele>
        <time>2016-07-30T08:56:54.029Z</time>
      </trkpt>
      <trkpt lat="43.15374" lon="5.96239">
        <ele>196</ele>
        <time>2016-07-30T08:56:55.029Z</time>
      </trkpt>
      <trkpt lat="43.15375" lon="5.96237">
        <ele>197</ele>
        <time>2016-07-30T08:56:56.029Z</time>
      </trkpt>
      <trkpt lat="43.15376" lon="5.96234">
        <ele>197</ele>
        <time>2016-07-30T08:56:57.029Z</time>
      </trkpt>
      <trkpt lat="43.15377" lon="5.96232">
        <ele>197</ele>
        <time>2016-07-30T08:56:58.029Z</time>
      </trkpt>
      <trkpt lat="43.15378" lon="5.96229">
        <ele>197</ele>
        <time>2016-07-30T08:56:59.029Z</time>
      </trkpt>
      <trkpt lat="43.15379" lon="5.96227">
        <ele>198</ele>
        <time>2016-07-30T08:57:00.029Z</time>
      </trkpt>
      <trkpt lat="43.1538" lon="5.96224">
        <ele>198</ele>
        <time>2016-07-30T08:57:01.029Z</time>
      </trkpt>
      <trkpt lat="43.15381" lon="5.96222">
        <ele>198</ele>
        <time>2016-07-30T08:57:02.029Z</time>
      </trkpt>
      <trkpt lat="43.15382" lon="5.9622">
        <ele>198</ele>
        <time>2016-07-30T08:57:03.029Z</time>
      </trkpt>
      <trkpt lat="43.15384" lon="5.96217">
        <ele>199</ele>
        <time>2016-07-30T08:57:04.029Z</time>
      </trkpt>
      <trkpt lat="43.15385" lon="5.96214">
        <ele>199</ele>
        <time>2016-07-30T08:57:05.029Z</time>
      </trkpt>
      <trkpt lat="43.15386" lon="5.96212">
        <ele>200</ele>
        <time>2016-07-30T08:57:06.029Z</time>
      </trkpt>
      <trkpt lat="43.15388" lon="5.96209">
        <ele>200</ele>
        <time>2016-07-30T08:57:07.029Z</time>
      </trkpt>
      <trkpt lat="43.15389" lon="5.96207">
        <ele>200</ele>
        <time>2016-07-30T08:57:08.029Z</time>
      </trkpt>
      <trkpt lat="43.1539" lon="5.96204">
        <ele>200</ele>
        <time>2016-07-30T08:57:09.029Z</time>
      </trkpt>
      <trkpt lat="43.15391" lon="5.96202">
        <ele>201</ele>
        <time>2016-07-30T08:57:10.029Z</time>
      </trkpt>
      <trkpt lat="43.15392" lon="5.962">
        <ele>201</ele>
        <time>2016-07-30T08:57:11.029Z</time>
      </trkpt>
      <trkpt lat="43.15394" lon="5.96197">
        <ele>201</ele>
        <time>2016-07-30T08:57:12.029Z</time>
      </trkpt>
      <trkpt lat="43.15395" lon="5.96195">
        <ele>201</ele>
        <time>2016-07-30T08:57:13.029Z</time>
      </trkpt>
      <trkpt lat="43.15396" lon="5.96192">
        <ele>202</ele>
        <time>2016-07-30T08:57:14.029Z</time>
      </trkpt>
      <trkpt lat="43.15397" lon="5.9619">
        <ele>202</ele>
        <time>2016-07-30T08:57:15.029Z</time>
      </trkpt>
      <trkpt lat="43.15398" lon="5.96188">
        <ele>202</ele>
        <time>2016-07-30T08:57:16.029Z</time>
      </trkpt>
      <trkpt lat="43.15399" lon="5.96186">
        <ele>202</ele>
        <time>2016-07-30T08:57:17.029Z</time>
      </trkpt>
      <trkpt lat="43.154" lon="5.96183">
        <ele>203</ele>
        <time>2016-07-30T08:57:18.029Z</time>
      </trkpt>
      <trkpt lat="43.15402" lon="5.96181">
        <ele>203</ele>
        <time>2016-07-30T08:57:19.029Z</time>
      </trkpt>
      <trkpt lat="43.15403" lon="5.96179">
        <ele>203</ele>
        <time>2016-07-30T08:57:20.029Z</time>
      </trkpt>
      <trkpt lat="43.15404" lon="5.96176">
        <ele>203</ele>
        <time>2016-07-30T08:57:21.029Z</time>
      </trkpt>
      <trkpt lat="43.15405" lon="5.96174">
        <ele>203</ele>
        <time>2016-07-30T08:57:22.029Z</time>
      </trkpt>
      <trkpt lat="43.15406" lon="5.96171">
        <ele>204</ele>
        <time>2016-07-30T08:57:23.029Z</time>
      </trkpt>
      <trkpt lat="43.15407" lon="5.96169">
        <ele>204</ele>
        <time>2016-07-30T08:57:24.029Z</time>
      </trkpt>
      <trkpt lat="43.15408" lon="5.96166">
        <ele>204</ele>
        <time>2016-07-30T08:57:25.029Z</time>
      </trkpt>
      <trkpt lat="43.15409" lon="5.96164">
        <ele>204</ele>
        <time>2016-07-30T08:57:26.029Z</time>
      </trkpt>
      <trkpt lat="43.15411" lon="5.96162">
        <ele>204</ele>
        <time>2016-07-30T08:57:27.029Z</time>
      </trkpt>
      <trkpt lat="43.15412" lon="5.9616">
        <ele>205</ele>
        <time>2016-07-30T08:57:28.029Z</time>
      </trkpt>
      <trkpt lat="43.15414" lon="5.96158">
        <ele>205</ele>
        <time>2016-07-30T08:57:29.029Z</time>
      </trkpt>
      <trkpt lat="43.15415" lon="5.96155">
        <ele>206</ele>
        <time>2016-07-30T08:57:30.029Z</time>
      </trkpt>
      <trkpt lat="43.15417" lon="5.96153">
        <ele>206</ele>
        <time>2016-07-30T08:57:31.029Z</time>
      </trkpt>
      <trkpt lat="43.15418" lon="5.96151">
        <ele>207</ele>
        <time>2016-07-30T08:57:32.029Z</time>
      </trkpt>
      <trkpt lat="43.1542" lon="5.96149">
        <ele>208</ele>
        <time>2016-07-30T08:57:33.029Z</time>
      </trkpt>
      <trkpt lat="43.15422" lon="5.96147">
        <ele>208</ele>
        <time>2016-07-30T08:57:34.029Z</time>
      </trkpt>
      <trkpt lat="43.15423" lon="5.96145">
        <ele>207</ele>
        <time>2016-07-30T08:57:35.029Z</time>
      </trkpt>
      <trkpt lat="43.15425" lon="5.96143">
        <ele>207</ele>
        <time>2016-07-30T08:57:36.029Z</time>
      </trkpt>
      <trkpt lat="43.15427" lon="5.96142">
        <ele>208</ele>
        <time>2016-07-30T08:57:37.029Z</time>
      </trkpt>
      <trkpt lat="43.15428" lon="5.9614">
        <ele>208</ele>
        <time>2016-07-30T08:57:38.029Z</time>
      </trkpt>
      <trkpt lat="43.1543" lon="5.96139">
        <ele>208</ele>
        <time>2016-07-30T08:57:39.029Z</time>
      </trkpt>
      <trkpt lat="43.15432" lon="5.96138">
        <ele>208</ele>
        <time>2016-07-30T08:57:40.029Z</time>
      </trkpt>
      <trkpt lat="43.15434" lon="5.96137">
        <ele>208</ele>
        <time>2016-07-30T08:57:41.029Z</time>
      </trkpt>
      <trkpt lat="43.15436" lon="5.96136">
        <ele>208</ele>
        <time>2016-07-30T08:57:42.029Z</time>
      </trkpt>
      <trkpt lat="43.15438" lon="5.96136">
        <ele>208</ele>
        <time>2016-07-30T08:57:43.029Z</time>
      </trkpt>
      <trkpt lat="43.1544" lon="5.96135">
        <ele>208</ele>
        <time>2016-07-30T08:57:44.029Z</time>
      </trkpt>
      <trkpt lat="43.15442" lon="5.96135">
        <ele>208</ele>
        <time>2016-07-30T08:57:45.029Z</time>
      </trkpt>
      <trkpt lat="43.15445" lon="5.96134">
        <ele>208</ele>
        <time>2016-07-30T08:57:46.029Z</time>
      </trkpt>
      <trkpt lat="43.15447" lon="5.96134">
        <ele>208</ele>
        <time>2016-07-30T08:57:47.029Z</time>
      </trkpt>
      <trkpt lat="43.15448" lon="5.96134">
        <ele>208</ele>
        <time>2016-07-30T08:57:48.029Z</time>
      </trkpt>
      <trkpt lat="43.15451" lon="5.96134">
        <ele>208</ele>
        <time>2016-07-30T08:57:49.029Z</time>
      </trkpt>
      <trkpt lat="43.15453" lon="5.96135">
        <ele>208</ele>
        <time>2016-07-30T08:57:50.029Z</time>
      </trkpt>
      <trkpt lat="43.15455" lon="5.96135">
        <ele>209</ele>
        <time>2016-07-30T08:57:51.029Z</time>
      </trkpt>
      <trkpt lat="43.15457" lon="5.96136">
        <ele>209</ele>
        <time>2016-07-30T08:57:52.029Z</time>
      </trkpt>
      <trkpt lat="43.15459" lon="5.96136">
        <ele>209</ele>
        <time>2016-07-30T08:57:53.029Z</time>
      </trkpt>
      <trkpt lat="43.15461" lon="5.96137">
        <ele>209</ele>
        <time>2016-07-30T08:57:54.029Z</time>
      </trkpt>
      <trkpt lat="43.15462" lon="5.96138">
        <ele>209</ele>
        <time>2016-07-30T08:57:55.029Z</time>
      </trkpt>
      <trkpt lat="43.15464" lon="5.96139">
        <ele>209</ele>
        <time>2016-07-30T08:57:56.029Z</time>
      </trkpt>
      <trkpt lat="43.15466" lon="5.9614">
        <ele>208</ele>
        <time>2016-07-30T08:57:57.029Z</time>
      </trkpt>
      <trkpt lat="43.15468" lon="5.96141">
        <ele>208</ele>
        <time>2016-07-30T08:57:58.029Z</time>
      </trkpt>
      <trkpt lat="43.15469" lon="5.96143">
        <ele>208</ele>
        <time>2016-07-30T08:57:59.029Z</time>
      </trkpt>
      <trkpt lat="43.15471" lon="5.96144">
        <ele>208</ele>
        <time>2016-07-30T08:58:00.029Z</time>
      </trkpt>
      <trkpt lat="43.15473" lon="5.96145">
        <ele>208</ele>
        <time>2016-07-30T08:58:01.029Z</time>
      </trkpt>
      <trkpt lat="43.15475" lon="5.96147">
        <ele>208</ele>
        <time>2016-07-30T08:58:02.029Z</time>
      </trkpt>
      <trkpt lat="43.15477" lon="5.96148">
        <ele>208</ele>
        <time>2016-07-30T08:58:03.029Z</time>
      </trkpt>
      <trkpt lat="43.15479" lon="5.96149">
        <ele>208</ele>
        <time>2016-07-30T08:58:04.029Z</time>
      </trkpt>
      <trkpt lat="43.15481" lon="5.96151">
        <ele>208</ele>
        <time>2016-07-30T08:58:05.029Z</time>
      </trkpt>
      <trkpt lat="43.15482" lon="5.96152">
        <ele>208</ele>
        <time>2016-07-30T08:58:06.029Z</time>
      </trkpt>
      <trkpt lat="43.15484" lon="5.96153">
        <ele>209</ele>
        <time>2016-07-30T08:58:07.029Z</time>
      </trkpt>
      <trkpt lat="43.15486" lon="5.96154">
        <ele>209</ele>
        <time>2016-07-30T08:58:08.029Z</time>
      </trkpt>
      <trkpt lat="43.15488" lon="5.96155">
        <ele>209</ele>
        <time>2016-07-30T08:58:09.029Z</time>
      </trkpt>
      <trkpt lat="43.1549" lon="5.96156">
        <ele>209</ele>
        <time>2016-07-30T08:58:10.029Z</time>
      </trkpt>
      <trkpt lat="43.15491" lon="5.96157">
        <ele>209</ele>
        <time>2016-07-30T08:58:11.029Z</time>
      </trkpt>
      <trkpt lat="43.15493" lon="5.96158">
        <ele>209</ele>
        <time>2016-07-30T08:58:12.029Z</time>
      </trkpt>
      <trkpt lat="43.15494" lon="5.96159">
        <ele>209</ele>
        <time>2016-07-30T08:58:13.029Z</time>
      </trkpt>
      <trkpt lat="43.15496" lon="5.9616">
        <ele>209</ele>
        <time>2016-07-30T08:58:14.029Z</time>
      </trkpt>
      <trkpt lat="43.15498" lon="5.96161">
        <ele>209</ele>
        <time>2016-07-30T08:58:15.029Z</time>
      </trkpt>
      <trkpt lat="43.15499" lon="5.96162">
        <ele>209</ele>
        <time>2016-07-30T08:58:16.029Z</time>
      </trkpt>
      <trkpt lat="43.15501" lon="5.96164">
        <ele>209</ele>
        <time>2016-07-30T08:58:17.029Z</time>
      </trkpt>
      <trkpt lat="43.15502" lon="5.96165">
        <ele>209</ele>
        <time>2016-07-30T08:58:18.029Z</time>
      </trkpt>
      <trkpt lat="43.15504" lon="5.96166">
        <ele>209</ele>
        <time>2016-07-30T08:58:19.029Z</time>
      </trkpt>
      <trkpt lat="43.15506" lon="5.96166">
        <ele>209</ele>
        <time>2016-07-30T08:58:20.029Z</time>
      </trkpt>
      <trkpt lat="43.15508" lon="5.96167">
        <ele>210</ele>
        <time>2016-07-30T08:58:21.029Z</time>
      </trkpt>
      <trkpt lat="43.15509" lon="5.96168">
        <ele>210</ele>
        <time>2016-07-30T08:58:22.029Z</time>
      </trkpt>
      <trkpt lat="43.15511" lon="5.96169">
        <ele>210</ele>
        <time>2016-07-30T08:58:23.029Z</time>
      </trkpt>
      <trkpt lat="43.15512" lon="5.96169">
        <ele>210</ele>
        <time>2016-07-30T08:58:24.029Z</time>
      </trkpt>
      <trkpt lat="43.15514" lon="5.9617">
        <ele>210</ele>
        <time>2016-07-30T08:58:25.029Z</time>
      </trkpt>
      <trkpt lat="43.15516" lon="5.96171">
        <ele>210</ele>
        <time>2016-07-30T08:58:26.029Z</time>
      </trkpt>
      <trkpt lat="43.15517" lon="5.96172">
        <ele>210</ele>
        <time>2016-07-30T08:58:27.029Z</time>
      </trkpt>
      <trkpt lat="43.15519" lon="5.96173">
        <ele>210</ele>
        <time>2016-07-30T08:58:28.029Z</time>
      </trkpt>
      <trkpt lat="43.1552" lon="5.96174">
        <ele>210</ele>
        <time>2016-07-30T08:58:29.029Z</time>
      </trkpt>
      <trkpt lat="43.15522" lon="5.96175">
        <ele>210</ele>
        <time>2016-07-30T08:58:30.029Z</time>
      </trkpt>
      <trkpt lat="43.15524" lon="5.96176">
        <ele>211</ele>
        <time>2016-07-30T08:58:31.029Z</time>
      </trkpt>
      <trkpt lat="43.15525" lon="5.96177">
        <ele>211</ele>
        <time>2016-07-30T08:58:32.029Z</time>
      </trkpt>
      <trkpt lat="43.15527" lon="5.96179">
        <ele>211</ele>
        <time>2016-07-30T08:58:33.029Z</time>
      </trkpt>
      <trkpt lat="43.15529" lon="5.9618">
        <ele>211</ele>
        <time>2016-07-30T08:58:34.029Z</time>
      </trkpt>
      <trkpt lat="43.1553" lon="5.96182">
        <ele>211</ele>
        <time>2016-07-30T08:58:35.029Z</time>
      </trkpt>
      <trkpt lat="43.15532" lon="5.96184">
        <ele>211</ele>
        <time>2016-07-30T08:58:36.029Z</time>
      </trkpt>
      <trkpt lat="43.15533" lon="5.96185">
        <ele>212</ele>
        <time>2016-07-30T08:58:37.029Z</time>
      </trkpt>
      <trkpt lat="43.15535" lon="5.96187">
        <ele>212</ele>
        <time>2016-07-30T08:58:38.029Z</time>
      </trkpt>
      <trkpt lat="43.15536" lon="5.96189">
        <ele>212</ele>
        <time>2016-07-30T08:58:39.029Z</time>
      </trkpt>
      <trkpt lat="43.15538" lon="5.96191">
        <ele>212</ele>
        <time>2016-07-30T08:58:40.029Z</time>
      </trkpt>
      <trkpt lat="43.15539" lon="5.96193">
        <ele>212</ele>
        <time>2016-07-30T08:58:41.029Z</time>
      </trkpt>
      <trkpt lat="43.15541" lon="5.96195">
        <ele>212</ele>
        <time>2016-07-30T08:58:42.029Z</time>
      </trkpt>
      <trkpt lat="43.15542" lon="5.96197">
        <ele>213</ele>
        <time>2016-07-30T08:58:43.029Z</time>
      </trkpt>
      <trkpt lat="43.15544" lon="5.96199">
        <ele>213</ele>
        <time>2016-07-30T08:58:44.029Z</time>
      </trkpt>
      <trkpt lat="43.15545" lon="5.96202">
        <ele>213</ele>
        <time>2016-07-30T08:58:45.029Z</time>
      </trkpt>
      <trkpt lat="43.15547" lon="5.96204">
        <ele>213</ele>
        <time>2016-07-30T08:58:46.029Z</time>
      </trkpt>
      <trkpt lat="43.15549" lon="5.96206">
        <ele>213</ele>
        <time>2016-07-30T08:58:47.029Z</time>
      </trkpt>
      <trkpt lat="43.1555" lon="5.96208">
        <ele>213</ele>
        <time>2016-07-30T08:58:48.029Z</time>
      </trkpt>
      <trkpt lat="43.15552" lon="5.9621">
        <ele>213</ele>
        <time>2016-07-30T08:58:49.029Z</time>
      </trkpt>
      <trkpt lat="43.15554" lon="5.96211">
        <ele>212</ele>
        <time>2016-07-30T08:58:50.029Z</time>
      </trkpt>
      <trkpt lat="43.15556" lon="5.96213">
        <ele>212</ele>
        <time>2016-07-30T08:58:51.029Z</time>
      </trkpt>
      <trkpt lat="43.15558" lon="5.96214">
        <ele>213</ele>
        <time>2016-07-30T08:58:52.029Z</time>
      </trkpt>
      <trkpt lat="43.1556" lon="5.96216">
        <ele>213</ele>
        <time>2016-07-30T08:58:53.029Z</time>
      </trkpt>
      <trkpt lat="43.15562" lon="5.96217">
        <ele>213</ele>
        <time>2016-07-30T08:58:54.029Z</time>
      </trkpt>
      <trkpt lat="43.15564" lon="5.96218">
        <ele>213</ele>
        <time>2016-07-30T08:58:55.029Z</time>
      </trkpt>
      <trkpt lat="43.15566" lon="5.96218">
        <ele>213</ele>
        <time>2016-07-30T08:58:56.029Z</time>
      </trkpt>
      <trkpt lat="43.15568" lon="5.96219">
        <ele>213</ele>
        <time>2016-07-30T08:58:57.029Z</time>
      </trkpt>
      <trkpt lat="43.15571" lon="5.96219">
        <ele>213</ele>
        <time>2016-07-30T08:58:58.029Z</time>
      </trkpt>
      <trkpt lat="43.15573" lon="5.9622">
        <ele>213</ele>
        <time>2016-07-30T08:58:59.029Z</time>
      </trkpt>
      <trkpt lat="43.15575" lon="5.9622">
        <ele>213</ele>
        <time>2016-07-30T08:59:00.029Z</time>
      </trkpt>
      <trkpt lat="43.15577" lon="5.9622">
        <ele>213</ele>
        <time>2016-07-30T08:59:01.029Z</time>
      </trkpt>
      <trkpt lat="43.15579" lon="5.9622">
        <ele>212</ele>
        <time>2016-07-30T08:59:02.029Z</time>
      </trkpt>
      <trkpt lat="43.15582" lon="5.96219">
        <ele>212</ele>
        <time>2016-07-30T08:59:03.029Z</time>
      </trkpt>
      <trkpt lat="43.15584" lon="5.96218">
        <ele>212</ele>
        <time>2016-07-30T08:59:04.029Z</time>
      </trkpt>
      <trkpt lat="43.15586" lon="5.96217">
        <ele>212</ele>
        <time>2016-07-30T08:59:05.029Z</time>
      </trkpt>
      <trkpt lat="43.15589" lon="5.96215">
        <ele>212</ele>
        <time>2016-07-30T08:59:06.029Z</time>
      </trkpt>
      <trkpt lat="43.15591" lon="5.96214">
        <ele>213</ele>
        <time>2016-07-30T08:59:07.029Z</time>
      </trkpt>
      <trkpt lat="43.15593" lon="5.96212">
        <ele>214</ele>
        <time>2016-07-30T08:59:08.029Z</time>
      </trkpt>
      <trkpt lat="43.15595" lon="5.96211">
        <ele>214</ele>
        <time>2016-07-30T08:59:09.029Z</time>
      </trkpt>
      <trkpt lat="43.15598" lon="5.9621">
        <ele>214</ele>
        <time>2016-07-30T08:59:10.029Z</time>
      </trkpt>
      <trkpt lat="43.156" lon="5.96208">
        <ele>214</ele>
        <time>2016-07-30T08:59:11.029Z</time>
      </trkpt>
      <trkpt lat="43.15601" lon="5.96207">
        <ele>215</ele>
        <time>2016-07-30T08:59:12.029Z</time>
      </trkpt>
      <trkpt lat="43.15603" lon="5.96205">
        <ele>215</ele>
        <time>2016-07-30T08:59:13.029Z</time>
      </trkpt>
      <trkpt lat="43.15605" lon="5.96204">
        <ele>215</ele>
        <time>2016-07-30T08:59:14.029Z</time>
      </trkpt>
      <trkpt lat="43.15607" lon="5.96203">
        <ele>216</ele>
        <time>2016-07-30T08:59:15.029Z</time>
      </trkpt>
      <trkpt lat="43.15609" lon="5.96201">
        <ele>216</ele>
        <time>2016-07-30T08:59:16.029Z</time>
      </trkpt>
      <trkpt lat="43.15611" lon="5.962">
        <ele>216</ele>
        <time>2016-07-30T08:59:17.029Z</time>
      </trkpt>
      <trkpt lat="43.15613" lon="5.96199">
        <ele>216</ele>
        <time>2016-07-30T08:59:18.029Z</time>
      </trkpt>
      <trkpt lat="43.15615" lon="5.96198">
        <ele>216</ele>
        <time>2016-07-30T08:59:19.029Z</time>
      </trkpt>
      <trkpt lat="43.15617" lon="5.96197">
        <ele>216</ele>
        <time>2016-07-30T08:59:20.029Z</time>
      </trkpt>
      <trkpt lat="43.15619" lon="5.96196">
        <ele>216</ele>
        <time>2016-07-30T08:59:21.029Z</time>
      </trkpt>
      <trkpt lat="43.15621" lon="5.96195">
        <ele>217</ele>
        <time>2016-07-30T08:59:22.029Z</time>
      </trkpt>
      <trkpt lat="43.15623" lon="5.96193">
        <ele>217</ele>
        <time>2016-07-30T08:59:23.029Z</time>
      </trkpt>
      <trkpt lat="43.15625" lon="5.96192">
        <ele>217</ele>
        <time>2016-07-30T08:59:24.029Z</time>
      </trkpt>
      <trkpt lat="43.15627" lon="5.96191">
        <ele>218</ele>
        <time>2016-07-30T08:59:25.029Z</time>
      </trkpt>
      <trkpt lat="43.15629" lon="5.9619">
        <ele>218</ele>
        <time>2016-07-30T08:59:26.029Z</time>
      </trkpt>
      <trkpt lat="43.15631" lon="5.96188">
        <ele>218</ele>
        <time>2016-07-30T08:59:27.029Z</time>
      </trkpt>
      <trkpt lat="43.15633" lon="5.96187">
        <ele>218</ele>
        <time>2016-07-30T08:59:28.029Z</time>
      </trkpt>
      <trkpt lat="43.15635" lon="5.96186">
        <ele>218</ele>
        <time>2016-07-30T08:59:29.029Z</time>
      </trkpt>
      <trkpt lat="43.15636" lon="5.96184">
        <ele>218</ele>
        <time>2016-07-30T08:59:30.029Z</time>
      </trkpt>
      <trkpt lat="43.15638" lon="5.96183">
        <ele>219</ele>
        <time>2016-07-30T08:59:31.029Z</time>
      </trkpt>
      <trkpt lat="43.1564" lon="5.96182">
        <ele>219</ele>
        <time>2016-07-30T08:59:32.029Z</time>
      </trkpt>
      <trkpt lat="43.15642" lon="5.96181">
        <ele>219</ele>
        <time>2016-07-30T08:59:33.029Z</time>
      </trkpt>
      <trkpt lat="43.15644" lon="5.9618">
        <ele>219</ele>
        <time>2016-07-30T08:59:34.029Z</time>
      </trkpt>
      <trkpt lat="43.15646" lon="5.96179">
        <ele>219</ele>
        <time>2016-07-30T08:59:35.029Z</time>
      </trkpt>
      <trkpt lat="43.15647" lon="5.96178">
        <ele>219</ele>
        <time>2016-07-30T08:59:36.029Z</time>
      </trkpt>
      <trkpt lat="43.15649" lon="5.96177">
        <ele>219</ele>
        <time>2016-07-30T08:59:37.029Z</time>
      </trkpt>
      <trkpt lat="43.15651" lon="5.96176">
        <ele>219</ele>
        <time>2016-07-30T08:59:38.029Z</time>
      </trkpt>
      <trkpt lat="43.15653" lon="5.96174">
        <ele>220</ele>
        <time>2016-07-30T08:59:39.029Z</time>
      </trkpt>
      <trkpt lat="43.15655" lon="5.96173">
        <ele>220</ele>
        <time>2016-07-30T08:59:40.029Z</time>
      </trkpt>
      <trkpt lat="43.15657" lon="5.96172">
        <ele>220</ele>
        <time>2016-07-30T08:59:41.029Z</time>
      </trkpt>
      <trkpt lat="43.15659" lon="5.96171">
        <ele>220</ele>
        <time>2016-07-30T08:59:42.029Z</time>
      </trkpt>
      <trkpt lat="43.15661" lon="5.96169">
        <ele>220</ele>
        <time>2016-07-30T08:59:43.029Z</time>
      </trkpt>
      <trkpt lat="43.15663" lon="5.96168">
        <ele>221</ele>
        <time>2016-07-30T08:59:44.029Z</time>
      </trkpt>
      <trkpt lat="43.15665" lon="5.96167">
        <ele>221</ele>
        <time>2016-07-30T08:59:45.029Z</time>
      </trkpt>
      <trkpt lat="43.15667" lon="5.96166">
        <ele>221</ele>
        <time>2016-07-30T08:59:46.029Z</time>
      </trkpt>
      <trkpt lat="43.15669" lon="5.96165">
        <ele>221</ele>
        <time>2016-07-30T08:59:47.029Z</time>
      </trkpt>
      <trkpt lat="43.1567" lon="5.96164">
        <ele>221</ele>
        <time>2016-07-30T08:59:48.029Z</time>
      </trkpt>
      <trkpt lat="43.15672" lon="5.96162">
        <ele>221</ele>
        <time>2016-07-30T08:59:49.029Z</time>
      </trkpt>
      <trkpt lat="43.15674" lon="5.96161">
        <ele>221</ele>
        <time>2016-07-30T08:59:50.029Z</time>
      </trkpt>
      <trkpt lat="43.15676" lon="5.9616">
        <ele>221</ele>
        <time>2016-07-30T08:59:51.029Z</time>
      </trkpt>
      <trkpt lat="43.15678" lon="5.96159">
        <ele>222</ele>
        <time>2016-07-30T08:59:52.029Z</time>
      </trkpt>
      <trkpt lat="43.15679" lon="5.96159">
        <ele>222</ele>
        <time>2016-07-30T08:59:53.029Z</time>
      </trkpt>
      <trkpt lat="43.15681" lon="5.96158">
        <ele>222</ele>
        <time>2016-07-30T08:59:54.029Z</time>
      </trkpt>
      <trkpt lat="43.15683" lon="5.96157">
        <ele>222</ele>
        <time>2016-07-30T08:59:55.029Z</time>
      </trkpt>
      <trkpt lat="43.15684" lon="5.96156">
        <ele>222</ele>
        <time>2016-07-30T08:59:56.029Z</time>
      </trkpt>
      <trkpt lat="43.15686" lon="5.96155">
        <ele>223</ele>
        <time>2016-07-30T08:59:57.029Z</time>
      </trkpt>
      <trkpt lat="43.15687" lon="5.96154">
        <ele>223</ele>
        <time>2016-07-30T08:59:58.029Z</time>
      </trkpt>
      <trkpt lat="43.15689" lon="5.96153">
        <ele>223</ele>
        <time>2016-07-30T08:59:59.029Z</time>
      </trkpt>
      <trkpt lat="43.1569" lon="5.96152">
        <ele>223</ele>
        <time>2016-07-30T09:00:00.029Z</time>
      </trkpt>
      <trkpt lat="43.15692" lon="5.96151">
        <ele>223</ele>
        <time>2016-07-30T09:00:01.029Z</time>
      </trkpt>
      <trkpt lat="43.15693" lon="5.9615">
        <ele>223</ele>
        <time>2016-07-30T09:00:02.029Z</time>
      </trkpt>
      <trkpt lat="43.15695" lon="5.96149">
        <ele>223</ele>
        <time>2016-07-30T09:00:03.029Z</time>
      </trkpt>
      <trkpt lat="43.15696" lon="5.96149">
        <ele>223</ele>
        <time>2016-07-30T09:00:04.029Z</time>
      </trkpt>
      <trkpt lat="43.15698" lon="5.96148">
        <ele>223</ele>
        <time>2016-07-30T09:00:05.029Z</time>
      </trkpt>
      <trkpt lat="43.157" lon="5.96147">
        <ele>223</ele>
        <time>2016-07-30T09:00:06.029Z</time>
      </trkpt>
      <trkpt lat="43.15701" lon="5.96146">
        <ele>223</ele>
        <time>2016-07-30T09:00:07.029Z</time>
      </trkpt>
      <trkpt lat="43.15703" lon="5.96145">
        <ele>223</ele>
        <time>2016-07-30T09:00:08.029Z</time>
      </trkpt>
      <trkpt lat="43.15705" lon="5.96144">
        <ele>223</ele>
        <time>2016-07-30T09:00:09.029Z</time>
      </trkpt>
      <trkpt lat="43.15706" lon="5.96144">
        <ele>224</ele>
        <time>2016-07-30T09:00:10.029Z</time>
      </trkpt>
      <trkpt lat="43.15708" lon="5.96143">
        <ele>224</ele>
        <time>2016-07-30T09:00:11.029Z</time>
      </trkpt>
      <trkpt lat="43.1571" lon="5.96142">
        <ele>224</ele>
        <time>2016-07-30T09:00:12.029Z</time>
      </trkpt>
      <trkpt lat="43.15711" lon="5.96141">
        <ele>224</ele>
        <time>2016-07-30T09:00:13.029Z</time>
      </trkpt>
      <trkpt lat="43.15713" lon="5.9614">
        <ele>224</ele>
        <time>2016-07-30T09:00:14.029Z</time>
      </trkpt>
      <trkpt lat="43.15715" lon="5.9614">
        <ele>224</ele>
        <time>2016-07-30T09:00:15.029Z</time>
      </trkpt>
      <trkpt lat="43.15717" lon="5.96139">
        <ele>225</ele>
        <time>2016-07-30T09:00:16.029Z</time>
      </trkpt>
      <trkpt lat="43.15719" lon="5.96139">
        <ele>225</ele>
        <time>2016-07-30T09:00:17.029Z</time>
      </trkpt>
      <trkpt lat="43.15721" lon="5.96139">
        <ele>225</ele>
        <time>2016-07-30T09:00:18.029Z</time>
      </trkpt>
      <trkpt lat="43.15723" lon="5.96139">
        <ele>225</ele>
        <time>2016-07-30T09:00:19.029Z</time>
      </trkpt>
      <trkpt lat="43.15724" lon="5.96139">
        <ele>226</ele>
        <time>2016-07-30T09:00:20.029Z</time>
      </trkpt>
      <trkpt lat="43.15726" lon="5.96139">
        <ele>226</ele>
        <time>2016-07-30T09:00:21.029Z</time>
      </trkpt>
      <trkpt lat="43.15728" lon="5.9614">
        <ele>226</ele>
        <time>2016-07-30T09:00:22.029Z</time>
      </trkpt>
      <trkpt lat="43.15729" lon="5.96141">
        <ele>226</ele>
        <time>2016-07-30T09:00:23.029Z</time>
      </trkpt>
      <trkpt lat="43.1573" lon="5.96142">
        <ele>226</ele>
        <time>2016-07-30T09:00:24.029Z</time>
      </trkpt>
      <trkpt lat="43.15732" lon="5.96143">
        <ele>226</ele>
        <time>2016-07-30T09:00:25.029Z</time>
      </trkpt>
      <trkpt lat="43.15734" lon="5.96144">
        <ele>227</ele>
        <time>2016-07-30T09:00:26.029Z</time>
      </trkpt>
      <trkpt lat="43.15735" lon="5.96145">
        <ele>227</ele>
        <time>2016-07-30T09:00:27.029Z</time>
      </trkpt>
      <trkpt lat="43.15737" lon="5.96147">
        <ele>227</ele>
        <time>2016-07-30T09:00:28.029Z</time>
      </trkpt>
      <trkpt lat="43.15738" lon="5.96149">
        <ele>227</ele>
        <time>2016-07-30T09:00:29.029Z</time>
      </trkpt>
      <trkpt lat="43.1574" lon="5.96151">
        <ele>227</ele>
        <time>2016-07-30T09:00:30.029Z</time>
      </trkpt>
      <trkpt lat="43.15741" lon="5.96153">
        <ele>228</ele>
        <time>2016-07-30T09:00:31.029Z</time>
      </trkpt>
      <trkpt lat="43.15742" lon="5.96155">
        <ele>228</ele>
        <time>2016-07-30T09:00:32.029Z</time>
      </trkpt>
      <trkpt lat="43.15743" lon="5.96157">
        <ele>228</ele>
        <time>2016-07-30T09:00:33.029Z</time>
      </trkpt>
      <trkpt lat="43.15743" lon="5.9616">
        <ele>228</ele>
        <time>2016-07-30T09:00:34.029Z</time>
      </trkpt>
      <trkpt lat="43.15744" lon="5.96163">
        <ele>228</ele>
        <time>2016-07-30T09:00:35.029Z</time>
      </trkpt>
      <trkpt lat="43.15744" lon="5.96165">
        <ele>228</ele>
        <time>2016-07-30T09:00:36.029Z</time>
      </trkpt>
      <trkpt lat="43.15744" lon="5.96168">
        <ele>229</ele>
        <time>2016-07-30T09:00:37.029Z</time>
      </trkpt>
      <trkpt lat="43.15744" lon="5.96171">
        <ele>229</ele>
        <time>2016-07-30T09:00:38.029Z</time>
      </trkpt>
      <trkpt lat="43.15744" lon="5.96174">
        <ele>229</ele>
        <time>2016-07-30T09:00:39.029Z</time>
      </trkpt>
      <trkpt lat="43.15744" lon="5.96177">
        <ele>229</ele>
        <time>2016-07-30T09:00:40.029Z</time>
      </trkpt>
      <trkpt lat="43.15744" lon="5.96179">
        <ele>229</ele>
        <time>2016-07-30T09:00:41.029Z</time>
      </trkpt>
      <trkpt lat="43.15743" lon="5.96182">
        <ele>229</ele>
        <time>2016-07-30T09:00:42.029Z</time>
      </trkpt>
      <trkpt lat="43.15743" lon="5.96185">
        <ele>229</ele>
        <time>2016-07-30T09:00:43.029Z</time>
      </trkpt>
      <trkpt lat="43.15742" lon="5.96188">
        <ele>229</ele>
        <time>2016-07-30T09:00:44.029Z</time>
      </trkpt>
      <trkpt lat="43.15741" lon="5.96191">
        <ele>229</ele>
        <time>2016-07-30T09:00:45.029Z</time>
      </trkpt>
      <trkpt lat="43.1574" lon="5.96193">
        <ele>229</ele>
        <time>2016-07-30T09:00:46.029Z</time>
      </trkpt>
      <trkpt lat="43.1574" lon="5.96196">
        <ele>229</ele>
        <time>2016-07-30T09:00:47.029Z</time>
      </trkpt>
      <trkpt lat="43.15739" lon="5.96199">
        <ele>229</ele>
        <time>2016-07-30T09:00:48.029Z</time>
      </trkpt>
      <trkpt lat="43.15738" lon="5.96202">
        <ele>229</ele>
        <time>2016-07-30T09:00:49.029Z</time>
      </trkpt>
      <trkpt lat="43.15737" lon="5.96204">
        <ele>229</ele>
        <time>2016-07-30T09:00:50.029Z</time>
      </trkpt>
      <trkpt lat="43.15736" lon="5.96207">
        <ele>229</ele>
        <time>2016-07-30T09:00:51.029Z</time>
      </trkpt>
      <trkpt lat="43.15736" lon="5.9621">
        <ele>229</ele>
        <time>2016-07-30T09:00:52.029Z</time>
      </trkpt>
      <trkpt lat="43.15735" lon="5.96213">
        <ele>229</ele>
        <time>2016-07-30T09:00:53.029Z</time>
      </trkpt>
      <trkpt lat="43.15734" lon="5.96216">
        <ele>230</ele>
        <time>2016-07-30T09:00:54.029Z</time>
      </trkpt>
      <trkpt lat="43.15733" lon="5.96219">
        <ele>230</ele>
        <time>2016-07-30T09:00:55.029Z</time>
      </trkpt>
      <trkpt lat="43.15733" lon="5.96222">
        <ele>229</ele>
        <time>2016-07-30T09:00:56.029Z</time>
      </trkpt>
      <trkpt lat="43.15732" lon="5.96225">
        <ele>229</ele>
        <time>2016-07-30T09:00:57.029Z</time>
      </trkpt>
      <trkpt lat="43.15732" lon="5.96228">
        <ele>230</ele>
        <time>2016-07-30T09:00:58.029Z</time>
      </trkpt>
      <trkpt lat="43.15731" lon="5.96231">
        <ele>230</ele>
        <time>2016-07-30T09:00:59.029Z</time>
      </trkpt>
      <trkpt lat="43.1573" lon="5.96234">
        <ele>230</ele>
        <time>2016-07-30T09:01:00.029Z</time>
      </trkpt>
      <trkpt lat="43.15729" lon="5.96238">
        <ele>230</ele>
        <time>2016-07-30T09:01:01.029Z</time>
      </trkpt>
      <trkpt lat="43.15728" lon="5.96241">
        <ele>229</ele>
        <time>2016-07-30T09:01:02.029Z</time>
      </trkpt>
      <trkpt lat="43.15728" lon="5.96244">
        <ele>229</ele>
        <time>2016-07-30T09:01:03.029Z</time>
      </trkpt>
      <trkpt lat="43.15727" lon="5.96247">
        <ele>229</ele>
        <time>2016-07-30T09:01:04.029Z</time>
      </trkpt>
      <trkpt lat="43.15726" lon="5.9625">
        <ele>229</ele>
        <time>2016-07-30T09:01:05.029Z</time>
      </trkpt>
      <trkpt lat="43.15726" lon="5.96253">
        <ele>229</ele>
        <time>2016-07-30T09:01:06.029Z</time>
      </trkpt>
      <trkpt lat="43.15725" lon="5.96257">
        <ele>229</ele>
        <time>2016-07-30T09:01:07.029Z</time>
      </trkpt>
      <trkpt lat="43.15724" lon="5.9626">
        <ele>229</ele>
        <time>2016-07-30T09:01:08.029Z</time>
      </trkpt>
      <trkpt lat="43.15723" lon="5.96263">
        <ele>229</ele>
        <time>2016-07-30T09:01:09.029Z</time>
      </trkpt>
      <trkpt lat="43.15722" lon="5.96267">
        <ele>228</ele>
        <time>2016-07-30T09:01:10.029Z</time>
      </trkpt>
      <trkpt lat="43.15721" lon="5.9627">
        <ele>229</ele>
        <time>2016-07-30T09:01:11.029Z</time>
      </trkpt>
      <trkpt lat="43.1572" lon="5.96274">
        <ele>229</ele>
        <time>2016-07-30T09:01:12.029Z</time>
      </trkpt>
      <trkpt lat="43.15719" lon="5.96277">
        <ele>228</ele>
        <time>2016-07-30T09:01:13.029Z</time>
      </trkpt>
      <trkpt lat="43.15719" lon="5.96281">
        <ele>228</ele>
        <time>2016-07-30T09:01:14.029Z</time>
      </trkpt>
      <trkpt lat="43.15718" lon="5.96284">
        <ele>228</ele>
        <time>2016-07-30T09:01:15.029Z</time>
      </trkpt>
      <trkpt lat="43.15718" lon="5.96288">
        <ele>228</ele>
        <time>2016-07-30T09:01:16.029Z</time>
      </trkpt>
      <trkpt lat="43.15717" lon="5.96291">
        <ele>228</ele>
        <time>2016-07-30T09:01:17.029Z</time>
      </trkpt>
      <trkpt lat="43.15717" lon="5.96295">
        <ele>228</ele>
        <time>2016-07-30T09:01:18.029Z</time>
      </trkpt>
      <trkpt lat="43.15716" lon="5.96298">
        <ele>228</ele>
        <time>2016-07-30T09:01:19.029Z</time>
      </trkpt>
      <trkpt lat="43.15716" lon="5.96302">
        <ele>227</ele>
        <time>2016-07-30T09:01:20.029Z</time>
      </trkpt>
      <trkpt lat="43.15715" lon="5.96305">
        <ele>227</ele>
        <time>2016-07-30T09:01:21.029Z</time>
      </trkpt>
      <trkpt lat="43.15715" lon="5.96309">
        <ele>227</ele>
        <time>2016-07-30T09:01:22.029Z</time>
      </trkpt>
      <trkpt lat="43.15714" lon="5.96312">
        <ele>227</ele>
        <time>2016-07-30T09:01:23.029Z</time>
      </trkpt>
      <trkpt lat="43.15714" lon="5.96315">
        <ele>227</ele>
        <time>2016-07-30T09:01:24.029Z</time>
      </trkpt>
      <trkpt lat="43.15714" lon="5.96318">
        <ele>228</ele>
        <time>2016-07-30T09:01:25.029Z</time>
      </trkpt>
      <trkpt lat="43.15714" lon="5.96321">
        <ele>228</ele>
        <time>2016-07-30T09:01:26.029Z</time>
      </trkpt>
      <trkpt lat="43.15714" lon="5.96325">
        <ele>228</ele>
        <time>2016-07-30T09:01:27.029Z</time>
      </trkpt>
      <trkpt lat="43.15714" lon="5.96328">
        <ele>228</ele>
        <time>2016-07-30T09:01:28.029Z</time>
      </trkpt>
      <trkpt lat="43.15714" lon="5.96331">
        <ele>228</ele>
        <time>2016-07-30T09:01:29.029Z</time>
      </trkpt>
      <trkpt lat="43.15713" lon="5.96335">
        <ele>229</ele>
        <time>2016-07-30T09:01:30.029Z</time>
      </trkpt>
      <trkpt lat="43.15713" lon="5.96338">
        <ele>228</ele>
        <time>2016-07-30T09:01:31.029Z</time>
      </trkpt>
      <trkpt lat="43.15712" lon="5.96341">
        <ele>229</ele>
        <time>2016-07-30T09:01:32.029Z</time>
      </trkpt>
      <trkpt lat="43.15712" lon="5.96345">
        <ele>229</ele>
        <time>2016-07-30T09:01:33.029Z</time>
      </trkpt>
      <trkpt lat="43.15712" lon="5.96348">
        <ele>228</ele>
        <time>2016-07-30T09:01:34.029Z</time>
      </trkpt>
      <trkpt lat="43.15711" lon="5.96352">
        <ele>228</ele>
        <time>2016-07-30T09:01:35.029Z</time>
      </trkpt>
      <trkpt lat="43.15711" lon="5.96356">
        <ele>229</ele>
        <time>2016-07-30T09:01:36.029Z</time>
      </trkpt>
      <trkpt lat="43.1571" lon="5.96359">
        <ele>229</ele>
        <time>2016-07-30T09:01:37.029Z</time>
      </trkpt>
      <trkpt lat="43.15709" lon="5.96363">
        <ele>230</ele>
        <time>2016-07-30T09:01:38.029Z</time>
      </trkpt>
      <trkpt lat="43.15709" lon="5.96367">
        <ele>229</ele>
        <time>2016-07-30T09:01:39.029Z</time>
      </trkpt>
      <trkpt lat="43.15709" lon="5.96371">
        <ele>229</ele>
        <time>2016-07-30T09:01:40.029Z</time>
      </trkpt>
      <trkpt lat="43.15709" lon="5.96375">
        <ele>229</ele>
        <time>2016-07-30T09:01:41.029Z</time>
      </trkpt>
      <trkpt lat="43.15708" lon="5.96379">
        <ele>229</ele>
        <time>2016-07-30T09:01:42.029Z</time>
      </trkpt>
      <trkpt lat="43.15708" lon="5.96383">
        <ele>229</ele>
        <time>2016-07-30T09:01:43.029Z</time>
      </trkpt>
      <trkpt lat="43.15708" lon="5.96388">
        <ele>229</ele>
        <time>2016-07-30T09:01:44.029Z</time>
      </trkpt>
      <trkpt lat="43.15708" lon="5.96392">
        <ele>228</ele>
        <time>2016-07-30T09:01:45.029Z</time>
      </trkpt>
      <trkpt lat="43.15708" lon="5.96396">
        <ele>228</ele>
        <time>2016-07-30T09:01:46.029Z</time>
      </trkpt>
      <trkpt lat="43.15708" lon="5.96401">
        <ele>229</ele>
        <time>2016-07-30T09:01:47.029Z</time>
      </trkpt>
      <trkpt lat="43.15708" lon="5.96405">
        <ele>230</ele>
        <time>2016-07-30T09:01:48.029Z</time>
      </trkpt>
      <trkpt lat="43.15708" lon="5.96409">
        <ele>230</ele>
        <time>2016-07-30T09:01:49.029Z</time>
      </trkpt>
      <trkpt lat="43.15708" lon="5.96413">
        <ele>229</ele>
        <time>2016-07-30T09:01:50.029Z</time>
      </trkpt>
      <trkpt lat="43.15708" lon="5.96418">
        <ele>230</ele>
        <time>2016-07-30T09:01:51.029Z</time>
      </trkpt>
      <trkpt lat="43.15708" lon="5.96422">
        <ele>230</ele>
        <time>2016-07-30T09:01:52.029Z</time>
      </trkpt>
      <trkpt lat="43.15708" lon="5.96427">
        <ele>230</ele>
        <time>2016-07-30T09:01:53.029Z</time>
      </trkpt>
      <trkpt lat="43.15708" lon="5.96431">
        <ele>230</ele>
        <time>2016-07-30T09:01:54.029Z</time>
      </trkpt>
      <trkpt lat="43.15708" lon="5.96435">
        <ele>230</ele>
        <time>2016-07-30T09:01:55.029Z</time>
      </trkpt>
      <trkpt lat="43.15708" lon="5.9644">
        <ele>231</ele>
        <time>2016-07-30T09:01:56.029Z</time>
      </trkpt>
      <trkpt lat="43.15709" lon="5.96444">
        <ele>231</ele>
        <time>2016-07-30T09:01:57.029Z</time>
      </trkpt>
      <trkpt lat="43.15709" lon="5.96448">
        <ele>231</ele>
        <time>2016-07-30T09:01:58.029Z</time>
      </trkpt>
      <trkpt lat="43.15709" lon="5.96452">
        <ele>231</ele>
        <time>2016-07-30T09:01:59.029Z</time>
      </trkpt>
      <trkpt lat="43.15709" lon="5.96456">
        <ele>231</ele>
        <time>2016-07-30T09:02:00.029Z</time>
      </trkpt>
      <trkpt lat="43.15709" lon="5.96459">
        <ele>232</ele>
        <time>2016-07-30T09:02:01.029Z</time>
      </trkpt>
      <trkpt lat="43.15709" lon="5.96463">
        <ele>232</ele>
        <time>2016-07-30T09:02:02.029Z</time>
      </trkpt>
      <trkpt lat="43.15709" lon="5.96467">
        <ele>232</ele>
        <time>2016-07-30T09:02:03.029Z</time>
      </trkpt>
      <trkpt lat="43.15709" lon="5.9647">
        <ele>232</ele>
        <time>2016-07-30T09:02:04.029Z</time>
      </trkpt>
      <trkpt lat="43.15709" lon="5.96473">
        <ele>233</ele>
        <time>2016-07-30T09:02:05.029Z</time>
      </trkpt>
      <trkpt lat="43.1571" lon="5.96477">
        <ele>233</ele>
        <time>2016-07-30T09:02:06.029Z</time>
      </trkpt>
      <trkpt lat="43.1571" lon="5.9648">
        <ele>233</ele>
        <time>2016-07-30T09:02:07.029Z</time>
      </trkpt>
      <trkpt lat="43.1571" lon="5.96484">
        <ele>234</ele>
        <time>2016-07-30T09:02:08.029Z</time>
      </trkpt>
      <trkpt lat="43.1571" lon="5.96487">
        <ele>234</ele>
        <time>2016-07-30T09:02:09.029Z</time>
      </trkpt>
      <trkpt lat="43.1571" lon="5.9649">
        <ele>234</ele>
        <time>2016-07-30T09:02:10.029Z</time>
      </trkpt>
      <trkpt lat="43.15711" lon="5.96493">
        <ele>234</ele>
        <time>2016-07-30T09:02:11.029Z</time>
      </trkpt>
      <trkpt lat="43.15711" lon="5.96497">
        <ele>235</ele>
        <time>2016-07-30T09:02:12.029Z</time>
      </trkpt>
      <trkpt lat="43.15712" lon="5.965">
        <ele>235</ele>
        <time>2016-07-30T09:02:13.029Z</time>
      </trkpt>
      <trkpt lat="43.15712" lon="5.96503">
        <ele>235</ele>
        <time>2016-07-30T09:02:14.029Z</time>
      </trkpt>
      <trkpt lat="43.15712" lon="5.96506">
        <ele>236</ele>
        <time>2016-07-30T09:02:15.029Z</time>
      </trkpt>
      <trkpt lat="43.15712" lon="5.96509">
        <ele>236</ele>
        <time>2016-07-30T09:02:16.029Z</time>
      </trkpt>
      <trkpt lat="43.15713" lon="5.96512">
        <ele>236</ele>
        <time>2016-07-30T09:02:17.029Z</time>
      </trkpt>
      <trkpt lat="43.15713" lon="5.96515">
        <ele>237</ele>
        <time>2016-07-30T09:02:18.029Z</time>
      </trkpt>
      <trkpt lat="43.15713" lon="5.96518">
        <ele>237</ele>
        <time>2016-07-30T09:02:19.029Z</time>
      </trkpt>
      <trkpt lat="43.15714" lon="5.96521">
        <ele>237</ele>
        <time>2016-07-30T09:02:20.029Z</time>
      </trkpt>
      <trkpt lat="43.15714" lon="5.96525">
        <ele>237</ele>
        <time>2016-07-30T09:02:21.029Z</time>
      </trkpt>
      <trkpt lat="43.15715" lon="5.96528">
        <ele>238</ele>
        <time>2016-07-30T09:02:22.029Z</time>
      </trkpt>
      <trkpt lat="43.15715" lon="5.96531">
        <ele>238</ele>
        <time>2016-07-30T09:02:23.029Z</time>
      </trkpt>
      <trkpt lat="43.15715" lon="5.96535">
        <ele>238</ele>
        <time>2016-07-30T09:02:24.029Z</time>
      </trkpt>
      <trkpt lat="43.15716" lon="5.96538">
        <ele>238</ele>
        <time>2016-07-30T09:02:25.029Z</time>
      </trkpt>
      <trkpt lat="43.15716" lon="5.96542">
        <ele>239</ele>
        <time>2016-07-30T09:02:26.029Z</time>
      </trkpt>
      <trkpt lat="43.15716" lon="5.96545">
        <ele>239</ele>
        <time>2016-07-30T09:02:27.029Z</time>
      </trkpt>
      <trkpt lat="43.15715" lon="5.96549">
        <ele>239</ele>
        <time>2016-07-30T09:02:28.029Z</time>
      </trkpt>
      <trkpt lat="43.15715" lon="5.96552">
        <ele>239</ele>
        <time>2016-07-30T09:02:29.029Z</time>
      </trkpt>
      <trkpt lat="43.15715" lon="5.96556">
        <ele>239</ele>
        <time>2016-07-30T09:02:30.029Z</time>
      </trkpt>
      <trkpt lat="43.15715" lon="5.9656">
        <ele>239</ele>
        <time>2016-07-30T09:02:31.029Z</time>
      </trkpt>
      <trkpt lat="43.15715" lon="5.96563">
        <ele>239</ele>
        <time>2016-07-30T09:02:32.029Z</time>
      </trkpt>
      <trkpt lat="43.15715" lon="5.96567">
        <ele>239</ele>
        <time>2016-07-30T09:02:33.029Z</time>
      </trkpt>
      <trkpt lat="43.15715" lon="5.96571">
        <ele>239</ele>
        <time>2016-07-30T09:02:34.029Z</time>
      </trkpt>
      <trkpt lat="43.15714" lon="5.96574">
        <ele>239</ele>
        <time>2016-07-30T09:02:35.029Z</time>
      </trkpt>
      <trkpt lat="43.15714" lon="5.96578">
        <ele>240</ele>
        <time>2016-07-30T09:02:36.029Z</time>
      </trkpt>
      <trkpt lat="43.15714" lon="5.96581">
        <ele>240</ele>
        <time>2016-07-30T09:02:37.029Z</time>
      </trkpt>
      <trkpt lat="43.15714" lon="5.96585">
        <ele>239</ele>
        <time>2016-07-30T09:02:38.029Z</time>
      </trkpt>
      <trkpt lat="43.15713" lon="5.96589">
        <ele>239</ele>
        <time>2016-07-30T09:02:39.029Z</time>
      </trkpt>
      <trkpt lat="43.15712" lon="5.96594">
        <ele>239</ele>
        <time>2016-07-30T09:02:40.029Z</time>
      </trkpt>
      <trkpt lat="43.15711" lon="5.96598">
        <ele>240</ele>
        <time>2016-07-30T09:02:41.029Z</time>
      </trkpt>
      <trkpt lat="43.15711" lon="5.96602">
        <ele>240</ele>
        <time>2016-07-30T09:02:42.029Z</time>
      </trkpt>
      <trkpt lat="43.1571" lon="5.96606">
        <ele>240</ele>
        <time>2016-07-30T09:02:43.029Z</time>
      </trkpt>
      <trkpt lat="43.15709" lon="5.96611">
        <ele>240</ele>
        <time>2016-07-30T09:02:44.029Z</time>
      </trkpt>
      <trkpt lat="43.15709" lon="5.96615">
        <ele>240</ele>
        <time>2016-07-30T09:02:45.029Z</time>
      </trkpt>
      <trkpt lat="43.15708" lon="5.9662">
        <ele>240</ele>
        <time>2016-07-30T09:02:46.029Z</time>
      </trkpt>
      <trkpt lat="43.15707" lon="5.96624">
        <ele>239</ele>
        <time>2016-07-30T09:02:47.029Z</time>
      </trkpt>
      <trkpt lat="43.15706" lon="5.96629">
        <ele>239</ele>
        <time>2016-07-30T09:02:48.029Z</time>
      </trkpt>
      <trkpt lat="43.15704" lon="5.96634">
        <ele>238</ele>
        <time>2016-07-30T09:02:49.029Z</time>
      </trkpt>
      <trkpt lat="43.15702" lon="5.96638">
        <ele>238</ele>
        <time>2016-07-30T09:02:50.029Z</time>
      </trkpt>
      <trkpt lat="43.157" lon="5.96643">
        <ele>238</ele>
        <time>2016-07-30T09:02:51.029Z</time>
      </trkpt>
      <trkpt lat="43.15699" lon="5.96648">
        <ele>238</ele>
        <time>2016-07-30T09:02:52.029Z</time>
      </trkpt>
      <trkpt lat="43.15697" lon="5.96653">
        <ele>237</ele>
        <time>2016-07-30T09:02:53.029Z</time>
      </trkpt>
      <trkpt lat="43.15695" lon="5.96658">
        <ele>237</ele>
        <time>2016-07-30T09:02:54.029Z</time>
      </trkpt>
      <trkpt lat="43.15694" lon="5.96663">
        <ele>237</ele>
        <time>2016-07-30T09:02:55.029Z</time>
      </trkpt>
      <trkpt lat="43.15692" lon="5.96668">
        <ele>237</ele>
        <time>2016-07-30T09:02:56.029Z</time>
      </trkpt>
      <trkpt lat="43.15689" lon="5.96673">
        <ele>237</ele>
        <time>2016-07-30T09:02:57.029Z</time>
      </trkpt>
      <trkpt lat="43.15687" lon="5.96677">
        <ele>236</ele>
        <time>2016-07-30T09:02:58.029Z</time>
      </trkpt>
      <trkpt lat="43.15685" lon="5.96682">
        <ele>236</ele>
        <time>2016-07-30T09:02:59.029Z</time>
      </trkpt>
      <trkpt lat="43.15683" lon="5.96687">
        <ele>236</ele>
        <time>2016-07-30T09:03:00.029Z</time>
      </trkpt>
      <trkpt lat="43.1568" lon="5.96691">
        <ele>235</ele>
        <time>2016-07-30T09:03:01.029Z</time>
      </trkpt>
      <trkpt lat="43.15678" lon="5.96695">
        <ele>234</ele>
        <time>2016-07-30T09:03:02.029Z</time>
      </trkpt>
      <trkpt lat="43.15676" lon="5.96699">
        <ele>234</ele>
        <time>2016-07-30T09:03:03.029Z</time>
      </trkpt>
      <trkpt lat="43.15674" lon="5.96704">
        <ele>234</ele>
        <time>2016-07-30T09:03:04.029Z</time>
      </trkpt>
      <trkpt lat="43.15673" lon="5.96708">
        <ele>233</ele>
        <time>2016-07-30T09:03:05.029Z</time>
      </trkpt>
      <trkpt lat="43.15671" lon="5.96712">
        <ele>233</ele>
        <time>2016-07-30T09:03:06.029Z</time>
      </trkpt>
      <trkpt lat="43.15669" lon="5.96716">
        <ele>234</ele>
        <time>2016-07-30T09:03:07.029Z</time>
      </trkpt>
      <trkpt lat="43.15667" lon="5.96721">
        <ele>234</ele>
        <time>2016-07-30T09:03:08.029Z</time>
      </trkpt>
      <trkpt lat="43.15665" lon="5.96725">
        <ele>233</ele>
        <time>2016-07-30T09:03:09.029Z</time>
      </trkpt>
      <trkpt lat="43.15663" lon="5.96729">
        <ele>233</ele>
        <time>2016-07-30T09:03:10.029Z</time>
      </trkpt>
      <trkpt lat="43.15661" lon="5.96733">
        <ele>232</ele>
        <time>2016-07-30T09:03:11.029Z</time>
      </trkpt>
      <trkpt lat="43.15659" lon="5.96737">
        <ele>232</ele>
        <time>2016-07-30T09:03:12.029Z</time>
      </trkpt>
      <trkpt lat="43.15657" lon="5.96742">
        <ele>231</ele>
        <time>2016-07-30T09:03:13.029Z</time>
      </trkpt>
      <trkpt lat="43.15656" lon="5.96746">
        <ele>231</ele>
        <time>2016-07-30T09:03:14.029Z</time>
      </trkpt>
      <trkpt lat="43.15654" lon="5.9675">
        <ele>232</ele>
        <time>2016-07-30T09:03:15.029Z</time>
      </trkpt>
      <trkpt lat="43.15652" lon="5.96755">
        <ele>232</ele>
        <time>2016-07-30T09:03:16.029Z</time>
      </trkpt>
      <trkpt lat="43.1565" lon="5.9676">
        <ele>232</ele>
        <time>2016-07-30T09:03:17.029Z</time>
      </trkpt>
      <trkpt lat="43.15648" lon="5.96765">
        <ele>231</ele>
        <time>2016-07-30T09:03:18.029Z</time>
      </trkpt>
      <trkpt lat="43.15647" lon="5.9677">
        <ele>232</ele>
        <time>2016-07-30T09:03:19.029Z</time>
      </trkpt>
      <trkpt lat="43.15646" lon="5.96775">
        <ele>232</ele>
        <time>2016-07-30T09:03:20.029Z</time>
      </trkpt>
      <trkpt lat="43.15644" lon="5.9678">
        <ele>232</ele>
        <time>2016-07-30T09:03:21.029Z</time>
      </trkpt>
      <trkpt lat="43.15643" lon="5.96785">
        <ele>232</ele>
        <time>2016-07-30T09:03:22.029Z</time>
      </trkpt>
      <trkpt lat="43.15641" lon="5.96791">
        <ele>232</ele>
        <time>2016-07-30T09:03:23.029Z</time>
      </trkpt>
      <trkpt lat="43.1564" lon="5.96796">
        <ele>233</ele>
        <time>2016-07-30T09:03:24.029Z</time>
      </trkpt>
      <trkpt lat="43.15639" lon="5.96801">
        <ele>232</ele>
        <time>2016-07-30T09:03:25.029Z</time>
      </trkpt>
      <trkpt lat="43.15637" lon="5.96806">
        <ele>232</ele>
        <time>2016-07-30T09:03:26.029Z</time>
      </trkpt>
      <trkpt lat="43.15636" lon="5.96811">
        <ele>233</ele>
        <time>2016-07-30T09:03:27.029Z</time>
      </trkpt>
      <trkpt lat="43.15636" lon="5.96816">
        <ele>234</ele>
        <time>2016-07-30T09:03:28.029Z</time>
      </trkpt>
      <trkpt lat="43.15636" lon="5.96822">
        <ele>234</ele>
        <time>2016-07-30T09:03:29.029Z</time>
      </trkpt>
      <trkpt lat="43.15635" lon="5.96827">
        <ele>235</ele>
        <time>2016-07-30T09:03:30.029Z</time>
      </trkpt>
      <trkpt lat="43.15635" lon="5.96831">
        <ele>236</ele>
        <time>2016-07-30T09:03:31.029Z</time>
      </trkpt>
      <trkpt lat="43.15634" lon="5.96836">
        <ele>237</ele>
        <time>2016-07-30T09:03:32.029Z</time>
      </trkpt>
      <trkpt lat="43.15633" lon="5.96841">
        <ele>238</ele>
        <time>2016-07-30T09:03:33.029Z</time>
      </trkpt>
      <trkpt lat="43.15632" lon="5.96845">
        <ele>239</ele>
        <time>2016-07-30T09:03:34.029Z</time>
      </trkpt>
      <trkpt lat="43.15631" lon="5.96849">
        <ele>239</ele>
        <time>2016-07-30T09:03:35.029Z</time>
      </trkpt>
      <trkpt lat="43.1563" lon="5.96853">
        <ele>240</ele>
        <time>2016-07-30T09:03:36.029Z</time>
      </trkpt>
      <trkpt lat="43.15629" lon="5.96856">
        <ele>240</ele>
        <time>2016-07-30T09:03:37.029Z</time>
      </trkpt>
      <trkpt lat="43.15628" lon="5.96859">
        <ele>241</ele>
        <time>2016-07-30T09:03:38.029Z</time>
      </trkpt>
      <trkpt lat="43.15626" lon="5.96862">
        <ele>242</ele>
        <time>2016-07-30T09:03:39.029Z</time>
      </trkpt>
      <trkpt lat="43.15625" lon="5.96865">
        <ele>241</ele>
        <time>2016-07-30T09:03:40.029Z</time>
      </trkpt>
      <trkpt lat="43.15623" lon="5.96869">
        <ele>241</ele>
        <time>2016-07-30T09:03:41.029Z</time>
      </trkpt>
      <trkpt lat="43.15622" lon="5.96872">
        <ele>241</ele>
        <time>2016-07-30T09:03:42.029Z</time>
      </trkpt>
      <trkpt lat="43.1562" lon="5.96875">
        <ele>241</ele>
        <time>2016-07-30T09:03:43.029Z</time>
      </trkpt>
      <trkpt lat="43.15618" lon="5.96878">
        <ele>241</ele>
        <time>2016-07-30T09:03:44.029Z</time>
      </trkpt>
      <trkpt lat="43.15617" lon="5.96881">
        <ele>242</ele>
        <time>2016-07-30T09:03:45.029Z</time>
      </trkpt>
      <trkpt lat="43.15615" lon="5.96884">
        <ele>242</ele>
        <time>2016-07-30T09:03:46.029Z</time>
      </trkpt>
      <trkpt lat="43.15613" lon="5.96887">
        <ele>242</ele>
        <time>2016-07-30T09:03:47.029Z</time>
      </trkpt>
      <trkpt lat="43.15612" lon="5.96891">
        <ele>243</ele>
        <time>2016-07-30T09:03:48.029Z</time>
      </trkpt>
      <trkpt lat="43.1561" lon="5.96894">
        <ele>243</ele>
        <time>2016-07-30T09:03:49.029Z</time>
      </trkpt>
      <trkpt lat="43.15608" lon="5.96898">
        <ele>244</ele>
        <time>2016-07-30T09:03:50.029Z</time>
      </trkpt>
      <trkpt lat="43.15606" lon="5.96902">
        <ele>244</ele>
        <time>2016-07-30T09:03:51.029Z</time>
      </trkpt>
      <trkpt lat="43.15603" lon="5.96906">
        <ele>244</ele>
        <time>2016-07-30T09:03:52.029Z</time>
      </trkpt>
      <trkpt lat="43.15601" lon="5.9691">
        <ele>244</ele>
        <time>2016-07-30T09:03:53.029Z</time>
      </trkpt>
      <trkpt lat="43.15599" lon="5.96914">
        <ele>245</ele>
        <time>2016-07-30T09:03:54.029Z</time>
      </trkpt>
      <trkpt lat="43.15597" lon="5.96918">
        <ele>244</ele>
        <time>2016-07-30T09:03:55.029Z</time>
      </trkpt>
      <trkpt lat="43.15594" lon="5.96922">
        <ele>244</ele>
        <time>2016-07-30T09:03:56.029Z</time>
      </trkpt>
      <trkpt lat="43.15591" lon="5.96926">
        <ele>244</ele>
        <time>2016-07-30T09:03:57.029Z</time>
      </trkpt>
      <trkpt lat="43.15588" lon="5.96931">
        <ele>244</ele>
        <time>2016-07-30T09:03:58.029Z</time>
      </trkpt>
      <trkpt lat="43.15586" lon="5.96935">
        <ele>244</ele>
        <time>2016-07-30T09:03:59.029Z</time>
      </trkpt>
      <trkpt lat="43.15583" lon="5.9694">
        <ele>243</ele>
        <time>2016-07-30T09:04:00.029Z</time>
      </trkpt>
      <trkpt lat="43.1558" lon="5.96945">
        <ele>243</ele>
        <time>2016-07-30T09:04:01.029Z</time>
      </trkpt>
      <trkpt lat="43.15577" lon="5.9695">
        <ele>242</ele>
        <time>2016-07-30T09:04:02.029Z</time>
      </trkpt>
      <trkpt lat="43.15574" lon="5.96956">
        <ele>243</ele>
        <time>2016-07-30T09:04:03.029Z</time>
      </trkpt>
      <trkpt lat="43.15571" lon="5.96962">
        <ele>242</ele>
        <time>2016-07-30T09:04:04.029Z</time>
      </trkpt>
      <trkpt lat="43.15568" lon="5.96969">
        <ele>241</ele>
        <time>2016-07-30T09:04:05.029Z</time>
      </trkpt>
      <trkpt lat="43.15566" lon="5.96976">
        <ele>241</ele>
        <time>2016-07-30T09:04:06.029Z</time>
      </trkpt>
      <trkpt lat="43.15564" lon="5.96983">
        <ele>240</ele>
        <time>2016-07-30T09:04:07.029Z</time>
      </trkpt>
      <trkpt lat="43.15563" lon="5.9699">
        <ele>240</ele>
        <time>2016-07-30T09:04:08.029Z</time>
      </trkpt>
      <trkpt lat="43.15562" lon="5.96997">
        <ele>239</ele>
        <time>2016-07-30T09:04:09.029Z</time>
      </trkpt>
      <trkpt lat="43.15562" lon="5.97005">
        <ele>240</ele>
        <time>2016-07-30T09:04:10.029Z</time>
      </trkpt>
      <trkpt lat="43.15562" lon="5.97012">
        <ele>240</ele>
        <time>2016-07-30T09:04:11.029Z</time>
      </trkpt>
      <trkpt lat="43.15563" lon="5.9702">
        <ele>240</ele>
        <time>2016-07-30T09:04:12.029Z</time>
      </trkpt>
      <trkpt lat="43.15565" lon="5.97028">
        <ele>241</ele>
        <time>2016-07-30T09:04:13.029Z</time>
      </trkpt>
      <trkpt lat="43.15566" lon="5.97035">
        <ele>241</ele>
        <time>2016-07-30T09:04:14.029Z</time>
      </trkpt>
      <trkpt lat="43.15567" lon="5.97043">
        <ele>240</ele>
        <time>2016-07-30T09:04:15.029Z</time>
      </trkpt>
      <trkpt lat="43.15569" lon="5.9705">
        <ele>240</ele>
        <time>2016-07-30T09:04:16.029Z</time>
      </trkpt>
      <trkpt lat="43.1557" lon="5.97057">
        <ele>240</ele>
        <time>2016-07-30T09:04:17.029Z</time>
      </trkpt>
      <trkpt lat="43.15571" lon="5.97064">
        <ele>240</ele>
        <time>2016-07-30T09:04:18.029Z</time>
      </trkpt>
      <trkpt lat="43.15573" lon="5.97071">
        <ele>240</ele>
        <time>2016-07-30T09:04:19.029Z</time>
      </trkpt>
      <trkpt lat="43.15575" lon="5.97078">
        <ele>240</ele>
        <time>2016-07-30T09:04:20.029Z</time>
      </trkpt>
      <trkpt lat="43.15576" lon="5.97085">
        <ele>240</ele>
        <time>2016-07-30T09:04:21.029Z</time>
      </trkpt>
      <trkpt lat="43.15578" lon="5.97092">
        <ele>241</ele>
        <time>2016-07-30T09:04:22.029Z</time>
      </trkpt>
      <trkpt lat="43.1558" lon="5.97098">
        <ele>241</ele>
        <time>2016-07-30T09:04:23.029Z</time>
      </trkpt>
      <trkpt lat="43.15581" lon="5.97105">
        <ele>241</ele>
        <time>2016-07-30T09:04:24.029Z</time>
      </trkpt>
      <trkpt lat="43.15583" lon="5.97111">
        <ele>241</ele>
        <time>2016-07-30T09:04:25.029Z</time>
      </trkpt>
      <trkpt lat="43.15584" lon="5.97118">
        <ele>241</ele>
        <time>2016-07-30T09:04:26.029Z</time>
      </trkpt>
      <trkpt lat="43.15585" lon="5.97124">
        <ele>241</ele>
        <time>2016-07-30T09:04:27.029Z</time>
      </trkpt>
      <trkpt lat="43.15586" lon="5.97131">
        <ele>241</ele>
        <time>2016-07-30T09:04:28.029Z</time>
      </trkpt>
      <trkpt lat="43.15586" lon="5.97137">
        <ele>241</ele>
        <time>2016-07-30T09:04:29.029Z</time>
      </trkpt>
      <trkpt lat="43.15587" lon="5.97144">
        <ele>241</ele>
        <time>2016-07-30T09:04:30.029Z</time>
      </trkpt>
      <trkpt lat="43.15586" lon="5.97151">
        <ele>241</ele>
        <time>2016-07-30T09:04:31.029Z</time>
      </trkpt>
      <trkpt lat="43.15586" lon="5.97157">
        <ele>241</ele>
        <time>2016-07-30T09:04:32.029Z</time>
      </trkpt>
      <trkpt lat="43.15586" lon="5.97164">
        <ele>241</ele>
        <time>2016-07-30T09:04:33.029Z</time>
      </trkpt>
      <trkpt lat="43.15586" lon="5.9717">
        <ele>241</ele>
        <time>2016-07-30T09:04:34.029Z</time>
      </trkpt>
      <trkpt lat="43.15586" lon="5.97177">
        <ele>241</ele>
        <time>2016-07-30T09:04:35.029Z</time>
      </trkpt>
      <trkpt lat="43.15585" lon="5.97183">
        <ele>241</ele>
        <time>2016-07-30T09:04:36.029Z</time>
      </trkpt>
      <trkpt lat="43.15585" lon="5.97189">
        <ele>241</ele>
        <time>2016-07-30T09:04:37.029Z</time>
      </trkpt>
      <trkpt lat="43.15585" lon="5.97196">
        <ele>242</ele>
        <time>2016-07-30T09:04:38.029Z</time>
      </trkpt>
      <trkpt lat="43.15585" lon="5.97202">
        <ele>242</ele>
        <time>2016-07-30T09:04:39.029Z</time>
      </trkpt>
      <trkpt lat="43.15585" lon="5.97209">
        <ele>242</ele>
        <time>2016-07-30T09:04:40.029Z</time>
      </trkpt>
      <trkpt lat="43.15585" lon="5.97215">
        <ele>242</ele>
        <time>2016-07-30T09:04:41.029Z</time>
      </trkpt>
      <trkpt lat="43.15585" lon="5.97221">
        <ele>243</ele>
        <time>2016-07-30T09:04:42.029Z</time>
      </trkpt>
      <trkpt lat="43.15585" lon="5.97228">
        <ele>243</ele>
        <time>2016-07-30T09:04:43.029Z</time>
      </trkpt>
      <trkpt lat="43.15585" lon="5.97234">
        <ele>243</ele>
        <time>2016-07-30T09:04:44.029Z</time>
      </trkpt>
      <trkpt lat="43.15585" lon="5.97241">
        <ele>243</ele>
        <time>2016-07-30T09:04:45.029Z</time>
      </trkpt>
      <trkpt lat="43.15585" lon="5.97247">
        <ele>243</ele>
        <time>2016-07-30T09:04:46.029Z</time>
      </trkpt>
      <trkpt lat="43.15585" lon="5.97253">
        <ele>243</ele>
        <time>2016-07-30T09:04:47.029Z</time>
      </trkpt>
      <trkpt lat="43.15585" lon="5.9726">
        <ele>243</ele>
        <time>2016-07-30T09:04:48.029Z</time>
      </trkpt>
      <trkpt lat="43.15586" lon="5.97266">
        <ele>243</ele>
        <time>2016-07-30T09:04:49.029Z</time>
      </trkpt>
      <trkpt lat="43.15586" lon="5.97273">
        <ele>244</ele>
        <time>2016-07-30T09:04:50.029Z</time>
      </trkpt>
      <trkpt lat="43.15587" lon="5.97279">
        <ele>244</ele>
        <time>2016-07-30T09:04:51.029Z</time>
      </trkpt>
      <trkpt lat="43.15587" lon="5.97286">
        <ele>244</ele>
        <time>2016-07-30T09:04:52.029Z</time>
      </trkpt>
      <trkpt lat="43.15588" lon="5.97292">
        <ele>243</ele>
        <time>2016-07-30T09:04:53.029Z</time>
      </trkpt>
      <trkpt lat="43.15589" lon="5.97298">
        <ele>243</ele>
        <time>2016-07-30T09:04:54.029Z</time>
      </trkpt>
      <trkpt lat="43.1559" lon="5.97304">
        <ele>244</ele>
        <time>2016-07-30T09:04:55.029Z</time>
      </trkpt>
      <trkpt lat="43.15592" lon="5.9731">
        <ele>244</ele>
        <time>2016-07-30T09:04:56.029Z</time>
      </trkpt>
      <trkpt lat="43.15593" lon="5.97315">
        <ele>244</ele>
        <time>2016-07-30T09:04:57.029Z</time>
      </trkpt>
      <trkpt lat="43.15595" lon="5.97321">
        <ele>244</ele>
        <time>2016-07-30T09:04:58.029Z</time>
      </trkpt>
      <trkpt lat="43.15597" lon="5.97326">
        <ele>244</ele>
        <time>2016-07-30T09:04:59.029Z</time>
      </trkpt>
      <trkpt lat="43.15599" lon="5.97331">
        <ele>244</ele>
        <time>2016-07-30T09:05:00.029Z</time>
      </trkpt>
      <trkpt lat="43.15602" lon="5.97335">
        <ele>245</ele>
        <time>2016-07-30T09:05:01.029Z</time>
      </trkpt>
      <trkpt lat="43.15605" lon="5.97339">
        <ele>245</ele>
        <time>2016-07-30T09:05:02.029Z</time>
      </trkpt>
      <trkpt lat="43.15608" lon="5.97342">
        <ele>245</ele>
        <time>2016-07-30T09:05:03.029Z</time>
      </trkpt>
      <trkpt lat="43.1561" lon="5.97346">
        <ele>245</ele>
        <time>2016-07-30T09:05:04.029Z</time>
      </trkpt>
      <trkpt lat="43.15613" lon="5.97349">
        <ele>245</ele>
        <time>2016-07-30T09:05:05.029Z</time>
      </trkpt>
      <trkpt lat="43.15615" lon="5.97353">
        <ele>246</ele>
        <time>2016-07-30T09:05:06.029Z</time>
      </trkpt>
      <trkpt lat="43.15617" lon="5.97356">
        <ele>246</ele>
        <time>2016-07-30T09:05:07.029Z</time>
      </trkpt>
      <trkpt lat="43.1562" lon="5.97359">
        <ele>245</ele>
        <time>2016-07-30T09:05:08.029Z</time>
      </trkpt>
      <trkpt lat="43.15623" lon="5.97362">
        <ele>245</ele>
        <time>2016-07-30T09:05:09.029Z</time>
      </trkpt>
      <trkpt lat="43.15626" lon="5.97365">
        <ele>245</ele>
        <time>2016-07-30T09:05:10.029Z</time>
      </trkpt>
      <trkpt lat="43.15629" lon="5.97369">
        <ele>244</ele>
        <time>2016-07-30T09:05:11.029Z</time>
      </trkpt>
      <trkpt lat="43.15632" lon="5.97373">
        <ele>244</ele>
        <time>2016-07-30T09:05:12.029Z</time>
      </trkpt>
      <trkpt lat="43.15635" lon="5.97377">
        <ele>244</ele>
        <time>2016-07-30T09:05:13.029Z</time>
      </trkpt>
      <trkpt lat="43.15637" lon="5.97381">
        <ele>244</ele>
        <time>2016-07-30T09:05:14.029Z</time>
      </trkpt>
      <trkpt lat="43.1564" lon="5.97386">
        <ele>243</ele>
        <time>2016-07-30T09:05:15.029Z</time>
      </trkpt>
      <trkpt lat="43.15643" lon="5.9739">
        <ele>243</ele>
        <time>2016-07-30T09:05:16.029Z</time>
      </trkpt>
      <trkpt lat="43.15646" lon="5.97395">
        <ele>243</ele>
        <time>2016-07-30T09:05:17.029Z</time>
      </trkpt>
      <trkpt lat="43.15649" lon="5.974">
        <ele>243</ele>
        <time>2016-07-30T09:05:18.029Z</time>
      </trkpt>
      <trkpt lat="43.15652" lon="5.97406">
        <ele>242</ele>
        <time>2016-07-30T09:05:19.029Z</time>
      </trkpt>
      <trkpt lat="43.15654" lon="5.97411">
        <ele>242</ele>
        <time>2016-07-30T09:05:20.029Z</time>
      </trkpt>
      <trkpt lat="43.15657" lon="5.97417">
        <ele>242</ele>
        <time>2016-07-30T09:05:21.029Z</time>
      </trkpt>
      <trkpt lat="43.15659" lon="5.97422">
        <ele>242</ele>
        <time>2016-07-30T09:05:22.029Z</time>
      </trkpt>
      <trkpt lat="43.1566" lon="5.97428">
        <ele>242</ele>
        <time>2016-07-30T09:05:23.029Z</time>
      </trkpt>
      <trkpt lat="43.15662" lon="5.97433">
        <ele>242</ele>
        <time>2016-07-30T09:05:24.029Z</time>
      </trkpt>
      <trkpt lat="43.15663" lon="5.97437">
        <ele>242</ele>
        <time>2016-07-30T09:05:25.029Z</time>
      </trkpt>
      <trkpt lat="43.15664" lon="5.97442">
        <ele>242</ele>
        <time>2016-07-30T09:05:26.029Z</time>
      </trkpt>
      <trkpt lat="43.15666" lon="5.97446">
        <ele>242</ele>
        <time>2016-07-30T09:05:27.029Z</time>
      </trkpt>
      <trkpt lat="43.15667" lon="5.97451">
        <ele>243</ele>
        <time>2016-07-30T09:05:28.029Z</time>
      </trkpt>
      <trkpt lat="43.15668" lon="5.97455">
        <ele>243</ele>
        <time>2016-07-30T09:05:29.029Z</time>
      </trkpt>
      <trkpt lat="43.15669" lon="5.97458">
        <ele>244</ele>
        <time>2016-07-30T09:05:30.029Z</time>
      </trkpt>
      <trkpt lat="43.1567" lon="5.97462">
        <ele>244</ele>
        <time>2016-07-30T09:05:31.029Z</time>
      </trkpt>
      <trkpt lat="43.1567" lon="5.97466">
        <ele>244</ele>
        <time>2016-07-30T09:05:32.029Z</time>
      </trkpt>
      <trkpt lat="43.1567" lon="5.9747">
        <ele>244</ele>
        <time>2016-07-30T09:05:33.029Z</time>
      </trkpt>
      <trkpt lat="43.15671" lon="5.97473">
        <ele>244</ele>
        <time>2016-07-30T09:05:34.029Z</time>
      </trkpt>
      <trkpt lat="43.15671" lon="5.97477">
        <ele>244</ele>
        <time>2016-07-30T09:05:35.029Z</time>
      </trkpt>
      <trkpt lat="43.15672" lon="5.9748">
        <ele>244</ele>
        <time>2016-07-30T09:05:36.029Z</time>
      </trkpt>
      <trkpt lat="43.15672" lon="5.97484">
        <ele>244</ele>
        <time>2016-07-30T09:05:37.029Z</time>
      </trkpt>
      <trkpt lat="43.15672" lon="5.97487">
        <ele>244</ele>
        <time>2016-07-30T09:05:38.029Z</time>
      </trkpt>
      <trkpt lat="43.15672" lon="5.97491">
        <ele>244</ele>
        <time>2016-07-30T09:05:39.029Z</time>
      </trkpt>
      <trkpt lat="43.15672" lon="5.97494">
        <ele>245</ele>
        <time>2016-07-30T09:05:40.029Z</time>
      </trkpt>
      <trkpt lat="43.15673" lon="5.97497">
        <ele>245</ele>
        <time>2016-07-30T09:05:41.029Z</time>
      </trkpt>
      <trkpt lat="43.15673" lon="5.975">
        <ele>245</ele>
        <time>2016-07-30T09:05:42.029Z</time>
      </trkpt>
      <trkpt lat="43.15673" lon="5.97503">
        <ele>245</ele>
        <time>2016-07-30T09:05:43.029Z</time>
      </trkpt>
      <trkpt lat="43.15673" lon="5.97506">
        <ele>245</ele>
        <time>2016-07-30T09:05:44.029Z</time>
      </trkpt>
      <trkpt lat="43.15673" lon="5.97509">
        <ele>246</ele>
        <time>2016-07-30T09:05:45.029Z</time>
      </trkpt>
      <trkpt lat="43.15673" lon="5.97512">
        <ele>245</ele>
        <time>2016-07-30T09:05:46.029Z</time>
      </trkpt>
      <trkpt lat="43.15674" lon="5.97515">
        <ele>245</ele>
        <time>2016-07-30T09:05:47.029Z</time>
      </trkpt>
      <trkpt lat="43.15674" lon="5.97518">
        <ele>246</ele>
        <time>2016-07-30T09:05:48.029Z</time>
      </trkpt>
      <trkpt lat="43.15674" lon="5.97521">
        <ele>246</ele>
        <time>2016-07-30T09:05:49.029Z</time>
      </trkpt>
      <trkpt lat="43.15675" lon="5.97524">
        <ele>246</ele>
        <time>2016-07-30T09:05:50.029Z</time>
      </trkpt>
      <trkpt lat="43.15675" lon="5.97527">
        <ele>247</ele>
        <time>2016-07-30T09:05:51.029Z</time>
      </trkpt>
      <trkpt lat="43.15676" lon="5.9753">
        <ele>247</ele>
        <time>2016-07-30T09:05:52.029Z</time>
      </trkpt>
      <trkpt lat="43.15676" lon="5.97532">
        <ele>247</ele>
        <time>2016-07-30T09:05:53.029Z</time>
      </trkpt>
      <trkpt lat="43.15676" lon="5.97535">
        <ele>247</ele>
        <time>2016-07-30T09:05:54.029Z</time>
      </trkpt>
      <trkpt lat="43.15677" lon="5.97538">
        <ele>248</ele>
        <time>2016-07-30T09:05:55.029Z</time>
      </trkpt>
      <trkpt lat="43.15677" lon="5.97541">
        <ele>248</ele>
        <time>2016-07-30T09:05:56.029Z</time>
      </trkpt>
      <trkpt lat="43.15678" lon="5.97543">
        <ele>248</ele>
        <time>2016-07-30T09:05:57.029Z</time>
      </trkpt>
      <trkpt lat="43.15679" lon="5.97546">
        <ele>249</ele>
        <time>2016-07-30T09:05:58.029Z</time>
      </trkpt>
      <trkpt lat="43.15679" lon="5.97549">
        <ele>249</ele>
        <time>2016-07-30T09:05:59.029Z</time>
      </trkpt>
      <trkpt lat="43.1568" lon="5.97551">
        <ele>249</ele>
        <time>2016-07-30T09:06:00.029Z</time>
      </trkpt>
      <trkpt lat="43.1568" lon="5.97554">
        <ele>249</ele>
        <time>2016-07-30T09:06:01.029Z</time>
      </trkpt>
      <trkpt lat="43.15681" lon="5.97556">
        <ele>249</ele>
        <time>2016-07-30T09:06:02.029Z</time>
      </trkpt>
      <trkpt lat="43.15681" lon="5.97559">
        <ele>249</ele>
        <time>2016-07-30T09:06:03.029Z</time>
      </trkpt>
      <trkpt lat="43.15682" lon="5.97562">
        <ele>250</ele>
        <time>2016-07-30T09:06:04.029Z</time>
      </trkpt>
      <trkpt lat="43.15682" lon="5.97564">
        <ele>249</ele>
        <time>2016-07-30T09:06:05.029Z</time>
      </trkpt>
      <trkpt lat="43.15682" lon="5.97567">
        <ele>249</ele>
        <time>2016-07-30T09:06:06.029Z</time>
      </trkpt>
      <trkpt lat="43.15683" lon="5.9757">
        <ele>249</ele>
        <time>2016-07-30T09:06:07.029Z</time>
      </trkpt>
      <trkpt lat="43.15683" lon="5.97573">
        <ele>249</ele>
        <time>2016-07-30T09:06:08.029Z</time>
      </trkpt>
      <trkpt lat="43.15684" lon="5.97576">
        <ele>249</ele>
        <time>2016-07-30T09:06:09.029Z</time>
      </trkpt>
      <trkpt lat="43.15684" lon="5.97578">
        <ele>250</ele>
        <time>2016-07-30T09:06:10.029Z</time>
      </trkpt>
      <trkpt lat="43.15685" lon="5.97581">
        <ele>250</ele>
        <time>2016-07-30T09:06:11.029Z</time>
      </trkpt>
      <trkpt lat="43.15685" lon="5.97584">
        <ele>250</ele>
        <time>2016-07-30T09:06:12.029Z</time>
      </trkpt>
      <trkpt lat="43.15686" lon="5.97587">
        <ele>250</ele>
        <time>2016-07-30T09:06:13.029Z</time>
      </trkpt>
      <trkpt lat="43.15686" lon="5.9759">
        <ele>250</ele>
        <time>2016-07-30T09:06:14.029Z</time>
      </trkpt>
      <trkpt lat="43.15687" lon="5.97592">
        <ele>250</ele>
        <time>2016-07-30T09:06:15.029Z</time>
      </trkpt>
      <trkpt lat="43.15688" lon="5.97595">
        <ele>250</ele>
        <time>2016-07-30T09:06:16.029Z</time>
      </trkpt>
      <trkpt lat="43.15688" lon="5.97598">
        <ele>250</ele>
        <time>2016-07-30T09:06:17.029Z</time>
      </trkpt>
      <trkpt lat="43.15689" lon="5.97601">
        <ele>251</ele>
        <time>2016-07-30T09:06:18.029Z</time>
      </trkpt>
      <trkpt lat="43.1569" lon="5.97604">
        <ele>251</ele>
        <time>2016-07-30T09:06:19.029Z</time>
      </trkpt>
      <trkpt lat="43.1569" lon="5.97606">
        <ele>251</ele>
        <time>2016-07-30T09:06:20.029Z</time>
      </trkpt>
      <trkpt lat="43.15691" lon="5.97609">
        <ele>251</ele>
        <time>2016-07-30T09:06:21.029Z</time>
      </trkpt>
      <trkpt lat="43.15691" lon="5.97611">
        <ele>252</ele>
        <time>2016-07-30T09:06:22.029Z</time>
      </trkpt>
      <trkpt lat="43.15692" lon="5.97613">
        <ele>252</ele>
        <time>2016-07-30T09:06:23.029Z</time>
      </trkpt>
      <trkpt lat="43.15692" lon="5.97616">
        <ele>252</ele>
        <time>2016-07-30T09:06:24.029Z</time>
      </trkpt>
      <trkpt lat="43.15693" lon="5.97618">
        <ele>252</ele>
        <time>2016-07-30T09:06:25.029Z</time>
      </trkpt>
      <trkpt lat="43.15694" lon="5.97621">
        <ele>253</ele>
        <time>2016-07-30T09:06:26.029Z</time>
      </trkpt>
      <trkpt lat="43.15694" lon="5.97623">
        <ele>253</ele>
        <time>2016-07-30T09:06:27.029Z</time>
      </trkpt>
      <trkpt lat="43.15695" lon="5.97626">
        <ele>253</ele>
        <time>2016-07-30T09:06:28.029Z</time>
      </trkpt>
      <trkpt lat="43.15696" lon="5.97628">
        <ele>253</ele>
        <time>2016-07-30T09:06:29.029Z</time>
      </trkpt>
      <trkpt lat="43.15697" lon="5.9763">
        <ele>253</ele>
        <time>2016-07-30T09:06:30.029Z</time>
      </trkpt>
      <trkpt lat="43.15697" lon="5.97632">
        <ele>254</ele>
        <time>2016-07-30T09:06:31.029Z</time>
      </trkpt>
      <trkpt lat="43.15697" lon="5.97633">
        <ele>254</ele>
        <time>2016-07-30T09:06:32.029Z</time>
      </trkpt>
      <trkpt lat="43.15698" lon="5.97635">
        <ele>254</ele>
        <time>2016-07-30T09:06:33.029Z</time>
      </trkpt>
      <trkpt lat="43.15699" lon="5.97637">
        <ele>254</ele>
        <time>2016-07-30T09:06:34.029Z</time>
      </trkpt>
      <trkpt lat="43.15699" lon="5.9764">
        <ele>254</ele>
        <time>2016-07-30T09:06:35.029Z</time>
      </trkpt>
      <trkpt lat="43.157" lon="5.97643">
        <ele>254</ele>
        <time>2016-07-30T09:06:36.029Z</time>
      </trkpt>
      <trkpt lat="43.157" lon="5.97646">
        <ele>254</ele>
        <time>2016-07-30T09:06:37.029Z</time>
      </trkpt>
      <trkpt lat="43.15701" lon="5.97648">
        <ele>255</ele>
        <time>2016-07-30T09:06:38.029Z</time>
      </trkpt>
      <trkpt lat="43.15701" lon="5.97651">
        <ele>254</ele>
        <time>2016-07-30T09:06:39.029Z</time>
      </trkpt>
      <trkpt lat="43.15702" lon="5.97653">
        <ele>254</ele>
        <time>2016-07-30T09:06:40.029Z</time>
      </trkpt>
      <trkpt lat="43.15702" lon="5.97656">
        <ele>254</ele>
        <time>2016-07-30T09:06:41.029Z</time>
      </trkpt>
      <trkpt lat="43.15702" lon="5.97658">
        <ele>254</ele>
        <time>2016-07-30T09:06:42.029Z</time>
      </trkpt>
      <trkpt lat="43.15703" lon="5.97661">
        <ele>254</ele>
        <time>2016-07-30T09:06:43.029Z</time>
      </trkpt>
      <trkpt lat="43.15704" lon="5.97663">
        <ele>254</ele>
        <time>2016-07-30T09:06:44.029Z</time>
      </trkpt>
      <trkpt lat="43.15704" lon="5.97665">
        <ele>254</ele>
        <time>2016-07-30T09:06:45.029Z</time>
      </trkpt>
      <trkpt lat="43.15705" lon="5.97668">
        <ele>255</ele>
        <time>2016-07-30T09:06:46.029Z</time>
      </trkpt>
      <trkpt lat="43.15706" lon="5.9767">
        <ele>255</ele>
        <time>2016-07-30T09:06:47.029Z</time>
      </trkpt>
      <trkpt lat="43.15707" lon="5.97672">
        <ele>255</ele>
        <time>2016-07-30T09:06:48.029Z</time>
      </trkpt>
      <trkpt lat="43.15707" lon="5.97674">
        <ele>255</ele>
        <time>2016-07-30T09:06:49.029Z</time>
      </trkpt>
      <trkpt lat="43.15708" lon="5.97676">
        <ele>256</ele>
        <time>2016-07-30T09:06:50.029Z</time>
      </trkpt>
      <trkpt lat="43.15708" lon="5.97678">
        <ele>256</ele>
        <time>2016-07-30T09:06:51.029Z</time>
      </trkpt>
      <trkpt lat="43.15709" lon="5.9768">
        <ele>256</ele>
        <time>2016-07-30T09:06:52.029Z</time>
      </trkpt>
      <trkpt lat="43.15709" lon="5.97682">
        <ele>257</ele>
        <time>2016-07-30T09:06:53.029Z</time>
      </trkpt>
      <trkpt lat="43.15709" lon="5.97684">
        <ele>257</ele>
        <time>2016-07-30T09:06:54.029Z</time>
      </trkpt>
      <trkpt lat="43.15709" lon="5.97687">
        <ele>257</ele>
        <time>2016-07-30T09:06:55.029Z</time>
      </trkpt>
      <trkpt lat="43.15709" lon="5.97689">
        <ele>258</ele>
        <time>2016-07-30T09:06:56.029Z</time>
      </trkpt>
      <trkpt lat="43.15709" lon="5.9769">
        <ele>259</ele>
        <time>2016-07-30T09:06:57.029Z</time>
      </trkpt>
      <trkpt lat="43.15709" lon="5.97692">
        <ele>259</ele>
        <time>2016-07-30T09:06:58.029Z</time>
      </trkpt>
      <trkpt lat="43.15709" lon="5.97695">
        <ele>260</ele>
        <time>2016-07-30T09:06:59.029Z</time>
      </trkpt>
      <trkpt lat="43.15709" lon="5.97697">
        <ele>260</ele>
        <time>2016-07-30T09:07:00.029Z</time>
      </trkpt>
      <trkpt lat="43.15709" lon="5.97699">
        <ele>260</ele>
        <time>2016-07-30T09:07:01.029Z</time>
      </trkpt>
      <trkpt lat="43.15709" lon="5.97701">
        <ele>260</ele>
        <time>2016-07-30T09:07:02.029Z</time>
      </trkpt>
      <trkpt lat="43.15709" lon="5.97703">
        <ele>260</ele>
        <time>2016-07-30T09:07:03.029Z</time>
      </trkpt>
      <trkpt lat="43.15709" lon="5.97705">
        <ele>260</ele>
        <time>2016-07-30T09:07:04.029Z</time>
      </trkpt>
      <trkpt lat="43.15708" lon="5.97707">
        <ele>261</ele>
        <time>2016-07-30T09:07:05.029Z</time>
      </trkpt>
      <trkpt lat="43.15708" lon="5.97709">
        <ele>261</ele>
        <time>2016-07-30T09:07:06.029Z</time>
      </trkpt>
      <trkpt lat="43.15708" lon="5.97711">
        <ele>261</ele>
        <time>2016-07-30T09:07:07.029Z</time>
      </trkpt>
      <trkpt lat="43.15709" lon="5.97713">
        <ele>260</ele>
        <time>2016-07-30T09:07:08.029Z</time>
      </trkpt>
      <trkpt lat="43.15709" lon="5.97715">
        <ele>261</ele>
        <time>2016-07-30T09:07:09.029Z</time>
      </trkpt>
      <trkpt lat="43.15709" lon="5.97716">
        <ele>261</ele>
        <time>2016-07-30T09:07:10.029Z</time>
      </trkpt>
      <trkpt lat="43.15709" lon="5.97718">
        <ele>261</ele>
        <time>2016-07-30T09:07:11.029Z</time>
      </trkpt>
      <trkpt lat="43.1571" lon="5.9772">
        <ele>261</ele>
        <time>2016-07-30T09:07:12.029Z</time>
      </trkpt>
      <trkpt lat="43.1571" lon="5.97722">
        <ele>261</ele>
        <time>2016-07-30T09:07:13.029Z</time>
      </trkpt>
      <trkpt lat="43.1571" lon="5.97724">
        <ele>260</ele>
        <time>2016-07-30T09:07:14.029Z</time>
      </trkpt>
      <trkpt lat="43.1571" lon="5.97726">
        <ele>260</ele>
        <time>2016-07-30T09:07:15.029Z</time>
      </trkpt>
      <trkpt lat="43.15711" lon="5.97727">
        <ele>260</ele>
        <time>2016-07-30T09:07:16.029Z</time>
      </trkpt>
      <trkpt lat="43.15711" lon="5.97729">
        <ele>260</ele>
        <time>2016-07-30T09:07:17.029Z</time>
      </trkpt>
      <trkpt lat="43.15712" lon="5.97731">
        <ele>261</ele>
        <time>2016-07-30T09:07:18.029Z</time>
      </trkpt>
      <trkpt lat="43.15712" lon="5.97733">
        <ele>260</ele>
        <time>2016-07-30T09:07:19.029Z</time>
      </trkpt>
      <trkpt lat="43.15713" lon="5.97735">
        <ele>261</ele>
        <time>2016-07-30T09:07:20.029Z</time>
      </trkpt>
      <trkpt lat="43.15713" lon="5.97737">
        <ele>261</ele>
        <time>2016-07-30T09:07:21.029Z</time>
      </trkpt>
      <trkpt lat="43.15714" lon="5.97739">
        <ele>262</ele>
        <time>2016-07-30T09:07:22.029Z</time>
      </trkpt>
      <trkpt lat="43.15714" lon="5.97741">
        <ele>262</ele>
        <time>2016-07-30T09:07:23.029Z</time>
      </trkpt>
      <trkpt lat="43.15715" lon="5.97744">
        <ele>262</ele>
        <time>2016-07-30T09:07:24.029Z</time>
      </trkpt>
      <trkpt lat="43.15715" lon="5.97746">
        <ele>262</ele>
        <time>2016-07-30T09:07:25.029Z</time>
      </trkpt>
      <trkpt lat="43.15716" lon="5.97748">
        <ele>262</ele>
        <time>2016-07-30T09:07:26.029Z</time>
      </trkpt>
      <trkpt lat="43.15716" lon="5.97751">
        <ele>263</ele>
        <time>2016-07-30T09:07:27.029Z</time>
      </trkpt>
      <trkpt lat="43.15717" lon="5.97753">
        <ele>263</ele>
        <time>2016-07-30T09:07:28.029Z</time>
      </trkpt>
      <trkpt lat="43.15718" lon="5.97755">
        <ele>263</ele>
        <time>2016-07-30T09:07:29.029Z</time>
      </trkpt>
      <trkpt lat="43.15719" lon="5.97758">
        <ele>263</ele>
        <time>2016-07-30T09:07:30.029Z</time>
      </trkpt>
      <trkpt lat="43.15719" lon="5.9776">
        <ele>263</ele>
        <time>2016-07-30T09:07:31.029Z</time>
      </trkpt>
      <trkpt lat="43.1572" lon="5.97762">
        <ele>264</ele>
        <time>2016-07-30T09:07:32.029Z</time>
      </trkpt>
      <trkpt lat="43.15721" lon="5.97764">
        <ele>264</ele>
        <time>2016-07-30T09:07:33.029Z</time>
      </trkpt>
      <trkpt lat="43.15721" lon="5.97766">
        <ele>264</ele>
        <time>2016-07-30T09:07:34.029Z</time>
      </trkpt>
      <trkpt lat="43.15722" lon="5.97768">
        <ele>263</ele>
        <time>2016-07-30T09:07:35.029Z</time>
      </trkpt>
      <trkpt lat="43.15723" lon="5.9777">
        <ele>264</ele>
        <time>2016-07-30T09:07:36.029Z</time>
      </trkpt>
      <trkpt lat="43.15723" lon="5.97772">
        <ele>264</ele>
        <time>2016-07-30T09:07:37.029Z</time>
      </trkpt>
      <trkpt lat="43.15724" lon="5.97774">
        <ele>264</ele>
        <time>2016-07-30T09:07:38.029Z</time>
      </trkpt>
      <trkpt lat="43.15724" lon="5.97776">
        <ele>264</ele>
        <time>2016-07-30T09:07:39.029Z</time>
      </trkpt>
      <trkpt lat="43.15724" lon="5.97778">
        <ele>264</ele>
        <time>2016-07-30T09:07:40.029Z</time>
      </trkpt>
      <trkpt lat="43.15724" lon="5.97781">
        <ele>264</ele>
        <time>2016-07-30T09:07:41.029Z</time>
      </trkpt>
      <trkpt lat="43.15724" lon="5.97783">
        <ele>264</ele>
        <time>2016-07-30T09:07:42.029Z</time>
      </trkpt>
      <trkpt lat="43.15724" lon="5.97786">
        <ele>265</ele>
        <time>2016-07-30T09:07:43.029Z</time>
      </trkpt>
      <trkpt lat="43.15724" lon="5.97788">
        <ele>265</ele>
        <time>2016-07-30T09:07:44.029Z</time>
      </trkpt>
      <trkpt lat="43.15724" lon="5.97789">
        <ele>265</ele>
        <time>2016-07-30T09:07:45.029Z</time>
      </trkpt>
      <trkpt lat="43.15724" lon="5.97791">
        <ele>265</ele>
        <time>2016-07-30T09:07:46.029Z</time>
      </trkpt>
      <trkpt lat="43.15724" lon="5.97792">
        <ele>266</ele>
        <time>2016-07-30T09:07:47.029Z</time>
      </trkpt>
      <trkpt lat="43.15724" lon="5.97794">
        <ele>267</ele>
        <time>2016-07-30T09:07:48.029Z</time>
      </trkpt>
      <trkpt lat="43.15724" lon="5.97795">
        <ele>267</ele>
        <time>2016-07-30T09:07:49.029Z</time>
      </trkpt>
      <trkpt lat="43.15724" lon="5.97797">
        <ele>267</ele>
        <time>2016-07-30T09:07:50.029Z</time>
      </trkpt>
      <trkpt lat="43.15723" lon="5.97798">
        <ele>267</ele>
        <time>2016-07-30T09:07:51.029Z</time>
      </trkpt>
      <trkpt lat="43.15723" lon="5.97799">
        <ele>267</ele>
        <time>2016-07-30T09:07:52.029Z</time>
      </trkpt>
      <trkpt lat="43.15723" lon="5.97801">
        <ele>267</ele>
        <time>2016-07-30T09:07:53.029Z</time>
      </trkpt>
      <trkpt lat="43.15723" lon="5.97802">
        <ele>268</ele>
        <time>2016-07-30T09:07:54.029Z</time>
      </trkpt>
      <trkpt lat="43.15723" lon="5.97804">
        <ele>268</ele>
        <time>2016-07-30T09:07:55.029Z</time>
      </trkpt>
      <trkpt lat="43.15722" lon="5.97805">
        <ele>268</ele>
        <time>2016-07-30T09:07:56.029Z</time>
      </trkpt>
      <trkpt lat="43.15722" lon="5.97806">
        <ele>268</ele>
        <time>2016-07-30T09:07:57.029Z</time>
      </trkpt>
      <trkpt lat="43.15722" lon="5.97808">
        <ele>269</ele>
        <time>2016-07-30T09:07:58.029Z</time>
      </trkpt>
      <trkpt lat="43.15722" lon="5.9781">
        <ele>270</ele>
        <time>2016-07-30T09:07:59.029Z</time>
      </trkpt>
      <trkpt lat="43.15721" lon="5.97811">
        <ele>270</ele>
        <time>2016-07-30T09:08:00.029Z</time>
      </trkpt>
      <trkpt lat="43.15721" lon="5.97813">
        <ele>270</ele>
        <time>2016-07-30T09:08:01.029Z</time>
      </trkpt>
      <trkpt lat="43.1572" lon="5.97815">
        <ele>271</ele>
        <time>2016-07-30T09:08:02.029Z</time>
      </trkpt>
      <trkpt lat="43.1572" lon="5.97816">
        <ele>271</ele>
        <time>2016-07-30T09:08:03.029Z</time>
      </trkpt>
      <trkpt lat="43.15719" lon="5.97818">
        <ele>271</ele>
        <time>2016-07-30T09:08:04.029Z</time>
      </trkpt>
      <trkpt lat="43.15719" lon="5.9782">
        <ele>272</ele>
        <time>2016-07-30T09:08:05.029Z</time>
      </trkpt>
      <trkpt lat="43.15718" lon="5.97821">
        <ele>272</ele>
        <time>2016-07-30T09:08:06.029Z</time>
      </trkpt>
      <trkpt lat="43.15717" lon="5.97823">
        <ele>272</ele>
        <time>2016-07-30T09:08:07.029Z</time>
      </trkpt>
      <trkpt lat="43.15716" lon="5.97825">
        <ele>273</ele>
        <time>2016-07-30T09:08:08.029Z</time>
      </trkpt>
      <trkpt lat="43.15715" lon="5.97827">
        <ele>273</ele>
        <time>2016-07-30T09:08:09.029Z</time>
      </trkpt>
      <trkpt lat="43.15715" lon="5.97829">
        <ele>274</ele>
        <time>2016-07-30T09:08:10.029Z</time>
      </trkpt>
      <trkpt lat="43.15714" lon="5.97831">
        <ele>273</ele>
        <time>2016-07-30T09:08:11.029Z</time>
      </trkpt>
      <trkpt lat="43.15713" lon="5.97833">
        <ele>273</ele>
        <time>2016-07-30T09:08:12.029Z</time>
      </trkpt>
      <trkpt lat="43.15713" lon="5.97835">
        <ele>273</ele>
        <time>2016-07-30T09:08:13.029Z</time>
      </trkpt>
      <trkpt lat="43.15712" lon="5.97837">
        <ele>274</ele>
        <time>2016-07-30T09:08:14.029Z</time>
      </trkpt>
      <trkpt lat="43.15711" lon="5.97838">
        <ele>274</ele>
        <time>2016-07-30T09:08:15.029Z</time>
      </trkpt>
      <trkpt lat="43.15709" lon="5.9784">
        <ele>274</ele>
        <time>2016-07-30T09:08:16.029Z</time>
      </trkpt>
      <trkpt lat="43.15708" lon="5.97842">
        <ele>274</ele>
        <time>2016-07-30T09:08:17.029Z</time>
      </trkpt>
      <trkpt lat="43.15707" lon="5.97843">
        <ele>274</ele>
        <time>2016-07-30T09:08:18.029Z</time>
      </trkpt>
      <trkpt lat="43.15705" lon="5.97845">
        <ele>274</ele>
        <time>2016-07-30T09:08:19.029Z</time>
      </trkpt>
      <trkpt lat="43.15703" lon="5.97846">
        <ele>274</ele>
        <time>2016-07-30T09:08:20.029Z</time>
      </trkpt>
      <trkpt lat="43.15701" lon="5.97847">
        <ele>274</ele>
        <time>2016-07-30T09:08:21.029Z</time>
      </trkpt>
      <trkpt lat="43.15699" lon="5.97848">
        <ele>274</ele>
        <time>2016-07-30T09:08:22.029Z</time>
      </trkpt>
      <trkpt lat="43.15697" lon="5.97849">
        <ele>274</ele>
        <time>2016-07-30T09:08:23.029Z</time>
      </trkpt>
      <trkpt lat="43.15696" lon="5.9785">
        <ele>274</ele>
        <time>2016-07-30T09:08:24.029Z</time>
      </trkpt>
      <trkpt lat="43.15694" lon="5.9785">
        <ele>273</ele>
        <time>2016-07-30T09:08:25.029Z</time>
      </trkpt>
      <trkpt lat="43.15692" lon="5.97851">
        <ele>272</ele>
        <time>2016-07-30T09:08:26.029Z</time>
      </trkpt>
      <trkpt lat="43.1569" lon="5.97851">
        <ele>273</ele>
        <time>2016-07-30T09:08:27.029Z</time>
      </trkpt>
      <trkpt lat="43.15688" lon="5.97851">
        <ele>273</ele>
        <time>2016-07-30T09:08:28.029Z</time>
      </trkpt>
      <trkpt lat="43.15686" lon="5.9785">
        <ele>273</ele>
        <time>2016-07-30T09:08:29.029Z</time>
      </trkpt>
      <trkpt lat="43.15685" lon="5.9785">
        <ele>273</ele>
        <time>2016-07-30T09:08:30.029Z</time>
      </trkpt>
      <trkpt lat="43.15683" lon="5.97849">
        <ele>273</ele>
        <time>2016-07-30T09:08:31.029Z</time>
      </trkpt>
      <trkpt lat="43.15681" lon="5.97848">
        <ele>273</ele>
        <time>2016-07-30T09:08:32.029Z</time>
      </trkpt>
      <trkpt lat="43.15679" lon="5.97847">
        <ele>273</ele>
        <time>2016-07-30T09:08:33.029Z</time>
      </trkpt>
      <trkpt lat="43.15677" lon="5.97846">
        <ele>273</ele>
        <time>2016-07-30T09:08:34.029Z</time>
      </trkpt>
      <trkpt lat="43.15675" lon="5.97845">
        <ele>272</ele>
        <time>2016-07-30T09:08:35.029Z</time>
      </trkpt>
      <trkpt lat="43.15673" lon="5.97844">
        <ele>272</ele>
        <time>2016-07-30T09:08:36.029Z</time>
      </trkpt>
      <trkpt lat="43.15672" lon="5.97843">
        <ele>272</ele>
        <time>2016-07-30T09:08:37.029Z</time>
      </trkpt>
      <trkpt lat="43.1567" lon="5.97842">
        <ele>272</ele>
        <time>2016-07-30T09:08:38.029Z</time>
      </trkpt>
      <trkpt lat="43.15668" lon="5.97841">
        <ele>272</ele>
        <time>2016-07-30T09:08:39.029Z</time>
      </trkpt>
      <trkpt lat="43.15666" lon="5.9784">
        <ele>272</ele>
        <time>2016-07-30T09:08:40.029Z</time>
      </trkpt>
      <trkpt lat="43.15665" lon="5.97839">
        <ele>273</ele>
        <time>2016-07-30T09:08:41.029Z</time>
      </trkpt>
      <trkpt lat="43.15663" lon="5.97838">
        <ele>273</ele>
        <time>2016-07-30T09:08:42.029Z</time>
      </trkpt>
      <trkpt lat="43.15661" lon="5.97837">
        <ele>273</ele>
        <time>2016-07-30T09:08:43.029Z</time>
      </trkpt>
      <trkpt lat="43.15659" lon="5.97836">
        <ele>273</ele>
        <time>2016-07-30T09:08:44.029Z</time>
      </trkpt>
      <trkpt lat="43.15657" lon="5.97835">
        <ele>273</ele>
        <time>2016-07-30T09:08:45.029Z</time>
      </trkpt>
      <trkpt lat="43.15656" lon="5.97835">
        <ele>273</ele>
        <time>2016-07-30T09:08:46.029Z</time>
      </trkpt>
      <trkpt lat="43.15654" lon="5.97835">
        <ele>273</ele>
        <time>2016-07-30T09:08:47.029Z</time>
      </trkpt>
      <trkpt lat="43.15652" lon="5.97835">
        <ele>273</ele>
        <time>2016-07-30T09:08:48.029Z</time>
      </trkpt>
      <trkpt lat="43.15651" lon="5.97836">
        <ele>273</ele>
        <time>2016-07-30T09:08:49.029Z</time>
      </trkpt>
      <trkpt lat="43.1565" lon="5.97837">
        <ele>272</ele>
        <time>2016-07-30T09:08:50.029Z</time>
      </trkpt>
      <trkpt lat="43.15649" lon="5.97839">
        <ele>272</ele>
        <time>2016-07-30T09:08:51.029Z</time>
      </trkpt>
      <trkpt lat="43.15648" lon="5.97841">
        <ele>272</ele>
        <time>2016-07-30T09:08:52.029Z</time>
      </trkpt>
      <trkpt lat="43.15647" lon="5.97843">
        <ele>272</ele>
        <time>2016-07-30T09:08:53.029Z</time>
      </trkpt>
      <trkpt lat="43.15647" lon="5.97845">
        <ele>273</ele>
        <time>2016-07-30T09:08:54.029Z</time>
      </trkpt>
      <trkpt lat="43.15647" lon="5.97848">
        <ele>272</ele>
        <time>2016-07-30T09:08:55.029Z</time>
      </trkpt>
      <trkpt lat="43.15647" lon="5.9785">
        <ele>272</ele>
        <time>2016-07-30T09:08:56.029Z</time>
      </trkpt>
      <trkpt lat="43.15647" lon="5.97853">
        <ele>272</ele>
        <time>2016-07-30T09:08:57.029Z</time>
      </trkpt>
      <trkpt lat="43.15647" lon="5.97855">
        <ele>272</ele>
        <time>2016-07-30T09:08:58.029Z</time>
      </trkpt>
      <trkpt lat="43.15648" lon="5.97858">
        <ele>271</ele>
        <time>2016-07-30T09:08:59.029Z</time>
      </trkpt>
      <trkpt lat="43.15649" lon="5.9786">
        <ele>271</ele>
        <time>2016-07-30T09:09:00.029Z</time>
      </trkpt>
      <trkpt lat="43.1565" lon="5.97863">
        <ele>271</ele>
        <time>2016-07-30T09:09:01.029Z</time>
      </trkpt>
      <trkpt lat="43.15651" lon="5.97866">
        <ele>271</ele>
        <time>2016-07-30T09:09:02.029Z</time>
      </trkpt>
      <trkpt lat="43.15652" lon="5.97868">
        <ele>271</ele>
        <time>2016-07-30T09:09:03.029Z</time>
      </trkpt>
      <trkpt lat="43.15653" lon="5.97871">
        <ele>271</ele>
        <time>2016-07-30T09:09:04.029Z</time>
      </trkpt>
      <trkpt lat="43.15654" lon="5.97874">
        <ele>271</ele>
        <time>2016-07-30T09:09:05.029Z</time>
      </trkpt>
      <trkpt lat="43.15655" lon="5.97876">
        <ele>271</ele>
        <time>2016-07-30T09:09:06.029Z</time>
      </trkpt>
      <trkpt lat="43.15655" lon="5.97878">
        <ele>271</ele>
        <time>2016-07-30T09:09:07.029Z</time>
      </trkpt>
      <trkpt lat="43.15656" lon="5.9788">
        <ele>271</ele>
        <time>2016-07-30T09:09:08.029Z</time>
      </trkpt>
      <trkpt lat="43.15656" lon="5.97883">
        <ele>271</ele>
        <time>2016-07-30T09:09:09.029Z</time>
      </trkpt>
      <trkpt lat="43.15656" lon="5.97885">
        <ele>271</ele>
        <time>2016-07-30T09:09:10.029Z</time>
      </trkpt>
      <trkpt lat="43.15657" lon="5.97888">
        <ele>271</ele>
        <time>2016-07-30T09:09:11.029Z</time>
      </trkpt>
      <trkpt lat="43.15657" lon="5.9789">
        <ele>271</ele>
        <time>2016-07-30T09:09:12.029Z</time>
      </trkpt>
      <trkpt lat="43.15658" lon="5.97893">
        <ele>271</ele>
        <time>2016-07-30T09:09:13.029Z</time>
      </trkpt>
      <trkpt lat="43.15658" lon="5.97895">
        <ele>271</ele>
        <time>2016-07-30T09:09:14.029Z</time>
      </trkpt>
      <trkpt lat="43.15659" lon="5.97898">
        <ele>271</ele>
        <time>2016-07-30T09:09:15.029Z</time>
      </trkpt>
      <trkpt lat="43.1566" lon="5.979">
        <ele>271</ele>
        <time>2016-07-30T09:09:16.029Z</time>
      </trkpt>
      <trkpt lat="43.1566" lon="5.97902">
        <ele>272</ele>
        <time>2016-07-30T09:09:17.029Z</time>
      </trkpt>
      <trkpt lat="43.1566" lon="5.97905">
        <ele>272</ele>
        <time>2016-07-30T09:09:18.029Z</time>
      </trkpt>
      <trkpt lat="43.15661" lon="5.97907">
        <ele>272</ele>
        <time>2016-07-30T09:09:19.029Z</time>
      </trkpt>
      <trkpt lat="43.15661" lon="5.9791">
        <ele>272</ele>
        <time>2016-07-30T09:09:20.029Z</time>
      </trkpt>
      <trkpt lat="43.15662" lon="5.97913">
        <ele>272</ele>
        <time>2016-07-30T09:09:21.029Z</time>
      </trkpt>
      <trkpt lat="43.15662" lon="5.97915">
        <ele>272</ele>
        <time>2016-07-30T09:09:22.029Z</time>
      </trkpt>
      <trkpt lat="43.15663" lon="5.97918">
        <ele>271</ele>
        <time>2016-07-30T09:09:23.029Z</time>
      </trkpt>
      <trkpt lat="43.15664" lon="5.97921">
        <ele>271</ele>
        <time>2016-07-30T09:09:24.029Z</time>
      </trkpt>
      <trkpt lat="43.15664" lon="5.97924">
        <ele>272</ele>
        <time>2016-07-30T09:09:25.029Z</time>
      </trkpt>
      <trkpt lat="43.15665" lon="5.97927">
        <ele>272</ele>
        <time>2016-07-30T09:09:26.029Z</time>
      </trkpt>
      <trkpt lat="43.15665" lon="5.9793">
        <ele>272</ele>
        <time>2016-07-30T09:09:27.029Z</time>
      </trkpt>
      <trkpt lat="43.15666" lon="5.97933">
        <ele>272</ele>
        <time>2016-07-30T09:09:28.029Z</time>
      </trkpt>
      <trkpt lat="43.15666" lon="5.97937">
        <ele>272</ele>
        <time>2016-07-30T09:09:29.029Z</time>
      </trkpt>
      <trkpt lat="43.15667" lon="5.9794">
        <ele>272</ele>
        <time>2016-07-30T09:09:30.029Z</time>
      </trkpt>
      <trkpt lat="43.15667" lon="5.97943">
        <ele>272</ele>
        <time>2016-07-30T09:09:31.029Z</time>
      </trkpt>
      <trkpt lat="43.15667" lon="5.97946">
        <ele>272</ele>
        <time>2016-07-30T09:09:32.029Z</time>
      </trkpt>
      <trkpt lat="43.15667" lon="5.97949">
        <ele>272</ele>
        <time>2016-07-30T09:09:33.029Z</time>
      </trkpt>
      <trkpt lat="43.15668" lon="5.97952">
        <ele>273</ele>
        <time>2016-07-30T09:09:34.029Z</time>
      </trkpt>
      <trkpt lat="43.15668" lon="5.97955">
        <ele>273</ele>
        <time>2016-07-30T09:09:35.029Z</time>
      </trkpt>
      <trkpt lat="43.15668" lon="5.97958">
        <ele>273</ele>
        <time>2016-07-30T09:09:36.029Z</time>
      </trkpt>
      <trkpt lat="43.15668" lon="5.97961">
        <ele>273</ele>
        <time>2016-07-30T09:09:37.029Z</time>
      </trkpt>
      <trkpt lat="43.15669" lon="5.97964">
        <ele>273</ele>
        <time>2016-07-30T09:09:38.029Z</time>
      </trkpt>
      <trkpt lat="43.15671" lon="5.97967">
        <ele>273</ele>
        <time>2016-07-30T09:09:39.029Z</time>
      </trkpt>
      <trkpt lat="43.15673" lon="5.97969">
        <ele>273</ele>
        <time>2016-07-30T09:09:40.029Z</time>
      </trkpt>
      <trkpt lat="43.15675" lon="5.9797">
        <ele>273</ele>
        <time>2016-07-30T09:09:41.029Z</time>
      </trkpt>
      <trkpt lat="43.15677" lon="5.97971">
        <ele>273</ele>
        <time>2016-07-30T09:09:42.029Z</time>
      </trkpt>
      <trkpt lat="43.15679" lon="5.97971">
        <ele>274</ele>
        <time>2016-07-30T09:09:43.029Z</time>
      </trkpt>
      <trkpt lat="43.1568" lon="5.9797">
        <ele>274</ele>
        <time>2016-07-30T09:09:44.029Z</time>
      </trkpt>
      <trkpt lat="43.15682" lon="5.97968">
        <ele>274</ele>
        <time>2016-07-30T09:09:45.029Z</time>
      </trkpt>
      <trkpt lat="43.15683" lon="5.97965">
        <ele>275</ele>
        <time>2016-07-30T09:09:46.029Z</time>
      </trkpt>
      <trkpt lat="43.15684" lon="5.97963">
        <ele>275</ele>
        <time>2016-07-30T09:09:47.029Z</time>
      </trkpt>
      <trkpt lat="43.15684" lon="5.97961">
        <ele>275</ele>
        <time>2016-07-30T09:09:48.029Z</time>
      </trkpt>
      <trkpt lat="43.15684" lon="5.97958">
        <ele>275</ele>
        <time>2016-07-30T09:09:49.029Z</time>
      </trkpt>
      <trkpt lat="43.15684" lon="5.97955">
        <ele>275</ele>
        <time>2016-07-30T09:09:50.029Z</time>
      </trkpt>
      <trkpt lat="43.15683" lon="5.97951">
        <ele>275</ele>
        <time>2016-07-30T09:09:51.029Z</time>
      </trkpt>
      <trkpt lat="43.15682" lon="5.97948">
        <ele>275</ele>
        <time>2016-07-30T09:09:52.029Z</time>
      </trkpt>
      <trkpt lat="43.15682" lon="5.97945">
        <ele>275</ele>
        <time>2016-07-30T09:09:53.029Z</time>
      </trkpt>
      <trkpt lat="43.15681" lon="5.97942">
        <ele>275</ele>
        <time>2016-07-30T09:09:54.029Z</time>
      </trkpt>
      <trkpt lat="43.15681" lon="5.97939">
        <ele>275</ele>
        <time>2016-07-30T09:09:55.029Z</time>
      </trkpt>
      <trkpt lat="43.15681" lon="5.97936">
        <ele>274</ele>
        <time>2016-07-30T09:09:56.029Z</time>
      </trkpt>
      <trkpt lat="43.15681" lon="5.97933">
        <ele>274</ele>
        <time>2016-07-30T09:09:57.029Z</time>
      </trkpt>
      <trkpt lat="43.15682" lon="5.9793">
        <ele>274</ele>
        <time>2016-07-30T09:09:58.029Z</time>
      </trkpt>
      <trkpt lat="43.15683" lon="5.97927">
        <ele>274</ele>
        <time>2016-07-30T09:09:59.029Z</time>
      </trkpt>
      <trkpt lat="43.15685" lon="5.97925">
        <ele>275</ele>
        <time>2016-07-30T09:10:00.029Z</time>
      </trkpt>
      <trkpt lat="43.15687" lon="5.97923">
        <ele>275</ele>
        <time>2016-07-30T09:10:01.029Z</time>
      </trkpt>
      <trkpt lat="43.15688" lon="5.97922">
        <ele>275</ele>
        <time>2016-07-30T09:10:02.029Z</time>
      </trkpt>
      <trkpt lat="43.1569" lon="5.97921">
        <ele>275</ele>
        <time>2016-07-30T09:10:03.029Z</time>
      </trkpt>
      <trkpt lat="43.15692" lon="5.9792">
        <ele>275</ele>
        <time>2016-07-30T09:10:04.029Z</time>
      </trkpt>
      <trkpt lat="43.15693" lon="5.9792">
        <ele>275</ele>
        <time>2016-07-30T09:10:05.029Z</time>
      </trkpt>
      <trkpt lat="43.15695" lon="5.9792">
        <ele>276</ele>
        <time>2016-07-30T09:10:06.029Z</time>
      </trkpt>
      <trkpt lat="43.15697" lon="5.97921">
        <ele>276</ele>
        <time>2016-07-30T09:10:07.029Z</time>
      </trkpt>
      <trkpt lat="43.15699" lon="5.97921">
        <ele>276</ele>
        <time>2016-07-30T09:10:08.029Z</time>
      </trkpt>
      <trkpt lat="43.15701" lon="5.97921">
        <ele>276</ele>
        <time>2016-07-30T09:10:09.029Z</time>
      </trkpt>
      <trkpt lat="43.15702" lon="5.97921">
        <ele>276</ele>
        <time>2016-07-30T09:10:10.029Z</time>
      </trkpt>
      <trkpt lat="43.15704" lon="5.97921">
        <ele>276</ele>
        <time>2016-07-30T09:10:11.029Z</time>
      </trkpt>
      <trkpt lat="43.15706" lon="5.97921">
        <ele>276</ele>
        <time>2016-07-30T09:10:12.029Z</time>
      </trkpt>
      <trkpt lat="43.15707" lon="5.97921">
        <ele>276</ele>
        <time>2016-07-30T09:10:13.029Z</time>
      </trkpt>
      <trkpt lat="43.15709" lon="5.97921">
        <ele>276</ele>
        <time>2016-07-30T09:10:14.029Z</time>
      </trkpt>
      <trkpt lat="43.1571" lon="5.9792">
        <ele>276</ele>
        <time>2016-07-30T09:10:15.029Z</time>
      </trkpt>
      <trkpt lat="43.15711" lon="5.97919">
        <ele>276</ele>
        <time>2016-07-30T09:10:16.029Z</time>
      </trkpt>
      <trkpt lat="43.15713" lon="5.97919">
        <ele>276</ele>
        <time>2016-07-30T09:10:17.029Z</time>
      </trkpt>
      <trkpt lat="43.15714" lon="5.97918">
        <ele>276</ele>
        <time>2016-07-30T09:10:18.029Z</time>
      </trkpt>
      <trkpt lat="43.15715" lon="5.97917">
        <ele>277</ele>
        <time>2016-07-30T09:10:19.029Z</time>
      </trkpt>
      <trkpt lat="43.15716" lon="5.97916">
        <ele>277</ele>
        <time>2016-07-30T09:10:20.029Z</time>
      </trkpt>
      <trkpt lat="43.15718" lon="5.97915">
        <ele>277</ele>
        <time>2016-07-30T09:10:21.029Z</time>
      </trkpt>
      <trkpt lat="43.15719" lon="5.97914">
        <ele>278</ele>
        <time>2016-07-30T09:10:22.029Z</time>
      </trkpt>
      <trkpt lat="43.15721" lon="5.97913">
        <ele>278</ele>
        <time>2016-07-30T09:10:23.029Z</time>
      </trkpt>
      <trkpt lat="43.15722" lon="5.97911">
        <ele>279</ele>
        <time>2016-07-30T09:10:24.029Z</time>
      </trkpt>
      <trkpt lat="43.15723" lon="5.9791">
        <ele>279</ele>
        <time>2016-07-30T09:10:25.029Z</time>
      </trkpt>
      <trkpt lat="43.15725" lon="5.97909">
        <ele>279</ele>
        <time>2016-07-30T09:10:26.029Z</time>
      </trkpt>
      <trkpt lat="43.15726" lon="5.97908">
        <ele>279</ele>
        <time>2016-07-30T09:10:27.029Z</time>
      </trkpt>
      <trkpt lat="43.15728" lon="5.97906">
        <ele>278</ele>
        <time>2016-07-30T09:10:28.029Z</time>
      </trkpt>
      <trkpt lat="43.15729" lon="5.97905">
        <ele>278</ele>
        <time>2016-07-30T09:10:29.029Z</time>
      </trkpt>
      <trkpt lat="43.1573" lon="5.97904">
        <ele>279</ele>
        <time>2016-07-30T09:10:30.029Z</time>
      </trkpt>
      <trkpt lat="43.15732" lon="5.97902">
        <ele>279</ele>
        <time>2016-07-30T09:10:31.029Z</time>
      </trkpt>
      <trkpt lat="43.15733" lon="5.97901">
        <ele>279</ele>
        <time>2016-07-30T09:10:32.029Z</time>
      </trkpt>
      <trkpt lat="43.15734" lon="5.97899">
        <ele>279</ele>
        <time>2016-07-30T09:10:33.029Z</time>
      </trkpt>
      <trkpt lat="43.15736" lon="5.97898">
        <ele>279</ele>
        <time>2016-07-30T09:10:34.029Z</time>
      </trkpt>
      <trkpt lat="43.15737" lon="5.97897">
        <ele>280</ele>
        <time>2016-07-30T09:10:35.029Z</time>
      </trkpt>
      <trkpt lat="43.15738" lon="5.97896">
        <ele>281</ele>
        <time>2016-07-30T09:10:36.029Z</time>
      </trkpt>
      <trkpt lat="43.15738" lon="5.97894">
        <ele>281</ele>
        <time>2016-07-30T09:10:37.029Z</time>
      </trkpt>
      <trkpt lat="43.1574" lon="5.97893">
        <ele>282</ele>
        <time>2016-07-30T09:10:38.029Z</time>
      </trkpt>
      <trkpt lat="43.15741" lon="5.97891">
        <ele>282</ele>
        <time>2016-07-30T09:10:39.029Z</time>
      </trkpt>
      <trkpt lat="43.15742" lon="5.9789">
        <ele>282</ele>
        <time>2016-07-30T09:10:40.029Z</time>
      </trkpt>
      <trkpt lat="43.15743" lon="5.97889">
        <ele>282</ele>
        <time>2016-07-30T09:10:41.029Z</time>
      </trkpt>
      <trkpt lat="43.15744" lon="5.97888">
        <ele>282</ele>
        <time>2016-07-30T09:10:42.029Z</time>
      </trkpt>
      <trkpt lat="43.15745" lon="5.97887">
        <ele>282</ele>
        <time>2016-07-30T09:10:43.029Z</time>
      </trkpt>
      <trkpt lat="43.15746" lon="5.97886">
        <ele>282</ele>
        <time>2016-07-30T09:10:44.029Z</time>
      </trkpt>
      <trkpt lat="43.15747" lon="5.97885">
        <ele>282</ele>
        <time>2016-07-30T09:10:45.029Z</time>
      </trkpt>
      <trkpt lat="43.15748" lon="5.97883">
        <ele>282</ele>
        <time>2016-07-30T09:10:46.029Z</time>
      </trkpt>
      <trkpt lat="43.15749" lon="5.97882">
        <ele>282</ele>
        <time>2016-07-30T09:10:47.029Z</time>
      </trkpt>
      <trkpt lat="43.1575" lon="5.97881">
        <ele>282</ele>
        <time>2016-07-30T09:10:48.029Z</time>
      </trkpt>
      <trkpt lat="43.15751" lon="5.9788">
        <ele>282</ele>
        <time>2016-07-30T09:10:49.029Z</time>
      </trkpt>
      <trkpt lat="43.15752" lon="5.97879">
        <ele>282</ele>
        <time>2016-07-30T09:10:50.029Z</time>
      </trkpt>
      <trkpt lat="43.15753" lon="5.97878">
        <ele>282</ele>
        <time>2016-07-30T09:10:51.029Z</time>
      </trkpt>
      <trkpt lat="43.15755" lon="5.97877">
        <ele>282</ele>
        <time>2016-07-30T09:10:52.029Z</time>
      </trkpt>
      <trkpt lat="43.15756" lon="5.97875">
        <ele>283</ele>
        <time>2016-07-30T09:10:53.029Z</time>
      </trkpt>
      <trkpt lat="43.15757" lon="5.97874">
        <ele>283</ele>
        <time>2016-07-30T09:10:54.029Z</time>
      </trkpt>
      <trkpt lat="43.15758" lon="5.97872">
        <ele>283</ele>
        <time>2016-07-30T09:10:55.029Z</time>
      </trkpt>
      <trkpt lat="43.15759" lon="5.97871">
        <ele>283</ele>
        <time>2016-07-30T09:10:56.029Z</time>
      </trkpt>
      <trkpt lat="43.1576" lon="5.97869">
        <ele>284</ele>
        <time>2016-07-30T09:10:57.029Z</time>
      </trkpt>
      <trkpt lat="43.15761" lon="5.97867">
        <ele>284</ele>
        <time>2016-07-30T09:10:58.029Z</time>
      </trkpt>
      <trkpt lat="43.15763" lon="5.97866">
        <ele>285</ele>
        <time>2016-07-30T09:10:59.029Z</time>
      </trkpt>
      <trkpt lat="43.15764" lon="5.97864">
        <ele>285</ele>
        <time>2016-07-30T09:11:00.029Z</time>
      </trkpt>
      <trkpt lat="43.15765" lon="5.97863">
        <ele>285</ele>
        <time>2016-07-30T09:11:01.029Z</time>
      </trkpt>
      <trkpt lat="43.15766" lon="5.97861">
        <ele>286</ele>
        <time>2016-07-30T09:11:02.029Z</time>
      </trkpt>
      <trkpt lat="43.15767" lon="5.9786">
        <ele>286</ele>
        <time>2016-07-30T09:11:03.029Z</time>
      </trkpt>
      <trkpt lat="43.15768" lon="5.97858">
        <ele>286</ele>
        <time>2016-07-30T09:11:04.029Z</time>
      </trkpt>
      <trkpt lat="43.15769" lon="5.97857">
        <ele>287</ele>
        <time>2016-07-30T09:11:05.029Z</time>
      </trkpt>
      <trkpt lat="43.1577" lon="5.97855">
        <ele>287</ele>
        <time>2016-07-30T09:11:06.029Z</time>
      </trkpt>
      <trkpt lat="43.15771" lon="5.97854">
        <ele>287</ele>
        <time>2016-07-30T09:11:07.029Z</time>
      </trkpt>
      <trkpt lat="43.15772" lon="5.97852">
        <ele>288</ele>
        <time>2016-07-30T09:11:08.029Z</time>
      </trkpt>
      <trkpt lat="43.15773" lon="5.97851">
        <ele>288</ele>
        <time>2016-07-30T09:11:09.029Z</time>
      </trkpt>
      <trkpt lat="43.15774" lon="5.97849">
        <ele>288</ele>
        <time>2016-07-30T09:11:10.029Z</time>
      </trkpt>
      <trkpt lat="43.15775" lon="5.97848">
        <ele>288</ele>
        <time>2016-07-30T09:11:11.029Z</time>
      </trkpt>
      <trkpt lat="43.15777" lon="5.97846">
        <ele>289</ele>
        <time>2016-07-30T09:11:12.029Z</time>
      </trkpt>
      <trkpt lat="43.15778" lon="5.97844">
        <ele>289</ele>
        <time>2016-07-30T09:11:13.029Z</time>
      </trkpt>
      <trkpt lat="43.15779" lon="5.97843">
        <ele>289</ele>
        <time>2016-07-30T09:11:14.029Z</time>
      </trkpt>
      <trkpt lat="43.1578" lon="5.97842">
        <ele>289</ele>
        <time>2016-07-30T09:11:15.029Z</time>
      </trkpt>
      <trkpt lat="43.15781" lon="5.9784">
        <ele>290</ele>
        <time>2016-07-30T09:11:16.029Z</time>
      </trkpt>
      <trkpt lat="43.15782" lon="5.97839">
        <ele>290</ele>
        <time>2016-07-30T09:11:17.029Z</time>
      </trkpt>
      <trkpt lat="43.15782" lon="5.97838">
        <ele>290</ele>
        <time>2016-07-30T09:11:18.029Z</time>
      </trkpt>
      <trkpt lat="43.15783" lon="5.97836">
        <ele>291</ele>
        <time>2016-07-30T09:11:19.029Z</time>
      </trkpt>
      <trkpt lat="43.15784" lon="5.97835">
        <ele>291</ele>
        <time>2016-07-30T09:11:20.029Z</time>
      </trkpt>
      <trkpt lat="43.15785" lon="5.97833">
        <ele>292</ele>
        <time>2016-07-30T09:11:21.029Z</time>
      </trkpt>
      <trkpt lat="43.15786" lon="5.97832">
        <ele>292</ele>
        <time>2016-07-30T09:11:22.029Z</time>
      </trkpt>
      <trkpt lat="43.15786" lon="5.9783">
        <ele>292</ele>
        <time>2016-07-30T09:11:23.029Z</time>
      </trkpt>
      <trkpt lat="43.15787" lon="5.97829">
        <ele>292</ele>
        <time>2016-07-30T09:11:24.029Z</time>
      </trkpt>
      <trkpt lat="43.15788" lon="5.97828">
        <ele>293</ele>
        <time>2016-07-30T09:11:25.029Z</time>
      </trkpt>
      <trkpt lat="43.15789" lon="5.97826">
        <ele>293</ele>
        <time>2016-07-30T09:11:26.029Z</time>
      </trkpt>
      <trkpt lat="43.15789" lon="5.97825">
        <ele>293</ele>
        <time>2016-07-30T09:11:27.029Z</time>
      </trkpt>
      <trkpt lat="43.1579" lon="5.97823">
        <ele>293</ele>
        <time>2016-07-30T09:11:28.029Z</time>
      </trkpt>
      <trkpt lat="43.15791" lon="5.97822">
        <ele>293</ele>
        <time>2016-07-30T09:11:29.029Z</time>
      </trkpt>
      <trkpt lat="43.15791" lon="5.9782">
        <ele>293</ele>
        <time>2016-07-30T09:11:30.029Z</time>
      </trkpt>
      <trkpt lat="43.15792" lon="5.97819">
        <ele>293</ele>
        <time>2016-07-30T09:11:31.029Z</time>
      </trkpt>
      <trkpt lat="43.15792" lon="5.97817">
        <ele>294</ele>
        <time>2016-07-30T09:11:32.029Z</time>
      </trkpt>
      <trkpt lat="43.15792" lon="5.97815">
        <ele>294</ele>
        <time>2016-07-30T09:11:33.029Z</time>
      </trkpt>
      <trkpt lat="43.15793" lon="5.97814">
        <ele>294</ele>
        <time>2016-07-30T09:11:34.029Z</time>
      </trkpt>
      <trkpt lat="43.15793" lon="5.97812">
        <ele>294</ele>
        <time>2016-07-30T09:11:35.029Z</time>
      </trkpt>
      <trkpt lat="43.15794" lon="5.9781">
        <ele>294</ele>
        <time>2016-07-30T09:11:36.029Z</time>
      </trkpt>
      <trkpt lat="43.15794" lon="5.97809">
        <ele>294</ele>
        <time>2016-07-30T09:11:37.029Z</time>
      </trkpt>
      <trkpt lat="43.15794" lon="5.97807">
        <ele>294</ele>
        <time>2016-07-30T09:11:38.029Z</time>
      </trkpt>
      <trkpt lat="43.15795" lon="5.97805">
        <ele>294</ele>
        <time>2016-07-30T09:11:39.029Z</time>
      </trkpt>
      <trkpt lat="43.15795" lon="5.97803">
        <ele>295</ele>
        <time>2016-07-30T09:11:40.029Z</time>
      </trkpt>
      <trkpt lat="43.15796" lon="5.97801">
        <ele>295</ele>
        <time>2016-07-30T09:11:41.029Z</time>
      </trkpt>
      <trkpt lat="43.15796" lon="5.978">
        <ele>295</ele>
        <time>2016-07-30T09:11:42.029Z</time>
      </trkpt>
      <trkpt lat="43.15797" lon="5.97798">
        <ele>295</ele>
        <time>2016-07-30T09:11:43.029Z</time>
      </trkpt>
      <trkpt lat="43.15797" lon="5.97796">
        <ele>295</ele>
        <time>2016-07-30T09:11:44.029Z</time>
      </trkpt>
      <trkpt lat="43.15797" lon="5.97795">
        <ele>295</ele>
        <time>2016-07-30T09:11:45.029Z</time>
      </trkpt>
      <trkpt lat="43.15798" lon="5.97793">
        <ele>296</ele>
        <time>2016-07-30T09:11:46.029Z</time>
      </trkpt>
      <trkpt lat="43.15798" lon="5.97791">
        <ele>296</ele>
        <time>2016-07-30T09:11:47.029Z</time>
      </trkpt>
      <trkpt lat="43.15798" lon="5.9779">
        <ele>296</ele>
        <time>2016-07-30T09:11:48.029Z</time>
      </trkpt>
      <trkpt lat="43.15798" lon="5.97788">
        <ele>296</ele>
        <time>2016-07-30T09:11:49.029Z</time>
      </trkpt>
      <trkpt lat="43.15799" lon="5.97787">
        <ele>296</ele>
        <time>2016-07-30T09:11:50.029Z</time>
      </trkpt>
      <trkpt lat="43.15799" lon="5.97785">
        <ele>296</ele>
        <time>2016-07-30T09:11:51.029Z</time>
      </trkpt>
      <trkpt lat="43.15799" lon="5.97783">
        <ele>297</ele>
        <time>2016-07-30T09:11:52.029Z</time>
      </trkpt>
      <trkpt lat="43.15799" lon="5.97781">
        <ele>297</ele>
        <time>2016-07-30T09:11:53.029Z</time>
      </trkpt>
      <trkpt lat="43.15799" lon="5.97779">
        <ele>297</ele>
        <time>2016-07-30T09:11:54.029Z</time>
      </trkpt>
      <trkpt lat="43.15799" lon="5.97777">
        <ele>298</ele>
        <time>2016-07-30T09:11:55.029Z</time>
      </trkpt>
      <trkpt lat="43.15799" lon="5.97775">
        <ele>298</ele>
        <time>2016-07-30T09:11:56.029Z</time>
      </trkpt>
      <trkpt lat="43.158" lon="5.97773">
        <ele>298</ele>
        <time>2016-07-30T09:11:57.029Z</time>
      </trkpt>
      <trkpt lat="43.158" lon="5.97771">
        <ele>298</ele>
        <time>2016-07-30T09:11:58.029Z</time>
      </trkpt>
      <trkpt lat="43.158" lon="5.97769">
        <ele>298</ele>
        <time>2016-07-30T09:11:59.029Z</time>
      </trkpt>
      <trkpt lat="43.15801" lon="5.97767">
        <ele>299</ele>
        <time>2016-07-30T09:12:00.029Z</time>
      </trkpt>
      <trkpt lat="43.15801" lon="5.97765">
        <ele>299</ele>
        <time>2016-07-30T09:12:01.029Z</time>
      </trkpt>
      <trkpt lat="43.15802" lon="5.97763">
        <ele>299</ele>
        <time>2016-07-30T09:12:02.029Z</time>
      </trkpt>
      <trkpt lat="43.15802" lon="5.97761">
        <ele>299</ele>
        <time>2016-07-30T09:12:03.029Z</time>
      </trkpt>
      <trkpt lat="43.15803" lon="5.9776">
        <ele>300</ele>
        <time>2016-07-30T09:12:04.029Z</time>
      </trkpt>
      <trkpt lat="43.15804" lon="5.97758">
        <ele>300</ele>
        <time>2016-07-30T09:12:05.029Z</time>
      </trkpt>
      <trkpt lat="43.15805" lon="5.97757">
        <ele>300</ele>
        <time>2016-07-30T09:12:06.029Z</time>
      </trkpt>
      <trkpt lat="43.15805" lon="5.97756">
        <ele>300</ele>
        <time>2016-07-30T09:12:07.029Z</time>
      </trkpt>
      <trkpt lat="43.15806" lon="5.97754">
        <ele>300</ele>
        <time>2016-07-30T09:12:08.029Z</time>
      </trkpt>
      <trkpt lat="43.15807" lon="5.97753">
        <ele>300</ele>
        <time>2016-07-30T09:12:09.029Z</time>
      </trkpt>
      <trkpt lat="43.15808" lon="5.97753">
        <ele>300</ele>
        <time>2016-07-30T09:12:10.029Z</time>
      </trkpt>
      <trkpt lat="43.15809" lon="5.97752">
        <ele>300</ele>
        <time>2016-07-30T09:12:11.029Z</time>
      </trkpt>
      <trkpt lat="43.1581" lon="5.97752">
        <ele>300</ele>
        <time>2016-07-30T09:12:12.029Z</time>
      </trkpt>
      <trkpt lat="43.15811" lon="5.97752">
        <ele>301</ele>
        <time>2016-07-30T09:12:13.029Z</time>
      </trkpt>
      <trkpt lat="43.15812" lon="5.97751">
        <ele>301</ele>
        <time>2016-07-30T09:12:14.029Z</time>
      </trkpt>
      <trkpt lat="43.15813" lon="5.97751">
        <ele>301</ele>
        <time>2016-07-30T09:12:15.029Z</time>
      </trkpt>
      <trkpt lat="43.15814" lon="5.9775">
        <ele>301</ele>
        <time>2016-07-30T09:12:16.029Z</time>
      </trkpt>
      <trkpt lat="43.15816" lon="5.9775">
        <ele>301</ele>
        <time>2016-07-30T09:12:17.029Z</time>
      </trkpt>
      <trkpt lat="43.15818" lon="5.97749">
        <ele>301</ele>
        <time>2016-07-30T09:12:18.029Z</time>
      </trkpt>
      <trkpt lat="43.15819" lon="5.97749">
        <ele>301</ele>
        <time>2016-07-30T09:12:19.029Z</time>
      </trkpt>
      <trkpt lat="43.15821" lon="5.97748">
        <ele>302</ele>
        <time>2016-07-30T09:12:20.029Z</time>
      </trkpt>
      <trkpt lat="43.15822" lon="5.97748">
        <ele>302</ele>
        <time>2016-07-30T09:12:21.029Z</time>
      </trkpt>
      <trkpt lat="43.15823" lon="5.97747">
        <ele>302</ele>
        <time>2016-07-30T09:12:22.029Z</time>
      </trkpt>
      <trkpt lat="43.15824" lon="5.97747">
        <ele>302</ele>
        <time>2016-07-30T09:12:23.029Z</time>
      </trkpt>
      <trkpt lat="43.15826" lon="5.97747">
        <ele>303</ele>
        <time>2016-07-30T09:12:24.029Z</time>
      </trkpt>
      <trkpt lat="43.15827" lon="5.97746">
        <ele>303</ele>
        <time>2016-07-30T09:12:25.029Z</time>
      </trkpt>
      <trkpt lat="43.15828" lon="5.97746">
        <ele>303</ele>
        <time>2016-07-30T09:12:26.029Z</time>
      </trkpt>
      <trkpt lat="43.15829" lon="5.97746">
        <ele>304</ele>
        <time>2016-07-30T09:12:27.029Z</time>
      </trkpt>
      <trkpt lat="43.1583" lon="5.97746">
        <ele>304</ele>
        <time>2016-07-30T09:12:28.029Z</time>
      </trkpt>
      <trkpt lat="43.15832" lon="5.97746">
        <ele>304</ele>
        <time>2016-07-30T09:12:29.029Z</time>
      </trkpt>
      <trkpt lat="43.15833" lon="5.97746">
        <ele>304</ele>
        <time>2016-07-30T09:12:30.029Z</time>
      </trkpt>
      <trkpt lat="43.15834" lon="5.97746">
        <ele>304</ele>
        <time>2016-07-30T09:12:31.029Z</time>
      </trkpt>
      <trkpt lat="43.15835" lon="5.97746">
        <ele>304</ele>
        <time>2016-07-30T09:12:32.029Z</time>
      </trkpt>
      <trkpt lat="43.15836" lon="5.97746">
        <ele>304</ele>
        <time>2016-07-30T09:12:33.029Z</time>
      </trkpt>
      <trkpt lat="43.15837" lon="5.97746">
        <ele>303</ele>
        <time>2016-07-30T09:12:34.029Z</time>
      </trkpt>
      <trkpt lat="43.15838" lon="5.97746">
        <ele>304</ele>
        <time>2016-07-30T09:12:35.029Z</time>
      </trkpt>
      <trkpt lat="43.15839" lon="5.97746">
        <ele>304</ele>
        <time>2016-07-30T09:12:36.029Z</time>
      </trkpt>
      <trkpt lat="43.1584" lon="5.97745">
        <ele>304</ele>
        <time>2016-07-30T09:12:37.029Z</time>
      </trkpt>
      <trkpt lat="43.15841" lon="5.97745">
        <ele>304</ele>
        <time>2016-07-30T09:12:38.029Z</time>
      </trkpt>
      <trkpt lat="43.15842" lon="5.97745">
        <ele>304</ele>
        <time>2016-07-30T09:12:39.029Z</time>
      </trkpt>
      <trkpt lat="43.15844" lon="5.97744">
        <ele>304</ele>
        <time>2016-07-30T09:12:40.029Z</time>
      </trkpt>
      <trkpt lat="43.15845" lon="5.97744">
        <ele>304</ele>
        <time>2016-07-30T09:12:41.029Z</time>
      </trkpt>
      <trkpt lat="43.15847" lon="5.97744">
        <ele>304</ele>
        <time>2016-07-30T09:12:42.029Z</time>
      </trkpt>
      <trkpt lat="43.15848" lon="5.97744">
        <ele>304</ele>
        <time>2016-07-30T09:12:43.029Z</time>
      </trkpt>
      <trkpt lat="43.15849" lon="5.97743">
        <ele>304</ele>
        <time>2016-07-30T09:12:44.029Z</time>
      </trkpt>
      <trkpt lat="43.15851" lon="5.97743">
        <ele>304</ele>
        <time>2016-07-30T09:12:45.029Z</time>
      </trkpt>
      <trkpt lat="43.15852" lon="5.97743">
        <ele>304</ele>
        <time>2016-07-30T09:12:46.029Z</time>
      </trkpt>
      <trkpt lat="43.15853" lon="5.97743">
        <ele>304</ele>
        <time>2016-07-30T09:12:47.029Z</time>
      </trkpt>
      <trkpt lat="43.15855" lon="5.97743">
        <ele>304</ele>
        <time>2016-07-30T09:12:48.029Z</time>
      </trkpt>
      <trkpt lat="43.15856" lon="5.97742">
        <ele>305</ele>
        <time>2016-07-30T09:12:49.029Z</time>
      </trkpt>
      <trkpt lat="43.15858" lon="5.97742">
        <ele>305</ele>
        <time>2016-07-30T09:12:50.029Z</time>
      </trkpt>
      <trkpt lat="43.15859" lon="5.97742">
        <ele>305</ele>
        <time>2016-07-30T09:12:51.029Z</time>
      </trkpt>
      <trkpt lat="43.15861" lon="5.97742">
        <ele>305</ele>
        <time>2016-07-30T09:12:52.029Z</time>
      </trkpt>
      <trkpt lat="43.15862" lon="5.97742">
        <ele>305</ele>
        <time>2016-07-30T09:12:53.029Z</time>
      </trkpt>
      <trkpt lat="43.15863" lon="5.97742">
        <ele>305</ele>
        <time>2016-07-30T09:12:54.029Z</time>
      </trkpt>
      <trkpt lat="43.15865" lon="5.97742">
        <ele>306</ele>
        <time>2016-07-30T09:12:55.029Z</time>
      </trkpt>
      <trkpt lat="43.15866" lon="5.97742">
        <ele>306</ele>
        <time>2016-07-30T09:12:56.029Z</time>
      </trkpt>
      <trkpt lat="43.15868" lon="5.97743">
        <ele>306</ele>
        <time>2016-07-30T09:12:57.029Z</time>
      </trkpt>
      <trkpt lat="43.15869" lon="5.97743">
        <ele>306</ele>
        <time>2016-07-30T09:12:58.029Z</time>
      </trkpt>
      <trkpt lat="43.15871" lon="5.97744">
        <ele>306</ele>
        <time>2016-07-30T09:12:59.029Z</time>
      </trkpt>
      <trkpt lat="43.15873" lon="5.97744">
        <ele>307</ele>
        <time>2016-07-30T09:13:00.029Z</time>
      </trkpt>
      <trkpt lat="43.15874" lon="5.97744">
        <ele>307</ele>
        <time>2016-07-30T09:13:01.029Z</time>
      </trkpt>
      <trkpt lat="43.15876" lon="5.97745">
        <ele>307</ele>
        <time>2016-07-30T09:13:02.029Z</time>
      </trkpt>
      <trkpt lat="43.15877" lon="5.97745">
        <ele>307</ele>
        <time>2016-07-30T09:13:03.029Z</time>
      </trkpt>
      <trkpt lat="43.15879" lon="5.97745">
        <ele>307</ele>
        <time>2016-07-30T09:13:04.029Z</time>
      </trkpt>
      <trkpt lat="43.1588" lon="5.97746">
        <ele>307</ele>
        <time>2016-07-30T09:13:05.029Z</time>
      </trkpt>
      <trkpt lat="43.15882" lon="5.97747">
        <ele>307</ele>
        <time>2016-07-30T09:13:06.029Z</time>
      </trkpt>
      <trkpt lat="43.15883" lon="5.97748">
        <ele>307</ele>
        <time>2016-07-30T09:13:07.029Z</time>
      </trkpt>
      <trkpt lat="43.15885" lon="5.97749">
        <ele>307</ele>
        <time>2016-07-30T09:13:08.029Z</time>
      </trkpt>
      <trkpt lat="43.15886" lon="5.9775">
        <ele>307</ele>
        <time>2016-07-30T09:13:09.029Z</time>
      </trkpt>
      <trkpt lat="43.15887" lon="5.97751">
        <ele>307</ele>
        <time>2016-07-30T09:13:10.029Z</time>
      </trkpt>
      <trkpt lat="43.15888" lon="5.97752">
        <ele>308</ele>
        <time>2016-07-30T09:13:11.029Z</time>
      </trkpt>
      <trkpt lat="43.15889" lon="5.97753">
        <ele>308</ele>
        <time>2016-07-30T09:13:12.029Z</time>
      </trkpt>
      <trkpt lat="43.15891" lon="5.97754">
        <ele>308</ele>
        <time>2016-07-30T09:13:13.029Z</time>
      </trkpt>
      <trkpt lat="43.15892" lon="5.97755">
        <ele>308</ele>
        <time>2016-07-30T09:13:14.029Z</time>
      </trkpt>
      <trkpt lat="43.15893" lon="5.97755">
        <ele>308</ele>
        <time>2016-07-30T09:13:15.029Z</time>
      </trkpt>
      <trkpt lat="43.15894" lon="5.97756">
        <ele>308</ele>
        <time>2016-07-30T09:13:16.029Z</time>
      </trkpt>
      <trkpt lat="43.15896" lon="5.97756">
        <ele>308</ele>
        <time>2016-07-30T09:13:17.029Z</time>
      </trkpt>
      <trkpt lat="43.15897" lon="5.97757">
        <ele>308</ele>
        <time>2016-07-30T09:13:18.029Z</time>
      </trkpt>
      <trkpt lat="43.15898" lon="5.97758">
        <ele>308</ele>
        <time>2016-07-30T09:13:19.029Z</time>
      </trkpt>
      <trkpt lat="43.159" lon="5.97759">
        <ele>309</ele>
        <time>2016-07-30T09:13:20.029Z</time>
      </trkpt>
      <trkpt lat="43.15901" lon="5.97759">
        <ele>309</ele>
        <time>2016-07-30T09:13:21.029Z</time>
      </trkpt>
      <trkpt lat="43.15902" lon="5.9776">
        <ele>309</ele>
        <time>2016-07-30T09:13:22.029Z</time>
      </trkpt>
      <trkpt lat="43.15903" lon="5.97761">
        <ele>309</ele>
        <time>2016-07-30T09:13:23.029Z</time>
      </trkpt>
      <trkpt lat="43.15904" lon="5.97762">
        <ele>309</ele>
        <time>2016-07-30T09:13:24.029Z</time>
      </trkpt>
      <trkpt lat="43.15906" lon="5.97762">
        <ele>310</ele>
        <time>2016-07-30T09:13:25.029Z</time>
      </trkpt>
      <trkpt lat="43.15907" lon="5.97763">
        <ele>310</ele>
        <time>2016-07-30T09:13:26.029Z</time>
      </trkpt>
      <trkpt lat="43.15908" lon="5.97764">
        <ele>310</ele>
        <time>2016-07-30T09:13:27.029Z</time>
      </trkpt>
      <trkpt lat="43.15909" lon="5.97764">
        <ele>310</ele>
        <time>2016-07-30T09:13:28.029Z</time>
      </trkpt>
      <trkpt lat="43.15911" lon="5.97765">
        <ele>311</ele>
        <time>2016-07-30T09:13:29.029Z</time>
      </trkpt>
      <trkpt lat="43.15912" lon="5.97765">
        <ele>311</ele>
        <time>2016-07-30T09:13:30.029Z</time>
      </trkpt>
      <trkpt lat="43.15913" lon="5.97766">
        <ele>311</ele>
        <time>2016-07-30T09:13:31.029Z</time>
      </trkpt>
      <trkpt lat="43.15914" lon="5.97766">
        <ele>311</ele>
        <time>2016-07-30T09:13:32.029Z</time>
      </trkpt>
      <trkpt lat="43.15915" lon="5.97767">
        <ele>311</ele>
        <time>2016-07-30T09:13:33.029Z</time>
      </trkpt>
      <trkpt lat="43.15916" lon="5.97767">
        <ele>311</ele>
        <time>2016-07-30T09:13:34.029Z</time>
      </trkpt>
      <trkpt lat="43.15918" lon="5.97768">
        <ele>311</ele>
        <time>2016-07-30T09:13:35.029Z</time>
      </trkpt>
      <trkpt lat="43.15919" lon="5.97768">
        <ele>311</ele>
        <time>2016-07-30T09:13:36.029Z</time>
      </trkpt>
      <trkpt lat="43.1592" lon="5.97769">
        <ele>312</ele>
        <time>2016-07-30T09:13:37.029Z</time>
      </trkpt>
      <trkpt lat="43.15921" lon="5.9777">
        <ele>312</ele>
        <time>2016-07-30T09:13:38.029Z</time>
      </trkpt>
      <trkpt lat="43.15923" lon="5.9777">
        <ele>312</ele>
        <time>2016-07-30T09:13:39.029Z</time>
      </trkpt>
      <trkpt lat="43.15924" lon="5.9777">
        <ele>312</ele>
        <time>2016-07-30T09:13:40.029Z</time>
      </trkpt>
      <trkpt lat="43.15925" lon="5.97771">
        <ele>312</ele>
        <time>2016-07-30T09:13:41.029Z</time>
      </trkpt>
      <trkpt lat="43.15927" lon="5.97771">
        <ele>312</ele>
        <time>2016-07-30T09:13:42.029Z</time>
      </trkpt>
      <trkpt lat="43.15928" lon="5.97772">
        <ele>312</ele>
        <time>2016-07-30T09:13:43.029Z</time>
      </trkpt>
      <trkpt lat="43.15929" lon="5.97773">
        <ele>313</ele>
        <time>2016-07-30T09:13:44.029Z</time>
      </trkpt>
      <trkpt lat="43.1593" lon="5.97773">
        <ele>313</ele>
        <time>2016-07-30T09:13:45.029Z</time>
      </trkpt>
      <trkpt lat="43.15931" lon="5.97773">
        <ele>313</ele>
        <time>2016-07-30T09:13:46.029Z</time>
      </trkpt>
      <trkpt lat="43.15932" lon="5.97773">
        <ele>314</ele>
        <time>2016-07-30T09:13:47.029Z</time>
      </trkpt>
      <trkpt lat="43.15933" lon="5.97773">
        <ele>314</ele>
        <time>2016-07-30T09:13:48.029Z</time>
      </trkpt>
      <trkpt lat="43.15934" lon="5.97773">
        <ele>314</ele>
        <time>2016-07-30T09:13:49.029Z</time>
      </trkpt>
      <trkpt lat="43.15935" lon="5.97773">
        <ele>314</ele>
        <time>2016-07-30T09:13:50.029Z</time>
      </trkpt>
      <trkpt lat="43.15936" lon="5.97773">
        <ele>314</ele>
        <time>2016-07-30T09:13:51.029Z</time>
      </trkpt>
      <trkpt lat="43.15937" lon="5.97772">
        <ele>314</ele>
        <time>2016-07-30T09:13:52.029Z</time>
      </trkpt>
      <trkpt lat="43.15938" lon="5.97772">
        <ele>314</ele>
        <time>2016-07-30T09:13:53.029Z</time>
      </trkpt>
      <trkpt lat="43.15939" lon="5.97772">
        <ele>314</ele>
        <time>2016-07-30T09:13:54.029Z</time>
      </trkpt>
      <trkpt lat="43.15939" lon="5.97772">
        <ele>315</ele>
        <time>2016-07-30T09:13:55.029Z</time>
      </trkpt>
      <trkpt lat="43.1594" lon="5.97771">
        <ele>315</ele>
        <time>2016-07-30T09:13:56.029Z</time>
      </trkpt>
      <trkpt lat="43.15941" lon="5.9777">
        <ele>315</ele>
        <time>2016-07-30T09:13:57.029Z</time>
      </trkpt>
      <trkpt lat="43.15942" lon="5.97769">
        <ele>315</ele>
        <time>2016-07-30T09:13:58.029Z</time>
      </trkpt>
      <trkpt lat="43.15943" lon="5.97768">
        <ele>315</ele>
        <time>2016-07-30T09:13:59.029Z</time>
      </trkpt>
      <trkpt lat="43.15944" lon="5.97768">
        <ele>315</ele>
        <time>2016-07-30T09:14:00.029Z</time>
      </trkpt>
      <trkpt lat="43.15945" lon="5.97767">
        <ele>315</ele>
        <time>2016-07-30T09:14:01.029Z</time>
      </trkpt>
      <trkpt lat="43.15946" lon="5.97766">
        <ele>316</ele>
        <time>2016-07-30T09:14:02.029Z</time>
      </trkpt>
      <trkpt lat="43.15947" lon="5.97766">
        <ele>316</ele>
        <time>2016-07-30T09:14:03.029Z</time>
      </trkpt>
      <trkpt lat="43.15948" lon="5.97765">
        <ele>316</ele>
        <time>2016-07-30T09:14:04.029Z</time>
      </trkpt>
      <trkpt lat="43.15948" lon="5.97765">
        <ele>317</ele>
        <time>2016-07-30T09:14:05.029Z</time>
      </trkpt>
      <trkpt lat="43.15949" lon="5.97765">
        <ele>317</ele>
        <time>2016-07-30T09:14:06.029Z</time>
      </trkpt>
      <trkpt lat="43.1595" lon="5.97764">
        <ele>317</ele>
        <time>2016-07-30T09:14:07.029Z</time>
      </trkpt>
      <trkpt lat="43.15951" lon="5.97764">
        <ele>317</ele>
        <time>2016-07-30T09:14:08.029Z</time>
      </trkpt>
      <trkpt lat="43.15951" lon="5.97763">
        <ele>317</ele>
        <time>2016-07-30T09:14:09.029Z</time>
      </trkpt>
      <trkpt lat="43.15952" lon="5.97762">
        <ele>317</ele>
        <time>2016-07-30T09:14:10.029Z</time>
      </trkpt>
      <trkpt lat="43.15953" lon="5.97761">
        <ele>317</ele>
        <time>2016-07-30T09:14:11.029Z</time>
      </trkpt>
      <trkpt lat="43.15954" lon="5.9776">
        <ele>317</ele>
        <time>2016-07-30T09:14:12.029Z</time>
      </trkpt>
      <trkpt lat="43.15954" lon="5.9776">
        <ele>317</ele>
        <time>2016-07-30T09:14:13.029Z</time>
      </trkpt>
      <trkpt lat="43.15955" lon="5.97759">
        <ele>317</ele>
        <time>2016-07-30T09:14:14.029Z</time>
      </trkpt>
      <trkpt lat="43.15956" lon="5.97758">
        <ele>317</ele>
        <time>2016-07-30T09:14:15.029Z</time>
      </trkpt>
      <trkpt lat="43.15956" lon="5.97757">
        <ele>317</ele>
        <time>2016-07-30T09:14:16.029Z</time>
      </trkpt>
      <trkpt lat="43.15957" lon="5.97755">
        <ele>317</ele>
        <time>2016-07-30T09:14:17.029Z</time>
      </trkpt>
      <trkpt lat="43.15958" lon="5.97754">
        <ele>317</ele>
        <time>2016-07-30T09:14:18.029Z</time>
      </trkpt>
      <trkpt lat="43.15959" lon="5.97753">
        <ele>317</ele>
        <time>2016-07-30T09:14:19.029Z</time>
      </trkpt>
      <trkpt lat="43.1596" lon="5.97752">
        <ele>317</ele>
        <time>2016-07-30T09:14:20.029Z</time>
      </trkpt>
      <trkpt lat="43.15961" lon="5.97751">
        <ele>317</ele>
        <time>2016-07-30T09:14:21.029Z</time>
      </trkpt>
      <trkpt lat="43.15961" lon="5.9775">
        <ele>318</ele>
        <time>2016-07-30T09:14:22.029Z</time>
      </trkpt>
      <trkpt lat="43.15962" lon="5.97748">
        <ele>318</ele>
        <time>2016-07-30T09:14:23.029Z</time>
      </trkpt>
      <trkpt lat="43.15963" lon="5.97747">
        <ele>318</ele>
        <time>2016-07-30T09:14:24.029Z</time>
      </trkpt>
      <trkpt lat="43.15964" lon="5.97746">
        <ele>319</ele>
        <time>2016-07-30T09:14:25.029Z</time>
      </trkpt>
      <trkpt lat="43.15964" lon="5.97744">
        <ele>319</ele>
        <time>2016-07-30T09:14:26.029Z</time>
      </trkpt>
      <trkpt lat="43.15965" lon="5.97743">
        <ele>320</ele>
        <time>2016-07-30T09:14:27.029Z</time>
      </trkpt>
      <trkpt lat="43.15966" lon="5.97742">
        <ele>320</ele>
        <time>2016-07-30T09:14:28.029Z</time>
      </trkpt>
      <trkpt lat="43.15967" lon="5.97741">
        <ele>320</ele>
        <time>2016-07-30T09:14:29.029Z</time>
      </trkpt>
      <trkpt lat="43.15967" lon="5.97739">
        <ele>320</ele>
        <time>2016-07-30T09:14:30.029Z</time>
      </trkpt>
      <trkpt lat="43.15968" lon="5.97738">
        <ele>321</ele>
        <time>2016-07-30T09:14:31.029Z</time>
      </trkpt>
      <trkpt lat="43.15969" lon="5.97737">
        <ele>321</ele>
        <time>2016-07-30T09:14:32.029Z</time>
      </trkpt>
      <trkpt lat="43.15969" lon="5.97735">
        <ele>322</ele>
        <time>2016-07-30T09:14:33.029Z</time>
      </trkpt>
      <trkpt lat="43.1597" lon="5.97734">
        <ele>322</ele>
        <time>2016-07-30T09:14:34.029Z</time>
      </trkpt>
      <trkpt lat="43.15971" lon="5.97733">
        <ele>322</ele>
        <time>2016-07-30T09:14:35.029Z</time>
      </trkpt>
      <trkpt lat="43.15971" lon="5.97732">
        <ele>323</ele>
        <time>2016-07-30T09:14:36.029Z</time>
      </trkpt>
      <trkpt lat="43.15972" lon="5.97731">
        <ele>323</ele>
        <time>2016-07-30T09:14:37.029Z</time>
      </trkpt>
      <trkpt lat="43.15973" lon="5.9773">
        <ele>323</ele>
        <time>2016-07-30T09:14:38.029Z</time>
      </trkpt>
      <trkpt lat="43.15974" lon="5.97729">
        <ele>323</ele>
        <time>2016-07-30T09:14:39.029Z</time>
      </trkpt>
      <trkpt lat="43.15975" lon="5.97728">
        <ele>324</ele>
        <time>2016-07-30T09:14:40.029Z</time>
      </trkpt>
      <trkpt lat="43.15976" lon="5.97727">
        <ele>324</ele>
        <time>2016-07-30T09:14:41.029Z</time>
      </trkpt>
      <trkpt lat="43.15976" lon="5.97726">
        <ele>324</ele>
        <time>2016-07-30T09:14:42.029Z</time>
      </trkpt>
      <trkpt lat="43.15977" lon="5.97725">
        <ele>325</ele>
        <time>2016-07-30T09:14:43.029Z</time>
      </trkpt>
      <trkpt lat="43.15978" lon="5.97724">
        <ele>325</ele>
        <time>2016-07-30T09:14:44.029Z</time>
      </trkpt>
      <trkpt lat="43.15979" lon="5.97722">
        <ele>325</ele>
        <time>2016-07-30T09:14:45.029Z</time>
      </trkpt>
      <trkpt lat="43.1598" lon="5.97721">
        <ele>325</ele>
        <time>2016-07-30T09:14:46.029Z</time>
      </trkpt>
      <trkpt lat="43.15981" lon="5.9772">
        <ele>325</ele>
        <time>2016-07-30T09:14:47.029Z</time>
      </trkpt>
      <trkpt lat="43.15982" lon="5.97719">
        <ele>325</ele>
        <time>2016-07-30T09:14:48.029Z</time>
      </trkpt>
      <trkpt lat="43.15983" lon="5.97718">
        <ele>325</ele>
        <time>2016-07-30T09:14:49.029Z</time>
      </trkpt>
      <trkpt lat="43.15984" lon="5.97717">
        <ele>325</ele>
        <time>2016-07-30T09:14:50.029Z</time>
      </trkpt>
      <trkpt lat="43.15985" lon="5.97715">
        <ele>325</ele>
        <time>2016-07-30T09:14:51.029Z</time>
      </trkpt>
      <trkpt lat="43.15986" lon="5.97714">
        <ele>325</ele>
        <time>2016-07-30T09:14:52.029Z</time>
      </trkpt>
      <trkpt lat="43.15987" lon="5.97713">
        <ele>325</ele>
        <time>2016-07-30T09:14:53.029Z</time>
      </trkpt>
      <trkpt lat="43.15988" lon="5.97712">
        <ele>325</ele>
        <time>2016-07-30T09:14:54.029Z</time>
      </trkpt>
      <trkpt lat="43.15989" lon="5.97711">
        <ele>325</ele>
        <time>2016-07-30T09:14:55.029Z</time>
      </trkpt>
      <trkpt lat="43.1599" lon="5.9771">
        <ele>326</ele>
        <time>2016-07-30T09:14:56.029Z</time>
      </trkpt>
      <trkpt lat="43.15991" lon="5.97709">
        <ele>326</ele>
        <time>2016-07-30T09:14:57.029Z</time>
      </trkpt>
      <trkpt lat="43.15992" lon="5.97708">
        <ele>326</ele>
        <time>2016-07-30T09:14:58.029Z</time>
      </trkpt>
      <trkpt lat="43.15993" lon="5.97707">
        <ele>326</ele>
        <time>2016-07-30T09:14:59.029Z</time>
      </trkpt>
      <trkpt lat="43.15994" lon="5.97706">
        <ele>326</ele>
        <time>2016-07-30T09:15:00.029Z</time>
      </trkpt>
      <trkpt lat="43.15995" lon="5.97705">
        <ele>326</ele>
        <time>2016-07-30T09:15:01.029Z</time>
      </trkpt>
      <trkpt lat="43.15996" lon="5.97704">
        <ele>326</ele>
        <time>2016-07-30T09:15:02.029Z</time>
      </trkpt>
      <trkpt lat="43.15997" lon="5.97703">
        <ele>326</ele>
        <time>2016-07-30T09:15:03.029Z</time>
      </trkpt>
      <trkpt lat="43.15997" lon="5.97702">
        <ele>326</ele>
        <time>2016-07-30T09:15:04.029Z</time>
      </trkpt>
      <trkpt lat="43.15998" lon="5.97701">
        <ele>326</ele>
        <time>2016-07-30T09:15:05.029Z</time>
      </trkpt>
      <trkpt lat="43.15999" lon="5.97699">
        <ele>326</ele>
        <time>2016-07-30T09:15:06.029Z</time>
      </trkpt>
      <trkpt lat="43.16" lon="5.97698">
        <ele>326</ele>
        <time>2016-07-30T09:15:07.029Z</time>
      </trkpt>
      <trkpt lat="43.16001" lon="5.97697">
        <ele>326</ele>
        <time>2016-07-30T09:15:08.029Z</time>
      </trkpt>
      <trkpt lat="43.16002" lon="5.97696">
        <ele>326</ele>
        <time>2016-07-30T09:15:09.029Z</time>
      </trkpt>
      <trkpt lat="43.16003" lon="5.97695">
        <ele>325</ele>
        <time>2016-07-30T09:15:10.029Z</time>
      </trkpt>
      <trkpt lat="43.16004" lon="5.97694">
        <ele>325</ele>
        <time>2016-07-30T09:15:11.029Z</time>
      </trkpt>
      <trkpt lat="43.16005" lon="5.97693">
        <ele>325</ele>
        <time>2016-07-30T09:15:12.029Z</time>
      </trkpt>
      <trkpt lat="43.16006" lon="5.97692">
        <ele>325</ele>
        <time>2016-07-30T09:15:13.029Z</time>
      </trkpt>
      <trkpt lat="43.16007" lon="5.97691">
        <ele>326</ele>
        <time>2016-07-30T09:15:14.029Z</time>
      </trkpt>
      <trkpt lat="43.16008" lon="5.9769">
        <ele>326</ele>
        <time>2016-07-30T09:15:15.029Z</time>
      </trkpt>
      <trkpt lat="43.16009" lon="5.97689">
        <ele>326</ele>
        <time>2016-07-30T09:15:16.029Z</time>
      </trkpt>
      <trkpt lat="43.16009" lon="5.97688">
        <ele>326</ele>
        <time>2016-07-30T09:15:17.029Z</time>
      </trkpt>
      <trkpt lat="43.1601" lon="5.97687">
        <ele>326</ele>
        <time>2016-07-30T09:15:18.029Z</time>
      </trkpt>
      <trkpt lat="43.16011" lon="5.97686">
        <ele>326</ele>
        <time>2016-07-30T09:15:19.029Z</time>
      </trkpt>
      <trkpt lat="43.16012" lon="5.97686">
        <ele>326</ele>
        <time>2016-07-30T09:15:20.029Z</time>
      </trkpt>
      <trkpt lat="43.16013" lon="5.97685">
        <ele>326</ele>
        <time>2016-07-30T09:15:21.029Z</time>
      </trkpt>
      <trkpt lat="43.16014" lon="5.97684">
        <ele>326</ele>
        <time>2016-07-30T09:15:22.029Z</time>
      </trkpt>
      <trkpt lat="43.16015" lon="5.97683">
        <ele>326</ele>
        <time>2016-07-30T09:15:23.029Z</time>
      </trkpt>
      <trkpt lat="43.16016" lon="5.97682">
        <ele>326</ele>
        <time>2016-07-30T09:15:24.029Z</time>
      </trkpt>
      <trkpt lat="43.16017" lon="5.97681">
        <ele>326</ele>
        <time>2016-07-30T09:15:25.029Z</time>
      </trkpt>
      <trkpt lat="43.16018" lon="5.9768">
        <ele>326</ele>
        <time>2016-07-30T09:15:26.029Z</time>
      </trkpt>
      <trkpt lat="43.1602" lon="5.97678">
        <ele>326</ele>
        <time>2016-07-30T09:15:27.029Z</time>
      </trkpt>
      <trkpt lat="43.16021" lon="5.97677">
        <ele>327</ele>
        <time>2016-07-30T09:15:28.029Z</time>
      </trkpt>
      <trkpt lat="43.16022" lon="5.97676">
        <ele>327</ele>
        <time>2016-07-30T09:15:29.029Z</time>
      </trkpt>
      <trkpt lat="43.16024" lon="5.97674">
        <ele>327</ele>
        <time>2016-07-30T09:15:30.029Z</time>
      </trkpt>
      <trkpt lat="43.16025" lon="5.97673">
        <ele>327</ele>
        <time>2016-07-30T09:15:31.029Z</time>
      </trkpt>
      <trkpt lat="43.16026" lon="5.97672">
        <ele>327</ele>
        <time>2016-07-30T09:15:32.029Z</time>
      </trkpt>
      <trkpt lat="43.16028" lon="5.97671">
        <ele>327</ele>
        <time>2016-07-30T09:15:33.029Z</time>
      </trkpt>
      <trkpt lat="43.16029" lon="5.9767">
        <ele>327</ele>
        <time>2016-07-30T09:15:34.029Z</time>
      </trkpt>
      <trkpt lat="43.1603" lon="5.97668">
        <ele>327</ele>
        <time>2016-07-30T09:15:35.029Z</time>
      </trkpt>
      <trkpt lat="43.16032" lon="5.97667">
        <ele>327</ele>
        <time>2016-07-30T09:15:36.029Z</time>
      </trkpt>
      <trkpt lat="43.16033" lon="5.97666">
        <ele>327</ele>
        <time>2016-07-30T09:15:37.029Z</time>
      </trkpt>
      <trkpt lat="43.16035" lon="5.97665">
        <ele>327</ele>
        <time>2016-07-30T09:15:38.029Z</time>
      </trkpt>
      <trkpt lat="43.16036" lon="5.97663">
        <ele>327</ele>
        <time>2016-07-30T09:15:39.029Z</time>
      </trkpt>
      <trkpt lat="43.16037" lon="5.97662">
        <ele>328</ele>
        <time>2016-07-30T09:15:40.029Z</time>
      </trkpt>
      <trkpt lat="43.16039" lon="5.97661">
        <ele>328</ele>
        <time>2016-07-30T09:15:41.029Z</time>
      </trkpt>
      <trkpt lat="43.1604" lon="5.9766">
        <ele>328</ele>
        <time>2016-07-30T09:15:42.029Z</time>
      </trkpt>
      <trkpt lat="43.16041" lon="5.97659">
        <ele>328</ele>
        <time>2016-07-30T09:15:43.029Z</time>
      </trkpt>
      <trkpt lat="43.16042" lon="5.97657">
        <ele>328</ele>
        <time>2016-07-30T09:15:44.029Z</time>
      </trkpt>
      <trkpt lat="43.16043" lon="5.97656">
        <ele>328</ele>
        <time>2016-07-30T09:15:45.029Z</time>
      </trkpt>
      <trkpt lat="43.16045" lon="5.97655">
        <ele>329</ele>
        <time>2016-07-30T09:15:46.029Z</time>
      </trkpt>
      <trkpt lat="43.16046" lon="5.97654">
        <ele>329</ele>
        <time>2016-07-30T09:15:47.029Z</time>
      </trkpt>
      <trkpt lat="43.16047" lon="5.97653">
        <ele>329</ele>
        <time>2016-07-30T09:15:48.029Z</time>
      </trkpt>
      <trkpt lat="43.16048" lon="5.97652">
        <ele>329</ele>
        <time>2016-07-30T09:15:49.029Z</time>
      </trkpt>
      <trkpt lat="43.1605" lon="5.97651">
        <ele>329</ele>
        <time>2016-07-30T09:15:50.029Z</time>
      </trkpt>
      <trkpt lat="43.16051" lon="5.9765">
        <ele>329</ele>
        <time>2016-07-30T09:15:51.029Z</time>
      </trkpt>
      <trkpt lat="43.16052" lon="5.97649">
        <ele>329</ele>
        <time>2016-07-30T09:15:52.029Z</time>
      </trkpt>
      <trkpt lat="43.16053" lon="5.97648">
        <ele>329</ele>
        <time>2016-07-30T09:15:53.029Z</time>
      </trkpt>
      <trkpt lat="43.16054" lon="5.97647">
        <ele>329</ele>
        <time>2016-07-30T09:15:54.029Z</time>
      </trkpt>
      <trkpt lat="43.16055" lon="5.97646">
        <ele>329</ele>
        <time>2016-07-30T09:15:55.029Z</time>
      </trkpt>
      <trkpt lat="43.16056" lon="5.97645">
        <ele>329</ele>
        <time>2016-07-30T09:15:56.029Z</time>
      </trkpt>
      <trkpt lat="43.16057" lon="5.97644">
        <ele>329</ele>
        <time>2016-07-30T09:15:57.029Z</time>
      </trkpt>
      <trkpt lat="43.16058" lon="5.97643">
        <ele>329</ele>
        <time>2016-07-30T09:15:58.029Z</time>
      </trkpt>
      <trkpt lat="43.16059" lon="5.97642">
        <ele>329</ele>
        <time>2016-07-30T09:15:59.029Z</time>
      </trkpt>
      <trkpt lat="43.1606" lon="5.97641">
        <ele>329</ele>
        <time>2016-07-30T09:16:00.029Z</time>
      </trkpt>
      <trkpt lat="43.16061" lon="5.9764">
        <ele>329</ele>
        <time>2016-07-30T09:16:01.029Z</time>
      </trkpt>
      <trkpt lat="43.16062" lon="5.97639">
        <ele>330</ele>
        <time>2016-07-30T09:16:02.029Z</time>
      </trkpt>
      <trkpt lat="43.16062" lon="5.97638">
        <ele>330</ele>
        <time>2016-07-30T09:16:03.029Z</time>
      </trkpt>
      <trkpt lat="43.16063" lon="5.97636">
        <ele>330</ele>
        <time>2016-07-30T09:16:04.029Z</time>
      </trkpt>
      <trkpt lat="43.16063" lon="5.97635">
        <ele>330</ele>
        <time>2016-07-30T09:16:05.029Z</time>
      </trkpt>
      <trkpt lat="43.16064" lon="5.97633">
        <ele>330</ele>
        <time>2016-07-30T09:16:06.029Z</time>
      </trkpt>
      <trkpt lat="43.16064" lon="5.97632">
        <ele>330</ele>
        <time>2016-07-30T09:16:07.029Z</time>
      </trkpt>
      <trkpt lat="43.16065" lon="5.9763">
        <ele>330</ele>
        <time>2016-07-30T09:16:08.029Z</time>
      </trkpt>
      <trkpt lat="43.16066" lon="5.97629">
        <ele>330</ele>
        <time>2016-07-30T09:16:09.029Z</time>
      </trkpt>
      <trkpt lat="43.16066" lon="5.97627">
        <ele>331</ele>
        <time>2016-07-30T09:16:10.029Z</time>
      </trkpt>
      <trkpt lat="43.16067" lon="5.97625">
        <ele>331</ele>
        <time>2016-07-30T09:16:11.029Z</time>
      </trkpt>
      <trkpt lat="43.16068" lon="5.97624">
        <ele>331</ele>
        <time>2016-07-30T09:16:12.029Z</time>
      </trkpt>
      <trkpt lat="43.16068" lon="5.97622">
        <ele>331</ele>
        <time>2016-07-30T09:16:13.029Z</time>
      </trkpt>
      <trkpt lat="43.16069" lon="5.9762">
        <ele>332</ele>
        <time>2016-07-30T09:16:14.029Z</time>
      </trkpt>
      <trkpt lat="43.16069" lon="5.97618">
        <ele>332</ele>
        <time>2016-07-30T09:16:15.029Z</time>
      </trkpt>
      <trkpt lat="43.1607" lon="5.97616">
        <ele>332</ele>
        <time>2016-07-30T09:16:16.029Z</time>
      </trkpt>
      <trkpt lat="43.1607" lon="5.97614">
        <ele>332</ele>
        <time>2016-07-30T09:16:17.029Z</time>
      </trkpt>
      <trkpt lat="43.16071" lon="5.97612">
        <ele>332</ele>
        <time>2016-07-30T09:16:18.029Z</time>
      </trkpt>
      <trkpt lat="43.16072" lon="5.9761">
        <ele>332</ele>
        <time>2016-07-30T09:16:19.029Z</time>
      </trkpt>
      <trkpt lat="43.16072" lon="5.97607">
        <ele>333</ele>
        <time>2016-07-30T09:16:20.029Z</time>
      </trkpt>
      <trkpt lat="43.16073" lon="5.97605">
        <ele>333</ele>
        <time>2016-07-30T09:16:21.029Z</time>
      </trkpt>
      <trkpt lat="43.16073" lon="5.97603">
        <ele>333</ele>
        <time>2016-07-30T09:16:22.029Z</time>
      </trkpt>
      <trkpt lat="43.16074" lon="5.976">
        <ele>333</ele>
        <time>2016-07-30T09:16:23.029Z</time>
      </trkpt>
      <trkpt lat="43.16074" lon="5.97598">
        <ele>333</ele>
        <time>2016-07-30T09:16:24.029Z</time>
      </trkpt>
      <trkpt lat="43.16075" lon="5.97596">
        <ele>333</ele>
        <time>2016-07-30T09:16:25.029Z</time>
      </trkpt>
      <trkpt lat="43.16076" lon="5.97594">
        <ele>333</ele>
        <time>2016-07-30T09:16:26.029Z</time>
      </trkpt>
      <trkpt lat="43.16076" lon="5.97592">
        <ele>333</ele>
        <time>2016-07-30T09:16:27.029Z</time>
      </trkpt>
      <trkpt lat="43.16077" lon="5.9759">
        <ele>333</ele>
        <time>2016-07-30T09:16:28.029Z</time>
      </trkpt>
      <trkpt lat="43.16078" lon="5.97587">
        <ele>333</ele>
        <time>2016-07-30T09:16:29.029Z</time>
      </trkpt>
      <trkpt lat="43.16079" lon="5.97585">
        <ele>333</ele>
        <time>2016-07-30T09:16:30.029Z</time>
      </trkpt>
      <trkpt lat="43.16079" lon="5.97583">
        <ele>334</ele>
        <time>2016-07-30T09:16:31.029Z</time>
      </trkpt>
      <trkpt lat="43.1608" lon="5.9758">
        <ele>334</ele>
        <time>2016-07-30T09:16:32.029Z</time>
      </trkpt>
      <trkpt lat="43.16081" lon="5.97578">
        <ele>333</ele>
        <time>2016-07-30T09:16:33.029Z</time>
      </trkpt>
      <trkpt lat="43.16081" lon="5.97575">
        <ele>333</ele>
        <time>2016-07-30T09:16:34.029Z</time>
      </trkpt>
      <trkpt lat="43.16082" lon="5.97573">
        <ele>333</ele>
        <time>2016-07-30T09:16:35.029Z</time>
      </trkpt>
      <trkpt lat="43.16084" lon="5.97571">
        <ele>333</ele>
        <time>2016-07-30T09:16:36.029Z</time>
      </trkpt>
      <trkpt lat="43.16085" lon="5.97569">
        <ele>333</ele>
        <time>2016-07-30T09:16:37.029Z</time>
      </trkpt>
      <trkpt lat="43.16087" lon="5.97568">
        <ele>333</ele>
        <time>2016-07-30T09:16:38.029Z</time>
      </trkpt>
      <trkpt lat="43.16088" lon="5.97567">
        <ele>334</ele>
        <time>2016-07-30T09:16:39.029Z</time>
      </trkpt>
      <trkpt lat="43.1609" lon="5.97566">
        <ele>334</ele>
        <time>2016-07-30T09:16:40.029Z</time>
      </trkpt>
      <trkpt lat="43.16091" lon="5.97566">
        <ele>335</ele>
        <time>2016-07-30T09:16:41.029Z</time>
      </trkpt>
      <trkpt lat="43.16093" lon="5.97567">
        <ele>335</ele>
        <time>2016-07-30T09:16:42.029Z</time>
      </trkpt>
      <trkpt lat="43.16094" lon="5.97568">
        <ele>335</ele>
        <time>2016-07-30T09:16:43.029Z</time>
      </trkpt>
      <trkpt lat="43.16095" lon="5.9757">
        <ele>335</ele>
        <time>2016-07-30T09:16:44.029Z</time>
      </trkpt>
      <trkpt lat="43.16096" lon="5.97572">
        <ele>335</ele>
        <time>2016-07-30T09:16:45.029Z</time>
      </trkpt>
      <trkpt lat="43.16096" lon="5.97574">
        <ele>335</ele>
        <time>2016-07-30T09:16:46.029Z</time>
      </trkpt>
      <trkpt lat="43.16096" lon="5.97576">
        <ele>335</ele>
        <time>2016-07-30T09:16:47.029Z</time>
      </trkpt>
      <trkpt lat="43.16096" lon="5.97578">
        <ele>335</ele>
        <time>2016-07-30T09:16:48.029Z</time>
      </trkpt>
      <trkpt lat="43.16095" lon="5.97581">
        <ele>335</ele>
        <time>2016-07-30T09:16:49.029Z</time>
      </trkpt>
      <trkpt lat="43.16095" lon="5.97583">
        <ele>335</ele>
        <time>2016-07-30T09:16:50.029Z</time>
      </trkpt>
      <trkpt lat="43.16094" lon="5.97585">
        <ele>335</ele>
        <time>2016-07-30T09:16:51.029Z</time>
      </trkpt>
      <trkpt lat="43.16093" lon="5.97587">
        <ele>335</ele>
        <time>2016-07-30T09:16:52.029Z</time>
      </trkpt>
      <trkpt lat="43.16092" lon="5.97589">
        <ele>335</ele>
        <time>2016-07-30T09:16:53.029Z</time>
      </trkpt>
      <trkpt lat="43.16091" lon="5.97592">
        <ele>335</ele>
        <time>2016-07-30T09:16:54.029Z</time>
      </trkpt>
      <trkpt lat="43.1609" lon="5.97594">
        <ele>335</ele>
        <time>2016-07-30T09:16:55.029Z</time>
      </trkpt>
      <trkpt lat="43.16089" lon="5.97597">
        <ele>335</ele>
        <time>2016-07-30T09:16:56.029Z</time>
      </trkpt>
      <trkpt lat="43.16088" lon="5.97599">
        <ele>335</ele>
        <time>2016-07-30T09:16:57.029Z</time>
      </trkpt>
      <trkpt lat="43.16088" lon="5.97602">
        <ele>335</ele>
        <time>2016-07-30T09:16:58.029Z</time>
      </trkpt>
      <trkpt lat="43.16087" lon="5.97604">
        <ele>335</ele>
        <time>2016-07-30T09:16:59.029Z</time>
      </trkpt>
      <trkpt lat="43.16086" lon="5.97607">
        <ele>335</ele>
        <time>2016-07-30T09:17:00.029Z</time>
      </trkpt>
      <trkpt lat="43.16085" lon="5.9761">
        <ele>335</ele>
        <time>2016-07-30T09:17:01.029Z</time>
      </trkpt>
      <trkpt lat="43.16084" lon="5.97612">
        <ele>335</ele>
        <time>2016-07-30T09:17:02.029Z</time>
      </trkpt>
      <trkpt lat="43.16084" lon="5.97615">
        <ele>335</ele>
        <time>2016-07-30T09:17:03.029Z</time>
      </trkpt>
      <trkpt lat="43.16083" lon="5.97618">
        <ele>335</ele>
        <time>2016-07-30T09:17:04.029Z</time>
      </trkpt>
      <trkpt lat="43.16082" lon="5.9762">
        <ele>335</ele>
        <time>2016-07-30T09:17:05.029Z</time>
      </trkpt>
      <trkpt lat="43.16081" lon="5.97623">
        <ele>336</ele>
        <time>2016-07-30T09:17:06.029Z</time>
      </trkpt>
      <trkpt lat="43.16081" lon="5.97625">
        <ele>336</ele>
        <time>2016-07-30T09:17:07.029Z</time>
      </trkpt>
      <trkpt lat="43.1608" lon="5.97628">
        <ele>336</ele>
        <time>2016-07-30T09:17:08.029Z</time>
      </trkpt>
      <trkpt lat="43.16079" lon="5.97631">
        <ele>336</ele>
        <time>2016-07-30T09:17:09.029Z</time>
      </trkpt>
      <trkpt lat="43.16078" lon="5.97633">
        <ele>336</ele>
        <time>2016-07-30T09:17:10.029Z</time>
      </trkpt>
      <trkpt lat="43.16078" lon="5.97636">
        <ele>336</ele>
        <time>2016-07-30T09:17:11.029Z</time>
      </trkpt>
      <trkpt lat="43.16077" lon="5.97638">
        <ele>336</ele>
        <time>2016-07-30T09:17:12.029Z</time>
      </trkpt>
      <trkpt lat="43.16076" lon="5.97641">
        <ele>337</ele>
        <time>2016-07-30T09:17:13.029Z</time>
      </trkpt>
      <trkpt lat="43.16075" lon="5.97643">
        <ele>337</ele>
        <time>2016-07-30T09:17:14.029Z</time>
      </trkpt>
      <trkpt lat="43.16074" lon="5.97646">
        <ele>338</ele>
        <time>2016-07-30T09:17:15.029Z</time>
      </trkpt>
      <trkpt lat="43.16073" lon="5.97649">
        <ele>338</ele>
        <time>2016-07-30T09:17:16.029Z</time>
      </trkpt>
      <trkpt lat="43.16072" lon="5.97652">
        <ele>338</ele>
        <time>2016-07-30T09:17:17.029Z</time>
      </trkpt>
      <trkpt lat="43.16071" lon="5.97655">
        <ele>338</ele>
        <time>2016-07-30T09:17:18.029Z</time>
      </trkpt>
      <trkpt lat="43.1607" lon="5.97657">
        <ele>338</ele>
        <time>2016-07-30T09:17:19.029Z</time>
      </trkpt>
      <trkpt lat="43.1607" lon="5.9766">
        <ele>338</ele>
        <time>2016-07-30T09:17:20.029Z</time>
      </trkpt>
      <trkpt lat="43.16069" lon="5.97663">
        <ele>339</ele>
        <time>2016-07-30T09:17:21.029Z</time>
      </trkpt>
      <trkpt lat="43.16068" lon="5.97666">
        <ele>339</ele>
        <time>2016-07-30T09:17:22.029Z</time>
      </trkpt>
      <trkpt lat="43.16067" lon="5.97669">
        <ele>339</ele>
        <time>2016-07-30T09:17:23.029Z</time>
      </trkpt>
      <trkpt lat="43.16067" lon="5.97672">
        <ele>340</ele>
        <time>2016-07-30T09:17:24.029Z</time>
      </trkpt>
      <trkpt lat="43.16066" lon="5.97675">
        <ele>340</ele>
        <time>2016-07-30T09:17:25.029Z</time>
      </trkpt>
      <trkpt lat="43.16065" lon="5.97678">
        <ele>340</ele>
        <time>2016-07-30T09:17:26.029Z</time>
      </trkpt>
      <trkpt lat="43.16065" lon="5.97681">
        <ele>340</ele>
        <time>2016-07-30T09:17:27.029Z</time>
      </trkpt>
      <trkpt lat="43.16064" lon="5.97684">
        <ele>341</ele>
        <time>2016-07-30T09:17:28.029Z</time>
      </trkpt>
      <trkpt lat="43.16063" lon="5.97687">
        <ele>341</ele>
        <time>2016-07-30T09:17:29.029Z</time>
      </trkpt>
      <trkpt lat="43.16062" lon="5.97689">
        <ele>342</ele>
        <time>2016-07-30T09:17:30.029Z</time>
      </trkpt>
      <trkpt lat="43.16061" lon="5.97692">
        <ele>342</ele>
        <time>2016-07-30T09:17:31.029Z</time>
      </trkpt>
      <trkpt lat="43.16061" lon="5.97695">
        <ele>342</ele>
        <time>2016-07-30T09:17:32.029Z</time>
      </trkpt>
      <trkpt lat="43.1606" lon="5.97698">
        <ele>343</ele>
        <time>2016-07-30T09:17:33.029Z</time>
      </trkpt>
      <trkpt lat="43.16059" lon="5.97701">
        <ele>343</ele>
        <time>2016-07-30T09:17:34.029Z</time>
      </trkpt>
      <trkpt lat="43.16058" lon="5.97703">
        <ele>343</ele>
        <time>2016-07-30T09:17:35.029Z</time>
      </trkpt>
      <trkpt lat="43.16057" lon="5.97706">
        <ele>344</ele>
        <time>2016-07-30T09:17:36.029Z</time>
      </trkpt>
      <trkpt lat="43.16057" lon="5.97709">
        <ele>344</ele>
        <time>2016-07-30T09:17:37.029Z</time>
      </trkpt>
      <trkpt lat="43.16056" lon="5.97711">
        <ele>344</ele>
        <time>2016-07-30T09:17:38.029Z</time>
      </trkpt>
      <trkpt lat="43.16055" lon="5.97714">
        <ele>344</ele>
        <time>2016-07-30T09:17:39.029Z</time>
      </trkpt>
      <trkpt lat="43.16054" lon="5.97717">
        <ele>345</ele>
        <time>2016-07-30T09:17:40.029Z</time>
      </trkpt>
      <trkpt lat="43.16053" lon="5.97719">
        <ele>345</ele>
        <time>2016-07-30T09:17:41.029Z</time>
      </trkpt>
      <trkpt lat="43.16053" lon="5.97722">
        <ele>345</ele>
        <time>2016-07-30T09:17:42.029Z</time>
      </trkpt>
      <trkpt lat="43.16052" lon="5.97725">
        <ele>345</ele>
        <time>2016-07-30T09:17:43.029Z</time>
      </trkpt>
      <trkpt lat="43.16051" lon="5.97727">
        <ele>345</ele>
        <time>2016-07-30T09:17:44.029Z</time>
      </trkpt>
      <trkpt lat="43.1605" lon="5.9773">
        <ele>345</ele>
        <time>2016-07-30T09:17:45.029Z</time>
      </trkpt>
      <trkpt lat="43.16049" lon="5.97732">
        <ele>345</ele>
        <time>2016-07-30T09:17:46.029Z</time>
      </trkpt>
      <trkpt lat="43.16048" lon="5.97735">
        <ele>346</ele>
        <time>2016-07-30T09:17:47.029Z</time>
      </trkpt>
      <trkpt lat="43.16047" lon="5.97738">
        <ele>346</ele>
        <time>2016-07-30T09:17:48.029Z</time>
      </trkpt>
      <trkpt lat="43.16046" lon="5.9774">
        <ele>346</ele>
        <time>2016-07-30T09:17:49.029Z</time>
      </trkpt>
      <trkpt lat="43.16045" lon="5.97743">
        <ele>346</ele>
        <time>2016-07-30T09:17:50.029Z</time>
      </trkpt>
      <trkpt lat="43.16044" lon="5.97745">
        <ele>347</ele>
        <time>2016-07-30T09:17:51.029Z</time>
      </trkpt>
      <trkpt lat="43.16043" lon="5.97748">
        <ele>347</ele>
        <time>2016-07-30T09:17:52.029Z</time>
      </trkpt>
      <trkpt lat="43.16042" lon="5.97751">
        <ele>347</ele>
        <time>2016-07-30T09:17:53.029Z</time>
      </trkpt>
      <trkpt lat="43.16041" lon="5.97753">
        <ele>347</ele>
        <time>2016-07-30T09:17:54.029Z</time>
      </trkpt>
      <trkpt lat="43.1604" lon="5.97756">
        <ele>347</ele>
        <time>2016-07-30T09:17:55.029Z</time>
      </trkpt>
      <trkpt lat="43.16039" lon="5.97759">
        <ele>347</ele>
        <time>2016-07-30T09:17:56.029Z</time>
      </trkpt>
      <trkpt lat="43.16038" lon="5.97761">
        <ele>348</ele>
        <time>2016-07-30T09:17:57.029Z</time>
      </trkpt>
      <trkpt lat="43.16037" lon="5.97764">
        <ele>348</ele>
        <time>2016-07-30T09:17:58.029Z</time>
      </trkpt>
      <trkpt lat="43.16037" lon="5.97767">
        <ele>348</ele>
        <time>2016-07-30T09:17:59.029Z</time>
      </trkpt>
      <trkpt lat="43.16036" lon="5.97769">
        <ele>348</ele>
        <time>2016-07-30T09:18:00.029Z</time>
      </trkpt>
      <trkpt lat="43.16035" lon="5.97772">
        <ele>349</ele>
        <time>2016-07-30T09:18:01.029Z</time>
      </trkpt>
      <trkpt lat="43.16035" lon="5.97774">
        <ele>349</ele>
        <time>2016-07-30T09:18:02.029Z</time>
      </trkpt>
      <trkpt lat="43.16034" lon="5.97777">
        <ele>349</ele>
        <time>2016-07-30T09:18:03.029Z</time>
      </trkpt>
      <trkpt lat="43.16034" lon="5.9778">
        <ele>349</ele>
        <time>2016-07-30T09:18:04.029Z</time>
      </trkpt>
      <trkpt lat="43.16033" lon="5.97782">
        <ele>349</ele>
        <time>2016-07-30T09:18:05.029Z</time>
      </trkpt>
      <trkpt lat="43.16033" lon="5.97785">
        <ele>350</ele>
        <time>2016-07-30T09:18:06.029Z</time>
      </trkpt>
      <trkpt lat="43.16033" lon="5.97788">
        <ele>350</ele>
        <time>2016-07-30T09:18:07.029Z</time>
      </trkpt>
      <trkpt lat="43.16033" lon="5.97791">
        <ele>350</ele>
        <time>2016-07-30T09:18:08.029Z</time>
      </trkpt>
      <trkpt lat="43.16033" lon="5.97793">
        <ele>351</ele>
        <time>2016-07-30T09:18:09.029Z</time>
      </trkpt>
      <trkpt lat="43.16032" lon="5.97796">
        <ele>351</ele>
        <time>2016-07-30T09:18:10.029Z</time>
      </trkpt>
      <trkpt lat="43.16032" lon="5.97799">
        <ele>351</ele>
        <time>2016-07-30T09:18:11.029Z</time>
      </trkpt>
      <trkpt lat="43.16032" lon="5.97801">
        <ele>351</ele>
        <time>2016-07-30T09:18:12.029Z</time>
      </trkpt>
      <trkpt lat="43.16032" lon="5.97804">
        <ele>351</ele>
        <time>2016-07-30T09:18:13.029Z</time>
      </trkpt>
      <trkpt lat="43.16033" lon="5.97807">
        <ele>352</ele>
        <time>2016-07-30T09:18:14.029Z</time>
      </trkpt>
      <trkpt lat="43.16033" lon="5.97809">
        <ele>352</ele>
        <time>2016-07-30T09:18:15.029Z</time>
      </trkpt>
      <trkpt lat="43.16033" lon="5.97812">
        <ele>352</ele>
        <time>2016-07-30T09:18:16.029Z</time>
      </trkpt>
      <trkpt lat="43.16033" lon="5.97815">
        <ele>352</ele>
        <time>2016-07-30T09:18:17.029Z</time>
      </trkpt>
      <trkpt lat="43.16034" lon="5.97817">
        <ele>353</ele>
        <time>2016-07-30T09:18:18.029Z</time>
      </trkpt>
      <trkpt lat="43.16034" lon="5.9782">
        <ele>353</ele>
        <time>2016-07-30T09:18:19.029Z</time>
      </trkpt>
      <trkpt lat="43.16034" lon="5.97822">
        <ele>353</ele>
        <time>2016-07-30T09:18:20.029Z</time>
      </trkpt>
      <trkpt lat="43.16035" lon="5.97825">
        <ele>353</ele>
        <time>2016-07-30T09:18:21.029Z</time>
      </trkpt>
      <trkpt lat="43.16036" lon="5.97827">
        <ele>353</ele>
        <time>2016-07-30T09:18:22.029Z</time>
      </trkpt>
      <trkpt lat="43.16036" lon="5.9783">
        <ele>354</ele>
        <time>2016-07-30T09:18:23.029Z</time>
      </trkpt>
      <trkpt lat="43.16037" lon="5.97832">
        <ele>354</ele>
        <time>2016-07-30T09:18:24.029Z</time>
      </trkpt>
      <trkpt lat="43.16037" lon="5.97835">
        <ele>354</ele>
        <time>2016-07-30T09:18:25.029Z</time>
      </trkpt>
      <trkpt lat="43.16038" lon="5.97837">
        <ele>355</ele>
        <time>2016-07-30T09:18:26.029Z</time>
      </trkpt>
      <trkpt lat="43.16038" lon="5.97839">
        <ele>355</ele>
        <time>2016-07-30T09:18:27.029Z</time>
      </trkpt>
      <trkpt lat="43.16039" lon="5.97842">
        <ele>356</ele>
        <time>2016-07-30T09:18:28.029Z</time>
      </trkpt>
      <trkpt lat="43.1604" lon="5.97844">
        <ele>356</ele>
        <time>2016-07-30T09:18:29.029Z</time>
      </trkpt>
      <trkpt lat="43.1604" lon="5.97846">
        <ele>356</ele>
        <time>2016-07-30T09:18:30.029Z</time>
      </trkpt>
      <trkpt lat="43.16041" lon="5.97849">
        <ele>356</ele>
        <time>2016-07-30T09:18:31.029Z</time>
      </trkpt>
      <trkpt lat="43.16041" lon="5.97851">
        <ele>356</ele>
        <time>2016-07-30T09:18:32.029Z</time>
      </trkpt>
      <trkpt lat="43.16041" lon="5.97854">
        <ele>356</ele>
        <time>2016-07-30T09:18:33.029Z</time>
      </trkpt>
      <trkpt lat="43.16041" lon="5.97857">
        <ele>356</ele>
        <time>2016-07-30T09:18:34.029Z</time>
      </trkpt>
      <trkpt lat="43.16041" lon="5.97859">
        <ele>357</ele>
        <time>2016-07-30T09:18:35.029Z</time>
      </trkpt>
      <trkpt lat="43.16042" lon="5.97862">
        <ele>357</ele>
        <time>2016-07-30T09:18:36.029Z</time>
      </trkpt>
      <trkpt lat="43.16042" lon="5.97864">
        <ele>357</ele>
        <time>2016-07-30T09:18:37.029Z</time>
      </trkpt>
      <trkpt lat="43.16042" lon="5.97867">
        <ele>357</ele>
        <time>2016-07-30T09:18:38.029Z</time>
      </trkpt>
      <trkpt lat="43.16042" lon="5.97869">
        <ele>357</ele>
        <time>2016-07-30T09:18:39.029Z</time>
      </trkpt>
      <trkpt lat="43.16042" lon="5.97871">
        <ele>357</ele>
        <time>2016-07-30T09:18:40.029Z</time>
      </trkpt>
      <trkpt lat="43.16042" lon="5.97874">
        <ele>357</ele>
        <time>2016-07-30T09:18:41.029Z</time>
      </trkpt>
      <trkpt lat="43.16042" lon="5.97876">
        <ele>357</ele>
        <time>2016-07-30T09:18:42.029Z</time>
      </trkpt>
      <trkpt lat="43.16042" lon="5.97879">
        <ele>358</ele>
        <time>2016-07-30T09:18:43.029Z</time>
      </trkpt>
      <trkpt lat="43.16042" lon="5.97881">
        <ele>358</ele>
        <time>2016-07-30T09:18:44.029Z</time>
      </trkpt>
      <trkpt lat="43.16042" lon="5.97884">
        <ele>358</ele>
        <time>2016-07-30T09:18:45.029Z</time>
      </trkpt>
      <trkpt lat="43.16041" lon="5.97886">
        <ele>358</ele>
        <time>2016-07-30T09:18:46.029Z</time>
      </trkpt>
      <trkpt lat="43.16041" lon="5.97889">
        <ele>358</ele>
        <time>2016-07-30T09:18:47.029Z</time>
      </trkpt>
      <trkpt lat="43.16041" lon="5.97891">
        <ele>359</ele>
        <time>2016-07-30T09:18:48.029Z</time>
      </trkpt>
      <trkpt lat="43.16041" lon="5.97894">
        <ele>359</ele>
        <time>2016-07-30T09:18:49.029Z</time>
      </trkpt>
      <trkpt lat="43.1604" lon="5.97896">
        <ele>359</ele>
        <time>2016-07-30T09:18:50.029Z</time>
      </trkpt>
      <trkpt lat="43.1604" lon="5.97898">
        <ele>359</ele>
        <time>2016-07-30T09:18:51.029Z</time>
      </trkpt>
      <trkpt lat="43.1604" lon="5.97901">
        <ele>359</ele>
        <time>2016-07-30T09:18:52.029Z</time>
      </trkpt>
      <trkpt lat="43.1604" lon="5.97903">
        <ele>359</ele>
        <time>2016-07-30T09:18:53.029Z</time>
      </trkpt>
      <trkpt lat="43.1604" lon="5.97906">
        <ele>359</ele>
        <time>2016-07-30T09:18:54.029Z</time>
      </trkpt>
      <trkpt lat="43.16039" lon="5.97908">
        <ele>360</ele>
        <time>2016-07-30T09:18:55.029Z</time>
      </trkpt>
      <trkpt lat="43.16039" lon="5.9791">
        <ele>360</ele>
        <time>2016-07-30T09:18:56.029Z</time>
      </trkpt>
      <trkpt lat="43.16039" lon="5.97913">
        <ele>360</ele>
        <time>2016-07-30T09:18:57.029Z</time>
      </trkpt>
      <trkpt lat="43.16039" lon="5.97915">
        <ele>360</ele>
        <time>2016-07-30T09:18:58.029Z</time>
      </trkpt>
      <trkpt lat="43.16039" lon="5.97917">
        <ele>361</ele>
        <time>2016-07-30T09:18:59.029Z</time>
      </trkpt>
      <trkpt lat="43.16039" lon="5.9792">
        <ele>361</ele>
        <time>2016-07-30T09:19:00.029Z</time>
      </trkpt>
      <trkpt lat="43.16038" lon="5.97922">
        <ele>361</ele>
        <time>2016-07-30T09:19:01.029Z</time>
      </trkpt>
      <trkpt lat="43.16038" lon="5.97925">
        <ele>361</ele>
        <time>2016-07-30T09:19:02.029Z</time>
      </trkpt>
      <trkpt lat="43.16037" lon="5.97927">
        <ele>361</ele>
        <time>2016-07-30T09:19:03.029Z</time>
      </trkpt>
      <trkpt lat="43.16037" lon="5.97929">
        <ele>361</ele>
        <time>2016-07-30T09:19:04.029Z</time>
      </trkpt>
      <trkpt lat="43.16037" lon="5.97932">
        <ele>361</ele>
        <time>2016-07-30T09:19:05.029Z</time>
      </trkpt>
      <trkpt lat="43.16036" lon="5.97934">
        <ele>362</ele>
        <time>2016-07-30T09:19:06.029Z</time>
      </trkpt>
      <trkpt lat="43.16036" lon="5.97936">
        <ele>362</ele>
        <time>2016-07-30T09:19:07.029Z</time>
      </trkpt>
      <trkpt lat="43.16035" lon="5.97938">
        <ele>362</ele>
        <time>2016-07-30T09:19:08.029Z</time>
      </trkpt>
      <trkpt lat="43.16035" lon="5.97941">
        <ele>362</ele>
        <time>2016-07-30T09:19:09.029Z</time>
      </trkpt>
      <trkpt lat="43.16034" lon="5.97943">
        <ele>362</ele>
        <time>2016-07-30T09:19:10.029Z</time>
      </trkpt>
      <trkpt lat="43.16033" lon="5.97945">
        <ele>363</ele>
        <time>2016-07-30T09:19:11.029Z</time>
      </trkpt>
      <trkpt lat="43.16033" lon="5.97947">
        <ele>363</ele>
        <time>2016-07-30T09:19:12.029Z</time>
      </trkpt>
      <trkpt lat="43.16032" lon="5.97949">
        <ele>363</ele>
        <time>2016-07-30T09:19:13.029Z</time>
      </trkpt>
      <trkpt lat="43.16031" lon="5.97952">
        <ele>363</ele>
        <time>2016-07-30T09:19:14.029Z</time>
      </trkpt>
      <trkpt lat="43.16031" lon="5.97954">
        <ele>363</ele>
        <time>2016-07-30T09:19:15.029Z</time>
      </trkpt>
      <trkpt lat="43.1603" lon="5.97956">
        <ele>364</ele>
        <time>2016-07-30T09:19:16.029Z</time>
      </trkpt>
      <trkpt lat="43.16029" lon="5.97959">
        <ele>364</ele>
        <time>2016-07-30T09:19:17.029Z</time>
      </trkpt>
      <trkpt lat="43.16028" lon="5.97961">
        <ele>364</ele>
        <time>2016-07-30T09:19:18.029Z</time>
      </trkpt>
      <trkpt lat="43.16027" lon="5.97963">
        <ele>364</ele>
        <time>2016-07-30T09:19:19.029Z</time>
      </trkpt>
      <trkpt lat="43.16026" lon="5.97965">
        <ele>364</ele>
        <time>2016-07-30T09:19:20.029Z</time>
      </trkpt>
      <trkpt lat="43.16025" lon="5.97967">
        <ele>365</ele>
        <time>2016-07-30T09:19:21.029Z</time>
      </trkpt>
      <trkpt lat="43.16025" lon="5.97969">
        <ele>365</ele>
        <time>2016-07-30T09:19:22.029Z</time>
      </trkpt>
      <trkpt lat="43.16024" lon="5.97972">
        <ele>365</ele>
        <time>2016-07-30T09:19:23.029Z</time>
      </trkpt>
      <trkpt lat="43.16023" lon="5.97974">
        <ele>366</ele>
        <time>2016-07-30T09:19:24.029Z</time>
      </trkpt>
      <trkpt lat="43.16022" lon="5.97976">
        <ele>366</ele>
        <time>2016-07-30T09:19:25.029Z</time>
      </trkpt>
      <trkpt lat="43.16021" lon="5.97979">
        <ele>366</ele>
        <time>2016-07-30T09:19:26.029Z</time>
      </trkpt>
      <trkpt lat="43.1602" lon="5.97981">
        <ele>366</ele>
        <time>2016-07-30T09:19:27.029Z</time>
      </trkpt>
      <trkpt lat="43.16019" lon="5.97983">
        <ele>366</ele>
        <time>2016-07-30T09:19:28.029Z</time>
      </trkpt>
      <trkpt lat="43.16018" lon="5.97985">
        <ele>367</ele>
        <time>2016-07-30T09:19:29.029Z</time>
      </trkpt>
      <trkpt lat="43.16017" lon="5.97987">
        <ele>367</ele>
        <time>2016-07-30T09:19:30.029Z</time>
      </trkpt>
      <trkpt lat="43.16016" lon="5.9799">
        <ele>367</ele>
        <time>2016-07-30T09:19:31.029Z</time>
      </trkpt>
      <trkpt lat="43.16015" lon="5.97992">
        <ele>367</ele>
        <time>2016-07-30T09:19:32.029Z</time>
      </trkpt>
      <trkpt lat="43.16014" lon="5.97995">
        <ele>368</ele>
        <time>2016-07-30T09:19:33.029Z</time>
      </trkpt>
      <trkpt lat="43.16013" lon="5.97997">
        <ele>368</ele>
        <time>2016-07-30T09:19:34.029Z</time>
      </trkpt>
      <trkpt lat="43.16012" lon="5.98">
        <ele>368</ele>
        <time>2016-07-30T09:19:35.029Z</time>
      </trkpt>
      <trkpt lat="43.1601" lon="5.98002">
        <ele>368</ele>
        <time>2016-07-30T09:19:36.029Z</time>
      </trkpt>
      <trkpt lat="43.16009" lon="5.98005">
        <ele>368</ele>
        <time>2016-07-30T09:19:37.029Z</time>
      </trkpt>
      <trkpt lat="43.16008" lon="5.98007">
        <ele>369</ele>
        <time>2016-07-30T09:19:38.029Z</time>
      </trkpt>
      <trkpt lat="43.16007" lon="5.9801">
        <ele>369</ele>
        <time>2016-07-30T09:19:39.029Z</time>
      </trkpt>
      <trkpt lat="43.16006" lon="5.98012">
        <ele>369</ele>
        <time>2016-07-30T09:19:40.029Z</time>
      </trkpt>
      <trkpt lat="43.16005" lon="5.98015">
        <ele>369</ele>
        <time>2016-07-30T09:19:41.029Z</time>
      </trkpt>
      <trkpt lat="43.16004" lon="5.98017">
        <ele>369</ele>
        <time>2016-07-30T09:19:42.029Z</time>
      </trkpt>
      <trkpt lat="43.16003" lon="5.9802">
        <ele>370</ele>
        <time>2016-07-30T09:19:43.029Z</time>
      </trkpt>
      <trkpt lat="43.16002" lon="5.98022">
        <ele>370</ele>
        <time>2016-07-30T09:19:44.029Z</time>
      </trkpt>
      <trkpt lat="43.16002" lon="5.98025">
        <ele>370</ele>
        <time>2016-07-30T09:19:45.029Z</time>
      </trkpt>
      <trkpt lat="43.16001" lon="5.98028">
        <ele>370</ele>
        <time>2016-07-30T09:19:46.029Z</time>
      </trkpt>
      <trkpt lat="43.16" lon="5.9803">
        <ele>370</ele>
        <time>2016-07-30T09:19:47.029Z</time>
      </trkpt>
      <trkpt lat="43.16" lon="5.98033">
        <ele>370</ele>
        <time>2016-07-30T09:19:48.029Z</time>
      </trkpt>
      <trkpt lat="43.15999" lon="5.98036">
        <ele>371</ele>
        <time>2016-07-30T09:19:49.029Z</time>
      </trkpt>
      <trkpt lat="43.15998" lon="5.98038">
        <ele>371</ele>
        <time>2016-07-30T09:19:50.029Z</time>
      </trkpt>
      <trkpt lat="43.15997" lon="5.98041">
        <ele>371</ele>
        <time>2016-07-30T09:19:51.029Z</time>
      </trkpt>
      <trkpt lat="43.15996" lon="5.98044">
        <ele>372</ele>
        <time>2016-07-30T09:19:52.029Z</time>
      </trkpt>
      <trkpt lat="43.15995" lon="5.98046">
        <ele>372</ele>
        <time>2016-07-30T09:19:53.029Z</time>
      </trkpt>
      <trkpt lat="43.15994" lon="5.98049">
        <ele>372</ele>
        <time>2016-07-30T09:19:54.029Z</time>
      </trkpt>
      <trkpt lat="43.15993" lon="5.98052">
        <ele>372</ele>
        <time>2016-07-30T09:19:55.029Z</time>
      </trkpt>
      <trkpt lat="43.15992" lon="5.98054">
        <ele>372</ele>
        <time>2016-07-30T09:19:56.029Z</time>
      </trkpt>
      <trkpt lat="43.15991" lon="5.98057">
        <ele>373</ele>
        <time>2016-07-30T09:19:57.029Z</time>
      </trkpt>
      <trkpt lat="43.15991" lon="5.9806">
        <ele>373</ele>
        <time>2016-07-30T09:19:58.029Z</time>
      </trkpt>
      <trkpt lat="43.1599" lon="5.98062">
        <ele>373</ele>
        <time>2016-07-30T09:19:59.029Z</time>
      </trkpt>
      <trkpt lat="43.15989" lon="5.98065">
        <ele>374</ele>
        <time>2016-07-30T09:20:00.029Z</time>
      </trkpt>
      <trkpt lat="43.15988" lon="5.98068">
        <ele>374</ele>
        <time>2016-07-30T09:20:01.029Z</time>
      </trkpt>
      <trkpt lat="43.15988" lon="5.98071">
        <ele>374</ele>
        <time>2016-07-30T09:20:02.029Z</time>
      </trkpt>
      <trkpt lat="43.15987" lon="5.98073">
        <ele>374</ele>
        <time>2016-07-30T09:20:03.029Z</time>
      </trkpt>
      <trkpt lat="43.15986" lon="5.98076">
        <ele>374</ele>
        <time>2016-07-30T09:20:04.029Z</time>
      </trkpt>
      <trkpt lat="43.15985" lon="5.98079">
        <ele>374</ele>
        <time>2016-07-30T09:20:05.029Z</time>
      </trkpt>
      <trkpt lat="43.15984" lon="5.98082">
        <ele>374</ele>
        <time>2016-07-30T09:20:06.029Z</time>
      </trkpt>
      <trkpt lat="43.15983" lon="5.98085">
        <ele>374</ele>
        <time>2016-07-30T09:20:07.029Z</time>
      </trkpt>
      <trkpt lat="43.15983" lon="5.98088">
        <ele>375</ele>
        <time>2016-07-30T09:20:08.029Z</time>
      </trkpt>
      <trkpt lat="43.15982" lon="5.98091">
        <ele>375</ele>
        <time>2016-07-30T09:20:09.029Z</time>
      </trkpt>
      <trkpt lat="43.15982" lon="5.98093">
        <ele>375</ele>
        <time>2016-07-30T09:20:10.029Z</time>
      </trkpt>
      <trkpt lat="43.15981" lon="5.98096">
        <ele>375</ele>
        <time>2016-07-30T09:20:11.029Z</time>
      </trkpt>
      <trkpt lat="43.15981" lon="5.98099">
        <ele>376</ele>
        <time>2016-07-30T09:20:12.029Z</time>
      </trkpt>
      <trkpt lat="43.15981" lon="5.98102">
        <ele>376</ele>
        <time>2016-07-30T09:20:13.029Z</time>
      </trkpt>
      <trkpt lat="43.15981" lon="5.98105">
        <ele>377</ele>
        <time>2016-07-30T09:20:14.029Z</time>
      </trkpt>
      <trkpt lat="43.15981" lon="5.98107">
        <ele>377</ele>
        <time>2016-07-30T09:20:15.029Z</time>
      </trkpt>
      <trkpt lat="43.15981" lon="5.9811">
        <ele>377</ele>
        <time>2016-07-30T09:20:16.029Z</time>
      </trkpt>
      <trkpt lat="43.15981" lon="5.98113">
        <ele>377</ele>
        <time>2016-07-30T09:20:17.029Z</time>
      </trkpt>
      <trkpt lat="43.15981" lon="5.98116">
        <ele>378</ele>
        <time>2016-07-30T09:20:18.029Z</time>
      </trkpt>
      <trkpt lat="43.15981" lon="5.98119">
        <ele>378</ele>
        <time>2016-07-30T09:20:19.029Z</time>
      </trkpt>
      <trkpt lat="43.15981" lon="5.98122">
        <ele>378</ele>
        <time>2016-07-30T09:20:20.029Z</time>
      </trkpt>
      <trkpt lat="43.15981" lon="5.98125">
        <ele>379</ele>
        <time>2016-07-30T09:20:21.029Z</time>
      </trkpt>
      <trkpt lat="43.15981" lon="5.98128">
        <ele>379</ele>
        <time>2016-07-30T09:20:22.029Z</time>
      </trkpt>
      <trkpt lat="43.15982" lon="5.98131">
        <ele>379</ele>
        <time>2016-07-30T09:20:23.029Z</time>
      </trkpt>
      <trkpt lat="43.15982" lon="5.98134">
        <ele>380</ele>
        <time>2016-07-30T09:20:24.029Z</time>
      </trkpt>
      <trkpt lat="43.15982" lon="5.98137">
        <ele>380</ele>
        <time>2016-07-30T09:20:25.029Z</time>
      </trkpt>
      <trkpt lat="43.15982" lon="5.9814">
        <ele>380</ele>
        <time>2016-07-30T09:20:26.029Z</time>
      </trkpt>
      <trkpt lat="43.15983" lon="5.98143">
        <ele>380</ele>
        <time>2016-07-30T09:20:27.029Z</time>
      </trkpt>
      <trkpt lat="43.15983" lon="5.98145">
        <ele>381</ele>
        <time>2016-07-30T09:20:28.029Z</time>
      </trkpt>
      <trkpt lat="43.15983" lon="5.98148">
        <ele>381</ele>
        <time>2016-07-30T09:20:29.029Z</time>
      </trkpt>
      <trkpt lat="43.15983" lon="5.98151">
        <ele>381</ele>
        <time>2016-07-30T09:20:30.029Z</time>
      </trkpt>
      <trkpt lat="43.15984" lon="5.98154">
        <ele>381</ele>
        <time>2016-07-30T09:20:31.029Z</time>
      </trkpt>
      <trkpt lat="43.15984" lon="5.98156">
        <ele>382</ele>
        <time>2016-07-30T09:20:32.029Z</time>
      </trkpt>
      <trkpt lat="43.15985" lon="5.98159">
        <ele>382</ele>
        <time>2016-07-30T09:20:33.029Z</time>
      </trkpt>
      <trkpt lat="43.15985" lon="5.98162">
        <ele>382</ele>
        <time>2016-07-30T09:20:34.029Z</time>
      </trkpt>
      <trkpt lat="43.15985" lon="5.98165">
        <ele>382</ele>
        <time>2016-07-30T09:20:35.029Z</time>
      </trkpt>
      <trkpt lat="43.15985" lon="5.98168">
        <ele>383</ele>
        <time>2016-07-30T09:20:36.029Z</time>
      </trkpt>
      <trkpt lat="43.15985" lon="5.98171">
        <ele>383</ele>
        <time>2016-07-30T09:20:37.029Z</time>
      </trkpt>
      <trkpt lat="43.15986" lon="5.98173">
        <ele>383</ele>
        <time>2016-07-30T09:20:38.029Z</time>
      </trkpt>
      <trkpt lat="43.15986" lon="5.98176">
        <ele>383</ele>
        <time>2016-07-30T09:20:39.029Z</time>
      </trkpt>
      <trkpt lat="43.15986" lon="5.98179">
        <ele>384</ele>
        <time>2016-07-30T09:20:40.029Z</time>
      </trkpt>
      <trkpt lat="43.15986" lon="5.98182">
        <ele>384</ele>
        <time>2016-07-30T09:20:41.029Z</time>
      </trkpt>
      <trkpt lat="43.15987" lon="5.98184">
        <ele>384</ele>
        <time>2016-07-30T09:20:42.029Z</time>
      </trkpt>
      <trkpt lat="43.15987" lon="5.98187">
        <ele>384</ele>
        <time>2016-07-30T09:20:43.029Z</time>
      </trkpt>
      <trkpt lat="43.15987" lon="5.9819">
        <ele>385</ele>
        <time>2016-07-30T09:20:44.029Z</time>
      </trkpt>
      <trkpt lat="43.15987" lon="5.98193">
        <ele>385</ele>
        <time>2016-07-30T09:20:45.029Z</time>
      </trkpt>
      <trkpt lat="43.15988" lon="5.98195">
        <ele>385</ele>
        <time>2016-07-30T09:20:46.029Z</time>
      </trkpt>
      <trkpt lat="43.15988" lon="5.98198">
        <ele>386</ele>
        <time>2016-07-30T09:20:47.029Z</time>
      </trkpt>
      <trkpt lat="43.15989" lon="5.98201">
        <ele>386</ele>
        <time>2016-07-30T09:20:48.029Z</time>
      </trkpt>
      <trkpt lat="43.15989" lon="5.98204">
        <ele>386</ele>
        <time>2016-07-30T09:20:49.029Z</time>
      </trkpt>
      <trkpt lat="43.1599" lon="5.98206">
        <ele>387</ele>
        <time>2016-07-30T09:20:50.029Z</time>
      </trkpt>
      <trkpt lat="43.15991" lon="5.98209">
        <ele>387</ele>
        <time>2016-07-30T09:20:51.029Z</time>
      </trkpt>
      <trkpt lat="43.15992" lon="5.98212">
        <ele>387</ele>
        <time>2016-07-30T09:20:52.029Z</time>
      </trkpt>
      <trkpt lat="43.15993" lon="5.98214">
        <ele>388</ele>
        <time>2016-07-30T09:20:53.029Z</time>
      </trkpt>
      <trkpt lat="43.15994" lon="5.98216">
        <ele>388</ele>
        <time>2016-07-30T09:20:54.029Z</time>
      </trkpt>
      <trkpt lat="43.15995" lon="5.98219">
        <ele>388</ele>
        <time>2016-07-30T09:20:55.029Z</time>
      </trkpt>
      <trkpt lat="43.15996" lon="5.98221">
        <ele>389</ele>
        <time>2016-07-30T09:20:56.029Z</time>
      </trkpt>
      <trkpt lat="43.15996" lon="5.98224">
        <ele>389</ele>
        <time>2016-07-30T09:20:57.029Z</time>
      </trkpt>
      <trkpt lat="43.15997" lon="5.98226">
        <ele>389</ele>
        <time>2016-07-30T09:20:58.029Z</time>
      </trkpt>
      <trkpt lat="43.15998" lon="5.98229">
        <ele>389</ele>
        <time>2016-07-30T09:20:59.029Z</time>
      </trkpt>
      <trkpt lat="43.15999" lon="5.98231">
        <ele>390</ele>
        <time>2016-07-30T09:21:00.029Z</time>
      </trkpt>
      <trkpt lat="43.16" lon="5.98234">
        <ele>390</ele>
        <time>2016-07-30T09:21:01.029Z</time>
      </trkpt>
      <trkpt lat="43.16" lon="5.98237">
        <ele>391</ele>
        <time>2016-07-30T09:21:02.029Z</time>
      </trkpt>
      <trkpt lat="43.16001" lon="5.98239">
        <ele>391</ele>
        <time>2016-07-30T09:21:03.029Z</time>
      </trkpt>
      <trkpt lat="43.16002" lon="5.98242">
        <ele>391</ele>
        <time>2016-07-30T09:21:04.029Z</time>
      </trkpt>
      <trkpt lat="43.16002" lon="5.98244">
        <ele>391</ele>
        <time>2016-07-30T09:21:05.029Z</time>
      </trkpt>
      <trkpt lat="43.16003" lon="5.98247">
        <ele>392</ele>
        <time>2016-07-30T09:21:06.029Z</time>
      </trkpt>
      <trkpt lat="43.16003" lon="5.98249">
        <ele>392</ele>
        <time>2016-07-30T09:21:07.029Z</time>
      </trkpt>
      <trkpt lat="43.16004" lon="5.98252">
        <ele>392</ele>
        <time>2016-07-30T09:21:08.029Z</time>
      </trkpt>
      <trkpt lat="43.16004" lon="5.98254">
        <ele>393</ele>
        <time>2016-07-30T09:21:09.029Z</time>
      </trkpt>
      <trkpt lat="43.16005" lon="5.98257">
        <ele>393</ele>
        <time>2016-07-30T09:21:10.029Z</time>
      </trkpt>
      <trkpt lat="43.16005" lon="5.9826">
        <ele>393</ele>
        <time>2016-07-30T09:21:11.029Z</time>
      </trkpt>
      <trkpt lat="43.16005" lon="5.98262">
        <ele>393</ele>
        <time>2016-07-30T09:21:12.029Z</time>
      </trkpt>
      <trkpt lat="43.16005" lon="5.98265">
        <ele>393</ele>
        <time>2016-07-30T09:21:13.029Z</time>
      </trkpt>
      <trkpt lat="43.16006" lon="5.98268">
        <ele>394</ele>
        <time>2016-07-30T09:21:14.029Z</time>
      </trkpt>
      <trkpt lat="43.16006" lon="5.98271">
        <ele>394</ele>
        <time>2016-07-30T09:21:15.029Z</time>
      </trkpt>
      <trkpt lat="43.16006" lon="5.98273">
        <ele>394</ele>
        <time>2016-07-30T09:21:16.029Z</time>
      </trkpt>
      <trkpt lat="43.16006" lon="5.98276">
        <ele>394</ele>
        <time>2016-07-30T09:21:17.029Z</time>
      </trkpt>
      <trkpt lat="43.16006" lon="5.98278">
        <ele>394</ele>
        <time>2016-07-30T09:21:18.029Z</time>
      </trkpt>
      <trkpt lat="43.16006" lon="5.98281">
        <ele>395</ele>
        <time>2016-07-30T09:21:19.029Z</time>
      </trkpt>
      <trkpt lat="43.16005" lon="5.98283">
        <ele>395</ele>
        <time>2016-07-30T09:21:20.029Z</time>
      </trkpt>
      <trkpt lat="43.16005" lon="5.98286">
        <ele>395</ele>
        <time>2016-07-30T09:21:21.029Z</time>
      </trkpt>
      <trkpt lat="43.16005" lon="5.98288">
        <ele>396</ele>
        <time>2016-07-30T09:21:22.029Z</time>
      </trkpt>
      <trkpt lat="43.16005" lon="5.98291">
        <ele>396</ele>
        <time>2016-07-30T09:21:23.029Z</time>
      </trkpt>
      <trkpt lat="43.16005" lon="5.98293">
        <ele>396</ele>
        <time>2016-07-30T09:21:24.029Z</time>
      </trkpt>
      <trkpt lat="43.16004" lon="5.98296">
        <ele>396</ele>
        <time>2016-07-30T09:21:25.029Z</time>
      </trkpt>
      <trkpt lat="43.16004" lon="5.98298">
        <ele>397</ele>
        <time>2016-07-30T09:21:26.029Z</time>
      </trkpt>
      <trkpt lat="43.16004" lon="5.98301">
        <ele>397</ele>
        <time>2016-07-30T09:21:27.029Z</time>
      </trkpt>
      <trkpt lat="43.16003" lon="5.98303">
        <ele>397</ele>
        <time>2016-07-30T09:21:28.029Z</time>
      </trkpt>
      <trkpt lat="43.16003" lon="5.98306">
        <ele>397</ele>
        <time>2016-07-30T09:21:29.029Z</time>
      </trkpt>
      <trkpt lat="43.16003" lon="5.98309">
        <ele>397</ele>
        <time>2016-07-30T09:21:30.029Z</time>
      </trkpt>
      <trkpt lat="43.16003" lon="5.98311">
        <ele>397</ele>
        <time>2016-07-30T09:21:31.029Z</time>
      </trkpt>
      <trkpt lat="43.16002" lon="5.98314">
        <ele>397</ele>
        <time>2016-07-30T09:21:32.029Z</time>
      </trkpt>
      <trkpt lat="43.16002" lon="5.98316">
        <ele>397</ele>
        <time>2016-07-30T09:21:33.029Z</time>
      </trkpt>
      <trkpt lat="43.16002" lon="5.98318">
        <ele>398</ele>
        <time>2016-07-30T09:21:34.029Z</time>
      </trkpt>
      <trkpt lat="43.16001" lon="5.98321">
        <ele>398</ele>
        <time>2016-07-30T09:21:35.029Z</time>
      </trkpt>
      <trkpt lat="43.16001" lon="5.98323">
        <ele>398</ele>
        <time>2016-07-30T09:21:36.029Z</time>
      </trkpt>
      <trkpt lat="43.16001" lon="5.98326">
        <ele>398</ele>
        <time>2016-07-30T09:21:37.029Z</time>
      </trkpt>
      <trkpt lat="43.16" lon="5.98329">
        <ele>398</ele>
        <time>2016-07-30T09:21:38.029Z</time>
      </trkpt>
      <trkpt lat="43.16" lon="5.98331">
        <ele>398</ele>
        <time>2016-07-30T09:21:39.029Z</time>
      </trkpt>
      <trkpt lat="43.15999" lon="5.98334">
        <ele>398</ele>
        <time>2016-07-30T09:21:40.029Z</time>
      </trkpt>
      <trkpt lat="43.15999" lon="5.98336">
        <ele>398</ele>
        <time>2016-07-30T09:21:41.029Z</time>
      </trkpt>
      <trkpt lat="43.15999" lon="5.98339">
        <ele>399</ele>
        <time>2016-07-30T09:21:42.029Z</time>
      </trkpt>
      <trkpt lat="43.15998" lon="5.98341">
        <ele>399</ele>
        <time>2016-07-30T09:21:43.029Z</time>
      </trkpt>
      <trkpt lat="43.15998" lon="5.98344">
        <ele>399</ele>
        <time>2016-07-30T09:21:44.029Z</time>
      </trkpt>
      <trkpt lat="43.15997" lon="5.98346">
        <ele>399</ele>
        <time>2016-07-30T09:21:45.029Z</time>
      </trkpt>
      <trkpt lat="43.15997" lon="5.98349">
        <ele>400</ele>
        <time>2016-07-30T09:21:46.029Z</time>
      </trkpt>
      <trkpt lat="43.15997" lon="5.98351">
        <ele>400</ele>
        <time>2016-07-30T09:21:47.029Z</time>
      </trkpt>
      <trkpt lat="43.15996" lon="5.98354">
        <ele>400</ele>
        <time>2016-07-30T09:21:48.029Z</time>
      </trkpt>
      <trkpt lat="43.15996" lon="5.98357">
        <ele>400</ele>
        <time>2016-07-30T09:21:49.029Z</time>
      </trkpt>
      <trkpt lat="43.15996" lon="5.98359">
        <ele>401</ele>
        <time>2016-07-30T09:21:50.029Z</time>
      </trkpt>
      <trkpt lat="43.15996" lon="5.98362">
        <ele>401</ele>
        <time>2016-07-30T09:21:51.029Z</time>
      </trkpt>
      <trkpt lat="43.15995" lon="5.98365">
        <ele>401</ele>
        <time>2016-07-30T09:21:52.029Z</time>
      </trkpt>
      <trkpt lat="43.15995" lon="5.98367">
        <ele>401</ele>
        <time>2016-07-30T09:21:53.029Z</time>
      </trkpt>
      <trkpt lat="43.15995" lon="5.9837">
        <ele>402</ele>
        <time>2016-07-30T09:21:54.029Z</time>
      </trkpt>
      <trkpt lat="43.15994" lon="5.98373">
        <ele>402</ele>
        <time>2016-07-30T09:21:55.029Z</time>
      </trkpt>
      <trkpt lat="43.15994" lon="5.98376">
        <ele>402</ele>
        <time>2016-07-30T09:21:56.029Z</time>
      </trkpt>
      <trkpt lat="43.15994" lon="5.98378">
        <ele>402</ele>
        <time>2016-07-30T09:21:57.029Z</time>
      </trkpt>
      <trkpt lat="43.15994" lon="5.98381">
        <ele>402</ele>
        <time>2016-07-30T09:21:58.029Z</time>
      </trkpt>
      <trkpt lat="43.15994" lon="5.98384">
        <ele>402</ele>
        <time>2016-07-30T09:21:59.029Z</time>
      </trkpt>
      <trkpt lat="43.15994" lon="5.98387">
        <ele>403</ele>
        <time>2016-07-30T09:22:00.029Z</time>
      </trkpt>
      <trkpt lat="43.15994" lon="5.9839">
        <ele>403</ele>
        <time>2016-07-30T09:22:01.029Z</time>
      </trkpt>
      <trkpt lat="43.15995" lon="5.98392">
        <ele>403</ele>
        <time>2016-07-30T09:22:02.029Z</time>
      </trkpt>
      <trkpt lat="43.15995" lon="5.98395">
        <ele>403</ele>
        <time>2016-07-30T09:22:03.029Z</time>
      </trkpt>
      <trkpt lat="43.15995" lon="5.98398">
        <ele>403</ele>
        <time>2016-07-30T09:22:04.029Z</time>
      </trkpt>
      <trkpt lat="43.15996" lon="5.984">
        <ele>404</ele>
        <time>2016-07-30T09:22:05.029Z</time>
      </trkpt>
      <trkpt lat="43.15996" lon="5.98403">
        <ele>403</ele>
        <time>2016-07-30T09:22:06.029Z</time>
      </trkpt>
      <trkpt lat="43.15997" lon="5.98406">
        <ele>404</ele>
        <time>2016-07-30T09:22:07.029Z</time>
      </trkpt>
      <trkpt lat="43.15997" lon="5.98408">
        <ele>404</ele>
        <time>2016-07-30T09:22:08.029Z</time>
      </trkpt>
      <trkpt lat="43.15998" lon="5.98411">
        <ele>404</ele>
        <time>2016-07-30T09:22:09.029Z</time>
      </trkpt>
      <trkpt lat="43.15998" lon="5.98413">
        <ele>404</ele>
        <time>2016-07-30T09:22:10.029Z</time>
      </trkpt>
      <trkpt lat="43.15999" lon="5.98416">
        <ele>404</ele>
        <time>2016-07-30T09:22:11.029Z</time>
      </trkpt>
      <trkpt lat="43.16" lon="5.98419">
        <ele>404</ele>
        <time>2016-07-30T09:22:12.029Z</time>
      </trkpt>
      <trkpt lat="43.16" lon="5.98421">
        <ele>405</ele>
        <time>2016-07-30T09:22:13.029Z</time>
      </trkpt>
      <trkpt lat="43.16001" lon="5.98424">
        <ele>405</ele>
        <time>2016-07-30T09:22:14.029Z</time>
      </trkpt>
      <trkpt lat="43.16002" lon="5.98427">
        <ele>405</ele>
        <time>2016-07-30T09:22:15.029Z</time>
      </trkpt>
      <trkpt lat="43.16003" lon="5.98429">
        <ele>405</ele>
        <time>2016-07-30T09:22:16.029Z</time>
      </trkpt>
      <trkpt lat="43.16003" lon="5.98432">
        <ele>406</ele>
        <time>2016-07-30T09:22:17.029Z</time>
      </trkpt>
      <trkpt lat="43.16004" lon="5.98434">
        <ele>406</ele>
        <time>2016-07-30T09:22:18.029Z</time>
      </trkpt>
      <trkpt lat="43.16005" lon="5.98437">
        <ele>406</ele>
        <time>2016-07-30T09:22:19.029Z</time>
      </trkpt>
      <trkpt lat="43.16006" lon="5.9844">
        <ele>406</ele>
        <time>2016-07-30T09:22:20.029Z</time>
      </trkpt>
      <trkpt lat="43.16007" lon="5.98442">
        <ele>407</ele>
        <time>2016-07-30T09:22:21.029Z</time>
      </trkpt>
      <trkpt lat="43.16007" lon="5.98445">
        <ele>407</ele>
        <time>2016-07-30T09:22:22.029Z</time>
      </trkpt>
      <trkpt lat="43.16008" lon="5.98448">
        <ele>408</ele>
        <time>2016-07-30T09:22:23.029Z</time>
      </trkpt>
      <trkpt lat="43.16009" lon="5.98451">
        <ele>408</ele>
        <time>2016-07-30T09:22:24.029Z</time>
      </trkpt>
      <trkpt lat="43.1601" lon="5.98453">
        <ele>408</ele>
        <time>2016-07-30T09:22:25.029Z</time>
      </trkpt>
      <trkpt lat="43.16011" lon="5.98456">
        <ele>408</ele>
        <time>2016-07-30T09:22:26.029Z</time>
      </trkpt>
      <trkpt lat="43.16011" lon="5.98459">
        <ele>409</ele>
        <time>2016-07-30T09:22:27.029Z</time>
      </trkpt>
      <trkpt lat="43.16012" lon="5.98462">
        <ele>409</ele>
        <time>2016-07-30T09:22:28.029Z</time>
      </trkpt>
      <trkpt lat="43.16013" lon="5.98465">
        <ele>409</ele>
        <time>2016-07-30T09:22:29.029Z</time>
      </trkpt>
      <trkpt lat="43.16013" lon="5.98467">
        <ele>409</ele>
        <time>2016-07-30T09:22:30.029Z</time>
      </trkpt>
      <trkpt lat="43.16014" lon="5.9847">
        <ele>410</ele>
        <time>2016-07-30T09:22:31.029Z</time>
      </trkpt>
      <trkpt lat="43.16015" lon="5.98473">
        <ele>410</ele>
        <time>2016-07-30T09:22:32.029Z</time>
      </trkpt>
      <trkpt lat="43.16015" lon="5.98476">
        <ele>410</ele>
        <time>2016-07-30T09:22:33.029Z</time>
      </trkpt>
      <trkpt lat="43.16016" lon="5.98479">
        <ele>410</ele>
        <time>2016-07-30T09:22:34.029Z</time>
      </trkpt>
      <trkpt lat="43.16016" lon="5.98482">
        <ele>410</ele>
        <time>2016-07-30T09:22:35.029Z</time>
      </trkpt>
      <trkpt lat="43.16016" lon="5.98486">
        <ele>410</ele>
        <time>2016-07-30T09:22:36.029Z</time>
      </trkpt>
      <trkpt lat="43.16016" lon="5.98489">
        <ele>411</ele>
        <time>2016-07-30T09:22:37.029Z</time>
      </trkpt>
      <trkpt lat="43.16016" lon="5.98493">
        <ele>411</ele>
        <time>2016-07-30T09:22:38.029Z</time>
      </trkpt>
      <trkpt lat="43.16016" lon="5.98496">
        <ele>411</ele>
        <time>2016-07-30T09:22:39.029Z</time>
      </trkpt>
      <trkpt lat="43.16016" lon="5.985">
        <ele>411</ele>
        <time>2016-07-30T09:22:40.029Z</time>
      </trkpt>
      <trkpt lat="43.16016" lon="5.98503">
        <ele>411</ele>
        <time>2016-07-30T09:22:41.029Z</time>
      </trkpt>
      <trkpt lat="43.16015" lon="5.98507">
        <ele>412</ele>
        <time>2016-07-30T09:22:42.029Z</time>
      </trkpt>
      <trkpt lat="43.16014" lon="5.98511">
        <ele>412</ele>
        <time>2016-07-30T09:22:43.029Z</time>
      </trkpt>
      <trkpt lat="43.16014" lon="5.98515">
        <ele>411</ele>
        <time>2016-07-30T09:22:44.029Z</time>
      </trkpt>
      <trkpt lat="43.16012" lon="5.98518">
        <ele>411</ele>
        <time>2016-07-30T09:22:45.029Z</time>
      </trkpt>
      <trkpt lat="43.16011" lon="5.98522">
        <ele>411</ele>
        <time>2016-07-30T09:22:46.029Z</time>
      </trkpt>
      <trkpt lat="43.1601" lon="5.98526">
        <ele>411</ele>
        <time>2016-07-30T09:22:47.029Z</time>
      </trkpt>
      <trkpt lat="43.16009" lon="5.98529">
        <ele>411</ele>
        <time>2016-07-30T09:22:48.029Z</time>
      </trkpt>
      <trkpt lat="43.16008" lon="5.98533">
        <ele>411</ele>
        <time>2016-07-30T09:22:49.029Z</time>
      </trkpt>
      <trkpt lat="43.16007" lon="5.98537">
        <ele>411</ele>
        <time>2016-07-30T09:22:50.029Z</time>
      </trkpt>
      <trkpt lat="43.16005" lon="5.98541">
        <ele>412</ele>
        <time>2016-07-30T09:22:51.029Z</time>
      </trkpt>
      <trkpt lat="43.16004" lon="5.98545">
        <ele>412</ele>
        <time>2016-07-30T09:22:52.029Z</time>
      </trkpt>
      <trkpt lat="43.16003" lon="5.98548">
        <ele>412</ele>
        <time>2016-07-30T09:22:53.029Z</time>
      </trkpt>
      <trkpt lat="43.16002" lon="5.98552">
        <ele>412</ele>
        <time>2016-07-30T09:22:54.029Z</time>
      </trkpt>
      <trkpt lat="43.16001" lon="5.98556">
        <ele>412</ele>
        <time>2016-07-30T09:22:55.029Z</time>
      </trkpt>
      <trkpt lat="43.16" lon="5.98559">
        <ele>412</ele>
        <time>2016-07-30T09:22:56.029Z</time>
      </trkpt>
      <trkpt lat="43.16" lon="5.98563">
        <ele>412</ele>
        <time>2016-07-30T09:22:57.029Z</time>
      </trkpt>
      <trkpt lat="43.16" lon="5.98566">
        <ele>412</ele>
        <time>2016-07-30T09:22:58.029Z</time>
      </trkpt>
      <trkpt lat="43.16001" lon="5.9857">
        <ele>412</ele>
        <time>2016-07-30T09:22:59.029Z</time>
      </trkpt>
      <trkpt lat="43.16003" lon="5.98573">
        <ele>413</ele>
        <time>2016-07-30T09:23:00.029Z</time>
      </trkpt>
      <trkpt lat="43.16005" lon="5.98575">
        <ele>412</ele>
        <time>2016-07-30T09:23:01.029Z</time>
      </trkpt>
      <trkpt lat="43.16008" lon="5.98576">
        <ele>412</ele>
        <time>2016-07-30T09:23:02.029Z</time>
      </trkpt>
      <trkpt lat="43.16011" lon="5.98575">
        <ele>412</ele>
        <time>2016-07-30T09:23:03.029Z</time>
      </trkpt>
      <trkpt lat="43.16014" lon="5.98573">
        <ele>412</ele>
        <time>2016-07-30T09:23:04.029Z</time>
      </trkpt>
      <trkpt lat="43.16016" lon="5.98571">
        <ele>412</ele>
        <time>2016-07-30T09:23:05.029Z</time>
      </trkpt>
      <trkpt lat="43.16017" lon="5.98568">
        <ele>411</ele>
        <time>2016-07-30T09:23:06.029Z</time>
      </trkpt>
      <trkpt lat="43.16019" lon="5.98564">
        <ele>411</ele>
        <time>2016-07-30T09:23:07.029Z</time>
      </trkpt>
      <trkpt lat="43.16019" lon="5.9856">
        <ele>411</ele>
        <time>2016-07-30T09:23:08.029Z</time>
      </trkpt>
      <trkpt lat="43.1602" lon="5.98556">
        <ele>411</ele>
        <time>2016-07-30T09:23:09.029Z</time>
      </trkpt>
      <trkpt lat="43.1602" lon="5.98552">
        <ele>411</ele>
        <time>2016-07-30T09:23:10.029Z</time>
      </trkpt>
      <trkpt lat="43.16021" lon="5.98548">
        <ele>411</ele>
        <time>2016-07-30T09:23:11.029Z</time>
      </trkpt>
      <trkpt lat="43.16022" lon="5.98544">
        <ele>411</ele>
        <time>2016-07-30T09:23:12.029Z</time>
      </trkpt>
      <trkpt lat="43.16022" lon="5.9854">
        <ele>412</ele>
        <time>2016-07-30T09:23:13.029Z</time>
      </trkpt>
      <trkpt lat="43.16023" lon="5.98536">
        <ele>412</ele>
        <time>2016-07-30T09:23:14.029Z</time>
      </trkpt>
      <trkpt lat="43.16023" lon="5.98533">
        <ele>412</ele>
        <time>2016-07-30T09:23:15.029Z</time>
      </trkpt>
      <trkpt lat="43.16024" lon="5.9853">
        <ele>412</ele>
        <time>2016-07-30T09:23:16.029Z</time>
      </trkpt>
      <trkpt lat="43.16025" lon="5.98527">
        <ele>412</ele>
        <time>2016-07-30T09:23:17.029Z</time>
      </trkpt>
      <trkpt lat="43.16026" lon="5.98524">
        <ele>413</ele>
        <time>2016-07-30T09:23:18.029Z</time>
      </trkpt>
      <trkpt lat="43.16027" lon="5.98521">
        <ele>413</ele>
        <time>2016-07-30T09:23:19.029Z</time>
      </trkpt>
      <trkpt lat="43.16028" lon="5.98518">
        <ele>413</ele>
        <time>2016-07-30T09:23:20.029Z</time>
      </trkpt>
      <trkpt lat="43.16029" lon="5.98515">
        <ele>414</ele>
        <time>2016-07-30T09:23:21.029Z</time>
      </trkpt>
      <trkpt lat="43.16029" lon="5.98512">
        <ele>414</ele>
        <time>2016-07-30T09:23:22.029Z</time>
      </trkpt>
      <trkpt lat="43.1603" lon="5.9851">
        <ele>414</ele>
        <time>2016-07-30T09:23:23.029Z</time>
      </trkpt>
      <trkpt lat="43.16031" lon="5.98507">
        <ele>414</ele>
        <time>2016-07-30T09:23:24.029Z</time>
      </trkpt>
      <trkpt lat="43.16032" lon="5.98504">
        <ele>415</ele>
        <time>2016-07-30T09:23:25.029Z</time>
      </trkpt>
      <trkpt lat="43.16033" lon="5.98502">
        <ele>415</ele>
        <time>2016-07-30T09:23:26.029Z</time>
      </trkpt>
      <trkpt lat="43.16034" lon="5.98499">
        <ele>415</ele>
        <time>2016-07-30T09:23:27.029Z</time>
      </trkpt>
      <trkpt lat="43.16035" lon="5.98497">
        <ele>415</ele>
        <time>2016-07-30T09:23:28.029Z</time>
      </trkpt>
      <trkpt lat="43.16036" lon="5.98494">
        <ele>416</ele>
        <time>2016-07-30T09:23:29.029Z</time>
      </trkpt>
      <trkpt lat="43.16036" lon="5.98492">
        <ele>416</ele>
        <time>2016-07-30T09:23:30.029Z</time>
      </trkpt>
      <trkpt lat="43.16037" lon="5.98489">
        <ele>416</ele>
        <time>2016-07-30T09:23:31.029Z</time>
      </trkpt>
      <trkpt lat="43.16038" lon="5.98487">
        <ele>417</ele>
        <time>2016-07-30T09:23:32.029Z</time>
      </trkpt>
      <trkpt lat="43.16039" lon="5.98484">
        <ele>417</ele>
        <time>2016-07-30T09:23:33.029Z</time>
      </trkpt>
      <trkpt lat="43.16039" lon="5.98482">
        <ele>417</ele>
        <time>2016-07-30T09:23:34.029Z</time>
      </trkpt>
      <trkpt lat="43.1604" lon="5.98479">
        <ele>417</ele>
        <time>2016-07-30T09:23:35.029Z</time>
      </trkpt>
      <trkpt lat="43.1604" lon="5.98476">
        <ele>418</ele>
        <time>2016-07-30T09:23:36.029Z</time>
      </trkpt>
      <trkpt lat="43.16041" lon="5.98473">
        <ele>418</ele>
        <time>2016-07-30T09:23:37.029Z</time>
      </trkpt>
      <trkpt lat="43.16041" lon="5.98471">
        <ele>419</ele>
        <time>2016-07-30T09:23:38.029Z</time>
      </trkpt>
      <trkpt lat="43.16042" lon="5.98468">
        <ele>419</ele>
        <time>2016-07-30T09:23:39.029Z</time>
      </trkpt>
      <trkpt lat="43.16043" lon="5.98465">
        <ele>419</ele>
        <time>2016-07-30T09:23:40.029Z</time>
      </trkpt>
      <trkpt lat="43.16043" lon="5.98463">
        <ele>419</ele>
        <time>2016-07-30T09:23:41.029Z</time>
      </trkpt>
      <trkpt lat="43.16044" lon="5.9846">
        <ele>420</ele>
        <time>2016-07-30T09:23:42.029Z</time>
      </trkpt>
      <trkpt lat="43.16045" lon="5.98457">
        <ele>420</ele>
        <time>2016-07-30T09:23:43.029Z</time>
      </trkpt>
      <trkpt lat="43.16046" lon="5.98454">
        <ele>421</ele>
        <time>2016-07-30T09:23:44.029Z</time>
      </trkpt>
      <trkpt lat="43.16046" lon="5.98452">
        <ele>421</ele>
        <time>2016-07-30T09:23:45.029Z</time>
      </trkpt>
      <trkpt lat="43.16047" lon="5.98449">
        <ele>422</ele>
        <time>2016-07-30T09:23:46.029Z</time>
      </trkpt>
      <trkpt lat="43.16048" lon="5.98446">
        <ele>422</ele>
        <time>2016-07-30T09:23:47.029Z</time>
      </trkpt>
      <trkpt lat="43.16049" lon="5.98444">
        <ele>422</ele>
        <time>2016-07-30T09:23:48.029Z</time>
      </trkpt>
      <trkpt lat="43.1605" lon="5.98441">
        <ele>423</ele>
        <time>2016-07-30T09:23:49.029Z</time>
      </trkpt>
      <trkpt lat="43.1605" lon="5.98439">
        <ele>423</ele>
        <time>2016-07-30T09:23:50.029Z</time>
      </trkpt>
      <trkpt lat="43.16051" lon="5.98436">
        <ele>423</ele>
        <time>2016-07-30T09:23:51.029Z</time>
      </trkpt>
      <trkpt lat="43.16052" lon="5.98434">
        <ele>423</ele>
        <time>2016-07-30T09:23:52.029Z</time>
      </trkpt>
      <trkpt lat="43.16053" lon="5.98432">
        <ele>424</ele>
        <time>2016-07-30T09:23:53.029Z</time>
      </trkpt>
      <trkpt lat="43.16054" lon="5.98429">
        <ele>424</ele>
        <time>2016-07-30T09:23:54.029Z</time>
      </trkpt>
      <trkpt lat="43.16055" lon="5.98427">
        <ele>424</ele>
        <time>2016-07-30T09:23:55.029Z</time>
      </trkpt>
      <trkpt lat="43.16056" lon="5.98425">
        <ele>424</ele>
        <time>2016-07-30T09:23:56.029Z</time>
      </trkpt>
      <trkpt lat="43.16057" lon="5.98423">
        <ele>425</ele>
        <time>2016-07-30T09:23:57.029Z</time>
      </trkpt>
      <trkpt lat="43.16058" lon="5.9842">
        <ele>425</ele>
        <time>2016-07-30T09:23:58.029Z</time>
      </trkpt>
      <trkpt lat="43.16058" lon="5.98418">
        <ele>425</ele>
        <time>2016-07-30T09:23:59.029Z</time>
      </trkpt>
      <trkpt lat="43.16059" lon="5.98416">
        <ele>425</ele>
        <time>2016-07-30T09:24:00.029Z</time>
      </trkpt>
      <trkpt lat="43.1606" lon="5.98414">
        <ele>426</ele>
        <time>2016-07-30T09:24:01.029Z</time>
      </trkpt>
      <trkpt lat="43.16061" lon="5.98412">
        <ele>426</ele>
        <time>2016-07-30T09:24:02.029Z</time>
      </trkpt>
      <trkpt lat="43.16061" lon="5.9841">
        <ele>426</ele>
        <time>2016-07-30T09:24:03.029Z</time>
      </trkpt>
      <trkpt lat="43.16062" lon="5.98407">
        <ele>426</ele>
        <time>2016-07-30T09:24:04.029Z</time>
      </trkpt>
      <trkpt lat="43.16063" lon="5.98405">
        <ele>426</ele>
        <time>2016-07-30T09:24:05.029Z</time>
      </trkpt>
      <trkpt lat="43.16064" lon="5.98403">
        <ele>427</ele>
        <time>2016-07-30T09:24:06.029Z</time>
      </trkpt>
      <trkpt lat="43.16065" lon="5.98401">
        <ele>427</ele>
        <time>2016-07-30T09:24:07.029Z</time>
      </trkpt>
      <trkpt lat="43.16066" lon="5.984">
        <ele>427</ele>
        <time>2016-07-30T09:24:08.029Z</time>
      </trkpt>
      <trkpt lat="43.16067" lon="5.98398">
        <ele>427</ele>
        <time>2016-07-30T09:24:09.029Z</time>
      </trkpt>
      <trkpt lat="43.16068" lon="5.98396">
        <ele>427</ele>
        <time>2016-07-30T09:24:10.029Z</time>
      </trkpt>
      <trkpt lat="43.16069" lon="5.98394">
        <ele>427</ele>
        <time>2016-07-30T09:24:11.029Z</time>
      </trkpt>
      <trkpt lat="43.1607" lon="5.98392">
        <ele>427</ele>
        <time>2016-07-30T09:24:12.029Z</time>
      </trkpt>
      <trkpt lat="43.16071" lon="5.9839">
        <ele>427</ele>
        <time>2016-07-30T09:24:13.029Z</time>
      </trkpt>
      <trkpt lat="43.16071" lon="5.98388">
        <ele>427</ele>
        <time>2016-07-30T09:24:14.029Z</time>
      </trkpt>
      <trkpt lat="43.16072" lon="5.98386">
        <ele>428</ele>
        <time>2016-07-30T09:24:15.029Z</time>
      </trkpt>
      <trkpt lat="43.16073" lon="5.98384">
        <ele>428</ele>
        <time>2016-07-30T09:24:16.029Z</time>
      </trkpt>
      <trkpt lat="43.16074" lon="5.98382">
        <ele>428</ele>
        <time>2016-07-30T09:24:17.029Z</time>
      </trkpt>
      <trkpt lat="43.16075" lon="5.9838">
        <ele>428</ele>
        <time>2016-07-30T09:24:18.029Z</time>
      </trkpt>
      <trkpt lat="43.16076" lon="5.98378">
        <ele>428</ele>
        <time>2016-07-30T09:24:19.029Z</time>
      </trkpt>
      <trkpt lat="43.16077" lon="5.98376">
        <ele>428</ele>
        <time>2016-07-30T09:24:20.029Z</time>
      </trkpt>
      <trkpt lat="43.16078" lon="5.98374">
        <ele>428</ele>
        <time>2016-07-30T09:24:21.029Z</time>
      </trkpt>
      <trkpt lat="43.1608" lon="5.98372">
        <ele>428</ele>
        <time>2016-07-30T09:24:22.029Z</time>
      </trkpt>
      <trkpt lat="43.16081" lon="5.9837">
        <ele>428</ele>
        <time>2016-07-30T09:24:23.029Z</time>
      </trkpt>
      <trkpt lat="43.16082" lon="5.98368">
        <ele>429</ele>
        <time>2016-07-30T09:24:24.029Z</time>
      </trkpt>
      <trkpt lat="43.16083" lon="5.98366">
        <ele>429</ele>
        <time>2016-07-30T09:24:25.029Z</time>
      </trkpt>
      <trkpt lat="43.16084" lon="5.98364">
        <ele>429</ele>
        <time>2016-07-30T09:24:26.029Z</time>
      </trkpt>
      <trkpt lat="43.16085" lon="5.98362">
        <ele>429</ele>
        <time>2016-07-30T09:24:27.029Z</time>
      </trkpt>
      <trkpt lat="43.16086" lon="5.9836">
        <ele>429</ele>
        <time>2016-07-30T09:24:28.029Z</time>
      </trkpt>
      <trkpt lat="43.16087" lon="5.98358">
        <ele>429</ele>
        <time>2016-07-30T09:24:29.029Z</time>
      </trkpt>
      <trkpt lat="43.16088" lon="5.98356">
        <ele>430</ele>
        <time>2016-07-30T09:24:30.029Z</time>
      </trkpt>
      <trkpt lat="43.16088" lon="5.98354">
        <ele>430</ele>
        <time>2016-07-30T09:24:31.029Z</time>
      </trkpt>
      <trkpt lat="43.16089" lon="5.98352">
        <ele>430</ele>
        <time>2016-07-30T09:24:32.029Z</time>
      </trkpt>
      <trkpt lat="43.1609" lon="5.9835">
        <ele>430</ele>
        <time>2016-07-30T09:24:33.029Z</time>
      </trkpt>
      <trkpt lat="43.16091" lon="5.98348">
        <ele>431</ele>
        <time>2016-07-30T09:24:34.029Z</time>
      </trkpt>
      <trkpt lat="43.16092" lon="5.98346">
        <ele>431</ele>
        <time>2016-07-30T09:24:35.029Z</time>
      </trkpt>
      <trkpt lat="43.16093" lon="5.98345">
        <ele>431</ele>
        <time>2016-07-30T09:24:36.029Z</time>
      </trkpt>
      <trkpt lat="43.16094" lon="5.98343">
        <ele>431</ele>
        <time>2016-07-30T09:24:37.029Z</time>
      </trkpt>
      <trkpt lat="43.16094" lon="5.98341">
        <ele>432</ele>
        <time>2016-07-30T09:24:38.029Z</time>
      </trkpt>
      <trkpt lat="43.16095" lon="5.98339">
        <ele>432</ele>
        <time>2016-07-30T09:24:39.029Z</time>
      </trkpt>
      <trkpt lat="43.16096" lon="5.98337">
        <ele>432</ele>
        <time>2016-07-30T09:24:40.029Z</time>
      </trkpt>
      <trkpt lat="43.16097" lon="5.98335">
        <ele>432</ele>
        <time>2016-07-30T09:24:41.029Z</time>
      </trkpt>
      <trkpt lat="43.16098" lon="5.98334">
        <ele>433</ele>
        <time>2016-07-30T09:24:42.029Z</time>
      </trkpt>
      <trkpt lat="43.16099" lon="5.98332">
        <ele>433</ele>
        <time>2016-07-30T09:24:43.029Z</time>
      </trkpt>
      <trkpt lat="43.161" lon="5.9833">
        <ele>433</ele>
        <time>2016-07-30T09:24:44.029Z</time>
      </trkpt>
      <trkpt lat="43.16101" lon="5.98328">
        <ele>433</ele>
        <time>2016-07-30T09:24:45.029Z</time>
      </trkpt>
      <trkpt lat="43.16101" lon="5.98326">
        <ele>433</ele>
        <time>2016-07-30T09:24:46.029Z</time>
      </trkpt>
      <trkpt lat="43.16102" lon="5.98325">
        <ele>433</ele>
        <time>2016-07-30T09:24:47.029Z</time>
      </trkpt>
      <trkpt lat="43.16103" lon="5.98323">
        <ele>434</ele>
        <time>2016-07-30T09:24:48.029Z</time>
      </trkpt>
      <trkpt lat="43.16104" lon="5.98321">
        <ele>434</ele>
        <time>2016-07-30T09:24:49.029Z</time>
      </trkpt>
      <trkpt lat="43.16104" lon="5.98319">
        <ele>434</ele>
        <time>2016-07-30T09:24:50.029Z</time>
      </trkpt>
      <trkpt lat="43.16105" lon="5.98317">
        <ele>434</ele>
        <time>2016-07-30T09:24:51.029Z</time>
      </trkpt>
      <trkpt lat="43.16106" lon="5.98315">
        <ele>434</ele>
        <time>2016-07-30T09:24:52.029Z</time>
      </trkpt>
      <trkpt lat="43.16107" lon="5.98314">
        <ele>434</ele>
        <time>2016-07-30T09:24:53.029Z</time>
      </trkpt>
      <trkpt lat="43.16108" lon="5.98312">
        <ele>435</ele>
        <time>2016-07-30T09:24:54.029Z</time>
      </trkpt>
      <trkpt lat="43.16109" lon="5.9831">
        <ele>435</ele>
        <time>2016-07-30T09:24:55.029Z</time>
      </trkpt>
      <trkpt lat="43.1611" lon="5.98309">
        <ele>435</ele>
        <time>2016-07-30T09:24:56.029Z</time>
      </trkpt>
      <trkpt lat="43.16111" lon="5.98307">
        <ele>435</ele>
        <time>2016-07-30T09:24:57.029Z</time>
      </trkpt>
      <trkpt lat="43.16112" lon="5.98305">
        <ele>435</ele>
        <time>2016-07-30T09:24:58.029Z</time>
      </trkpt>
      <trkpt lat="43.16112" lon="5.98304">
        <ele>435</ele>
        <time>2016-07-30T09:24:59.029Z</time>
      </trkpt>
      <trkpt lat="43.16113" lon="5.98302">
        <ele>435</ele>
        <time>2016-07-30T09:25:00.029Z</time>
      </trkpt>
      <trkpt lat="43.16114" lon="5.983">
        <ele>435</ele>
        <time>2016-07-30T09:25:01.029Z</time>
      </trkpt>
      <trkpt lat="43.16115" lon="5.98298">
        <ele>435</ele>
        <time>2016-07-30T09:25:02.029Z</time>
      </trkpt>
      <trkpt lat="43.16116" lon="5.98296">
        <ele>435</ele>
        <time>2016-07-30T09:25:03.029Z</time>
      </trkpt>
      <trkpt lat="43.16117" lon="5.98294">
        <ele>435</ele>
        <time>2016-07-30T09:25:04.029Z</time>
      </trkpt>
      <trkpt lat="43.16118" lon="5.98292">
        <ele>436</ele>
        <time>2016-07-30T09:25:05.029Z</time>
      </trkpt>
      <trkpt lat="43.16119" lon="5.9829">
        <ele>435</ele>
        <time>2016-07-30T09:25:06.029Z</time>
      </trkpt>
      <trkpt lat="43.1612" lon="5.98288">
        <ele>436</ele>
        <time>2016-07-30T09:25:07.029Z</time>
      </trkpt>
      <trkpt lat="43.16121" lon="5.98286">
        <ele>436</ele>
        <time>2016-07-30T09:25:08.029Z</time>
      </trkpt>
      <trkpt lat="43.16122" lon="5.98284">
        <ele>436</ele>
        <time>2016-07-30T09:25:09.029Z</time>
      </trkpt>
      <trkpt lat="43.16123" lon="5.98282">
        <ele>436</ele>
        <time>2016-07-30T09:25:10.029Z</time>
      </trkpt>
      <trkpt lat="43.16124" lon="5.9828">
        <ele>436</ele>
        <time>2016-07-30T09:25:11.029Z</time>
      </trkpt>
      <trkpt lat="43.16124" lon="5.98278">
        <ele>436</ele>
        <time>2016-07-30T09:25:12.029Z</time>
      </trkpt>
      <trkpt lat="43.16125" lon="5.98276">
        <ele>437</ele>
        <time>2016-07-30T09:25:13.029Z</time>
      </trkpt>
      <trkpt lat="43.16126" lon="5.98274">
        <ele>437</ele>
        <time>2016-07-30T09:25:14.029Z</time>
      </trkpt>
      <trkpt lat="43.16127" lon="5.98272">
        <ele>437</ele>
        <time>2016-07-30T09:25:15.029Z</time>
      </trkpt>
      <trkpt lat="43.16128" lon="5.9827">
        <ele>437</ele>
        <time>2016-07-30T09:25:16.029Z</time>
      </trkpt>
      <trkpt lat="43.16129" lon="5.98268">
        <ele>437</ele>
        <time>2016-07-30T09:25:17.029Z</time>
      </trkpt>
      <trkpt lat="43.16129" lon="5.98267">
        <ele>438</ele>
        <time>2016-07-30T09:25:18.029Z</time>
      </trkpt>
      <trkpt lat="43.1613" lon="5.98265">
        <ele>438</ele>
        <time>2016-07-30T09:25:19.029Z</time>
      </trkpt>
      <trkpt lat="43.16131" lon="5.98262">
        <ele>439</ele>
        <time>2016-07-30T09:25:20.029Z</time>
      </trkpt>
      <trkpt lat="43.16132" lon="5.9826">
        <ele>439</ele>
        <time>2016-07-30T09:25:21.029Z</time>
      </trkpt>
      <trkpt lat="43.16132" lon="5.98258">
        <ele>439</ele>
        <time>2016-07-30T09:25:22.029Z</time>
      </trkpt>
      <trkpt lat="43.16133" lon="5.98256">
        <ele>439</ele>
        <time>2016-07-30T09:25:23.029Z</time>
      </trkpt>
      <trkpt lat="43.16134" lon="5.98254">
        <ele>440</ele>
        <time>2016-07-30T09:25:24.029Z</time>
      </trkpt>
      <trkpt lat="43.16135" lon="5.98252">
        <ele>440</ele>
        <time>2016-07-30T09:25:25.029Z</time>
      </trkpt>
      <trkpt lat="43.16136" lon="5.9825">
        <ele>440</ele>
        <time>2016-07-30T09:25:26.029Z</time>
      </trkpt>
      <trkpt lat="43.16137" lon="5.98248">
        <ele>440</ele>
        <time>2016-07-30T09:25:27.029Z</time>
      </trkpt>
      <trkpt lat="43.16138" lon="5.98246">
        <ele>440</ele>
        <time>2016-07-30T09:25:28.029Z</time>
      </trkpt>
      <trkpt lat="43.16138" lon="5.98244">
        <ele>441</ele>
        <time>2016-07-30T09:25:29.029Z</time>
      </trkpt>
      <trkpt lat="43.16139" lon="5.98242">
        <ele>441</ele>
        <time>2016-07-30T09:25:30.029Z</time>
      </trkpt>
      <trkpt lat="43.1614" lon="5.9824">
        <ele>441</ele>
        <time>2016-07-30T09:25:31.029Z</time>
      </trkpt>
      <trkpt lat="43.16141" lon="5.98238">
        <ele>441</ele>
        <time>2016-07-30T09:25:32.029Z</time>
      </trkpt>
      <trkpt lat="43.16142" lon="5.98236">
        <ele>441</ele>
        <time>2016-07-30T09:25:33.029Z</time>
      </trkpt>
      <trkpt lat="43.16143" lon="5.98234">
        <ele>441</ele>
        <time>2016-07-30T09:25:34.029Z</time>
      </trkpt>
      <trkpt lat="43.16144" lon="5.98232">
        <ele>442</ele>
        <time>2016-07-30T09:25:35.029Z</time>
      </trkpt>
      <trkpt lat="43.16145" lon="5.9823">
        <ele>442</ele>
        <time>2016-07-30T09:25:36.029Z</time>
      </trkpt>
      <trkpt lat="43.16146" lon="5.98228">
        <ele>442</ele>
        <time>2016-07-30T09:25:37.029Z</time>
      </trkpt>
      <trkpt lat="43.16146" lon="5.98226">
        <ele>443</ele>
        <time>2016-07-30T09:25:38.029Z</time>
      </trkpt>
      <trkpt lat="43.16147" lon="5.98224">
        <ele>443</ele>
        <time>2016-07-30T09:25:39.029Z</time>
      </trkpt>
      <trkpt lat="43.16148" lon="5.98222">
        <ele>443</ele>
        <time>2016-07-30T09:25:40.029Z</time>
      </trkpt>
      <trkpt lat="43.16149" lon="5.9822">
        <ele>443</ele>
        <time>2016-07-30T09:25:41.029Z</time>
      </trkpt>
      <trkpt lat="43.1615" lon="5.98218">
        <ele>443</ele>
        <time>2016-07-30T09:25:42.029Z</time>
      </trkpt>
      <trkpt lat="43.16151" lon="5.98216">
        <ele>444</ele>
        <time>2016-07-30T09:25:43.029Z</time>
      </trkpt>
      <trkpt lat="43.16152" lon="5.98214">
        <ele>444</ele>
        <time>2016-07-30T09:25:44.029Z</time>
      </trkpt>
      <trkpt lat="43.16153" lon="5.98212">
        <ele>444</ele>
        <time>2016-07-30T09:25:45.029Z</time>
      </trkpt>
      <trkpt lat="43.16153" lon="5.9821">
        <ele>444</ele>
        <time>2016-07-30T09:25:46.029Z</time>
      </trkpt>
      <trkpt lat="43.16154" lon="5.98208">
        <ele>444</ele>
        <time>2016-07-30T09:25:47.029Z</time>
      </trkpt>
      <trkpt lat="43.16155" lon="5.98206">
        <ele>444</ele>
        <time>2016-07-30T09:25:48.029Z</time>
      </trkpt>
      <trkpt lat="43.16156" lon="5.98204">
        <ele>444</ele>
        <time>2016-07-30T09:25:49.029Z</time>
      </trkpt>
      <trkpt lat="43.16157" lon="5.98202">
        <ele>444</ele>
        <time>2016-07-30T09:25:50.029Z</time>
      </trkpt>
      <trkpt lat="43.16158" lon="5.982">
        <ele>445</ele>
        <time>2016-07-30T09:25:51.029Z</time>
      </trkpt>
      <trkpt lat="43.16159" lon="5.98198">
        <ele>445</ele>
        <time>2016-07-30T09:25:52.029Z</time>
      </trkpt>
      <trkpt lat="43.16159" lon="5.98196">
        <ele>445</ele>
        <time>2016-07-30T09:25:53.029Z</time>
      </trkpt>
      <trkpt lat="43.1616" lon="5.98194">
        <ele>446</ele>
        <time>2016-07-30T09:25:54.029Z</time>
      </trkpt>
      <trkpt lat="43.16161" lon="5.98192">
        <ele>446</ele>
        <time>2016-07-30T09:25:55.029Z</time>
      </trkpt>
      <trkpt lat="43.16161" lon="5.9819">
        <ele>446</ele>
        <time>2016-07-30T09:25:56.029Z</time>
      </trkpt>
      <trkpt lat="43.16162" lon="5.98188">
        <ele>446</ele>
        <time>2016-07-30T09:25:57.029Z</time>
      </trkpt>
      <trkpt lat="43.16163" lon="5.98186">
        <ele>446</ele>
        <time>2016-07-30T09:25:58.029Z</time>
      </trkpt>
      <trkpt lat="43.16164" lon="5.98184">
        <ele>447</ele>
        <time>2016-07-30T09:25:59.029Z</time>
      </trkpt>
      <trkpt lat="43.16165" lon="5.98182">
        <ele>447</ele>
        <time>2016-07-30T09:26:00.029Z</time>
      </trkpt>
      <trkpt lat="43.16166" lon="5.9818">
        <ele>447</ele>
        <time>2016-07-30T09:26:01.029Z</time>
      </trkpt>
      <trkpt lat="43.16166" lon="5.98178">
        <ele>447</ele>
        <time>2016-07-30T09:26:02.029Z</time>
      </trkpt>
      <trkpt lat="43.16167" lon="5.98176">
        <ele>448</ele>
        <time>2016-07-30T09:26:03.029Z</time>
      </trkpt>
      <trkpt lat="43.16168" lon="5.98174">
        <ele>448</ele>
        <time>2016-07-30T09:26:04.029Z</time>
      </trkpt>
      <trkpt lat="43.16168" lon="5.98172">
        <ele>448</ele>
        <time>2016-07-30T09:26:05.029Z</time>
      </trkpt>
      <trkpt lat="43.16169" lon="5.98169">
        <ele>448</ele>
        <time>2016-07-30T09:26:06.029Z</time>
      </trkpt>
      <trkpt lat="43.1617" lon="5.98167">
        <ele>448</ele>
        <time>2016-07-30T09:26:07.029Z</time>
      </trkpt>
      <trkpt lat="43.1617" lon="5.98165">
        <ele>448</ele>
        <time>2016-07-30T09:26:08.029Z</time>
      </trkpt>
      <trkpt lat="43.16171" lon="5.98163">
        <ele>448</ele>
        <time>2016-07-30T09:26:09.029Z</time>
      </trkpt>
      <trkpt lat="43.16171" lon="5.9816">
        <ele>449</ele>
        <time>2016-07-30T09:26:10.029Z</time>
      </trkpt>
      <trkpt lat="43.16172" lon="5.98158">
        <ele>449</ele>
        <time>2016-07-30T09:26:11.029Z</time>
      </trkpt>
      <trkpt lat="43.16173" lon="5.98156">
        <ele>449</ele>
        <time>2016-07-30T09:26:12.029Z</time>
      </trkpt>
      <trkpt lat="43.16174" lon="5.98153">
        <ele>449</ele>
        <time>2016-07-30T09:26:13.029Z</time>
      </trkpt>
      <trkpt lat="43.16174" lon="5.98151">
        <ele>449</ele>
        <time>2016-07-30T09:26:14.029Z</time>
      </trkpt>
      <trkpt lat="43.16175" lon="5.98149">
        <ele>450</ele>
        <time>2016-07-30T09:26:15.029Z</time>
      </trkpt>
      <trkpt lat="43.16176" lon="5.98147">
        <ele>450</ele>
        <time>2016-07-30T09:26:16.029Z</time>
      </trkpt>
      <trkpt lat="43.16176" lon="5.98144">
        <ele>450</ele>
        <time>2016-07-30T09:26:17.029Z</time>
      </trkpt>
      <trkpt lat="43.16177" lon="5.98142">
        <ele>450</ele>
        <time>2016-07-30T09:26:18.029Z</time>
      </trkpt>
      <trkpt lat="43.16178" lon="5.98139">
        <ele>451</ele>
        <time>2016-07-30T09:26:19.029Z</time>
      </trkpt>
      <trkpt lat="43.16178" lon="5.98137">
        <ele>451</ele>
        <time>2016-07-30T09:26:20.029Z</time>
      </trkpt>
      <trkpt lat="43.16179" lon="5.98135">
        <ele>451</ele>
        <time>2016-07-30T09:26:21.029Z</time>
      </trkpt>
      <trkpt lat="43.1618" lon="5.98133">
        <ele>451</ele>
        <time>2016-07-30T09:26:22.029Z</time>
      </trkpt>
      <trkpt lat="43.1618" lon="5.98131">
        <ele>451</ele>
        <time>2016-07-30T09:26:23.029Z</time>
      </trkpt>
      <trkpt lat="43.16181" lon="5.98129">
        <ele>451</ele>
        <time>2016-07-30T09:26:24.029Z</time>
      </trkpt>
      <trkpt lat="43.16182" lon="5.98128">
        <ele>451</ele>
        <time>2016-07-30T09:26:25.029Z</time>
      </trkpt>
      <trkpt lat="43.16184" lon="5.98126">
        <ele>452</ele>
        <time>2016-07-30T09:26:26.029Z</time>
      </trkpt>
      <trkpt lat="43.16185" lon="5.98124">
        <ele>452</ele>
        <time>2016-07-30T09:26:27.029Z</time>
      </trkpt>
      <trkpt lat="43.16186" lon="5.98123">
        <ele>452</ele>
        <time>2016-07-30T09:26:28.029Z</time>
      </trkpt>
      <trkpt lat="43.16188" lon="5.98121">
        <ele>453</ele>
        <time>2016-07-30T09:26:29.029Z</time>
      </trkpt>
      <trkpt lat="43.16189" lon="5.98119">
        <ele>453</ele>
        <time>2016-07-30T09:26:30.029Z</time>
      </trkpt>
      <trkpt lat="43.16191" lon="5.98118">
        <ele>453</ele>
        <time>2016-07-30T09:26:31.029Z</time>
      </trkpt>
      <trkpt lat="43.16192" lon="5.98116">
        <ele>453</ele>
        <time>2016-07-30T09:26:32.029Z</time>
      </trkpt>
      <trkpt lat="43.16194" lon="5.98115">
        <ele>454</ele>
        <time>2016-07-30T09:26:33.029Z</time>
      </trkpt>
      <trkpt lat="43.16196" lon="5.98113">
        <ele>454</ele>
        <time>2016-07-30T09:26:34.029Z</time>
      </trkpt>
      <trkpt lat="43.16198" lon="5.98112">
        <ele>454</ele>
        <time>2016-07-30T09:26:35.029Z</time>
      </trkpt>
      <trkpt lat="43.16199" lon="5.9811">
        <ele>454</ele>
        <time>2016-07-30T09:26:36.029Z</time>
      </trkpt>
      <trkpt lat="43.16201" lon="5.98108">
        <ele>454</ele>
        <time>2016-07-30T09:26:37.029Z</time>
      </trkpt>
      <trkpt lat="43.16204" lon="5.98106">
        <ele>454</ele>
        <time>2016-07-30T09:26:38.029Z</time>
      </trkpt>
      <trkpt lat="43.16206" lon="5.98104">
        <ele>454</ele>
        <time>2016-07-30T09:26:39.029Z</time>
      </trkpt>
      <trkpt lat="43.16207" lon="5.98102">
        <ele>455</ele>
        <time>2016-07-30T09:26:40.029Z</time>
      </trkpt>
      <trkpt lat="43.16209" lon="5.981">
        <ele>455</ele>
        <time>2016-07-30T09:26:41.029Z</time>
      </trkpt>
      <trkpt lat="43.16211" lon="5.98097">
        <ele>455</ele>
        <time>2016-07-30T09:26:42.029Z</time>
      </trkpt>
      <trkpt lat="43.16213" lon="5.98095">
        <ele>455</ele>
        <time>2016-07-30T09:26:43.029Z</time>
      </trkpt>
      <trkpt lat="43.16214" lon="5.98092">
        <ele>455</ele>
        <time>2016-07-30T09:26:44.029Z</time>
      </trkpt>
      <trkpt lat="43.16216" lon="5.9809">
        <ele>455</ele>
        <time>2016-07-30T09:26:45.029Z</time>
      </trkpt>
      <trkpt lat="43.16217" lon="5.98088">
        <ele>455</ele>
        <time>2016-07-30T09:26:46.029Z</time>
      </trkpt>
      <trkpt lat="43.16218" lon="5.98086">
        <ele>455</ele>
        <time>2016-07-30T09:26:47.029Z</time>
      </trkpt>
      <trkpt lat="43.1622" lon="5.98084">
        <ele>456</ele>
        <time>2016-07-30T09:26:48.029Z</time>
      </trkpt>
      <trkpt lat="43.16221" lon="5.98081">
        <ele>456</ele>
        <time>2016-07-30T09:26:49.029Z</time>
      </trkpt>
      <trkpt lat="43.16222" lon="5.98079">
        <ele>456</ele>
        <time>2016-07-30T09:26:50.029Z</time>
      </trkpt>
      <trkpt lat="43.16223" lon="5.98076">
        <ele>456</ele>
        <time>2016-07-30T09:26:51.029Z</time>
      </trkpt>
      <trkpt lat="43.16225" lon="5.98074">
        <ele>456</ele>
        <time>2016-07-30T09:26:52.029Z</time>
      </trkpt>
      <trkpt lat="43.16226" lon="5.98071">
        <ele>456</ele>
        <time>2016-07-30T09:26:53.029Z</time>
      </trkpt>
      <trkpt lat="43.16227" lon="5.98068">
        <ele>456</ele>
        <time>2016-07-30T09:26:54.029Z</time>
      </trkpt>
      <trkpt lat="43.16228" lon="5.98066">
        <ele>456</ele>
        <time>2016-07-30T09:26:55.029Z</time>
      </trkpt>
      <trkpt lat="43.16229" lon="5.98063">
        <ele>457</ele>
        <time>2016-07-30T09:26:56.029Z</time>
      </trkpt>
      <trkpt lat="43.16231" lon="5.98061">
        <ele>457</ele>
        <time>2016-07-30T09:26:57.029Z</time>
      </trkpt>
      <trkpt lat="43.16232" lon="5.98058">
        <ele>457</ele>
        <time>2016-07-30T09:26:58.029Z</time>
      </trkpt>
      <trkpt lat="43.16233" lon="5.98056">
        <ele>457</ele>
        <time>2016-07-30T09:26:59.029Z</time>
      </trkpt>
      <trkpt lat="43.16234" lon="5.98053">
        <ele>457</ele>
        <time>2016-07-30T09:27:00.029Z</time>
      </trkpt>
      <trkpt lat="43.16236" lon="5.9805">
        <ele>457</ele>
        <time>2016-07-30T09:27:01.029Z</time>
      </trkpt>
      <trkpt lat="43.16237" lon="5.98048">
        <ele>457</ele>
        <time>2016-07-30T09:27:02.029Z</time>
      </trkpt>
      <trkpt lat="43.16239" lon="5.98045">
        <ele>457</ele>
        <time>2016-07-30T09:27:03.029Z</time>
      </trkpt>
      <trkpt lat="43.16241" lon="5.98042">
        <ele>457</ele>
        <time>2016-07-30T09:27:04.029Z</time>
      </trkpt>
      <trkpt lat="43.16243" lon="5.9804">
        <ele>457</ele>
        <time>2016-07-30T09:27:05.029Z</time>
      </trkpt>
      <trkpt lat="43.16244" lon="5.98037">
        <ele>457</ele>
        <time>2016-07-30T09:27:06.029Z</time>
      </trkpt>
      <trkpt lat="43.16246" lon="5.98035">
        <ele>457</ele>
        <time>2016-07-30T09:27:07.029Z</time>
      </trkpt>
      <trkpt lat="43.16249" lon="5.98034">
        <ele>457</ele>
        <time>2016-07-30T09:27:08.029Z</time>
      </trkpt>
      <trkpt lat="43.16251" lon="5.98034">
        <ele>457</ele>
        <time>2016-07-30T09:27:09.029Z</time>
      </trkpt>
      <trkpt lat="43.16254" lon="5.98035">
        <ele>457</ele>
        <time>2016-07-30T09:27:10.029Z</time>
      </trkpt>
      <trkpt lat="43.16256" lon="5.98037">
        <ele>457</ele>
        <time>2016-07-30T09:27:11.029Z</time>
      </trkpt>
      <trkpt lat="43.16257" lon="5.98039">
        <ele>458</ele>
        <time>2016-07-30T09:27:12.029Z</time>
      </trkpt>
      <trkpt lat="43.16258" lon="5.98043">
        <ele>458</ele>
        <time>2016-07-30T09:27:13.029Z</time>
      </trkpt>
      <trkpt lat="43.16258" lon="5.98046">
        <ele>457</ele>
        <time>2016-07-30T09:27:14.029Z</time>
      </trkpt>
      <trkpt lat="43.16258" lon="5.98049">
        <ele>457</ele>
        <time>2016-07-30T09:27:15.029Z</time>
      </trkpt>
      <trkpt lat="43.16258" lon="5.98051">
        <ele>457</ele>
        <time>2016-07-30T09:27:16.029Z</time>
      </trkpt>
      <trkpt lat="43.16257" lon="5.98054">
        <ele>457</ele>
        <time>2016-07-30T09:27:17.029Z</time>
      </trkpt>
      <trkpt lat="43.16257" lon="5.98057">
        <ele>457</ele>
        <time>2016-07-30T09:27:18.029Z</time>
      </trkpt>
      <trkpt lat="43.16256" lon="5.98059">
        <ele>457</ele>
        <time>2016-07-30T09:27:19.029Z</time>
      </trkpt>
      <trkpt lat="43.16254" lon="5.98062">
        <ele>456</ele>
        <time>2016-07-30T09:27:20.029Z</time>
      </trkpt>
      <trkpt lat="43.16253" lon="5.98064">
        <ele>456</ele>
        <time>2016-07-30T09:27:21.029Z</time>
      </trkpt>
      <trkpt lat="43.16251" lon="5.98067">
        <ele>456</ele>
        <time>2016-07-30T09:27:22.029Z</time>
      </trkpt>
      <trkpt lat="43.16249" lon="5.98069">
        <ele>456</ele>
        <time>2016-07-30T09:27:23.029Z</time>
      </trkpt>
      <trkpt lat="43.16247" lon="5.98071">
        <ele>457</ele>
        <time>2016-07-30T09:27:24.029Z</time>
      </trkpt>
      <trkpt lat="43.16246" lon="5.98073">
        <ele>457</ele>
        <time>2016-07-30T09:27:25.029Z</time>
      </trkpt>
      <trkpt lat="43.16244" lon="5.98075">
        <ele>457</ele>
        <time>2016-07-30T09:27:26.029Z</time>
      </trkpt>
      <trkpt lat="43.16242" lon="5.98078">
        <ele>457</ele>
        <time>2016-07-30T09:27:27.029Z</time>
      </trkpt>
      <trkpt lat="43.16241" lon="5.9808">
        <ele>457</ele>
        <time>2016-07-30T09:27:28.029Z</time>
      </trkpt>
      <trkpt lat="43.1624" lon="5.98082">
        <ele>458</ele>
        <time>2016-07-30T09:27:29.029Z</time>
      </trkpt>
      <trkpt lat="43.16238" lon="5.98085">
        <ele>458</ele>
        <time>2016-07-30T09:27:30.029Z</time>
      </trkpt>
      <trkpt lat="43.16237" lon="5.98087">
        <ele>458</ele>
        <time>2016-07-30T09:27:31.029Z</time>
      </trkpt>
      <trkpt lat="43.16236" lon="5.98089">
        <ele>458</ele>
        <time>2016-07-30T09:27:32.029Z</time>
      </trkpt>
      <trkpt lat="43.16234" lon="5.98092">
        <ele>458</ele>
        <time>2016-07-30T09:27:33.029Z</time>
      </trkpt>
      <trkpt lat="43.16233" lon="5.98094">
        <ele>458</ele>
        <time>2016-07-30T09:27:34.029Z</time>
      </trkpt>
      <trkpt lat="43.16232" lon="5.98097">
        <ele>459</ele>
        <time>2016-07-30T09:27:35.029Z</time>
      </trkpt>
      <trkpt lat="43.16231" lon="5.981">
        <ele>459</ele>
        <time>2016-07-30T09:27:36.029Z</time>
      </trkpt>
      <trkpt lat="43.1623" lon="5.98103">
        <ele>459</ele>
        <time>2016-07-30T09:27:37.029Z</time>
      </trkpt>
      <trkpt lat="43.16229" lon="5.98106">
        <ele>460</ele>
        <time>2016-07-30T09:27:38.029Z</time>
      </trkpt>
      <trkpt lat="43.16228" lon="5.98109">
        <ele>459</ele>
        <time>2016-07-30T09:27:39.029Z</time>
      </trkpt>
      <trkpt lat="43.16227" lon="5.98111">
        <ele>460</ele>
        <time>2016-07-30T09:27:40.029Z</time>
      </trkpt>
      <trkpt lat="43.16226" lon="5.98114">
        <ele>460</ele>
        <time>2016-07-30T09:27:41.029Z</time>
      </trkpt>
      <trkpt lat="43.16225" lon="5.98117">
        <ele>460</ele>
        <time>2016-07-30T09:27:42.029Z</time>
      </trkpt>
      <trkpt lat="43.16224" lon="5.9812">
        <ele>460</ele>
        <time>2016-07-30T09:27:43.029Z</time>
      </trkpt>
      <trkpt lat="43.16223" lon="5.98123">
        <ele>461</ele>
        <time>2016-07-30T09:27:44.029Z</time>
      </trkpt>
      <trkpt lat="43.16222" lon="5.98126">
        <ele>461</ele>
        <time>2016-07-30T09:27:45.029Z</time>
      </trkpt>
      <trkpt lat="43.16221" lon="5.98129">
        <ele>461</ele>
        <time>2016-07-30T09:27:46.029Z</time>
      </trkpt>
      <trkpt lat="43.16221" lon="5.98133">
        <ele>461</ele>
        <time>2016-07-30T09:27:47.029Z</time>
      </trkpt>
      <trkpt lat="43.1622" lon="5.98136">
        <ele>462</ele>
        <time>2016-07-30T09:27:48.029Z</time>
      </trkpt>
      <trkpt lat="43.16219" lon="5.98139">
        <ele>462</ele>
        <time>2016-07-30T09:27:49.029Z</time>
      </trkpt>
      <trkpt lat="43.16218" lon="5.98142">
        <ele>462</ele>
        <time>2016-07-30T09:27:50.029Z</time>
      </trkpt>
      <trkpt lat="43.16217" lon="5.98146">
        <ele>462</ele>
        <time>2016-07-30T09:27:51.029Z</time>
      </trkpt>
      <trkpt lat="43.16216" lon="5.98149">
        <ele>463</ele>
        <time>2016-07-30T09:27:52.029Z</time>
      </trkpt>
      <trkpt lat="43.16216" lon="5.98153">
        <ele>463</ele>
        <time>2016-07-30T09:27:53.029Z</time>
      </trkpt>
      <trkpt lat="43.16215" lon="5.98156">
        <ele>463</ele>
        <time>2016-07-30T09:27:54.029Z</time>
      </trkpt>
      <trkpt lat="43.16214" lon="5.9816">
        <ele>463</ele>
        <time>2016-07-30T09:27:55.029Z</time>
      </trkpt>
      <trkpt lat="43.16213" lon="5.98163">
        <ele>464</ele>
        <time>2016-07-30T09:27:56.029Z</time>
      </trkpt>
      <trkpt lat="43.16212" lon="5.98167">
        <ele>464</ele>
        <time>2016-07-30T09:27:57.029Z</time>
      </trkpt>
      <trkpt lat="43.16212" lon="5.9817">
        <ele>464</ele>
        <time>2016-07-30T09:27:58.029Z</time>
      </trkpt>
      <trkpt lat="43.16212" lon="5.98174">
        <ele>465</ele>
        <time>2016-07-30T09:27:59.029Z</time>
      </trkpt>
      <trkpt lat="43.16211" lon="5.98177">
        <ele>465</ele>
        <time>2016-07-30T09:28:00.029Z</time>
      </trkpt>
      <trkpt lat="43.16211" lon="5.98181">
        <ele>465</ele>
        <time>2016-07-30T09:28:01.029Z</time>
      </trkpt>
      <trkpt lat="43.16211" lon="5.98184">
        <ele>466</ele>
        <time>2016-07-30T09:28:02.029Z</time>
      </trkpt>
      <trkpt lat="43.16211" lon="5.98188">
        <ele>466</ele>
        <time>2016-07-30T09:28:03.029Z</time>
      </trkpt>
      <trkpt lat="43.16211" lon="5.98191">
        <ele>466</ele>
        <time>2016-07-30T09:28:04.029Z</time>
      </trkpt>
      <trkpt lat="43.16211" lon="5.98195">
        <ele>466</ele>
        <time>2016-07-30T09:28:05.029Z</time>
      </trkpt>
      <trkpt lat="43.16211" lon="5.98198">
        <ele>466</ele>
        <time>2016-07-30T09:28:06.029Z</time>
      </trkpt>
      <trkpt lat="43.16211" lon="5.98202">
        <ele>467</ele>
        <time>2016-07-30T09:28:07.029Z</time>
      </trkpt>
      <trkpt lat="43.16211" lon="5.98205">
        <ele>467</ele>
        <time>2016-07-30T09:28:08.029Z</time>
      </trkpt>
      <trkpt lat="43.16211" lon="5.98208">
        <ele>467</ele>
        <time>2016-07-30T09:28:09.029Z</time>
      </trkpt>
      <trkpt lat="43.16211" lon="5.98212">
        <ele>467</ele>
        <time>2016-07-30T09:28:10.029Z</time>
      </trkpt>
      <trkpt lat="43.16212" lon="5.98215">
        <ele>467</ele>
        <time>2016-07-30T09:28:11.029Z</time>
      </trkpt>
      <trkpt lat="43.16212" lon="5.98218">
        <ele>467</ele>
        <time>2016-07-30T09:28:12.029Z</time>
      </trkpt>
      <trkpt lat="43.16212" lon="5.98221">
        <ele>468</ele>
        <time>2016-07-30T09:28:13.029Z</time>
      </trkpt>
      <trkpt lat="43.16212" lon="5.98224">
        <ele>468</ele>
        <time>2016-07-30T09:28:14.029Z</time>
      </trkpt>
      <trkpt lat="43.16212" lon="5.98227">
        <ele>468</ele>
        <time>2016-07-30T09:28:15.029Z</time>
      </trkpt>
      <trkpt lat="43.16212" lon="5.9823">
        <ele>468</ele>
        <time>2016-07-30T09:28:16.029Z</time>
      </trkpt>
      <trkpt lat="43.16212" lon="5.98234">
        <ele>468</ele>
        <time>2016-07-30T09:28:17.029Z</time>
      </trkpt>
      <trkpt lat="43.16212" lon="5.98237">
        <ele>469</ele>
        <time>2016-07-30T09:28:18.029Z</time>
      </trkpt>
      <trkpt lat="43.16212" lon="5.9824">
        <ele>469</ele>
        <time>2016-07-30T09:28:19.029Z</time>
      </trkpt>
      <trkpt lat="43.16212" lon="5.98243">
        <ele>469</ele>
        <time>2016-07-30T09:28:20.029Z</time>
      </trkpt>
      <trkpt lat="43.16212" lon="5.98246">
        <ele>469</ele>
        <time>2016-07-30T09:28:21.029Z</time>
      </trkpt>
      <trkpt lat="43.16212" lon="5.98249">
        <ele>469</ele>
        <time>2016-07-30T09:28:22.029Z</time>
      </trkpt>
      <trkpt lat="43.16212" lon="5.98252">
        <ele>469</ele>
        <time>2016-07-30T09:28:23.029Z</time>
      </trkpt>
      <trkpt lat="43.16212" lon="5.98255">
        <ele>470</ele>
        <time>2016-07-30T09:28:24.029Z</time>
      </trkpt>
      <trkpt lat="43.16211" lon="5.98258">
        <ele>470</ele>
        <time>2016-07-30T09:28:25.029Z</time>
      </trkpt>
      <trkpt lat="43.16211" lon="5.98261">
        <ele>470</ele>
        <time>2016-07-30T09:28:26.029Z</time>
      </trkpt>
      <trkpt lat="43.16211" lon="5.98264">
        <ele>470</ele>
        <time>2016-07-30T09:28:27.029Z</time>
      </trkpt>
      <trkpt lat="43.16211" lon="5.98267">
        <ele>470</ele>
        <time>2016-07-30T09:28:28.029Z</time>
      </trkpt>
      <trkpt lat="43.1621" lon="5.9827">
        <ele>470</ele>
        <time>2016-07-30T09:28:29.029Z</time>
      </trkpt>
      <trkpt lat="43.1621" lon="5.98273">
        <ele>470</ele>
        <time>2016-07-30T09:28:30.029Z</time>
      </trkpt>
      <trkpt lat="43.1621" lon="5.98276">
        <ele>471</ele>
        <time>2016-07-30T09:28:31.029Z</time>
      </trkpt>
      <trkpt lat="43.1621" lon="5.98279">
        <ele>471</ele>
        <time>2016-07-30T09:28:32.029Z</time>
      </trkpt>
      <trkpt lat="43.1621" lon="5.98282">
        <ele>471</ele>
        <time>2016-07-30T09:28:33.029Z</time>
      </trkpt>
      <trkpt lat="43.1621" lon="5.98285">
        <ele>471</ele>
        <time>2016-07-30T09:28:34.029Z</time>
      </trkpt>
      <trkpt lat="43.16209" lon="5.98287">
        <ele>472</ele>
        <time>2016-07-30T09:28:35.029Z</time>
      </trkpt>
      <trkpt lat="43.16209" lon="5.9829">
        <ele>472</ele>
        <time>2016-07-30T09:28:36.029Z</time>
      </trkpt>
      <trkpt lat="43.16209" lon="5.98293">
        <ele>472</ele>
        <time>2016-07-30T09:28:37.029Z</time>
      </trkpt>
      <trkpt lat="43.16209" lon="5.98296">
        <ele>472</ele>
        <time>2016-07-30T09:28:38.029Z</time>
      </trkpt>
      <trkpt lat="43.16208" lon="5.98299">
        <ele>472</ele>
        <time>2016-07-30T09:28:39.029Z</time>
      </trkpt>
      <trkpt lat="43.16208" lon="5.98302">
        <ele>473</ele>
        <time>2016-07-30T09:28:40.029Z</time>
      </trkpt>
      <trkpt lat="43.16207" lon="5.98306">
        <ele>473</ele>
        <time>2016-07-30T09:28:41.029Z</time>
      </trkpt>
      <trkpt lat="43.16207" lon="5.98309">
        <ele>473</ele>
        <time>2016-07-30T09:28:42.029Z</time>
      </trkpt>
      <trkpt lat="43.16206" lon="5.98312">
        <ele>473</ele>
        <time>2016-07-30T09:28:43.029Z</time>
      </trkpt>
      <trkpt lat="43.16205" lon="5.98315">
        <ele>473</ele>
        <time>2016-07-30T09:28:44.029Z</time>
      </trkpt>
      <trkpt lat="43.16205" lon="5.98319">
        <ele>473</ele>
        <time>2016-07-30T09:28:45.029Z</time>
      </trkpt>
      <trkpt lat="43.16204" lon="5.98322">
        <ele>474</ele>
        <time>2016-07-30T09:28:46.029Z</time>
      </trkpt>
      <trkpt lat="43.16203" lon="5.98325">
        <ele>474</ele>
        <time>2016-07-30T09:28:47.029Z</time>
      </trkpt>
      <trkpt lat="43.16202" lon="5.98329">
        <ele>474</ele>
        <time>2016-07-30T09:28:48.029Z</time>
      </trkpt>
      <trkpt lat="43.16201" lon="5.98332">
        <ele>474</ele>
        <time>2016-07-30T09:28:49.029Z</time>
      </trkpt>
      <trkpt lat="43.16201" lon="5.98335">
        <ele>474</ele>
        <time>2016-07-30T09:28:50.029Z</time>
      </trkpt>
      <trkpt lat="43.162" lon="5.98338">
        <ele>475</ele>
        <time>2016-07-30T09:28:51.029Z</time>
      </trkpt>
      <trkpt lat="43.162" lon="5.98341">
        <ele>475</ele>
        <time>2016-07-30T09:28:52.029Z</time>
      </trkpt>
      <trkpt lat="43.16199" lon="5.98344">
        <ele>475</ele>
        <time>2016-07-30T09:28:53.029Z</time>
      </trkpt>
      <trkpt lat="43.16198" lon="5.98347">
        <ele>475</ele>
        <time>2016-07-30T09:28:54.029Z</time>
      </trkpt>
      <trkpt lat="43.16197" lon="5.98349">
        <ele>475</ele>
        <time>2016-07-30T09:28:55.029Z</time>
      </trkpt>
      <trkpt lat="43.16197" lon="5.98352">
        <ele>475</ele>
        <time>2016-07-30T09:28:56.029Z</time>
      </trkpt>
      <trkpt lat="43.16196" lon="5.98354">
        <ele>475</ele>
        <time>2016-07-30T09:28:57.029Z</time>
      </trkpt>
      <trkpt lat="43.16195" lon="5.98357">
        <ele>475</ele>
        <time>2016-07-30T09:28:58.029Z</time>
      </trkpt>
      <trkpt lat="43.16194" lon="5.98359">
        <ele>476</ele>
        <time>2016-07-30T09:28:59.029Z</time>
      </trkpt>
      <trkpt lat="43.16194" lon="5.98361">
        <ele>476</ele>
        <time>2016-07-30T09:29:00.029Z</time>
      </trkpt>
      <trkpt lat="43.16193" lon="5.98364">
        <ele>476</ele>
        <time>2016-07-30T09:29:01.029Z</time>
      </trkpt>
      <trkpt lat="43.16193" lon="5.98366">
        <ele>476</ele>
        <time>2016-07-30T09:29:02.029Z</time>
      </trkpt>
      <trkpt lat="43.16192" lon="5.98369">
        <ele>476</ele>
        <time>2016-07-30T09:29:03.029Z</time>
      </trkpt>
      <trkpt lat="43.16192" lon="5.98371">
        <ele>477</ele>
        <time>2016-07-30T09:29:04.029Z</time>
      </trkpt>
      <trkpt lat="43.16191" lon="5.98373">
        <ele>477</ele>
        <time>2016-07-30T09:29:05.029Z</time>
      </trkpt>
      <trkpt lat="43.16191" lon="5.98375">
        <ele>477</ele>
        <time>2016-07-30T09:29:06.029Z</time>
      </trkpt>
      <trkpt lat="43.1619" lon="5.98378">
        <ele>477</ele>
        <time>2016-07-30T09:29:07.029Z</time>
      </trkpt>
      <trkpt lat="43.1619" lon="5.9838">
        <ele>477</ele>
        <time>2016-07-30T09:29:08.029Z</time>
      </trkpt>
      <trkpt lat="43.16189" lon="5.98382">
        <ele>478</ele>
        <time>2016-07-30T09:29:09.029Z</time>
      </trkpt>
      <trkpt lat="43.16188" lon="5.98385">
        <ele>478</ele>
        <time>2016-07-30T09:29:10.029Z</time>
      </trkpt>
      <trkpt lat="43.16188" lon="5.98387">
        <ele>478</ele>
        <time>2016-07-30T09:29:11.029Z</time>
      </trkpt>
      <trkpt lat="43.16187" lon="5.98389">
        <ele>478</ele>
        <time>2016-07-30T09:29:12.029Z</time>
      </trkpt>
      <trkpt lat="43.16187" lon="5.98391">
        <ele>478</ele>
        <time>2016-07-30T09:29:13.029Z</time>
      </trkpt>
      <trkpt lat="43.16186" lon="5.98394">
        <ele>478</ele>
        <time>2016-07-30T09:29:14.029Z</time>
      </trkpt>
      <trkpt lat="43.16186" lon="5.98396">
        <ele>478</ele>
        <time>2016-07-30T09:29:15.029Z</time>
      </trkpt>
      <trkpt lat="43.16185" lon="5.98399">
        <ele>479</ele>
        <time>2016-07-30T09:29:16.029Z</time>
      </trkpt>
      <trkpt lat="43.16185" lon="5.98401">
        <ele>479</ele>
        <time>2016-07-30T09:29:17.029Z</time>
      </trkpt>
      <trkpt lat="43.16185" lon="5.98404">
        <ele>479</ele>
        <time>2016-07-30T09:29:18.029Z</time>
      </trkpt>
      <trkpt lat="43.16185" lon="5.98407">
        <ele>480</ele>
        <time>2016-07-30T09:29:19.029Z</time>
      </trkpt>
      <trkpt lat="43.16184" lon="5.98409">
        <ele>480</ele>
        <time>2016-07-30T09:29:20.029Z</time>
      </trkpt>
      <trkpt lat="43.16184" lon="5.98412">
        <ele>480</ele>
        <time>2016-07-30T09:29:21.029Z</time>
      </trkpt>
      <trkpt lat="43.16184" lon="5.98415">
        <ele>480</ele>
        <time>2016-07-30T09:29:22.029Z</time>
      </trkpt>
      <trkpt lat="43.16184" lon="5.98418">
        <ele>480</ele>
        <time>2016-07-30T09:29:23.029Z</time>
      </trkpt>
      <trkpt lat="43.16184" lon="5.9842">
        <ele>480</ele>
        <time>2016-07-30T09:29:24.029Z</time>
      </trkpt>
      <trkpt lat="43.16184" lon="5.98423">
        <ele>481</ele>
        <time>2016-07-30T09:29:25.029Z</time>
      </trkpt>
      <trkpt lat="43.16184" lon="5.98426">
        <ele>481</ele>
        <time>2016-07-30T09:29:26.029Z</time>
      </trkpt>
      <trkpt lat="43.16184" lon="5.98428">
        <ele>481</ele>
        <time>2016-07-30T09:29:27.029Z</time>
      </trkpt>
      <trkpt lat="43.16184" lon="5.98431">
        <ele>481</ele>
        <time>2016-07-30T09:29:28.029Z</time>
      </trkpt>
      <trkpt lat="43.16184" lon="5.98434">
        <ele>481</ele>
        <time>2016-07-30T09:29:29.029Z</time>
      </trkpt>
      <trkpt lat="43.16184" lon="5.98436">
        <ele>481</ele>
        <time>2016-07-30T09:29:30.029Z</time>
      </trkpt>
      <trkpt lat="43.16184" lon="5.98439">
        <ele>481</ele>
        <time>2016-07-30T09:29:31.029Z</time>
      </trkpt>
      <trkpt lat="43.16184" lon="5.98442">
        <ele>481</ele>
        <time>2016-07-30T09:29:32.029Z</time>
      </trkpt>
      <trkpt lat="43.16184" lon="5.98444">
        <ele>481</ele>
        <time>2016-07-30T09:29:33.029Z</time>
      </trkpt>
      <trkpt lat="43.16184" lon="5.98447">
        <ele>482</ele>
        <time>2016-07-30T09:29:34.029Z</time>
      </trkpt>
      <trkpt lat="43.16184" lon="5.98449">
        <ele>482</ele>
        <time>2016-07-30T09:29:35.029Z</time>
      </trkpt>
      <trkpt lat="43.16185" lon="5.98452">
        <ele>482</ele>
        <time>2016-07-30T09:29:36.029Z</time>
      </trkpt>
      <trkpt lat="43.16185" lon="5.98454">
        <ele>482</ele>
        <time>2016-07-30T09:29:37.029Z</time>
      </trkpt>
      <trkpt lat="43.16185" lon="5.98457">
        <ele>482</ele>
        <time>2016-07-30T09:29:38.029Z</time>
      </trkpt>
      <trkpt lat="43.16185" lon="5.98459">
        <ele>483</ele>
        <time>2016-07-30T09:29:39.029Z</time>
      </trkpt>
      <trkpt lat="43.16185" lon="5.98462">
        <ele>483</ele>
        <time>2016-07-30T09:29:40.029Z</time>
      </trkpt>
      <trkpt lat="43.16185" lon="5.98464">
        <ele>483</ele>
        <time>2016-07-30T09:29:41.029Z</time>
      </trkpt>
      <trkpt lat="43.16186" lon="5.98467">
        <ele>483</ele>
        <time>2016-07-30T09:29:42.029Z</time>
      </trkpt>
      <trkpt lat="43.16186" lon="5.9847">
        <ele>483</ele>
        <time>2016-07-30T09:29:43.029Z</time>
      </trkpt>
      <trkpt lat="43.16186" lon="5.98472">
        <ele>483</ele>
        <time>2016-07-30T09:29:44.029Z</time>
      </trkpt>
      <trkpt lat="43.16186" lon="5.98475">
        <ele>484</ele>
        <time>2016-07-30T09:29:45.029Z</time>
      </trkpt>
      <trkpt lat="43.16186" lon="5.98478">
        <ele>484</ele>
        <time>2016-07-30T09:29:46.029Z</time>
      </trkpt>
      <trkpt lat="43.16186" lon="5.9848">
        <ele>484</ele>
        <time>2016-07-30T09:29:47.029Z</time>
      </trkpt>
      <trkpt lat="43.16186" lon="5.98483">
        <ele>484</ele>
        <time>2016-07-30T09:29:48.029Z</time>
      </trkpt>
      <trkpt lat="43.16186" lon="5.98485">
        <ele>484</ele>
        <time>2016-07-30T09:29:49.029Z</time>
      </trkpt>
      <trkpt lat="43.16186" lon="5.98488">
        <ele>484</ele>
        <time>2016-07-30T09:29:50.029Z</time>
      </trkpt>
      <trkpt lat="43.16186" lon="5.9849">
        <ele>484</ele>
        <time>2016-07-30T09:29:51.029Z</time>
      </trkpt>
      <trkpt lat="43.16186" lon="5.98492">
        <ele>484</ele>
        <time>2016-07-30T09:29:52.029Z</time>
      </trkpt>
      <trkpt lat="43.16187" lon="5.98495">
        <ele>484</ele>
        <time>2016-07-30T09:29:53.029Z</time>
      </trkpt>
      <trkpt lat="43.16187" lon="5.98497">
        <ele>484</ele>
        <time>2016-07-30T09:29:54.029Z</time>
      </trkpt>
      <trkpt lat="43.16187" lon="5.98499">
        <ele>485</ele>
        <time>2016-07-30T09:29:55.029Z</time>
      </trkpt>
      <trkpt lat="43.16187" lon="5.98502">
        <ele>485</ele>
        <time>2016-07-30T09:29:56.029Z</time>
      </trkpt>
      <trkpt lat="43.16187" lon="5.98504">
        <ele>485</ele>
        <time>2016-07-30T09:29:57.029Z</time>
      </trkpt>
      <trkpt lat="43.16187" lon="5.98506">
        <ele>485</ele>
        <time>2016-07-30T09:29:58.029Z</time>
      </trkpt>
      <trkpt lat="43.16188" lon="5.98509">
        <ele>485</ele>
        <time>2016-07-30T09:29:59.029Z</time>
      </trkpt>
      <trkpt lat="43.16188" lon="5.98511">
        <ele>486</ele>
        <time>2016-07-30T09:30:00.029Z</time>
      </trkpt>
      <trkpt lat="43.16188" lon="5.98514">
        <ele>486</ele>
        <time>2016-07-30T09:30:01.029Z</time>
      </trkpt>
      <trkpt lat="43.16188" lon="5.98516">
        <ele>486</ele>
        <time>2016-07-30T09:30:02.029Z</time>
      </trkpt>
      <trkpt lat="43.16188" lon="5.98519">
        <ele>486</ele>
        <time>2016-07-30T09:30:03.029Z</time>
      </trkpt>
      <trkpt lat="43.16188" lon="5.98521">
        <ele>486</ele>
        <time>2016-07-30T09:30:04.029Z</time>
      </trkpt>
      <trkpt lat="43.16189" lon="5.98524">
        <ele>486</ele>
        <time>2016-07-30T09:30:05.029Z</time>
      </trkpt>
      <trkpt lat="43.16189" lon="5.98526">
        <ele>487</ele>
        <time>2016-07-30T09:30:06.029Z</time>
      </trkpt>
      <trkpt lat="43.16189" lon="5.98529">
        <ele>487</ele>
        <time>2016-07-30T09:30:07.029Z</time>
      </trkpt>
      <trkpt lat="43.16189" lon="5.98531">
        <ele>487</ele>
        <time>2016-07-30T09:30:08.029Z</time>
      </trkpt>
      <trkpt lat="43.16188" lon="5.98534">
        <ele>487</ele>
        <time>2016-07-30T09:30:09.029Z</time>
      </trkpt>
      <trkpt lat="43.16188" lon="5.98536">
        <ele>488</ele>
        <time>2016-07-30T09:30:10.029Z</time>
      </trkpt>
      <trkpt lat="43.16188" lon="5.98538">
        <ele>488</ele>
        <time>2016-07-30T09:30:11.029Z</time>
      </trkpt>
      <trkpt lat="43.16188" lon="5.98541">
        <ele>488</ele>
        <time>2016-07-30T09:30:12.029Z</time>
      </trkpt>
      <trkpt lat="43.16189" lon="5.98543">
        <ele>488</ele>
        <time>2016-07-30T09:30:13.029Z</time>
      </trkpt>
      <trkpt lat="43.16189" lon="5.98545">
        <ele>488</ele>
        <time>2016-07-30T09:30:14.029Z</time>
      </trkpt>
      <trkpt lat="43.16189" lon="5.98547">
        <ele>489</ele>
        <time>2016-07-30T09:30:15.029Z</time>
      </trkpt>
      <trkpt lat="43.16189" lon="5.98549">
        <ele>488</ele>
        <time>2016-07-30T09:30:16.029Z</time>
      </trkpt>
      <trkpt lat="43.16189" lon="5.98552">
        <ele>489</ele>
        <time>2016-07-30T09:30:17.029Z</time>
      </trkpt>
      <trkpt lat="43.16189" lon="5.98554">
        <ele>489</ele>
        <time>2016-07-30T09:30:18.029Z</time>
      </trkpt>
      <trkpt lat="43.16189" lon="5.98556">
        <ele>489</ele>
        <time>2016-07-30T09:30:19.029Z</time>
      </trkpt>
      <trkpt lat="43.16189" lon="5.98558">
        <ele>489</ele>
        <time>2016-07-30T09:30:20.029Z</time>
      </trkpt>
      <trkpt lat="43.16189" lon="5.9856">
        <ele>489</ele>
        <time>2016-07-30T09:30:21.029Z</time>
      </trkpt>
      <trkpt lat="43.16189" lon="5.98563">
        <ele>489</ele>
        <time>2016-07-30T09:30:22.029Z</time>
      </trkpt>
      <trkpt lat="43.16189" lon="5.98565">
        <ele>489</ele>
        <time>2016-07-30T09:30:23.029Z</time>
      </trkpt>
      <trkpt lat="43.16189" lon="5.98567">
        <ele>490</ele>
        <time>2016-07-30T09:30:24.029Z</time>
      </trkpt>
      <trkpt lat="43.16189" lon="5.9857">
        <ele>490</ele>
        <time>2016-07-30T09:30:25.029Z</time>
      </trkpt>
      <trkpt lat="43.1619" lon="5.98572">
        <ele>490</ele>
        <time>2016-07-30T09:30:26.029Z</time>
      </trkpt>
      <trkpt lat="43.1619" lon="5.98574">
        <ele>490</ele>
        <time>2016-07-30T09:30:27.029Z</time>
      </trkpt>
      <trkpt lat="43.1619" lon="5.98577">
        <ele>490</ele>
        <time>2016-07-30T09:30:28.029Z</time>
      </trkpt>
      <trkpt lat="43.1619" lon="5.98579">
        <ele>490</ele>
        <time>2016-07-30T09:30:29.029Z</time>
      </trkpt>
      <trkpt lat="43.1619" lon="5.98581">
        <ele>490</ele>
        <time>2016-07-30T09:30:30.029Z</time>
      </trkpt>
      <trkpt lat="43.1619" lon="5.98584">
        <ele>490</ele>
        <time>2016-07-30T09:30:31.029Z</time>
      </trkpt>
      <trkpt lat="43.1619" lon="5.98586">
        <ele>491</ele>
        <time>2016-07-30T09:30:32.029Z</time>
      </trkpt>
      <trkpt lat="43.16191" lon="5.98589">
        <ele>491</ele>
        <time>2016-07-30T09:30:33.029Z</time>
      </trkpt>
      <trkpt lat="43.16191" lon="5.98591">
        <ele>491</ele>
        <time>2016-07-30T09:30:34.029Z</time>
      </trkpt>
      <trkpt lat="43.16191" lon="5.98593">
        <ele>491</ele>
        <time>2016-07-30T09:30:35.029Z</time>
      </trkpt>
      <trkpt lat="43.16191" lon="5.98596">
        <ele>491</ele>
        <time>2016-07-30T09:30:36.029Z</time>
      </trkpt>
      <trkpt lat="43.16192" lon="5.98598">
        <ele>491</ele>
        <time>2016-07-30T09:30:37.029Z</time>
      </trkpt>
      <trkpt lat="43.16192" lon="5.98601">
        <ele>491</ele>
        <time>2016-07-30T09:30:38.029Z</time>
      </trkpt>
      <trkpt lat="43.16192" lon="5.98603">
        <ele>491</ele>
        <time>2016-07-30T09:30:39.029Z</time>
      </trkpt>
      <trkpt lat="43.16192" lon="5.98605">
        <ele>492</ele>
        <time>2016-07-30T09:30:40.029Z</time>
      </trkpt>
      <trkpt lat="43.16192" lon="5.98607">
        <ele>492</ele>
        <time>2016-07-30T09:30:41.029Z</time>
      </trkpt>
      <trkpt lat="43.16192" lon="5.98609">
        <ele>492</ele>
        <time>2016-07-30T09:30:42.029Z</time>
      </trkpt>
      <trkpt lat="43.16193" lon="5.98612">
        <ele>492</ele>
        <time>2016-07-30T09:30:43.029Z</time>
      </trkpt>
      <trkpt lat="43.16193" lon="5.98614">
        <ele>492</ele>
        <time>2016-07-30T09:30:44.029Z</time>
      </trkpt>
      <trkpt lat="43.16193" lon="5.98617">
        <ele>492</ele>
        <time>2016-07-30T09:30:45.029Z</time>
      </trkpt>
      <trkpt lat="43.16193" lon="5.98619">
        <ele>492</ele>
        <time>2016-07-30T09:30:46.029Z</time>
      </trkpt>
      <trkpt lat="43.16194" lon="5.98622">
        <ele>492</ele>
        <time>2016-07-30T09:30:47.029Z</time>
      </trkpt>
      <trkpt lat="43.16194" lon="5.98624">
        <ele>492</ele>
        <time>2016-07-30T09:30:48.029Z</time>
      </trkpt>
      <trkpt lat="43.16194" lon="5.98626">
        <ele>492</ele>
        <time>2016-07-30T09:30:49.029Z</time>
      </trkpt>
      <trkpt lat="43.16194" lon="5.98628">
        <ele>492</ele>
        <time>2016-07-30T09:30:50.029Z</time>
      </trkpt>
      <trkpt lat="43.16194" lon="5.98631">
        <ele>492</ele>
        <time>2016-07-30T09:30:51.029Z</time>
      </trkpt>
      <trkpt lat="43.16194" lon="5.98633">
        <ele>493</ele>
        <time>2016-07-30T09:30:52.029Z</time>
      </trkpt>
      <trkpt lat="43.16194" lon="5.98635">
        <ele>493</ele>
        <time>2016-07-30T09:30:53.029Z</time>
      </trkpt>
      <trkpt lat="43.16194" lon="5.98638">
        <ele>493</ele>
        <time>2016-07-30T09:30:54.029Z</time>
      </trkpt>
      <trkpt lat="43.16194" lon="5.9864">
        <ele>493</ele>
        <time>2016-07-30T09:30:55.029Z</time>
      </trkpt>
      <trkpt lat="43.16194" lon="5.98643">
        <ele>493</ele>
        <time>2016-07-30T09:30:56.029Z</time>
      </trkpt>
      <trkpt lat="43.16193" lon="5.98646">
        <ele>493</ele>
        <time>2016-07-30T09:30:57.029Z</time>
      </trkpt>
      <trkpt lat="43.16193" lon="5.98648">
        <ele>493</ele>
        <time>2016-07-30T09:30:58.029Z</time>
      </trkpt>
      <trkpt lat="43.16193" lon="5.98651">
        <ele>493</ele>
        <time>2016-07-30T09:30:59.029Z</time>
      </trkpt>
      <trkpt lat="43.16193" lon="5.98654">
        <ele>493</ele>
        <time>2016-07-30T09:31:00.029Z</time>
      </trkpt>
      <trkpt lat="43.16193" lon="5.98657">
        <ele>493</ele>
        <time>2016-07-30T09:31:01.029Z</time>
      </trkpt>
      <trkpt lat="43.16192" lon="5.98661">
        <ele>494</ele>
        <time>2016-07-30T09:31:02.029Z</time>
      </trkpt>
      <trkpt lat="43.16192" lon="5.98664">
        <ele>494</ele>
        <time>2016-07-30T09:31:03.029Z</time>
      </trkpt>
      <trkpt lat="43.16192" lon="5.98667">
        <ele>494</ele>
        <time>2016-07-30T09:31:04.029Z</time>
      </trkpt>
      <trkpt lat="43.16192" lon="5.9867">
        <ele>494</ele>
        <time>2016-07-30T09:31:05.029Z</time>
      </trkpt>
      <trkpt lat="43.16192" lon="5.98674">
        <ele>495</ele>
        <time>2016-07-30T09:31:06.029Z</time>
      </trkpt>
      <trkpt lat="43.16192" lon="5.98677">
        <ele>495</ele>
        <time>2016-07-30T09:31:07.029Z</time>
      </trkpt>
      <trkpt lat="43.16192" lon="5.9868">
        <ele>495</ele>
        <time>2016-07-30T09:31:08.029Z</time>
      </trkpt>
      <trkpt lat="43.16192" lon="5.98684">
        <ele>494</ele>
        <time>2016-07-30T09:31:09.029Z</time>
      </trkpt>
      <trkpt lat="43.16192" lon="5.98687">
        <ele>495</ele>
        <time>2016-07-30T09:31:10.029Z</time>
      </trkpt>
      <trkpt lat="43.16193" lon="5.9869">
        <ele>494</ele>
        <time>2016-07-30T09:31:11.029Z</time>
      </trkpt>
      <trkpt lat="43.16194" lon="5.98693">
        <ele>494</ele>
        <time>2016-07-30T09:31:12.029Z</time>
      </trkpt>
      <trkpt lat="43.16195" lon="5.98696">
        <ele>494</ele>
        <time>2016-07-30T09:31:13.029Z</time>
      </trkpt>
      <trkpt lat="43.16196" lon="5.987">
        <ele>494</ele>
        <time>2016-07-30T09:31:14.029Z</time>
      </trkpt>
      <trkpt lat="43.16197" lon="5.98703">
        <ele>494</ele>
        <time>2016-07-30T09:31:15.029Z</time>
      </trkpt>
      <trkpt lat="43.16198" lon="5.98706">
        <ele>494</ele>
        <time>2016-07-30T09:31:16.029Z</time>
      </trkpt>
      <trkpt lat="43.16199" lon="5.98709">
        <ele>495</ele>
        <time>2016-07-30T09:31:17.029Z</time>
      </trkpt>
      <trkpt lat="43.162" lon="5.98712">
        <ele>495</ele>
        <time>2016-07-30T09:31:18.029Z</time>
      </trkpt>
      <trkpt lat="43.16201" lon="5.98715">
        <ele>495</ele>
        <time>2016-07-30T09:31:19.029Z</time>
      </trkpt>
      <trkpt lat="43.16202" lon="5.98717">
        <ele>495</ele>
        <time>2016-07-30T09:31:20.029Z</time>
      </trkpt>
      <trkpt lat="43.16204" lon="5.9872">
        <ele>495</ele>
        <time>2016-07-30T09:31:21.029Z</time>
      </trkpt>
      <trkpt lat="43.16205" lon="5.98723">
        <ele>496</ele>
        <time>2016-07-30T09:31:22.029Z</time>
      </trkpt>
      <trkpt lat="43.16206" lon="5.98725">
        <ele>496</ele>
        <time>2016-07-30T09:31:23.029Z</time>
      </trkpt>
      <trkpt lat="43.16207" lon="5.98728">
        <ele>496</ele>
        <time>2016-07-30T09:31:24.029Z</time>
      </trkpt>
      <trkpt lat="43.16209" lon="5.9873">
        <ele>496</ele>
        <time>2016-07-30T09:31:25.029Z</time>
      </trkpt>
      <trkpt lat="43.1621" lon="5.98733">
        <ele>496</ele>
        <time>2016-07-30T09:31:26.029Z</time>
      </trkpt>
      <trkpt lat="43.1621" lon="5.98735">
        <ele>497</ele>
        <time>2016-07-30T09:31:27.029Z</time>
      </trkpt>
      <trkpt lat="43.16211" lon="5.98738">
        <ele>497</ele>
        <time>2016-07-30T09:31:28.029Z</time>
      </trkpt>
      <trkpt lat="43.16213" lon="5.9874">
        <ele>497</ele>
        <time>2016-07-30T09:31:29.029Z</time>
      </trkpt>
      <trkpt lat="43.16214" lon="5.98743">
        <ele>498</ele>
        <time>2016-07-30T09:31:30.029Z</time>
      </trkpt>
      <trkpt lat="43.16215" lon="5.98746">
        <ele>498</ele>
        <time>2016-07-30T09:31:31.029Z</time>
      </trkpt>
      <trkpt lat="43.16216" lon="5.98748">
        <ele>498</ele>
        <time>2016-07-30T09:31:32.029Z</time>
      </trkpt>
      <trkpt lat="43.16217" lon="5.98751">
        <ele>498</ele>
        <time>2016-07-30T09:31:33.029Z</time>
      </trkpt>
      <trkpt lat="43.16218" lon="5.98754">
        <ele>499</ele>
        <time>2016-07-30T09:31:34.029Z</time>
      </trkpt>
      <trkpt lat="43.16219" lon="5.98756">
        <ele>499</ele>
        <time>2016-07-30T09:31:35.029Z</time>
      </trkpt>
      <trkpt lat="43.1622" lon="5.98759">
        <ele>499</ele>
        <time>2016-07-30T09:31:36.029Z</time>
      </trkpt>
      <trkpt lat="43.16221" lon="5.98761">
        <ele>499</ele>
        <time>2016-07-30T09:31:37.029Z</time>
      </trkpt>
      <trkpt lat="43.16223" lon="5.98764">
        <ele>499</ele>
        <time>2016-07-30T09:31:38.029Z</time>
      </trkpt>
      <trkpt lat="43.16224" lon="5.98766">
        <ele>500</ele>
        <time>2016-07-30T09:31:39.029Z</time>
      </trkpt>
      <trkpt lat="43.16225" lon="5.98769">
        <ele>500</ele>
        <time>2016-07-30T09:31:40.029Z</time>
      </trkpt>
      <trkpt lat="43.16226" lon="5.98771">
        <ele>500</ele>
        <time>2016-07-30T09:31:41.029Z</time>
      </trkpt>
      <trkpt lat="43.16227" lon="5.98774">
        <ele>500</ele>
        <time>2016-07-30T09:31:42.029Z</time>
      </trkpt>
      <trkpt lat="43.16228" lon="5.98776">
        <ele>500</ele>
        <time>2016-07-30T09:31:43.029Z</time>
      </trkpt>
      <trkpt lat="43.16229" lon="5.98778">
        <ele>501</ele>
        <time>2016-07-30T09:31:44.029Z</time>
      </trkpt>
      <trkpt lat="43.1623" lon="5.98781">
        <ele>501</ele>
        <time>2016-07-30T09:31:45.029Z</time>
      </trkpt>
      <trkpt lat="43.16231" lon="5.98783">
        <ele>501</ele>
        <time>2016-07-30T09:31:46.029Z</time>
      </trkpt>
      <trkpt lat="43.16232" lon="5.98786">
        <ele>501</ele>
        <time>2016-07-30T09:31:47.029Z</time>
      </trkpt>
      <trkpt lat="43.16233" lon="5.98788">
        <ele>501</ele>
        <time>2016-07-30T09:31:48.029Z</time>
      </trkpt>
      <trkpt lat="43.16234" lon="5.98791">
        <ele>501</ele>
        <time>2016-07-30T09:31:49.029Z</time>
      </trkpt>
      <trkpt lat="43.16234" lon="5.98793">
        <ele>502</ele>
        <time>2016-07-30T09:31:50.029Z</time>
      </trkpt>
      <trkpt lat="43.16235" lon="5.98795">
        <ele>502</ele>
        <time>2016-07-30T09:31:51.029Z</time>
      </trkpt>
      <trkpt lat="43.16236" lon="5.98798">
        <ele>502</ele>
        <time>2016-07-30T09:31:52.029Z</time>
      </trkpt>
      <trkpt lat="43.16237" lon="5.988">
        <ele>502</ele>
        <time>2016-07-30T09:31:53.029Z</time>
      </trkpt>
      <trkpt lat="43.16238" lon="5.98802">
        <ele>502</ele>
        <time>2016-07-30T09:31:54.029Z</time>
      </trkpt>
      <trkpt lat="43.16239" lon="5.98805">
        <ele>503</ele>
        <time>2016-07-30T09:31:55.029Z</time>
      </trkpt>
      <trkpt lat="43.1624" lon="5.98807">
        <ele>503</ele>
        <time>2016-07-30T09:31:56.029Z</time>
      </trkpt>
      <trkpt lat="43.16241" lon="5.98809">
        <ele>503</ele>
        <time>2016-07-30T09:31:57.029Z</time>
      </trkpt>
      <trkpt lat="43.16242" lon="5.98812">
        <ele>503</ele>
        <time>2016-07-30T09:31:58.029Z</time>
      </trkpt>
      <trkpt lat="43.16243" lon="5.98814">
        <ele>503</ele>
        <time>2016-07-30T09:31:59.029Z</time>
      </trkpt>
      <trkpt lat="43.16244" lon="5.98817">
        <ele>503</ele>
        <time>2016-07-30T09:32:00.029Z</time>
      </trkpt>
      <trkpt lat="43.16244" lon="5.98819">
        <ele>503</ele>
        <time>2016-07-30T09:32:01.029Z</time>
      </trkpt>
      <trkpt lat="43.16245" lon="5.98822">
        <ele>503</ele>
        <time>2016-07-30T09:32:02.029Z</time>
      </trkpt>
      <trkpt lat="43.16246" lon="5.98824">
        <ele>503</ele>
        <time>2016-07-30T09:32:03.029Z</time>
      </trkpt>
      <trkpt lat="43.16246" lon="5.98826">
        <ele>503</ele>
        <time>2016-07-30T09:32:04.029Z</time>
      </trkpt>
      <trkpt lat="43.16247" lon="5.98829">
        <ele>503</ele>
        <time>2016-07-30T09:32:05.029Z</time>
      </trkpt>
      <trkpt lat="43.16248" lon="5.98831">
        <ele>503</ele>
        <time>2016-07-30T09:32:06.029Z</time>
      </trkpt>
      <trkpt lat="43.16249" lon="5.98833">
        <ele>504</ele>
        <time>2016-07-30T09:32:07.029Z</time>
      </trkpt>
      <trkpt lat="43.1625" lon="5.98836">
        <ele>504</ele>
        <time>2016-07-30T09:32:08.029Z</time>
      </trkpt>
      <trkpt lat="43.16251" lon="5.98838">
        <ele>504</ele>
        <time>2016-07-30T09:32:09.029Z</time>
      </trkpt>
      <trkpt lat="43.16252" lon="5.98841">
        <ele>504</ele>
        <time>2016-07-30T09:32:10.029Z</time>
      </trkpt>
      <trkpt lat="43.16253" lon="5.98843">
        <ele>504</ele>
        <time>2016-07-30T09:32:11.029Z</time>
      </trkpt>
      <trkpt lat="43.16254" lon="5.98845">
        <ele>504</ele>
        <time>2016-07-30T09:32:12.029Z</time>
      </trkpt>
      <trkpt lat="43.16255" lon="5.98848">
        <ele>505</ele>
        <time>2016-07-30T09:32:13.029Z</time>
      </trkpt>
      <trkpt lat="43.16256" lon="5.9885">
        <ele>505</ele>
        <time>2016-07-30T09:32:14.029Z</time>
      </trkpt>
      <trkpt lat="43.16257" lon="5.98852">
        <ele>505</ele>
        <time>2016-07-30T09:32:15.029Z</time>
      </trkpt>
      <trkpt lat="43.16258" lon="5.98855">
        <ele>505</ele>
        <time>2016-07-30T09:32:16.029Z</time>
      </trkpt>
      <trkpt lat="43.16258" lon="5.98857">
        <ele>506</ele>
        <time>2016-07-30T09:32:17.029Z</time>
      </trkpt>
      <trkpt lat="43.16259" lon="5.98859">
        <ele>506</ele>
        <time>2016-07-30T09:32:18.029Z</time>
      </trkpt>
      <trkpt lat="43.1626" lon="5.98862">
        <ele>506</ele>
        <time>2016-07-30T09:32:19.029Z</time>
      </trkpt>
      <trkpt lat="43.1626" lon="5.98864">
        <ele>506</ele>
        <time>2016-07-30T09:32:20.029Z</time>
      </trkpt>
      <trkpt lat="43.16261" lon="5.98867">
        <ele>507</ele>
        <time>2016-07-30T09:32:21.029Z</time>
      </trkpt>
      <trkpt lat="43.16262" lon="5.98869">
        <ele>507</ele>
        <time>2016-07-30T09:32:22.029Z</time>
      </trkpt>
      <trkpt lat="43.16263" lon="5.98871">
        <ele>507</ele>
        <time>2016-07-30T09:32:23.029Z</time>
      </trkpt>
      <trkpt lat="43.16264" lon="5.98874">
        <ele>507</ele>
        <time>2016-07-30T09:32:24.029Z</time>
      </trkpt>
      <trkpt lat="43.16265" lon="5.98876">
        <ele>508</ele>
        <time>2016-07-30T09:32:25.029Z</time>
      </trkpt>
      <trkpt lat="43.16266" lon="5.98878">
        <ele>508</ele>
        <time>2016-07-30T09:32:26.029Z</time>
      </trkpt>
      <trkpt lat="43.16267" lon="5.98881">
        <ele>508</ele>
        <time>2016-07-30T09:32:27.029Z</time>
      </trkpt>
      <trkpt lat="43.16267" lon="5.98883">
        <ele>508</ele>
        <time>2016-07-30T09:32:28.029Z</time>
      </trkpt>
      <trkpt lat="43.16268" lon="5.98885">
        <ele>508</ele>
        <time>2016-07-30T09:32:29.029Z</time>
      </trkpt>
      <trkpt lat="43.16269" lon="5.98888">
        <ele>508</ele>
        <time>2016-07-30T09:32:30.029Z</time>
      </trkpt>
      <trkpt lat="43.1627" lon="5.9889">
        <ele>509</ele>
        <time>2016-07-30T09:32:31.029Z</time>
      </trkpt>
      <trkpt lat="43.16271" lon="5.98892">
        <ele>509</ele>
        <time>2016-07-30T09:32:32.029Z</time>
      </trkpt>
      <trkpt lat="43.16272" lon="5.98894">
        <ele>509</ele>
        <time>2016-07-30T09:32:33.029Z</time>
      </trkpt>
      <trkpt lat="43.16273" lon="5.98897">
        <ele>509</ele>
        <time>2016-07-30T09:32:34.029Z</time>
      </trkpt>
      <trkpt lat="43.16274" lon="5.98899">
        <ele>509</ele>
        <time>2016-07-30T09:32:35.029Z</time>
      </trkpt>
      <trkpt lat="43.16274" lon="5.98902">
        <ele>509</ele>
        <time>2016-07-30T09:32:36.029Z</time>
      </trkpt>
      <trkpt lat="43.16275" lon="5.98904">
        <ele>510</ele>
        <time>2016-07-30T09:32:37.029Z</time>
      </trkpt>
      <trkpt lat="43.16276" lon="5.98907">
        <ele>510</ele>
        <time>2016-07-30T09:32:38.029Z</time>
      </trkpt>
      <trkpt lat="43.16277" lon="5.9891">
        <ele>510</ele>
        <time>2016-07-30T09:32:39.029Z</time>
      </trkpt>
      <trkpt lat="43.16278" lon="5.98912">
        <ele>510</ele>
        <time>2016-07-30T09:32:40.029Z</time>
      </trkpt>
      <trkpt lat="43.16279" lon="5.98915">
        <ele>510</ele>
        <time>2016-07-30T09:32:41.029Z</time>
      </trkpt>
      <trkpt lat="43.16279" lon="5.98917">
        <ele>510</ele>
        <time>2016-07-30T09:32:42.029Z</time>
      </trkpt>
      <trkpt lat="43.1628" lon="5.9892">
        <ele>510</ele>
        <time>2016-07-30T09:32:43.029Z</time>
      </trkpt>
      <trkpt lat="43.16281" lon="5.98923">
        <ele>510</ele>
        <time>2016-07-30T09:32:44.029Z</time>
      </trkpt>
      <trkpt lat="43.16282" lon="5.98925">
        <ele>510</ele>
        <time>2016-07-30T09:32:45.029Z</time>
      </trkpt>
      <trkpt lat="43.16283" lon="5.98928">
        <ele>510</ele>
        <time>2016-07-30T09:32:46.029Z</time>
      </trkpt>
      <trkpt lat="43.16285" lon="5.98931">
        <ele>510</ele>
        <time>2016-07-30T09:32:47.029Z</time>
      </trkpt>
      <trkpt lat="43.16286" lon="5.98934">
        <ele>510</ele>
        <time>2016-07-30T09:32:48.029Z</time>
      </trkpt>
      <trkpt lat="43.16288" lon="5.98937">
        <ele>510</ele>
        <time>2016-07-30T09:32:49.029Z</time>
      </trkpt>
      <trkpt lat="43.16289" lon="5.98939">
        <ele>510</ele>
        <time>2016-07-30T09:32:50.029Z</time>
      </trkpt>
      <trkpt lat="43.16291" lon="5.98942">
        <ele>510</ele>
        <time>2016-07-30T09:32:51.029Z</time>
      </trkpt>
      <trkpt lat="43.16293" lon="5.98945">
        <ele>511</ele>
        <time>2016-07-30T09:32:52.029Z</time>
      </trkpt>
      <trkpt lat="43.16296" lon="5.98947">
        <ele>511</ele>
        <time>2016-07-30T09:32:53.029Z</time>
      </trkpt>
      <trkpt lat="43.16298" lon="5.9895">
        <ele>511</ele>
        <time>2016-07-30T09:32:54.029Z</time>
      </trkpt>
      <trkpt lat="43.163" lon="5.98953">
        <ele>511</ele>
        <time>2016-07-30T09:32:55.029Z</time>
      </trkpt>
      <trkpt lat="43.16302" lon="5.98956">
        <ele>511</ele>
        <time>2016-07-30T09:32:56.029Z</time>
      </trkpt>
      <trkpt lat="43.16304" lon="5.98958">
        <ele>511</ele>
        <time>2016-07-30T09:32:57.029Z</time>
      </trkpt>
      <trkpt lat="43.16306" lon="5.98961">
        <ele>510</ele>
        <time>2016-07-30T09:32:58.029Z</time>
      </trkpt>
      <trkpt lat="43.16307" lon="5.98963">
        <ele>511</ele>
        <time>2016-07-30T09:32:59.029Z</time>
      </trkpt>
      <trkpt lat="43.16309" lon="5.98965">
        <ele>511</ele>
        <time>2016-07-30T09:33:00.029Z</time>
      </trkpt>
      <trkpt lat="43.1631" lon="5.98967">
        <ele>511</ele>
        <time>2016-07-30T09:33:01.029Z</time>
      </trkpt>
      <trkpt lat="43.16312" lon="5.98969">
        <ele>511</ele>
        <time>2016-07-30T09:33:02.029Z</time>
      </trkpt>
      <trkpt lat="43.16313" lon="5.9897">
        <ele>511</ele>
        <time>2016-07-30T09:33:03.029Z</time>
      </trkpt>
      <trkpt lat="43.16314" lon="5.98971">
        <ele>510</ele>
        <time>2016-07-30T09:33:04.029Z</time>
      </trkpt>
      <trkpt lat="43.16314" lon="5.9897">
        <ele>510</ele>
        <time>2016-07-30T09:33:05.029Z</time>
      </trkpt>
      <trkpt lat="43.16314" lon="5.9897">
        <ele>512</ele>
        <time>2016-07-30T09:33:06.029Z</time>
      </trkpt>
      <trkpt lat="43.16312" lon="5.9897">
        <ele>512</ele>
        <time>2016-07-30T09:33:07.029Z</time>
      </trkpt>
      <trkpt lat="43.1631" lon="5.98969">
        <ele>511</ele>
        <time>2016-07-30T09:33:08.029Z</time>
      </trkpt>
      <trkpt lat="43.16309" lon="5.98968">
        <ele>511</ele>
        <time>2016-07-30T09:33:09.029Z</time>
      </trkpt>
      <trkpt lat="43.16307" lon="5.98966">
        <ele>511</ele>
        <time>2016-07-30T09:33:10.029Z</time>
      </trkpt>
      <trkpt lat="43.16306" lon="5.98964">
        <ele>511</ele>
        <time>2016-07-30T09:33:11.029Z</time>
      </trkpt>
      <trkpt lat="43.16305" lon="5.98963">
        <ele>511</ele>
        <time>2016-07-30T09:33:12.029Z</time>
      </trkpt>
      <trkpt lat="43.16304" lon="5.98961">
        <ele>511</ele>
        <time>2016-07-30T09:33:13.029Z</time>
      </trkpt>
      <trkpt lat="43.16303" lon="5.98959">
        <ele>511</ele>
        <time>2016-07-30T09:33:14.029Z</time>
      </trkpt>
      <trkpt lat="43.16301" lon="5.98957">
        <ele>511</ele>
        <time>2016-07-30T09:33:15.029Z</time>
      </trkpt>
      <trkpt lat="43.163" lon="5.98956">
        <ele>511</ele>
        <time>2016-07-30T09:33:16.029Z</time>
      </trkpt>
      <trkpt lat="43.16299" lon="5.98954">
        <ele>511</ele>
        <time>2016-07-30T09:33:17.029Z</time>
      </trkpt>
      <trkpt lat="43.16298" lon="5.98953">
        <ele>511</ele>
        <time>2016-07-30T09:33:18.029Z</time>
      </trkpt>
      <trkpt lat="43.16297" lon="5.98952">
        <ele>511</ele>
        <time>2016-07-30T09:33:19.029Z</time>
      </trkpt>
      <trkpt lat="43.16297" lon="5.98951">
        <ele>511</ele>
        <time>2016-07-30T09:33:20.029Z</time>
      </trkpt>
      <trkpt lat="43.16297" lon="5.98951">
        <ele>511</ele>
        <time>2016-07-30T09:33:21.029Z</time>
      </trkpt>
      <trkpt lat="43.16297" lon="5.98951">
        <ele>511</ele>
        <time>2016-07-30T09:33:22.029Z</time>
      </trkpt>
      <trkpt lat="43.16297" lon="5.98951">
        <ele>511</ele>
        <time>2016-07-30T09:33:23.029Z</time>
      </trkpt>
      <trkpt lat="43.16297" lon="5.98951">
        <ele>511</ele>
        <time>2016-07-30T09:33:24.029Z</time>
      </trkpt>
      <trkpt lat="43.16297" lon="5.98951">
        <ele>511</ele>
        <time>2016-07-30T09:33:25.029Z</time>
      </trkpt>
      <trkpt lat="43.16297" lon="5.98951">
        <ele>511</ele>
        <time>2016-07-30T09:33:26.029Z</time>
      </trkpt>
      <trkpt lat="43.16293" lon="5.98947">
        <ele>509</ele>
        <time>2016-07-30T09:33:27.029Z</time>
      </trkpt>
      <trkpt lat="43.16292" lon="5.98945">
        <ele>509</ele>
        <time>2016-07-30T09:33:28.029Z</time>
      </trkpt>
      <trkpt lat="43.16291" lon="5.98942">
        <ele>510</ele>
        <time>2016-07-30T09:33:29.029Z</time>
      </trkpt>
      <trkpt lat="43.1629" lon="5.9894">
        <ele>510</ele>
        <time>2016-07-30T09:33:30.029Z</time>
      </trkpt>
      <trkpt lat="43.16288" lon="5.98938">
        <ele>510</ele>
        <time>2016-07-30T09:33:31.029Z</time>
      </trkpt>
      <trkpt lat="43.16286" lon="5.98936">
        <ele>510</ele>
        <time>2016-07-30T09:33:32.029Z</time>
      </trkpt>
      <trkpt lat="43.16285" lon="5.98933">
        <ele>510</ele>
        <time>2016-07-30T09:33:33.029Z</time>
      </trkpt>
      <trkpt lat="43.16284" lon="5.98931">
        <ele>510</ele>
        <time>2016-07-30T09:33:34.029Z</time>
      </trkpt>
      <trkpt lat="43.16283" lon="5.98928">
        <ele>510</ele>
        <time>2016-07-30T09:33:35.029Z</time>
      </trkpt>
      <trkpt lat="43.16282" lon="5.98925">
        <ele>510</ele>
        <time>2016-07-30T09:33:36.029Z</time>
      </trkpt>
      <trkpt lat="43.1628" lon="5.98922">
        <ele>510</ele>
        <time>2016-07-30T09:33:37.029Z</time>
      </trkpt>
      <trkpt lat="43.16279" lon="5.98919">
        <ele>510</ele>
        <time>2016-07-30T09:33:38.029Z</time>
      </trkpt>
      <trkpt lat="43.16278" lon="5.98915">
        <ele>510</ele>
        <time>2016-07-30T09:33:39.029Z</time>
      </trkpt>
      <trkpt lat="43.16276" lon="5.98912">
        <ele>510</ele>
        <time>2016-07-30T09:33:40.029Z</time>
      </trkpt>
      <trkpt lat="43.16275" lon="5.98908">
        <ele>511</ele>
        <time>2016-07-30T09:33:41.029Z</time>
      </trkpt>
      <trkpt lat="43.16274" lon="5.98904">
        <ele>510</ele>
        <time>2016-07-30T09:33:42.029Z</time>
      </trkpt>
      <trkpt lat="43.16272" lon="5.98899">
        <ele>510</ele>
        <time>2016-07-30T09:33:43.029Z</time>
      </trkpt>
      <trkpt lat="43.1627" lon="5.98895">
        <ele>510</ele>
        <time>2016-07-30T09:33:44.029Z</time>
      </trkpt>
      <trkpt lat="43.16269" lon="5.9889">
        <ele>510</ele>
        <time>2016-07-30T09:33:45.029Z</time>
      </trkpt>
      <trkpt lat="43.16268" lon="5.98886">
        <ele>510</ele>
        <time>2016-07-30T09:33:46.029Z</time>
      </trkpt>
      <trkpt lat="43.16266" lon="5.98882">
        <ele>510</ele>
        <time>2016-07-30T09:33:47.029Z</time>
      </trkpt>
      <trkpt lat="43.16265" lon="5.98878">
        <ele>510</ele>
        <time>2016-07-30T09:33:48.029Z</time>
      </trkpt>
      <trkpt lat="43.16263" lon="5.98873">
        <ele>509</ele>
        <time>2016-07-30T09:33:49.029Z</time>
      </trkpt>
      <trkpt lat="43.16261" lon="5.98868">
        <ele>509</ele>
        <time>2016-07-30T09:33:50.029Z</time>
      </trkpt>
      <trkpt lat="43.16258" lon="5.98862">
        <ele>508</ele>
        <time>2016-07-30T09:33:51.029Z</time>
      </trkpt>
      <trkpt lat="43.16256" lon="5.98855">
        <ele>507</ele>
        <time>2016-07-30T09:33:52.029Z</time>
      </trkpt>
      <trkpt lat="43.16254" lon="5.98848">
        <ele>507</ele>
        <time>2016-07-30T09:33:53.029Z</time>
      </trkpt>
      <trkpt lat="43.16251" lon="5.9884">
        <ele>506</ele>
        <time>2016-07-30T09:33:54.029Z</time>
      </trkpt>
      <trkpt lat="43.16248" lon="5.98833">
        <ele>506</ele>
        <time>2016-07-30T09:33:55.029Z</time>
      </trkpt>
      <trkpt lat="43.16245" lon="5.98825">
        <ele>505</ele>
        <time>2016-07-30T09:33:56.029Z</time>
      </trkpt>
      <trkpt lat="43.16242" lon="5.98818">
        <ele>505</ele>
        <time>2016-07-30T09:33:57.029Z</time>
      </trkpt>
      <trkpt lat="43.16239" lon="5.98811">
        <ele>504</ele>
        <time>2016-07-30T09:33:58.029Z</time>
      </trkpt>
      <trkpt lat="43.16237" lon="5.98804">
        <ele>504</ele>
        <time>2016-07-30T09:33:59.029Z</time>
      </trkpt>
      <trkpt lat="43.16234" lon="5.98797">
        <ele>503</ele>
        <time>2016-07-30T09:34:00.029Z</time>
      </trkpt>
      <trkpt lat="43.16231" lon="5.9879">
        <ele>503</ele>
        <time>2016-07-30T09:34:01.029Z</time>
      </trkpt>
      <trkpt lat="43.16228" lon="5.98783">
        <ele>502</ele>
        <time>2016-07-30T09:34:02.029Z</time>
      </trkpt>
      <trkpt lat="43.16225" lon="5.98775">
        <ele>501</ele>
        <time>2016-07-30T09:34:03.029Z</time>
      </trkpt>
      <trkpt lat="43.16222" lon="5.98767">
        <ele>501</ele>
        <time>2016-07-30T09:34:04.029Z</time>
      </trkpt>
      <trkpt lat="43.16219" lon="5.98758">
        <ele>500</ele>
        <time>2016-07-30T09:34:05.029Z</time>
      </trkpt>
      <trkpt lat="43.16215" lon="5.98749">
        <ele>499</ele>
        <time>2016-07-30T09:34:06.029Z</time>
      </trkpt>
      <trkpt lat="43.16211" lon="5.98739">
        <ele>499</ele>
        <time>2016-07-30T09:34:07.029Z</time>
      </trkpt>
      <trkpt lat="43.16207" lon="5.98729">
        <ele>498</ele>
        <time>2016-07-30T09:34:08.029Z</time>
      </trkpt>
      <trkpt lat="43.16203" lon="5.98718">
        <ele>497</ele>
        <time>2016-07-30T09:34:09.029Z</time>
      </trkpt>
      <trkpt lat="43.16199" lon="5.98707">
        <ele>497</ele>
        <time>2016-07-30T09:34:10.029Z</time>
      </trkpt>
      <trkpt lat="43.16195" lon="5.98695">
        <ele>497</ele>
        <time>2016-07-30T09:34:11.029Z</time>
      </trkpt>
      <trkpt lat="43.16194" lon="5.98682">
        <ele>496</ele>
        <time>2016-07-30T09:34:12.029Z</time>
      </trkpt>
      <trkpt lat="43.16194" lon="5.9867">
        <ele>495</ele>
        <time>2016-07-30T09:34:13.029Z</time>
      </trkpt>
      <trkpt lat="43.16195" lon="5.98657">
        <ele>495</ele>
        <time>2016-07-30T09:34:14.029Z</time>
      </trkpt>
      <trkpt lat="43.16195" lon="5.98645">
        <ele>494</ele>
        <time>2016-07-30T09:34:15.029Z</time>
      </trkpt>
      <trkpt lat="43.16195" lon="5.98633">
        <ele>494</ele>
        <time>2016-07-30T09:34:16.029Z</time>
      </trkpt>
      <trkpt lat="43.16194" lon="5.9862">
        <ele>493</ele>
        <time>2016-07-30T09:34:17.029Z</time>
      </trkpt>
      <trkpt lat="43.16193" lon="5.98607">
        <ele>492</ele>
        <time>2016-07-30T09:34:18.029Z</time>
      </trkpt>
      <trkpt lat="43.16192" lon="5.98594">
        <ele>491</ele>
        <time>2016-07-30T09:34:19.029Z</time>
      </trkpt>
      <trkpt lat="43.16192" lon="5.9858">
        <ele>491</ele>
        <time>2016-07-30T09:34:20.029Z</time>
      </trkpt>
      <trkpt lat="43.16191" lon="5.98566">
        <ele>490</ele>
        <time>2016-07-30T09:34:21.029Z</time>
      </trkpt>
      <trkpt lat="43.1619" lon="5.98552">
        <ele>489</ele>
        <time>2016-07-30T09:34:22.029Z</time>
      </trkpt>
      <trkpt lat="43.16189" lon="5.98537">
        <ele>488</ele>
        <time>2016-07-30T09:34:23.029Z</time>
      </trkpt>
      <trkpt lat="43.16188" lon="5.98522">
        <ele>487</ele>
        <time>2016-07-30T09:34:24.029Z</time>
      </trkpt>
      <trkpt lat="43.16187" lon="5.98507">
        <ele>486</ele>
        <time>2016-07-30T09:34:25.029Z</time>
      </trkpt>
      <trkpt lat="43.16187" lon="5.98491">
        <ele>485</ele>
        <time>2016-07-30T09:34:26.029Z</time>
      </trkpt>
      <trkpt lat="43.16186" lon="5.98475">
        <ele>484</ele>
        <time>2016-07-30T09:34:27.029Z</time>
      </trkpt>
      <trkpt lat="43.16185" lon="5.98459">
        <ele>483</ele>
        <time>2016-07-30T09:34:28.029Z</time>
      </trkpt>
      <trkpt lat="43.16184" lon="5.98443">
        <ele>482</ele>
        <time>2016-07-30T09:34:29.029Z</time>
      </trkpt>
      <trkpt lat="43.16184" lon="5.98427">
        <ele>481</ele>
        <time>2016-07-30T09:34:30.029Z</time>
      </trkpt>
      <trkpt lat="43.16185" lon="5.9841">
        <ele>479</ele>
        <time>2016-07-30T09:34:31.029Z</time>
      </trkpt>
      <trkpt lat="43.16188" lon="5.98393">
        <ele>477</ele>
        <time>2016-07-30T09:34:32.029Z</time>
      </trkpt>
      <trkpt lat="43.16193" lon="5.98376">
        <ele>476</ele>
        <time>2016-07-30T09:34:33.029Z</time>
      </trkpt>
      <trkpt lat="43.16198" lon="5.98359">
        <ele>475</ele>
        <time>2016-07-30T09:34:34.029Z</time>
      </trkpt>
      <trkpt lat="43.16202" lon="5.98342">
        <ele>474</ele>
        <time>2016-07-30T09:34:35.029Z</time>
      </trkpt>
      <trkpt lat="43.16207" lon="5.98326">
        <ele>473</ele>
        <time>2016-07-30T09:34:36.029Z</time>
      </trkpt>
      <trkpt lat="43.1621" lon="5.98308">
        <ele>472</ele>
        <time>2016-07-30T09:34:37.029Z</time>
      </trkpt>
      <trkpt lat="43.16212" lon="5.9829">
        <ele>472</ele>
        <time>2016-07-30T09:34:38.029Z</time>
      </trkpt>
      <trkpt lat="43.16214" lon="5.98272">
        <ele>471</ele>
        <time>2016-07-30T09:34:39.029Z</time>
      </trkpt>
      <trkpt lat="43.16215" lon="5.98253">
        <ele>470</ele>
        <time>2016-07-30T09:34:40.029Z</time>
      </trkpt>
      <trkpt lat="43.16215" lon="5.98234">
        <ele>468</ele>
        <time>2016-07-30T09:34:41.029Z</time>
      </trkpt>
      <trkpt lat="43.16215" lon="5.98215">
        <ele>467</ele>
        <time>2016-07-30T09:34:42.029Z</time>
      </trkpt>
      <trkpt lat="43.16215" lon="5.98197">
        <ele>466</ele>
        <time>2016-07-30T09:34:43.029Z</time>
      </trkpt>
      <trkpt lat="43.16215" lon="5.98178">
        <ele>465</ele>
        <time>2016-07-30T09:34:44.029Z</time>
      </trkpt>
      <trkpt lat="43.16217" lon="5.98159">
        <ele>465</ele>
        <time>2016-07-30T09:34:45.029Z</time>
      </trkpt>
      <trkpt lat="43.1622" lon="5.98141">
        <ele>464</ele>
        <time>2016-07-30T09:34:46.029Z</time>
      </trkpt>
      <trkpt lat="43.16225" lon="5.98123">
        <ele>462</ele>
        <time>2016-07-30T09:34:47.029Z</time>
      </trkpt>
      <trkpt lat="43.1623" lon="5.98106">
        <ele>462</ele>
        <time>2016-07-30T09:34:48.029Z</time>
      </trkpt>
      <trkpt lat="43.16237" lon="5.98089">
        <ele>462</ele>
        <time>2016-07-30T09:34:49.029Z</time>
      </trkpt>
      <trkpt lat="43.16244" lon="5.98075">
        <ele>461</ele>
        <time>2016-07-30T09:34:50.029Z</time>
      </trkpt>
      <trkpt lat="43.16251" lon="5.98062">
        <ele>459</ele>
        <time>2016-07-30T09:34:51.029Z</time>
      </trkpt>
      <trkpt lat="43.16257" lon="5.98052">
        <ele>459</ele>
        <time>2016-07-30T09:34:52.029Z</time>
      </trkpt>
      <trkpt lat="43.1626" lon="5.98043">
        <ele>459</ele>
        <time>2016-07-30T09:34:53.029Z</time>
      </trkpt>
      <trkpt lat="43.16262" lon="5.98035">
        <ele>454</ele>
        <time>2016-07-30T09:34:54.029Z</time>
      </trkpt>
      <trkpt lat="43.16263" lon="5.98029">
        <ele>451</ele>
        <time>2016-07-30T09:34:55.029Z</time>
      </trkpt>
      <trkpt lat="43.16264" lon="5.98024">
        <ele>452</ele>
        <time>2016-07-30T09:34:56.029Z</time>
      </trkpt>
      <trkpt lat="43.16263" lon="5.98019">
        <ele>451</ele>
        <time>2016-07-30T09:34:57.029Z</time>
      </trkpt>
      <trkpt lat="43.16262" lon="5.98015">
        <ele>448</ele>
        <time>2016-07-30T09:34:58.029Z</time>
      </trkpt>
      <trkpt lat="43.1626" lon="5.98016">
        <ele>443</ele>
        <time>2016-07-30T09:34:59.029Z</time>
      </trkpt>
      <trkpt lat="43.16255" lon="5.98023">
        <ele>437</ele>
        <time>2016-07-30T09:35:00.029Z</time>
      </trkpt>
      <trkpt lat="43.16249" lon="5.98034">
        <ele>434</ele>
        <time>2016-07-30T09:35:01.029Z</time>
      </trkpt>
      <trkpt lat="43.16244" lon="5.98045">
        <ele>431</ele>
        <time>2016-07-30T09:35:02.029Z</time>
      </trkpt>
      <trkpt lat="43.16239" lon="5.98055">
        <ele>430</ele>
        <time>2016-07-30T09:35:03.029Z</time>
      </trkpt>
      <trkpt lat="43.16234" lon="5.98064">
        <ele>429</ele>
        <time>2016-07-30T09:35:04.029Z</time>
      </trkpt>
      <trkpt lat="43.16227" lon="5.98074">
        <ele>429</ele>
        <time>2016-07-30T09:35:05.029Z</time>
      </trkpt>
      <trkpt lat="43.16218" lon="5.98083">
        <ele>429</ele>
        <time>2016-07-30T09:35:06.029Z</time>
      </trkpt>
      <trkpt lat="43.1621" lon="5.98094">
        <ele>429</ele>
        <time>2016-07-30T09:35:07.029Z</time>
      </trkpt>
      <trkpt lat="43.16204" lon="5.98106">
        <ele>429</ele>
        <time>2016-07-30T09:35:08.029Z</time>
      </trkpt>
      <trkpt lat="43.16199" lon="5.98121">
        <ele>430</ele>
        <time>2016-07-30T09:35:09.029Z</time>
      </trkpt>
      <trkpt lat="43.16194" lon="5.98137">
        <ele>432</ele>
        <time>2016-07-30T09:35:10.029Z</time>
      </trkpt>
      <trkpt lat="43.16189" lon="5.98153">
        <ele>431</ele>
        <time>2016-07-30T09:35:11.029Z</time>
      </trkpt>
      <trkpt lat="43.16184" lon="5.98168">
        <ele>430</ele>
        <time>2016-07-30T09:35:12.029Z</time>
      </trkpt>
      <trkpt lat="43.16177" lon="5.98183">
        <ele>430</ele>
        <time>2016-07-30T09:35:13.029Z</time>
      </trkpt>
      <trkpt lat="43.1617" lon="5.98198">
        <ele>429</ele>
        <time>2016-07-30T09:35:14.029Z</time>
      </trkpt>
      <trkpt lat="43.16164" lon="5.98213">
        <ele>428</ele>
        <time>2016-07-30T09:35:15.029Z</time>
      </trkpt>
      <trkpt lat="43.16157" lon="5.98229">
        <ele>426</ele>
        <time>2016-07-30T09:35:16.029Z</time>
      </trkpt>
      <trkpt lat="43.16149" lon="5.98245">
        <ele>426</ele>
        <time>2016-07-30T09:35:17.029Z</time>
      </trkpt>
      <trkpt lat="43.16142" lon="5.98261">
        <ele>424</ele>
        <time>2016-07-30T09:35:18.029Z</time>
      </trkpt>
      <trkpt lat="43.16135" lon="5.98277">
        <ele>423</ele>
        <time>2016-07-30T09:35:19.029Z</time>
      </trkpt>
      <trkpt lat="43.16128" lon="5.98293">
        <ele>421</ele>
        <time>2016-07-30T09:35:20.029Z</time>
      </trkpt>
      <trkpt lat="43.16121" lon="5.98309">
        <ele>420</ele>
        <time>2016-07-30T09:35:21.029Z</time>
      </trkpt>
      <trkpt lat="43.16113" lon="5.98326">
        <ele>418</ele>
        <time>2016-07-30T09:35:22.029Z</time>
      </trkpt>
      <trkpt lat="43.16105" lon="5.98342">
        <ele>417</ele>
        <time>2016-07-30T09:35:23.029Z</time>
      </trkpt>
      <trkpt lat="43.16096" lon="5.98359">
        <ele>416</ele>
        <time>2016-07-30T09:35:24.029Z</time>
      </trkpt>
      <trkpt lat="43.16088" lon="5.98376">
        <ele>415</ele>
        <time>2016-07-30T09:35:25.029Z</time>
      </trkpt>
      <trkpt lat="43.1608" lon="5.98394">
        <ele>413</ele>
        <time>2016-07-30T09:35:26.029Z</time>
      </trkpt>
      <trkpt lat="43.16072" lon="5.98413">
        <ele>412</ele>
        <time>2016-07-30T09:35:27.029Z</time>
      </trkpt>
      <trkpt lat="43.16065" lon="5.98432">
        <ele>411</ele>
        <time>2016-07-30T09:35:28.029Z</time>
      </trkpt>
      <trkpt lat="43.16059" lon="5.98451">
        <ele>410</ele>
        <time>2016-07-30T09:35:29.029Z</time>
      </trkpt>
      <trkpt lat="43.16053" lon="5.98471">
        <ele>409</ele>
        <time>2016-07-30T09:35:30.029Z</time>
      </trkpt>
      <trkpt lat="43.16047" lon="5.9849">
        <ele>407</ele>
        <time>2016-07-30T09:35:31.029Z</time>
      </trkpt>
      <trkpt lat="43.16041" lon="5.98508">
        <ele>405</ele>
        <time>2016-07-30T09:35:32.029Z</time>
      </trkpt>
      <trkpt lat="43.16037" lon="5.98524">
        <ele>405</ele>
        <time>2016-07-30T09:35:33.029Z</time>
      </trkpt>
      <trkpt lat="43.16033" lon="5.98537">
        <ele>406</ele>
        <time>2016-07-30T09:35:34.029Z</time>
      </trkpt>
      <trkpt lat="43.16029" lon="5.98546">
        <ele>408</ele>
        <time>2016-07-30T09:35:35.029Z</time>
      </trkpt>
      <trkpt lat="43.16024" lon="5.98552">
        <ele>406</ele>
        <time>2016-07-30T09:35:36.029Z</time>
      </trkpt>
      <trkpt lat="43.16019" lon="5.98553">
        <ele>405</ele>
        <time>2016-07-30T09:35:37.029Z</time>
      </trkpt>
      <trkpt lat="43.16016" lon="5.9855">
        <ele>405</ele>
        <time>2016-07-30T09:35:38.029Z</time>
      </trkpt>
      <trkpt lat="43.16016" lon="5.98544">
        <ele>405</ele>
        <time>2016-07-30T09:35:39.029Z</time>
      </trkpt>
      <trkpt lat="43.16017" lon="5.98537">
        <ele>405</ele>
        <time>2016-07-30T09:35:40.029Z</time>
      </trkpt>
      <trkpt lat="43.1602" lon="5.98529">
        <ele>404</ele>
        <time>2016-07-30T09:35:41.029Z</time>
      </trkpt>
      <trkpt lat="43.16023" lon="5.98521">
        <ele>403</ele>
        <time>2016-07-30T09:35:42.029Z</time>
      </trkpt>
      <trkpt lat="43.16025" lon="5.98512">
        <ele>403</ele>
        <time>2016-07-30T09:35:43.029Z</time>
      </trkpt>
      <trkpt lat="43.16027" lon="5.98503">
        <ele>402</ele>
        <time>2016-07-30T09:35:44.029Z</time>
      </trkpt>
      <trkpt lat="43.16029" lon="5.98493">
        <ele>402</ele>
        <time>2016-07-30T09:35:45.029Z</time>
      </trkpt>
      <trkpt lat="43.16029" lon="5.98482">
        <ele>402</ele>
        <time>2016-07-30T09:35:46.029Z</time>
      </trkpt>
      <trkpt lat="43.16028" lon="5.98471">
        <ele>401</ele>
        <time>2016-07-30T09:35:47.029Z</time>
      </trkpt>
      <trkpt lat="43.16025" lon="5.98459">
        <ele>400</ele>
        <time>2016-07-30T09:35:48.029Z</time>
      </trkpt>
      <trkpt lat="43.16021" lon="5.98448">
        <ele>399</ele>
        <time>2016-07-30T09:35:49.029Z</time>
      </trkpt>
      <trkpt lat="43.16017" lon="5.98435">
        <ele>398</ele>
        <time>2016-07-30T09:35:50.029Z</time>
      </trkpt>
      <trkpt lat="43.16013" lon="5.98422">
        <ele>396</ele>
        <time>2016-07-30T09:35:51.029Z</time>
      </trkpt>
      <trkpt lat="43.16009" lon="5.98407">
        <ele>395</ele>
        <time>2016-07-30T09:35:52.029Z</time>
      </trkpt>
      <trkpt lat="43.16007" lon="5.98392">
        <ele>394</ele>
        <time>2016-07-30T09:35:53.029Z</time>
      </trkpt>
      <trkpt lat="43.16005" lon="5.98376">
        <ele>393</ele>
        <time>2016-07-30T09:35:54.029Z</time>
      </trkpt>
      <trkpt lat="43.16005" lon="5.98359">
        <ele>392</ele>
        <time>2016-07-30T09:35:55.029Z</time>
      </trkpt>
      <trkpt lat="43.16007" lon="5.98342">
        <ele>390</ele>
        <time>2016-07-30T09:35:56.029Z</time>
      </trkpt>
      <trkpt lat="43.16009" lon="5.98324">
        <ele>389</ele>
        <time>2016-07-30T09:35:57.029Z</time>
      </trkpt>
      <trkpt lat="43.16011" lon="5.98306">
        <ele>388</ele>
        <time>2016-07-30T09:35:58.029Z</time>
      </trkpt>
      <trkpt lat="43.16012" lon="5.98287">
        <ele>387</ele>
        <time>2016-07-30T09:35:59.029Z</time>
      </trkpt>
      <trkpt lat="43.16013" lon="5.98269">
        <ele>386</ele>
        <time>2016-07-30T09:36:00.029Z</time>
      </trkpt>
      <trkpt lat="43.16011" lon="5.9825">
        <ele>384</ele>
        <time>2016-07-30T09:36:01.029Z</time>
      </trkpt>
      <trkpt lat="43.16008" lon="5.98231">
        <ele>382</ele>
        <time>2016-07-30T09:36:02.029Z</time>
      </trkpt>
      <trkpt lat="43.16003" lon="5.98213">
        <ele>381</ele>
        <time>2016-07-30T09:36:03.029Z</time>
      </trkpt>
      <trkpt lat="43.15998" lon="5.98195">
        <ele>379</ele>
        <time>2016-07-30T09:36:04.029Z</time>
      </trkpt>
      <trkpt lat="43.15994" lon="5.98176">
        <ele>377</ele>
        <time>2016-07-30T09:36:05.029Z</time>
      </trkpt>
      <trkpt lat="43.15992" lon="5.98156">
        <ele>376</ele>
        <time>2016-07-30T09:36:06.029Z</time>
      </trkpt>
      <trkpt lat="43.1599" lon="5.98136">
        <ele>375</ele>
        <time>2016-07-30T09:36:07.029Z</time>
      </trkpt>
      <trkpt lat="43.15988" lon="5.98117">
        <ele>374</ele>
        <time>2016-07-30T09:36:08.029Z</time>
      </trkpt>
      <trkpt lat="43.15988" lon="5.981">
        <ele>373</ele>
        <time>2016-07-30T09:36:09.029Z</time>
      </trkpt>
      <trkpt lat="43.1599" lon="5.98083">
        <ele>371</ele>
        <time>2016-07-30T09:36:10.029Z</time>
      </trkpt>
      <trkpt lat="43.15993" lon="5.98066">
        <ele>370</ele>
        <time>2016-07-30T09:36:11.029Z</time>
      </trkpt>
      <trkpt lat="43.15998" lon="5.9805">
        <ele>369</ele>
        <time>2016-07-30T09:36:12.029Z</time>
      </trkpt>
      <trkpt lat="43.16003" lon="5.98033">
        <ele>368</ele>
        <time>2016-07-30T09:36:13.029Z</time>
      </trkpt>
      <trkpt lat="43.16009" lon="5.98016">
        <ele>367</ele>
        <time>2016-07-30T09:36:14.029Z</time>
      </trkpt>
      <trkpt lat="43.16015" lon="5.97999">
        <ele>365</ele>
        <time>2016-07-30T09:36:15.029Z</time>
      </trkpt>
      <trkpt lat="43.16022" lon="5.97982">
        <ele>364</ele>
        <time>2016-07-30T09:36:16.029Z</time>
      </trkpt>
      <trkpt lat="43.16029" lon="5.97965">
        <ele>364</ele>
        <time>2016-07-30T09:36:17.029Z</time>
      </trkpt>
      <trkpt lat="43.16034" lon="5.97948">
        <ele>363</ele>
        <time>2016-07-30T09:36:18.029Z</time>
      </trkpt>
      <trkpt lat="43.16038" lon="5.97929">
        <ele>362</ele>
        <time>2016-07-30T09:36:19.029Z</time>
      </trkpt>
      <trkpt lat="43.16041" lon="5.97909">
        <ele>360</ele>
        <time>2016-07-30T09:36:20.029Z</time>
      </trkpt>
      <trkpt lat="43.16043" lon="5.9789">
        <ele>358</ele>
        <time>2016-07-30T09:36:21.029Z</time>
      </trkpt>
      <trkpt lat="43.16044" lon="5.9787">
        <ele>355</ele>
        <time>2016-07-30T09:36:22.029Z</time>
      </trkpt>
      <trkpt lat="43.16044" lon="5.97851">
        <ele>352</ele>
        <time>2016-07-30T09:36:23.029Z</time>
      </trkpt>
      <trkpt lat="43.16042" lon="5.97832">
        <ele>350</ele>
        <time>2016-07-30T09:36:24.029Z</time>
      </trkpt>
      <trkpt lat="43.16041" lon="5.97813">
        <ele>349</ele>
        <time>2016-07-30T09:36:25.029Z</time>
      </trkpt>
      <trkpt lat="43.1604" lon="5.97795">
        <ele>349</ele>
        <time>2016-07-30T09:36:26.029Z</time>
      </trkpt>
      <trkpt lat="43.16041" lon="5.97777">
        <ele>347</ele>
        <time>2016-07-30T09:36:27.029Z</time>
      </trkpt>
      <trkpt lat="43.16045" lon="5.9776">
        <ele>344</ele>
        <time>2016-07-30T09:36:28.029Z</time>
      </trkpt>
      <trkpt lat="43.1605" lon="5.97743">
        <ele>343</ele>
        <time>2016-07-30T09:36:29.029Z</time>
      </trkpt>
      <trkpt lat="43.16056" lon="5.97725">
        <ele>342</ele>
        <time>2016-07-30T09:36:30.029Z</time>
      </trkpt>
      <trkpt lat="43.16061" lon="5.97707">
        <ele>341</ele>
        <time>2016-07-30T09:36:31.029Z</time>
      </trkpt>
      <trkpt lat="43.16066" lon="5.97689">
        <ele>339</ele>
        <time>2016-07-30T09:36:32.029Z</time>
      </trkpt>
      <trkpt lat="43.16071" lon="5.97671">
        <ele>338</ele>
        <time>2016-07-30T09:36:33.029Z</time>
      </trkpt>
      <trkpt lat="43.16076" lon="5.97652">
        <ele>337</ele>
        <time>2016-07-30T09:36:34.029Z</time>
      </trkpt>
      <trkpt lat="43.16081" lon="5.97633">
        <ele>336</ele>
        <time>2016-07-30T09:36:35.029Z</time>
      </trkpt>
      <trkpt lat="43.16086" lon="5.97615">
        <ele>336</ele>
        <time>2016-07-30T09:36:36.029Z</time>
      </trkpt>
      <trkpt lat="43.16092" lon="5.976">
        <ele>335</ele>
        <time>2016-07-30T09:36:37.029Z</time>
      </trkpt>
      <trkpt lat="43.16097" lon="5.97588">
        <ele>331</ele>
        <time>2016-07-30T09:36:38.029Z</time>
      </trkpt>
      <trkpt lat="43.161" lon="5.97578">
        <ele>328</ele>
        <time>2016-07-30T09:36:39.029Z</time>
      </trkpt>
      <trkpt lat="43.16103" lon="5.97568">
        <ele>324</ele>
        <time>2016-07-30T09:36:40.029Z</time>
      </trkpt>
      <trkpt lat="43.16105" lon="5.97559">
        <ele>320</ele>
        <time>2016-07-30T09:36:41.029Z</time>
      </trkpt>
      <trkpt lat="43.16108" lon="5.97552">
        <ele>319</ele>
        <time>2016-07-30T09:36:42.029Z</time>
      </trkpt>
      <trkpt lat="43.16111" lon="5.97546">
        <ele>317</ele>
        <time>2016-07-30T09:36:43.029Z</time>
      </trkpt>
      <trkpt lat="43.1611" lon="5.97545">
        <ele>311</ele>
        <time>2016-07-30T09:36:44.029Z</time>
      </trkpt>
      <trkpt lat="43.16108" lon="5.9755">
        <ele>304</ele>
        <time>2016-07-30T09:36:45.029Z</time>
      </trkpt>
      <trkpt lat="43.16103" lon="5.97559">
        <ele>302</ele>
        <time>2016-07-30T09:36:46.029Z</time>
      </trkpt>
      <trkpt lat="43.16099" lon="5.97568">
        <ele>297</ele>
        <time>2016-07-30T09:36:47.029Z</time>
      </trkpt>
      <trkpt lat="43.16096" lon="5.97578">
        <ele>296</ele>
        <time>2016-07-30T09:36:48.029Z</time>
      </trkpt>
      <trkpt lat="43.16094" lon="5.97587">
        <ele>294</ele>
        <time>2016-07-30T09:36:49.029Z</time>
      </trkpt>
      <trkpt lat="43.16092" lon="5.97596">
        <ele>291</ele>
        <time>2016-07-30T09:36:50.029Z</time>
      </trkpt>
      <trkpt lat="43.1609" lon="5.97605">
        <ele>289</ele>
        <time>2016-07-30T09:36:51.029Z</time>
      </trkpt>
      <trkpt lat="43.16087" lon="5.97613">
        <ele>284</ele>
        <time>2016-07-30T09:36:52.029Z</time>
      </trkpt>
      <trkpt lat="43.16083" lon="5.97621">
        <ele>281</ele>
        <time>2016-07-30T09:36:53.029Z</time>
      </trkpt>
      <trkpt lat="43.16078" lon="5.97629">
        <ele>279</ele>
        <time>2016-07-30T09:36:54.029Z</time>
      </trkpt>
      <trkpt lat="43.16072" lon="5.97638">
        <ele>276</ele>
        <time>2016-07-30T09:36:55.029Z</time>
      </trkpt>
      <trkpt lat="43.16066" lon="5.97648">
        <ele>272</ele>
        <time>2016-07-30T09:36:56.029Z</time>
      </trkpt>
      <trkpt lat="43.1606" lon="5.97658">
        <ele>271</ele>
        <time>2016-07-30T09:36:57.029Z</time>
      </trkpt>
      <trkpt lat="43.16053" lon="5.97669">
        <ele>269</ele>
        <time>2016-07-30T09:36:58.029Z</time>
      </trkpt>
      <trkpt lat="43.16046" lon="5.97681">
        <ele>267</ele>
        <time>2016-07-30T09:36:59.029Z</time>
      </trkpt>
      <trkpt lat="43.16037" lon="5.97693">
        <ele>266</ele>
        <time>2016-07-30T09:37:00.029Z</time>
      </trkpt>
      <trkpt lat="43.16028" lon="5.97706">
        <ele>265</ele>
        <time>2016-07-30T09:37:01.029Z</time>
      </trkpt>
      <trkpt lat="43.16019" lon="5.97717">
        <ele>263</ele>
        <time>2016-07-30T09:37:02.029Z</time>
      </trkpt>
      <trkpt lat="43.16008" lon="5.97727">
        <ele>263</ele>
        <time>2016-07-30T09:37:03.029Z</time>
      </trkpt>
      <trkpt lat="43.15995" lon="5.97733">
        <ele>263</ele>
        <time>2016-07-30T09:37:04.029Z</time>
      </trkpt>
      <trkpt lat="43.15981" lon="5.97735">
        <ele>261</ele>
        <time>2016-07-30T09:37:05.029Z</time>
      </trkpt>
      <trkpt lat="43.15968" lon="5.97735">
        <ele>261</ele>
        <time>2016-07-30T09:37:06.029Z</time>
      </trkpt>
      <trkpt lat="43.15956" lon="5.97732">
        <ele>261</ele>
        <time>2016-07-30T09:37:07.029Z</time>
      </trkpt>
      <trkpt lat="43.15943" lon="5.97728">
        <ele>261</ele>
        <time>2016-07-30T09:37:08.029Z</time>
      </trkpt>
      <trkpt lat="43.15931" lon="5.97723">
        <ele>262</ele>
        <time>2016-07-30T09:37:09.029Z</time>
      </trkpt>
      <trkpt lat="43.15917" lon="5.97719">
        <ele>263</ele>
        <time>2016-07-30T09:37:10.029Z</time>
      </trkpt>
      <trkpt lat="43.15903" lon="5.97717">
        <ele>265</ele>
        <time>2016-07-30T09:37:11.029Z</time>
      </trkpt>
      <trkpt lat="43.15888" lon="5.97718">
        <ele>265</ele>
        <time>2016-07-30T09:37:12.029Z</time>
      </trkpt>
      <trkpt lat="43.15874" lon="5.9772">
        <ele>266</ele>
        <time>2016-07-30T09:37:13.029Z</time>
      </trkpt>
      <trkpt lat="43.15862" lon="5.97722">
        <ele>266</ele>
        <time>2016-07-30T09:37:14.029Z</time>
      </trkpt>
      <trkpt lat="43.15851" lon="5.97725">
        <ele>267</ele>
        <time>2016-07-30T09:37:15.029Z</time>
      </trkpt>
      <trkpt lat="43.15842" lon="5.97729">
        <ele>268</ele>
        <time>2016-07-30T09:37:16.029Z</time>
      </trkpt>
      <trkpt lat="43.15833" lon="5.97737">
        <ele>269</ele>
        <time>2016-07-30T09:37:17.029Z</time>
      </trkpt>
      <trkpt lat="43.15826" lon="5.97747">
        <ele>269</ele>
        <time>2016-07-30T09:37:18.029Z</time>
      </trkpt>
      <trkpt lat="43.15821" lon="5.97761">
        <ele>270</ele>
        <time>2016-07-30T09:37:19.029Z</time>
      </trkpt>
      <trkpt lat="43.15816" lon="5.97775">
        <ele>271</ele>
        <time>2016-07-30T09:37:20.029Z</time>
      </trkpt>
      <trkpt lat="43.15812" lon="5.97789">
        <ele>270</ele>
        <time>2016-07-30T09:37:21.029Z</time>
      </trkpt>
      <trkpt lat="43.15807" lon="5.97803">
        <ele>270</ele>
        <time>2016-07-30T09:37:22.029Z</time>
      </trkpt>
      <trkpt lat="43.15801" lon="5.97816">
        <ele>269</ele>
        <time>2016-07-30T09:37:23.029Z</time>
      </trkpt>
      <trkpt lat="43.15795" lon="5.97828">
        <ele>268</ele>
        <time>2016-07-30T09:37:24.029Z</time>
      </trkpt>
      <trkpt lat="43.15788" lon="5.9784">
        <ele>268</ele>
        <time>2016-07-30T09:37:25.029Z</time>
      </trkpt>
      <trkpt lat="43.1578" lon="5.97851">
        <ele>267</ele>
        <time>2016-07-30T09:37:26.029Z</time>
      </trkpt>
      <trkpt lat="43.15773" lon="5.97863">
        <ele>266</ele>
        <time>2016-07-30T09:37:27.029Z</time>
      </trkpt>
      <trkpt lat="43.15764" lon="5.97873">
        <ele>266</ele>
        <time>2016-07-30T09:37:28.029Z</time>
      </trkpt>
      <trkpt lat="43.15755" lon="5.97884">
        <ele>265</ele>
        <time>2016-07-30T09:37:29.029Z</time>
      </trkpt>
      <trkpt lat="43.15746" lon="5.97894">
        <ele>265</ele>
        <time>2016-07-30T09:37:30.029Z</time>
      </trkpt>
      <trkpt lat="43.15737" lon="5.97902">
        <ele>265</ele>
        <time>2016-07-30T09:37:31.029Z</time>
      </trkpt>
      <trkpt lat="43.15728" lon="5.97906">
        <ele>263</ele>
        <time>2016-07-30T09:37:32.029Z</time>
      </trkpt>
      <trkpt lat="43.15719" lon="5.97907">
        <ele>262</ele>
        <time>2016-07-30T09:37:33.029Z</time>
      </trkpt>
      <trkpt lat="43.15711" lon="5.97908">
        <ele>260</ele>
        <time>2016-07-30T09:37:34.029Z</time>
      </trkpt>
      <trkpt lat="43.15703" lon="5.97911">
        <ele>259</ele>
        <time>2016-07-30T09:37:35.029Z</time>
      </trkpt>
      <trkpt lat="43.15698" lon="5.97918">
        <ele>258</ele>
        <time>2016-07-30T09:37:36.029Z</time>
      </trkpt>
      <trkpt lat="43.15695" lon="5.97928">
        <ele>258</ele>
        <time>2016-07-30T09:37:37.029Z</time>
      </trkpt>
      <trkpt lat="43.15694" lon="5.97938">
        <ele>258</ele>
        <time>2016-07-30T09:37:38.029Z</time>
      </trkpt>
      <trkpt lat="43.15693" lon="5.97946">
        <ele>259</ele>
        <time>2016-07-30T09:37:39.029Z</time>
      </trkpt>
      <trkpt lat="43.15689" lon="5.9795">
        <ele>260</ele>
        <time>2016-07-30T09:37:40.029Z</time>
      </trkpt>
      <trkpt lat="43.15684" lon="5.97951">
        <ele>260</ele>
        <time>2016-07-30T09:37:41.029Z</time>
      </trkpt>
      <trkpt lat="43.15679" lon="5.97947">
        <ele>258</ele>
        <time>2016-07-30T09:37:42.029Z</time>
      </trkpt>
      <trkpt lat="43.15677" lon="5.9794">
        <ele>259</ele>
        <time>2016-07-30T09:37:43.029Z</time>
      </trkpt>
      <trkpt lat="43.15676" lon="5.97933">
        <ele>260</ele>
        <time>2016-07-30T09:37:44.029Z</time>
      </trkpt>
      <trkpt lat="43.15674" lon="5.97924">
        <ele>259</ele>
        <time>2016-07-30T09:37:45.029Z</time>
      </trkpt>
      <trkpt lat="43.15672" lon="5.97916">
        <ele>259</ele>
        <time>2016-07-30T09:37:46.029Z</time>
      </trkpt>
      <trkpt lat="43.1567" lon="5.97907">
        <ele>259</ele>
        <time>2016-07-30T09:37:47.029Z</time>
      </trkpt>
      <trkpt lat="43.15668" lon="5.97898">
        <ele>259</ele>
        <time>2016-07-30T09:37:48.029Z</time>
      </trkpt>
      <trkpt lat="43.15665" lon="5.97889">
        <ele>258</ele>
        <time>2016-07-30T09:37:49.029Z</time>
      </trkpt>
      <trkpt lat="43.15661" lon="5.97879">
        <ele>257</ele>
        <time>2016-07-30T09:37:50.029Z</time>
      </trkpt>
      <trkpt lat="43.15657" lon="5.9787">
        <ele>257</ele>
        <time>2016-07-30T09:37:51.029Z</time>
      </trkpt>
      <trkpt lat="43.15652" lon="5.9786">
        <ele>258</ele>
        <time>2016-07-30T09:37:52.029Z</time>
      </trkpt>
      <trkpt lat="43.15652" lon="5.97851">
        <ele>257</ele>
        <time>2016-07-30T09:37:53.029Z</time>
      </trkpt>
      <trkpt lat="43.15654" lon="5.97844">
        <ele>257</ele>
        <time>2016-07-30T09:37:54.029Z</time>
      </trkpt>
      <trkpt lat="43.15658" lon="5.9784">
        <ele>257</ele>
        <time>2016-07-30T09:37:55.029Z</time>
      </trkpt>
      <trkpt lat="43.15663" lon="5.97839">
        <ele>258</ele>
        <time>2016-07-30T09:37:56.029Z</time>
      </trkpt>
      <trkpt lat="43.15668" lon="5.97841">
        <ele>258</ele>
        <time>2016-07-30T09:37:57.029Z</time>
      </trkpt>
      <trkpt lat="43.15673" lon="5.97844">
        <ele>258</ele>
        <time>2016-07-30T09:37:58.029Z</time>
      </trkpt>
      <trkpt lat="43.15678" lon="5.97847">
        <ele>259</ele>
        <time>2016-07-30T09:37:59.029Z</time>
      </trkpt>
      <trkpt lat="43.15684" lon="5.9785">
        <ele>259</ele>
        <time>2016-07-30T09:38:00.029Z</time>
      </trkpt>
      <trkpt lat="43.1569" lon="5.97851">
        <ele>259</ele>
        <time>2016-07-30T09:38:01.029Z</time>
      </trkpt>
      <trkpt lat="43.15697" lon="5.97849">
        <ele>259</ele>
        <time>2016-07-30T09:38:02.029Z</time>
      </trkpt>
      <trkpt lat="43.15704" lon="5.97845">
        <ele>258</ele>
        <time>2016-07-30T09:38:03.029Z</time>
      </trkpt>
      <trkpt lat="43.15709" lon="5.97838">
        <ele>258</ele>
        <time>2016-07-30T09:38:04.029Z</time>
      </trkpt>
      <trkpt lat="43.15713" lon="5.9783">
        <ele>258</ele>
        <time>2016-07-30T09:38:05.029Z</time>
      </trkpt>
      <trkpt lat="43.15716" lon="5.9782">
        <ele>258</ele>
        <time>2016-07-30T09:38:06.029Z</time>
      </trkpt>
      <trkpt lat="43.15719" lon="5.97808">
        <ele>257</ele>
        <time>2016-07-30T09:38:07.029Z</time>
      </trkpt>
      <trkpt lat="43.15721" lon="5.97796">
        <ele>257</ele>
        <time>2016-07-30T09:38:08.029Z</time>
      </trkpt>
      <trkpt lat="43.1572" lon="5.97783">
        <ele>257</ele>
        <time>2016-07-30T09:38:09.029Z</time>
      </trkpt>
      <trkpt lat="43.15719" lon="5.9777">
        <ele>256</ele>
        <time>2016-07-30T09:38:10.029Z</time>
      </trkpt>
      <trkpt lat="43.15716" lon="5.97757">
        <ele>256</ele>
        <time>2016-07-30T09:38:11.029Z</time>
      </trkpt>
      <trkpt lat="43.15714" lon="5.97744">
        <ele>256</ele>
        <time>2016-07-30T09:38:12.029Z</time>
      </trkpt>
      <trkpt lat="43.15711" lon="5.97731">
        <ele>255</ele>
        <time>2016-07-30T09:38:13.029Z</time>
      </trkpt>
      <trkpt lat="43.1571" lon="5.97717">
        <ele>255</ele>
        <time>2016-07-30T09:38:14.029Z</time>
      </trkpt>
      <trkpt lat="43.15709" lon="5.97704">
        <ele>254</ele>
        <time>2016-07-30T09:38:15.029Z</time>
      </trkpt>
      <trkpt lat="43.15708" lon="5.97689">
        <ele>253</ele>
        <time>2016-07-30T09:38:16.029Z</time>
      </trkpt>
      <trkpt lat="43.15705" lon="5.97675">
        <ele>252</ele>
        <time>2016-07-30T09:38:17.029Z</time>
      </trkpt>
      <trkpt lat="43.15702" lon="5.9766">
        <ele>252</ele>
        <time>2016-07-30T09:38:18.029Z</time>
      </trkpt>
      <trkpt lat="43.15698" lon="5.97646">
        <ele>251</ele>
        <time>2016-07-30T09:38:19.029Z</time>
      </trkpt>
      <trkpt lat="43.15694" lon="5.97631">
        <ele>251</ele>
        <time>2016-07-30T09:38:20.029Z</time>
      </trkpt>
      <trkpt lat="43.15691" lon="5.97615">
        <ele>250</ele>
        <time>2016-07-30T09:38:21.029Z</time>
      </trkpt>
      <trkpt lat="43.15687" lon="5.976">
        <ele>249</ele>
        <time>2016-07-30T09:38:22.029Z</time>
      </trkpt>
      <trkpt lat="43.15683" lon="5.97585">
        <ele>249</ele>
        <time>2016-07-30T09:38:23.029Z</time>
      </trkpt>
      <trkpt lat="43.1568" lon="5.97569">
        <ele>248</ele>
        <time>2016-07-30T09:38:24.029Z</time>
      </trkpt>
      <trkpt lat="43.15678" lon="5.97553">
        <ele>246</ele>
        <time>2016-07-30T09:38:25.029Z</time>
      </trkpt>
      <trkpt lat="43.15676" lon="5.97535">
        <ele>246</ele>
        <time>2016-07-30T09:38:26.029Z</time>
      </trkpt>
      <trkpt lat="43.15675" lon="5.97518">
        <ele>245</ele>
        <time>2016-07-30T09:38:27.029Z</time>
      </trkpt>
      <trkpt lat="43.15673" lon="5.975">
        <ele>245</ele>
        <time>2016-07-30T09:38:28.029Z</time>
      </trkpt>
      <trkpt lat="43.15671" lon="5.97483">
        <ele>244</ele>
        <time>2016-07-30T09:38:29.029Z</time>
      </trkpt>
      <trkpt lat="43.15669" lon="5.97467">
        <ele>242</ele>
        <time>2016-07-30T09:38:30.029Z</time>
      </trkpt>
      <trkpt lat="43.15667" lon="5.97452">
        <ele>241</ele>
        <time>2016-07-30T09:38:31.029Z</time>
      </trkpt>
      <trkpt lat="43.15666" lon="5.9744">
        <ele>239</ele>
        <time>2016-07-30T09:38:32.029Z</time>
      </trkpt>
      <trkpt lat="43.15664" lon="5.97429">
        <ele>238</ele>
        <time>2016-07-30T09:38:33.029Z</time>
      </trkpt>
      <trkpt lat="43.15663" lon="5.97421">
        <ele>240</ele>
        <time>2016-07-30T09:38:34.029Z</time>
      </trkpt>
      <trkpt lat="43.15662" lon="5.97413">
        <ele>244</ele>
        <time>2016-07-30T09:38:35.029Z</time>
      </trkpt>
      <trkpt lat="43.15662" lon="5.97407">
        <ele>247</ele>
        <time>2016-07-30T09:38:36.029Z</time>
      </trkpt>
      <trkpt lat="43.15663" lon="5.97401">
        <ele>247</ele>
        <time>2016-07-30T09:38:37.029Z</time>
      </trkpt>
      <trkpt lat="43.15664" lon="5.97395">
        <ele>248</ele>
        <time>2016-07-30T09:38:38.029Z</time>
      </trkpt>
      <trkpt lat="43.15666" lon="5.9739">
        <ele>249</ele>
        <time>2016-07-30T09:38:39.029Z</time>
      </trkpt>
      <trkpt lat="43.15667" lon="5.97386">
        <ele>249</ele>
        <time>2016-07-30T09:38:40.029Z</time>
      </trkpt>
      <trkpt lat="43.15668" lon="5.97383">
        <ele>246</ele>
        <time>2016-07-30T09:38:41.029Z</time>
      </trkpt>
      <trkpt lat="43.15668" lon="5.97382">
        <ele>244</ele>
        <time>2016-07-30T09:38:42.029Z</time>
      </trkpt>
      <trkpt lat="43.15668" lon="5.97381">
        <ele>245</ele>
        <time>2016-07-30T09:38:43.029Z</time>
      </trkpt>
      <trkpt lat="43.15667" lon="5.9738">
        <ele>245</ele>
        <time>2016-07-30T09:38:44.029Z</time>
      </trkpt>
      <trkpt lat="43.15665" lon="5.9738">
        <ele>247</ele>
        <time>2016-07-30T09:38:45.029Z</time>
      </trkpt>
      <trkpt lat="43.15662" lon="5.97379">
        <ele>247</ele>
        <time>2016-07-30T09:38:46.029Z</time>
      </trkpt>
      <trkpt lat="43.15659" lon="5.97378">
        <ele>248</ele>
        <time>2016-07-30T09:38:47.029Z</time>
      </trkpt>
      <trkpt lat="43.15655" lon="5.97377">
        <ele>248</ele>
        <time>2016-07-30T09:38:48.029Z</time>
      </trkpt>
      <trkpt lat="43.15651" lon="5.97375">
        <ele>248</ele>
        <time>2016-07-30T09:38:49.029Z</time>
      </trkpt>
      <trkpt lat="43.15646" lon="5.97372">
        <ele>248</ele>
        <time>2016-07-30T09:38:50.029Z</time>
      </trkpt>
      <trkpt lat="43.15641" lon="5.97369">
        <ele>248</ele>
        <time>2016-07-30T09:38:51.029Z</time>
      </trkpt>
      <trkpt lat="43.15637" lon="5.97365">
        <ele>248</ele>
        <time>2016-07-30T09:38:52.029Z</time>
      </trkpt>
      <trkpt lat="43.15633" lon="5.97362">
        <ele>248</ele>
        <time>2016-07-30T09:38:53.029Z</time>
      </trkpt>
      <trkpt lat="43.15628" lon="5.97358">
        <ele>249</ele>
        <time>2016-07-30T09:38:54.029Z</time>
      </trkpt>
      <trkpt lat="43.15624" lon="5.97354">
        <ele>249</ele>
        <time>2016-07-30T09:38:55.029Z</time>
      </trkpt>
      <trkpt lat="43.1562" lon="5.9735">
        <ele>248</ele>
        <time>2016-07-30T09:38:56.029Z</time>
      </trkpt>
      <trkpt lat="43.15615" lon="5.97345">
        <ele>248</ele>
        <time>2016-07-30T09:38:57.029Z</time>
      </trkpt>
      <trkpt lat="43.1561" lon="5.9734">
        <ele>247</ele>
        <time>2016-07-30T09:38:58.029Z</time>
      </trkpt>
      <trkpt lat="43.15606" lon="5.97334">
        <ele>247</ele>
        <time>2016-07-30T09:38:59.029Z</time>
      </trkpt>
      <trkpt lat="43.15601" lon="5.97326">
        <ele>247</ele>
        <time>2016-07-30T09:39:00.029Z</time>
      </trkpt>
      <trkpt lat="43.15598" lon="5.97316">
        <ele>246</ele>
        <time>2016-07-30T09:39:01.029Z</time>
      </trkpt>
      <trkpt lat="43.15595" lon="5.97304">
        <ele>245</ele>
        <time>2016-07-30T09:39:02.029Z</time>
      </trkpt>
      <trkpt lat="43.15593" lon="5.97293">
        <ele>245</ele>
        <time>2016-07-30T09:39:03.029Z</time>
      </trkpt>
      <trkpt lat="43.15591" lon="5.97282">
        <ele>244</ele>
        <time>2016-07-30T09:39:04.029Z</time>
      </trkpt>
      <trkpt lat="43.1559" lon="5.97271">
        <ele>244</ele>
        <time>2016-07-30T09:39:05.029Z</time>
      </trkpt>
      <trkpt lat="43.1559" lon="5.97259">
        <ele>244</ele>
        <time>2016-07-30T09:39:06.029Z</time>
      </trkpt>
      <trkpt lat="43.1559" lon="5.97248">
        <ele>244</ele>
        <time>2016-07-30T09:39:07.029Z</time>
      </trkpt>
      <trkpt lat="43.1559" lon="5.97236">
        <ele>244</ele>
        <time>2016-07-30T09:39:08.029Z</time>
      </trkpt>
      <trkpt lat="43.1559" lon="5.97225">
        <ele>244</ele>
        <time>2016-07-30T09:39:09.029Z</time>
      </trkpt>
      <trkpt lat="43.1559" lon="5.97213">
        <ele>244</ele>
        <time>2016-07-30T09:39:10.029Z</time>
      </trkpt>
      <trkpt lat="43.1559" lon="5.97202">
        <ele>244</ele>
        <time>2016-07-30T09:39:11.029Z</time>
      </trkpt>
      <trkpt lat="43.1559" lon="5.97191">
        <ele>244</ele>
        <time>2016-07-30T09:39:12.029Z</time>
      </trkpt>
      <trkpt lat="43.1559" lon="5.97179">
        <ele>244</ele>
        <time>2016-07-30T09:39:13.029Z</time>
      </trkpt>
      <trkpt lat="43.1559" lon="5.97167">
        <ele>244</ele>
        <time>2016-07-30T09:39:14.029Z</time>
      </trkpt>
      <trkpt lat="43.1559" lon="5.97155">
        <ele>244</ele>
        <time>2016-07-30T09:39:15.029Z</time>
      </trkpt>
      <trkpt lat="43.1559" lon="5.97143">
        <ele>244</ele>
        <time>2016-07-30T09:39:16.029Z</time>
      </trkpt>
      <trkpt lat="43.15589" lon="5.97131">
        <ele>244</ele>
        <time>2016-07-30T09:39:17.029Z</time>
      </trkpt>
      <trkpt lat="43.15588" lon="5.9712">
        <ele>243</ele>
        <time>2016-07-30T09:39:18.029Z</time>
      </trkpt>
      <trkpt lat="43.15587" lon="5.97107">
        <ele>242</ele>
        <time>2016-07-30T09:39:19.029Z</time>
      </trkpt>
      <trkpt lat="43.15584" lon="5.97096">
        <ele>242</ele>
        <time>2016-07-30T09:39:20.029Z</time>
      </trkpt>
      <trkpt lat="43.15582" lon="5.97084">
        <ele>242</ele>
        <time>2016-07-30T09:39:21.029Z</time>
      </trkpt>
      <trkpt lat="43.15579" lon="5.97072">
        <ele>241</ele>
        <time>2016-07-30T09:39:22.029Z</time>
      </trkpt>
      <trkpt lat="43.15576" lon="5.9706">
        <ele>242</ele>
        <time>2016-07-30T09:39:23.029Z</time>
      </trkpt>
      <trkpt lat="43.15573" lon="5.97048">
        <ele>242</ele>
        <time>2016-07-30T09:39:24.029Z</time>
      </trkpt>
      <trkpt lat="43.1557" lon="5.97035">
        <ele>242</ele>
        <time>2016-07-30T09:39:25.029Z</time>
      </trkpt>
      <trkpt lat="43.15568" lon="5.97023">
        <ele>242</ele>
        <time>2016-07-30T09:39:26.029Z</time>
      </trkpt>
      <trkpt lat="43.15566" lon="5.97011">
        <ele>242</ele>
        <time>2016-07-30T09:39:27.029Z</time>
      </trkpt>
      <trkpt lat="43.15565" lon="5.97">
        <ele>242</ele>
        <time>2016-07-30T09:39:28.029Z</time>
      </trkpt>
      <trkpt lat="43.15566" lon="5.96989">
        <ele>238</ele>
        <time>2016-07-30T09:39:29.029Z</time>
      </trkpt>
      <trkpt lat="43.1557" lon="5.96978">
        <ele>239</ele>
        <time>2016-07-30T09:39:30.029Z</time>
      </trkpt>
      <trkpt lat="43.15574" lon="5.96968">
        <ele>240</ele>
        <time>2016-07-30T09:39:31.029Z</time>
      </trkpt>
      <trkpt lat="43.15578" lon="5.96958">
        <ele>240</ele>
        <time>2016-07-30T09:39:32.029Z</time>
      </trkpt>
      <trkpt lat="43.15581" lon="5.96949">
        <ele>241</ele>
        <time>2016-07-30T09:39:33.029Z</time>
      </trkpt>
      <trkpt lat="43.15585" lon="5.96941">
        <ele>242</ele>
        <time>2016-07-30T09:39:34.029Z</time>
      </trkpt>
      <trkpt lat="43.15589" lon="5.96933">
        <ele>243</ele>
        <time>2016-07-30T09:39:35.029Z</time>
      </trkpt>
      <trkpt lat="43.15593" lon="5.96926">
        <ele>243</ele>
        <time>2016-07-30T09:39:36.029Z</time>
      </trkpt>
      <trkpt lat="43.15597" lon="5.96919">
        <ele>243</ele>
        <time>2016-07-30T09:39:37.029Z</time>
      </trkpt>
      <trkpt lat="43.15601" lon="5.96913">
        <ele>243</ele>
        <time>2016-07-30T09:39:38.029Z</time>
      </trkpt>
      <trkpt lat="43.15605" lon="5.96907">
        <ele>243</ele>
        <time>2016-07-30T09:39:39.029Z</time>
      </trkpt>
      <trkpt lat="43.15609" lon="5.96901">
        <ele>243</ele>
        <time>2016-07-30T09:39:40.029Z</time>
      </trkpt>
      <trkpt lat="43.15613" lon="5.96894">
        <ele>242</ele>
        <time>2016-07-30T09:39:41.029Z</time>
      </trkpt>
      <trkpt lat="43.15617" lon="5.96888">
        <ele>242</ele>
        <time>2016-07-30T09:39:42.029Z</time>
      </trkpt>
      <trkpt lat="43.15621" lon="5.96881">
        <ele>242</ele>
        <time>2016-07-30T09:39:43.029Z</time>
      </trkpt>
      <trkpt lat="43.15625" lon="5.96874">
        <ele>242</ele>
        <time>2016-07-30T09:39:44.029Z</time>
      </trkpt>
      <trkpt lat="43.15629" lon="5.96866">
        <ele>241</ele>
        <time>2016-07-30T09:39:45.029Z</time>
      </trkpt>
      <trkpt lat="43.15633" lon="5.96858">
        <ele>240</ele>
        <time>2016-07-30T09:39:46.029Z</time>
      </trkpt>
      <trkpt lat="43.15637" lon="5.96849">
        <ele>240</ele>
        <time>2016-07-30T09:39:47.029Z</time>
      </trkpt>
      <trkpt lat="43.1564" lon="5.9684">
        <ele>239</ele>
        <time>2016-07-30T09:39:48.029Z</time>
      </trkpt>
      <trkpt lat="43.15643" lon="5.96829">
        <ele>239</ele>
        <time>2016-07-30T09:39:49.029Z</time>
      </trkpt>
      <trkpt lat="43.15646" lon="5.96819">
        <ele>239</ele>
        <time>2016-07-30T09:39:50.029Z</time>
      </trkpt>
      <trkpt lat="43.15649" lon="5.96808">
        <ele>239</ele>
        <time>2016-07-30T09:39:51.029Z</time>
      </trkpt>
      <trkpt lat="43.15651" lon="5.96797">
        <ele>238</ele>
        <time>2016-07-30T09:39:52.029Z</time>
      </trkpt>
      <trkpt lat="43.15654" lon="5.96787">
        <ele>238</ele>
        <time>2016-07-30T09:39:53.029Z</time>
      </trkpt>
      <trkpt lat="43.15657" lon="5.96777">
        <ele>238</ele>
        <time>2016-07-30T09:39:54.029Z</time>
      </trkpt>
      <trkpt lat="43.15659" lon="5.96767">
        <ele>239</ele>
        <time>2016-07-30T09:39:55.029Z</time>
      </trkpt>
      <trkpt lat="43.15662" lon="5.96758">
        <ele>239</ele>
        <time>2016-07-30T09:39:56.029Z</time>
      </trkpt>
      <trkpt lat="43.15665" lon="5.96749">
        <ele>239</ele>
        <time>2016-07-30T09:39:57.029Z</time>
      </trkpt>
      <trkpt lat="43.15668" lon="5.9674">
        <ele>239</ele>
        <time>2016-07-30T09:39:58.029Z</time>
      </trkpt>
      <trkpt lat="43.15671" lon="5.96731">
        <ele>239</ele>
        <time>2016-07-30T09:39:59.029Z</time>
      </trkpt>
      <trkpt lat="43.15675" lon="5.96723">
        <ele>239</ele>
        <time>2016-07-30T09:40:00.029Z</time>
      </trkpt>
      <trkpt lat="43.15678" lon="5.96714">
        <ele>239</ele>
        <time>2016-07-30T09:40:01.029Z</time>
      </trkpt>
      <trkpt lat="43.15681" lon="5.96705">
        <ele>239</ele>
        <time>2016-07-30T09:40:02.029Z</time>
      </trkpt>
      <trkpt lat="43.15685" lon="5.96697">
        <ele>239</ele>
        <time>2016-07-30T09:40:03.029Z</time>
      </trkpt>
      <trkpt lat="43.15688" lon="5.96688">
        <ele>239</ele>
        <time>2016-07-30T09:40:04.029Z</time>
      </trkpt>
      <trkpt lat="43.15692" lon="5.96679">
        <ele>239</ele>
        <time>2016-07-30T09:40:05.029Z</time>
      </trkpt>
      <trkpt lat="43.15696" lon="5.9667">
        <ele>239</ele>
        <time>2016-07-30T09:40:06.029Z</time>
      </trkpt>
      <trkpt lat="43.15699" lon="5.9666">
        <ele>239</ele>
        <time>2016-07-30T09:40:07.029Z</time>
      </trkpt>
      <trkpt lat="43.15703" lon="5.96651">
        <ele>239</ele>
        <time>2016-07-30T09:40:08.029Z</time>
      </trkpt>
      <trkpt lat="43.15706" lon="5.96642">
        <ele>238</ele>
        <time>2016-07-30T09:40:09.029Z</time>
      </trkpt>
      <trkpt lat="43.15708" lon="5.96633">
        <ele>238</ele>
        <time>2016-07-30T09:40:10.029Z</time>
      </trkpt>
      <trkpt lat="43.1571" lon="5.96623">
        <ele>238</ele>
        <time>2016-07-30T09:40:11.029Z</time>
      </trkpt>
      <trkpt lat="43.15712" lon="5.96614">
        <ele>238</ele>
        <time>2016-07-30T09:40:12.029Z</time>
      </trkpt>
      <trkpt lat="43.15714" lon="5.96604">
        <ele>238</ele>
        <time>2016-07-30T09:40:13.029Z</time>
      </trkpt>
      <trkpt lat="43.15716" lon="5.96594">
        <ele>238</ele>
        <time>2016-07-30T09:40:14.029Z</time>
      </trkpt>
      <trkpt lat="43.15717" lon="5.96585">
        <ele>238</ele>
        <time>2016-07-30T09:40:15.029Z</time>
      </trkpt>
      <trkpt lat="43.15719" lon="5.96575">
        <ele>238</ele>
        <time>2016-07-30T09:40:16.029Z</time>
      </trkpt>
      <trkpt lat="43.15719" lon="5.96565">
        <ele>238</ele>
        <time>2016-07-30T09:40:17.029Z</time>
      </trkpt>
      <trkpt lat="43.1572" lon="5.96554">
        <ele>237</ele>
        <time>2016-07-30T09:40:18.029Z</time>
      </trkpt>
      <trkpt lat="43.1572" lon="5.96544">
        <ele>236</ele>
        <time>2016-07-30T09:40:19.029Z</time>
      </trkpt>
      <trkpt lat="43.1572" lon="5.96533">
        <ele>236</ele>
        <time>2016-07-30T09:40:20.029Z</time>
      </trkpt>
      <trkpt lat="43.1572" lon="5.96522">
        <ele>235</ele>
        <time>2016-07-30T09:40:21.029Z</time>
      </trkpt>
      <trkpt lat="43.15718" lon="5.96511">
        <ele>235</ele>
        <time>2016-07-30T09:40:22.029Z</time>
      </trkpt>
      <trkpt lat="43.15717" lon="5.96499">
        <ele>234</ele>
        <time>2016-07-30T09:40:23.029Z</time>
      </trkpt>
      <trkpt lat="43.15716" lon="5.96486">
        <ele>233</ele>
        <time>2016-07-30T09:40:24.029Z</time>
      </trkpt>
      <trkpt lat="43.15715" lon="5.96473">
        <ele>232</ele>
        <time>2016-07-30T09:40:25.029Z</time>
      </trkpt>
      <trkpt lat="43.15715" lon="5.96458">
        <ele>231</ele>
        <time>2016-07-30T09:40:26.029Z</time>
      </trkpt>
      <trkpt lat="43.15715" lon="5.96444">
        <ele>230</ele>
        <time>2016-07-30T09:40:27.029Z</time>
      </trkpt>
      <trkpt lat="43.15714" lon="5.96429">
        <ele>230</ele>
        <time>2016-07-30T09:40:28.029Z</time>
      </trkpt>
      <trkpt lat="43.15714" lon="5.96414">
        <ele>229</ele>
        <time>2016-07-30T09:40:29.029Z</time>
      </trkpt>
      <trkpt lat="43.15715" lon="5.96399">
        <ele>229</ele>
        <time>2016-07-30T09:40:30.029Z</time>
      </trkpt>
      <trkpt lat="43.15715" lon="5.96384">
        <ele>229</ele>
        <time>2016-07-30T09:40:31.029Z</time>
      </trkpt>
      <trkpt lat="43.15716" lon="5.9637">
        <ele>229</ele>
        <time>2016-07-30T09:40:32.029Z</time>
      </trkpt>
      <trkpt lat="43.15716" lon="5.96356">
        <ele>229</ele>
        <time>2016-07-30T09:40:33.029Z</time>
      </trkpt>
      <trkpt lat="43.15717" lon="5.96344">
        <ele>228</ele>
        <time>2016-07-30T09:40:34.029Z</time>
      </trkpt>
      <trkpt lat="43.15718" lon="5.96332">
        <ele>228</ele>
        <time>2016-07-30T09:40:35.029Z</time>
      </trkpt>
      <trkpt lat="43.15719" lon="5.96322">
        <ele>229</ele>
        <time>2016-07-30T09:40:36.029Z</time>
      </trkpt>
      <trkpt lat="43.1572" lon="5.96313">
        <ele>230</ele>
        <time>2016-07-30T09:40:37.029Z</time>
      </trkpt>
      <trkpt lat="43.15721" lon="5.96306">
        <ele>232</ele>
        <time>2016-07-30T09:40:38.029Z</time>
      </trkpt>
      <trkpt lat="43.15722" lon="5.96299">
        <ele>232</ele>
        <time>2016-07-30T09:40:39.029Z</time>
      </trkpt>
      <trkpt lat="43.15723" lon="5.96294">
        <ele>233</ele>
        <time>2016-07-30T09:40:40.029Z</time>
      </trkpt>
      <trkpt lat="43.15724" lon="5.9629">
        <ele>229</ele>
        <time>2016-07-30T09:40:41.029Z</time>
      </trkpt>
      <trkpt lat="43.15724" lon="5.96289">
        <ele>227</ele>
        <time>2016-07-30T09:40:42.029Z</time>
      </trkpt>
      <trkpt lat="43.15724" lon="5.96288">
        <ele>223</ele>
        <time>2016-07-30T09:40:43.029Z</time>
      </trkpt>
      <trkpt lat="43.15723" lon="5.96289">
        <ele>223</ele>
        <time>2016-07-30T09:40:44.029Z</time>
      </trkpt>
      <trkpt lat="43.15723" lon="5.9629">
        <ele>224</ele>
        <time>2016-07-30T09:40:45.029Z</time>
      </trkpt>
      <trkpt lat="43.15723" lon="5.96292">
        <ele>227</ele>
        <time>2016-07-30T09:40:46.029Z</time>
      </trkpt>
      <trkpt lat="43.15723" lon="5.96294">
        <ele>228</ele>
        <time>2016-07-30T09:40:47.029Z</time>
      </trkpt>
      <trkpt lat="43.15722" lon="5.96297">
        <ele>228</ele>
        <time>2016-07-30T09:40:48.029Z</time>
      </trkpt>
      <trkpt lat="43.15722" lon="5.963">
        <ele>228</ele>
        <time>2016-07-30T09:40:49.029Z</time>
      </trkpt>
      <trkpt lat="43.15722" lon="5.96302">
        <ele>229</ele>
        <time>2016-07-30T09:40:50.029Z</time>
      </trkpt>
      <trkpt lat="43.15722" lon="5.96304">
        <ele>229</ele>
        <time>2016-07-30T09:40:51.029Z</time>
      </trkpt>
      <trkpt lat="43.15722" lon="5.96306">
        <ele>229</ele>
        <time>2016-07-30T09:40:52.029Z</time>
      </trkpt>
      <trkpt lat="43.15722" lon="5.96308">
        <ele>230</ele>
        <time>2016-07-30T09:40:53.029Z</time>
      </trkpt>
      <trkpt lat="43.15722" lon="5.9631">
        <ele>230</ele>
        <time>2016-07-30T09:40:54.029Z</time>
      </trkpt>
      <trkpt lat="43.15721" lon="5.96311">
        <ele>231</ele>
        <time>2016-07-30T09:40:55.029Z</time>
      </trkpt>
      <trkpt lat="43.1572" lon="5.96312">
        <ele>232</ele>
        <time>2016-07-30T09:40:56.029Z</time>
      </trkpt>
      <trkpt lat="43.15719" lon="5.96312">
        <ele>232</ele>
        <time>2016-07-30T09:40:57.029Z</time>
      </trkpt>
      <trkpt lat="43.15718" lon="5.96311">
        <ele>232</ele>
        <time>2016-07-30T09:40:58.029Z</time>
      </trkpt>
      <trkpt lat="43.15718" lon="5.96309">
        <ele>232</ele>
        <time>2016-07-30T09:40:59.029Z</time>
      </trkpt>
      <trkpt lat="43.15718" lon="5.96308">
        <ele>232</ele>
        <time>2016-07-30T09:41:00.029Z</time>
      </trkpt>
      <trkpt lat="43.15718" lon="5.96306">
        <ele>232</ele>
        <time>2016-07-30T09:41:01.029Z</time>
      </trkpt>
      <trkpt lat="43.15718" lon="5.96304">
        <ele>233</ele>
        <time>2016-07-30T09:41:02.029Z</time>
      </trkpt>
      <trkpt lat="43.15718" lon="5.96303">
        <ele>232</ele>
        <time>2016-07-30T09:41:03.029Z</time>
      </trkpt>
      <trkpt lat="43.15718" lon="5.96301">
        <ele>233</ele>
        <time>2016-07-30T09:41:04.029Z</time>
      </trkpt>
      <trkpt lat="43.15718" lon="5.96299">
        <ele>233</ele>
        <time>2016-07-30T09:41:05.029Z</time>
      </trkpt>
      <trkpt lat="43.15718" lon="5.96299">
        <ele>233</ele>
        <time>2016-07-30T09:41:06.029Z</time>
      </trkpt>
      <trkpt lat="43.15718" lon="5.96298">
        <ele>233</ele>
        <time>2016-07-30T09:41:07.029Z</time>
      </trkpt>
      <trkpt lat="43.15718" lon="5.96298">
        <ele>234</ele>
        <time>2016-07-30T09:41:08.029Z</time>
      </trkpt>
      <trkpt lat="43.15718" lon="5.96298">
        <ele>234</ele>
        <time>2016-07-30T09:41:09.029Z</time>
      </trkpt>
      <trkpt lat="43.15718" lon="5.96298">
        <ele>234</ele>
        <time>2016-07-30T09:41:10.029Z</time>
      </trkpt>
      <trkpt lat="43.15718" lon="5.96298">
        <ele>233</ele>
        <time>2016-07-30T09:41:11.029Z</time>
      </trkpt>
      <trkpt lat="43.15718" lon="5.96298">
        <ele>233</ele>
        <time>2016-07-30T09:41:12.029Z</time>
      </trkpt>
      <trkpt lat="43.15718" lon="5.96298">
        <ele>234</ele>
        <time>2016-07-30T09:41:13.029Z</time>
      </trkpt>
      <trkpt lat="43.1572" lon="5.9629">
        <ele>231</ele>
        <time>2016-07-30T09:41:14.037Z</time>
      </trkpt>
      <trkpt lat="43.1572" lon="5.96291">
        <ele>231</ele>
        <time>2016-07-30T09:41:15.037Z</time>
      </trkpt>
      <trkpt lat="43.1572" lon="5.96292">
        <ele>231</ele>
        <time>2016-07-30T09:41:16.037Z</time>
      </trkpt>
      <trkpt lat="43.1572" lon="5.96292">
        <ele>231</ele>
        <time>2016-07-30T09:41:17.037Z</time>
      </trkpt>
      <trkpt lat="43.1572" lon="5.96292">
        <ele>231</ele>
        <time>2016-07-30T09:41:18.037Z</time>
      </trkpt>
      <trkpt lat="43.1572" lon="5.96293">
        <ele>231</ele>
        <time>2016-07-30T09:41:19.037Z</time>
      </trkpt>
      <trkpt lat="43.1572" lon="5.96293">
        <ele>231</ele>
        <time>2016-07-30T09:41:20.037Z</time>
      </trkpt>
      <trkpt lat="43.1572" lon="5.96293">
        <ele>231</ele>
        <time>2016-07-30T09:41:21.037Z</time>
      </trkpt>
      <trkpt lat="43.1572" lon="5.96293">
        <ele>231</ele>
        <time>2016-07-30T09:41:22.037Z</time>
      </trkpt>
    </trkseg>
  </trk>
</gpx>